
Distance (Route):
Temperature : 14.3°C
Humidity : 86.2%
Pressure : 910.6hPa| Receiver | Frames | First received | Last received |
|---|---|---|---|
| DK7TD | 834 | 2026-09-05 10:47:45 | 2026-09-05 13:06:21 |
| DO3MHA-12 | 711 | 2026-09-05 11:17:29 | 2026-09-05 14:00:18 |
| DO3MHA-11 | 696 | 2026-09-05 11:22:30 | 2026-09-05 14:02:03 |
| DM0DOS-11 | 434 | 2026-09-05 11:16:41 | 2026-09-05 12:56:15 |
| DL1NUX | 237 | 2026-09-05 11:49:18 | 2026-09-05 12:54:13 |
| HSKMA3-T | 175 | 2026-09-05 11:54:41 | 2026-09-05 12:35:49 |
| OE5DRO-10 | 148 | 2026-09-05 11:22:52 | 2026-09-05 13:45:10 |
| OE5DXL-15 | 115 | 2026-09-05 11:24:43 | 2026-09-05 14:00:44 |
| DG1MFX-10 | 114 | 2026-09-05 11:35:23 | 2026-09-05 14:03:09 |
| DL6DJ-15 | 108 | 2026-09-05 11:10:44 | 2026-09-05 13:52:49 |
| DB0UT-7 | 106 | 2026-09-05 11:17:17 | 2026-09-05 13:26:47 |
| DB0ND-19 | 105 | 2026-09-05 10:57:45 | 2026-09-05 13:35:30 |
| NBG1-10 | 102 | 2026-09-05 11:16:43 | 2026-09-05 13:46:19 |
| DJ8HS-15 | 99 | 2026-09-05 11:17:33 | 2026-09-05 12:55:15 |
| DL9SK-14 | 91 | 2026-09-05 10:46:23 | 2026-09-05 13:27:53 |
| OE5MMP-10 | 88 | 2026-09-05 11:51:26 | 2026-09-05 13:25:26 |
| DB0NH | 87 | 2026-09-05 11:19:47 | 2026-09-05 13:41:28 |
| PG1ADW-2 | 79 | 2026-09-05 11:26:08 | 2026-09-05 13:15:24 |
| DK5PH-5 | 65 | 2026-09-05 11:21:51 | 2026-09-05 13:13:30 |
| AZAK | 61 | 2026-09-05 10:45:47 | 2026-09-05 12:41:13 |
| DL1ZP-14 | 61 | 2026-09-05 11:09:46 | 2026-09-05 12:54:54 |
| BIOWL1-15 | 60 | 2026-09-05 11:14:10 | 2026-09-05 12:53:10 |
| DL1XH-west | 60 | 2026-09-05 12:11:04 | 2026-09-05 12:27:36 |
| OE5WHR-10 | 55 | 2026-09-05 11:55:42 | 2026-09-05 13:34:55 |
| DF3TZ-5 | 54 | 2026-09-05 10:47:42 | 2026-09-05 13:03:48 |
| DF8AY | 53 | 2026-09-05 12:09:07 | 2026-09-05 12:24:54 |
| DF7PN | 52 | 2026-09-05 10:54:45 | 2026-09-05 13:09:53 |
| IW2NTF | 51 | 2026-09-05 11:40:46 | 2026-09-05 12:43:59 |
| DM7RM-13 | 50 | 2026-09-05 11:20:40 | 2026-09-05 12:42:06 |
| DG1MJG | 43 | 2026-09-05 11:19:55 | 2026-09-05 13:47:49 |
| DF1GD-15 | 42 | 2026-09-05 11:19:57 | 2026-09-05 12:56:18 |
| BAUMI2-15 | 37 | 2026-09-05 11:47:27 | 2026-09-05 12:40:10 |
| DL1XH1-15 | 37 | 2026-09-05 12:14:18 | 2026-09-05 12:27:32 |
| SO1NDE-10 | 35 | 2026-09-05 11:51:09 | 2026-09-05 12:54:16 |
| SONCRA | 30 | 2026-09-05 11:45:18 | 2026-09-05 12:47:23 |
| DO9HM | 26 | 2026-09-05 11:32:00 | 2026-09-05 13:06:45 |
| HARRO8 | 21 | 2026-09-05 10:58:45 | 2026-09-05 12:54:43 |
| DD1CC3-15 | 21 | 2026-09-05 11:49:07 | 2026-09-05 12:26:37 |
| DH7VM-15 | 17 | 2026-09-05 11:33:12 | 2026-09-05 13:16:27 |
| SONDE2-11 | 17 | 2026-09-05 11:56:56 | 2026-09-05 12:30:03 |
| PETON7-10 | 17 | 2026-09-05 12:08:27 | 2026-09-05 12:28:42 |
| OE9MKV-15 | 10 | 2026-09-05 11:24:32 | 2026-09-05 11:33:32 |
| DJTTGO | 10 | 2026-09-05 11:36:10 | 2026-09-05 12:34:55 |
| DJ2DS-15 | 8 | 2026-09-05 12:12:39 | 2026-09-05 12:27:57 |
| OE3JTB-15 | 8 | 2026-09-05 13:39:05 | 2026-09-05 13:46:03 |
| OM5KV | 6 | 2026-09-05 12:20:19 | 2026-09-05 12:23:06 |
| BIOWL9-15 | 4 | 2026-09-05 11:18:34 | 2026-09-05 11:22:10 |
| DC4HF-4 | 3 | 2026-09-05 12:09:00 | 2026-09-05 12:23:26 |
| KANTATE | 1 | 2026-09-05 11:27:20 | 2026-09-05 11:27:20 |
| DF9NV-10 | 1 | 2026-09-05 12:18:53 | 2026-09-05 12:18:53 |
| DL1KLB | 1 | 2026-09-05 12:22:46 | 2026-09-05 12:22:46 |
| Receiver | Date | Latitude | Longitude | Direction | Speed | Altitude | Climb | Temperature | Humidity | Pressure | Voltage | Killtimer | Uptime | BKT | XDATA |
|---|---|---|---|---|---|---|---|---|---|---|---|---|---|---|---|
| DG1MFX-10 | 2026-09-05 14:03:09 | 47.93101 | 12.14886 | 72° | 38km/h | 1030m | -2.6m/s | 14.3°C | 86.2% | 910.6hPa | 2.7V | 06:52:00 | 00:00:00 | 00:00:00 | |
| DG1MFX-10 | 2026-09-05 14:02:48 | 47.93055 | 12.14621 | 86° | 38km/h | 1073m | -2.0m/s | 14.0°C | 85.1% | 905.9hPa | 2.7V | 06:52:00 | 00:00:00 | 00:00:00 | |
| DG1MFX-10 | 2026-09-05 14:02:28 | 47.93030 | 12.14333 | 89° | 37km/h | 1114m | -1.5m/s | 14.1°C | 78.4% | 902.0hPa | 2.7V | 06:52:00 | 00:00:00 | 00:00:00 | |
| DG1MFX-10 | 2026-09-05 14:02:07 | 47.93015 | 12.14028 | 86° | 42km/h | 1152m | -1.8m/s | 14.2°C | 74.2% | 897.7hPa | 2.7V | 06:53:00 | 00:00:00 | 00:00:00 | |
| DO3MHA-11 | 2026-09-05 14:02:03 | 47.93009 | 12.13955 | 88° | 38km/h | 1161m | -1.4m/s | 14.1°C | 73.7% | 896.9hPa | 2.7V | 00:00:00 | 03:33:02 | 00:00:00 | |
| DO3MHA-11 | 2026-09-05 14:02:01 | 47.93008 | 12.13925 | 90° | 42km/h | 1164m | -1.8m/s | 14.3°C | 72.5% | 896.5hPa | 2.7V | 00:00:00 | 03:33:00 | 00:00:00 | |
| DO3MHA-11 | 2026-09-05 14:01:59 | 47.93008 | 12.13893 | 85° | 44km/h | 1168m | -1.8m/s | 14.4°C | 69.0% | 896.2hPa | 2.7V | 00:00:00 | 03:32:58 | 00:00:00 | |
| DO3MHA-11 | 2026-09-05 14:01:57 | 47.93005 | 12.13862 | 84° | 40km/h | 1172m | -1.7m/s | 14.4°C | 70.0% | 895.6hPa | 2.7V | 00:00:00 | 03:32:56 | 00:00:00 | |
| DG1MFX-10 | 2026-09-05 14:01:46 | 47.93000 | 12.13713 | 85° | 37km/h | 1189m | -1.7m/s | 14.5°C | 67.5% | 893.8hPa | 2.7V | 06:53:00 | 00:00:00 | 00:00:00 | |
| DG1MFX-10 | 2026-09-05 14:01:26 | 47.92991 | 12.13417 | 92° | 40km/h | 1225m | -2.0m/s | 14.7°C | 67.6% | 890.1hPa | 2.7V | 06:54:00 | 00:00:00 | 00:00:00 | |
| DO3MHA-11 | 2026-09-05 14:01:06 | 47.92986 | 12.13096 | 89° | 44km/h | 1265m | -2.0m/s | 14.6°C | 70.4% | 885.8hPa | 2.7V | 00:00:00 | 03:32:05 | 00:00:00 | |
| DG1MFX-10 | 2026-09-05 14:01:05 | 47.92987 | 12.13096 | 90° | 44km/h | 1265m | -2.1m/s | 14.6°C | 70.2% | 885.8hPa | 2.7V | 06:54:00 | 00:00:00 | 00:00:00 | |
| DO3MHA-11 | 2026-09-05 14:01:04 | 47.92985 | 12.13064 | 85° | 38km/h | 1269m | -2.0m/s | 14.6°C | 71.8% | 885.6hPa | 2.7V | 00:00:00 | 03:32:03 | 00:00:00 | |
| DO3MHA-11 | 2026-09-05 14:01:02 | 47.92984 | 12.13036 | 89° | 37km/h | 1273m | -2.1m/s | 14.5°C | 72.0% | 885.1hPa | 2.7V | 06:53:00 | 03:32:01 | 00:00:00 | |
| DO3MHA-11 | 2026-09-05 14:01:00 | 47.92984 | 12.13008 | 94° | 40km/h | 1277m | -2.1m/s | 14.5°C | 71.7% | 884.5hPa | 2.7V | 00:00:00 | 03:31:59 | 00:00:00 | |
| DO3MHA-11 | 2026-09-05 14:00:58 | 47.92986 | 12.12977 | 93° | 44km/h | 1281m | -2.0m/s | 14.5°C | 71.5% | 884.2hPa | 2.7V | 00:00:00 | 03:31:57 | 00:00:00 | |
| DO3MHA-11 | 2026-09-05 14:00:56 | 47.92986 | 12.12943 | 88° | 42km/h | 1285m | -2.0m/s | 14.4°C | 72.2% | 883.8hPa | 2.7V | 00:00:00 | 03:31:55 | 00:00:00 | |
| DO3MHA-11 | 2026-09-05 14:00:54 | 47.92984 | 12.12912 | 86° | 38km/h | 1290m | -1.9m/s | 14.4°C | 71.5% | 883.3hPa | 2.7V | 00:00:00 | 03:31:53 | 00:00:00 | |
| DO3MHA-11 | 2026-09-05 14:00:52 | 47.92984 | 12.12883 | 91° | 38km/h | 1294m | -2.2m/s | 14.4°C | 70.7% | 882.8hPa | 2.7V | 00:00:00 | 03:31:51 | 00:00:00 | |
| DO3MHA-11 | 2026-09-05 14:00:50 | 47.92985 | 12.12853 | 95° | 42km/h | 1298m | -2.0m/s | 14.3°C | 70.8% | 882.5hPa | 2.7V | 00:00:00 | 03:31:49 | 00:00:00 | |
| DO3MHA-11 | 2026-09-05 14:00:48 | 47.92986 | 12.12821 | 91° | 44km/h | 1302m | -2.1m/s | 14.3°C | 71.1% | 882.2hPa | 2.7V | 06:54:00 | 03:31:47 | 00:00:00 | |
| OE5DXL-15 | 2026-09-05 14:00:44 | 47.92983 | 12.12758 | 88° | 38km/h | 1310m | -2.1m/s | 14.2°C | 71.3% | 881.1hPa | 2.7V | 00:00:00 | 00:00:00 | 00:00:00 | |
| DO3MHA-11 | 2026-09-05 14:00:44 | 47.92983 | 12.12758 | 88° | 37km/h | 1310m | -2.1m/s | 14.2°C | 71.3% | 881.1hPa | 2.7V | 00:00:00 | 03:31:43 | 00:00:00 | |
| DO3MHA-11 | 2026-09-05 14:00:42 | 47.92984 | 12.12730 | 95° | 40km/h | 1314m | -2.1m/s | 14.2°C | 70.9% | 880.7hPa | 2.7V | 00:00:00 | 03:31:41 | 00:00:00 | |
| DO3MHA-11 | 2026-09-05 14:00:40 | 47.92986 | 12.12699 | 94° | 44km/h | 1319m | -2.1m/s | 14.2°C | 70.6% | 880.4hPa | 2.7V | 00:00:00 | 03:31:39 | 00:00:00 | |
| DO3MHA-11 | 2026-09-05 14:00:38 | 47.92986 | 12.12666 | 88° | 46km/h | 1323m | -2.2m/s | 14.0°C | 71.2% | 879.7hPa | 2.7V | 00:00:00 | 03:31:37 | 00:00:00 | |
| OE5DXL-15 | 2026-09-05 14:00:34 | 47.92983 | 12.12603 | 91° | 40km/h | 1332m | -1.9m/s | 14.1°C | 71.1% | 878.9hPa | 2.7V | 00:00:00 | 00:00:00 | 00:00:00 | |
| DG1MFX-10 | 2026-09-05 14:00:24 | 47.92987 | 12.12462 | 95° | 38km/h | 1351m | -2.0m/s | 14.0°C | 71.9% | 876.9hPa | 2.7V | 06:55:00 | 00:00:00 | 00:00:00 | |
| DO3MHA-11 | 2026-09-05 14:00:24 | 47.92987 | 12.12447 | 96° | 42km/h | 1353m | -2.2m/s | 13.9°C | 72.3% | 876.8hPa | 2.7V | 00:00:00 | 03:31:23 | 00:00:00 | |
| DO3MHA-11 | 2026-09-05 14:00:22 | 47.92989 | 12.12414 | 93° | 46km/h | 1358m | -2.1m/s | 13.7°C | 72.5% | 876.2hPa | 2.7V | 06:54:00 | 03:31:21 | 00:00:00 | |
| DO3MHA-12 | 2026-09-05 14:00:18 | 47.92987 | 12.12346 | 86° | 42km/h | 1366m | -2.1m/s | 13.7°C | 72.8% | 875.4hPa | 2.7V | 00:00:00 | 03:31:17 | 00:00:00 | |
| DO3MHA-11 | 2026-09-05 14:00:18 | 47.92987 | 12.12346 | 86° | 42km/h | 1366m | -2.1m/s | 13.7°C | 72.8% | 875.4hPa | 2.7V | 00:00:00 | 03:31:17 | 00:00:00 | |
| DO3MHA-12 | 2026-09-05 14:00:16 | 47.92986 | 12.12315 | 92° | 42km/h | 1370m | -2.1m/s | 13.7°C | 72.7% | 875.1hPa | 2.7V | 00:00:00 | 03:31:15 | 00:00:00 | |
| DO3MHA-11 | 2026-09-05 14:00:16 | 47.92986 | 12.12315 | 92° | 42km/h | 1370m | -2.1m/s | 13.7°C | 72.7% | 875.1hPa | 2.7V | 00:00:00 | 03:31:15 | 00:00:00 | |
| DO3MHA-11 | 2026-09-05 14:00:14 | 47.92987 | 12.12282 | 93° | 44km/h | 1374m | -2.1m/s | 13.6°C | 73.0% | 874.5hPa | 2.7V | 00:00:00 | 03:31:13 | 00:00:00 | |
| DO3MHA-11 | 2026-09-05 14:00:12 | 47.92987 | 12.12249 | 89° | 44km/h | 1379m | -2.0m/s | 13.6°C | 72.8% | 874.1hPa | 2.7V | 00:00:00 | 03:31:11 | 00:00:00 | |
| DO3MHA-11 | 2026-09-05 14:00:10 | 47.92986 | 12.12217 | 85° | 40km/h | 1383m | -1.9m/s | 13.6°C | 73.5% | 873.6hPa | 2.7V | 00:00:00 | 03:31:09 | 00:00:00 | |
| DO3MHA-12 | 2026-09-05 14:00:09 | 47.92985 | 12.12201 | 87° | 40km/h | 1385m | -2.1m/s | 13.5°C | 73.9% | 873.5hPa | 2.7V | 00:00:00 | 03:31:08 | 00:00:00 | |
| DO3MHA-11 | 2026-09-05 14:00:08 | 47.92985 | 12.12187 | 90° | 40km/h | 1387m | -2.1m/s | 13.5°C | 73.5% | 873.2hPa | 2.7V | 00:00:00 | 03:31:07 | 00:00:00 | |
| DO3MHA-12 | 2026-09-05 14:00:07 | 47.92985 | 12.12172 | 93° | 42km/h | 1389m | -2.0m/s | 13.5°C | 73.6% | 873.1hPa | 2.7V | 00:00:00 | 03:31:06 | 00:00:00 | |
| DO3MHA-11 | 2026-09-05 14:00:06 | 47.92985 | 12.12156 | 94° | 44km/h | 1391m | -2.3m/s | 13.5°C | 73.8% | 872.7hPa | 2.7V | 06:54:00 | 03:31:05 | 00:00:00 | |
| DO3MHA-12 | 2026-09-05 14:00:05 | 47.92986 | 12.12140 | 93° | 46km/h | 1393m | -2.3m/s | 13.5°C | 73.3% | 872.4hPa | 2.7V | 00:00:00 | 03:31:04 | 00:00:00 | |
| DG1MFX-10 | 2026-09-05 14:00:04 | 47.92986 | 12.12140 | 93° | 44km/h | 1393m | -2.3m/s | 13.6°C | 73.0% | 872.5hPa | 2.7V | 06:55:00 | 00:00:00 | 00:00:00 | |
| OE5DXL-15 | 2026-09-05 14:00:04 | 47.92986 | 12.12123 | 90° | 44km/h | 1396m | -2.0m/s | 13.5°C | 73.5% | 872.3hPa | 2.7V | 00:00:00 | 00:00:00 | 00:00:00 | |
| DO3MHA-11 | 2026-09-05 14:00:04 | 47.92986 | 12.12123 | 90° | 46km/h | 1396m | -2.0m/s | 13.5°C | 73.5% | 872.3hPa | 2.7V | 00:00:00 | 03:31:03 | 00:00:00 | |
| DO3MHA-11 | 2026-09-05 14:00:02 | 47.92985 | 12.12090 | 86° | 42km/h | 1400m | -2.2m/s | 13.5°C | 73.0% | 871.8hPa | 2.7V | 00:00:00 | 03:31:01 | 00:00:00 | |
| DO3MHA-12 | 2026-09-05 14:00:01 | 47.92984 | 12.12074 | 86° | 38km/h | 1402m | -2.2m/s | 13.4°C | 73.3% | 871.6hPa | 2.7V | 00:00:00 | 03:31:00 | 00:00:00 | |
| DO3MHA-11 | 2026-09-05 14:00:00 | 47.92983 | 12.12060 | 88° | 38km/h | 1405m | -2.2m/s | 13.5°C | 73.3% | 871.3hPa | 2.7V | 00:00:00 | 03:30:59 | 00:00:00 | |
| DO3MHA-12 | 2026-09-05 13:59:59 | 47.92983 | 12.12045 | 92° | 38km/h | 1407m | -2.1m/s | 13.4°C | 73.3% | 871.1hPa | 2.7V | 00:00:00 | 03:30:58 | 00:00:00 | |
| DO3MHA-11 | 2026-09-05 13:59:58 | 47.92984 | 12.12031 | 95° | 40km/h | 1409m | -2.0m/s | 13.3°C | 73.7% | 870.8hPa | 2.7V | 00:00:00 | 03:30:57 | 00:00:00 | |
| DO3MHA-12 | 2026-09-05 13:59:57 | 47.92985 | 12.12016 | 96° | 42km/h | 1411m | -2.0m/s | 13.4°C | 74.0% | 870.8hPa | 2.7V | 00:00:00 | 03:30:56 | 00:00:00 | |
| DO3MHA-11 | 2026-09-05 13:59:56 | 47.92986 | 12.12000 | 95° | 44km/h | 1413m | -2.5m/s | 13.4°C | 73.5% | 870.4hPa | 2.7V | 00:00:00 | 03:30:55 | 00:00:00 | |
| DO3MHA-12 | 2026-09-05 13:59:55 | 47.92986 | 12.11983 | 93° | 46km/h | 1415m | -2.4m/s | 13.4°C | 73.9% | 870.3hPa | 2.7V | 00:00:00 | 03:30:54 | 00:00:00 | |
| DO3MHA-11 | 2026-09-05 13:59:54 | 47.92986 | 12.11966 | 90° | 46km/h | 1418m | -2.3m/s | 13.4°C | 74.5% | 869.9hPa | 2.7V | 00:00:00 | 03:30:53 | 00:00:00 | |
| OE5DXL-15 | 2026-09-05 13:59:53 | 47.92986 | 12.11949 | 89° | 42km/h | 1420m | -2.3m/s | 13.4°C | 74.4% | 869.7hPa | 2.7V | 06:55:00 | 00:00:00 | 00:00:00 | |
| DO3MHA-12 | 2026-09-05 13:59:53 | 47.92986 | 12.11949 | 89° | 44km/h | 1420m | -2.3m/s | 13.4°C | 74.4% | 869.7hPa | 2.7V | 00:00:00 | 03:30:52 | 00:00:00 | |
| DO3MHA-11 | 2026-09-05 13:59:52 | 47.92986 | 12.11933 | 89° | 42km/h | 1423m | -2.2m/s | 13.3°C | 76.1% | 869.5hPa | 2.7V | 06:55:00 | 03:30:51 | 00:00:00 | |
| DO3MHA-12 | 2026-09-05 13:59:51 | 47.92986 | 12.11917 | 90° | 40km/h | 1425m | -2.1m/s | 13.2°C | 75.5% | 869.3hPa | 2.7V | 00:00:00 | 03:30:50 | 00:00:00 | |
| DO3MHA-11 | 2026-09-05 13:59:50 | 47.92986 | 12.11902 | 92° | 40km/h | 1427m | -2.0m/s | 13.2°C | 74.8% | 869.1hPa | 2.7V | 00:00:00 | 03:30:49 | 00:00:00 | |
| DO3MHA-12 | 2026-09-05 13:59:49 | 47.92986 | 12.11887 | 95° | 42km/h | 1429m | -2.2m/s | 13.3°C | 76.6% | 869.0hPa | 2.7V | 06:55:00 | 03:30:48 | 00:00:00 | |
| DO3MHA-12 | 2026-09-05 13:59:47 | 47.92988 | 12.11855 | 94° | 44km/h | 1434m | -2.3m/s | 13.4°C | 71.8% | 868.4hPa | 2.7V | 00:00:00 | 03:30:46 | 00:00:00 | |
| DO3MHA-11 | 2026-09-05 13:59:46 | 47.92988 | 12.11839 | 91° | 44km/h | 1436m | -2.0m/s | 13.4°C | 68.9% | 868.2hPa | 2.7V | 00:00:00 | 03:30:45 | 00:00:00 | |
| DO3MHA-12 | 2026-09-05 13:59:45 | 47.92988 | 12.11822 | 88° | 42km/h | 1438m | -2.0m/s | 13.5°C | 69.5% | 867.9hPa | 2.7V | 00:00:00 | 03:30:44 | 00:00:00 | |
| DG1MFX-10 | 2026-09-05 13:59:44 | 47.92988 | 12.11822 | 89° | 44km/h | 1438m | -2.0m/s | 13.5°C | 69.2% | 868.0hPa | 2.7V | 06:55:00 | 00:00:00 | 00:00:00 | |
| OE5DXL-15 | 2026-09-05 13:59:44 | 47.92988 | 12.11806 | 86° | 38km/h | 1440m | -2.0m/s | 13.4°C | 68.5% | 867.8hPa | 2.7V | 00:00:00 | 00:00:00 | 00:00:00 | |
| DO3MHA-11 | 2026-09-05 13:59:44 | 47.92988 | 12.11806 | 86° | 40km/h | 1440m | -2.0m/s | 13.4°C | 68.5% | 867.8hPa | 2.7V | 00:00:00 | 03:30:43 | 00:00:00 | |
| DO3MHA-12 | 2026-09-05 13:59:43 | 47.92987 | 12.11792 | 85° | 38km/h | 1443m | -2.2m/s | 13.4°C | 69.1% | 867.4hPa | 2.7V | 00:00:00 | 03:30:42 | 00:00:00 | |
| DO3MHA-11 | 2026-09-05 13:59:42 | 47.92986 | 12.11777 | 87° | 37km/h | 1445m | -2.4m/s | 13.5°C | 68.2% | 867.3hPa | 2.7V | 00:00:00 | 03:30:41 | 00:00:00 | |
| DO3MHA-12 | 2026-09-05 13:59:41 | 47.92986 | 12.11764 | 91° | 37km/h | 1447m | -2.4m/s | 13.4°C | 68.1% | 867.0hPa | 2.7V | 00:00:00 | 03:30:40 | 00:00:00 | |
| DO3MHA-11 | 2026-09-05 13:59:40 | 47.92986 | 12.11750 | 94° | 38km/h | 1450m | -2.5m/s | 13.4°C | 68.2% | 866.7hPa | 2.7V | 00:00:00 | 03:30:39 | 00:00:00 | |
| DO3MHA-12 | 2026-09-05 13:59:39 | 47.92987 | 12.11736 | 95° | 38km/h | 1452m | -2.5m/s | 13.4°C | 69.5% | 866.4hPa | 2.7V | 00:00:00 | 03:30:38 | 00:00:00 | |
| OE5DXL-15 | 2026-09-05 13:59:38 | 47.92988 | 12.11721 | 95° | 40km/h | 1455m | -2.5m/s | 13.4°C | 66.9% | 866.1hPa | 2.7V | 00:00:00 | 00:00:00 | 00:00:00 | |
| DO3MHA-12 | 2026-09-05 13:59:37 | 47.92988 | 12.11706 | 92° | 42km/h | 1458m | -2.3m/s | 13.3°C | 66.8% | 865.9hPa | 2.7V | 00:00:00 | 03:30:36 | 00:00:00 | |
| DO3MHA-11 | 2026-09-05 13:59:37 | 47.92988 | 12.11706 | 92° | 42km/h | 1458m | -2.3m/s | 13.3°C | 66.8% | 865.9hPa | 2.7V | 06:55:00 | 03:30:36 | 00:00:00 | |
| DO3MHA-12 | 2026-09-05 13:59:35 | 47.92988 | 12.11675 | 86° | 40km/h | 1462m | -2.2m/s | 13.3°C | 66.3% | 865.4hPa | 2.7V | 06:55:00 | 03:30:34 | 00:00:00 | |
| DO3MHA-11 | 2026-09-05 13:59:35 | 47.92988 | 12.11675 | 86° | 40km/h | 1462m | -2.2m/s | 13.3°C | 66.3% | 865.4hPa | 2.7V | 00:00:00 | 03:30:34 | 00:00:00 | |
| DO3MHA-12 | 2026-09-05 13:59:33 | 47.92986 | 12.11644 | 86° | 37km/h | 1467m | -2.4m/s | 13.4°C | 64.5% | 865.0hPa | 2.7V | 00:00:00 | 03:30:32 | 00:00:00 | |
| DO3MHA-11 | 2026-09-05 13:59:33 | 47.92986 | 12.11644 | 86° | 37km/h | 1467m | -2.4m/s | 13.4°C | 64.5% | 865.0hPa | 2.7V | 00:00:00 | 03:30:32 | 00:00:00 | |
| DO3MHA-11 | 2026-09-05 13:59:31 | 47.92985 | 12.11617 | 92° | 37km/h | 1472m | -2.6m/s | 13.3°C | 64.9% | 864.5hPa | 2.7V | 00:00:00 | 03:30:30 | 00:00:00 | |
| DO3MHA-12 | 2026-09-05 13:59:31 | 47.92985 | 12.11617 | 92° | 37km/h | 1472m | -2.6m/s | 13.3°C | 64.9% | 864.5hPa | 2.7V | 00:00:00 | 03:30:30 | 00:00:00 | |
| DO3MHA-11 | 2026-09-05 13:59:29 | 47.92986 | 12.11589 | 96° | 40km/h | 1477m | -2.6m/s | 13.3°C | 65.4% | 863.9hPa | 2.7V | 00:00:00 | 03:30:28 | 00:00:00 | |
| DO3MHA-12 | 2026-09-05 13:59:29 | 47.92986 | 12.11589 | 96° | 40km/h | 1477m | -2.6m/s | 13.3°C | 65.4% | 863.9hPa | 2.7V | 00:00:00 | 03:30:28 | 00:00:00 | |
| DO3MHA-12 | 2026-09-05 13:59:27 | 47.92988 | 12.11559 | 92° | 42km/h | 1483m | -2.5m/s | 13.1°C | 65.8% | 863.3hPa | 2.7V | 00:00:00 | 03:30:26 | 00:00:00 | |
| DO3MHA-11 | 2026-09-05 13:59:27 | 47.92988 | 12.11559 | 92° | 42km/h | 1483m | -2.5m/s | 13.1°C | 65.8% | 863.3hPa | 2.7V | 00:00:00 | 03:30:26 | 00:00:00 | |
| DO3MHA-12 | 2026-09-05 13:59:25 | 47.92987 | 12.11527 | 88° | 40km/h | 1488m | -2.4m/s | 13.1°C | 66.6% | 862.8hPa | 2.7V | 00:00:00 | 03:30:24 | 00:00:00 | |
| DO3MHA-11 | 2026-09-05 13:59:24 | 47.92987 | 12.11512 | 88° | 38km/h | 1490m | -2.5m/s | 13.1°C | 66.2% | 862.6hPa | 2.7V | 00:00:00 | 03:30:23 | 00:00:00 | |
| DG1MFX-10 | 2026-09-05 13:59:23 | 47.92987 | 12.11512 | 88° | 38km/h | 1490m | -2.6m/s | 13.1°C | 65.9% | 862.6hPa | 2.7V | 06:55:00 | 00:00:00 | 00:00:00 | |
| DO3MHA-12 | 2026-09-05 13:59:23 | 47.92986 | 12.11497 | 90° | 37km/h | 1493m | -2.4m/s | 13.1°C | 66.2% | 862.4hPa | 2.7V | 00:00:00 | 03:30:22 | 00:00:00 | |
| DO3MHA-11 | 2026-09-05 13:59:22 | 47.92987 | 12.11484 | 94° | 37km/h | 1495m | -2.6m/s | 13.1°C | 67.1% | 862.1hPa | 2.7V | 06:55:00 | 03:30:21 | 00:00:00 | |
| DO3MHA-12 | 2026-09-05 13:59:21 | 47.92988 | 12.11470 | 98° | 38km/h | 1498m | -2.6m/s | 13.1°C | 66.9% | 861.8hPa | 2.7V | 06:55:00 | 03:30:20 | 00:00:00 | |
| DO3MHA-11 | 2026-09-05 13:59:20 | 47.92989 | 12.11456 | 100° | 40km/h | 1500m | -2.3m/s | 13.0°C | 66.7% | 861.6hPa | 2.7V | 00:00:00 | 03:30:19 | 00:00:00 | |
| DO3MHA-12 | 2026-09-05 13:59:19 | 47.92990 | 12.11440 | 99° | 44km/h | 1503m | -2.5m/s | 13.0°C | 66.2% | 861.3hPa | 2.7V | 00:00:00 | 03:30:18 | 00:00:00 | |
| DO3MHA-11 | 2026-09-05 13:59:18 | 47.92992 | 12.11424 | 97° | 44km/h | 1505m | -2.5m/s | 12.9°C | 65.7% | 861.0hPa | 2.7V | 00:00:00 | 03:30:17 | 00:00:00 | |
| DO3MHA-12 | 2026-09-05 13:59:17 | 47.92993 | 12.11408 | 95° | 44km/h | 1508m | -2.4m/s | 12.9°C | 65.6% | 860.8hPa | 2.7V | 00:00:00 | 03:30:16 | 00:00:00 | |
| DO3MHA-11 | 2026-09-05 13:59:16 | 47.92993 | 12.11391 | 92° | 44km/h | 1510m | -2.4m/s | 12.9°C | 65.7% | 860.6hPa | 2.7V | 00:00:00 | 03:30:15 | 00:00:00 | |
| DO3MHA-12 | 2026-09-05 13:59:15 | 47.92993 | 12.11375 | 89° | 42km/h | 1512m | -2.3m/s | 12.9°C | 66.8% | 860.3hPa | 2.7V | 00:00:00 | 03:30:14 | 00:00:00 | |
| DO3MHA-11 | 2026-09-05 13:59:14 | 47.92993 | 12.11358 | 89° | 40km/h | 1515m | -2.4m/s | 12.9°C | 68.5% | 860.0hPa | 2.7V | 00:00:00 | 03:30:13 | 00:00:00 | |
| DO3MHA-12 | 2026-09-05 13:59:13 | 47.92993 | 12.11343 | 92° | 38km/h | 1517m | -2.3m/s | 12.8°C | 69.5% | 859.8hPa | 2.7V | 00:00:00 | 03:30:12 | 00:00:00 | |
| DO3MHA-11 | 2026-09-05 13:59:12 | 47.92994 | 12.11329 | 95° | 38km/h | 1520m | -2.3m/s | 12.8°C | 69.1% | 859.6hPa | 2.7V | 00:00:00 | 03:30:11 | 00:00:00 | |
| DO3MHA-12 | 2026-09-05 13:59:11 | 47.92995 | 12.11315 | 99° | 38km/h | 1522m | -2.4m/s | 12.8°C | 69.4% | 859.3hPa | 2.7V | 00:00:00 | 03:30:10 | 00:00:00 | |
| DO3MHA-11 | 2026-09-05 13:59:10 | 47.92997 | 12.11300 | 101° | 40km/h | 1525m | -2.5m/s | 12.8°C | 69.1% | 859.0hPa | 2.7V | 00:00:00 | 03:30:09 | 00:00:00 | |
| OE5DXL-15 | 2026-09-05 13:59:09 | 47.92998 | 12.11285 | 101° | 42km/h | 1527m | -2.4m/s | 12.7°C | 68.6% | 858.9hPa | 2.7V | 00:00:00 | 00:00:00 | 00:00:00 | |
| DO3MHA-12 | 2026-09-05 13:59:09 | 47.92998 | 12.11285 | 101° | 42km/h | 1527m | -2.4m/s | 12.7°C | 68.6% | 858.9hPa | 2.7V | 00:00:00 | 03:30:08 | 00:00:00 | |
| DO3MHA-11 | 2026-09-05 13:59:08 | 47.93000 | 12.11270 | 100° | 44km/h | 1529m | -2.6m/s | 12.8°C | 67.1% | 858.6hPa | 2.7V | 06:55:00 | 03:30:07 | 00:00:00 | |
| DO3MHA-12 | 2026-09-05 13:59:07 | 47.93002 | 12.11253 | 97° | 44km/h | 1532m | -2.4m/s | 12.7°C | 66.7% | 858.3hPa | 2.7V | 06:55:00 | 03:30:06 | 00:00:00 | |
| DO3MHA-11 | 2026-09-05 13:59:06 | 47.93003 | 12.11237 | 95° | 44km/h | 1534m | -2.5m/s | 12.7°C | 66.7% | 858.1hPa | 2.7V | 00:00:00 | 03:30:05 | 00:00:00 | |
| DO3MHA-12 | 2026-09-05 13:59:05 | 47.93004 | 12.11221 | 95° | 42km/h | 1537m | -2.4m/s | 12.7°C | 66.4% | 857.9hPa | 2.7V | 00:00:00 | 03:30:04 | 00:00:00 | |
| DO3MHA-11 | 2026-09-05 13:59:04 | 47.93005 | 12.11205 | 95° | 38km/h | 1539m | -2.2m/s | 12.6°C | 67.1% | 857.5hPa | 2.7V | 00:00:00 | 03:30:03 | 00:00:00 | |
| DG1MFX-10 | 2026-09-05 13:59:03 | 47.93005 | 12.11205 | 95° | 40km/h | 1539m | -2.2m/s | 12.7°C | 66.8% | 857.6hPa | 2.7V | 06:55:00 | 00:00:00 | 00:00:00 | |
| DO3MHA-11 | 2026-09-05 13:59:02 | 47.93007 | 12.11176 | 99° | 38km/h | 1544m | -2.4m/s | 12.7°C | 65.2% | 857.1hPa | 2.7V | 00:00:00 | 03:30:01 | 00:00:00 | |
| DO3MHA-12 | 2026-09-05 13:59:01 | 47.93008 | 12.11162 | 101° | 40km/h | 1547m | -2.5m/s | 12.6°C | 66.7% | 856.8hPa | 2.7V | 00:00:00 | 03:30:00 | 00:00:00 | |
| DO3MHA-11 | 2026-09-05 13:59:00 | 47.93010 | 12.11147 | 102° | 42km/h | 1549m | -2.4m/s | 12.6°C | 66.5% | 856.5hPa | 2.7V | 00:00:00 | 03:29:59 | 00:00:00 | |
| DO3MHA-12 | 2026-09-05 13:58:59 | 47.93012 | 12.11131 | 102° | 44km/h | 1551m | -2.5m/s | 12.6°C | 65.6% | 856.3hPa | 2.7V | 00:00:00 | 03:29:58 | 00:00:00 | |
| DO3MHA-11 | 2026-09-05 13:58:58 | 47.93014 | 12.11115 | 99° | 44km/h | 1554m | -2.2m/s | 12.6°C | 64.4% | 855.9hPa | 2.7V | 00:00:00 | 03:29:57 | 00:00:00 | |
| DO3MHA-12 | 2026-09-05 13:58:57 | 47.93016 | 12.11098 | 97° | 44km/h | 1556m | -2.2m/s | 12.5°C | 65.1% | 855.6hPa | 2.7V | 00:00:00 | 03:29:56 | 00:00:00 | |
| DO3MHA-11 | 2026-09-05 13:58:56 | 47.93017 | 12.11082 | 96° | 42km/h | 1558m | -2.2m/s | 12.4°C | 66.1% | 855.4hPa | 2.7V | 00:00:00 | 03:29:55 | 00:00:00 | |
| DO3MHA-12 | 2026-09-05 13:58:55 | 47.93018 | 12.11067 | 96° | 40km/h | 1561m | -2.3m/s | 12.4°C | 70.4% | 855.2hPa | 2.7V | 00:00:00 | 03:29:54 | 00:00:00 | |
| DO3MHA-11 | 2026-09-05 13:58:54 | 47.93019 | 12.11051 | 97° | 40km/h | 1563m | -2.4m/s | 12.4°C | 70.2% | 855.0hPa | 2.7V | 06:56:00 | 03:29:53 | 00:00:00 | |
| DO3MHA-12 | 2026-09-05 13:58:53 | 47.93020 | 12.11036 | 100° | 40km/h | 1565m | -2.5m/s | 12.4°C | 69.8% | 854.8hPa | 2.7V | 06:56:00 | 03:29:52 | 00:00:00 | |
| DO3MHA-12 | 2026-09-05 13:58:51 | 47.93024 | 12.11006 | 100° | 44km/h | 1570m | -2.2m/s | 12.3°C | 70.1% | 854.2hPa | 2.7V | 00:00:00 | 03:29:50 | 00:00:00 | |
| DO3MHA-11 | 2026-09-05 13:58:50 | 47.93025 | 12.10989 | 98° | 46km/h | 1572m | -2.4m/s | 12.4°C | 70.0% | 854.2hPa | 2.7V | 00:00:00 | 03:29:49 | 00:00:00 | |
| DO3MHA-12 | 2026-09-05 13:58:49 | 47.93026 | 12.10972 | 95° | 44km/h | 1575m | -2.4m/s | 12.4°C | 66.2% | 853.7hPa | 2.7V | 00:00:00 | 03:29:48 | 00:00:00 | |
| DO3MHA-11 | 2026-09-05 13:58:48 | 47.93027 | 12.10956 | 93° | 42km/h | 1577m | -2.2m/s | 12.6°C | 56.1% | 853.6hPa | 2.7V | 00:00:00 | 03:29:47 | 00:00:00 | |
| DO3MHA-12 | 2026-09-05 13:58:47 | 47.93027 | 12.10940 | 93° | 38km/h | 1579m | -2.3m/s | 12.6°C | 55.0% | 853.3hPa | 2.7V | 00:00:00 | 03:29:46 | 00:00:00 | |
| DO3MHA-11 | 2026-09-05 13:58:46 | 47.93028 | 12.10925 | 95° | 38km/h | 1582m | -2.3m/s | 12.6°C | 58.3% | 853.2hPa | 2.7V | 00:00:00 | 03:29:45 | 00:00:00 | |
| DO3MHA-12 | 2026-09-05 13:58:45 | 47.93029 | 12.10911 | 100° | 38km/h | 1584m | -2.3m/s | 12.7°C | 57.5% | 853.0hPa | 2.7V | 00:00:00 | 03:29:44 | 00:00:00 | |
| DO3MHA-11 | 2026-09-05 13:58:44 | 47.93031 | 12.10897 | 102° | 42km/h | 1586m | -2.5m/s | 12.9°C | 43.6% | 852.6hPa | 2.7V | 00:00:00 | 03:29:43 | 00:00:00 | |
| DO3MHA-12 | 2026-09-05 13:58:43 | 47.93033 | 12.10881 | 103° | 44km/h | 1589m | -2.4m/s | 12.8°C | 44.1% | 852.5hPa | 2.7V | 00:00:00 | 03:29:42 | 00:00:00 | |
| DG1MFX-10 | 2026-09-05 13:58:42 | 47.93033 | 12.10881 | 104° | 42km/h | 1589m | -2.4m/s | 12.9°C | 44.0% | 852.6hPa | 2.7V | 06:56:00 | 00:00:00 | 00:00:00 | |
| OE5DXL-15 | 2026-09-05 13:58:42 | 47.93036 | 12.10865 | 102° | 42km/h | 1591m | -2.2m/s | 12.8°C | 43.7% | 852.2hPa | 2.7V | 00:00:00 | 00:00:00 | 00:00:00 | |
| DO3MHA-11 | 2026-09-05 13:58:42 | 47.93036 | 12.10865 | 102° | 46km/h | 1591m | -2.2m/s | 12.8°C | 43.7% | 852.2hPa | 2.7V | 00:00:00 | 03:29:41 | 00:00:00 | |
| DO3MHA-12 | 2026-09-05 13:58:41 | 47.93038 | 12.10848 | 99° | 46km/h | 1593m | -2.4m/s | 12.8°C | 43.1% | 851.8hPa | 2.7V | 00:00:00 | 03:29:40 | 00:00:00 | |
| DO3MHA-11 | 2026-09-05 13:58:40 | 47.93039 | 12.10831 | 96° | 46km/h | 1596m | -2.4m/s | 12.8°C | 42.6% | 851.8hPa | 2.7V | 06:56:00 | 03:29:39 | 00:00:00 | |
| DO3MHA-12 | 2026-09-05 13:58:39 | 47.93040 | 12.10814 | 93° | 42km/h | 1598m | -2.2m/s | 12.8°C | 42.6% | 851.5hPa | 2.7V | 06:56:00 | 03:29:38 | 00:00:00 | |
| DO3MHA-11 | 2026-09-05 13:58:38 | 47.93040 | 12.10798 | 92° | 40km/h | 1601m | -2.2m/s | 12.8°C | 42.2% | 851.2hPa | 2.7V | 00:00:00 | 03:29:37 | 00:00:00 | |
| DO3MHA-12 | 2026-09-05 13:58:37 | 47.93040 | 12.10783 | 93° | 38km/h | 1603m | -2.2m/s | 12.8°C | 41.8% | 851.0hPa | 2.7V | 00:00:00 | 03:29:36 | 00:00:00 | |
| DO3MHA-11 | 2026-09-05 13:58:36 | 47.93041 | 12.10768 | 97° | 38km/h | 1605m | -2.2m/s | 12.8°C | 41.9% | 850.8hPa | 2.7V | 00:00:00 | 03:29:35 | 00:00:00 | |
| DO3MHA-12 | 2026-09-05 13:58:35 | 47.93042 | 12.10754 | 100° | 40km/h | 1608m | -2.2m/s | 12.8°C | 41.2% | 850.7hPa | 2.7V | 00:00:00 | 03:29:34 | 00:00:00 | |
| DO3MHA-11 | 2026-09-05 13:58:34 | 47.93044 | 12.10739 | 102° | 42km/h | 1610m | -2.3m/s | 12.8°C | 41.0% | 850.3hPa | 2.7V | 00:00:00 | 03:29:33 | 00:00:00 | |
| DO3MHA-12 | 2026-09-05 13:58:33 | 47.93046 | 12.10723 | 101° | 44km/h | 1612m | -2.1m/s | 12.7°C | 41.1% | 850.1hPa | 2.7V | 00:00:00 | 03:29:32 | 00:00:00 | |
| DO3MHA-11 | 2026-09-05 13:58:32 | 47.93048 | 12.10706 | 99° | 46km/h | 1614m | -2.1m/s | 12.7°C | 41.1% | 849.9hPa | 2.7V | 00:00:00 | 03:29:31 | 00:00:00 | |
| DO3MHA-12 | 2026-09-05 13:58:31 | 47.93050 | 12.10690 | 96° | 46km/h | 1616m | -2.1m/s | 12.7°C | 41.0% | 849.7hPa | 2.7V | 00:00:00 | 03:29:30 | 00:00:00 | |
| DO3MHA-11 | 2026-09-05 13:58:30 | 47.93051 | 12.10673 | 94° | 44km/h | 1618m | -2.2m/s | 12.7°C | 41.0% | 849.4hPa | 2.7V | 00:00:00 | 03:29:29 | 00:00:00 | |
| DO3MHA-12 | 2026-09-05 13:58:29 | 47.93051 | 12.10656 | 93° | 42km/h | 1621m | -2.4m/s | 12.7°C | 40.9% | 849.2hPa | 2.7V | 00:00:00 | 03:29:28 | 00:00:00 | |
| DO3MHA-11 | 2026-09-05 13:58:28 | 47.93052 | 12.10641 | 94° | 40km/h | 1623m | -2.3m/s | 12.7°C | 40.9% | 848.9hPa | 2.7V | 00:00:00 | 03:29:27 | 00:00:00 | |
| DO3MHA-12 | 2026-09-05 13:58:27 | 47.93053 | 12.10626 | 96° | 40km/h | 1625m | -2.1m/s | 12.6°C | 41.0% | 848.7hPa | 2.7V | 00:00:00 | 03:29:26 | 00:00:00 | |
| DO3MHA-11 | 2026-09-05 13:58:26 | 47.93054 | 12.10611 | 100° | 42km/h | 1628m | -2.3m/s | 12.6°C | 41.0% | 848.5hPa | 2.7V | 06:56:00 | 03:29:25 | 00:00:00 | |
| DO3MHA-12 | 2026-09-05 13:58:25 | 47.93056 | 12.10595 | 101° | 44km/h | 1630m | -2.2m/s | 12.7°C | 40.9% | 848.2hPa | 2.7V | 06:56:00 | 03:29:24 | 00:00:00 | |
| DO3MHA-11 | 2026-09-05 13:58:24 | 47.93058 | 12.10580 | 100° | 46km/h | 1632m | -2.2m/s | 12.6°C | 40.9% | 848.0hPa | 2.7V | 00:00:00 | 03:29:23 | 00:00:00 | |
| DO3MHA-12 | 2026-09-05 13:58:23 | 47.93060 | 12.10563 | 98° | 46km/h | 1634m | -2.3m/s | 12.6°C | 41.1% | 847.7hPa | 2.7V | 00:00:00 | 03:29:22 | 00:00:00 | |
| DG1MFX-10 | 2026-09-05 13:58:22 | 47.93060 | 12.10563 | 98° | 46km/h | 1634m | -2.3m/s | 12.6°C | 40.9% | 847.7hPa | 2.7V | 06:56:00 | 00:00:00 | 00:00:00 | |
| DO3MHA-11 | 2026-09-05 13:58:22 | 47.93061 | 12.10546 | 95° | 44km/h | 1637m | -2.2m/s | 12.6°C | 41.0% | 847.7hPa | 2.7V | 00:00:00 | 03:29:21 | 00:00:00 | |
| OE5DXL-15 | 2026-09-05 13:58:22 | 47.93061 | 12.10546 | 95° | 42km/h | 1637m | -2.2m/s | 12.6°C | 41.0% | 847.7hPa | 2.7V | 00:00:00 | 00:00:00 | 00:00:00 | |
| DO3MHA-12 | 2026-09-05 13:58:21 | 47.93061 | 12.10529 | 93° | 42km/h | 1639m | -2.2m/s | 12.6°C | 41.1% | 847.3hPa | 2.7V | 00:00:00 | 03:29:20 | 00:00:00 | |
| DO3MHA-11 | 2026-09-05 13:58:20 | 47.93062 | 12.10513 | 92° | 40km/h | 1641m | -2.2m/s | 12.6°C | 41.1% | 847.1hPa | 2.7V | 00:00:00 | 03:29:19 | 00:00:00 | |
| DO3MHA-12 | 2026-09-05 13:58:19 | 47.93062 | 12.10498 | 94° | 38km/h | 1643m | -2.3m/s | 12.5°C | 41.3% | 847.0hPa | 2.7V | 00:00:00 | 03:29:18 | 00:00:00 | |
| DO3MHA-11 | 2026-09-05 13:58:17 | 47.93065 | 12.10469 | 100° | 40km/h | 1648m | -2.2m/s | 12.5°C | 41.4% | 846.5hPa | 2.7V | 00:00:00 | 03:29:16 | 00:00:00 | |
| DO3MHA-12 | 2026-09-05 13:58:17 | 47.93065 | 12.10469 | 100° | 40km/h | 1648m | -2.2m/s | 12.5°C | 41.4% | 846.5hPa | 2.7V | 00:00:00 | 03:29:16 | 00:00:00 | |
| DO3MHA-12 | 2026-09-05 13:58:15 | 47.93068 | 12.10438 | 100° | 44km/h | 1652m | -2.3m/s | 12.5°C | 41.5% | 846.0hPa | 2.7V | 00:00:00 | 03:29:14 | 00:00:00 | |
| DO3MHA-11 | 2026-09-05 13:58:15 | 47.93068 | 12.10438 | 100° | 44km/h | 1652m | -2.3m/s | 12.5°C | 41.5% | 846.0hPa | 2.7V | 00:00:00 | 03:29:14 | 00:00:00 | |
| DO3MHA-12 | 2026-09-05 13:58:13 | 47.93071 | 12.10406 | 94° | 44km/h | 1657m | -2.1m/s | 12.4°C | 41.8% | 845.5hPa | 2.7V | 00:00:00 | 03:29:12 | 00:00:00 | |
| DO3MHA-11 | 2026-09-05 13:58:13 | 47.93071 | 12.10406 | 94° | 42km/h | 1657m | -2.1m/s | 12.4°C | 41.8% | 845.5hPa | 2.7V | 00:00:00 | 03:29:12 | 00:00:00 | |
| DO3MHA-12 | 2026-09-05 13:58:11 | 47.93072 | 12.10374 | 94° | 40km/h | 1661m | -2.3m/s | 12.3°C | 41.9% | 845.1hPa | 2.7V | 06:56:00 | 03:29:10 | 00:00:00 | |
| DO3MHA-11 | 2026-09-05 13:58:10 | 47.93073 | 12.10359 | 98° | 40km/h | 1664m | -2.3m/s | 12.3°C | 42.2% | 845.0hPa | 2.7V | 06:56:00 | 03:29:09 | 00:00:00 | |
| DO3MHA-12 | 2026-09-05 13:58:09 | 47.93074 | 12.10344 | 101° | 40km/h | 1666m | -2.2m/s | 12.4°C | 42.0% | 844.7hPa | 2.7V | 00:00:00 | 03:29:08 | 00:00:00 | |
| DO3MHA-11 | 2026-09-05 13:58:08 | 47.93076 | 12.10329 | 103° | 44km/h | 1668m | -2.1m/s | 12.4°C | 42.0% | 844.4hPa | 2.7V | 00:00:00 | 03:29:07 | 00:00:00 | |
| DO3MHA-12 | 2026-09-05 13:58:07 | 47.93079 | 12.10313 | 102° | 46km/h | 1670m | -2.2m/s | 12.4°C | 41.8% | 844.3hPa | 2.7V | 00:00:00 | 03:29:06 | 00:00:00 | |
| DO3MHA-11 | 2026-09-05 13:58:06 | 47.93080 | 12.10297 | 99° | 46km/h | 1672m | -2.2m/s | 12.4°C | 41.5% | 844.1hPa | 2.7V | 00:00:00 | 03:29:05 | 00:00:00 | |
| DO3MHA-12 | 2026-09-05 13:58:05 | 47.93082 | 12.10280 | 96° | 44km/h | 1675m | -2.1m/s | 12.3°C | 41.5% | 843.8hPa | 2.7V | 00:00:00 | 03:29:04 | 00:00:00 | |
| DO3MHA-11 | 2026-09-05 13:58:04 | 47.93083 | 12.10263 | 94° | 42km/h | 1677m | -2.1m/s | 12.4°C | 41.3% | 843.6hPa | 2.7V | 00:00:00 | 03:29:03 | 00:00:00 | |
| DO3MHA-12 | 2026-09-05 13:58:03 | 47.93084 | 12.10247 | 94° | 40km/h | 1679m | -2.1m/s | 12.3°C | 41.5% | 843.3hPa | 2.7V | 00:00:00 | 03:29:02 | 00:00:00 | |
| DG1MFX-10 | 2026-09-05 13:58:02 | 47.93084 | 12.10247 | 95° | 42km/h | 1679m | -2.1m/s | 12.3°C | 41.3% | 843.3hPa | 2.7V | 06:57:00 | 00:00:00 | 00:00:00 | |
| OE5DXL-15 | 2026-09-05 13:58:02 | 47.93084 | 12.10232 | 96° | 44km/h | 1681m | -2.3m/s | 12.3°C | 41.3% | 843.1hPa | 2.7V | 00:00:00 | 03:29:01 | 00:00:00 | |
| DO3MHA-11 | 2026-09-05 13:58:02 | 47.93084 | 12.10232 | 96° | 38km/h | 1681m | -2.3m/s | 12.3°C | 41.3% | 843.1hPa | 2.7V | 00:00:00 | 03:29:01 | 00:00:00 | |
| DO3MHA-12 | 2026-09-05 13:58:01 | 47.93086 | 12.10217 | 100° | 40km/h | 1683m | -2.4m/s | 12.3°C | 41.0% | 843.0hPa | 2.7V | 00:00:00 | 03:29:00 | 00:00:00 | |
| DO3MHA-11 | 2026-09-05 13:58:00 | 47.93088 | 12.10203 | 103° | 42km/h | 1686m | -2.2m/s | 12.3°C | 41.2% | 842.7hPa | 2.7V | 00:00:00 | 03:28:59 | 00:00:00 | |
| DO3MHA-12 | 2026-09-05 13:57:59 | 47.93090 | 12.10187 | 104° | 44km/h | 1688m | -2.0m/s | 12.3°C | 41.1% | 842.4hPa | 2.7V | 00:00:00 | 03:28:58 | 00:00:00 | |
| DO3MHA-11 | 2026-09-05 13:57:58 | 47.93092 | 12.10171 | 102° | 46km/h | 1690m | -2.3m/s | 12.2°C | 41.2% | 842.2hPa | 2.7V | 00:00:00 | 03:28:57 | 00:00:00 | |
| DO3MHA-12 | 2026-09-05 13:57:57 | 47.93094 | 12.10154 | 100° | 47km/h | 1693m | -2.2m/s | 12.2°C | 41.1% | 841.9hPa | 2.7V | 06:56:00 | 03:28:56 | 00:00:00 | |
| DO3MHA-11 | 2026-09-05 13:57:56 | 47.93096 | 12.10136 | 97° | 46km/h | 1695m | -2.3m/s | 12.2°C | 41.1% | 841.8hPa | 2.7V | 06:56:00 | 03:28:55 | 00:00:00 | |
| DO3MHA-12 | 2026-09-05 13:57:55 | 47.93097 | 12.10119 | 95° | 44km/h | 1697m | -2.3m/s | 12.2°C | 40.8% | 841.5hPa | 2.7V | 00:00:00 | 03:28:54 | 00:00:00 | |
| DO3MHA-11 | 2026-09-05 13:57:54 | 47.93098 | 12.10102 | 94° | 42km/h | 1699m | -2.2m/s | 12.2°C | 40.6% | 841.2hPa | 2.7V | 00:00:00 | 03:28:53 | 00:00:00 | |
| DO3MHA-12 | 2026-09-05 13:57:53 | 47.93099 | 12.10086 | 95° | 40km/h | 1701m | -2.1m/s | 12.2°C | 40.6% | 841.1hPa | 2.7V | 00:00:00 | 03:28:52 | 00:00:00 | |
| DO3MHA-11 | 2026-09-05 13:57:52 | 47.93100 | 12.10071 | 98° | 40km/h | 1704m | -2.2m/s | 12.1°C | 40.6% | 840.9hPa | 2.7V | 00:00:00 | 03:28:51 | 00:00:00 | |
| DO3MHA-12 | 2026-09-05 13:57:51 | 47.93101 | 12.10056 | 100° | 42km/h | 1706m | -2.2m/s | 12.1°C | 40.6% | 840.7hPa | 2.7V | 00:00:00 | 03:28:50 | 00:00:00 | |
| DO3MHA-11 | 2026-09-05 13:57:50 | 47.93103 | 12.10040 | 102° | 44km/h | 1708m | -2.3m/s | 12.1°C | 40.7% | 840.4hPa | 2.7V | 00:00:00 | 03:28:49 | 00:00:00 | |
| DO3MHA-12 | 2026-09-05 13:57:49 | 47.93105 | 12.10025 | 102° | 46km/h | 1711m | -2.1m/s | 12.0°C | 40.4% | 840.2hPa | 2.7V | 00:00:00 | 03:28:48 | 00:00:00 | |
| DO3MHA-11 | 2026-09-05 13:57:48 | 47.93108 | 12.10008 | 100° | 46km/h | 1713m | -2.4m/s | 12.1°C | 39.8% | 840.0hPa | 2.7V | 00:00:00 | 03:28:47 | 00:00:00 | |
| DO3MHA-12 | 2026-09-05 13:57:47 | 47.93109 | 12.09990 | 97° | 46km/h | 1715m | -2.1m/s | 12.1°C | 39.7% | 839.7hPa | 2.7V | 00:00:00 | 03:28:46 | 00:00:00 | |
| DO3MHA-11 | 2026-09-05 13:57:46 | 47.93110 | 12.09973 | 95° | 44km/h | 1717m | -2.3m/s | 12.1°C | 39.7% | 839.5hPa | 2.7V | 00:00:00 | 03:28:45 | 00:00:00 | |
| DO3MHA-12 | 2026-09-05 13:57:45 | 47.93111 | 12.09957 | 95° | 42km/h | 1720m | -2.4m/s | 12.1°C | 39.9% | 839.2hPa | 2.7V | 00:00:00 | 03:28:44 | 00:00:00 | |
| DO3MHA-11 | 2026-09-05 13:57:44 | 47.93112 | 12.09941 | 97° | 40km/h | 1722m | -2.2m/s | 12.0°C | 39.9% | 839.0hPa | 2.7V | 00:00:00 | 03:28:43 | 00:00:00 | |
| DO3MHA-12 | 2026-09-05 13:57:43 | 47.93113 | 12.09927 | 100° | 40km/h | 1724m | -2.2m/s | 12.0°C | 39.3% | 838.8hPa | 2.7V | 06:57:00 | 03:28:42 | 00:00:00 | |
| OE5DXL-15 | 2026-09-05 13:57:42 | 47.93115 | 12.09912 | 103° | 46km/h | 1726m | -2.2m/s | 12.0°C | 39.4% | 838.5hPa | 2.7V | 06:57:00 | 00:00:00 | 00:00:00 | |
| DO3MHA-11 | 2026-09-05 13:57:42 | 47.93115 | 12.09912 | 103° | 42km/h | 1726m | -2.2m/s | 12.0°C | 39.4% | 838.5hPa | 2.7V | 06:57:00 | 03:28:41 | 00:00:00 | |
| DG1MFX-10 | 2026-09-05 13:57:41 | 47.93115 | 12.09912 | 103° | 40km/h | 1726m | -2.3m/s | 12.0°C | 39.2% | 838.6hPa | 2.7V | 06:57:00 | 00:00:00 | 00:00:00 | |
| DO3MHA-12 | 2026-09-05 13:57:41 | 47.93118 | 12.09896 | 103° | 44km/h | 1729m | -2.4m/s | 11.9°C | 39.4% | 838.2hPa | 2.7V | 00:00:00 | 03:28:40 | 00:00:00 | |
| DO3MHA-11 | 2026-09-05 13:57:40 | 47.93120 | 12.09880 | 103° | 46km/h | 1731m | -2.3m/s | 12.0°C | 39.0% | 838.1hPa | 2.7V | 00:00:00 | 03:28:39 | 00:00:00 | |
| DO3MHA-12 | 2026-09-05 13:57:39 | 47.93122 | 12.09863 | 100° | 47km/h | 1734m | -2.4m/s | 11.9°C | 39.0% | 837.9hPa | 2.7V | 00:00:00 | 03:28:38 | 00:00:00 | |
| DO3MHA-11 | 2026-09-05 13:57:38 | 47.93124 | 12.09845 | 98° | 46km/h | 1736m | -2.5m/s | 11.9°C | 38.8% | 837.6hPa | 2.7V | 00:00:00 | 03:28:37 | 00:00:00 | |
| DO3MHA-12 | 2026-09-05 13:57:37 | 47.93125 | 12.09828 | 96° | 46km/h | 1739m | -2.4m/s | 11.9°C | 38.6% | 837.3hPa | 2.7V | 00:00:00 | 03:28:36 | 00:00:00 | |
| DO3MHA-11 | 2026-09-05 13:57:36 | 47.93126 | 12.09811 | 96° | 44km/h | 1741m | -2.3m/s | 11.9°C | 38.7% | 837.1hPa | 2.7V | 00:00:00 | 03:28:35 | 00:00:00 | |
| DO3MHA-12 | 2026-09-05 13:57:35 | 47.93127 | 12.09795 | 98° | 42km/h | 1743m | -2.1m/s | 11.9°C | 38.7% | 836.8hPa | 2.7V | 00:00:00 | 03:28:34 | 00:00:00 | |
| DO3MHA-11 | 2026-09-05 13:57:34 | 47.93129 | 12.09779 | 100° | 42km/h | 1745m | -2.2m/s | 11.8°C | 38.7% | 836.6hPa | 2.7V | 00:00:00 | 03:28:33 | 00:00:00 | |
| DO3MHA-12 | 2026-09-05 13:57:33 | 47.93131 | 12.09763 | 102° | 44km/h | 1748m | -2.2m/s | 11.8°C | 38.8% | 836.3hPa | 2.7V | 00:00:00 | 03:28:32 | 00:00:00 | |
| DO3MHA-11 | 2026-09-05 13:57:32 | 47.93134 | 12.09747 | 103° | 46km/h | 1750m | -2.5m/s | 11.8°C | 38.9% | 836.3hPa | 2.7V | 00:00:00 | 03:28:31 | 00:00:00 | |
| DO3MHA-12 | 2026-09-05 13:57:31 | 47.93136 | 12.09730 | 101° | 47km/h | 1753m | -2.4m/s | 11.8°C | 38.8% | 836.0hPa | 2.7V | 00:00:00 | 03:28:30 | 00:00:00 | |
| DO3MHA-11 | 2026-09-05 13:57:30 | 47.93138 | 12.09712 | 98° | 47km/h | 1755m | -2.1m/s | 11.8°C | 38.9% | 835.7hPa | 2.7V | 00:00:00 | 03:28:29 | 00:00:00 | |
| DO3MHA-12 | 2026-09-05 13:57:29 | 47.93139 | 12.09695 | 97° | 46km/h | 1757m | -2.3m/s | 11.8°C | 38.9% | 835.6hPa | 2.7V | 06:57:00 | 03:28:28 | 00:00:00 | |
| DO3MHA-11 | 2026-09-05 13:57:28 | 47.93140 | 12.09678 | 97° | 44km/h | 1759m | -2.3m/s | 11.7°C | 39.0% | 835.3hPa | 2.7V | 06:57:00 | 03:28:27 | 00:00:00 | |
| DO3MHA-12 | 2026-09-05 13:57:27 | 47.93142 | 12.09662 | 98° | 44km/h | 1762m | -2.2m/s | 11.7°C | 38.9% | 835.1hPa | 2.7V | 00:00:00 | 03:28:26 | 00:00:00 | |
| DO3MHA-11 | 2026-09-05 13:57:26 | 47.93143 | 12.09645 | 101° | 44km/h | 1764m | -2.3m/s | 11.7°C | 38.9% | 834.7hPa | 2.7V | 00:00:00 | 03:28:25 | 00:00:00 | |
| DO3MHA-12 | 2026-09-05 13:57:25 | 47.93145 | 12.09630 | 103° | 46km/h | 1766m | -2.2m/s | 11.7°C | 38.8% | 834.5hPa | 2.7V | 00:00:00 | 03:28:24 | 00:00:00 | |
| DO3MHA-11 | 2026-09-05 13:57:24 | 47.93148 | 12.09613 | 103° | 47km/h | 1768m | -2.2m/s | 11.7°C | 38.9% | 834.4hPa | 2.7V | 00:00:00 | 03:28:23 | 00:00:00 | |
| DO3MHA-12 | 2026-09-05 13:57:23 | 47.93150 | 12.09595 | 101° | 47km/h | 1771m | -2.3m/s | 11.6°C | 39.0% | 834.0hPa | 2.7V | 00:00:00 | 03:28:22 | 00:00:00 | |
| OE5DXL-15 | 2026-09-05 13:57:22 | 47.93152 | 12.09577 | 99° | 47km/h | 1773m | -2.3m/s | 11.6°C | 39.0% | 833.8hPa | 2.7V | 00:00:00 | 00:00:00 | 00:00:00 | |
| DO3MHA-11 | 2026-09-05 13:57:22 | 47.93152 | 12.09577 | 99° | 47km/h | 1773m | -2.3m/s | 11.6°C | 39.0% | 833.8hPa | 2.7V | 00:00:00 | 03:28:21 | 00:00:00 | |
| DO3MHA-12 | 2026-09-05 13:57:21 | 47.93154 | 12.09559 | 96° | 47km/h | 1775m | -2.3m/s | 11.5°C | 38.8% | 833.7hPa | 2.7V | 00:00:00 | 03:28:20 | 00:00:00 | |
| DG1MFX-10 | 2026-09-05 13:57:20 | 47.93154 | 12.09559 | 97° | 47km/h | 1775m | -2.4m/s | 11.6°C | 38.6% | 833.7hPa | 2.7V | 06:57:00 | 00:00:00 | 00:00:00 | |
| DO3MHA-11 | 2026-09-05 13:57:20 | 47.93155 | 12.09542 | 94° | 46km/h | 1778m | -2.3m/s | 11.5°C | 38.8% | 833.5hPa | 2.7V | 00:00:00 | 03:28:19 | 00:00:00 | |
| DO3MHA-12 | 2026-09-05 13:57:19 | 47.93156 | 12.09525 | 95° | 44km/h | 1780m | -2.4m/s | 11.5°C | 38.7% | 833.1hPa | 2.7V | 00:00:00 | 03:28:18 | 00:00:00 | |
| DO3MHA-11 | 2026-09-05 13:57:18 | 47.93157 | 12.09508 | 98° | 44km/h | 1783m | -2.3m/s | 11.6°C | 38.5% | 833.0hPa | 2.7V | 00:00:00 | 03:28:17 | 00:00:00 | |
| DO3MHA-12 | 2026-09-05 13:57:17 | 47.93158 | 12.09492 | 101° | 44km/h | 1785m | -2.2m/s | 11.6°C | 38.5% | 832.7hPa | 2.7V | 00:00:00 | 03:28:16 | 00:00:00 | |
| DO3MHA-11 | 2026-09-05 13:57:16 | 47.93160 | 12.09476 | 103° | 47km/h | 1787m | -2.2m/s | 11.5°C | 38.6% | 832.5hPa | 2.7V | 00:00:00 | 03:28:15 | 00:00:00 | |
| DO3MHA-12 | 2026-09-05 13:57:15 | 47.93163 | 12.09458 | 102° | 49km/h | 1789m | -2.3m/s | 11.5°C | 38.8% | 832.2hPa | 2.7V | 06:57:00 | 03:28:14 | 00:00:00 | |
| DO3MHA-11 | 2026-09-05 13:57:14 | 47.93165 | 12.09440 | 101° | 49km/h | 1792m | -2.3m/s | 11.4°C | 39.0% | 832.0hPa | 2.7V | 06:57:00 | 03:28:13 | 00:00:00 | |
| DO3MHA-12 | 2026-09-05 13:57:13 | 47.93167 | 12.09422 | 98° | 49km/h | 1794m | -2.4m/s | 11.4°C | 38.8% | 831.7hPa | 2.7V | 00:00:00 | 03:28:12 | 00:00:00 | |
| DO3MHA-11 | 2026-09-05 13:57:12 | 47.93169 | 12.09403 | 95° | 47km/h | 1796m | -2.3m/s | 11.3°C | 38.8% | 831.5hPa | 2.7V | 00:00:00 | 03:28:11 | 00:00:00 | |
| DO3MHA-12 | 2026-09-05 13:57:11 | 47.93170 | 12.09385 | 94° | 46km/h | 1799m | -2.4m/s | 11.3°C | 38.9% | 831.3hPa | 2.7V | 00:00:00 | 03:28:10 | 00:00:00 | |
| DO3MHA-11 | 2026-09-05 13:57:10 | 47.93170 | 12.09368 | 94° | 46km/h | 1801m | -2.4m/s | 11.3°C | 38.9% | 830.9hPa | 2.7V | 00:00:00 | 03:28:09 | 00:00:00 | |
| DO3MHA-12 | 2026-09-05 13:57:09 | 47.93171 | 12.09351 | 96° | 44km/h | 1804m | -2.3m/s | 11.3°C | 38.9% | 830.7hPa | 2.7V | 00:00:00 | 03:28:08 | 00:00:00 | |
| DO3MHA-11 | 2026-09-05 13:57:08 | 47.93172 | 12.09334 | 99° | 46km/h | 1806m | -2.2m/s | 11.3°C | 39.0% | 830.6hPa | 2.7V | 00:00:00 | 03:28:07 | 00:00:00 | |
| DO3MHA-12 | 2026-09-05 13:57:07 | 47.93174 | 12.09318 | 101° | 47km/h | 1808m | -2.3m/s | 11.2°C | 39.2% | 830.3hPa | 2.7V | 00:00:00 | 03:28:06 | 00:00:00 | |
| DO3MHA-11 | 2026-09-05 13:57:06 | 47.93177 | 12.09300 | 102° | 49km/h | 1811m | -2.4m/s | 11.2°C | 39.1% | 830.1hPa | 2.7V | 00:00:00 | 03:28:05 | 00:00:00 | |
| DO3MHA-12 | 2026-09-05 13:57:05 | 47.93179 | 12.09282 | 100° | 51km/h | 1813m | -2.3m/s | 11.2°C | 39.2% | 829.9hPa | 2.7V | 00:00:00 | 03:28:04 | 00:00:00 | |
| DO3MHA-11 | 2026-09-05 13:57:04 | 47.93181 | 12.09263 | 98° | 51km/h | 1816m | -2.4m/s | 11.2°C | 39.4% | 829.7hPa | 2.7V | 00:00:00 | 03:28:03 | 00:00:00 | |
| DO3MHA-11 | 2026-09-05 13:57:02 | 47.93183 | 12.09226 | 94° | 47km/h | 1821m | -2.5m/s | 11.1°C | 40.1% | 829.2hPa | 2.7V | 00:00:00 | 03:28:01 | 00:00:00 | |
| OE5DXL-15 | 2026-09-05 13:57:02 | 47.93183 | 12.09226 | 94° | 47km/h | 1821m | -2.5m/s | 11.1°C | 40.1% | 829.2hPa | 2.7V | 00:00:00 | 00:00:00 | 00:00:00 | |
| DO3MHA-12 | 2026-09-05 13:57:01 | 47.93184 | 12.09208 | 95° | 46km/h | 1823m | -2.4m/s | 11.2°C | 40.2% | 828.9hPa | 2.7V | 06:57:00 | 03:28:00 | 00:00:00 | |
| DO3MHA-11 | 2026-09-05 13:57:00 | 47.93185 | 12.09191 | 97° | 46km/h | 1825m | -2.3m/s | 11.1°C | 40.3% | 828.7hPa | 2.7V | 06:57:00 | 03:27:59 | 00:00:00 | |
| DG1MFX-10 | 2026-09-05 13:56:59 | 47.93185 | 12.09191 | 98° | 46km/h | 1825m | -2.3m/s | 11.2°C | 40.1% | 828.7hPa | 2.7V | 06:58:00 | 00:00:00 | 00:00:00 | |
| DO3MHA-12 | 2026-09-05 13:56:59 | 47.93186 | 12.09174 | 99° | 46km/h | 1828m | -2.6m/s | 11.1°C | 40.3% | 828.4hPa | 2.7V | 00:00:00 | 03:27:58 | 00:00:00 | |
| DO3MHA-11 | 2026-09-05 13:56:58 | 47.93188 | 12.09156 | 101° | 47km/h | 1830m | -2.4m/s | 11.1°C | 40.3% | 828.3hPa | 2.7V | 00:00:00 | 03:27:57 | 00:00:00 | |
| DO3MHA-12 | 2026-09-05 13:56:57 | 47.93191 | 12.09139 | 101° | 49km/h | 1833m | -2.5m/s | 11.1°C | 40.5% | 828.0hPa | 2.7V | 00:00:00 | 03:27:56 | 00:00:00 | |
| DO3MHA-11 | 2026-09-05 13:56:56 | 47.93193 | 12.09120 | 99° | 51km/h | 1836m | -2.3m/s | 11.0°C | 40.6% | 827.8hPa | 2.7V | 00:00:00 | 03:27:55 | 00:00:00 | |
| DO3MHA-12 | 2026-09-05 13:56:55 | 47.93194 | 12.09101 | 96° | 51km/h | 1838m | -2.4m/s | 11.0°C | 40.5% | 827.6hPa | 2.7V | 00:00:00 | 03:27:54 | 00:00:00 | |
| DO3MHA-11 | 2026-09-05 13:56:54 | 47.93195 | 12.09082 | 94° | 49km/h | 1840m | -2.4m/s | 11.0°C | 40.6% | 827.1hPa | 2.7V | 00:00:00 | 03:27:53 | 00:00:00 | |
| DO3MHA-12 | 2026-09-05 13:56:53 | 47.93196 | 12.09064 | 93° | 46km/h | 1843m | -2.4m/s | 11.0°C | 40.5% | 826.9hPa | 2.7V | 00:00:00 | 03:27:52 | 00:00:00 | |
| DO3MHA-11 | 2026-09-05 13:56:52 | 47.93197 | 12.09046 | 94° | 44km/h | 1845m | -2.3m/s | 11.0°C | 40.7% | 826.8hPa | 2.7V | 00:00:00 | 03:27:51 | 00:00:00 | |
| DO3MHA-12 | 2026-09-05 13:56:51 | 47.93198 | 12.09030 | 97° | 44km/h | 1848m | -2.5m/s | 11.0°C | 40.6% | 826.4hPa | 2.7V | 00:00:00 | 03:27:50 | 00:00:00 | |
| DO3MHA-11 | 2026-09-05 13:56:50 | 47.93199 | 12.09013 | 100° | 46km/h | 1850m | -2.5m/s | 11.0°C | 40.7% | 826.1hPa | 2.7V | 00:00:00 | 03:27:49 | 00:00:00 | |
| DO3MHA-12 | 2026-09-05 13:56:49 | 47.93201 | 12.08996 | 101° | 47km/h | 1853m | -2.5m/s | 11.0°C | 40.9% | 826.0hPa | 2.7V | 00:00:00 | 03:27:48 | 00:00:00 | |
| DO3MHA-11 | 2026-09-05 13:56:48 | 47.93203 | 12.08979 | 101° | 47km/h | 1855m | -2.6m/s | 11.0°C | 41.0% | 825.6hPa | 2.7V | 00:00:00 | 03:27:47 | 00:00:00 | |
| DO3MHA-12 | 2026-09-05 13:56:47 | 47.93205 | 12.08960 | 98° | 51km/h | 1858m | -2.6m/s | 10.9°C | 41.5% | 825.5hPa | 2.7V | 06:58:00 | 03:27:46 | 00:00:00 | |
| DO3MHA-11 | 2026-09-05 13:56:46 | 47.93207 | 12.08941 | 96° | 51km/h | 1860m | -2.4m/s | 10.9°C | 41.7% | 825.2hPa | 2.7V | 06:58:00 | 03:27:45 | 00:00:00 | |
| DO3MHA-12 | 2026-09-05 13:56:45 | 47.93208 | 12.08922 | 94° | 49km/h | 1863m | -2.4m/s | 10.9°C | 41.9% | 825.0hPa | 2.7V | 00:00:00 | 03:27:44 | 00:00:00 | |
| DO3MHA-11 | 2026-09-05 13:56:44 | 47.93208 | 12.08904 | 92° | 47km/h | 1865m | -2.3m/s | 10.9°C | 41.9% | 824.8hPa | 2.7V | 00:00:00 | 03:27:43 | 00:00:00 | |
| DO3MHA-12 | 2026-09-05 13:56:43 | 47.93209 | 12.08886 | 93° | 46km/h | 1868m | -2.5m/s | 10.9°C | 41.8% | 824.5hPa | 2.7V | 00:00:00 | 03:27:42 | 00:00:00 | |
| OE5DXL-15 | 2026-09-05 13:56:42 | 47.93210 | 12.08869 | 96° | 47km/h | 1870m | -2.5m/s | 10.8°C | 42.2% | 824.1hPa | 2.7V | 00:00:00 | 00:00:00 | 00:00:00 | |
| DO3MHA-11 | 2026-09-05 13:56:42 | 47.93210 | 12.08869 | 96° | 46km/h | 1870m | -2.5m/s | 10.8°C | 42.2% | 824.1hPa | 2.7V | 00:00:00 | 03:27:41 | 00:00:00 | |
| DO3MHA-12 | 2026-09-05 13:56:41 | 47.93211 | 12.08851 | 98° | 47km/h | 1873m | -2.6m/s | 10.8°C | 42.2% | 824.0hPa | 2.7V | 00:00:00 | 03:27:40 | 00:00:00 | |
| DO3MHA-11 | 2026-09-05 13:56:40 | 47.93212 | 12.08834 | 100° | 49km/h | 1875m | -2.5m/s | 10.8°C | 42.2% | 823.8hPa | 2.7V | 00:00:00 | 03:27:39 | 00:00:00 | |
| DG1MFX-10 | 2026-09-05 13:56:39 | 47.93212 | 12.08834 | 100° | 47km/h | 1875m | -2.5m/s | 10.9°C | 42.0% | 823.8hPa | 2.7V | 06:58:00 | 00:00:00 | 00:00:00 | |
| DO3MHA-12 | 2026-09-05 13:56:39 | 47.93214 | 12.08816 | 99° | 51km/h | 1878m | -2.4m/s | 10.7°C | 42.4% | 823.4hPa | 2.7V | 00:00:00 | 03:27:38 | 00:00:00 | |
| DO3MHA-11 | 2026-09-05 13:56:38 | 47.93216 | 12.08796 | 97° | 51km/h | 1881m | -2.7m/s | 10.7°C | 42.5% | 823.1hPa | 2.7V | 00:00:00 | 03:27:37 | 00:00:00 | |
| DO3MHA-12 | 2026-09-05 13:56:37 | 47.93218 | 12.08777 | 95° | 51km/h | 1883m | -2.6m/s | 10.7°C | 42.4% | 822.9hPa | 2.7V | 00:00:00 | 03:27:36 | 00:00:00 | |
| DO3MHA-11 | 2026-09-05 13:56:36 | 47.93218 | 12.08758 | 93° | 49km/h | 1886m | -2.7m/s | 10.7°C | 42.3% | 822.6hPa | 2.7V | 00:00:00 | 03:27:35 | 00:00:00 | |
| DO3MHA-12 | 2026-09-05 13:56:35 | 47.93219 | 12.08739 | 92° | 47km/h | 1889m | -2.6m/s | 10.7°C | 42.2% | 822.3hPa | 2.7V | 00:00:00 | 03:27:34 | 00:00:00 | |
| DO3MHA-12 | 2026-09-05 13:56:33 | 47.93220 | 12.08704 | 96° | 46km/h | 1894m | -2.7m/s | 10.7°C | 41.9% | 821.8hPa | 2.7V | 06:58:00 | 03:27:32 | 00:00:00 | |
| DO3MHA-11 | 2026-09-05 13:56:32 | 47.93221 | 12.08687 | 99° | 49km/h | 1896m | -2.7m/s | 10.7°C | 42.0% | 821.6hPa | 2.7V | 06:58:00 | 03:27:31 | 00:00:00 | |
| DO3MHA-12 | 2026-09-05 13:56:31 | 47.93223 | 12.08670 | 101° | 49km/h | 1899m | -2.5m/s | 10.7°C | 41.8% | 821.4hPa | 2.7V | 00:00:00 | 03:27:30 | 00:00:00 | |
| DO3MHA-12 | 2026-09-05 13:56:29 | 47.93227 | 12.08632 | 99° | 53km/h | 1904m | -2.6m/s | 10.5°C | 42.1% | 820.9hPa | 2.7V | 00:00:00 | 03:27:28 | 00:00:00 | |
| DO3MHA-11 | 2026-09-05 13:56:28 | 47.93229 | 12.08613 | 96° | 53km/h | 1907m | -2.6m/s | 10.5°C | 42.0% | 820.5hPa | 2.7V | 00:00:00 | 03:27:27 | 00:00:00 | |
| DO3MHA-12 | 2026-09-05 13:56:27 | 47.93230 | 12.08593 | 94° | 51km/h | 1910m | -2.7m/s | 10.5°C | 42.2% | 820.3hPa | 2.7V | 00:00:00 | 03:27:26 | 00:00:00 | |
| DO3MHA-11 | 2026-09-05 13:56:26 | 47.93231 | 12.08573 | 94° | 49km/h | 1913m | -2.5m/s | 10.5°C | 42.2% | 820.1hPa | 2.7V | 00:00:00 | 03:27:25 | 00:00:00 | |
| DO3MHA-12 | 2026-09-05 13:56:25 | 47.93232 | 12.08555 | 95° | 47km/h | 1915m | -2.5m/s | 10.5°C | 42.2% | 819.8hPa | 2.7V | 00:00:00 | 03:27:24 | 00:00:00 | |
| DO3MHA-11 | 2026-09-05 13:56:24 | 47.93233 | 12.08537 | 97° | 47km/h | 1917m | -2.5m/s | 10.5°C | 42.1% | 819.6hPa | 2.7V | 00:00:00 | 03:27:23 | 00:00:00 | |
| DO3MHA-12 | 2026-09-05 13:56:23 | 47.93234 | 12.08519 | 99° | 47km/h | 1920m | -2.7m/s | 10.5°C | 42.0% | 819.4hPa | 2.7V | 00:00:00 | 03:27:22 | 00:00:00 | |
| DO3MHA-12 | 2026-09-05 13:56:21 | 47.93238 | 12.08483 | 100° | 51km/h | 1925m | -2.6m/s | 10.4°C | 42.6% | 818.8hPa | 2.7V | 00:00:00 | 03:27:20 | 00:00:00 | |
| DO3MHA-11 | 2026-09-05 13:56:21 | 47.93238 | 12.08483 | 100° | 51km/h | 1925m | -2.6m/s | 10.4°C | 42.6% | 818.8hPa | 2.7V | 00:00:00 | 03:27:20 | 00:00:00 | |
| DO3MHA-12 | 2026-09-05 13:56:19 | 47.93242 | 12.08445 | 96° | 49km/h | 1931m | -2.7m/s | 10.4°C | 42.6% | 818.1hPa | 2.7V | 06:58:00 | 03:27:18 | 00:00:00 | |
| DO3MHA-11 | 2026-09-05 13:56:19 | 47.93242 | 12.08445 | 96° | 49km/h | 1931m | -2.7m/s | 10.4°C | 42.6% | 818.1hPa | 2.7V | 00:00:00 | 03:27:18 | 00:00:00 | |
| DG1MFX-10 | 2026-09-05 13:56:18 | 47.93242 | 12.08445 | 97° | 51km/h | 1931m | -2.7m/s | 10.5°C | 42.4% | 818.1hPa | 2.7V | 06:59:00 | 00:00:00 | 00:00:00 | |
| DO3MHA-11 | 2026-09-05 13:56:17 | 47.93244 | 12.08408 | 95° | 46km/h | 1936m | -2.6m/s | 10.4°C | 42.7% | 817.7hPa | 2.7V | 00:00:00 | 03:27:16 | 00:00:00 | |
| DO3MHA-12 | 2026-09-05 13:56:17 | 47.93244 | 12.08408 | 95° | 46km/h | 1936m | -2.6m/s | 10.4°C | 42.7% | 817.7hPa | 2.7V | 00:00:00 | 03:27:16 | 00:00:00 | |
| DO3MHA-12 | 2026-09-05 13:56:15 | 47.93247 | 12.08374 | 100° | 46km/h | 1941m | -2.6m/s | 10.4°C | 42.7% | 817.2hPa | 2.7V | 00:00:00 | 03:27:14 | 00:00:00 | |
| DO3MHA-11 | 2026-09-05 13:56:15 | 47.93247 | 12.08374 | 100° | 46km/h | 1941m | -2.6m/s | 10.4°C | 42.7% | 817.2hPa | 2.7V | 06:58:00 | 03:27:14 | 00:00:00 | |
| DO3MHA-12 | 2026-09-05 13:56:13 | 47.93252 | 12.08339 | 102° | 49km/h | 1947m | -2.8m/s | 10.4°C | 42.6% | 816.7hPa | 2.7V | 00:00:00 | 03:27:12 | 00:00:00 | |
| DO3MHA-11 | 2026-09-05 13:56:13 | 47.93252 | 12.08339 | 102° | 49km/h | 1947m | -2.8m/s | 10.4°C | 42.6% | 816.7hPa | 2.7V | 00:00:00 | 03:27:12 | 00:00:00 | |
| DO3MHA-12 | 2026-09-05 13:56:11 | 47.93257 | 12.08302 | 100° | 51km/h | 1952m | -2.6m/s | 10.3°C | 42.7% | 816.2hPa | 2.7V | 00:00:00 | 03:27:10 | 00:00:00 | |
| DO3MHA-11 | 2026-09-05 13:56:11 | 47.93257 | 12.08302 | 100° | 51km/h | 1952m | -2.6m/s | 10.3°C | 42.7% | 816.2hPa | 2.7V | 00:00:00 | 03:27:10 | 00:00:00 | |
| DO3MHA-11 | 2026-09-05 13:56:09 | 47.93260 | 12.08264 | 97° | 47km/h | 1957m | -2.5m/s | 10.3°C | 42.3% | 815.6hPa | 2.7V | 00:00:00 | 03:27:08 | 00:00:00 | |
| DO3MHA-12 | 2026-09-05 13:56:09 | 47.93260 | 12.08264 | 97° | 47km/h | 1957m | -2.5m/s | 10.3°C | 42.3% | 815.6hPa | 2.7V | 00:00:00 | 03:27:08 | 00:00:00 | |
| DO3MHA-12 | 2026-09-05 13:56:07 | 47.93264 | 12.08229 | 100° | 47km/h | 1962m | -2.4m/s | 10.2°C | 42.4% | 815.1hPa | 2.7V | 00:00:00 | 03:27:06 | 00:00:00 | |
| DO3MHA-11 | 2026-09-05 13:56:07 | 47.93264 | 12.08229 | 100° | 47km/h | 1962m | -2.4m/s | 10.2°C | 42.4% | 815.1hPa | 2.7V | 00:00:00 | 03:27:06 | 00:00:00 | |
| OE5DXL-15 | 2026-09-05 13:56:06 | 47.93266 | 12.08212 | 103° | 51km/h | 1965m | -2.6m/s | 10.2°C | 42.5% | 814.8hPa | 2.7V | 00:00:00 | 00:00:00 | 00:00:00 | |
| DO3MHA-12 | 2026-09-05 13:56:05 | 47.93268 | 12.08194 | 103° | 51km/h | 1967m | -2.5m/s | 10.2°C | 42.6% | 814.7hPa | 2.7V | 06:58:00 | 03:27:04 | 00:00:00 | |
| DO3MHA-11 | 2026-09-05 13:56:05 | 47.93268 | 12.08194 | 103° | 51km/h | 1967m | -2.5m/s | 10.2°C | 42.6% | 814.7hPa | 2.7V | 00:00:00 | 03:27:04 | 00:00:00 | |
| DO3MHA-12 | 2026-09-05 13:56:03 | 47.93274 | 12.08156 | 101° | 51km/h | 1973m | -2.7m/s | 10.1°C | 42.6% | 813.9hPa | 2.7V | 00:00:00 | 03:27:02 | 00:00:00 | |
| DO3MHA-11 | 2026-09-05 13:56:03 | 47.93274 | 12.08156 | 101° | 51km/h | 1973m | -2.7m/s | 10.1°C | 42.6% | 813.9hPa | 2.7V | 00:00:00 | 03:27:02 | 00:00:00 | |
| DO3MHA-11 | 2026-09-05 13:56:01 | 47.93278 | 12.08118 | 98° | 47km/h | 1978m | -2.5m/s | 10.2°C | 42.5% | 813.5hPa | 2.7V | 06:58:00 | 03:27:00 | 00:00:00 | |
| DO3MHA-12 | 2026-09-05 13:56:01 | 47.93278 | 12.08118 | 98° | 47km/h | 1978m | -2.5m/s | 10.2°C | 42.5% | 813.5hPa | 2.7V | 00:00:00 | 03:27:00 | 00:00:00 | |
| DO3MHA-12 | 2026-09-05 13:55:59 | 47.93281 | 12.08083 | 100° | 46km/h | 1983m | -2.6m/s | 10.2°C | 43.1% | 813.1hPa | 2.7V | 00:00:00 | 03:26:58 | 00:00:00 | |
| DO3MHA-11 | 2026-09-05 13:55:58 | 47.93284 | 12.08066 | 103° | 46km/h | 1986m | -2.7m/s | 10.2°C | 43.4% | 812.7hPa | 2.7V | 00:00:00 | 03:26:57 | 00:00:00 | |
| DG1MFX-10 | 2026-09-05 13:55:57 | 47.93283 | 12.08066 | 104° | 46km/h | 1986m | -2.7m/s | 10.2°C | 43.1% | 812.8hPa | 2.7V | 06:59:00 | 00:00:00 | 00:00:00 | |
| DO3MHA-12 | 2026-09-05 13:55:57 | 47.93286 | 12.08049 | 105° | 47km/h | 1989m | -2.8m/s | 10.2°C | 43.3% | 812.7hPa | 2.7V | 00:00:00 | 03:26:56 | 00:00:00 | |
| DO3MHA-11 | 2026-09-05 13:55:56 | 47.93290 | 12.08032 | 106° | 51km/h | 1991m | -2.8m/s | 10.2°C | 43.6% | 812.2hPa | 2.7V | 00:00:00 | 03:26:55 | 00:00:00 | |
| DO3MHA-12 | 2026-09-05 13:55:55 | 47.93293 | 12.08013 | 105° | 53km/h | 1994m | -2.6m/s | 10.1°C | 43.7% | 812.0hPa | 2.7V | 00:00:00 | 03:26:54 | 00:00:00 | |
| DO3MHA-11 | 2026-09-05 13:55:54 | 47.93296 | 12.07994 | 104° | 53km/h | 1997m | -2.4m/s | 10.1°C | 43.8% | 811.8hPa | 2.7V | 00:00:00 | 03:26:53 | 00:00:00 | |
| DO3MHA-12 | 2026-09-05 13:55:53 | 47.93299 | 12.07975 | 102° | 51km/h | 1999m | -2.6m/s | 10.0°C | 43.9% | 811.5hPa | 2.7V | 00:00:00 | 03:26:52 | 00:00:00 | |
| DO3MHA-11 | 2026-09-05 13:55:52 | 47.93301 | 12.07956 | 100° | 51km/h | 2002m | -2.4m/s | 10.0°C | 43.8% | 811.4hPa | 2.7V | 00:00:00 | 03:26:51 | 00:00:00 | |
| DO3MHA-12 | 2026-09-05 13:55:51 | 47.93303 | 12.07937 | 100° | 47km/h | 2004m | -2.5m/s | 10.0°C | 44.2% | 811.0hPa | 2.7V | 06:59:00 | 03:26:50 | 00:00:00 | |
| DO3MHA-11 | 2026-09-05 13:55:50 | 47.93306 | 12.07919 | 102° | 47km/h | 2006m | -2.5m/s | 10.0°C | 44.4% | 810.9hPa | 2.7V | 00:00:00 | 03:26:49 | 00:00:00 | |
| DO3MHA-12 | 2026-09-05 13:55:49 | 47.93308 | 12.07901 | 104° | 47km/h | 2009m | -2.6m/s | 10.0°C | 44.6% | 810.5hPa | 2.7V | 00:00:00 | 03:26:48 | 00:00:00 | |
| DO3MHA-11 | 2026-09-05 13:55:48 | 47.93311 | 12.07884 | 106° | 49km/h | 2012m | -2.6m/s | 10.0°C | 44.9% | 810.3hPa | 2.7V | 00:00:00 | 03:26:47 | 00:00:00 | |
| DO3MHA-12 | 2026-09-05 13:55:47 | 47.93315 | 12.07866 | 107° | 51km/h | 2015m | -2.7m/s | 10.0°C | 45.1% | 809.9hPa | 2.7V | 00:00:00 | 03:26:46 | 00:00:00 | |
| DO3MHA-11 | 2026-09-05 13:55:46 | 47.93318 | 12.07847 | 106° | 53km/h | 2017m | -2.6m/s | 10.0°C | 45.0% | 809.7hPa | 2.7V | 06:59:00 | 03:26:45 | 00:00:00 | |
| DO3MHA-12 | 2026-09-05 13:55:45 | 47.93322 | 12.07828 | 104° | 53km/h | 2020m | -2.6m/s | 9.9°C | 45.2% | 809.5hPa | 2.7V | 00:00:00 | 03:26:44 | 00:00:00 | |
| DO3MHA-11 | 2026-09-05 13:55:44 | 47.93325 | 12.07808 | 103° | 51km/h | 2023m | -2.5m/s | 9.9°C | 45.2% | 809.2hPa | 2.7V | 00:00:00 | 03:26:43 | 00:00:00 | |
| DO3MHA-12 | 2026-09-05 13:55:43 | 47.93327 | 12.07789 | 102° | 49km/h | 2025m | -2.3m/s | 9.9°C | 46.1% | 808.9hPa | 2.7V | 00:00:00 | 03:26:42 | 00:00:00 | |
| DO3MHA-11 | 2026-09-05 13:55:42 | 47.93330 | 12.07771 | 102° | 47km/h | 2028m | -2.4m/s | 10.0°C | 47.5% | 808.7hPa | 2.7V | 00:00:00 | 03:26:41 | 00:00:00 | |
| DO3MHA-12 | 2026-09-05 13:55:41 | 47.93333 | 12.07753 | 104° | 47km/h | 2030m | -2.5m/s | 10.1°C | 47.5% | 808.6hPa | 2.7V | 00:00:00 | 03:26:40 | 00:00:00 | |
| DO3MHA-11 | 2026-09-05 13:55:40 | 47.93336 | 12.07736 | 107° | 47km/h | 2032m | -2.6m/s | 10.1°C | 46.6% | 808.3hPa | 2.7V | 00:00:00 | 03:26:39 | 00:00:00 | |
| DO3MHA-12 | 2026-09-05 13:55:39 | 47.93339 | 12.07719 | 108° | 49km/h | 2035m | -2.6m/s | 10.2°C | 46.4% | 807.9hPa | 2.7V | 00:00:00 | 03:26:38 | 00:00:00 | |
| DO3MHA-11 | 2026-09-05 13:55:38 | 47.93343 | 12.07701 | 108° | 51km/h | 2038m | -2.5m/s | 10.3°C | 44.4% | 807.8hPa | 2.7V | 00:00:00 | 03:26:37 | 00:00:00 | |
| DO3MHA-12 | 2026-09-05 13:55:37 | 47.93347 | 12.07683 | 106° | 53km/h | 2040m | -2.7m/s | 10.3°C | 43.6% | 807.6hPa | 2.7V | 06:59:00 | 03:26:36 | 00:00:00 | |
| DO3MHA-11 | 2026-09-05 13:55:36 | 47.93350 | 12.07664 | 104° | 51km/h | 2043m | -2.5m/s | 10.3°C | 43.5% | 807.3hPa | 2.7V | 00:00:00 | 03:26:35 | 00:00:00 | |
| DO3MHA-12 | 2026-09-05 13:55:35 | 47.93353 | 12.07645 | 101° | 49km/h | 2046m | -2.4m/s | 10.2°C | 43.5% | 807.1hPa | 2.7V | 00:00:00 | 03:26:34 | 00:00:00 | |
| DO3MHA-11 | 2026-09-05 13:55:34 | 47.93355 | 12.07626 | 101° | 47km/h | 2048m | -2.5m/s | 10.2°C | 43.3% | 806.9hPa | 2.7V | 00:00:00 | 03:26:33 | 00:00:00 | |
| DO3MHA-12 | 2026-09-05 13:55:33 | 47.93357 | 12.07609 | 102° | 46km/h | 2051m | -2.6m/s | 10.3°C | 43.2% | 806.6hPa | 2.7V | 00:00:00 | 03:26:32 | 00:00:00 | |
| DO3MHA-11 | 2026-09-05 13:55:32 | 47.93360 | 12.07592 | 104° | 47km/h | 2053m | -2.5m/s | 10.2°C | 43.1% | 806.3hPa | 2.7V | 06:59:00 | 03:26:31 | 00:00:00 | |
| DO3MHA-12 | 2026-09-05 13:55:31 | 47.93363 | 12.07575 | 106° | 49km/h | 2056m | -2.6m/s | 10.3°C | 43.0% | 806.1hPa | 2.7V | 00:00:00 | 03:26:30 | 00:00:00 | |
| DO3MHA-11 | 2026-09-05 13:55:30 | 47.93366 | 12.07557 | 107° | 51km/h | 2058m | -2.5m/s | 10.2°C | 43.3% | 805.9hPa | 2.7V | 00:00:00 | 03:26:29 | 00:00:00 | |
| DO3MHA-12 | 2026-09-05 13:55:29 | 47.93370 | 12.07539 | 107° | 53km/h | 2061m | -2.4m/s | 10.2°C | 43.5% | 805.7hPa | 2.7V | 00:00:00 | 03:26:28 | 00:00:00 | |
| DO3MHA-11 | 2026-09-05 13:55:28 | 47.93373 | 12.07520 | 105° | 53km/h | 2063m | -2.4m/s | 10.2°C | 43.6% | 805.2hPa | 2.7V | 00:00:00 | 03:26:27 | 00:00:00 | |
| DO3MHA-12 | 2026-09-05 13:55:27 | 47.93377 | 12.07500 | 102° | 51km/h | 2066m | -2.5m/s | 10.2°C | 44.2% | 805.1hPa | 2.7V | 00:00:00 | 03:26:26 | 00:00:00 | |
| DO3MHA-11 | 2026-09-05 13:55:26 | 47.93379 | 12.07481 | 101° | 51km/h | 2068m | -2.5m/s | 10.2°C | 44.2% | 804.9hPa | 2.7V | 00:00:00 | 03:26:25 | 00:00:00 | |
| DO3MHA-12 | 2026-09-05 13:55:25 | 47.93381 | 12.07463 | 102° | 47km/h | 2071m | -2.6m/s | 10.1°C | 44.4% | 804.7hPa | 2.7V | 00:00:00 | 03:26:24 | 00:00:00 | |
| DO3MHA-11 | 2026-09-05 13:55:24 | 47.93384 | 12.07445 | 104° | 47km/h | 2074m | -2.5m/s | 10.2°C | 44.6% | 804.3hPa | 2.7V | 00:00:00 | 03:26:23 | 00:00:00 | |
| OE5DXL-15 | 2026-09-05 13:55:23 | 47.93387 | 12.07428 | 107° | 49km/h | 2076m | -2.5m/s | 10.1°C | 45.0% | 804.0hPa | 2.7V | 00:00:00 | 00:00:00 | 00:00:00 | |
| DO3MHA-11 | 2026-09-05 13:55:22 | 47.93391 | 12.07411 | 109° | 51km/h | 2079m | -2.4m/s | 10.1°C | 45.1% | 803.8hPa | 2.7V | 00:00:00 | 03:26:21 | 00:00:00 | |
| DO3MHA-12 | 2026-09-05 13:55:21 | 47.93395 | 12.07393 | 109° | 53km/h | 2081m | -2.6m/s | 10.1°C | 45.5% | 803.6hPa | 2.7V | 00:00:00 | 03:26:20 | 00:00:00 | |
| DO3MHA-11 | 2026-09-05 13:55:20 | 47.93399 | 12.07374 | 107° | 53km/h | 2084m | -2.5m/s | 10.0°C | 46.1% | 803.3hPa | 2.7V | 00:00:00 | 03:26:19 | 00:00:00 | |
| DO3MHA-12 | 2026-09-05 13:55:19 | 47.93403 | 12.07355 | 104° | 53km/h | 2086m | -2.5m/s | 10.1°C | 46.3% | 803.1hPa | 2.7V | 00:00:00 | 03:26:18 | 00:00:00 | |
| DO3MHA-11 | 2026-09-05 13:55:18 | 47.93405 | 12.07335 | 101° | 53km/h | 2089m | -2.6m/s | 10.0°C | 46.9% | 802.9hPa | 2.7V | 06:59:00 | 03:26:17 | 00:00:00 | |
| DO3MHA-12 | 2026-09-05 13:55:17 | 47.93408 | 12.07316 | 100° | 49km/h | 2091m | -2.5m/s | 10.0°C | 47.2% | 802.7hPa | 2.7V | 00:00:00 | 03:26:16 | 00:00:00 | |
| DO3MHA-11 | 2026-09-05 13:55:16 | 47.93410 | 12.07298 | 101° | 49km/h | 2094m | -2.7m/s | 9.9°C | 47.8% | 802.4hPa | 2.7V | 00:00:00 | 03:26:15 | 00:00:00 | |
| DO3MHA-12 | 2026-09-05 13:55:15 | 47.93412 | 12.07280 | 103° | 47km/h | 2096m | -2.6m/s | 9.9°C | 48.3% | 802.0hPa | 2.7V | 00:00:00 | 03:26:14 | 00:00:00 | |
| DO3MHA-11 | 2026-09-05 13:55:14 | 47.93415 | 12.07263 | 106° | 49km/h | 2099m | -2.4m/s | 9.9°C | 48.1% | 801.8hPa | 2.7V | 00:00:00 | 03:26:13 | 00:00:00 | |
| DO3MHA-12 | 2026-09-05 13:55:13 | 47.93419 | 12.07245 | 108° | 51km/h | 2102m | -2.5m/s | 9.9°C | 48.2% | 801.6hPa | 2.7V | 00:00:00 | 03:26:12 | 00:00:00 | |
| DO3MHA-11 | 2026-09-05 13:55:12 | 47.93422 | 12.07227 | 107° | 53km/h | 2104m | -2.6m/s | 9.9°C | 49.3% | 801.4hPa | 2.7V | 00:00:00 | 03:26:11 | 00:00:00 | |
| DO3MHA-12 | 2026-09-05 13:55:11 | 47.93426 | 12.07208 | 106° | 53km/h | 2107m | -2.5m/s | 9.8°C | 49.2% | 801.1hPa | 2.7V | 00:00:00 | 03:26:10 | 00:00:00 | |
| DO3MHA-11 | 2026-09-05 13:55:10 | 47.93429 | 12.07189 | 103° | 49km/h | 2109m | -2.5m/s | 9.9°C | 48.7% | 800.8hPa | 2.7V | 00:00:00 | 03:26:09 | 00:00:00 | |
| DO3MHA-12 | 2026-09-05 13:55:09 | 47.93432 | 12.07170 | 102° | 49km/h | 2112m | -2.5m/s | 9.8°C | 48.8% | 800.7hPa | 2.7V | 06:59:00 | 03:26:08 | 00:00:00 | |
| DO3MHA-12 | 2026-09-05 13:55:07 | 47.93437 | 12.07134 | 104° | 47km/h | 2117m | -2.5m/s | 9.9°C | 49.0% | 800.1hPa | 2.7V | 00:00:00 | 03:26:06 | 00:00:00 | |
| DO3MHA-11 | 2026-09-05 13:55:06 | 47.93440 | 12.07117 | 106° | 47km/h | 2119m | -2.5m/s | 9.9°C | 49.0% | 799.9hPa | 2.7V | 00:00:00 | 03:26:05 | 00:00:00 | |
| DO3MHA-12 | 2026-09-05 13:55:05 | 47.93443 | 12.07099 | 109° | 49km/h | 2122m | -2.4m/s | 9.8°C | 49.0% | 799.7hPa | 2.7V | 00:00:00 | 03:26:04 | 00:00:00 | |
| DO3MHA-11 | 2026-09-05 13:55:04 | 47.93447 | 12.07081 | 109° | 51km/h | 2124m | -2.4m/s | 9.8°C | 49.0% | 799.3hPa | 2.7V | 00:00:00 | 03:26:03 | 00:00:00 | |
| DO3MHA-12 | 2026-09-05 13:55:03 | 47.93451 | 12.07063 | 107° | 53km/h | 2127m | -2.6m/s | 9.7°C | 49.1% | 799.2hPa | 2.7V | 00:00:00 | 03:26:02 | 00:00:00 | |
| DO3MHA-11 | 2026-09-05 13:55:02 | 47.93455 | 12.07043 | 105° | 53km/h | 2129m | -2.6m/s | 9.7°C | 49.2% | 799.0hPa | 2.7V | 06:59:00 | 03:26:01 | 00:00:00 | |
| DO3MHA-12 | 2026-09-05 13:55:01 | 47.93458 | 12.07024 | 102° | 51km/h | 2132m | -2.5m/s | 9.7°C | 49.2% | 798.8hPa | 2.7V | 00:00:00 | 03:26:00 | 00:00:00 | |
| DO3MHA-11 | 2026-09-05 13:54:59 | 47.93463 | 12.06987 | 102° | 47km/h | 2137m | -2.5m/s | 9.7°C | 49.1% | 798.2hPa | 2.7V | 00:00:00 | 03:25:58 | 00:00:00 | |
| DO3MHA-12 | 2026-09-05 13:54:57 | 47.93469 | 12.06953 | 107° | 47km/h | 2142m | -2.5m/s | 9.7°C | 49.1% | 797.7hPa | 2.7V | 00:00:00 | 03:25:56 | 00:00:00 | |
| DO3MHA-11 | 2026-09-05 13:54:56 | 47.93473 | 12.06935 | 109° | 51km/h | 2145m | -2.4m/s | 9.6°C | 49.2% | 797.5hPa | 2.7V | 00:00:00 | 03:25:55 | 00:00:00 | |
| DO3MHA-12 | 2026-09-05 13:54:55 | 47.93476 | 12.06917 | 108° | 53km/h | 2147m | -2.4m/s | 9.6°C | 49.4% | 797.2hPa | 2.7V | 06:59:00 | 03:25:54 | 00:00:00 | |
| DO3MHA-11 | 2026-09-05 13:54:53 | 47.93484 | 12.06879 | 103° | 53km/h | 2152m | -2.6m/s | 9.4°C | 49.9% | 796.8hPa | 2.7V | 00:00:00 | 03:25:52 | 00:00:00 | |
| DO3MHA-12 | 2026-09-05 13:54:51 | 47.93488 | 12.06841 | 101° | 47km/h | 2157m | -2.5m/s | 9.5°C | 49.8% | 796.3hPa | 2.7V | 00:00:00 | 03:25:50 | 00:00:00 | |
| DO3MHA-12 | 2026-09-05 13:54:49 | 47.93494 | 12.06806 | 106° | 47km/h | 2162m | -2.4m/s | 9.5°C | 49.7% | 795.9hPa | 2.7V | 07:00:00 | 03:25:48 | 00:00:00 | |
| DO3MHA-11 | 2026-09-05 13:54:47 | 47.93501 | 12.06772 | 109° | 51km/h | 2167m | -2.5m/s | 9.4°C | 50.0% | 795.3hPa | 2.7V | 00:00:00 | 03:25:46 | 00:00:00 | |
| DO3MHA-12 | 2026-09-05 13:54:45 | 47.93509 | 12.06734 | 106° | 53km/h | 2172m | -2.5m/s | 9.3°C | 50.3% | 794.9hPa | 2.7V | 00:00:00 | 03:25:44 | 00:00:00 | |
| DO3MHA-12 | 2026-09-05 13:54:43 | 47.93515 | 12.06695 | 102° | 49km/h | 2177m | -2.4m/s | 9.3°C | 50.5% | 794.4hPa | 2.7V | 00:00:00 | 03:25:42 | 00:00:00 | |
| DO3MHA-12 | 2026-09-05 13:54:41 | 47.93520 | 12.06660 | 104° | 47km/h | 2182m | -2.5m/s | 9.3°C | 50.3% | 794.0hPa | 2.7V | 00:00:00 | 03:25:40 | 00:00:00 | |
| DO3MHA-12 | 2026-09-05 13:54:39 | 47.93527 | 12.06625 | 109° | 49km/h | 2187m | -2.5m/s | 9.3°C | 50.5% | 793.4hPa | 2.7V | 00:00:00 | 03:25:38 | 00:00:00 | |
| DO3MHA-11 | 2026-09-05 13:54:37 | 47.93535 | 12.06589 | 108° | 53km/h | 2192m | -2.4m/s | 9.2°C | 50.7% | 793.0hPa | 2.7V | 00:00:00 | 03:25:36 | 00:00:00 | |
| DO3MHA-11 | 2026-09-05 13:54:35 | 47.93542 | 12.06550 | 103° | 53km/h | 2197m | -2.4m/s | 9.1°C | 51.2% | 792.5hPa | 2.7V | 00:00:00 | 03:25:34 | 00:00:00 | |
| DG1MFX-10 | 2026-09-05 13:54:34 | 47.93542 | 12.06550 | 104° | 53km/h | 2197m | -2.5m/s | 9.1°C | 50.9% | 792.6hPa | 2.7V | 07:01:00 | 00:00:00 | 00:00:00 | |
| DO3MHA-12 | 2026-09-05 13:54:33 | 47.93547 | 12.06512 | 102° | 47km/h | 2202m | -2.4m/s | 9.1°C | 51.1% | 791.9hPa | 2.7V | 07:00:00 | 03:25:32 | 00:00:00 | |
| DO3MHA-12 | 2026-09-05 13:54:31 | 47.93553 | 12.06478 | 107° | 47km/h | 2207m | -2.4m/s | 9.1°C | 51.2% | 791.7hPa | 2.7V | 00:00:00 | 03:25:30 | 00:00:00 | |
| DO3MHA-12 | 2026-09-05 13:54:27 | 47.93569 | 12.06405 | 106° | 53km/h | 2217m | -2.7m/s | 8.9°C | 51.6% | 790.6hPa | 2.7V | 00:00:00 | 03:25:26 | 00:00:00 | |
| DO3MHA-12 | 2026-09-05 13:54:25 | 47.93575 | 12.06366 | 103° | 49km/h | 2222m | -2.5m/s | 8.8°C | 52.2% | 790.1hPa | 2.7V | 00:00:00 | 03:25:24 | 00:00:00 | |
| DO3MHA-12 | 2026-09-05 13:54:23 | 47.93581 | 12.06330 | 105° | 47km/h | 2227m | -2.5m/s | 8.8°C | 52.4% | 789.7hPa | 2.7V | 00:00:00 | 03:25:22 | 00:00:00 | |
| DO3MHA-11 | 2026-09-05 13:54:21 | 47.93588 | 12.06296 | 110° | 49km/h | 2232m | -2.5m/s | 8.8°C | 52.8% | 789.1hPa | 2.7V | 00:00:00 | 03:25:20 | 00:00:00 | |
| DO3MHA-11 | 2026-09-05 13:54:19 | 47.93597 | 12.06260 | 107° | 53km/h | 2237m | -2.4m/s | 8.7°C | 53.3% | 788.7hPa | 2.7V | 00:00:00 | 03:25:18 | 00:00:00 | |
| DO3MHA-12 | 2026-09-05 13:54:17 | 47.93603 | 12.06222 | 103° | 49km/h | 2242m | -2.5m/s | 8.7°C | 53.3% | 788.3hPa | 2.7V | 07:00:00 | 03:25:16 | 00:00:00 | |
| DO3MHA-12 | 2026-09-05 13:54:15 | 47.93609 | 12.06186 | 105° | 47km/h | 2247m | -2.3m/s | 8.6°C | 53.6% | 787.7hPa | 2.7V | 00:00:00 | 03:25:14 | 00:00:00 | |
| DO3MHA-11 | 2026-09-05 13:54:13 | 47.93616 | 12.06152 | 110° | 49km/h | 2252m | -2.3m/s | 8.6°C | 53.6% | 787.2hPa | 2.7V | 00:00:00 | 03:25:12 | 00:00:00 | |
| DO3MHA-11 | 2026-09-05 13:54:11 | 47.93624 | 12.06116 | 108° | 53km/h | 2256m | -2.5m/s | 8.6°C | 53.8% | 786.8hPa | 2.7V | 00:00:00 | 03:25:10 | 00:00:00 | |
| DO3MHA-12 | 2026-09-05 13:54:09 | 47.93630 | 12.06078 | 103° | 51km/h | 2261m | -2.5m/s | 8.5°C | 53.9% | 786.3hPa | 2.7V | 00:00:00 | 03:25:08 | 00:00:00 | |
| DO3MHA-12 | 2026-09-05 13:54:07 | 47.93636 | 12.06041 | 104° | 47km/h | 2266m | -2.4m/s | 8.5°C | 54.0% | 785.9hPa | 2.7V | 00:00:00 | 03:25:06 | 00:00:00 | |
| DO3MHA-11 | 2026-09-05 13:54:05 | 47.93642 | 12.06007 | 109° | 49km/h | 2271m | -2.5m/s | 8.4°C | 54.3% | 785.5hPa | 2.7V | 00:00:00 | 03:25:04 | 00:00:00 | |
| DO3MHA-11 | 2026-09-05 13:54:03 | 47.93651 | 12.05972 | 110° | 53km/h | 2276m | -2.4m/s | 8.3°C | 54.4% | 785.0hPa | 2.7V | 00:00:00 | 03:25:02 | 00:00:00 | |
| DO3MHA-12 | 2026-09-05 13:54:01 | 47.93658 | 12.05934 | 105° | 53km/h | 2281m | -2.5m/s | 8.3°C | 54.4% | 784.4hPa | 2.7V | 07:00:00 | 03:25:00 | 00:00:00 | |
| DO3MHA-12 | 2026-09-05 13:53:59 | 47.93664 | 12.05896 | 103° | 47km/h | 2286m | -2.4m/s | 8.3°C | 54.4% | 783.9hPa | 2.7V | 00:00:00 | 03:24:58 | 00:00:00 | |
| DO3MHA-11 | 2026-09-05 13:53:57 | 47.93670 | 12.05862 | 107° | 47km/h | 2291m | -2.6m/s | 8.3°C | 54.3% | 783.5hPa | 2.7V | 00:00:00 | 03:24:56 | 00:00:00 | |
| DO3MHA-11 | 2026-09-05 13:53:55 | 47.93678 | 12.05827 | 110° | 51km/h | 2296m | -2.4m/s | 8.1°C | 54.8% | 783.1hPa | 2.7V | 00:00:00 | 03:24:54 | 00:00:00 | |
| DO3MHA-12 | 2026-09-05 13:53:53 | 47.93686 | 12.05789 | 106° | 53km/h | 2301m | -2.4m/s | 8.1°C | 54.7% | 782.6hPa | 2.7V | 00:00:00 | 03:24:52 | 00:00:00 | |
| DG1MFX-10 | 2026-09-05 13:53:52 | 47.93686 | 12.05789 | 107° | 53km/h | 2301m | -2.5m/s | 8.2°C | 54.3% | 782.7hPa | 2.7V | 07:01:00 | 00:00:00 | 00:00:00 | |
| DO3MHA-12 | 2026-09-05 13:53:51 | 47.93692 | 12.05750 | 103° | 49km/h | 2306m | -2.3m/s | 8.1°C | 54.7% | 782.2hPa | 2.7V | 00:00:00 | 03:24:50 | 00:00:00 | |
| DO3MHA-12 | 2026-09-05 13:53:49 | 47.93698 | 12.05714 | 106° | 49km/h | 2310m | -2.3m/s | 8.1°C | 54.9% | 781.6hPa | 2.7V | 00:00:00 | 03:24:48 | 00:00:00 | |
| DO3MHA-11 | 2026-09-05 13:53:47 | 47.93706 | 12.05679 | 110° | 51km/h | 2316m | -2.4m/s | 7.9°C | 55.6% | 781.2hPa | 2.7V | 00:00:00 | 03:24:46 | 00:00:00 | |
| DO3MHA-12 | 2026-09-05 13:53:45 | 47.93715 | 12.05641 | 108° | 55km/h | 2321m | -2.7m/s | 8.0°C | 55.5% | 780.7hPa | 2.7V | 07:01:00 | 03:24:44 | 00:00:00 | |
| DO3MHA-12 | 2026-09-05 13:53:43 | 47.93722 | 12.05602 | 104° | 53km/h | 2326m | -2.7m/s | 8.0°C | 55.4% | 780.4hPa | 2.7V | 00:00:00 | 03:24:42 | 00:00:00 | |
| DO3MHA-11 | 2026-09-05 13:53:41 | 47.93728 | 12.05564 | 104° | 49km/h | 2331m | -2.3m/s | 7.9°C | 55.7% | 779.8hPa | 2.7V | 00:00:00 | 03:24:40 | 00:00:00 | |
| DO3MHA-11 | 2026-09-05 13:53:39 | 47.93734 | 12.05528 | 108° | 53km/h | 2336m | -2.3m/s | 7.8°C | 55.7% | 779.4hPa | 2.7V | 00:00:00 | 03:24:38 | 00:00:00 | |
| DO3MHA-12 | 2026-09-05 13:53:34 | 47.93752 | 12.05432 | 102° | 51km/h | 2348m | -2.5m/s | 7.7°C | 55.9% | 778.2hPa | 2.7V | 00:00:00 | 03:24:33 | 00:00:00 | |
| DG1MFX-10 | 2026-09-05 13:53:32 | 47.93755 | 12.05413 | 103° | 49km/h | 2351m | -2.5m/s | 7.8°C | 55.5% | 777.9hPa | 2.7V | 07:01:00 | 00:00:00 | 00:00:00 | |
| DO3MHA-12 | 2026-09-05 13:53:29 | 47.93768 | 12.05340 | 108° | 53km/h | 2360m | -2.4m/s | 7.6°C | 56.3% | 777.0hPa | 2.7V | 00:00:00 | 03:24:28 | 00:00:00 | |
| DO3MHA-12 | 2026-09-05 13:53:24 | 47.93784 | 12.05243 | 105° | 53km/h | 2373m | -2.4m/s | 7.5°C | 56.7% | 775.8hPa | 2.7V | 00:00:00 | 03:24:23 | 00:00:00 | |
| DO3MHA-12 | 2026-09-05 13:53:19 | 47.93803 | 12.05148 | 104° | 53km/h | 2385m | -2.5m/s | 7.4°C | 55.9% | 774.6hPa | 2.7V | 00:00:00 | 03:24:18 | 00:00:00 | |
| DO3MHA-12 | 2026-09-05 13:53:14 | 47.93818 | 12.05052 | 108° | 55km/h | 2398m | -2.4m/s | 7.4°C | 56.0% | 773.4hPa | 2.7V | 07:01:00 | 03:24:13 | 00:00:00 | |
| DG1MFX-10 | 2026-09-05 13:53:11 | 47.93826 | 12.05014 | 109° | 55km/h | 2403m | -2.5m/s | 7.4°C | 55.2% | 772.9hPa | 2.7V | 07:01:00 | 00:00:00 | 00:00:00 | |
| DO3MHA-12 | 2026-09-05 13:53:09 | 47.93836 | 12.04952 | 100° | 53km/h | 2411m | -2.5m/s | 7.3°C | 55.5% | 772.2hPa | 2.7V | 00:00:00 | 03:24:08 | 00:00:00 | |
| DO3MHA-11 | 2026-09-05 13:53:04 | 47.93850 | 12.04856 | 108° | 55km/h | 2424m | -2.6m/s | 7.2°C | 55.8% | 771.0hPa | 2.7V | 00:00:00 | 03:24:03 | 00:00:00 | |
| DO3MHA-12 | 2026-09-05 13:53:02 | 47.93858 | 12.04817 | 106° | 57km/h | 2429m | -2.5m/s | 7.1°C | 56.0% | 770.5hPa | 2.7V | 00:00:00 | 03:24:01 | 00:00:00 | |
| DL6DJ-15 | 2026-09-05 13:52:49 | 47.93903 | 12.04516 | 106° | 53km/h | 2466m | -2.5m/s | 7.0°C | 54.8% | 767.0hPa | 2.7V | 00:00:00 | 00:00:00 | 00:00:00 | |
| DO3MHA-12 | 2026-09-05 13:52:48 | 47.93899 | 12.04536 | 106° | 53km/h | 2464m | -2.3m/s | 6.9°C | 55.5% | 767.3hPa | 2.7V | 00:00:00 | 03:23:47 | 00:00:00 | |
| DO3MHA-11 | 2026-09-05 13:52:47 | 47.93903 | 12.04516 | 107° | 57km/h | 2466m | -2.4m/s | 6.9°C | 55.3% | 767.0hPa | 2.7V | 00:00:00 | 03:23:46 | 00:00:00 | |
| DO3MHA-12 | 2026-09-05 13:52:46 | 47.93907 | 12.04496 | 107° | 57km/h | 2469m | -2.4m/s | 6.9°C | 55.2% | 767.0hPa | 2.7V | 00:00:00 | 03:23:45 | 00:00:00 | |
| DO3MHA-11 | 2026-09-05 13:52:45 | 47.93911 | 12.04475 | 105° | 58km/h | 2471m | -2.6m/s | 6.8°C | 55.5% | 766.6hPa | 2.7V | 00:00:00 | 03:23:44 | 00:00:00 | |
| DO3MHA-12 | 2026-09-05 13:52:44 | 47.93914 | 12.04454 | 102° | 57km/h | 2474m | -2.4m/s | 6.8°C | 55.7% | 766.3hPa | 2.7V | 00:00:00 | 03:23:43 | 00:00:00 | |
| DO3MHA-11 | 2026-09-05 13:52:43 | 47.93917 | 12.04433 | 100° | 55km/h | 2476m | -2.4m/s | 6.8°C | 55.5% | 766.2hPa | 2.7V | 00:00:00 | 03:23:42 | 00:00:00 | |
| DO3MHA-12 | 2026-09-05 13:52:42 | 47.93919 | 12.04412 | 100° | 53km/h | 2479m | -2.4m/s | 6.7°C | 55.6% | 765.9hPa | 2.7V | 00:00:00 | 03:23:41 | 00:00:00 | |
| DO3MHA-11 | 2026-09-05 13:52:41 | 47.93922 | 12.04393 | 102° | 51km/h | 2481m | -2.4m/s | 6.7°C | 55.7% | 765.6hPa | 2.7V | 07:02:00 | 03:23:40 | 00:00:00 | |
| DO3MHA-12 | 2026-09-05 13:52:40 | 47.93925 | 12.04374 | 105° | 51km/h | 2484m | -2.4m/s | 6.7°C | 55.5% | 765.5hPa | 2.7V | 00:00:00 | 03:23:39 | 00:00:00 | |
| DO3MHA-11 | 2026-09-05 13:52:39 | 47.93928 | 12.04355 | 107° | 53km/h | 2486m | -2.5m/s | 6.7°C | 54.7% | 765.1hPa | 2.7V | 00:00:00 | 03:23:38 | 00:00:00 | |
| DO3MHA-12 | 2026-09-05 13:52:38 | 47.93932 | 12.04336 | 107° | 55km/h | 2489m | -2.5m/s | 6.7°C | 55.0% | 764.9hPa | 2.7V | 00:00:00 | 03:23:37 | 00:00:00 | |
| DO3MHA-11 | 2026-09-05 13:52:37 | 47.93936 | 12.04316 | 106° | 57km/h | 2491m | -2.5m/s | 6.8°C | 54.3% | 764.7hPa | 2.7V | 00:00:00 | 03:23:36 | 00:00:00 | |
| DO3MHA-12 | 2026-09-05 13:52:36 | 47.93939 | 12.04295 | 104° | 57km/h | 2494m | -2.5m/s | 6.7°C | 54.1% | 764.5hPa | 2.7V | 07:02:00 | 03:23:35 | 00:00:00 | |
| DO3MHA-11 | 2026-09-05 13:52:35 | 47.93942 | 12.04274 | 102° | 57km/h | 2496m | -2.6m/s | 6.7°C | 53.9% | 764.3hPa | 2.7V | 00:00:00 | 03:23:34 | 00:00:00 | |
| OE5DXL-15 | 2026-09-05 13:52:34 | 47.93945 | 12.04253 | 101° | 55km/h | 2499m | -2.6m/s | 6.7°C | 53.7% | 764.1hPa | 2.7V | 00:00:00 | 00:00:00 | 00:00:00 | |
| DO3MHA-11 | 2026-09-05 13:52:33 | 47.93948 | 12.04232 | 101° | 53km/h | 2501m | -2.4m/s | 6.7°C | 53.4% | 763.8hPa | 2.7V | 00:00:00 | 03:23:32 | 00:00:00 | |
| DO3MHA-12 | 2026-09-05 13:52:32 | 47.93950 | 12.04213 | 103° | 53km/h | 2504m | -2.5m/s | 6.7°C | 53.4% | 763.6hPa | 2.7V | 00:00:00 | 03:23:31 | 00:00:00 | |
| DO3MHA-11 | 2026-09-05 13:52:31 | 47.93953 | 12.04193 | 105° | 55km/h | 2506m | -2.4m/s | 6.6°C | 53.3% | 763.4hPa | 2.7V | 00:00:00 | 03:23:30 | 00:00:00 | |
| DO3MHA-12 | 2026-09-05 13:52:30 | 47.93957 | 12.04173 | 105° | 57km/h | 2509m | -2.4m/s | 6.6°C | 53.3% | 763.2hPa | 2.7V | 00:00:00 | 03:23:29 | 00:00:00 | |
| DO3MHA-11 | 2026-09-05 13:52:29 | 47.93960 | 12.04152 | 105° | 58km/h | 2511m | -2.4m/s | 6.6°C | 53.4% | 763.0hPa | 2.7V | 00:00:00 | 03:23:28 | 00:00:00 | |
| DO3MHA-12 | 2026-09-05 13:52:28 | 47.93964 | 12.04131 | 103° | 58km/h | 2514m | -2.5m/s | 6.5°C | 53.5% | 762.7hPa | 2.7V | 00:00:00 | 03:23:27 | 00:00:00 | |
| DO3MHA-11 | 2026-09-05 13:52:27 | 47.93967 | 12.04109 | 100° | 57km/h | 2516m | -2.4m/s | 6.5°C | 53.9% | 762.5hPa | 2.7V | 00:00:00 | 03:23:26 | 00:00:00 | |
| DO3MHA-11 | 2026-09-05 13:52:25 | 47.93971 | 12.04067 | 99° | 53km/h | 2521m | -2.4m/s | 6.5°C | 53.6% | 762.0hPa | 2.7V | 07:02:00 | 03:23:24 | 00:00:00 | |
| DO3MHA-12 | 2026-09-05 13:52:24 | 47.93973 | 12.04048 | 101° | 51km/h | 2524m | -2.3m/s | 6.5°C | 53.8% | 761.9hPa | 2.7V | 00:00:00 | 03:23:23 | 00:00:00 | |
| DO3MHA-11 | 2026-09-05 13:52:23 | 47.93976 | 12.04029 | 103° | 53km/h | 2526m | -2.4m/s | 6.5°C | 53.6% | 761.5hPa | 2.7V | 00:00:00 | 03:23:22 | 00:00:00 | |
| DO3MHA-12 | 2026-09-05 13:52:22 | 47.93979 | 12.04010 | 106° | 55km/h | 2529m | -2.5m/s | 6.5°C | 53.7% | 761.2hPa | 2.7V | 00:00:00 | 03:23:21 | 00:00:00 | |
| DO3MHA-11 | 2026-09-05 13:52:21 | 47.93982 | 12.03990 | 106° | 57km/h | 2531m | -2.3m/s | 6.4°C | 53.8% | 761.0hPa | 2.7V | 00:00:00 | 03:23:20 | 00:00:00 | |
| DO3MHA-12 | 2026-09-05 13:52:20 | 47.93986 | 12.03969 | 105° | 58km/h | 2533m | -2.3m/s | 6.4°C | 54.0% | 760.9hPa | 2.7V | 07:02:00 | 03:23:19 | 00:00:00 | |
| DO3MHA-11 | 2026-09-05 13:52:19 | 47.93990 | 12.03948 | 103° | 58km/h | 2536m | -2.2m/s | 6.3°C | 54.3% | 760.7hPa | 2.7V | 00:00:00 | 03:23:18 | 00:00:00 | |
| DO3MHA-12 | 2026-09-05 13:52:18 | 47.93992 | 12.03927 | 101° | 57km/h | 2538m | -2.4m/s | 6.3°C | 54.4% | 760.5hPa | 2.7V | 00:00:00 | 03:23:17 | 00:00:00 | |
| DO3MHA-11 | 2026-09-05 13:52:17 | 47.93995 | 12.03906 | 99° | 55km/h | 2541m | -2.4m/s | 6.3°C | 54.2% | 760.2hPa | 2.7V | 00:00:00 | 03:23:16 | 00:00:00 | |
| DO3MHA-12 | 2026-09-05 13:52:16 | 47.93997 | 12.03885 | 100° | 53km/h | 2543m | -2.4m/s | 6.3°C | 54.2% | 760.0hPa | 2.7V | 00:00:00 | 03:23:15 | 00:00:00 | |
| DO3MHA-11 | 2026-09-05 13:52:15 | 47.93999 | 12.03865 | 102° | 53km/h | 2545m | -2.2m/s | 6.3°C | 54.0% | 759.8hPa | 2.7V | 00:00:00 | 03:23:14 | 00:00:00 | |
| DO3MHA-12 | 2026-09-05 13:52:14 | 47.94003 | 12.03845 | 104° | 55km/h | 2548m | -2.3m/s | 6.3°C | 54.0% | 759.5hPa | 2.7V | 00:00:00 | 03:23:13 | 00:00:00 | |
| DO3MHA-11 | 2026-09-05 13:52:13 | 47.94006 | 12.03825 | 105° | 57km/h | 2550m | -2.4m/s | 6.3°C | 53.6% | 759.3hPa | 2.7V | 00:00:00 | 03:23:12 | 00:00:00 | |
| DO3MHA-11 | 2026-09-05 13:52:11 | 47.94013 | 12.03783 | 102° | 58km/h | 2555m | -2.3m/s | 6.1°C | 53.7% | 758.9hPa | 2.7V | 00:00:00 | 03:23:10 | 00:00:00 | |
| DO3MHA-12 | 2026-09-05 13:52:10 | 47.94016 | 12.03762 | 100° | 57km/h | 2557m | -2.3m/s | 6.1°C | 53.5% | 758.7hPa | 2.7V | 00:00:00 | 03:23:09 | 00:00:00 | |
| DO3MHA-11 | 2026-09-05 13:52:09 | 47.94018 | 12.03740 | 99° | 55km/h | 2560m | -2.4m/s | 6.2°C | 53.4% | 758.4hPa | 2.7V | 07:02:00 | 03:23:08 | 00:00:00 | |
| DO3MHA-12 | 2026-09-05 13:52:08 | 47.94020 | 12.03720 | 100° | 53km/h | 2562m | -2.2m/s | 6.2°C | 53.3% | 758.1hPa | 2.7V | 00:00:00 | 03:23:07 | 00:00:00 | |
| DO3MHA-11 | 2026-09-05 13:52:07 | 47.94023 | 12.03700 | 102° | 53km/h | 2564m | -2.3m/s | 6.1°C | 53.6% | 757.9hPa | 2.7V | 00:00:00 | 03:23:06 | 00:00:00 | |
| DO3MHA-12 | 2026-09-05 13:52:06 | 47.94025 | 12.03681 | 105° | 55km/h | 2567m | -2.3m/s | 6.0°C | 53.7% | 757.7hPa | 2.7V | 00:00:00 | 03:23:05 | 00:00:00 | |
| DO3MHA-11 | 2026-09-05 13:52:05 | 47.94029 | 12.03661 | 106° | 57km/h | 2569m | -2.4m/s | 6.1°C | 53.5% | 757.6hPa | 2.7V | 00:00:00 | 03:23:04 | 00:00:00 | |
| DO3MHA-12 | 2026-09-05 13:52:04 | 47.94033 | 12.03640 | 104° | 58km/h | 2571m | -2.2m/s | 6.1°C | 53.2% | 757.4hPa | 2.7V | 07:02:00 | 03:23:03 | 00:00:00 | |
| DO3MHA-11 | 2026-09-05 13:52:03 | 47.94036 | 12.03618 | 102° | 58km/h | 2574m | -2.4m/s | 6.0°C | 53.1% | 757.1hPa | 2.7V | 00:00:00 | 03:23:02 | 00:00:00 | |
| DO3MHA-12 | 2026-09-05 13:52:02 | 47.94039 | 12.03597 | 100° | 58km/h | 2576m | -2.3m/s | 6.0°C | 53.3% | 756.8hPa | 2.7V | 00:00:00 | 03:23:01 | 00:00:00 | |
| DO3MHA-11 | 2026-09-05 13:52:01 | 47.94041 | 12.03575 | 98° | 57km/h | 2579m | -2.3m/s | 6.0°C | 53.3% | 756.7hPa | 2.7V | 00:00:00 | 03:23:00 | 00:00:00 | |
| DO3MHA-12 | 2026-09-05 13:52:00 | 47.94043 | 12.03553 | 98° | 55km/h | 2581m | -2.5m/s | 6.0°C | 53.1% | 756.5hPa | 2.7V | 00:00:00 | 03:22:59 | 00:00:00 | |
| DO3MHA-11 | 2026-09-05 13:51:59 | 47.94045 | 12.03533 | 99° | 53km/h | 2583m | -2.3m/s | 6.0°C | 53.2% | 756.3hPa | 2.7V | 00:00:00 | 03:22:58 | 00:00:00 | |
| DO3MHA-12 | 2026-09-05 13:51:58 | 47.94047 | 12.03514 | 102° | 53km/h | 2586m | -2.3m/s | 5.9°C | 53.4% | 756.0hPa | 2.7V | 00:00:00 | 03:22:57 | 00:00:00 | |
| DO3MHA-11 | 2026-09-05 13:51:57 | 47.94050 | 12.03494 | 104° | 55km/h | 2588m | -2.3m/s | 5.9°C | 53.3% | 755.8hPa | 2.7V | 00:00:00 | 03:22:56 | 00:00:00 | |
| DO3MHA-12 | 2026-09-05 13:51:56 | 47.94053 | 12.03474 | 105° | 57km/h | 2590m | -2.2m/s | 5.9°C | 53.3% | 755.5hPa | 2.7V | 00:00:00 | 03:22:55 | 00:00:00 | |
| DO3MHA-11 | 2026-09-05 13:51:55 | 47.94057 | 12.03454 | 104° | 58km/h | 2593m | -2.4m/s | 5.9°C | 53.5% | 755.4hPa | 2.7V | 00:00:00 | 03:22:54 | 00:00:00 | |
| DO3MHA-12 | 2026-09-05 13:51:54 | 47.94060 | 12.03432 | 102° | 58km/h | 2595m | -2.2m/s | 5.8°C | 53.5% | 755.1hPa | 2.7V | 00:00:00 | 03:22:53 | 00:00:00 | |
| DO3MHA-11 | 2026-09-05 13:51:53 | 47.94062 | 12.03411 | 100° | 57km/h | 2598m | -2.3m/s | 5.8°C | 53.3% | 754.9hPa | 2.7V | 07:03:00 | 03:22:52 | 00:00:00 | |
| DO3MHA-12 | 2026-09-05 13:51:52 | 47.94064 | 12.03390 | 98° | 55km/h | 2600m | -2.2m/s | 5.8°C | 53.4% | 754.7hPa | 2.7V | 00:00:00 | 03:22:51 | 00:00:00 | |
| DO3MHA-11 | 2026-09-05 13:51:51 | 47.94066 | 12.03369 | 98° | 55km/h | 2602m | -2.4m/s | 5.8°C | 53.4% | 754.4hPa | 2.7V | 00:00:00 | 03:22:50 | 00:00:00 | |
| DO3MHA-12 | 2026-09-05 13:51:50 | 47.94068 | 12.03349 | 100° | 55km/h | 2605m | -2.4m/s | 5.8°C | 53.5% | 754.2hPa | 2.7V | 00:00:00 | 03:22:49 | 00:00:00 | |
| DO3MHA-11 | 2026-09-05 13:51:49 | 47.94071 | 12.03329 | 101° | 55km/h | 2607m | -2.4m/s | 5.8°C | 53.5% | 754.1hPa | 2.7V | 00:00:00 | 03:22:48 | 00:00:00 | |
| DO3MHA-12 | 2026-09-05 13:51:48 | 47.94073 | 12.03308 | 102° | 58km/h | 2609m | -2.2m/s | 5.7°C | 53.7% | 753.8hPa | 2.7V | 07:03:00 | 03:22:47 | 00:00:00 | |
| DO3MHA-11 | 2026-09-05 13:51:47 | 47.94076 | 12.03287 | 101° | 58km/h | 2612m | -2.2m/s | 5.7°C | 53.7% | 753.6hPa | 2.7V | 00:00:00 | 03:22:46 | 00:00:00 | |
| DO3MHA-12 | 2026-09-05 13:51:46 | 47.94079 | 12.03265 | 99° | 58km/h | 2614m | -2.3m/s | 5.7°C | 53.8% | 753.3hPa | 2.7V | 00:00:00 | 03:22:45 | 00:00:00 | |
| DO3MHA-11 | 2026-09-05 13:51:45 | 47.94081 | 12.03243 | 98° | 57km/h | 2616m | -2.5m/s | 5.6°C | 53.9% | 753.3hPa | 2.7V | 00:00:00 | 03:22:44 | 00:00:00 | |
| OE5DXL-15 | 2026-09-05 13:51:44 | 47.94082 | 12.03221 | 97° | 57km/h | 2619m | -2.5m/s | 5.6°C | 53.9% | 752.9hPa | 2.7V | 00:00:00 | 00:00:00 | 00:00:00 | |
| DO3MHA-11 | 2026-09-05 13:51:43 | 47.94084 | 12.03201 | 97° | 53km/h | 2621m | -2.3m/s | 5.6°C | 53.9% | 752.7hPa | 2.7V | 00:00:00 | 03:22:42 | 00:00:00 | |
| DO3MHA-12 | 2026-09-05 13:51:42 | 47.94086 | 12.03181 | 99° | 53km/h | 2624m | -2.3m/s | 5.6°C | 54.1% | 752.6hPa | 2.7V | 00:00:00 | 03:22:41 | 00:00:00 | |
| DO3MHA-11 | 2026-09-05 13:51:41 | 47.94088 | 12.03162 | 101° | 53km/h | 2626m | -2.4m/s | 5.6°C | 53.8% | 752.4hPa | 2.7V | 00:00:00 | 03:22:40 | 00:00:00 | |
| DO3MHA-12 | 2026-09-05 13:51:40 | 47.94090 | 12.03142 | 101° | 55km/h | 2628m | -2.2m/s | 5.6°C | 53.9% | 752.1hPa | 2.7V | 00:00:00 | 03:22:39 | 00:00:00 | |
| DO3MHA-11 | 2026-09-05 13:51:39 | 47.94093 | 12.03122 | 101° | 58km/h | 2631m | -2.3m/s | 5.5°C | 54.0% | 751.9hPa | 2.7V | 00:00:00 | 03:22:38 | 00:00:00 | |
| DO3MHA-12 | 2026-09-05 13:51:38 | 47.94095 | 12.03100 | 99° | 58km/h | 2633m | -2.2m/s | 5.5°C | 54.2% | 751.6hPa | 2.7V | 00:00:00 | 03:22:37 | 00:00:00 | |
| DO3MHA-11 | 2026-09-05 13:51:37 | 47.94098 | 12.03078 | 98° | 58km/h | 2635m | -2.2m/s | 5.4°C | 54.1% | 751.3hPa | 2.7V | 07:03:00 | 03:22:36 | 00:00:00 | |
| DO3MHA-12 | 2026-09-05 13:51:36 | 47.94099 | 12.03056 | 96° | 57km/h | 2637m | -2.4m/s | 5.5°C | 54.1% | 751.3hPa | 2.7V | 00:00:00 | 03:22:35 | 00:00:00 | |
| DO3MHA-11 | 2026-09-05 13:51:35 | 47.94101 | 12.03035 | 95° | 55km/h | 2640m | -2.5m/s | 5.4°C | 54.1% | 751.1hPa | 2.7V | 00:00:00 | 03:22:34 | 00:00:00 | |
| DO3MHA-12 | 2026-09-05 13:51:34 | 47.94102 | 12.03015 | 97° | 55km/h | 2642m | -2.3m/s | 5.4°C | 54.0% | 750.8hPa | 2.7V | 00:00:00 | 03:22:33 | 00:00:00 | |
| DO3MHA-11 | 2026-09-05 13:51:33 | 47.94103 | 12.02995 | 98° | 55km/h | 2645m | -2.2m/s | 5.4°C | 53.8% | 750.5hPa | 2.7V | 00:00:00 | 03:22:32 | 00:00:00 | |
| DO3MHA-12 | 2026-09-05 13:51:32 | 47.94106 | 12.02974 | 100° | 57km/h | 2647m | -2.2m/s | 5.5°C | 53.6% | 750.2hPa | 2.7V | 07:03:00 | 03:22:31 | 00:00:00 | |
| DO3MHA-11 | 2026-09-05 13:51:31 | 47.94108 | 12.02953 | 100° | 58km/h | 2649m | -2.2m/s | 5.4°C | 53.9% | 750.2hPa | 2.7V | 00:00:00 | 03:22:30 | 00:00:00 | |
| DO3MHA-12 | 2026-09-05 13:51:30 | 47.94110 | 12.02931 | 98° | 60km/h | 2651m | -2.3m/s | 5.3°C | 54.0% | 750.0hPa | 2.7V | 00:00:00 | 03:22:29 | 00:00:00 | |
| DO3MHA-11 | 2026-09-05 13:51:29 | 47.94112 | 12.02908 | 97° | 58km/h | 2654m | -2.4m/s | 5.3°C | 54.0% | 749.6hPa | 2.7V | 00:00:00 | 03:22:28 | 00:00:00 | |
| DO3MHA-12 | 2026-09-05 13:51:28 | 47.94113 | 12.02886 | 94° | 57km/h | 2656m | -2.4m/s | 5.3°C | 53.9% | 749.4hPa | 2.7V | 00:00:00 | 03:22:27 | 00:00:00 | |
| DO3MHA-11 | 2026-09-05 13:51:27 | 47.94114 | 12.02865 | 94° | 55km/h | 2659m | -2.4m/s | 5.3°C | 53.8% | 749.3hPa | 2.7V | 00:00:00 | 03:22:26 | 00:00:00 | |
| DO3MHA-12 | 2026-09-05 13:51:26 | 47.94115 | 12.02844 | 95° | 53km/h | 2661m | -2.3m/s | 5.3°C | 53.8% | 749.0hPa | 2.7V | 00:00:00 | 03:22:25 | 00:00:00 | |
| DO3MHA-11 | 2026-09-05 13:51:25 | 47.94117 | 12.02824 | 97° | 53km/h | 2663m | -2.2m/s | 5.3°C | 53.7% | 748.8hPa | 2.7V | 00:00:00 | 03:22:24 | 00:00:00 | |
| DO3MHA-12 | 2026-09-05 13:51:24 | 47.94118 | 12.02804 | 100° | 55km/h | 2666m | -2.2m/s | 5.3°C | 53.8% | 748.5hPa | 2.7V | 00:00:00 | 03:22:23 | 00:00:00 | |
| DO3MHA-11 | 2026-09-05 13:51:23 | 47.94121 | 12.02784 | 101° | 57km/h | 2668m | -2.2m/s | 5.2°C | 54.1% | 748.5hPa | 2.7V | 00:00:00 | 03:22:22 | 00:00:00 | |
| DO3MHA-12 | 2026-09-05 13:51:22 | 47.94123 | 12.02763 | 100° | 58km/h | 2670m | -2.2m/s | 5.1°C | 54.2% | 748.3hPa | 2.7V | 00:00:00 | 03:22:21 | 00:00:00 | |
| DO3MHA-11 | 2026-09-05 13:51:21 | 47.94125 | 12.02741 | 98° | 58km/h | 2672m | -2.2m/s | 5.2°C | 54.0% | 748.0hPa | 2.7V | 07:03:00 | 03:22:20 | 00:00:00 | |
| DO3MHA-12 | 2026-09-05 13:51:20 | 47.94127 | 12.02719 | 96° | 58km/h | 2675m | -2.2m/s | 5.1°C | 54.1% | 747.8hPa | 2.7V | 00:00:00 | 03:22:19 | 00:00:00 | |
| DO3MHA-11 | 2026-09-05 13:51:19 | 47.94129 | 12.02697 | 95° | 57km/h | 2677m | -2.3m/s | 5.2°C | 54.1% | 747.5hPa | 2.7V | 00:00:00 | 03:22:18 | 00:00:00 | |
| DO3MHA-12 | 2026-09-05 13:51:18 | 47.94130 | 12.02675 | 95° | 55km/h | 2679m | -2.3m/s | 5.2°C | 54.1% | 747.3hPa | 2.7V | 00:00:00 | 03:22:17 | 00:00:00 | |
| DO3MHA-12 | 2026-09-05 13:51:16 | 47.94133 | 12.02634 | 99° | 57km/h | 2684m | -2.1m/s | 5.1°C | 54.4% | 746.9hPa | 2.7V | 07:03:00 | 03:22:15 | 00:00:00 | |
| DO3MHA-11 | 2026-09-05 13:51:15 | 47.94135 | 12.02613 | 101° | 58km/h | 2686m | -2.3m/s | 5.1°C | 54.5% | 746.8hPa | 2.7V | 00:00:00 | 03:22:14 | 00:00:00 | |
| DO3MHA-12 | 2026-09-05 13:51:14 | 47.94138 | 12.02592 | 101° | 60km/h | 2688m | -2.1m/s | 5.1°C | 54.2% | 746.5hPa | 2.7V | 00:00:00 | 03:22:13 | 00:00:00 | |
| DO3MHA-11 | 2026-09-05 13:51:13 | 47.94140 | 12.02569 | 99° | 62km/h | 2690m | -2.2m/s | 5.1°C | 54.4% | 746.4hPa | 2.7V | 00:00:00 | 03:22:12 | 00:00:00 | |
| DO3MHA-12 | 2026-09-05 13:51:12 | 47.94142 | 12.02546 | 97° | 60km/h | 2693m | -2.2m/s | 5.0°C | 54.8% | 746.2hPa | 2.7V | 00:00:00 | 03:22:11 | 00:00:00 | |
| DO3MHA-11 | 2026-09-05 13:51:11 | 47.94144 | 12.02523 | 95° | 60km/h | 2695m | -2.1m/s | 5.1°C | 54.6% | 746.0hPa | 2.7V | 00:00:00 | 03:22:10 | 00:00:00 | |
| DO3MHA-12 | 2026-09-05 13:51:10 | 47.94145 | 12.02501 | 94° | 58km/h | 2697m | -2.2m/s | 5.1°C | 54.8% | 745.8hPa | 2.7V | 00:00:00 | 03:22:09 | 00:00:00 | |
| DO3MHA-11 | 2026-09-05 13:51:09 | 47.94146 | 12.02479 | 94° | 57km/h | 2699m | -2.1m/s | 5.0°C | 54.8% | 745.6hPa | 2.7V | 00:00:00 | 03:22:08 | 00:00:00 | |
| DO3MHA-12 | 2026-09-05 13:51:08 | 47.94147 | 12.02458 | 95° | 57km/h | 2701m | -2.2m/s | 5.1°C | 54.5% | 745.4hPa | 2.7V | 00:00:00 | 03:22:07 | 00:00:00 | |
| DO3MHA-11 | 2026-09-05 13:51:07 | 47.94148 | 12.02436 | 97° | 58km/h | 2704m | -2.1m/s | 5.1°C | 54.6% | 745.1hPa | 2.7V | 00:00:00 | 03:22:06 | 00:00:00 | |
| DO3MHA-12 | 2026-09-05 13:51:06 | 47.94150 | 12.02414 | 97° | 60km/h | 2706m | -2.0m/s | 5.0°C | 54.8% | 745.1hPa | 2.7V | 00:00:00 | 03:22:05 | 00:00:00 | |
| DO3MHA-11 | 2026-09-05 13:51:05 | 47.94151 | 12.02392 | 97° | 62km/h | 2708m | -2.1m/s | 5.0°C | 54.8% | 744.8hPa | 2.7V | 07:03:00 | 03:22:04 | 00:00:00 | |
| DO3MHA-12 | 2026-09-05 13:51:04 | 47.94153 | 12.02369 | 96° | 62km/h | 2710m | -2.3m/s | 5.0°C | 54.9% | 744.5hPa | 2.7V | 00:00:00 | 03:22:03 | 00:00:00 | |
| DO3MHA-12 | 2026-09-05 13:51:02 | 47.94155 | 12.02323 | 92° | 60km/h | 2715m | -2.2m/s | 5.0°C | 55.0% | 744.1hPa | 2.7V | 00:00:00 | 03:22:01 | 00:00:00 | |
| DO3MHA-11 | 2026-09-05 13:51:01 | 47.94155 | 12.02300 | 92° | 58km/h | 2717m | -2.3m/s | 5.0°C | 55.1% | 743.9hPa | 2.7V | 00:00:00 | 03:22:00 | 00:00:00 | |
| DO3MHA-12 | 2026-09-05 13:51:00 | 47.94156 | 12.02278 | 95° | 58km/h | 2719m | -2.1m/s | 5.0°C | 55.1% | 743.8hPa | 2.7V | 07:03:00 | 03:21:59 | 00:00:00 | |
| DO3MHA-11 | 2026-09-05 13:50:59 | 47.94157 | 12.02256 | 98° | 60km/h | 2721m | -2.0m/s | 4.9°C | 55.1% | 743.6hPa | 2.7V | 00:00:00 | 03:21:58 | 00:00:00 | |
| DO3MHA-12 | 2026-09-05 13:50:58 | 47.94159 | 12.02234 | 99° | 62km/h | 2723m | -2.1m/s | 4.9°C | 55.4% | 743.3hPa | 2.7V | 00:00:00 | 03:21:57 | 00:00:00 | |
| DO3MHA-11 | 2026-09-05 13:50:57 | 47.94161 | 12.02211 | 98° | 64km/h | 2726m | -2.2m/s | 4.9°C | 55.2% | 743.2hPa | 2.7V | 00:00:00 | 03:21:56 | 00:00:00 | |
| DO3MHA-12 | 2026-09-05 13:50:56 | 47.94163 | 12.02187 | 97° | 64km/h | 2728m | -2.4m/s | 4.8°C | 55.5% | 743.0hPa | 2.7V | 00:00:00 | 03:21:55 | 00:00:00 | |
| DO3MHA-11 | 2026-09-05 13:50:55 | 47.94165 | 12.02163 | 95° | 64km/h | 2730m | -2.4m/s | 4.9°C | 55.3% | 742.8hPa | 2.7V | 00:00:00 | 03:21:54 | 00:00:00 | |
| DO3MHA-12 | 2026-09-05 13:50:54 | 47.94166 | 12.02138 | 92° | 64km/h | 2733m | -2.3m/s | 4.8°C | 55.3% | 742.5hPa | 2.7V | 00:00:00 | 03:21:53 | 00:00:00 | |
| DO3MHA-11 | 2026-09-05 13:50:53 | 47.94166 | 12.02115 | 91° | 62km/h | 2735m | -2.3m/s | 4.8°C | 55.3% | 742.3hPa | 2.7V | 00:00:00 | 03:21:52 | 00:00:00 | |
| DO3MHA-12 | 2026-09-05 13:50:52 | 47.94166 | 12.02091 | 90° | 60km/h | 2737m | -2.3m/s | 4.8°C | 55.3% | 742.0hPa | 2.7V | 00:00:00 | 03:21:51 | 00:00:00 | |
| DO3MHA-11 | 2026-09-05 13:50:51 | 47.94166 | 12.02069 | 91° | 60km/h | 2740m | -2.2m/s | 4.8°C | 55.3% | 741.9hPa | 2.7V | 00:00:00 | 03:21:50 | 00:00:00 | |
| DO3MHA-12 | 2026-09-05 13:50:50 | 47.94166 | 12.02046 | 93° | 60km/h | 2742m | -2.1m/s | 4.8°C | 55.5% | 741.6hPa | 2.7V | 00:00:00 | 03:21:49 | 00:00:00 | |
| DO3MHA-11 | 2026-09-05 13:50:49 | 47.94167 | 12.02024 | 95° | 62km/h | 2744m | -2.2m/s | 4.8°C | 55.4% | 741.5hPa | 2.7V | 07:04:00 | 03:21:48 | 00:00:00 | |
| DO3MHA-12 | 2026-09-05 13:50:48 | 47.94169 | 12.02001 | 96° | 64km/h | 2746m | -2.2m/s | 4.8°C | 55.5% | 741.4hPa | 2.7V | 00:00:00 | 03:21:47 | 00:00:00 | |
| DO3MHA-11 | 2026-09-05 13:50:46 | 47.94171 | 12.01953 | 94° | 66km/h | 2751m | -2.2m/s | 4.9°C | 56.0% | 740.9hPa | 2.7V | 00:00:00 | 03:21:45 | 00:00:00 | |
| DO3MHA-11 | 2026-09-05 13:50:44 | 47.94173 | 12.01904 | 92° | 62km/h | 2755m | -2.3m/s | 4.9°C | 56.2% | 740.5hPa | 2.7V | 00:00:00 | 03:21:43 | 00:00:00 | |
| DO3MHA-12 | 2026-09-05 13:50:42 | 47.94175 | 12.01856 | 95° | 62km/h | 2760m | -2.0m/s | 4.9°C | 56.5% | 740.1hPa | 2.7V | 00:00:00 | 03:21:41 | 00:00:00 | |
| DO3MHA-12 | 2026-09-05 13:50:40 | 47.94179 | 12.01810 | 99° | 66km/h | 2764m | -2.1m/s | 5.0°C | 56.5% | 739.6hPa | 2.7V | 00:00:00 | 03:21:39 | 00:00:00 | |
| DO3MHA-12 | 2026-09-05 13:50:38 | 47.94183 | 12.01760 | 97° | 68km/h | 2768m | -2.2m/s | 5.0°C | 56.6% | 739.2hPa | 2.7V | 00:00:00 | 03:21:37 | 00:00:00 | |
| DO3MHA-11 | 2026-09-05 13:50:36 | 47.94186 | 12.01710 | 96° | 66km/h | 2773m | -2.1m/s | 4.9°C | 57.0% | 739.0hPa | 2.7V | 00:00:00 | 03:21:35 | 00:00:00 | |
| DO3MHA-12 | 2026-09-05 13:50:34 | 47.94190 | 12.01662 | 97° | 62km/h | 2777m | -1.9m/s | 4.9°C | 57.0% | 738.6hPa | 2.7V | 00:00:00 | 03:21:33 | 00:00:00 | |
| DO3MHA-11 | 2026-09-05 13:50:32 | 47.94194 | 12.01616 | 100° | 64km/h | 2781m | -2.3m/s | 5.0°C | 56.8% | 738.1hPa | 2.7V | 07:04:00 | 03:21:31 | 00:00:00 | |
| DO3MHA-11 | 2026-09-05 13:50:30 | 47.94199 | 12.01568 | 100° | 68km/h | 2785m | -2.1m/s | 5.0°C | 57.3% | 737.8hPa | 2.7V | 00:00:00 | 03:21:29 | 00:00:00 | |
| DO3MHA-12 | 2026-09-05 13:50:28 | 47.94204 | 12.01518 | 97° | 68km/h | 2790m | -1.9m/s | 5.0°C | 58.2% | 737.4hPa | 2.7V | 07:04:00 | 03:21:27 | 00:00:00 | |
| DO3MHA-12 | 2026-09-05 13:50:26 | 47.94208 | 12.01467 | 96° | 66km/h | 2793m | -1.9m/s | 4.9°C | 58.6% | 737.1hPa | 2.7V | 00:00:00 | 03:21:25 | 00:00:00 | |
| DG1MFX-10 | 2026-09-05 13:50:25 | 47.94208 | 12.01467 | 96° | 66km/h | 2793m | -2.0m/s | 5.0°C | 58.0% | 737.1hPa | 2.7V | 07:05:00 | 00:00:00 | 00:00:00 | |
| DO3MHA-12 | 2026-09-05 13:50:24 | 47.94211 | 12.01418 | 98° | 66km/h | 2797m | -1.8m/s | 5.0°C | 58.8% | 736.8hPa | 2.7V | 00:00:00 | 03:21:23 | 00:00:00 | |
| DO3MHA-12 | 2026-09-05 13:50:22 | 47.94216 | 12.01368 | 99° | 68km/h | 2801m | -2.1m/s | 5.1°C | 58.6% | 736.3hPa | 2.7V | 00:00:00 | 03:21:21 | 00:00:00 | |
| DO3MHA-12 | 2026-09-05 13:50:20 | 47.94221 | 12.01317 | 97° | 68km/h | 2806m | -2.0m/s | 5.1°C | 58.9% | 735.9hPa | 2.7V | 00:00:00 | 03:21:19 | 00:00:00 | |
| DO3MHA-12 | 2026-09-05 13:50:18 | 47.94224 | 12.01266 | 96° | 64km/h | 2810m | -1.8m/s | 5.0°C | 58.9% | 735.7hPa | 2.7V | 00:00:00 | 03:21:17 | 00:00:00 | |
| DO3MHA-12 | 2026-09-05 13:50:16 | 47.94228 | 12.01219 | 99° | 64km/h | 2813m | -1.9m/s | 5.1°C | 59.1% | 735.3hPa | 2.7V | 00:00:00 | 03:21:15 | 00:00:00 | |
| DO3MHA-12 | 2026-09-05 13:50:14 | 47.94234 | 12.01170 | 100° | 68km/h | 2817m | -2.1m/s | 5.1°C | 59.0% | 735.0hPa | 2.7V | 00:00:00 | 03:21:13 | 00:00:00 | |
| DO3MHA-11 | 2026-09-05 13:50:12 | 47.94239 | 12.01119 | 98° | 69km/h | 2822m | -1.9m/s | 5.1°C | 58.8% | 734.5hPa | 2.7V | 00:00:00 | 03:21:11 | 00:00:00 | |
| DO3MHA-12 | 2026-09-05 13:50:10 | 47.94243 | 12.01067 | 96° | 66km/h | 2825m | -1.8m/s | 5.2°C | 58.0% | 734.2hPa | 2.7V | 00:00:00 | 03:21:09 | 00:00:00 | |
| DO3MHA-11 | 2026-09-05 13:50:08 | 47.94247 | 12.01018 | 99° | 66km/h | 2829m | -2.0m/s | 5.4°C | 56.8% | 733.7hPa | 2.7V | 00:00:00 | 03:21:07 | 00:00:00 | |
| DO3MHA-12 | 2026-09-05 13:50:06 | 47.94253 | 12.00969 | 101° | 69km/h | 2833m | -2.0m/s | 5.5°C | 54.8% | 733.5hPa | 2.7V | 00:00:00 | 03:21:05 | 00:00:00 | |
| DO3MHA-12 | 2026-09-05 13:50:04 | 47.94258 | 12.00918 | 99° | 69km/h | 2837m | -2.1m/s | 5.5°C | 55.0% | 733.1hPa | 2.7V | 00:00:00 | 03:21:03 | 00:00:00 | |
| DO3MHA-12 | 2026-09-05 13:50:02 | 47.94262 | 12.00865 | 96° | 68km/h | 2841m | -1.8m/s | 5.4°C | 55.3% | 732.8hPa | 2.7V | 00:00:00 | 03:21:01 | 00:00:00 | |
| DO3MHA-11 | 2026-09-05 13:50:00 | 47.94266 | 12.00816 | 98° | 64km/h | 2845m | -1.9m/s | 5.5°C | 54.2% | 732.4hPa | 2.7V | 07:04:00 | 03:20:59 | 00:00:00 | |
| DO3MHA-12 | 2026-09-05 13:49:58 | 47.94271 | 12.00768 | 101° | 68km/h | 2849m | -1.8m/s | 5.5°C | 54.4% | 732.0hPa | 2.7V | 00:00:00 | 03:20:57 | 00:00:00 | |
| DO3MHA-11 | 2026-09-05 13:49:56 | 47.94277 | 12.00716 | 99° | 71km/h | 2853m | -1.9m/s | 5.4°C | 54.5% | 731.7hPa | 2.7V | 00:00:00 | 03:20:55 | 00:00:00 | |
| DO3MHA-12 | 2026-09-05 13:49:54 | 47.94281 | 12.00664 | 96° | 68km/h | 2857m | -1.9m/s | 5.4°C | 54.7% | 731.5hPa | 2.7V | 00:00:00 | 03:20:53 | 00:00:00 | |
| DO3MHA-11 | 2026-09-05 13:49:52 | 47.94284 | 12.00614 | 97° | 64km/h | 2861m | -2.0m/s | 5.5°C | 54.5% | 730.9hPa | 2.7V | 00:00:00 | 03:20:51 | 00:00:00 | |
| DO3MHA-12 | 2026-09-05 13:49:49 | 47.94292 | 12.00542 | 100° | 68km/h | 2867m | -1.8m/s | 5.4°C | 54.8% | 730.5hPa | 2.7V | 00:00:00 | 03:20:48 | 00:00:00 | |
| OE5DXL-15 | 2026-09-05 13:49:44 | 47.94303 | 12.00417 | 98° | 66km/h | 2876m | -2.0m/s | 5.3°C | 55.3% | 729.6hPa | 2.7V | 07:05:00 | 00:00:00 | 00:00:00 | |
| DL6DJ-15 | 2026-09-05 13:49:42 | 47.94316 | 12.00293 | 96° | 68km/h | 2886m | -2.1m/s | 5.2°C | 55.1% | 728.7hPa | 2.7V | 00:00:00 | 00:00:00 | 00:00:00 | |
| DO3MHA-11 | 2026-09-05 13:49:39 | 47.94316 | 12.00293 | 97° | 66km/h | 2886m | -2.0m/s | 5.1°C | 55.6% | 728.6hPa | 2.7V | 00:00:00 | 03:20:38 | 00:00:00 | |
| DO3MHA-12 | 2026-09-05 13:49:34 | 47.94326 | 12.00172 | 101° | 68km/h | 2897m | -2.0m/s | 5.2°C | 55.3% | 727.8hPa | 2.7V | 00:00:00 | 03:20:33 | 00:00:00 | |
| DO3MHA-12 | 2026-09-05 13:49:29 | 47.94337 | 12.00045 | 95° | 64km/h | 2907m | -2.2m/s | 5.1°C | 55.6% | 727.1hPa | 2.7V | 00:00:00 | 03:20:28 | 00:00:00 | |
| DO3MHA-11 | 2026-09-05 13:49:27 | 47.94340 | 11.99997 | 98° | 64km/h | 2911m | -2.1m/s | 5.1°C | 55.3% | 726.4hPa | 2.7V | 00:00:00 | 03:20:26 | 00:00:00 | |
| DO3MHA-12 | 2026-09-05 13:49:25 | 47.94346 | 11.99949 | 101° | 68km/h | 2916m | -2.0m/s | 5.0°C | 55.6% | 726.1hPa | 2.7V | 00:00:00 | 03:20:24 | 00:00:00 | |
| DO3MHA-12 | 2026-09-05 13:49:23 | 47.94352 | 11.99899 | 99° | 69km/h | 2920m | -2.0m/s | 4.9°C | 56.0% | 725.7hPa | 2.7V | 00:00:00 | 03:20:22 | 00:00:00 | |
| DO3MHA-11 | 2026-09-05 13:49:21 | 47.94356 | 11.99847 | 96° | 66km/h | 2924m | -2.0m/s | 4.9°C | 56.3% | 725.5hPa | 2.7V | 00:00:00 | 03:20:20 | 00:00:00 | |
| DO3MHA-11 | 2026-09-05 13:49:19 | 47.94360 | 11.99798 | 98° | 64km/h | 2928m | -2.1m/s | 5.0°C | 56.1% | 725.1hPa | 2.7V | 00:00:00 | 03:20:18 | 00:00:00 | |
| DO3MHA-12 | 2026-09-05 13:49:17 | 47.94365 | 11.99749 | 101° | 68km/h | 2932m | -2.2m/s | 4.9°C | 56.2% | 724.7hPa | 2.7V | 00:00:00 | 03:20:16 | 00:00:00 | |
| DO3MHA-11 | 2026-09-05 13:49:15 | 47.94371 | 11.99698 | 99° | 69km/h | 2936m | -2.1m/s | 4.8°C | 56.7% | 724.3hPa | 2.7V | 07:05:00 | 03:20:14 | 00:00:00 | |
| OE5DXL-15 | 2026-09-05 13:49:14 | 47.94373 | 11.99672 | 97° | 66km/h | 2939m | -2.2m/s | 4.7°C | 57.3% | 724.1hPa | 2.7V | 00:00:00 | 00:00:00 | 00:00:00 | |
| DO3MHA-11 | 2026-09-05 13:49:13 | 47.94375 | 11.99647 | 96° | 66km/h | 2941m | -2.0m/s | 4.7°C | 57.3% | 723.8hPa | 2.7V | 00:00:00 | 03:20:12 | 00:00:00 | |
| DO3MHA-11 | 2026-09-05 13:49:11 | 47.94379 | 11.99597 | 98° | 64km/h | 2945m | -2.0m/s | 4.8°C | 57.1% | 723.5hPa | 2.7V | 00:00:00 | 03:20:10 | 00:00:00 | |
| DO3MHA-11 | 2026-09-05 13:49:09 | 47.94384 | 11.99550 | 102° | 66km/h | 2949m | -2.3m/s | 4.8°C | 57.3% | 723.2hPa | 2.7V | 00:00:00 | 03:20:08 | 00:00:00 | |
| DO3MHA-11 | 2026-09-05 13:49:07 | 47.94390 | 11.99500 | 100° | 69km/h | 2954m | -2.1m/s | 4.7°C | 57.6% | 722.8hPa | 2.7V | 00:00:00 | 03:20:06 | 00:00:00 | |
| DO3MHA-11 | 2026-09-05 13:49:05 | 47.94395 | 11.99449 | 97° | 66km/h | 2958m | -2.0m/s | 4.6°C | 58.3% | 722.5hPa | 2.7V | 00:00:00 | 03:20:04 | 00:00:00 | |
| DG1MFX-10 | 2026-09-05 13:49:03 | 47.94397 | 11.99425 | 97° | 64km/h | 2960m | -2.1m/s | 4.6°C | 57.6% | 722.3hPa | 2.7V | 07:06:00 | 00:00:00 | 00:00:00 | |
| DO3MHA-12 | 2026-09-05 13:49:01 | 47.94405 | 11.99354 | 102° | 66km/h | 2966m | -2.0m/s | 4.6°C | 58.5% | 721.6hPa | 2.7V | 00:00:00 | 03:20:00 | 00:00:00 | |
| DO3MHA-12 | 2026-09-05 13:48:59 | 47.94411 | 11.99305 | 101° | 69km/h | 2971m | -2.3m/s | 4.5°C | 59.0% | 721.2hPa | 2.7V | 00:00:00 | 03:19:58 | 00:00:00 | |
| DO3MHA-12 | 2026-09-05 13:48:57 | 47.94416 | 11.99254 | 98° | 68km/h | 2975m | -2.1m/s | 4.5°C | 59.6% | 720.9hPa | 2.7V | 00:00:00 | 03:19:56 | 00:00:00 | |
| DO3MHA-12 | 2026-09-05 13:48:55 | 47.94421 | 11.99204 | 99° | 64km/h | 2979m | -2.3m/s | 4.5°C | 59.8% | 720.5hPa | 2.7V | 07:05:00 | 03:19:54 | 00:00:00 | |
| DO3MHA-12 | 2026-09-05 13:48:53 | 47.94426 | 11.99156 | 102° | 68km/h | 2984m | -2.0m/s | 4.4°C | 60.3% | 720.1hPa | 2.7V | 00:00:00 | 03:19:52 | 00:00:00 | |
| DO3MHA-12 | 2026-09-05 13:48:50 | 47.94437 | 11.99080 | 100° | 68km/h | 2991m | -2.1m/s | 4.3°C | 60.3% | 719.5hPa | 2.7V | 00:00:00 | 03:19:49 | 00:00:00 | |
| DO3MHA-11 | 2026-09-05 13:48:45 | 47.94448 | 11.98956 | 102° | 68km/h | 3001m | -2.3m/s | 4.3°C | 61.7% | 718.5hPa | 2.7V | 00:00:00 | 03:19:44 | 00:00:00 | |
| OE5DXL-15 | 2026-09-05 13:48:44 | 47.94452 | 11.98932 | 103° | 68km/h | 3004m | -2.3m/s | 4.3°C | 61.3% | 718.3hPa | 2.7V | 00:00:00 | 00:00:00 | 00:00:00 | |
| DG1MFX-10 | 2026-09-05 13:48:42 | 47.94456 | 11.98907 | 103° | 69km/h | 3006m | -2.3m/s | 4.3°C | 60.7% | 718.2hPa | 2.7V | 07:06:00 | 00:00:00 | 00:00:00 | |
| DO3MHA-12 | 2026-09-05 13:48:40 | 47.94465 | 11.98829 | 98° | 66km/h | 3013m | -2.1m/s | 4.1°C | 62.3% | 717.5hPa | 2.7V | 00:00:00 | 03:19:39 | 00:00:00 | |
| DO3MHA-12 | 2026-09-05 13:48:35 | 47.94480 | 11.98706 | 103° | 69km/h | 3024m | -2.3m/s | 4.0°C | 63.2% | 716.6hPa | 2.7V | 00:00:00 | 03:19:34 | 00:00:00 | |
| DO3MHA-12 | 2026-09-05 13:48:30 | 47.94494 | 11.98578 | 99° | 66km/h | 3035m | -2.2m/s | 3.9°C | 64.1% | 715.7hPa | 2.7V | 00:00:00 | 03:19:29 | 00:00:00 | |
| DO3MHA-12 | 2026-09-05 13:48:25 | 47.94510 | 11.98455 | 100° | 69km/h | 3046m | -2.2m/s | 3.8°C | 64.9% | 714.6hPa | 2.7V | 00:00:00 | 03:19:24 | 00:00:00 | |
| DO3MHA-12 | 2026-09-05 13:48:23 | 47.94515 | 11.98404 | 98° | 66km/h | 3051m | -2.3m/s | 3.8°C | 66.1% | 714.1hPa | 2.7V | 07:06:00 | 03:19:22 | 00:00:00 | |
| DG1MFX-10 | 2026-09-05 13:48:22 | 47.94515 | 11.98404 | 98° | 66km/h | 3051m | -2.3m/s | 3.8°C | 65.4% | 714.2hPa | 2.7V | 07:06:00 | 00:00:00 | 00:00:00 | |
| DO3MHA-11 | 2026-09-05 13:48:21 | 47.94519 | 11.98356 | 100° | 62km/h | 3056m | -2.3m/s | 3.8°C | 66.6% | 713.8hPa | 2.7V | 00:00:00 | 03:19:20 | 00:00:00 | |
| DO3MHA-11 | 2026-09-05 13:48:19 | 47.94526 | 11.98309 | 104° | 66km/h | 3060m | -2.4m/s | 3.7°C | 67.1% | 713.3hPa | 2.7V | 00:00:00 | 03:19:18 | 00:00:00 | |
| DO3MHA-11 | 2026-09-05 13:48:17 | 47.94533 | 11.98260 | 102° | 66km/h | 3065m | -2.3m/s | 3.7°C | 68.3% | 712.9hPa | 2.7V | 00:00:00 | 03:19:16 | 00:00:00 | |
| DO3MHA-11 | 2026-09-05 13:48:15 | 47.94539 | 11.98211 | 99° | 64km/h | 3070m | -2.4m/s | 3.6°C | 68.7% | 712.4hPa | 2.7V | 00:00:00 | 03:19:14 | 00:00:00 | |
| OE5DXL-15 | 2026-09-05 13:48:14 | 47.94542 | 11.98188 | 100° | 66km/h | 3072m | -2.3m/s | 3.6°C | 70.0% | 712.3hPa | 2.7V | 00:00:00 | 00:00:00 | 00:00:00 | |
| DO3MHA-12 | 2026-09-05 13:48:12 | 47.94548 | 11.98141 | 104° | 66km/h | 3077m | -2.2m/s | 3.6°C | 70.3% | 711.9hPa | 2.7V | 00:00:00 | 03:19:11 | 00:00:00 | |
| DL6DJ-15 | 2026-09-05 13:48:09 | 47.94559 | 11.98069 | 101° | 68km/h | 3084m | -2.4m/s | 3.5°C | 70.7% | 711.2hPa | 2.7V | 00:00:00 | 00:00:00 | 00:00:00 | |
| DO3MHA-12 | 2026-09-05 13:48:07 | 47.94565 | 11.98019 | 99° | 64km/h | 3089m | -2.4m/s | 3.5°C | 71.5% | 710.9hPa | 2.7V | 00:00:00 | 03:19:06 | 00:00:00 | |
| DO3MHA-12 | 2026-09-05 13:48:02 | 47.94581 | 11.97902 | 105° | 68km/h | 3101m | -2.4m/s | 3.4°C | 71.7% | 709.8hPa | 2.7V | 00:00:00 | 03:19:01 | 00:00:00 | |
| DG1MFX-10 | 2026-09-05 13:48:01 | 47.94581 | 11.97902 | 105° | 66km/h | 3101m | -2.5m/s | 3.4°C | 71.0% | 709.8hPa | 2.7V | 07:06:00 | 00:00:00 | 00:00:00 | |
| DO3MHA-12 | 2026-09-05 13:47:57 | 47.94597 | 11.97779 | 100° | 64km/h | 3114m | -2.6m/s | 3.3°C | 71.4% | 708.7hPa | 2.7V | 07:06:00 | 03:18:56 | 00:00:00 | |
| DO3MHA-12 | 2026-09-05 13:47:52 | 47.94616 | 11.97660 | 103° | 66km/h | 3126m | -2.5m/s | 3.2°C | 69.5% | 707.6hPa | 2.7V | 00:00:00 | 03:18:51 | 00:00:00 | |
| DG1MJG | 2026-09-05 13:47:49 | 47.94622 | 11.97611 | 101° | 66km/h | 3132m | -2.7m/s | 3.4°C | 67.6% | 707.2hPa | 2.7V | 00:00:00 | 00:00:00 | 00:00:00 | |
| DO3MHA-11 | 2026-09-05 13:47:47 | 47.94632 | 11.97540 | 105° | 68km/h | 3139m | -2.7m/s | 3.3°C | 67.5% | 706.6hPa | 2.7V | 00:00:00 | 03:18:46 | 00:00:00 | |
| OE5DXL-15 | 2026-09-05 13:47:44 | 47.94645 | 11.97468 | 103° | 68km/h | 3147m | -2.5m/s | 3.2°C | 67.5% | 705.8hPa | 2.7V | 00:00:00 | 00:00:00 | 00:00:00 | |
| DO3MHA-12 | 2026-09-05 13:47:42 | 47.94651 | 11.97417 | 99° | 64km/h | 3153m | -2.6m/s | 3.1°C | 67.9% | 705.3hPa | 2.7V | 00:00:00 | 03:18:41 | 00:00:00 | |
| DG1MFX-10 | 2026-09-05 13:47:41 | 47.94651 | 11.97417 | 100° | 68km/h | 3153m | -2.7m/s | 3.2°C | 67.2% | 705.4hPa | 2.7V | 07:07:00 | 00:00:00 | 00:00:00 | |
| DL6DJ-15 | 2026-09-05 13:47:38 | 47.94663 | 11.97322 | 104° | 62km/h | 3164m | -2.6m/s | 3.2°C | 66.9% | 704.6hPa | 2.7V | 00:00:00 | 00:00:00 | 00:00:00 | |
| DO3MHA-11 | 2026-09-05 13:47:37 | 47.94668 | 11.97298 | 105° | 68km/h | 3166m | -2.6m/s | 3.1°C | 67.7% | 704.2hPa | 2.7V | 00:00:00 | 03:18:36 | 00:00:00 | |
| DO3MHA-12 | 2026-09-05 13:47:32 | 47.94686 | 11.97173 | 101° | 66km/h | 3179m | -2.6m/s | 2.9°C | 68.7% | 703.0hPa | 2.7V | 00:00:00 | 03:18:31 | 00:00:00 | |
| DO3MHA-12 | 2026-09-05 13:47:27 | 47.94706 | 11.97052 | 104° | 68km/h | 3192m | -2.4m/s | 2.9°C | 69.5% | 701.9hPa | 2.7V | 00:00:00 | 03:18:26 | 00:00:00 | |
| DO3MHA-11 | 2026-09-05 13:47:22 | 47.94722 | 11.96928 | 103° | 68km/h | 3204m | -2.5m/s | 2.9°C | 70.9% | 700.9hPa | 2.7V | 00:00:00 | 03:18:21 | 00:00:00 | |
| DG1MFX-10 | 2026-09-05 13:47:20 | 47.94726 | 11.96904 | 105° | 66km/h | 3207m | -2.7m/s | 2.9°C | 70.1% | 700.7hPa | 2.7V | 07:07:00 | 00:00:00 | 00:00:00 | |
| DO3MHA-12 | 2026-09-05 13:47:17 | 47.94742 | 11.96803 | 100° | 68km/h | 3217m | -2.4m/s | 3.0°C | 68.9% | 699.8hPa | 2.7V | 07:07:00 | 03:18:16 | 00:00:00 | |
| OE5DXL-15 | 2026-09-05 13:47:14 | 47.94750 | 11.96728 | 101° | 69km/h | 3225m | -2.5m/s | 3.1°C | 66.8% | 699.1hPa | 2.7V | 00:00:00 | 00:00:00 | 00:00:00 | |
| DO3MHA-12 | 2026-09-05 13:47:12 | 47.94758 | 11.96680 | 105° | 69km/h | 3230m | -2.5m/s | 3.1°C | 65.7% | 698.6hPa | 2.7V | 00:00:00 | 03:18:11 | 00:00:00 | |
| DO3MHA-11 | 2026-09-05 13:47:07 | 47.94775 | 11.96551 | 99° | 68km/h | 3243m | -2.6m/s | 3.2°C | 60.7% | 697.5hPa | 2.7V | 00:00:00 | 03:18:06 | 00:00:00 | |
| DO3MHA-11 | 2026-09-05 13:47:02 | 47.94792 | 11.96427 | 103° | 69km/h | 3256m | -2.6m/s | 3.2°C | 60.0% | 696.4hPa | 2.7V | 00:00:00 | 03:18:01 | 00:00:00 | |
| DG1MFX-10 | 2026-09-05 13:46:59 | 47.94799 | 11.96375 | 101° | 71km/h | 3261m | -2.8m/s | 3.2°C | 59.1% | 696.0hPa | 2.7V | 07:08:00 | 00:00:00 | 00:00:00 | |
| DO3MHA-12 | 2026-09-05 13:46:57 | 47.94808 | 11.96298 | 101° | 69km/h | 3269m | -2.7m/s | 3.0°C | 60.2% | 695.4hPa | 2.7V | 00:00:00 | 03:17:56 | 00:00:00 | |
| DO3MHA-12 | 2026-09-05 13:46:52 | 47.94824 | 11.96168 | 98° | 68km/h | 3282m | -2.6m/s | 3.0°C | 58.9% | 694.3hPa | 2.7V | 00:00:00 | 03:17:51 | 00:00:00 | |
| DO3MHA-11 | 2026-09-05 13:46:47 | 47.94837 | 11.96042 | 102° | 71km/h | 3295m | -2.5m/s | 3.0°C | 58.8% | 693.0hPa | 2.7V | 07:08:00 | 03:17:46 | 00:00:00 | |
| OE5DXL-15 | 2026-09-05 13:46:44 | 47.94847 | 11.95963 | 99° | 69km/h | 3303m | -2.5m/s | 3.0°C | 58.8% | 692.4hPa | 2.7V | 00:00:00 | 00:00:00 | 00:00:00 | |
| DO3MHA-12 | 2026-09-05 13:46:42 | 47.94852 | 11.95910 | 97° | 68km/h | 3309m | -2.6m/s | 3.0°C | 59.7% | 691.9hPa | 2.7V | 00:00:00 | 03:17:41 | 00:00:00 | |
| DG1MFX-10 | 2026-09-05 13:46:38 | 47.94859 | 11.95835 | 101° | 68km/h | 3317m | -2.5m/s | 2.9°C | 59.7% | 691.3hPa | 2.7V | 07:08:00 | 00:00:00 | 00:00:00 | |
| DO3MHA-11 | 2026-09-05 13:46:37 | 47.94865 | 11.95784 | 99° | 69km/h | 3321m | -2.5m/s | 2.8°C | 59.9% | 690.9hPa | 2.7V | 00:00:00 | 03:17:36 | 00:00:00 | |
| DL6DJ-15 | 2026-09-05 13:46:36 | 47.94870 | 11.95730 | 95° | 69km/h | 3327m | -2.8m/s | 2.8°C | 59.4% | 690.5hPa | 2.7V | 00:00:00 | 00:00:00 | 00:00:00 | |
| DO3MHA-11 | 2026-09-05 13:46:27 | 47.94891 | 11.95525 | 98° | 68km/h | 3348m | -2.6m/s | 2.5°C | 61.6% | 688.5hPa | 2.7V | 00:00:00 | 03:17:26 | 00:00:00 | |
| DO3MHA-12 | 2026-09-05 13:46:22 | 47.94903 | 11.95399 | 102° | 71km/h | 3361m | -2.6m/s | 2.4°C | 62.0% | 687.3hPa | 2.7V | 00:00:00 | 03:17:21 | 00:00:00 | |
| NBG1-10 | 2026-09-05 13:46:19 | 47.94913 | 11.95319 | 98° | 69km/h | 3370m | -2.6m/s | 2.3°C | 62.0% | 686.8hPa | 2.7V | 00:00:00 | 03:17:18 | 00:00:00 | |
| DO3MHA-12 | 2026-09-05 13:46:17 | 47.94917 | 11.95267 | 96° | 68km/h | 3375m | -2.5m/s | 2.3°C | 62.1% | 686.3hPa | 2.7V | 00:00:00 | 03:17:16 | 00:00:00 | |
| OE5DXL-15 | 2026-09-05 13:46:14 | 47.94923 | 11.95192 | 101° | 71km/h | 3383m | -2.5m/s | 2.3°C | 62.5% | 685.6hPa | 2.7V | 00:00:00 | 00:00:00 | 00:00:00 | |
| DG1MJG | 2026-09-05 13:46:13 | 47.94923 | 11.95192 | 101° | 68km/h | 3383m | -2.6m/s | 2.3°C | 61.8% | 685.6hPa | 2.7V | 00:00:00 | 00:00:00 | 00:00:00 | |
| DO3MHA-11 | 2026-09-05 13:46:12 | 47.94930 | 11.95140 | 100° | 71km/h | 3388m | -2.5m/s | 2.3°C | 62.4% | 685.1hPa | 2.7V | 00:00:00 | 03:17:11 | 00:00:00 | |
| DO3MHA-11 | 2026-09-05 13:46:07 | 47.94941 | 11.95009 | 99° | 69km/h | 3400m | -2.6m/s | 2.1°C | 63.1% | 684.0hPa | 2.7V | 07:08:00 | 03:17:06 | 00:00:00 | |
| DL6DJ-15 | 2026-09-05 13:46:05 | 47.94951 | 11.94931 | 99° | 71km/h | 3408m | -2.5m/s | 2.1°C | 62.4% | 683.5hPa | 2.7V | 00:00:00 | 00:00:00 | 00:00:00 | |
| OE3JTB-15 | 2026-09-05 13:46:03 | 47.94954 | 11.94904 | 99° | 71km/h | 3411m | -2.6m/s | 2.1°C | 63.3% | 683.1hPa | 2.7V | 00:00:00 | 03:17:02 | 00:00:00 | |
| DO3MHA-11 | 2026-09-05 13:45:57 | 47.94970 | 11.94748 | 102° | 71km/h | 3426m | -2.6m/s | 2.0°C | 65.1% | 681.9hPa | 2.7V | 00:00:00 | 03:16:56 | 00:00:00 | |
| DO3MHA-11 | 2026-09-05 13:45:52 | 47.94983 | 11.94615 | 98° | 69km/h | 3439m | -2.5m/s | 1.8°C | 65.4% | 680.8hPa | 2.7V | 00:00:00 | 03:16:51 | 00:00:00 | |
| DO3MHA-12 | 2026-09-05 13:45:47 | 47.94999 | 11.94485 | 100° | 71km/h | 3452m | -2.5m/s | 1.7°C | 66.1% | 679.7hPa | 2.7V | 00:00:00 | 03:16:46 | 00:00:00 | |
| NBG1-10 | 2026-09-05 13:45:46 | 47.95002 | 11.94458 | 98° | 73km/h | 3454m | -2.5m/s | 1.6°C | 66.4% | 679.5hPa | 2.7V | 07:09:00 | 03:16:45 | 00:00:00 | |
| DO3MHA-11 | 2026-09-05 13:45:42 | 47.95013 | 11.94353 | 102° | 73km/h | 3464m | -2.5m/s | 1.6°C | 67.0% | 678.5hPa | 2.7V | 00:00:00 | 03:16:41 | 00:00:00 | |
| DO3MHA-11 | 2026-09-05 13:45:37 | 47.95027 | 11.94217 | 97° | 71km/h | 3477m | -2.6m/s | 1.5°C | 67.1% | 677.6hPa | 2.7V | 00:00:00 | 03:16:36 | 00:00:00 | |
| DG1MFX-10 | 2026-09-05 13:45:36 | 47.95027 | 11.94217 | 98° | 69km/h | 3477m | -2.7m/s | 1.6°C | 66.2% | 677.7hPa | 2.7V | 07:09:00 | 00:00:00 | 00:00:00 | |
| DL6DJ-15 | 2026-09-05 13:45:34 | 47.95040 | 11.94114 | 102° | 71km/h | 3487m | -2.5m/s | 1.4°C | 66.8% | 676.7hPa | 2.7V | 00:00:00 | 00:00:00 | 00:00:00 | |
| DO3MHA-11 | 2026-09-05 13:45:31 | 47.95048 | 11.94059 | 101° | 71km/h | 3493m | -2.6m/s | 1.3°C | 67.1% | 676.3hPa | 2.7V | 00:00:00 | 03:16:30 | 00:00:00 | |
| DO3MHA-12 | 2026-09-05 13:45:28 | 47.95055 | 11.93977 | 98° | 71km/h | 3500m | -2.3m/s | 1.3°C | 67.0% | 675.5hPa | 2.7V | 00:00:00 | 03:16:27 | 00:00:00 | |
| DO3MHA-11 | 2026-09-05 13:45:26 | 47.95060 | 11.93925 | 101° | 73km/h | 3505m | -2.4m/s | 1.3°C | 66.8% | 675.2hPa | 2.7V | 07:09:00 | 03:16:25 | 00:00:00 | |
| DO3MHA-12 | 2026-09-05 13:45:23 | 47.95071 | 11.93844 | 101° | 73km/h | 3513m | -2.4m/s | 1.2°C | 67.0% | 674.6hPa | 2.7V | 00:00:00 | 03:16:22 | 00:00:00 | |
| DO3MHA-11 | 2026-09-05 13:45:21 | 47.95077 | 11.93788 | 97° | 71km/h | 3518m | -2.6m/s | 1.2°C | 67.1% | 674.2hPa | 2.7V | 00:00:00 | 03:16:20 | 00:00:00 | |
| DO3MHA-12 | 2026-09-05 13:45:18 | 47.95084 | 11.93708 | 101° | 73km/h | 3525m | -2.6m/s | 1.1°C | 67.2% | 673.4hPa | 2.7V | 00:00:00 | 03:16:17 | 00:00:00 | |
| DO3MHA-11 | 2026-09-05 13:45:16 | 47.95091 | 11.93656 | 103° | 75km/h | 3530m | -2.4m/s | 1.1°C | 67.2% | 673.1hPa | 2.7V | 00:00:00 | 03:16:15 | 00:00:00 | |
| OE5DXL-15 | 2026-09-05 13:45:14 | 47.95099 | 11.93600 | 100° | 73km/h | 3535m | -2.6m/s | 1.0°C | 67.6% | 672.7hPa | 2.7V | 00:00:00 | 00:00:00 | 00:00:00 | |
| DO3MHA-12 | 2026-09-05 13:45:13 | 47.95101 | 11.93572 | 98° | 71km/h | 3538m | -2.6m/s | 1.0°C | 67.9% | 672.4hPa | 2.7V | 00:00:00 | 03:16:12 | 00:00:00 | |
| DO3MHA-11 | 2026-09-05 13:45:11 | 47.95106 | 11.93517 | 97° | 71km/h | 3543m | -2.6m/s | 1.0°C | 68.3% | 671.9hPa | 2.7V | 00:00:00 | 03:16:10 | 00:00:00 | |
| OE5DRO-10 | 2026-09-05 13:45:10 | 47.95108 | 11.93491 | 99° | 73km/h | 3546m | -2.5m/s | 1.0°C | 68.4% | 671.8hPa | 2.7V | 00:00:00 | 00:00:00 | 00:00:00 | |
| DO3MHA-12 | 2026-09-05 13:45:08 | 47.95114 | 11.93438 | 101° | 75km/h | 3551m | -2.6m/s | 0.9°C | 69.1% | 671.4hPa | 2.7V | 07:09:00 | 03:16:07 | 00:00:00 | |
| DO3MHA-11 | 2026-09-05 13:45:06 | 47.95120 | 11.93383 | 98° | 73km/h | 3556m | -2.5m/s | 0.9°C | 70.2% | 671.0hPa | 2.7V | 00:00:00 | 03:16:05 | 00:00:00 | |
| DO3MHA-12 | 2026-09-05 13:45:03 | 47.95125 | 11.93300 | 95° | 71km/h | 3564m | -2.7m/s | 0.8°C | 71.4% | 670.3hPa | 2.6V | 00:00:00 | 03:16:02 | 00:00:00 | |
| DO3MHA-11 | 2026-09-05 13:45:01 | 47.95129 | 11.93248 | 98° | 73km/h | 3569m | -2.6m/s | 0.8°C | 72.0% | 669.9hPa | 2.6V | 00:00:00 | 03:16:00 | 00:00:00 | |
| DO3MHA-12 | 2026-09-05 13:44:58 | 47.95137 | 11.93168 | 99° | 75km/h | 3577m | -2.4m/s | 0.7°C | 72.5% | 669.3hPa | 2.6V | 00:00:00 | 03:15:57 | 00:00:00 | |
| DO3MHA-11 | 2026-09-05 13:44:56 | 47.95142 | 11.93111 | 97° | 73km/h | 3582m | -2.5m/s | 0.7°C | 72.0% | 668.9hPa | 2.7V | 00:00:00 | 03:15:55 | 00:00:00 | |
| DG1MFX-10 | 2026-09-05 13:44:55 | 47.95142 | 11.93111 | 97° | 75km/h | 3582m | -2.6m/s | 0.7°C | 71.0% | 669.0hPa | 2.7V | 07:10:00 | 00:00:00 | 00:00:00 | |
| OE5DRO-10 | 2026-09-05 13:44:54 | 47.95146 | 11.93056 | 95° | 73km/h | 3587m | -2.4m/s | 0.7°C | 72.5% | 668.4hPa | 2.7V | 00:00:00 | 00:00:00 | 00:00:00 | |
| DO3MHA-12 | 2026-09-05 13:44:53 | 47.95147 | 11.93030 | 96° | 73km/h | 3590m | -2.4m/s | 0.6°C | 72.6% | 668.3hPa | 2.7V | 00:00:00 | 03:15:52 | 00:00:00 | |
| DO3MHA-11 | 2026-09-05 13:44:51 | 47.95152 | 11.92976 | 98° | 73km/h | 3595m | -2.4m/s | 0.6°C | 72.8% | 667.8hPa | 2.7V | 00:00:00 | 03:15:50 | 00:00:00 | |
| DO3MHA-12 | 2026-09-05 13:44:48 | 47.95158 | 11.92893 | 95° | 71km/h | 3602m | -2.7m/s | 0.6°C | 72.7% | 667.1hPa | 2.7V | 00:00:00 | 03:15:47 | 00:00:00 | |
| OE3JTB-15 | 2026-09-05 13:44:47 | 47.95159 | 11.92865 | 94° | 73km/h | 3605m | -2.6m/s | 0.6°C | 72.7% | 667.0hPa | 2.7V | 00:00:00 | 00:00:00 | 00:00:00 | |
| DO3MHA-11 | 2026-09-05 13:44:46 | 47.95160 | 11.92839 | 95° | 71km/h | 3608m | -2.5m/s | 0.6°C | 72.4% | 666.7hPa | 2.7V | 07:10:00 | 03:15:45 | 00:00:00 | |
| OE5DXL-15 | 2026-09-05 13:44:44 | 47.95164 | 11.92786 | 98° | 73km/h | 3613m | -2.4m/s | 0.5°C | 72.7% | 666.2hPa | 2.7V | 00:00:00 | 00:00:00 | 00:00:00 | |
| DO3MHA-12 | 2026-09-05 13:44:43 | 47.95167 | 11.92759 | 99° | 75km/h | 3616m | -2.4m/s | 0.6°C | 72.5% | 666.1hPa | 2.7V | 00:00:00 | 03:15:42 | 00:00:00 | |
| DO3MHA-11 | 2026-09-05 13:44:41 | 47.95172 | 11.92703 | 96° | 73km/h | 3620m | -2.5m/s | 0.5°C | 72.6% | 665.6hPa | 2.7V | 00:00:00 | 03:15:40 | 00:00:00 | |
| NBG1-10 | 2026-09-05 13:44:40 | 47.95173 | 11.92674 | 94° | 71km/h | 3623m | -2.6m/s | 0.5°C | 72.5% | 665.4hPa | 2.7V | 00:00:00 | 03:15:39 | 00:00:00 | |
| DO3MHA-12 | 2026-09-05 13:44:38 | 47.95175 | 11.92618 | 92° | 71km/h | 3628m | -2.5m/s | 0.4°C | 72.6% | 665.0hPa | 2.7V | 00:00:00 | 03:15:37 | 00:00:00 | |
| OE5DRO-10 | 2026-09-05 13:44:37 | 47.95176 | 11.92592 | 93° | 73km/h | 3631m | -2.4m/s | 0.5°C | 72.5% | 664.8hPa | 2.7V | 00:00:00 | 00:00:00 | 00:00:00 | |
| DO3MHA-11 | 2026-09-05 13:44:36 | 47.95177 | 11.92566 | 94° | 73km/h | 3633m | -2.6m/s | 0.4°C | 73.1% | 664.6hPa | 2.7V | 00:00:00 | 03:15:35 | 00:00:00 | |
| DG1MFX-10 | 2026-09-05 13:44:35 | 47.95177 | 11.92566 | 94° | 69km/h | 3633m | -2.7m/s | 0.5°C | 72.1% | 664.6hPa | 2.7V | 07:10:00 | 00:00:00 | 00:00:00 | |
| DO3MHA-12 | 2026-09-05 13:44:33 | 47.95180 | 11.92484 | 93° | 73km/h | 3641m | -2.4m/s | 0.3°C | 73.8% | 664.0hPa | 2.7V | 00:00:00 | 03:15:32 | 00:00:00 | |
| DO3MHA-11 | 2026-09-05 13:44:31 | 47.95181 | 11.92428 | 91° | 71km/h | 3646m | -2.8m/s | 0.3°C | 73.8% | 663.5hPa | 2.7V | 00:00:00 | 03:15:30 | 00:00:00 | |
| DO3MHA-12 | 2026-09-05 13:44:28 | 47.95182 | 11.92348 | 94° | 73km/h | 3654m | -2.6m/s | 0.3°C | 74.3% | 662.9hPa | 2.7V | 07:10:00 | 03:15:27 | 00:00:00 | |
| DO3MHA-11 | 2026-09-05 13:44:26 | 47.95185 | 11.92294 | 95° | 73km/h | 3659m | -2.5m/s | 0.2°C | 74.7% | 662.4hPa | 2.7V | 00:00:00 | 03:15:25 | 00:00:00 | |
| OE3JTB-15 | 2026-09-05 13:44:25 | 47.95186 | 11.92266 | 94° | 71km/h | 3662m | -2.4m/s | 0.2°C | 74.9% | 662.3hPa | 2.7V | 00:00:00 | 00:00:00 | 00:00:00 | |
| DO3MHA-12 | 2026-09-05 13:44:23 | 47.95188 | 11.92210 | 91° | 69km/h | 3667m | -2.8m/s | 0.2°C | 74.9% | 661.8hPa | 2.7V | 00:00:00 | 03:15:22 | 00:00:00 | |
| DO3MHA-11 | 2026-09-05 13:44:21 | 47.95188 | 11.92157 | 91° | 71km/h | 3672m | -2.5m/s | 0.2°C | 74.8% | 661.4hPa | 2.7V | 00:00:00 | 03:15:20 | 00:00:00 | |
| DO3MHA-12 | 2026-09-05 13:44:18 | 47.95190 | 11.92078 | 94° | 73km/h | 3680m | -2.5m/s | 0.1°C | 76.0% | 660.7hPa | 2.7V | 00:00:00 | 03:15:17 | 00:00:00 | |
| DO3MHA-11 | 2026-09-05 13:44:16 | 47.95192 | 11.92023 | 92° | 71km/h | 3685m | -2.3m/s | 0.0°C | 76.4% | 660.3hPa | 2.7V | 00:00:00 | 03:15:15 | 00:00:00 | |
| OE5DXL-15 | 2026-09-05 13:44:14 | 47.95192 | 11.91967 | 91° | 71km/h | 3690m | -2.3m/s | 0.0°C | 75.9% | 660.0hPa | 2.7V | 00:00:00 | 00:00:00 | 00:00:00 | |
| DO3MHA-12 | 2026-09-05 13:44:13 | 47.95192 | 11.91941 | 91° | 69km/h | 3692m | -2.4m/s | 0.1°C | 75.7% | 659.7hPa | 2.7V | 00:00:00 | 03:15:12 | 00:00:00 | |
| DO3MHA-11 | 2026-09-05 13:44:11 | 47.95193 | 11.91889 | 94° | 71km/h | 3697m | -2.4m/s | 0.2°C | 74.7% | 659.4hPa | 2.7V | 00:00:00 | 03:15:10 | 00:00:00 | |
| DG1MJG | 2026-09-05 13:44:10 | 47.95193 | 11.91889 | 95° | 69km/h | 3697m | -2.4m/s | 0.2°C | 73.7% | 659.4hPa | 2.7V | 07:11:00 | 00:00:00 | 00:00:00 | |
| DO3MHA-12 | 2026-09-05 13:44:08 | 47.95197 | 11.91809 | 92° | 71km/h | 3704m | -2.4m/s | 0.1°C | 74.3% | 658.7hPa | 2.7V | 00:00:00 | 03:15:07 | 00:00:00 | |
| NBG1-10 | 2026-09-05 13:44:07 | 47.95197 | 11.91781 | 90° | 71km/h | 3706m | -2.3m/s | 0.0°C | 74.5% | 658.5hPa | 2.7V | 00:00:00 | 03:15:06 | 00:00:00 | |
| DO3MHA-11 | 2026-09-05 13:44:06 | 47.95196 | 11.91754 | 89° | 69km/h | 3709m | -2.4m/s | 0.0°C | 74.1% | 658.3hPa | 2.7V | 07:10:00 | 03:15:05 | 00:00:00 | |
| OE5DRO-10 | 2026-09-05 13:44:05 | 47.95196 | 11.91727 | 89° | 71km/h | 3711m | -2.4m/s | 0.1°C | 73.9% | 658.2hPa | 2.7V | 00:00:00 | 00:00:00 | 00:00:00 | |
| DO3MHA-12 | 2026-09-05 13:44:03 | 47.95195 | 11.91676 | 91° | 71km/h | 3716m | -2.5m/s | 0.1°C | 73.8% | 657.7hPa | 2.7V | 00:00:00 | 03:15:02 | 00:00:00 | |
| DL6DJ-15 | 2026-09-05 13:44:00 | 47.95197 | 11.91596 | 90° | 73km/h | 3723m | -2.4m/s | 0.0°C | 73.3% | 657.1hPa | 2.7V | 00:00:00 | 00:00:00 | 00:00:00 | |
| DO3MHA-12 | 2026-09-05 13:43:58 | 47.95196 | 11.91541 | 88° | 69km/h | 3728m | -2.5m/s | -0.0°C | 74.0% | 656.8hPa | 2.7V | 00:00:00 | 03:14:57 | 00:00:00 | |
| DO3MHA-11 | 2026-09-05 13:43:56 | 47.95194 | 11.91488 | 89° | 69km/h | 3733m | -2.6m/s | 0.0°C | 74.2% | 656.4hPa | 2.7V | 00:00:00 | 03:14:55 | 00:00:00 | |
| DO3MHA-12 | 2026-09-05 13:43:53 | 47.95195 | 11.91410 | 92° | 73km/h | 3741m | -2.4m/s | -0.1°C | 75.0% | 655.7hPa | 2.7V | 00:00:00 | 03:14:52 | 00:00:00 | |
| DO3MHA-11 | 2026-09-05 13:43:51 | 47.95194 | 11.91355 | 88° | 71km/h | 3746m | -2.5m/s | -0.1°C | 74.5% | 655.3hPa | 2.7V | 00:00:00 | 03:14:50 | 00:00:00 | |
| OE5DRO-10 | 2026-09-05 13:43:49 | 47.95192 | 11.91300 | 87° | 73km/h | 3751m | -2.5m/s | -0.1°C | 73.8% | 655.0hPa | 2.7V | 00:00:00 | 00:00:00 | 00:00:00 | |
| DO3MHA-12 | 2026-09-05 13:43:48 | 47.95191 | 11.91274 | 87° | 71km/h | 3753m | -2.3m/s | -0.1°C | 74.1% | 654.7hPa | 2.7V | 07:11:00 | 03:14:47 | 00:00:00 | |
| DO3MHA-11 | 2026-09-05 13:43:46 | 47.95190 | 11.91222 | 89° | 73km/h | 3758m | -2.3m/s | -0.1°C | 74.2% | 654.3hPa | 2.7V | 00:00:00 | 03:14:45 | 00:00:00 | |
| OE5DXL-15 | 2026-09-05 13:43:44 | 47.95189 | 11.91166 | 89° | 73km/h | 3763m | -2.3m/s | -0.2°C | 74.9% | 653.9hPa | 2.7V | 00:00:00 | 00:00:00 | 00:00:00 | |
| DO3MHA-11 | 2026-09-05 13:43:41 | 47.95186 | 11.91083 | 87° | 71km/h | 3770m | -2.4m/s | -0.3°C | 75.2% | 653.3hPa | 2.6V | 00:00:00 | 03:14:40 | 00:00:00 | |
| DG1MJG | 2026-09-05 13:43:39 | 47.95185 | 11.91056 | 89° | 71km/h | 3772m | -2.3m/s | -0.4°C | 74.4% | 653.2hPa | 2.6V | 07:11:00 | 00:00:00 | 00:00:00 | |
| DO3MHA-12 | 2026-09-05 13:43:38 | 47.95186 | 11.91002 | 93° | 75km/h | 3777m | -2.2m/s | -0.3°C | 75.3% | 652.8hPa | 2.6V | 00:00:00 | 03:14:37 | 00:00:00 | |
| DO3MHA-11 | 2026-09-05 13:43:36 | 47.95188 | 11.90946 | 92° | 75km/h | 3782m | -2.4m/s | -0.3°C | 76.0% | 652.4hPa | 2.6V | 00:00:00 | 03:14:35 | 00:00:00 | |
| NBG1-10 | 2026-09-05 13:43:34 | 47.95187 | 11.90888 | 88° | 73km/h | 3786m | -2.3m/s | -0.4°C | 76.2% | 651.9hPa | 2.7V | 00:00:00 | 03:14:33 | 00:00:00 | |
| DO3MHA-12 | 2026-09-05 13:43:33 | 47.95186 | 11.90860 | 87° | 71km/h | 3789m | -2.2m/s | -0.4°C | 76.2% | 651.8hPa | 2.7V | 00:00:00 | 03:14:32 | 00:00:00 | |
| DO3MHA-11 | 2026-09-05 13:43:31 | 47.95185 | 11.90806 | 89° | 71km/h | 3793m | -2.1m/s | -0.5°C | 76.4% | 651.4hPa | 2.7V | 00:00:00 | 03:14:30 | 00:00:00 | |
| DL6DJ-15 | 2026-09-05 13:43:29 | 47.95185 | 11.90753 | 91° | 71km/h | 3797m | -2.3m/s | -0.4°C | 74.6% | 651.1hPa | 2.7V | 00:00:00 | 00:00:00 | 00:00:00 | |
| DO3MHA-12 | 2026-09-05 13:43:28 | 47.95186 | 11.90726 | 92° | 75km/h | 3800m | -2.1m/s | -0.4°C | 75.6% | 650.9hPa | 2.7V | 00:00:00 | 03:14:27 | 00:00:00 | |
| OE3JTB-15 | 2026-09-05 13:43:27 | 47.95186 | 11.90698 | 91° | 73km/h | 3802m | -2.4m/s | -0.4°C | 75.6% | 650.7hPa | 2.7V | 00:00:00 | 00:00:00 | 00:00:00 | |
| DO3MHA-11 | 2026-09-05 13:43:26 | 47.95186 | 11.90669 | 90° | 71km/h | 3804m | -2.2m/s | -0.4°C | 75.5% | 650.5hPa | 2.7V | 07:11:00 | 03:14:25 | 00:00:00 | |
| DO3MHA-12 | 2026-09-05 13:43:23 | 47.95184 | 11.90587 | 89° | 71km/h | 3811m | -2.0m/s | -0.4°C | 75.9% | 650.1hPa | 2.7V | 00:00:00 | 03:14:22 | 00:00:00 | |
| DO3MHA-11 | 2026-09-05 13:43:21 | 47.95184 | 11.90534 | 92° | 73km/h | 3815m | -2.1m/s | -0.4°C | 77.0% | 649.6hPa | 2.7V | 00:00:00 | 03:14:20 | 00:00:00 | |
| DO3MHA-12 | 2026-09-05 13:43:18 | 47.95185 | 11.90451 | 90° | 71km/h | 3822m | -2.2m/s | -0.4°C | 78.3% | 649.1hPa | 2.7V | 00:00:00 | 03:14:17 | 00:00:00 | |
| OE5DRO-10 | 2026-09-05 13:43:17 | 47.95185 | 11.90423 | 88° | 73km/h | 3824m | -2.0m/s | -0.4°C | 78.8% | 649.0hPa | 2.7V | 07:11:00 | 00:00:00 | 00:00:00 | |
| DO3MHA-11 | 2026-09-05 13:43:16 | 47.95184 | 11.90396 | 88° | 71km/h | 3826m | -2.1m/s | -0.3°C | 78.5% | 648.8hPa | 2.7V | 00:00:00 | 03:14:15 | 00:00:00 | |
| OE5DXL-15 | 2026-09-05 13:43:14 | 47.95184 | 11.90344 | 91° | 71km/h | 3830m | -2.2m/s | -0.3°C | 76.4% | 648.4hPa | 2.7V | 00:00:00 | 00:00:00 | 00:00:00 | |
| DO3MHA-12 | 2026-09-05 13:43:13 | 47.95184 | 11.90317 | 93° | 75km/h | 3832m | -2.3m/s | -0.2°C | 75.3% | 648.1hPa | 2.7V | 00:00:00 | 03:14:12 | 00:00:00 | |
| DO3MHA-11 | 2026-09-05 13:43:11 | 47.95186 | 11.90262 | 92° | 73km/h | 3837m | -2.2m/s | -0.1°C | 71.5% | 647.8hPa | 2.6V | 00:00:00 | 03:14:10 | 00:00:00 | |
| DO3MHA-12 | 2026-09-05 13:43:08 | 47.95184 | 11.90177 | 87° | 71km/h | 3844m | -2.0m/s | -0.1°C | 80.0% | 647.3hPa | 2.6V | 07:11:00 | 03:14:07 | 00:00:00 | |
| DO3MHA-11 | 2026-09-05 13:43:06 | 47.95183 | 11.90124 | 90° | 73km/h | 3848m | -2.2m/s | -0.1°C | 81.6% | 646.9hPa | 2.6V | 00:00:00 | 03:14:05 | 00:00:00 | |
| DO3MHA-12 | 2026-09-05 13:43:03 | 47.95185 | 11.90044 | 93° | 73km/h | 3855m | -2.3m/s | -0.1°C | 85.3% | 646.4hPa | 2.7V | 00:00:00 | 03:14:02 | 00:00:00 | |
| DO3MHA-11 | 2026-09-05 13:43:01 | 47.95185 | 11.89987 | 89° | 71km/h | 3859m | -2.2m/s | -0.2°C | 85.8% | 646.2hPa | 2.7V | 00:00:00 | 03:14:00 | 00:00:00 | |
| DO3MHA-12 | 2026-09-05 13:42:58 | 47.95183 | 11.89906 | 89° | 71km/h | 3865m | -2.2m/s | -0.2°C | 85.9% | 645.6hPa | 2.7V | 00:00:00 | 03:13:57 | 00:00:00 | |
| DO3MHA-11 | 2026-09-05 13:42:56 | 47.95183 | 11.89854 | 92° | 73km/h | 3869m | -1.9m/s | -0.3°C | 86.1% | 645.3hPa | 2.7V | 00:00:00 | 03:13:55 | 00:00:00 | |
| DO3MHA-11 | 2026-09-05 13:42:51 | 47.95182 | 11.89717 | 87° | 71km/h | 3879m | -2.0m/s | -0.1°C | 82.7% | 644.4hPa | 2.7V | 00:00:00 | 03:13:50 | 00:00:00 | |
| DO3MHA-12 | 2026-09-05 13:42:48 | 47.95181 | 11.89638 | 92° | 71km/h | 3886m | -1.9m/s | -0.2°C | 83.3% | 0hPa | 2.7V | 00:00:00 | 03:13:47 | 00:00:00 | |
| DO3MHA-11 | 2026-09-05 13:42:45 | 47.95181 | 11.89558 | 88° | 69km/h | 3892m | -1.8m/s | -0.3°C | 83.7% | 643.4hPa | 2.7V | 07:12:00 | 03:13:44 | 00:00:00 | |
| OE5DXL-15 | 2026-09-05 13:42:44 | 47.95180 | 11.89530 | 87° | 69km/h | 3894m | -2.0m/s | -0.3°C | 83.8% | 643.2hPa | 2.7V | 00:00:00 | 00:00:00 | 00:00:00 | |
| DO3MHA-12 | 2026-09-05 13:42:43 | 47.95179 | 11.89504 | 87° | 69km/h | 3896m | -2.0m/s | -0.3°C | 84.0% | 643.1hPa | 2.7V | 00:00:00 | 03:13:42 | 00:00:00 | |
| DO3MHA-11 | 2026-09-05 13:42:40 | 47.95178 | 11.89427 | 90° | 71km/h | 3902m | -1.9m/s | -0.4°C | 84.1% | 642.6hPa | 2.7V | 00:00:00 | 03:13:39 | 00:00:00 | |
| DO3MHA-12 | 2026-09-05 13:42:38 | 47.95178 | 11.89374 | 89° | 71km/h | 3906m | -1.8m/s | -0.4°C | 84.1% | 642.3hPa | 2.7V | 00:00:00 | 03:13:37 | 00:00:00 | |
| DO3MHA-11 | 2026-09-05 13:42:35 | 47.95175 | 11.89293 | 87° | 69km/h | 3912m | -1.9m/s | -0.4°C | 84.0% | 641.8hPa | 2.7V | 00:00:00 | 03:13:34 | 00:00:00 | |
| DO3MHA-12 | 2026-09-05 13:42:33 | 47.95174 | 11.89242 | 91° | 71km/h | 3916m | -1.9m/s | -0.4°C | 83.6% | 641.5hPa | 2.7V | 00:00:00 | 03:13:32 | 00:00:00 | |
| DG1MFX-10 | 2026-09-05 13:42:32 | 47.95174 | 11.89242 | 91° | 69km/h | 3916m | -2.0m/s | -0.5°C | 82.5% | 641.6hPa | 2.7V | 07:12:00 | 00:00:00 | 00:00:00 | |
| DO3MHA-11 | 2026-09-05 13:42:30 | 47.95175 | 11.89160 | 90° | 69km/h | 3922m | -2.2m/s | -0.4°C | 83.1% | 641.2hPa | 2.7V | 00:00:00 | 03:13:29 | 00:00:00 | |
| OE3JTB-15 | 2026-09-05 13:42:29 | 47.95174 | 11.89133 | 88° | 69km/h | 3924m | -2.3m/s | -0.4°C | 83.2% | 640.9hPa | 2.7V | 00:00:00 | 03:13:28 | 00:00:00 | |
| NBG1-10 | 2026-09-05 13:42:28 | 47.95173 | 11.89106 | 87° | 69km/h | 3926m | -2.1m/s | -0.5°C | 83.3% | 640.7hPa | 2.7V | 00:00:00 | 03:13:27 | 00:00:00 | |
| DL6DJ-15 | 2026-09-05 13:42:27 | 47.95172 | 11.89080 | 86° | 66km/h | 3928m | -2.0m/s | -0.5°C | 82.2% | 640.6hPa | 2.7V | 00:00:00 | 00:00:00 | 00:00:00 | |
| DO3MHA-11 | 2026-09-05 13:42:24 | 47.95171 | 11.89004 | 93° | 71km/h | 3934m | -1.9m/s | -0.5°C | 83.7% | 640.2hPa | 2.7V | 00:00:00 | 03:13:23 | 00:00:00 | |
| DO3MHA-12 | 2026-09-05 13:42:23 | 47.95172 | 11.88978 | 92° | 71km/h | 3936m | -2.1m/s | -0.5°C | 83.5% | 639.8hPa | 2.7V | 00:00:00 | 03:13:22 | 00:00:00 | |
| DO3MHA-11 | 2026-09-05 13:42:19 | 47.95170 | 11.88870 | 86° | 68km/h | 3944m | -2.1m/s | -0.6°C | 83.9% | 639.2hPa | 2.7V | 00:00:00 | 03:13:18 | 00:00:00 | |
| DO3MHA-12 | 2026-09-05 13:42:18 | 47.95169 | 11.88844 | 87° | 68km/h | 3947m | -2.0m/s | -0.6°C | 84.0% | 639.1hPa | 2.7V | 00:00:00 | 03:13:17 | 00:00:00 | |
| DO3MHA-11 | 2026-09-05 13:42:14 | 47.95168 | 11.88742 | 90° | 69km/h | 3954m | -1.9m/s | -0.6°C | 79.8% | 638.4hPa | 2.7V | 00:00:00 | 03:13:13 | 00:00:00 | |
| DO3MHA-12 | 2026-09-05 13:42:13 | 47.95168 | 11.88715 | 89° | 69km/h | 3957m | -2.1m/s | -0.5°C | 79.7% | 638.3hPa | 2.7V | 00:00:00 | 03:13:12 | 00:00:00 | |
| DG1MFX-10 | 2026-09-05 13:42:11 | 47.95167 | 11.88688 | 88° | 71km/h | 3959m | -2.0m/s | -0.6°C | 78.6% | 638.2hPa | 2.6V | 07:12:00 | 00:00:00 | 00:00:00 | |
| DO3MHA-11 | 2026-09-05 13:42:09 | 47.95164 | 11.88612 | 88° | 68km/h | 3965m | -2.1m/s | -0.6°C | 79.1% | 637.7hPa | 2.6V | 00:00:00 | 03:13:08 | 00:00:00 | |
| DO3MHA-12 | 2026-09-05 13:42:08 | 47.95163 | 11.88587 | 90° | 69km/h | 3967m | -2.0m/s | -0.7°C | 78.3% | 637.5hPa | 2.6V | 00:00:00 | 03:13:07 | 00:00:00 | |
| DG1MJG | 2026-09-05 13:42:07 | 47.95163 | 11.88587 | 91° | 66km/h | 3967m | -2.1m/s | -0.7°C | 77.1% | 637.5hPa | 2.6V | 07:12:00 | 00:00:00 | 00:00:00 | |
| DO3MHA-11 | 2026-09-05 13:42:04 | 47.95163 | 11.88482 | 87° | 68km/h | 3975m | -2.0m/s | -0.6°C | 77.6% | 636.8hPa | 2.6V | 07:12:00 | 03:13:03 | 00:00:00 | |
| DO3MHA-12 | 2026-09-05 13:42:03 | 47.95162 | 11.88456 | 86° | 68km/h | 3977m | -1.9m/s | -0.7°C | 76.4% | 636.6hPa | 2.7V | 00:00:00 | 03:13:02 | 00:00:00 | |
| DL6DJ-15 | 2026-09-05 13:41:56 | 47.95159 | 11.88276 | 88° | 71km/h | 3991m | -2.0m/s | -0.8°C | 75.4% | 635.6hPa | 2.7V | 00:00:00 | 00:00:00 | 00:00:00 | |
| NBG1-10 | 2026-09-05 13:41:55 | 47.95158 | 11.88249 | 88° | 69km/h | 3993m | -1.8m/s | -0.7°C | 75.9% | 635.5hPa | 2.7V | 00:00:00 | 03:12:54 | 00:00:00 | |
| DO3MHA-11 | 2026-09-05 13:41:54 | 47.95158 | 11.88223 | 88° | 68km/h | 3995m | -1.8m/s | -0.7°C | 75.6% | 635.4hPa | 2.6V | 00:00:00 | 03:12:53 | 00:00:00 | |
| DO3MHA-12 | 2026-09-05 13:41:53 | 47.95157 | 11.88198 | 89° | 68km/h | 3997m | -1.9m/s | -0.7°C | 74.4% | 635.0hPa | 2.6V | 00:00:00 | 03:12:52 | 00:00:00 | |
| DG1MFX-10 | 2026-09-05 13:41:51 | 47.95157 | 11.88173 | 91° | 66km/h | 3998m | -2.0m/s | -0.8°C | 73.3% | 635.1hPa | 2.6V | 07:13:00 | 00:00:00 | 00:00:00 | |
| DO3MHA-11 | 2026-09-05 13:41:49 | 47.95158 | 11.88096 | 90° | 69km/h | 4004m | -1.8m/s | -0.9°C | 75.3% | 634.5hPa | 2.6V | 00:00:00 | 03:12:48 | 00:00:00 | |
| DO3MHA-12 | 2026-09-05 13:41:48 | 47.95157 | 11.88069 | 87° | 68km/h | 4006m | -1.8m/s | -0.9°C | 75.3% | 634.3hPa | 2.7V | 07:13:00 | 03:12:47 | 00:00:00 | |
| OE5DXL-15 | 2026-09-05 13:41:44 | 47.95152 | 11.87966 | 89° | 69km/h | 4014m | -2.0m/s | -0.8°C | 73.8% | 633.8hPa | 2.7V | 07:13:00 | 00:00:00 | 00:00:00 | |
| DO3MHA-12 | 2026-09-05 13:41:43 | 47.95151 | 11.87941 | 90° | 69km/h | 4016m | -2.0m/s | -0.8°C | 73.7% | 633.5hPa | 2.7V | 00:00:00 | 03:12:42 | 00:00:00 | |
| OE5DRO-10 | 2026-09-05 13:41:41 | 47.95152 | 11.87889 | 90° | 69km/h | 4020m | -1.8m/s | -0.9°C | 73.8% | 633.2hPa | 2.6V | 00:00:00 | 00:00:00 | 00:00:00 | |
| DO3MHA-11 | 2026-09-05 13:41:39 | 47.95151 | 11.87836 | 87° | 69km/h | 4024m | -1.7m/s | -1.1°C | 74.6% | 633.0hPa | 2.6V | 00:00:00 | 03:12:38 | 00:00:00 | |
| DO3MHA-12 | 2026-09-05 13:41:38 | 47.95149 | 11.87809 | 87° | 69km/h | 4026m | -2.0m/s | -1.1°C | 74.6% | 632.9hPa | 2.6V | 00:00:00 | 03:12:37 | 00:00:00 | |
| DG1MJG | 2026-09-05 13:41:36 | 47.95149 | 11.87784 | 89° | 68km/h | 4028m | -2.1m/s | -1.1°C | 73.4% | 632.6hPa | 2.6V | 07:13:00 | 00:00:00 | 00:00:00 | |
| DO3MHA-11 | 2026-09-05 13:41:34 | 47.95149 | 11.87706 | 91° | 71km/h | 4034m | -1.9m/s | -1.1°C | 73.9% | 632.2hPa | 2.6V | 00:00:00 | 03:12:33 | 00:00:00 | |
| DO3MHA-12 | 2026-09-05 13:41:33 | 47.95148 | 11.87679 | 89° | 69km/h | 4036m | -1.9m/s | -1.1°C | 74.2% | 632.1hPa | 2.7V | 00:00:00 | 03:12:32 | 00:00:00 | |
| OE3JTB-15 | 2026-09-05 13:41:31 | 47.95146 | 11.87624 | 86° | 69km/h | 4040m | -1.9m/s | 0°C | 0% | 0hPa | 2.7V | 00:00:00 | 00:00:00 | 00:00:00 | |
| DO3MHA-11 | 2026-09-05 13:41:29 | 47.95144 | 11.87573 | 88° | 69km/h | 4044m | -2.1m/s | -1.1°C | 73.9% | 631.4hPa | 2.7V | 00:00:00 | 03:12:28 | 00:00:00 | |
| DB0NH | 2026-09-05 13:41:28 | 47.95143 | 11.87548 | 90° | 69km/h | 4046m | -2.0m/s | -1.2°C | 74.7% | 631.2hPa | 2.7V | 00:00:00 | 03:12:27 | 00:00:00 | |
| OE5DRO-10 | 2026-09-05 13:41:25 | 47.95143 | 11.87470 | 90° | 69km/h | 4052m | -2.2m/s | -1.2°C | 75.0% | 630.7hPa | 2.7V | 00:00:00 | 00:00:00 | 00:00:00 | |
| DO3MHA-11 | 2026-09-05 13:41:24 | 47.95142 | 11.87443 | 88° | 68km/h | 4054m | -2.1m/s | -1.2°C | 74.4% | 630.6hPa | 2.7V | 07:13:00 | 03:12:23 | 00:00:00 | |
| DO3MHA-12 | 2026-09-05 13:41:23 | 47.95141 | 11.87416 | 87° | 68km/h | 4057m | -1.9m/s | -1.2°C | 74.2% | 630.4hPa | 2.7V | 00:00:00 | 03:12:22 | 00:00:00 | |
| NBG1-10 | 2026-09-05 13:41:22 | 47.95140 | 11.87390 | 87° | 69km/h | 4058m | -1.8m/s | -1.3°C | 74.5% | 630.2hPa | 2.7V | 07:13:00 | 03:12:21 | 00:00:00 | |
| DO3MHA-11 | 2026-09-05 13:41:19 | 47.95140 | 11.87315 | 92° | 71km/h | 4064m | -2.0m/s | -1.3°C | 74.1% | 629.7hPa | 2.7V | 00:00:00 | 03:12:18 | 00:00:00 | |
| DO3MHA-12 | 2026-09-05 13:41:18 | 47.95140 | 11.87289 | 92° | 71km/h | 4066m | -2.2m/s | -1.3°C | 74.3% | 629.7hPa | 2.7V | 00:00:00 | 03:12:17 | 00:00:00 | |
| DO3MHA-11 | 2026-09-05 13:41:14 | 47.95137 | 11.87181 | 85° | 68km/h | 4075m | -2.1m/s | -1.5°C | 74.8% | 629.0hPa | 2.7V | 00:00:00 | 03:12:13 | 00:00:00 | |
| DO3MHA-12 | 2026-09-05 13:41:13 | 47.95136 | 11.87156 | 86° | 68km/h | 4076m | -1.9m/s | -1.4°C | 74.8% | 628.7hPa | 2.7V | 00:00:00 | 03:12:12 | 00:00:00 | |
| DG1MFX-10 | 2026-09-05 13:41:10 | 47.95134 | 11.87106 | 90° | 68km/h | 4080m | -2.0m/s | -1.5°C | 73.9% | 628.5hPa | 2.7V | 07:13:00 | 00:00:00 | 00:00:00 | |
| DO3MHA-11 | 2026-09-05 13:41:09 | 47.95134 | 11.87053 | 89° | 69km/h | 4084m | -1.8m/s | -1.6°C | 75.5% | 628.1hPa | 2.7V | 00:00:00 | 03:12:08 | 00:00:00 | |
| DO3MHA-12 | 2026-09-05 13:41:08 | 47.95133 | 11.87027 | 87° | 68km/h | 4086m | -1.8m/s | -1.5°C | 75.4% | 628.0hPa | 2.7V | 07:13:00 | 03:12:07 | 00:00:00 | |
| DG1MJG | 2026-09-05 13:41:06 | 47.95132 | 11.87000 | 86° | 69km/h | 4088m | -2.0m/s | -1.6°C | 74.4% | 627.9hPa | 2.7V | 07:13:00 | 00:00:00 | 00:00:00 | |
| DO3MHA-11 | 2026-09-05 13:41:04 | 47.95128 | 11.86924 | 89° | 69km/h | 4094m | -2.0m/s | -1.7°C | 75.9% | 627.4hPa | 2.7V | 00:00:00 | 03:12:03 | 00:00:00 | |
| DO3MHA-12 | 2026-09-05 13:41:03 | 47.95128 | 11.86899 | 91° | 71km/h | 4097m | -1.9m/s | -1.8°C | 76.4% | 627.2hPa | 2.6V | 00:00:00 | 03:12:02 | 00:00:00 | |
| OE3JTB-15 | 2026-09-05 13:41:02 | 47.95128 | 11.86873 | 92° | 71km/h | 4098m | -1.9m/s | 0°C | 0% | 0hPa | 2.6V | 00:00:00 | 03:12:01 | 00:00:00 | |
| DO3MHA-11 | 2026-09-05 13:40:59 | 47.95128 | 11.86791 | 87° | 69km/h | 4105m | -2.1m/s | -1.7°C | 76.0% | 626.6hPa | 2.6V | 00:00:00 | 03:11:58 | 00:00:00 | |
| DO3MHA-12 | 2026-09-05 13:40:58 | 47.95127 | 11.86764 | 86° | 68km/h | 4107m | -2.0m/s | -1.8°C | 76.1% | 626.4hPa | 2.6V | 00:00:00 | 03:11:57 | 00:00:00 | |
| DO3MHA-11 | 2026-09-05 13:40:54 | 47.95123 | 11.86662 | 91° | 69km/h | 4114m | -1.7m/s | -1.9°C | 76.3% | 625.7hPa | 2.6V | 00:00:00 | 03:11:53 | 00:00:00 | |
| DO3MHA-12 | 2026-09-05 13:40:53 | 47.95123 | 11.86636 | 91° | 69km/h | 4117m | -2.0m/s | -1.9°C | 76.7% | 625.6hPa | 2.6V | 00:00:00 | 03:11:52 | 00:00:00 | |
| DG1MFX-10 | 2026-09-05 13:40:50 | 47.95123 | 11.86583 | 89° | 71km/h | 4121m | -2.1m/s | -1.9°C | 75.6% | 625.4hPa | 2.6V | 07:14:00 | 00:00:00 | 00:00:00 | |
| DO3MHA-11 | 2026-09-05 13:40:49 | 47.95121 | 11.86531 | 87° | 69km/h | 4125m | -2.0m/s | -2.0°C | 77.3% | 625.0hPa | 2.6V | 00:00:00 | 03:11:48 | 00:00:00 | |
| DO3MHA-12 | 2026-09-05 13:40:48 | 47.95120 | 11.86506 | 88° | 69km/h | 4127m | -2.2m/s | -1.9°C | 76.7% | 624.8hPa | 2.7V | 00:00:00 | 03:11:47 | 00:00:00 | |
| DO3MHA-11 | 2026-09-05 13:40:44 | 47.95119 | 11.86400 | 89° | 71km/h | 4135m | -2.2m/s | -2.1°C | 77.3% | 624.2hPa | 2.7V | 07:14:00 | 03:11:43 | 00:00:00 | |
| DO3MHA-12 | 2026-09-05 13:40:43 | 47.95119 | 11.86372 | 87° | 71km/h | 4138m | -2.4m/s | -2.1°C | 77.5% | 623.9hPa | 2.7V | 00:00:00 | 03:11:42 | 00:00:00 | |
| DO3MHA-11 | 2026-09-05 13:40:39 | 47.95113 | 11.86266 | 88° | 69km/h | 4147m | -2.1m/s | -2.1°C | 77.1% | 623.2hPa | 2.7V | 00:00:00 | 03:11:38 | 00:00:00 | |
| DO3MHA-12 | 2026-09-05 13:40:38 | 47.95112 | 11.86241 | 90° | 71km/h | 4149m | -2.3m/s | -2.1°C | 77.3% | 623.1hPa | 2.7V | 00:00:00 | 03:11:37 | 00:00:00 | |
| OE5DRO-10 | 2026-09-05 13:40:37 | 47.95112 | 11.86216 | 91° | 71km/h | 4152m | -2.3m/s | -2.1°C | 77.5% | 622.9hPa | 2.7V | 00:00:00 | 00:00:00 | 00:00:00 | |
| DG1MJG | 2026-09-05 13:40:35 | 47.95112 | 11.86189 | 91° | 71km/h | 4154m | -2.4m/s | -2.2°C | 76.3% | 622.7hPa | 2.7V | 07:14:00 | 00:00:00 | 00:00:00 | |
| DO3MHA-11 | 2026-09-05 13:40:34 | 47.95112 | 11.86135 | 88° | 71km/h | 4158m | -2.3m/s | -2.2°C | 77.9% | 622.3hPa | 2.7V | 00:00:00 | 03:11:33 | 00:00:00 | |
| DO3MHA-12 | 2026-09-05 13:40:33 | 47.95111 | 11.86108 | 87° | 71km/h | 4161m | -2.3m/s | -2.3°C | 77.9% | 622.1hPa | 2.7V | 00:00:00 | 03:11:32 | 00:00:00 | |
| DO3MHA-11 | 2026-09-05 13:40:29 | 47.95109 | 11.86001 | 90° | 75km/h | 4170m | -2.3m/s | -2.4°C | 78.4% | 621.4hPa | 2.7V | 00:00:00 | 03:11:28 | 00:00:00 | |
| DO3MHA-12 | 2026-09-05 13:40:28 | 47.95108 | 11.85973 | 88° | 73km/h | 4173m | -2.3m/s | -2.4°C | 78.3% | 621.3hPa | 2.7V | 07:14:00 | 03:11:27 | 00:00:00 | |
| DO3MHA-11 | 2026-09-05 13:40:24 | 47.95101 | 11.85862 | 83° | 68km/h | 4182m | -2.3m/s | -2.5°C | 78.8% | 620.5hPa | 2.7V | 00:00:00 | 03:11:23 | 00:00:00 | |
| DO3MHA-12 | 2026-09-05 13:40:23 | 47.95099 | 11.85837 | 86° | 69km/h | 4185m | -2.3m/s | -2.5°C | 78.7% | 620.4hPa | 2.7V | 00:00:00 | 03:11:22 | 00:00:00 | |
| OE5DRO-10 | 2026-09-05 13:40:21 | 47.95098 | 11.85787 | 91° | 69km/h | 4189m | -2.0m/s | -2.5°C | 78.7% | 620.0hPa | 2.7V | 00:00:00 | 00:00:00 | 00:00:00 | |
| DO3MHA-11 | 2026-09-05 13:40:19 | 47.95098 | 11.85734 | 91° | 73km/h | 4193m | -2.4m/s | -2.6°C | 79.0% | 619.6hPa | 2.7V | 00:00:00 | 03:11:18 | 00:00:00 | |
| DO3MHA-12 | 2026-09-05 13:40:18 | 47.95098 | 11.85706 | 90° | 73km/h | 4196m | -2.7m/s | -2.6°C | 79.2% | 619.5hPa | 2.7V | 00:00:00 | 03:11:17 | 00:00:00 | |
| NBG1-10 | 2026-09-05 13:40:16 | 47.95096 | 11.85651 | 86° | 73km/h | 4201m | -2.4m/s | -2.7°C | 79.6% | 619.0hPa | 2.7V | 00:00:00 | 03:11:15 | 00:00:00 | |
| DO3MHA-11 | 2026-09-05 13:40:14 | 47.95094 | 11.85597 | 88° | 71km/h | 4206m | -2.6m/s | -2.7°C | 80.0% | 618.6hPa | 2.6V | 00:00:00 | 03:11:13 | 00:00:00 | |
| DO3MHA-11 | 2026-09-05 13:40:09 | 47.95094 | 11.85463 | 90° | 69km/h | 4221m | -2.6m/s | -2.9°C | 80.8% | 617.6hPa | 2.6V | 00:00:00 | 03:11:08 | 00:00:00 | |
| DO3MHA-12 | 2026-09-05 13:40:08 | 47.95094 | 11.85436 | 89° | 69km/h | 4223m | -2.8m/s | -2.8°C | 80.5% | 617.3hPa | 2.6V | 00:00:00 | 03:11:07 | 00:00:00 | |
| OE5DRO-10 | 2026-09-05 13:40:05 | 47.95094 | 11.85358 | 93° | 73km/h | 4232m | -2.8m/s | -2.9°C | 80.7% | 616.7hPa | 2.6V | 00:00:00 | 00:00:00 | 00:00:00 | |
| DO3MHA-11 | 2026-09-05 13:40:04 | 47.95095 | 11.85332 | 94° | 73km/h | 4235m | -2.5m/s | -2.9°C | 80.7% | 616.4hPa | 2.6V | 07:14:00 | 03:11:03 | 00:00:00 | |
| DO3MHA-12 | 2026-09-05 13:40:03 | 47.95096 | 11.85306 | 94° | 75km/h | 4237m | -2.6m/s | -2.9°C | 80.9% | 616.2hPa | 2.7V | 00:00:00 | 03:11:02 | 00:00:00 | |
| DL6DJ-15 | 2026-09-05 13:39:52 | 47.95106 | 11.84972 | 91° | 75km/h | 4269m | -3.0m/s | -3.4°C | 80.1% | 613.8hPa | 2.7V | 00:00:00 | 00:00:00 | 00:00:00 | |
| DO3MHA-11 | 2026-09-05 13:39:49 | 47.95106 | 11.84916 | 91° | 71km/h | 4275m | -2.5m/s | -3.4°C | 81.2% | 613.4hPa | 2.7V | 00:00:00 | 03:10:48 | 00:00:00 | |
| DO3MHA-12 | 2026-09-05 13:39:48 | 47.95107 | 11.84890 | 92° | 71km/h | 4277m | -2.5m/s | -3.5°C | 80.9% | 613.2hPa | 2.7V | 07:15:00 | 03:10:47 | 00:00:00 | |
| OE5DXL-15 | 2026-09-05 13:39:44 | 47.95111 | 11.84781 | 92° | 71km/h | 4287m | -2.5m/s | -3.5°C | 82.9% | 612.3hPa | 2.7V | 00:00:00 | 00:00:00 | 00:00:00 | |
| DO3MHA-12 | 2026-09-05 13:39:43 | 47.95111 | 11.84753 | 90° | 71km/h | 4290m | -2.6m/s | -3.5°C | 83.1% | 612.0hPa | 2.7V | 00:00:00 | 03:10:42 | 00:00:00 | |
| DO3MHA-11 | 2026-09-05 13:39:39 | 47.95110 | 11.84646 | 91° | 71km/h | 4302m | -3.2m/s | -3.7°C | 83.9% | 611.2hPa | 2.7V | 00:00:00 | 03:10:38 | 00:00:00 | |
| DO3MHA-12 | 2026-09-05 13:39:38 | 47.95111 | 11.84620 | 93° | 73km/h | 4305m | -2.8m/s | -3.8°C | 84.2% | 610.9hPa | 2.7V | 00:00:00 | 03:10:37 | 00:00:00 | |
| DG1MJG | 2026-09-05 13:39:35 | 47.95113 | 11.84538 | 92° | 75km/h | 4314m | -2.8m/s | -3.8°C | 82.5% | 610.4hPa | 2.7V | 07:15:00 | 00:00:00 | 00:00:00 | |
| DO3MHA-11 | 2026-09-05 13:39:34 | 47.95114 | 11.84509 | 90° | 71km/h | 4316m | -2.9m/s | -3.8°C | 84.5% | 610.2hPa | 2.7V | 00:00:00 | 03:10:33 | 00:00:00 | |
| DO3MHA-12 | 2026-09-05 13:39:33 | 47.95113 | 11.84481 | 89° | 71km/h | 4319m | -2.7m/s | -3.9°C | 84.3% | 609.8hPa | 2.7V | 00:00:00 | 03:10:32 | 00:00:00 | |
| DO3MHA-11 | 2026-09-05 13:39:29 | 47.95114 | 11.84376 | 94° | 71km/h | 4330m | -2.5m/s | -4.0°C | 85.6% | 609.1hPa | 2.7V | 00:00:00 | 03:10:28 | 00:00:00 | |
| DO3MHA-12 | 2026-09-05 13:39:28 | 47.95116 | 11.84349 | 95° | 71km/h | 4332m | -2.7m/s | -4.0°C | 85.7% | 608.9hPa | 2.7V | 00:00:00 | 03:10:27 | 00:00:00 | |
| DG1MFX-10 | 2026-09-05 13:39:27 | 47.95116 | 11.84349 | 96° | 71km/h | 4332m | -2.7m/s | -4.1°C | 84.3% | 609.0hPa | 2.7V | 07:15:00 | 00:00:00 | 00:00:00 | |
| DO3MHA-11 | 2026-09-05 13:39:24 | 47.95120 | 11.84241 | 93° | 71km/h | 4344m | -2.8m/s | -4.1°C | 85.1% | 608.0hPa | 2.7V | 07:15:00 | 03:10:23 | 00:00:00 | |
| DO3MHA-12 | 2026-09-05 13:39:23 | 47.95121 | 11.84215 | 94° | 73km/h | 4347m | -2.9m/s | -4.1°C | 84.3% | 607.7hPa | 2.7V | 00:00:00 | 03:10:22 | 00:00:00 | |
| DL6DJ-15 | 2026-09-05 13:39:21 | 47.95127 | 11.84134 | 95° | 75km/h | 4356m | -2.9m/s | -4.3°C | 84.1% | 607.1hPa | 2.7V | 00:00:00 | 00:00:00 | 00:00:00 | |
| DO3MHA-11 | 2026-09-05 13:39:19 | 47.95128 | 11.84105 | 95° | 73km/h | 4359m | -2.8m/s | -4.2°C | 85.0% | 606.8hPa | 2.7V | 00:00:00 | 03:10:18 | 00:00:00 | |
| DO3MHA-12 | 2026-09-05 13:39:18 | 47.95129 | 11.84076 | 93° | 71km/h | 4362m | -3.0m/s | -4.3°C | 85.0% | 606.5hPa | 2.7V | 00:00:00 | 03:10:17 | 00:00:00 | |
| OE5DRO-10 | 2026-09-05 13:39:17 | 47.95130 | 11.84047 | 91° | 71km/h | 4365m | -3.1m/s | -4.3°C | 84.8% | 606.4hPa | 2.7V | 00:00:00 | 00:00:00 | 00:00:00 | |
| DO3MHA-11 | 2026-09-05 13:39:14 | 47.95131 | 11.83968 | 94° | 69km/h | 4373m | -2.7m/s | -4.3°C | 81.6% | 605.6hPa | 2.7V | 00:00:00 | 03:10:13 | 00:00:00 | |
| DO3MHA-12 | 2026-09-05 13:39:13 | 47.95132 | 11.83943 | 96° | 71km/h | 4376m | -2.7m/s | -4.4°C | 82.7% | 605.5hPa | 2.7V | 00:00:00 | 03:10:12 | 00:00:00 | |
| NBG1-10 | 2026-09-05 13:39:10 | 47.95138 | 11.83863 | 96° | 71km/h | 4384m | -2.8m/s | -4.5°C | 82.0% | 604.8hPa | 2.7V | 00:00:00 | 03:10:09 | 00:00:00 | |
| DO3MHA-11 | 2026-09-05 13:39:09 | 47.95139 | 11.83836 | 94° | 71km/h | 4387m | -2.6m/s | -4.5°C | 82.4% | 604.6hPa | 2.7V | 00:00:00 | 03:10:08 | 00:00:00 | |
| DO3MHA-12 | 2026-09-05 13:39:08 | 47.95140 | 11.83808 | 93° | 71km/h | 4389m | -2.6m/s | -4.5°C | 82.0% | 604.3hPa | 2.7V | 07:15:00 | 03:10:07 | 00:00:00 | |
| DG1MFX-10 | 2026-09-05 13:39:06 | 47.95141 | 11.83781 | 94° | 71km/h | 4392m | -2.6m/s | -4.5°C | 78.8% | 604.2hPa | 2.7V | 07:16:00 | 00:00:00 | 00:00:00 | |
| OE3JTB-15 | 2026-09-05 13:39:05 | 47.95144 | 11.83728 | 96° | 157km/h | 4397m | -2.6m/s | 0°C | 0% | 0hPa | 2.7V | 00:00:00 | 00:00:00 | 00:00:00 | |
| DO3MHA-11 | 2026-09-05 13:39:04 | 47.95146 | 11.83701 | 97° | 73km/h | 4400m | -2.8m/s | -4.6°C | 84.2% | 603.6hPa | 2.7V | 00:00:00 | 03:10:03 | 00:00:00 | |
| DO3MHA-12 | 2026-09-05 13:39:03 | 47.95148 | 11.83673 | 96° | 73km/h | 4403m | -2.6m/s | -4.6°C | 85.4% | 603.4hPa | 2.7V | 00:00:00 | 03:10:02 | 00:00:00 | |
| DL6DJ-15 | 2026-09-05 13:38:50 | 47.95163 | 11.83298 | 96° | 68km/h | 4442m | -2.9m/s | -5.1°C | 84.1% | 600.5hPa | 2.7V | 00:00:00 | 00:00:00 | 00:00:00 | |
| DO3MHA-12 | 2026-09-05 13:38:48 | 47.95165 | 11.83272 | 98° | 71km/h | 4445m | -2.8m/s | -5.0°C | 86.5% | 600.2hPa | 2.7V | 00:00:00 | 03:09:47 | 00:00:00 | |
| DG1MFX-10 | 2026-09-05 13:38:46 | 47.95167 | 11.83245 | 97° | 73km/h | 4448m | -2.9m/s | -5.2°C | 85.1% | 600.0hPa | 2.7V | 07:16:00 | 00:00:00 | 00:00:00 | |
| OE5DRO-10 | 2026-09-05 13:38:45 | 47.95170 | 11.83191 | 94° | 68km/h | 4453m | -2.8m/s | -5.2°C | 89.0% | 599.5hPa | 2.7V | 00:00:00 | 00:00:00 | 00:00:00 | |
| OE5DXL-15 | 2026-09-05 13:38:44 | 47.95171 | 11.83165 | 94° | 69km/h | 4456m | -3.0m/s | -5.1°C | 87.6% | 599.2hPa | 2.7V | 00:00:00 | 00:00:00 | 00:00:00 | |
| DO3MHA-11 | 2026-09-05 13:38:43 | 47.95172 | 11.83140 | 95° | 68km/h | 4459m | -2.9m/s | -5.2°C | 89.5% | 599.1hPa | 2.7V | 07:16:00 | 03:09:42 | 00:00:00 | |
| DO3MHA-11 | 2026-09-05 13:38:38 | 47.95182 | 11.83014 | 95° | 68km/h | 4475m | -2.8m/s | -5.2°C | 91.4% | 598.0hPa | 2.7V | 00:00:00 | 03:09:37 | 00:00:00 | |
| NBG1-10 | 2026-09-05 13:38:37 | 47.95183 | 11.82988 | 94° | 68km/h | 4478m | -2.6m/s | -5.2°C | 75.8% | 597.8hPa | 2.7V | 00:00:00 | 03:09:36 | 00:00:00 | |
| DO3MHA-11 | 2026-09-05 13:38:33 | 47.95188 | 11.82888 | 97° | 71km/h | 4489m | -2.7m/s | -5.2°C | 65.2% | 596.8hPa | 2.7V | 00:00:00 | 03:09:32 | 00:00:00 | |
| OE5DRO-10 | 2026-09-05 13:38:29 | 47.95193 | 11.82780 | 92° | 69km/h | 4500m | -2.7m/s | -5.3°C | 60.0% | 596.0hPa | 2.6V | 00:00:00 | 00:00:00 | 00:00:00 | |
| DO3MHA-12 | 2026-09-05 13:38:28 | 47.95194 | 11.82754 | 92° | 68km/h | 4503m | -3.1m/s | -5.3°C | 60.1% | 595.7hPa | 2.6V | 07:16:00 | 03:09:27 | 00:00:00 | |
| DG1MFX-10 | 2026-09-05 13:38:25 | 47.95196 | 11.82704 | 97° | 64km/h | 4509m | -2.8m/s | -5.5°C | 69.3% | 595.4hPa | 2.6V | 07:17:00 | 00:00:00 | 00:00:00 | |
| DO3MHA-11 | 2026-09-05 13:38:23 | 47.95205 | 11.82629 | 102° | 75km/h | 4518m | -3.1m/s | -5.6°C | 77.6% | 594.6hPa | 2.6V | 00:00:00 | 03:09:22 | 00:00:00 | |
| DO3MHA-11 | 2026-09-05 13:38:18 | 47.95216 | 11.82489 | 91° | 66km/h | 4533m | -3.1m/s | -5.8°C | 81.4% | 593.4hPa | 2.6V | 00:00:00 | 03:09:17 | 00:00:00 | |
| OE5DXL-15 | 2026-09-05 13:38:14 | 47.95218 | 11.82391 | 97° | 68km/h | 4545m | -3.2m/s | -5.4°C | 40.7% | 592.6hPa | 2.7V | 00:00:00 | 03:09:13 | 00:00:00 | |
| DO3MHA-11 | 2026-09-05 13:38:13 | 47.95220 | 11.82368 | 99° | 64km/h | 4549m | -3.2m/s | -5.5°C | 40.6% | 592.3hPa | 2.7V | 00:00:00 | 03:09:12 | 00:00:00 | |
| DO3MHA-11 | 2026-09-05 13:38:08 | 47.95235 | 11.82249 | 101° | 66km/h | 4565m | -3.2m/s | -5.6°C | 49.3% | 591.1hPa | 2.7V | 00:00:00 | 03:09:07 | 00:00:00 | |
| DG1MFX-10 | 2026-09-05 13:38:05 | 47.95241 | 11.82199 | 100° | 66km/h | 4571m | -2.7m/s | -5.7°C | 52.4% | 590.6hPa | 2.7V | 07:17:00 | 00:00:00 | 00:00:00 | |
| NBG1-10 | 2026-09-05 13:38:04 | 47.95246 | 11.82151 | 100° | 69km/h | 4577m | -3.2m/s | -5.7°C | 63.8% | 590.2hPa | 2.7V | 00:00:00 | 03:09:03 | 00:00:00 | |
| DO3MHA-11 | 2026-09-05 13:38:03 | 47.95249 | 11.82127 | 102° | 68km/h | 4580m | -3.3m/s | -5.7°C | 63.1% | 590.0hPa | 2.7V | 07:16:00 | 03:09:02 | 00:00:00 | |
| DL6DJ-15 | 2026-09-05 13:37:48 | 47.95301 | 11.81724 | 103° | 68km/h | 4627m | -2.9m/s | -5.2°C | 29.1% | 586.4hPa | 2.6V | 00:00:00 | 00:00:00 | 00:00:00 | |
| DG1MFX-10 | 2026-09-05 13:37:45 | 47.95304 | 11.81699 | 106° | 69km/h | 4631m | -2.8m/s | -5.2°C | 27.2% | 586.2hPa | 2.6V | 07:17:00 | 00:00:00 | 00:00:00 | |
| OE5DXL-15 | 2026-09-05 13:37:44 | 47.95314 | 11.81648 | 105° | 71km/h | 4636m | -2.9m/s | -5.0°C | 15.8% | 585.7hPa | 2.6V | 07:17:00 | 00:00:00 | 00:00:00 | |
| OE5DRO-10 | 2026-09-05 13:37:41 | 47.95326 | 11.81569 | 102° | 69km/h | 4645m | -2.8m/s | -5.0°C | 8.5% | 585.0hPa | 2.6V | 00:00:00 | 00:00:00 | 00:00:00 | |
| DO3MHA-12 | 2026-09-05 13:37:38 | 47.95338 | 11.81494 | 107° | 71km/h | 4653m | -2.9m/s | -4.9°C | 2.4% | 584.4hPa | 2.6V | 00:00:00 | 03:08:37 | 00:00:00 | |
| DG1MJG | 2026-09-05 13:37:33 | 47.95361 | 11.81364 | 104° | 69km/h | 4668m | -2.7m/s | -4.9°C | 2.0% | 583.5hPa | 2.6V | 07:18:00 | 00:00:00 | 00:00:00 | |
| NBG1-10 | 2026-09-05 13:37:31 | 47.95369 | 11.81315 | 107° | 71km/h | 4673m | -2.6m/s | -4.9°C | 2.1% | 582.9hPa | 2.6V | 00:00:00 | 03:08:30 | 00:00:00 | |
| DO3MHA-11 | 2026-09-05 13:37:28 | 47.95385 | 11.81238 | 107° | 71km/h | 4682m | -2.9m/s | -4.9°C | 2.1% | 582.3hPa | 2.6V | 00:00:00 | 03:08:27 | 00:00:00 | |
| OE5DRO-10 | 2026-09-05 13:37:25 | 47.95399 | 11.81159 | 105° | 71km/h | 4690m | -2.6m/s | -4.9°C | 2.0% | 581.7hPa | 2.6V | 00:00:00 | 00:00:00 | 00:00:00 | |
| DG1MFX-10 | 2026-09-05 13:37:24 | 47.95399 | 11.81159 | 105° | 69km/h | 4690m | -2.7m/s | -4.9°C | 2.0% | 581.7hPa | 2.7V | 07:18:00 | 00:00:00 | 00:00:00 | |
| DO3MHA-11 | 2026-09-05 13:37:23 | 47.95408 | 11.81110 | 108° | 71km/h | 4696m | -2.8m/s | -4.7°C | 2.0% | 581.3hPa | 2.7V | 07:17:00 | 03:08:22 | 00:00:00 | |
| DO3MHA-12 | 2026-09-05 13:37:18 | 47.95435 | 11.80981 | 104° | 68km/h | 4709m | -2.5m/s | -4.6°C | 2.0% | 580.3hPa | 2.7V | 00:00:00 | 03:08:17 | 00:00:00 | |
| DL6DJ-15 | 2026-09-05 13:37:16 | 47.95444 | 11.80930 | 104° | 66km/h | 4714m | -2.8m/s | -4.6°C | 1.9% | 580.0hPa | 2.7V | 00:00:00 | 00:00:00 | 00:00:00 | |
| OE5DXL-15 | 2026-09-05 13:37:14 | 47.95453 | 11.80881 | 108° | 73km/h | 4720m | -2.6m/s | -4.5°C | 2.0% | 579.5hPa | 2.7V | 00:00:00 | 00:00:00 | 00:00:00 | |
| DO3MHA-11 | 2026-09-05 13:37:13 | 47.95458 | 11.80857 | 109° | 71km/h | 4723m | -2.6m/s | -4.6°C | 2.0% | 579.3hPa | 2.7V | 00:00:00 | 03:08:12 | 00:00:00 | |
| OE5DRO-10 | 2026-09-05 13:37:09 | 47.95479 | 11.80753 | 105° | 71km/h | 4733m | -2.5m/s | -4.6°C | 2.0% | 578.6hPa | 2.7V | 00:00:00 | 00:00:00 | 00:00:00 | |
| DO3MHA-11 | 2026-09-05 13:37:08 | 47.95484 | 11.80727 | 106° | 69km/h | 4736m | -2.4m/s | -4.6°C | 2.0% | 578.4hPa | 2.7V | 00:00:00 | 03:08:07 | 00:00:00 | |
| DG1MFX-10 | 2026-09-05 13:37:04 | 47.95500 | 11.80653 | 112° | 71km/h | 4744m | -2.6m/s | -4.6°C | 2.0% | 577.9hPa | 2.7V | 07:18:00 | 00:00:00 | 00:00:00 | |
| DO3MHA-11 | 2026-09-05 13:37:03 | 47.95513 | 11.80601 | 108° | 73km/h | 4749m | -2.6m/s | -4.6°C | 2.1% | 577.4hPa | 2.7V | 00:00:00 | 03:08:02 | 00:00:00 | |
| DG1MJG | 2026-09-05 13:37:02 | 47.95513 | 11.80601 | 109° | 75km/h | 4749m | -2.6m/s | -4.6°C | 2.0% | 577.4hPa | 2.6V | 07:18:00 | 00:00:00 | 00:00:00 | |
| DL6DJ-15 | 2026-09-05 13:36:45 | 47.95619 | 11.80125 | 105° | 75km/h | 4793m | -2.3m/s | -4.9°C | 2.2% | 574.1hPa | 2.6V | 00:00:00 | 00:00:00 | 00:00:00 | |
| OE5DXL-15 | 2026-09-05 13:36:44 | 47.95624 | 11.80098 | 106° | 75km/h | 4796m | -2.2m/s | -4.8°C | 2.3% | 573.9hPa | 2.6V | 00:00:00 | 00:00:00 | 00:00:00 | |
| DO3MHA-11 | 2026-09-05 13:36:38 | 47.95660 | 11.79936 | 107° | 75km/h | 4810m | -2.3m/s | -4.9°C | 3.5% | 572.9hPa | 2.6V | 00:00:00 | 03:07:37 | 00:00:00 | |
| OE5DRO-10 | 2026-09-05 13:36:37 | 47.95665 | 11.79908 | 106° | 75km/h | 4812m | -2.1m/s | -4.8°C | 3.9% | 572.7hPa | 2.6V | 00:00:00 | 00:00:00 | 00:00:00 | |
| DO3MHA-11 | 2026-09-05 13:36:33 | 47.95688 | 11.79800 | 110° | 77km/h | 4821m | -2.4m/s | -4.8°C | 4.5% | 572.1hPa | 2.7V | 00:00:00 | 03:07:32 | 00:00:00 | |
| DG1MJG | 2026-09-05 13:36:31 | 47.95695 | 11.79772 | 109° | 78km/h | 4824m | -2.5m/s | -4.9°C | 4.4% | 572.0hPa | 2.6V | 07:18:00 | 00:00:00 | 00:00:00 | |
| DO3MHA-12 | 2026-09-05 13:36:28 | 47.95714 | 11.79662 | 105° | 71km/h | 4833m | -2.4m/s | -4.7°C | 5.0% | 571.2hPa | 2.6V | 07:18:00 | 03:07:27 | 00:00:00 | |
| NBG1-10 | 2026-09-05 13:36:25 | 47.95730 | 11.79585 | 108° | 69km/h | 4840m | -2.2m/s | -4.7°C | 5.1% | 570.8hPa | 2.7V | 00:00:00 | 03:07:24 | 00:00:00 | |
| DO3MHA-11 | 2026-09-05 13:36:23 | 47.95740 | 11.79531 | 106° | 71km/h | 4844m | -2.2m/s | -4.7°C | 5.1% | 570.3hPa | 2.7V | 00:00:00 | 03:07:22 | 00:00:00 | |
| OE5DRO-10 | 2026-09-05 13:36:21 | 47.95750 | 11.79477 | 104° | 71km/h | 4849m | -2.4m/s | -4.7°C | 5.4% | 570.0hPa | 2.7V | 00:00:00 | 00:00:00 | 00:00:00 | |
| DO3MHA-11 | 2026-09-05 13:36:18 | 47.95764 | 11.79401 | 107° | 73km/h | 4856m | -2.3m/s | -4.6°C | 6.1% | 569.5hPa | 2.7V | 00:00:00 | 03:07:17 | 00:00:00 | |
| OE5DXL-15 | 2026-09-05 13:36:14 | 47.95782 | 11.79295 | 103° | 68km/h | 4865m | -2.3m/s | -4.7°C | 6.2% | 568.9hPa | 2.7V | 00:00:00 | 00:00:00 | 00:00:00 | |
| DO3MHA-12 | 2026-09-05 13:36:13 | 47.95786 | 11.79268 | 102° | 68km/h | 4867m | -2.3m/s | -4.6°C | 6.1% | 568.7hPa | 2.7V | 00:00:00 | 03:07:12 | 00:00:00 | |
| DO3MHA-11 | 2026-09-05 13:36:08 | 47.95808 | 11.79144 | 108° | 71km/h | 4879m | -2.1m/s | -4.6°C | 6.0% | 567.9hPa | 2.6V | 00:00:00 | 03:07:07 | 00:00:00 | |
| OE5DRO-10 | 2026-09-05 13:36:05 | 47.95822 | 11.79066 | 103° | 68km/h | 4885m | -2.2m/s | -4.6°C | 5.8% | 567.4hPa | 2.6V | 00:00:00 | 00:00:00 | 00:00:00 | |
| DO3MHA-11 | 2026-09-05 13:36:03 | 47.95830 | 11.79016 | 103° | 68km/h | 4890m | -2.2m/s | -4.5°C | 5.6% | 567.1hPa | 2.6V | 07:18:00 | 03:07:02 | 00:00:00 | |
| DG1MJG | 2026-09-05 13:36:00 | 47.95838 | 11.78968 | 108° | 66km/h | 4894m | -2.1m/s | -4.6°C | 5.4% | 566.8hPa | 2.7V | 07:18:00 | 00:00:00 | 00:00:00 | |
| DO3MHA-12 | 2026-09-05 13:35:58 | 47.95853 | 11.78893 | 105° | 68km/h | 4901m | -2.1m/s | -4.6°C | 5.6% | 566.3hPa | 2.7V | 00:00:00 | 03:06:57 | 00:00:00 | |
| DO3MHA-12 | 2026-09-05 13:35:53 | 47.95874 | 11.78770 | 108° | 66km/h | 4911m | -2.1m/s | -4.7°C | 5.6% | 565.6hPa | 2.6V | 00:00:00 | 03:06:52 | 00:00:00 | |
| NBG1-10 | 2026-09-05 13:35:52 | 47.95879 | 11.78746 | 108° | 66km/h | 4913m | -2.1m/s | -4.7°C | 5.6% | 565.4hPa | 2.6V | 00:00:00 | 03:06:51 | 00:00:00 | |
| OE5DRO-10 | 2026-09-05 13:35:49 | 47.95892 | 11.78673 | 104° | 66km/h | 4919m | -1.9m/s | -4.7°C | 5.8% | 564.9hPa | 2.6V | 00:00:00 | 00:00:00 | 00:00:00 | |
| DO3MHA-11 | 2026-09-05 13:35:48 | 47.95896 | 11.78650 | 104° | 64km/h | 4922m | -2.2m/s | -4.6°C | 5.8% | 564.8hPa | 2.6V | 00:00:00 | 03:06:47 | 00:00:00 | |
| OE5DXL-15 | 2026-09-05 13:35:44 | 47.95915 | 11.78558 | 108° | 66km/h | 4930m | -2.0m/s | -4.7°C | 6.1% | 564.2hPa | 2.7V | 00:00:00 | 00:00:00 | 00:00:00 | |
| DO3MHA-12 | 2026-09-05 13:35:43 | 47.95920 | 11.78534 | 107° | 66km/h | 4932m | -2.0m/s | -4.7°C | 6.1% | 564.1hPa | 2.7V | 00:00:00 | 03:06:42 | 00:00:00 | |
| DG1MFX-10 | 2026-09-05 13:35:42 | 47.95920 | 11.78534 | 108° | 68km/h | 4932m | -2.1m/s | -4.7°C | 5.9% | 564.1hPa | 2.7V | 07:19:00 | 00:00:00 | 00:00:00 | |
| DO3MHA-11 | 2026-09-05 13:35:38 | 47.95941 | 11.78416 | 108° | 68km/h | 4942m | -2.0m/s | -4.8°C | 6.4% | 563.3hPa | 2.7V | 00:00:00 | 03:06:37 | 00:00:00 | |
| DO3MHA-11 | 2026-09-05 13:35:33 | 47.95964 | 11.78294 | 103° | 64km/h | 4953m | -2.1m/s | -4.8°C | 6.5% | 562.5hPa | 2.7V | 00:00:00 | 03:06:32 | 00:00:00 | |
| DB0ND-19 | 2026-09-05 13:35:30 | 47.95982 | 11.78202 | 108° | 66km/h | 4961m | -2.0m/s | -4.6°C | 5.8% | 562.0hPa | 2.7V | 00:00:00 | 00:00:00 | 00:00:00 | |
| DO3MHA-11 | 2026-09-05 13:35:28 | 47.95988 | 11.78178 | 108° | 66km/h | 4963m | -2.1m/s | -4.6°C | 6.0% | 561.8hPa | 2.7V | 00:00:00 | 03:06:27 | 00:00:00 | |
| DO3MHA-11 | 2026-09-05 13:35:23 | 47.96011 | 11.78062 | 110° | 68km/h | 4973m | -2.0m/s | -4.5°C | 7.7% | 561.1hPa | 2.7V | 07:19:00 | 03:06:22 | 00:00:00 | |
| DG1MFX-10 | 2026-09-05 13:35:21 | 47.96017 | 11.78039 | 112° | 66km/h | 4975m | -2.1m/s | -4.7°C | 8.2% | 560.9hPa | 2.7V | 07:19:00 | 00:00:00 | 00:00:00 | |
| NBG1-10 | 2026-09-05 13:35:19 | 47.96034 | 11.77966 | 107° | 68km/h | 4981m | -2.0m/s | -4.6°C | 9.7% | 560.5hPa | 2.7V | 00:00:00 | 03:06:18 | 00:00:00 | |
| DO3MHA-12 | 2026-09-05 13:35:18 | 47.96038 | 11.77941 | 105° | 66km/h | 4983m | -2.1m/s | -4.6°C | 9.8% | 560.2hPa | 2.7V | 00:00:00 | 03:06:17 | 00:00:00 | |
| OE5DRO-10 | 2026-09-05 13:35:17 | 47.96043 | 11.77916 | 106° | 68km/h | 4986m | -2.0m/s | -4.6°C | 9.8% | 560.1hPa | 2.7V | 00:00:00 | 00:00:00 | 00:00:00 | |
| OE5DXL-15 | 2026-09-05 13:35:14 | 47.96057 | 11.77847 | 111° | 69km/h | 4992m | -2.0m/s | -4.6°C | 9.7% | 559.8hPa | 2.7V | 00:00:00 | 00:00:00 | 00:00:00 | |
| DO3MHA-12 | 2026-09-05 13:35:13 | 47.96063 | 11.77823 | 111° | 69km/h | 4994m | -2.0m/s | -4.7°C | 9.8% | 559.6hPa | 2.7V | 00:00:00 | 03:06:12 | 00:00:00 | |
| DL6DJ-15 | 2026-09-05 13:35:12 | 47.96069 | 11.77799 | 110° | 69km/h | 4996m | -2.1m/s | -4.7°C | 9.4% | 559.4hPa | 2.7V | 00:00:00 | 00:00:00 | 00:00:00 | |
| DO3MHA-11 | 2026-09-05 13:35:08 | 47.96090 | 11.77701 | 107° | 66km/h | 5004m | -1.9m/s | -4.7°C | 9.7% | 558.9hPa | 2.7V | 00:00:00 | 03:06:07 | 00:00:00 | |
| DO3MHA-11 | 2026-09-05 13:35:03 | 47.96119 | 11.77582 | 109° | 69km/h | 5014m | -1.8m/s | -4.7°C | 10.0% | 558.2hPa | 2.7V | 00:00:00 | 03:06:02 | 00:00:00 | |
| DG1MFX-10 | 2026-09-05 13:35:01 | 47.96125 | 11.77556 | 108° | 71km/h | 5016m | -1.9m/s | -4.9°C | 9.8% | 558.0hPa | 2.7V | 07:20:00 | 00:00:00 | 00:00:00 | |
| DB0ND-19 | 2026-09-05 13:34:59 | 47.96140 | 11.77483 | 108° | 66km/h | 5022m | -2.1m/s | -4.8°C | 9.8% | 557.5hPa | 2.7V | 00:00:00 | 00:00:00 | 00:00:00 | |
| DO3MHA-11 | 2026-09-05 13:34:58 | 47.96145 | 11.77459 | 111° | 71km/h | 5024m | -1.8m/s | -4.8°C | 10.2% | 557.6hPa | 2.7V | 00:00:00 | 03:05:57 | 00:00:00 | |
| OE5WHR-10 | 2026-09-05 13:34:55 | 47.96163 | 11.77383 | 108° | 71km/h | 5030m | -2.0m/s | -4.9°C | 10.2% | 557.2hPa | 2.7V | 00:00:00 | 03:05:54 | 00:00:00 | |
| DO3MHA-11 | 2026-09-05 13:34:53 | 47.96173 | 11.77332 | 105° | 68km/h | 5033m | -1.9m/s | -4.8°C | 10.2% | 556.7hPa | 2.7V | 00:00:00 | 03:05:52 | 00:00:00 | |
| DO3MHA-11 | 2026-09-05 13:34:48 | 47.96200 | 11.77210 | 111° | 69km/h | 5043m | -1.9m/s | -4.9°C | 10.1% | 556.1hPa | 2.7V | 00:00:00 | 03:05:47 | 00:00:00 | |
| NBG1-10 | 2026-09-05 13:34:46 | 47.96212 | 11.77158 | 107° | 71km/h | 5047m | -2.0m/s | -5.1°C | 10.2% | 555.8hPa | 2.7V | 00:00:00 | 03:05:45 | 00:00:00 | |
| OE5DRO-10 | 2026-09-05 13:34:45 | 47.96217 | 11.77133 | 106° | 69km/h | 5049m | -1.9m/s | -5.0°C | 10.2% | 555.7hPa | 2.7V | 07:20:00 | 00:00:00 | 00:00:00 | |
| OE5DXL-15 | 2026-09-05 13:34:44 | 47.96222 | 11.77108 | 107° | 69km/h | 5051m | -1.9m/s | -5.0°C | 10.2% | 555.6hPa | 2.7V | 00:00:00 | 00:00:00 | 00:00:00 | |
| DO3MHA-11 | 2026-09-05 13:34:43 | 47.96227 | 11.77085 | 109° | 69km/h | 5053m | -1.8m/s | -5.0°C | 10.2% | 555.4hPa | 2.7V | 07:20:00 | 03:05:42 | 00:00:00 | |
| DL6DJ-15 | 2026-09-05 13:34:41 | 47.96239 | 11.77039 | 112° | 68km/h | 5056m | -1.9m/s | -5.0°C | 9.8% | 555.1hPa | 2.7V | 00:00:00 | 00:00:00 | 00:00:00 | |
| DG1MFX-10 | 2026-09-05 13:34:40 | 47.96239 | 11.77039 | 113° | 68km/h | 5057m | -1.9m/s | -5.0°C | 9.8% | 555.1hPa | 2.7V | 07:20:00 | 00:00:00 | 00:00:00 | |
| DO3MHA-12 | 2026-09-05 13:34:38 | 47.96258 | 11.76963 | 108° | 69km/h | 5062m | -1.7m/s | -5.1°C | 9.3% | 554.7hPa | 2.7V | 00:00:00 | 03:05:37 | 00:00:00 | |
| OE5WHR-10 | 2026-09-05 13:34:35 | 47.96273 | 11.76886 | 108° | 69km/h | 5068m | -1.9m/s | -5.1°C | 9.1% | 554.3hPa | 2.7V | 00:00:00 | 00:00:00 | 00:00:00 | |
| DO3MHA-11 | 2026-09-05 13:34:33 | 47.96284 | 11.76838 | 112° | 71km/h | 5072m | -1.8m/s | -5.1°C | 8.6% | 554.1hPa | 2.6V | 00:00:00 | 03:05:32 | 00:00:00 | |
| OE5DRO-10 | 2026-09-05 13:34:29 | 47.96310 | 11.76737 | 109° | 71km/h | 5080m | -1.9m/s | -5.2°C | 9.3% | 553.5hPa | 2.6V | 00:00:00 | 00:00:00 | 00:00:00 | |
| DO3MHA-11 | 2026-09-05 13:34:28 | 47.96316 | 11.76712 | 108° | 69km/h | 5082m | -1.7m/s | -5.2°C | 9.5% | 553.3hPa | 2.6V | 00:00:00 | 03:05:27 | 00:00:00 | |
| DO3MHA-11 | 2026-09-05 13:34:23 | 47.96348 | 11.76589 | 112° | 73km/h | 5092m | -2.2m/s | -5.3°C | 9.9% | 552.7hPa | 2.6V | 00:00:00 | 03:05:22 | 00:00:00 | |
| DG1MFX-10 | 2026-09-05 13:34:19 | 47.96367 | 11.76510 | 108° | 71km/h | 5098m | -1.9m/s | -5.3°C | 10.0% | 552.3hPa | 2.6V | 07:20:00 | 00:00:00 | 00:00:00 | |
| DO3MHA-11 | 2026-09-05 13:34:18 | 47.96377 | 11.76461 | 110° | 71km/h | 5101m | -1.9m/s | -5.3°C | 10.2% | 551.9hPa | 2.6V | 00:00:00 | 03:05:17 | 00:00:00 | |
| OE5DXL-15 | 2026-09-05 13:34:14 | 47.96404 | 11.76361 | 111° | 69km/h | 5109m | -1.9m/s | -5.4°C | 10.2% | 551.5hPa | 2.7V | 00:00:00 | 00:00:00 | 00:00:00 | |
| DO3MHA-11 | 2026-09-05 13:34:13 | 47.96410 | 11.76335 | 109° | 69km/h | 5111m | -2.0m/s | -5.4°C | 10.1% | 551.3hPa | 2.7V | 00:00:00 | 03:05:12 | 00:00:00 | |
| DL6DJ-15 | 2026-09-05 13:34:10 | 47.96427 | 11.76259 | 109° | 66km/h | 5117m | -2.1m/s | -5.4°C | 9.6% | 551.0hPa | 2.7V | 00:00:00 | 00:00:00 | 00:00:00 | |
| DO3MHA-11 | 2026-09-05 13:34:08 | 47.96439 | 11.76211 | 114° | 73km/h | 5122m | -2.0m/s | -5.4°C | 9.8% | 550.6hPa | 2.7V | 00:00:00 | 03:05:07 | 00:00:00 | |
| DO3MHA-11 | 2026-09-05 13:34:03 | 47.96472 | 11.76083 | 107° | 69km/h | 5131m | -1.8m/s | -5.6°C | 9.8% | 549.9hPa | 2.7V | 07:20:00 | 03:05:02 | 00:00:00 | |
| DG1MFX-10 | 2026-09-05 13:33:59 | 47.96488 | 11.76011 | 113° | 68km/h | 5137m | -2.1m/s | -5.6°C | 9.5% | 549.6hPa | 2.6V | 07:21:00 | 00:00:00 | 00:00:00 | |
| DO3MHA-12 | 2026-09-05 13:33:58 | 47.96502 | 11.75963 | 114° | 71km/h | 5141m | -1.9m/s | -5.6°C | 9.9% | 549.2hPa | 2.6V | 00:00:00 | 03:04:57 | 00:00:00 | |
| DO3MHA-11 | 2026-09-05 13:33:48 | 47.96564 | 11.75714 | 108° | 68km/h | 5162m | -2.0m/s | -5.7°C | 9.9% | 547.7hPa | 2.7V | 00:00:00 | 03:04:47 | 00:00:00 | |
| OE5DXL-15 | 2026-09-05 13:33:44 | 47.96587 | 11.75619 | 114° | 69km/h | 5171m | -2.1m/s | -5.8°C | 9.8% | 547.1hPa | 2.6V | 07:21:00 | 00:00:00 | 00:00:00 | |
| DO3MHA-12 | 2026-09-05 13:33:43 | 47.96594 | 11.75595 | 114° | 71km/h | 5173m | -2.0m/s | -5.8°C | 9.9% | 547.0hPa | 2.6V | 00:00:00 | 03:04:42 | 00:00:00 | |
| OE5DRO-10 | 2026-09-05 13:33:41 | 47.96608 | 11.75545 | 110° | 69km/h | 5177m | -1.9m/s | -5.9°C | 9.9% | 546.7hPa | 2.7V | 00:00:00 | 00:00:00 | 00:00:00 | |
| NBG1-10 | 2026-09-05 13:33:40 | 47.96614 | 11.75519 | 109° | 69km/h | 5179m | -2.0m/s | -6.0°C | 9.9% | 546.4hPa | 2.7V | 00:00:00 | 03:04:39 | 00:00:00 | |
| DL6DJ-15 | 2026-09-05 13:33:39 | 47.96619 | 11.75495 | 108° | 66km/h | 5181m | -2.0m/s | -6.0°C | 9.6% | 546.4hPa | 2.7V | 00:00:00 | 00:00:00 | 00:00:00 | |
| DO3MHA-11 | 2026-09-05 13:33:33 | 47.96658 | 11.75351 | 111° | 68km/h | 5194m | -2.1m/s | -6.1°C | 10.0% | 545.4hPa | 2.7V | 00:00:00 | 03:04:32 | 00:00:00 | |
| DO3MHA-11 | 2026-09-05 13:33:28 | 47.96689 | 11.75231 | 114° | 71km/h | 5205m | -2.3m/s | -6.1°C | 10.0% | 544.8hPa | 2.7V | 00:00:00 | 03:04:27 | 00:00:00 | |
| DB0ND-19 | 2026-09-05 13:33:26 | 47.96708 | 11.75155 | 108° | 71km/h | 5212m | -2.2m/s | -6.2°C | 9.7% | 544.3hPa | 2.7V | 00:00:00 | 00:00:00 | 00:00:00 | |
| DO3MHA-11 | 2026-09-05 13:33:23 | 47.96719 | 11.75104 | 108° | 69km/h | 5216m | -2.1m/s | -6.2°C | 10.0% | 544.0hPa | 2.7V | 07:21:00 | 03:04:22 | 00:00:00 | |
| DO3MHA-12 | 2026-09-05 13:33:18 | 47.96751 | 11.74981 | 110° | 69km/h | 5228m | -2.3m/s | -6.3°C | 10.1% | 543.2hPa | 2.7V | 00:00:00 | 03:04:17 | 00:00:00 | |
| OE5DXL-15 | 2026-09-05 13:33:14 | 47.96775 | 11.74884 | 114° | 71km/h | 5237m | -2.3m/s | -6.4°C | 10.1% | 542.4hPa | 2.7V | 00:00:00 | 00:00:00 | 00:00:00 | |
| DO3MHA-12 | 2026-09-05 13:33:13 | 47.96782 | 11.74860 | 115° | 71km/h | 5240m | -2.4m/s | -6.4°C | 10.2% | 542.4hPa | 2.7V | 00:00:00 | 03:04:12 | 00:00:00 | |
| OE5DRO-10 | 2026-09-05 13:33:09 | 47.96808 | 11.74758 | 108° | 71km/h | 5250m | -2.5m/s | -6.5°C | 10.1% | 541.6hPa | 2.7V | 00:00:00 | 00:00:00 | 00:00:00 | |
| DO3MHA-12 | 2026-09-05 13:33:08 | 47.96814 | 11.74733 | 107° | 68km/h | 5253m | -2.3m/s | -6.5°C | 10.1% | 541.5hPa | 2.7V | 07:21:00 | 03:04:07 | 00:00:00 | |
| NBG1-10 | 2026-09-05 13:33:07 | 47.96819 | 11.74708 | 108° | 71km/h | 5255m | -2.4m/s | -6.6°C | 10.2% | 541.3hPa | 2.7V | 00:00:00 | 03:04:06 | 00:00:00 | |
| DO3MHA-11 | 2026-09-05 13:33:03 | 47.96845 | 11.74612 | 113° | 73km/h | 5264m | -2.4m/s | -6.6°C | 9.8% | 540.7hPa | 2.7V | 00:00:00 | 03:04:02 | 00:00:00 | |
| DB0ND-19 | 2026-09-05 13:32:55 | 47.96894 | 11.74409 | 111° | 73km/h | 5284m | -2.6m/s | -6.8°C | 9.6% | 539.4hPa | 2.6V | 00:00:00 | 00:00:00 | 00:00:00 | |
| DO3MHA-11 | 2026-09-05 13:32:53 | 47.96907 | 11.74356 | 109° | 71km/h | 5289m | -2.4m/s | -6.9°C | 10.0% | 538.9hPa | 2.6V | 00:00:00 | 03:03:52 | 00:00:00 | |
| DO3MHA-11 | 2026-09-05 13:32:48 | 47.96936 | 11.74232 | 113° | 73km/h | 5300m | -2.4m/s | -6.9°C | 10.0% | 538.1hPa | 2.6V | 00:00:00 | 03:03:47 | 00:00:00 | |
| OE5DXL-15 | 2026-09-05 13:32:44 | 47.96963 | 11.74128 | 108° | 71km/h | 5310m | -2.2m/s | -7.1°C | 10.1% | 537.4hPa | 2.7V | 00:00:00 | 00:00:00 | 00:00:00 | |
| DO3MHA-11 | 2026-09-05 13:32:43 | 47.96968 | 11.74102 | 107° | 69km/h | 5313m | -2.4m/s | -7.1°C | 10.1% | 537.3hPa | 2.7V | 07:22:00 | 03:03:42 | 00:00:00 | |
| DO3MHA-12 | 2026-09-05 13:32:38 | 47.96999 | 11.73979 | 113° | 75km/h | 5325m | -2.4m/s | -7.1°C | 9.9% | 536.4hPa | 2.7V | 00:00:00 | 03:03:37 | 00:00:00 | |
| OE5DRO-10 | 2026-09-05 13:32:37 | 47.97006 | 11.73953 | 111° | 73km/h | 5327m | -2.6m/s | -7.2°C | 10.0% | 536.4hPa | 2.7V | 07:22:00 | 00:00:00 | 00:00:00 | |
| NBG1-10 | 2026-09-05 13:32:34 | 47.97023 | 11.73872 | 106° | 71km/h | 5335m | -2.4m/s | -7.3°C | 10.1% | 535.7hPa | 2.6V | 07:22:00 | 03:03:33 | 00:00:00 | |
| DO3MHA-11 | 2026-09-05 13:32:33 | 47.97028 | 11.73847 | 107° | 71km/h | 5337m | -2.4m/s | -7.2°C | 10.0% | 535.5hPa | 2.6V | 00:00:00 | 03:03:32 | 00:00:00 | |
| DO3MHA-11 | 2026-09-05 13:32:28 | 47.97058 | 11.73718 | 108° | 71km/h | 5350m | -2.6m/s | -7.4°C | 10.1% | 534.7hPa | 2.7V | 00:00:00 | 03:03:27 | 00:00:00 | |
| DG1MJG | 2026-09-05 13:32:27 | 47.97058 | 11.73718 | 109° | 77km/h | 5350m | -2.7m/s | -7.4°C | 9.8% | 534.8hPa | 2.7V | 07:23:00 | 00:00:00 | 00:00:00 | |
| DB0ND-19 | 2026-09-05 13:32:24 | 47.97084 | 11.73590 | 110° | 68km/h | 5363m | -2.5m/s | -7.6°C | 9.9% | 533.9hPa | 2.7V | 00:00:00 | 00:00:00 | 00:00:00 | |
| DO3MHA-11 | 2026-09-05 13:32:23 | 47.97084 | 11.73590 | 111° | 73km/h | 5363m | -2.5m/s | -7.5°C | 10.3% | 533.8hPa | 2.7V | 00:00:00 | 03:03:22 | 00:00:00 | |
| OE5DRO-10 | 2026-09-05 13:32:21 | 47.97097 | 11.73540 | 111° | 71km/h | 5368m | -2.6m/s | -7.6°C | 10.3% | 533.5hPa | 2.7V | 00:00:00 | 00:00:00 | 00:00:00 | |
| DO3MHA-11 | 2026-09-05 13:32:18 | 47.97114 | 11.73460 | 106° | 71km/h | 5376m | -2.6m/s | -7.7°C | 10.2% | 533.0hPa | 2.7V | 00:00:00 | 03:03:17 | 00:00:00 | |
| DG1MFX-10 | 2026-09-05 13:32:16 | 47.97119 | 11.73435 | 108° | 69km/h | 5379m | -2.7m/s | -7.7°C | 9.7% | 532.8hPa | 2.7V | 07:23:00 | 00:00:00 | 00:00:00 | |
| OE5DXL-15 | 2026-09-05 13:32:14 | 47.97136 | 11.73360 | 111° | 71km/h | 5386m | -2.4m/s | -7.7°C | 10.1% | 532.2hPa | 2.7V | 00:00:00 | 00:00:00 | 00:00:00 | |
| DO3MHA-11 | 2026-09-05 13:32:13 | 47.97143 | 11.73334 | 110° | 73km/h | 5389m | -2.5m/s | -7.7°C | 10.1% | 532.1hPa | 2.7V | 00:00:00 | 03:03:12 | 00:00:00 | |
| DO3MHA-11 | 2026-09-05 13:32:08 | 47.97169 | 11.73203 | 108° | 71km/h | 5402m | -2.5m/s | -7.8°C | 9.8% | 531.2hPa | 2.7V | 00:00:00 | 03:03:07 | 00:00:00 | |
| DL6DJ-15 | 2026-09-05 13:32:06 | 47.97187 | 11.73127 | 109° | 73km/h | 5409m | -2.7m/s | -7.9°C | 9.5% | 530.7hPa | 2.7V | 00:00:00 | 00:00:00 | 00:00:00 | |
| OE5DRO-10 | 2026-09-05 13:32:05 | 47.97186 | 11.73127 | 110° | 73km/h | 5410m | -2.6m/s | -7.9°C | 9.9% | 530.6hPa | 2.7V | 00:00:00 | 00:00:00 | 00:00:00 | |
| DO3MHA-11 | 2026-09-05 13:32:03 | 47.97198 | 11.73074 | 107° | 71km/h | 5415m | -2.6m/s | -8.0°C | 9.9% | 530.2hPa | 2.7V | 07:22:00 | 03:03:02 | 00:00:00 | |
| DB0ND-19 | 2026-09-05 13:31:53 | 47.97260 | 11.72791 | 108° | 68km/h | 5444m | -2.7m/s | -8.2°C | 9.7% | 528.4hPa | 2.7V | 00:00:00 | 00:00:00 | 00:00:00 | |
| OE5DRO-10 | 2026-09-05 13:31:49 | 47.97279 | 11.72714 | 109° | 71km/h | 5452m | -2.8m/s | -8.3°C | 10.3% | 527.7hPa | 2.7V | 00:00:00 | 00:00:00 | 00:00:00 | |
| DO3MHA-11 | 2026-09-05 13:31:48 | 47.97284 | 11.72688 | 107° | 71km/h | 5455m | -2.6m/s | -8.4°C | 10.2% | 527.6hPa | 2.6V | 00:00:00 | 03:02:47 | 00:00:00 | |
| OE5DXL-15 | 2026-09-05 13:31:44 | 47.97305 | 11.72586 | 110° | 73km/h | 5465m | -2.7m/s | -8.3°C | 10.2% | 526.8hPa | 2.7V | 00:00:00 | 00:00:00 | 00:00:00 | |
| DO3MHA-11 | 2026-09-05 13:31:43 | 47.97311 | 11.72561 | 111° | 73km/h | 5468m | -2.7m/s | -8.3°C | 10.3% | 526.7hPa | 2.7V | 00:00:00 | 03:02:42 | 00:00:00 | |
| DO3MHA-12 | 2026-09-05 13:31:38 | 47.97339 | 11.72429 | 106° | 71km/h | 5482m | -2.7m/s | -8.5°C | 10.3% | 525.7hPa | 2.7V | 00:00:00 | 03:02:37 | 00:00:00 | |
| DL6DJ-15 | 2026-09-05 13:31:35 | 47.97361 | 11.72327 | 108° | 73km/h | 5493m | -2.8m/s | -8.6°C | 9.8% | 525.0hPa | 2.7V | 00:00:00 | 00:00:00 | 00:00:00 | |
| DO3MHA-11 | 2026-09-05 13:31:33 | 47.97367 | 11.72300 | 107° | 73km/h | 5496m | -2.7m/s | -8.6°C | 10.2% | 524.8hPa | 2.7V | 00:00:00 | 03:02:32 | 00:00:00 | |
| DO3MHA-11 | 2026-09-05 13:31:28 | 47.97392 | 11.72167 | 108° | 73km/h | 5510m | -2.7m/s | -8.7°C | 10.2% | 523.8hPa | 2.7V | 00:00:00 | 03:02:27 | 00:00:00 | |
| DG1MJG | 2026-09-05 13:31:27 | 47.97392 | 11.72167 | 109° | 71km/h | 5510m | -2.7m/s | -8.7°C | 9.8% | 523.8hPa | 2.7V | 07:23:00 | 00:00:00 | 00:00:00 | |
| DO3MHA-11 | 2026-09-05 13:31:23 | 47.97421 | 11.72036 | 108° | 71km/h | 5525m | -2.9m/s | -8.8°C | 10.3% | 522.8hPa | 2.7V | 07:23:00 | 03:02:22 | 00:00:00 | |
| DB0ND-19 | 2026-09-05 13:31:22 | 47.97432 | 11.71987 | 111° | 68km/h | 5530m | -2.9m/s | -8.8°C | 9.8% | 522.5hPa | 2.7V | 00:00:00 | 00:00:00 | 00:00:00 | |
| DO3MHA-12 | 2026-09-05 13:31:18 | 47.97452 | 11.71910 | 110° | 73km/h | 5539m | -2.9m/s | -8.9°C | 10.2% | 521.9hPa | 2.7V | 00:00:00 | 03:02:17 | 00:00:00 | |
| OE5DRO-10 | 2026-09-05 13:31:17 | 47.97458 | 11.71883 | 108° | 73km/h | 5542m | -2.8m/s | -9.0°C | 10.2% | 521.6hPa | 2.7V | 00:00:00 | 00:00:00 | 00:00:00 | |
| OE5DXL-15 | 2026-09-05 13:31:14 | 47.97475 | 11.71805 | 110° | 73km/h | 5551m | -2.9m/s | -9.0°C | 9.9% | 521.1hPa | 2.7V | 00:00:00 | 00:00:00 | 00:00:00 | |
| DO3MHA-12 | 2026-09-05 13:31:13 | 47.97481 | 11.71780 | 112° | 75km/h | 5554m | -3.0m/s | -9.0°C | 9.8% | 520.9hPa | 2.7V | 00:00:00 | 03:02:12 | 00:00:00 | |
| DO3MHA-11 | 2026-09-05 13:31:08 | 47.97512 | 11.71646 | 107° | 71km/h | 5569m | -2.9m/s | -9.2°C | 9.8% | 519.9hPa | 2.7V | 00:00:00 | 03:02:07 | 00:00:00 | |
| DL6DJ-15 | 2026-09-05 13:31:03 | 47.97544 | 11.71525 | 114° | 73km/h | 5585m | -3.0m/s | -9.2°C | 9.5% | 518.6hPa | 2.7V | 00:00:00 | 00:00:00 | 00:00:00 | |
| DB0ND-19 | 2026-09-05 13:30:51 | 47.97639 | 11.71189 | 110° | 73km/h | 5624m | -3.1m/s | -9.4°C | 9.2% | 516.2hPa | 2.7V | 00:00:00 | 00:00:00 | 00:00:00 | |
| DO3MHA-11 | 2026-09-05 13:30:49 | 47.97646 | 11.71163 | 114° | 73km/h | 5627m | -2.9m/s | -9.4°C | 9.6% | 516.0hPa | 2.7V | 00:00:00 | 03:01:48 | 00:00:00 | |
| OE5DRO-10 | 2026-09-05 13:30:45 | 47.97678 | 11.71062 | 115° | 75km/h | 5639m | -3.2m/s | -9.5°C | 9.5% | 515.0hPa | 2.7V | 00:00:00 | 00:00:00 | 00:00:00 | |
| OE5DXL-15 | 2026-09-05 13:30:44 | 47.97686 | 11.71036 | 114° | 75km/h | 5642m | -3.0m/s | -9.5°C | 9.5% | 514.8hPa | 2.7V | 00:00:00 | 00:00:00 | 00:00:00 | |
| DO3MHA-11 | 2026-09-05 13:30:39 | 47.97727 | 11.70913 | 119° | 75km/h | 5658m | -2.9m/s | -9.7°C | 9.6% | 513.8hPa | 2.7V | 00:00:00 | 03:01:38 | 00:00:00 | |
| DG1MFX-10 | 2026-09-05 13:30:33 | 47.97770 | 11.70784 | 118° | 71km/h | 5672m | -2.6m/s | -9.9°C | 9.2% | 512.9hPa | 2.7V | 07:24:00 | 00:00:00 | 00:00:00 | |
| DL6DJ-15 | 2026-09-05 13:30:32 | 47.97787 | 11.70737 | 119° | 73km/h | 5677m | -2.7m/s | -9.9°C | 9.2% | 512.6hPa | 2.7V | 00:00:00 | 00:00:00 | 00:00:00 | |
| DO3MHA-11 | 2026-09-05 13:30:29 | 47.97814 | 11.70659 | 115° | 78km/h | 5685m | -2.5m/s | -9.8°C | 9.6% | 512.0hPa | 2.7V | 00:00:00 | 03:01:28 | 00:00:00 | |
| OE5WHR-10 | 2026-09-05 13:30:28 | 47.97822 | 11.70632 | 114° | 78km/h | 5688m | -2.6m/s | -9.8°C | 9.6% | 511.9hPa | 2.7V | 00:00:00 | 03:01:27 | 00:00:00 | |
| DG1MJG | 2026-09-05 13:30:25 | 47.97838 | 11.70580 | 116° | 75km/h | 5693m | -2.7m/s | -9.9°C | 9.3% | 511.6hPa | 2.7V | 07:24:00 | 00:00:00 | 00:00:00 | |
| NBG1-10 | 2026-09-05 13:30:22 | 47.97873 | 11.70475 | 118° | 80km/h | 5704m | -2.7m/s | -9.8°C | 9.6% | 510.8hPa | 2.7V | 00:00:00 | 03:01:21 | 00:00:00 | |
| DB0ND-19 | 2026-09-05 13:30:20 | 47.97900 | 11.70396 | 116° | 73km/h | 5713m | -2.9m/s | -10.0°C | 9.3% | 510.3hPa | 2.7V | 00:00:00 | 00:00:00 | 00:00:00 | |
| DO3MHA-11 | 2026-09-05 13:30:19 | 47.97900 | 11.70395 | 117° | 77km/h | 5713m | -2.8m/s | -10.0°C | 9.7% | 510.2hPa | 2.7V | 07:24:00 | 03:01:18 | 00:00:00 | |
| OE5DXL-15 | 2026-09-05 13:30:14 | 47.97948 | 11.70276 | 124° | 80km/h | 5728m | -3.2m/s | -9.8°C | 9.0% | 509.2hPa | 2.7V | 00:00:00 | 00:00:00 | 00:00:00 | |
| DG1MFX-10 | 2026-09-05 13:30:12 | 47.97960 | 11.70251 | 124° | 80km/h | 5732m | -3.2m/s | -9.8°C | 8.6% | 509.1hPa | 2.7V | 07:24:00 | 00:00:00 | 00:00:00 | |
| DB0NH | 2026-09-05 13:30:11 | 47.97981 | 11.70198 | 121° | 80km/h | 5738m | -3.2m/s | -9.9°C | 9.1% | 508.6hPa | 2.7V | 00:00:00 | 03:01:10 | 00:00:00 | |
| OE5DRO-10 | 2026-09-05 13:30:10 | 47.97991 | 11.70172 | 120° | 80km/h | 5741m | -3.0m/s | -9.9°C | 9.2% | 508.3hPa | 2.7V | 00:00:00 | 00:00:00 | 00:00:00 | |
| DO3MHA-12 | 2026-09-05 13:30:09 | 47.98001 | 11.70146 | 121° | 80km/h | 5744m | -3.0m/s | -10.0°C | 9.3% | 508.2hPa | 2.6V | 00:00:00 | 03:01:08 | 00:00:00 | |
| OE5WHR-10 | 2026-09-05 13:30:05 | 47.98045 | 11.70043 | 123° | 80km/h | 5758m | -3.3m/s | -10.2°C | 9.6% | 507.2hPa | 2.6V | 00:00:00 | 00:00:00 | 00:00:00 | |
| DL6DJ-15 | 2026-09-05 13:30:01 | 47.98086 | 11.69936 | 119° | 75km/h | 5770m | -3.1m/s | -10.3°C | 9.2% | 506.5hPa | 2.7V | 00:00:00 | 00:00:00 | 00:00:00 | |
| DB0ND-19 | 2026-09-05 13:29:49 | 47.98232 | 11.69596 | 116° | 78km/h | 5815m | -3.4m/s | -10.6°C | 8.9% | 503.5hPa | 2.7V | 00:00:00 | 00:00:00 | 00:00:00 | |
| OE5DXL-15 | 2026-09-05 13:29:44 | 47.98272 | 11.69498 | 128° | 84km/h | 5828m | -3.3m/s | -10.5°C | 9.1% | 502.6hPa | 2.7V | 07:25:00 | 00:00:00 | 00:00:00 | |
| DB0NH | 2026-09-05 13:29:41 | 47.98311 | 11.69424 | 127° | 84km/h | 5839m | -3.3m/s | -10.5°C | 8.9% | 501.9hPa | 2.7V | 00:00:00 | 03:00:40 | 00:00:00 | |
| DO3MHA-11 | 2026-09-05 13:29:39 | 47.98337 | 11.69368 | 123° | 82km/h | 5846m | -3.4m/s | -10.6°C | 8.9% | 501.4hPa | 2.7V | 00:00:00 | 03:00:38 | 00:00:00 | |
| OE5DRO-10 | 2026-09-05 13:29:32 | 47.98410 | 11.69181 | 127° | 84km/h | 5868m | -3.3m/s | -10.7°C | 8.9% | 500.1hPa | 2.7V | 00:00:00 | 00:00:00 | 00:00:00 | |
| DL6DJ-15 | 2026-09-05 13:29:30 | 47.98436 | 11.69133 | 128° | 84km/h | 5875m | -3.4m/s | -10.8°C | 8.5% | 499.6hPa | 2.7V | 00:00:00 | 00:00:00 | 00:00:00 | |
| DO3MHA-12 | 2026-09-05 13:29:29 | 47.98449 | 11.69107 | 128° | 86km/h | 5878m | -3.3m/s | -10.7°C | 8.8% | 499.4hPa | 2.7V | 00:00:00 | 03:00:28 | 00:00:00 | |
| DG1MJG | 2026-09-05 13:29:24 | 47.98499 | 11.68991 | 119° | 89km/h | 5892m | -3.4m/s | -11.0°C | 8.2% | 498.6hPa | 2.7V | 07:25:00 | 00:00:00 | 00:00:00 | |
| DO3MHA-11 | 2026-09-05 13:29:19 | 47.98557 | 11.68830 | 124° | 86km/h | 5912m | -3.2m/s | -11.0°C | 8.6% | 497.3hPa | 2.7V | 00:00:00 | 03:00:18 | 00:00:00 | |
| NBG1-10 | 2026-09-05 13:29:16 | 47.98592 | 11.68760 | 130° | 86km/h | 5921m | -3.3m/s | -11.1°C | 8.6% | 496.6hPa | 2.7V | 00:00:00 | 03:00:15 | 00:00:00 | |
| OE5DXL-15 | 2026-09-05 13:29:14 | 47.98620 | 11.68710 | 129° | 86km/h | 5928m | -3.4m/s | -11.1°C | 8.7% | 496.1hPa | 2.7V | 00:00:00 | 00:00:00 | 00:00:00 | |
| OE5DRO-10 | 2026-09-05 13:29:13 | 47.98634 | 11.68683 | 127° | 88km/h | 5932m | -3.3m/s | -11.2°C | 8.7% | 496.0hPa | 2.7V | 00:00:00 | 00:00:00 | 00:00:00 | |
| DB0NH | 2026-09-05 13:29:11 | 47.98661 | 11.68625 | 123° | 86km/h | 5938m | -3.2m/s | -11.3°C | 8.7% | 495.5hPa | 2.6V | 00:00:00 | 03:00:10 | 00:00:00 | |
| DO3MHA-11 | 2026-09-05 13:29:09 | 47.98684 | 11.68564 | 118° | 82km/h | 5945m | -3.3m/s | -11.4°C | 8.7% | 495.1hPa | 2.7V | 00:00:00 | 03:00:08 | 00:00:00 | |
| OE5WHR-10 | 2026-09-05 13:29:06 | 47.98713 | 11.68479 | 117° | 82km/h | 5954m | -3.2m/s | -11.4°C | 8.7% | 494.5hPa | 2.7V | 00:00:00 | 03:00:05 | 00:00:00 | |
| DL6DJ-15 | 2026-09-05 13:28:59 | 47.98795 | 11.68309 | 128° | 89km/h | 5977m | -3.4m/s | -11.6°C | 8.2% | 493.1hPa | 2.7V | 00:00:00 | 00:00:00 | 00:00:00 | |
| DB0ND-19 | 2026-09-05 13:28:47 | 47.98945 | 11.67948 | 128° | 80km/h | 6019m | -3.3m/s | -12.0°C | 8.2% | 490.4hPa | 2.7V | 00:00:00 | 00:00:00 | 00:00:00 | |
| OE5WHR-10 | 2026-09-05 13:28:45 | 47.98958 | 11.67923 | 129° | 88km/h | 6023m | -3.2m/s | -11.9°C | 8.7% | 490.1hPa | 2.7V | 07:26:00 | 00:00:00 | 00:00:00 | |
| OE5DXL-15 | 2026-09-05 13:28:44 | 47.98972 | 11.67897 | 128° | 88km/h | 6026m | -3.2m/s | -12.0°C | 8.7% | 489.9hPa | 2.7V | 00:00:00 | 00:00:00 | 00:00:00 | |
| NBG1-10 | 2026-09-05 13:28:43 | 47.98986 | 11.67870 | 127° | 88km/h | 6029m | -3.2m/s | -12.0°C | 8.6% | 489.6hPa | 2.7V | 00:00:00 | 02:59:42 | 00:00:00 | |
| DB0NH | 2026-09-05 13:28:41 | 47.99013 | 11.67812 | 123° | 88km/h | 6036m | -3.4m/s | -12.1°C | 8.4% | 489.2hPa | 2.6V | 07:26:00 | 02:59:40 | 00:00:00 | |
| DO3MHA-11 | 2026-09-05 13:28:39 | 47.99037 | 11.67751 | 119° | 86km/h | 6042m | -3.2m/s | -12.1°C | 8.4% | 488.8hPa | 2.6V | 00:00:00 | 02:59:38 | 00:00:00 | |
| OE5DRO-10 | 2026-09-05 13:28:35 | 47.99078 | 11.67636 | 121° | 86km/h | 6055m | -3.1m/s | -12.2°C | 8.3% | 487.9hPa | 2.6V | 00:00:00 | 00:00:00 | 00:00:00 | |
| DO3MHA-11 | 2026-09-05 13:28:29 | 47.99151 | 11.67472 | 121° | 86km/h | 6075m | -3.2m/s | -12.2°C | 7.3% | 486.7hPa | 2.6V | 00:00:00 | 02:59:28 | 00:00:00 | |
| DL6DJ-15 | 2026-09-05 13:28:28 | 47.99162 | 11.67442 | 119° | 91km/h | 6078m | -3.3m/s | -12.2°C | 6.9% | 486.6hPa | 2.7V | 00:00:00 | 00:00:00 | 00:00:00 | |
| DG1MJG | 2026-09-05 13:28:23 | 47.99203 | 11.67327 | 121° | 82km/h | 6091m | -3.2m/s | -12.2°C | 6.9% | 485.7hPa | 2.7V | 07:26:00 | 00:00:00 | 00:00:00 | |
| OE5WHR-10 | 2026-09-05 13:28:22 | 47.99225 | 11.67273 | 122° | 86km/h | 6097m | -3.1m/s | -12.2°C | 7.3% | 485.2hPa | 2.7V | 00:00:00 | 00:00:00 | 00:00:00 | |
| DO3MHA-11 | 2026-09-05 13:28:19 | 47.99258 | 11.67189 | 119° | 86km/h | 6106m | -3.1m/s | -12.3°C | 7.4% | 484.6hPa | 2.7V | 00:00:00 | 02:59:18 | 00:00:00 | |
| OE5DRO-10 | 2026-09-05 13:28:16 | 47.99288 | 11.67106 | 121° | 86km/h | 6116m | -3.1m/s | -12.3°C | 7.4% | 484.1hPa | 2.7V | 00:00:00 | 00:00:00 | 00:00:00 | |
| DB0ND-19 | 2026-09-05 13:28:15 | 47.99299 | 11.67079 | 121° | 84km/h | 6119m | -3.1m/s | -12.4°C | 7.0% | 484.0hPa | 2.7V | 00:00:00 | 00:00:00 | 00:00:00 | |
| OE5DXL-15 | 2026-09-05 13:28:14 | 47.99311 | 11.67051 | 121° | 86km/h | 6122m | -2.9m/s | -12.3°C | 7.4% | 483.7hPa | 2.7V | 00:00:00 | 00:00:00 | 00:00:00 | |
| DB0NH | 2026-09-05 13:28:11 | 47.99343 | 11.66962 | 118° | 86km/h | 6132m | -3.2m/s | -12.4°C | 7.0% | 483.0hPa | 2.7V | 00:00:00 | 02:59:10 | 00:00:00 | |
| NBG1-10 | 2026-09-05 13:28:10 | 47.99353 | 11.66934 | 118° | 86km/h | 6135m | -3.1m/s | -12.3°C | 7.0% | 482.8hPa | 2.7V | 07:26:00 | 02:59:09 | 00:00:00 | |
| DO3MHA-12 | 2026-09-05 13:28:09 | 47.99363 | 11.66907 | 120° | 84km/h | 6138m | -3.1m/s | -12.4°C | 7.0% | 482.6hPa | 2.7V | 00:00:00 | 02:59:08 | 00:00:00 | |
| DG1MFX-10 | 2026-09-05 13:28:08 | 47.99363 | 11.66907 | 120° | 82km/h | 6138m | -3.2m/s | -12.5°C | 6.6% | 482.6hPa | 2.7V | 07:27:00 | 00:00:00 | 00:00:00 | |
| DL6DJ-15 | 2026-09-05 13:27:57 | 47.99487 | 11.66573 | 117° | 88km/h | 6176m | -3.4m/s | -12.7°C | 6.5% | 480.3hPa | 2.7V | 00:00:00 | 00:00:00 | 00:00:00 | |
| DL9SK-14 | 2026-09-05 13:27:53 | 47.99538 | 11.66434 | 122° | 84km/h | 6193m | -3.2m/s | -12.8°C | 6.5% | 479.3hPa | 2.7V | 00:00:00 | 00:00:00 | 00:00:00 | |
| DO3MHA-11 | 2026-09-05 13:27:49 | 47.99572 | 11.66347 | 119° | 88km/h | 6202m | -2.9m/s | -12.9°C | 7.0% | 478.7hPa | 2.7V | 00:00:00 | 02:58:48 | 00:00:00 | |
| DG1MFX-10 | 2026-09-05 13:27:48 | 47.99572 | 11.66347 | 119° | 89km/h | 6202m | -2.9m/s | -12.9°C | 6.6% | 478.7hPa | 2.7V | 07:27:00 | 00:00:00 | 00:00:00 | |
| OE5DXL-15 | 2026-09-05 13:27:44 | 47.99623 | 11.66202 | 121° | 89km/h | 6218m | -3.3m/s | -13.0°C | 7.1% | 477.7hPa | 2.7V | 00:00:00 | 00:00:00 | 00:00:00 | |
| DB0NH | 2026-09-05 13:27:41 | 47.99656 | 11.66113 | 117° | 89km/h | 6228m | -3.2m/s | -13.1°C | 7.0% | 477.1hPa | 2.7V | 00:00:00 | 02:58:40 | 00:00:00 | |
| DO3MHA-11 | 2026-09-05 13:27:39 | 47.99675 | 11.66054 | 117° | 88km/h | 6234m | -3.2m/s | -13.1°C | 6.8% | 476.7hPa | 2.6V | 07:27:00 | 02:58:38 | 00:00:00 | |
| OE5DRO-10 | 2026-09-05 13:27:38 | 47.99685 | 11.66025 | 118° | 89km/h | 6237m | -3.0m/s | -13.1°C | 6.7% | 476.5hPa | 2.6V | 00:00:00 | 00:00:00 | 00:00:00 | |
| NBG1-10 | 2026-09-05 13:27:37 | 47.99695 | 11.65998 | 120° | 89km/h | 6240m | -3.4m/s | -13.1°C | 6.6% | 476.3hPa | 2.6V | 00:00:00 | 02:58:36 | 00:00:00 | |
| DO3MHA-12 | 2026-09-05 13:27:29 | 47.99780 | 11.65761 | 120° | 89km/h | 6266m | -2.8m/s | -13.2°C | 6.1% | 474.7hPa | 2.6V | 00:00:00 | 02:58:28 | 00:00:00 | |
| DG1MFX-10 | 2026-09-05 13:27:27 | 47.99791 | 11.65732 | 122° | 88km/h | 6269m | -3.2m/s | -13.3°C | 5.6% | 474.6hPa | 2.6V | 07:28:00 | 00:00:00 | 00:00:00 | |
| OE5WHR-10 | 2026-09-05 13:27:26 | 47.99814 | 11.65673 | 119° | 106km/h | 6275m | -3.0m/s | -13.3°C | 5.9% | 474.1hPa | 2.6V | 00:00:00 | 02:58:25 | 00:00:00 | |
| DG1MJG | 2026-09-05 13:27:23 | 47.99835 | 11.65611 | 117° | 89km/h | 6281m | -3.2m/s | -13.4°C | 5.5% | 473.8hPa | 2.6V | 07:28:00 | 00:00:00 | 00:00:00 | |
| DL9SK-14 | 2026-09-05 13:27:21 | 47.99875 | 11.65493 | 118° | 88km/h | 6294m | -3.2m/s | -13.5°C | 5.4% | 473.0hPa | 2.6V | 00:00:00 | 00:00:00 | 00:00:00 | |
| DO3MHA-12 | 2026-09-05 13:27:19 | 47.99886 | 11.65463 | 119° | 89km/h | 6297m | -3.3m/s | -13.5°C | 5.7% | 472.8hPa | 2.6V | 00:00:00 | 02:58:18 | 00:00:00 | |
| OE5DXL-15 | 2026-09-05 13:27:14 | 47.99935 | 11.65314 | 119° | 91km/h | 6313m | -3.2m/s | -13.5°C | 5.4% | 471.8hPa | 2.6V | 00:00:00 | 00:00:00 | 00:00:00 | |
| DB0ND-19 | 2026-09-05 13:27:13 | 47.99946 | 11.65285 | 119° | 88km/h | 6316m | -3.1m/s | -13.6°C | 5.0% | 471.7hPa | 2.7V | 00:00:00 | 00:00:00 | 00:00:00 | |
| DB0NH | 2026-09-05 13:27:11 | 47.99968 | 11.65225 | 119° | 91km/h | 6322m | -3.1m/s | -13.6°C | 5.4% | 471.2hPa | 2.7V | 00:00:00 | 02:58:10 | 00:00:00 | |
| DO3MHA-11 | 2026-09-05 13:27:09 | 47.99989 | 11.65163 | 116° | 91km/h | 6329m | -3.0m/s | -13.7°C | 5.5% | 470.8hPa | 2.7V | 00:00:00 | 02:58:08 | 00:00:00 | |
| DG1MFX-10 | 2026-09-05 13:27:07 | 47.99999 | 11.65132 | 116° | 91km/h | 6332m | -3.0m/s | -13.8°C | 5.1% | 470.6hPa | 2.7V | 07:28:00 | 00:00:00 | 00:00:00 | |
| NBG1-10 | 2026-09-05 13:27:04 | 48.00041 | 11.65012 | 120° | 91km/h | 6345m | -2.9m/s | -13.7°C | 5.5% | 469.9hPa | 2.7V | 00:00:00 | 02:58:03 | 00:00:00 | |
| DL9SK-14 | 2026-09-05 13:26:50 | 48.00188 | 11.64587 | 120° | 88km/h | 6389m | -3.1m/s | -14.1°C | 5.1% | 467.2hPa | 2.7V | 00:00:00 | 00:00:00 | 00:00:00 | |
| DO3MHA-12 | 2026-09-05 13:26:49 | 48.00199 | 11.64558 | 121° | 91km/h | 6392m | -3.0m/s | -14.0°C | 5.5% | 467.0hPa | 2.7V | 00:00:00 | 02:57:48 | 00:00:00 | |
| DB0UT-7 | 2026-09-05 13:26:47 | 48.00223 | 11.64496 | 119° | 91km/h | 6399m | -2.8m/s | -14.1°C | 5.6% | 466.6hPa | 2.6V | 00:00:00 | 00:00:00 | 00:00:00 | |
| OE5DXL-15 | 2026-09-05 13:26:44 | 48.00254 | 11.64401 | 115° | 91km/h | 6408m | -3.0m/s | -14.2°C | 5.6% | 466.0hPa | 2.6V | 00:00:00 | 00:00:00 | 00:00:00 | |
| DB0ND-19 | 2026-09-05 13:26:42 | 48.00274 | 11.64341 | 117° | 86km/h | 6414m | -3.0m/s | -14.3°C | 5.2% | 465.7hPa | 2.6V | 00:00:00 | 00:00:00 | 00:00:00 | |
| DB0NH | 2026-09-05 13:26:41 | 48.00284 | 11.64312 | 120° | 91km/h | 6417m | -2.9m/s | -14.3°C | 5.6% | 465.4hPa | 2.6V | 00:00:00 | 02:57:40 | 00:00:00 | |
| DO3MHA-12 | 2026-09-05 13:26:39 | 48.00307 | 11.64252 | 119° | 91km/h | 6423m | -2.9m/s | -14.3°C | 5.6% | 465.1hPa | 2.6V | 00:00:00 | 02:57:38 | 00:00:00 | |
| NBG1-10 | 2026-09-05 13:26:31 | 48.00395 | 11.64011 | 119° | 91km/h | 6448m | -2.8m/s | -14.6°C | 5.7% | 463.7hPa | 2.6V | 00:00:00 | 02:57:30 | 00:00:00 | |
| DO3MHA-11 | 2026-09-05 13:26:29 | 48.00416 | 11.63949 | 116° | 89km/h | 6454m | -2.8m/s | -14.6°C | 5.7% | 463.2hPa | 2.6V | 00:00:00 | 02:57:28 | 00:00:00 | |
| DG1MFX-10 | 2026-09-05 13:26:26 | 48.00436 | 11.63889 | 118° | 86km/h | 6459m | -2.8m/s | -14.7°C | 5.2% | 463.0hPa | 2.7V | 07:29:00 | 00:00:00 | 00:00:00 | |
| DL6DJ-15 | 2026-09-05 13:26:24 | 48.00468 | 11.63802 | 120° | 89km/h | 6468m | -3.4m/s | -14.8°C | 5.2% | 462.4hPa | 2.7V | 00:00:00 | 00:00:00 | 00:00:00 | |
| OE5DRO-10 | 2026-09-05 13:26:22 | 48.00490 | 11.63742 | 120° | 89km/h | 6475m | -3.0m/s | -14.8°C | 5.7% | 462.0hPa | 2.7V | 00:00:00 | 00:00:00 | 00:00:00 | |
| DO3MHA-11 | 2026-09-05 13:26:19 | 48.00523 | 11.63654 | 122° | 93km/h | 6483m | -2.5m/s | -14.9°C | 5.7% | 461.5hPa | 2.7V | 07:28:00 | 02:57:18 | 00:00:00 | |
| DB0UT-7 | 2026-09-05 13:26:17 | 48.00548 | 11.63595 | 123° | 91km/h | 6490m | -2.4m/s | -14.9°C | 5.6% | 461.1hPa | 2.7V | 00:00:00 | 02:57:16 | 00:00:00 | |
| OE5DXL-15 | 2026-09-05 13:26:14 | 48.00584 | 11.63495 | 115° | 91km/h | 6499m | -3.6m/s | -15.0°C | 5.5% | 460.5hPa | 2.7V | 00:00:00 | 00:00:00 | 00:00:00 | |
| DB0NH | 2026-09-05 13:26:11 | 48.00613 | 11.63398 | 115° | 91km/h | 6508m | -2.9m/s | -15.1°C | 5.4% | 459.9hPa | 2.7V | 00:00:00 | 02:57:10 | 00:00:00 | |
| DO3MHA-12 | 2026-09-05 13:26:09 | 48.00631 | 11.63340 | 117° | 89km/h | 6514m | -2.4m/s | -15.1°C | 5.4% | 459.7hPa | 2.7V | 00:00:00 | 02:57:08 | 00:00:00 | |
| DG1MFX-10 | 2026-09-05 13:26:05 | 48.00662 | 11.63261 | 124° | 82km/h | 6523m | -3.8m/s | -15.2°C | 5.0% | 459.0hPa | 2.7V | 07:29:00 | 00:00:00 | 00:00:00 | |
| OE5DRO-10 | 2026-09-05 13:26:03 | 48.00701 | 11.63178 | 124° | 93km/h | 6532m | -3.9m/s | -15.2°C | 5.5% | 458.4hPa | 2.7V | 00:00:00 | 00:00:00 | 00:00:00 | |
| DL6DJ-15 | 2026-09-05 13:25:53 | 48.00824 | 11.62821 | 112° | 84km/h | 6567m | -3.2m/s | -15.5°C | 5.1% | 456.4hPa | 2.7V | 00:00:00 | 00:00:00 | 00:00:00 | |
| DL9SK-14 | 2026-09-05 13:25:48 | 48.00864 | 11.62711 | 122° | 82km/h | 6580m | -3.9m/s | -15.6°C | 5.1% | 455.6hPa | 2.7V | 00:00:00 | 00:00:00 | 00:00:00 | |
| DB0UT-7 | 2026-09-05 13:25:47 | 48.00876 | 11.62684 | 125° | 95km/h | 6584m | -2.1m/s | -15.6°C | 5.6% | 455.5hPa | 2.7V | 00:00:00 | 00:00:00 | 00:00:00 | |
| DG1MFX-10 | 2026-09-05 13:25:45 | 48.00889 | 11.62657 | 127° | 88km/h | 6586m | -3.5m/s | -15.7°C | 5.1% | 455.3hPa | 2.7V | 07:29:00 | 00:00:00 | 00:00:00 | |
| OE5DXL-15 | 2026-09-05 13:25:44 | 48.00916 | 11.62600 | 127° | 95km/h | 6593m | -3.2m/s | -15.7°C | 5.6% | 454.8hPa | 2.7V | 07:29:00 | 00:00:00 | 00:00:00 | |
| DB0NH | 2026-09-05 13:25:41 | 48.00957 | 11.62506 | 121° | 95km/h | 6603m | -2.6m/s | -15.7°C | 5.6% | 454.3hPa | 2.5V | 00:00:00 | 02:56:40 | 00:00:00 | |
| DB0ND-19 | 2026-09-05 13:25:40 | 48.00970 | 11.62472 | 119° | 104km/h | 6606m | -2.0m/s | -15.8°C | 5.2% | 454.1hPa | 2.5V | 00:00:00 | 00:00:00 | 00:00:00 | |
| DO3MHA-11 | 2026-09-05 13:25:29 | 48.01085 | 11.62132 | 126° | 99km/h | 6637m | -2.5m/s | -16.0°C | 5.7% | 452.1hPa | 2.5V | 00:00:00 | 02:56:28 | 00:00:00 | |
| OE5MMP-10 | 2026-09-05 13:25:26 | 48.01125 | 11.62038 | 120° | 95km/h | 6645m | -2.5m/s | -16.1°C | 5.8% | 451.6hPa | 2.7V | 00:00:00 | 02:56:25 | 00:00:00 | |
| NBG1-10 | 2026-09-05 13:25:25 | 48.01138 | 11.62003 | 118° | 95km/h | 6648m | -2.6m/s | -16.1°C | 5.8% | 451.4hPa | 2.6V | 00:00:00 | 02:56:24 | 00:00:00 | |
| DG1MJG | 2026-09-05 13:25:21 | 48.01171 | 11.61900 | 113° | 95km/h | 6657m | -3.4m/s | -16.2°C | 5.4% | 450.9hPa | 2.5V | 07:29:00 | 00:00:00 | 00:00:00 | |
| DO3MHA-11 | 2026-09-05 13:25:19 | 48.01197 | 11.61804 | 113° | 93km/h | 6665m | -3.4m/s | -16.2°C | 5.9% | 450.4hPa | 2.5V | 00:00:00 | 02:56:18 | 00:00:00 | |
| DB0UT-7 | 2026-09-05 13:25:17 | 48.01215 | 11.61743 | 113° | 97km/h | 6671m | -3.2m/s | -16.3°C | 5.9% | 450.0hPa | 2.5V | 00:00:00 | 02:56:16 | 00:00:00 | |
| OE5MMP-10 | 2026-09-05 13:25:16 | 48.01223 | 11.61713 | 113° | 97km/h | 6674m | -2.8m/s | -16.3°C | 5.9% | 449.9hPa | 2.5V | 00:00:00 | 02:56:15 | 00:00:00 | |
| OE5DXL-15 | 2026-09-05 13:25:14 | 48.01240 | 11.61650 | 112° | 99km/h | 6679m | -2.8m/s | -16.3°C | 6.0% | 449.5hPa | 2.5V | 00:00:00 | 00:00:00 | 00:00:00 | |
| DB0NH | 2026-09-05 13:25:11 | 48.01268 | 11.61549 | 114° | 99km/h | 6687m | -2.7m/s | -16.4°C | 6.0% | 449.0hPa | 2.5V | 00:00:00 | 02:56:10 | 00:00:00 | |
| DO3MHA-11 | 2026-09-05 13:25:09 | 48.01288 | 11.61479 | 113° | 102km/h | 6693m | -3.2m/s | -16.4°C | 6.0% | 448.7hPa | 2.5V | 00:00:00 | 02:56:08 | 00:00:00 | |
| OE5MMP-10 | 2026-09-05 13:25:06 | 48.01319 | 11.61373 | 114° | 119km/h | 6702m | -2.6m/s | -16.5°C | 6.0% | 448.0hPa | 2.5V | 00:00:00 | 02:56:05 | 00:00:00 | |
| DG1MFX-10 | 2026-09-05 13:25:04 | 48.01329 | 11.61336 | 115° | 104km/h | 6705m | -2.7m/s | -16.6°C | 5.6% | 447.9hPa | 2.5V | 07:29:00 | 00:00:00 | 00:00:00 | |
| DL6DJ-15 | 2026-09-05 13:24:51 | 48.01491 | 11.60844 | 113° | 104km/h | 6746m | -2.6m/s | -16.6°C | 5.1% | 445.4hPa | 2.5V | 00:00:00 | 00:00:00 | 00:00:00 | |
| DL9SK-14 | 2026-09-05 13:24:46 | 48.01527 | 11.60702 | 110° | 93km/h | 6757m | -2.9m/s | -16.7°C | 4.9% | 444.7hPa | 2.5V | 00:00:00 | 00:00:00 | 00:00:00 | |
| OE5DXL-15 | 2026-09-05 13:24:44 | 48.01545 | 11.60638 | 115° | 100km/h | 6763m | -2.6m/s | -16.6°C | 5.3% | 444.4hPa | 2.5V | 00:00:00 | 00:00:00 | 00:00:00 | |
| DG1MFX-10 | 2026-09-05 13:24:43 | 48.01545 | 11.60638 | 116° | 91km/h | 6763m | -2.7m/s | -16.7°C | 4.9% | 444.4hPa | 2.5V | 07:30:00 | 00:00:00 | 00:00:00 | |
| DB0NH | 2026-09-05 13:24:41 | 48.01577 | 11.60541 | 117° | 100km/h | 6771m | -2.5m/s | -16.7°C | 5.2% | 443.9hPa | 2.5V | 07:30:00 | 02:55:40 | 00:00:00 | |
| DO3MHA-12 | 2026-09-05 13:24:39 | 48.01599 | 11.60472 | 114° | 100km/h | 6776m | -2.7m/s | -16.7°C | 5.1% | 443.6hPa | 2.6V | 00:00:00 | 02:55:38 | 00:00:00 | |
| DB0ND-19 | 2026-09-05 13:24:38 | 48.01609 | 11.60437 | 113° | 99km/h | 6779m | -2.9m/s | -16.8°C | 4.6% | 443.4hPa | 2.6V | 00:00:00 | 00:00:00 | 00:00:00 | |
| DO3MHA-12 | 2026-09-05 13:24:29 | 48.01701 | 11.60128 | 116° | 100km/h | 6804m | -2.3m/s | -16.8°C | 5.0% | 441.9hPa | 2.6V | 07:30:00 | 02:55:28 | 00:00:00 | |
| OE5DRO-10 | 2026-09-05 13:24:28 | 48.01712 | 11.60096 | 117° | 102km/h | 6806m | -2.9m/s | -16.8°C | 5.0% | 441.7hPa | 2.6V | 00:00:00 | 00:00:00 | 00:00:00 | |
| DG1MFX-10 | 2026-09-05 13:24:23 | 48.01757 | 11.59962 | 116° | 104km/h | 6819m | -2.9m/s | -16.9°C | 4.6% | 441.2hPa | 2.6V | 07:30:00 | 00:00:00 | 00:00:00 | |
| DO3MHA-12 | 2026-09-05 13:24:19 | 48.01809 | 11.59785 | 116° | 102km/h | 6833m | -2.5m/s | -17.0°C | 5.1% | 440.3hPa | 2.6V | 00:00:00 | 02:55:18 | 00:00:00 | |
| DB0UT-7 | 2026-09-05 13:24:17 | 48.01831 | 11.59715 | 116° | 102km/h | 6838m | -2.6m/s | -17.0°C | 5.0% | 439.9hPa | 2.6V | 07:30:00 | 02:55:16 | 00:00:00 | |
| DL9SK-14 | 2026-09-05 13:24:15 | 48.01854 | 11.59643 | 113° | 102km/h | 6843m | -3.1m/s | -17.1°C | 4.4% | 439.6hPa | 2.7V | 00:00:00 | 00:00:00 | 00:00:00 | |
| OE5DXL-15 | 2026-09-05 13:24:14 | 48.01864 | 11.59607 | 114° | 102km/h | 6846m | -2.7m/s | -17.0°C | 4.8% | 439.5hPa | 2.7V | 00:00:00 | 00:00:00 | 00:00:00 | |
| DO3MHA-12 | 2026-09-05 13:24:09 | 48.01920 | 11.59434 | 117° | 104km/h | 6860m | -2.9m/s | -17.1°C | 4.6% | 438.7hPa | 2.6V | 00:00:00 | 02:55:08 | 00:00:00 | |
| DG1MFX-10 | 2026-09-05 13:24:03 | 48.01973 | 11.59255 | 115° | 100km/h | 6874m | -2.8m/s | -17.2°C | 4.0% | 437.9hPa | 2.6V | 07:31:00 | 00:00:00 | 00:00:00 | |
| DL6DJ-15 | 2026-09-05 13:23:48 | 48.02147 | 11.58691 | 114° | 99km/h | 6918m | -2.7m/s | -17.5°C | 3.9% | 435.3hPa | 2.6V | 00:00:00 | 00:00:00 | 00:00:00 | |
| DB0UT-7 | 2026-09-05 13:23:47 | 48.02158 | 11.58657 | 117° | 102km/h | 6921m | -2.9m/s | -17.4°C | 4.3% | 435.1hPa | 2.6V | 00:00:00 | 00:00:00 | 00:00:00 | |
| NBG1-10 | 2026-09-05 13:23:46 | 48.02170 | 11.58623 | 117° | 102km/h | 6924m | -3.0m/s | -17.4°C | 4.3% | 434.9hPa | 2.6V | 07:31:00 | 02:54:45 | 00:00:00 | |
| OE5DXL-15 | 2026-09-05 13:23:44 | 48.02193 | 11.58551 | 115° | 102km/h | 6929m | -2.5m/s | -17.5°C | 4.4% | 434.6hPa | 2.6V | 00:00:00 | 00:00:00 | 00:00:00 | |
| DG1MFX-10 | 2026-09-05 13:23:42 | 48.02204 | 11.58514 | 114° | 106km/h | 6932m | -2.8m/s | -17.5°C | 3.9% | 434.6hPa | 2.6V | 07:31:00 | 00:00:00 | 00:00:00 | |
| DB0NH | 2026-09-05 13:23:41 | 48.02224 | 11.58442 | 113° | 102km/h | 6938m | -2.7m/s | -17.5°C | 4.3% | 434.2hPa | 2.6V | 00:00:00 | 02:54:40 | 00:00:00 | |
| DO3MHA-12 | 2026-09-05 13:23:39 | 48.02244 | 11.58374 | 116° | 102km/h | 6943m | -2.7m/s | -17.5°C | 4.3% | 433.8hPa | 2.6V | 00:00:00 | 02:54:38 | 00:00:00 | |
| DB0ND-19 | 2026-09-05 13:23:36 | 48.02278 | 11.58270 | 115° | 104km/h | 6952m | -3.0m/s | -17.7°C | 3.9% | 433.4hPa | 2.6V | 00:00:00 | 00:00:00 | 00:00:00 | |
| OE5DRO-10 | 2026-09-05 13:23:31 | 48.02331 | 11.58096 | 117° | 102km/h | 6967m | -2.8m/s | -17.7°C | 4.4% | 432.5hPa | 2.6V | 00:00:00 | 00:00:00 | 00:00:00 | |
| DO3MHA-12 | 2026-09-05 13:23:29 | 48.02355 | 11.58027 | 116° | 102km/h | 6972m | -2.8m/s | -17.8°C | 4.4% | 432.2hPa | 2.5V | 00:00:00 | 02:54:28 | 00:00:00 | |
| DG1MFX-10 | 2026-09-05 13:23:21 | 48.02431 | 11.57782 | 118° | 102km/h | 6992m | -2.7m/s | -18.0°C | 4.0% | 431.0hPa | 2.5V | 07:31:00 | 00:00:00 | 00:00:00 | |
| DO3MHA-12 | 2026-09-05 13:23:19 | 48.02464 | 11.57675 | 114° | 100km/h | 7001m | -2.9m/s | -18.0°C | 4.4% | 430.4hPa | 2.5V | 00:00:00 | 02:54:18 | 00:00:00 | |
| DB0UT-7 | 2026-09-05 13:23:17 | 48.02484 | 11.57605 | 113° | 100km/h | 7007m | -2.8m/s | -18.0°C | 4.4% | 430.2hPa | 2.6V | 00:00:00 | 02:54:16 | 00:00:00 | |
| OE5DXL-15 | 2026-09-05 13:23:14 | 48.02516 | 11.57503 | 117° | 99km/h | 7016m | -3.0m/s | -18.1°C | 4.4% | 429.6hPa | 2.6V | 00:00:00 | 00:00:00 | 00:00:00 | |
| NBG1-10 | 2026-09-05 13:23:13 | 48.02527 | 11.57468 | 116° | 100km/h | 7019m | -3.0m/s | -18.1°C | 4.4% | 429.5hPa | 2.6V | 00:00:00 | 02:54:12 | 00:00:00 | |
| OE5DRO-10 | 2026-09-05 13:23:12 | 48.02538 | 11.57433 | 115° | 100km/h | 7022m | -2.8m/s | -18.1°C | 4.4% | 429.3hPa | 2.6V | 00:00:00 | 00:00:00 | 00:00:00 | |
| DB0NH | 2026-09-05 13:23:11 | 48.02549 | 11.57398 | 114° | 99km/h | 7025m | -2.6m/s | -18.2°C | 4.4% | 429.2hPa | 2.6V | 00:00:00 | 02:54:10 | 00:00:00 | |
| DO3MHA-12 | 2026-09-05 13:23:09 | 48.02569 | 11.57330 | 116° | 100km/h | 7030m | -2.5m/s | -18.2°C | 4.4% | 428.7hPa | 2.5V | 07:31:00 | 02:54:08 | 00:00:00 | |
| DG1MFX-10 | 2026-09-05 13:23:01 | 48.02644 | 11.57088 | 113° | 99km/h | 7049m | -3.5m/s | -18.4°C | 4.0% | 427.7hPa | 2.5V | 07:32:00 | 00:00:00 | 00:00:00 | |
| DL6DJ-15 | 2026-09-05 13:22:46 | 48.02804 | 11.56541 | 113° | 93km/h | 7099m | -2.9m/s | -18.8°C | 4.9% | 424.8hPa | 2.5V | 00:00:00 | 00:00:00 | 00:00:00 | |
| OE5DXL-15 | 2026-09-05 13:22:44 | 48.02824 | 11.56476 | 116° | 100km/h | 7105m | -3.4m/s | -18.7°C | 5.9% | 424.5hPa | 2.5V | 00:00:00 | 00:00:00 | 00:00:00 | |
| DL9SK-14 | 2026-09-05 13:22:42 | 48.02846 | 11.56407 | 114° | 102km/h | 7111m | -2.8m/s | -18.8°C | 5.6% | 424.2hPa | 2.5V | 00:00:00 | 00:00:00 | 00:00:00 | |
| NBG1-10 | 2026-09-05 13:22:40 | 48.02867 | 11.56336 | 113° | 100km/h | 7117m | -3.2m/s | -18.8°C | 6.5% | 423.8hPa | 2.5V | 00:00:00 | 02:53:39 | 00:00:00 | |
| DO3MHA-12 | 2026-09-05 13:22:39 | 48.02877 | 11.56302 | 114° | 100km/h | 7120m | -3.3m/s | -18.8°C | 6.5% | 423.6hPa | 2.5V | 00:00:00 | 02:53:38 | 00:00:00 | |
| OE5DRO-10 | 2026-09-05 13:22:34 | 48.02931 | 11.56132 | 115° | 100km/h | 7137m | -2.9m/s | -18.8°C | 8.5% | 422.7hPa | 2.5V | 00:00:00 | 00:00:00 | 00:00:00 | |
| DO3MHA-11 | 2026-09-05 13:22:29 | 48.02980 | 11.55959 | 116° | 100km/h | 7151m | -3.1m/s | -18.9°C | 6.7% | 421.8hPa | 2.5V | 00:00:00 | 02:53:28 | 00:00:00 | |
| DO3MHA-12 | 2026-09-05 13:22:19 | 48.03082 | 11.55611 | 115° | 100km/h | 7180m | -2.9m/s | -19.1°C | 7.0% | 420.1hPa | 2.5V | 00:00:00 | 02:53:18 | 00:00:00 | |
| DB0UT-7 | 2026-09-05 13:22:17 | 48.03103 | 11.55540 | 112° | 100km/h | 7186m | -3.4m/s | -19.2°C | 7.6% | 419.8hPa | 2.6V | 00:00:00 | 02:53:16 | 00:00:00 | |
| DG1MJG | 2026-09-05 13:22:16 | 48.03103 | 11.55540 | 113° | 102km/h | 7186m | -3.4m/s | -19.2°C | 7.0% | 419.9hPa | 2.6V | 07:33:00 | 00:00:00 | 00:00:00 | |
| OE5DRO-10 | 2026-09-05 13:22:15 | 48.03122 | 11.55470 | 113° | 100km/h | 7192m | -3.2m/s | -19.2°C | 8.8% | 419.4hPa | 2.6V | 00:00:00 | 00:00:00 | 00:00:00 | |
| OE5DXL-15 | 2026-09-05 13:22:14 | 48.03132 | 11.55436 | 115° | 100km/h | 7195m | -2.9m/s | -19.2°C | 9.3% | 419.2hPa | 2.6V | 00:00:00 | 00:00:00 | 00:00:00 | |
| DB0NH | 2026-09-05 13:22:11 | 48.03164 | 11.55332 | 114° | 100km/h | 7205m | -3.2m/s | -19.3°C | 9.3% | 418.7hPa | 2.6V | 00:00:00 | 02:53:10 | 00:00:00 | |
| DO3MHA-11 | 2026-09-05 13:22:09 | 48.03184 | 11.55261 | 113° | 100km/h | 7210m | -2.6m/s | -19.3°C | 9.4% | 418.3hPa | 2.6V | 00:00:00 | 02:53:08 | 00:00:00 | |
| NBG1-10 | 2026-09-05 13:22:07 | 48.03203 | 11.55193 | 115° | 100km/h | 7216m | -2.9m/s | -19.4°C | 9.9% | 418.0hPa | 2.6V | 00:00:00 | 02:53:06 | 00:00:00 | |
| DB0ND-19 | 2026-09-05 13:22:03 | 48.03246 | 11.55055 | 112° | 102km/h | 7228m | -3.5m/s | -19.5°C | 11.5% | 417.3hPa | 2.5V | 00:00:00 | 00:00:00 | 00:00:00 | |
| DO3MHA-11 | 2026-09-05 13:21:59 | 48.03285 | 11.54918 | 116° | 100km/h | 7241m | -3.3m/s | -19.5°C | 13.2% | 416.6hPa | 2.5V | 00:00:00 | 02:52:58 | 00:00:00 | |
| DG1MFX-10 | 2026-09-05 13:21:58 | 48.03285 | 11.54918 | 116° | 99km/h | 7241m | -3.4m/s | -19.6°C | 12.3% | 416.7hPa | 2.6V | 07:33:00 | 00:00:00 | 00:00:00 | |
| OE5DRO-10 | 2026-09-05 13:21:56 | 48.03319 | 11.54814 | 115° | 100km/h | 7250m | -3.5m/s | -19.6°C | 14.8% | 416.1hPa | 2.6V | 00:00:00 | 00:00:00 | 00:00:00 | |
| DO3MHA-12 | 2026-09-05 13:21:49 | 48.03392 | 11.54574 | 116° | 102km/h | 7273m | -3.3m/s | -19.8°C | 16.1% | 414.8hPa | 2.6V | 07:33:00 | 02:52:48 | 00:00:00 | |
| DB0UT-7 | 2026-09-05 13:21:47 | 48.03413 | 11.54504 | 114° | 102km/h | 7279m | -3.1m/s | -19.9°C | 15.8% | 414.5hPa | 2.5V | 00:00:00 | 00:00:00 | 00:00:00 | |
| DG1MJG | 2026-09-05 13:21:46 | 48.03413 | 11.54504 | 114° | 100km/h | 7279m | -3.1m/s | -19.9°C | 14.8% | 414.5hPa | 2.5V | 07:33:00 | 00:00:00 | 00:00:00 | |
| OE5DXL-15 | 2026-09-05 13:21:44 | 48.03444 | 11.54402 | 117° | 102km/h | 7288m | -3.0m/s | -20.0°C | 15.4% | 413.9hPa | 2.5V | 07:33:00 | 00:00:00 | 00:00:00 | |
| DB0NH | 2026-09-05 13:21:41 | 48.03479 | 11.54299 | 116° | 104km/h | 7297m | -3.4m/s | -20.0°C | 16.1% | 413.4hPa | 2.5V | 00:00:00 | 02:52:40 | 00:00:00 | |
| DL9SK-14 | 2026-09-05 13:21:40 | 48.03490 | 11.54263 | 113° | 104km/h | 7300m | -3.3m/s | -20.1°C | 15.2% | 413.2hPa | 2.6V | 00:00:00 | 00:00:00 | 00:00:00 | |
| DO3MHA-11 | 2026-09-05 13:21:39 | 48.03500 | 11.54226 | 113° | 100km/h | 7304m | -3.1m/s | -20.1°C | 16.4% | 413.1hPa | 2.6V | 00:00:00 | 02:52:38 | 00:00:00 | |
| OE5DRO-10 | 2026-09-05 13:21:37 | 48.03520 | 11.54156 | 113° | 102km/h | 7310m | -3.3m/s | -20.2°C | 16.9% | 412.7hPa | 2.6V | 00:00:00 | 00:00:00 | 00:00:00 | |
| NBG1-10 | 2026-09-05 13:21:34 | 48.03552 | 11.54051 | 115° | 106km/h | 7319m | -3.0m/s | -20.3°C | 21.3% | 412.1hPa | 2.6V | 00:00:00 | 02:52:33 | 00:00:00 | |
| DB0ND-19 | 2026-09-05 13:21:32 | 48.03573 | 11.53979 | 112° | 100km/h | 7326m | -3.3m/s | -20.3°C | 21.0% | 411.8hPa | 2.6V | 00:00:00 | 00:00:00 | 00:00:00 | |
| DO3MHA-12 | 2026-09-05 13:21:29 | 48.03602 | 11.53877 | 116° | 104km/h | 7335m | -3.4m/s | -20.4°C | 23.3% | 411.2hPa | 2.6V | 00:00:00 | 02:52:28 | 00:00:00 | |
| DO3MHA-12 | 2026-09-05 13:21:19 | 48.03714 | 11.53519 | 114° | 104km/h | 7368m | -3.4m/s | -20.7°C | 26.9% | 409.4hPa | 2.6V | 00:00:00 | 02:52:18 | 00:00:00 | |
| OE5DRO-10 | 2026-09-05 13:21:18 | 48.03725 | 11.53480 | 112° | 108km/h | 7371m | -3.6m/s | -20.7°C | 27.2% | 409.2hPa | 2.6V | 00:00:00 | 00:00:00 | 00:00:00 | |
| DB0UT-7 | 2026-09-05 13:21:17 | 48.03735 | 11.53442 | 111° | 108km/h | 7375m | -3.7m/s | -20.7°C | 27.4% | 409.0hPa | 2.6V | 00:00:00 | 02:52:16 | 00:00:00 | |
| DG1MFX-10 | 2026-09-05 13:21:16 | 48.03735 | 11.53442 | 112° | 108km/h | 7375m | -3.8m/s | -20.8°C | 25.9% | 409.0hPa | 2.5V | 07:34:00 | 00:00:00 | 00:00:00 | |
| DG1MJG | 2026-09-05 13:21:15 | 48.03745 | 11.53405 | 113° | 102km/h | 7378m | -3.4m/s | -20.8°C | 26.4% | 408.9hPa | 2.5V | 07:34:00 | 00:00:00 | 00:00:00 | |
| OE5DXL-15 | 2026-09-05 13:21:14 | 48.03766 | 11.53337 | 117° | 110km/h | 7383m | -3.9m/s | -20.8°C | 30.1% | 408.5hPa | 2.5V | 00:00:00 | 00:00:00 | 00:00:00 | |
| DL6DJ-15 | 2026-09-05 13:21:13 | 48.03777 | 11.53304 | 117° | 99km/h | 7387m | -4.1m/s | -20.9°C | 29.6% | 408.4hPa | 2.6V | 00:00:00 | 00:00:00 | 00:00:00 | |
| DO3MHA-12 | 2026-09-05 13:21:09 | 48.03829 | 11.53169 | 122° | 113km/h | 7402m | -3.2m/s | -20.9°C | 33.1% | 407.5hPa | 2.6V | 00:00:00 | 02:52:08 | 00:00:00 | |
| DO3MHA-11 | 2026-09-05 13:21:08 | 48.03843 | 11.53134 | 121° | 113km/h | 7406m | -4.0m/s | -20.9°C | 33.4% | 407.2hPa | 2.6V | 00:00:00 | 02:52:07 | 00:00:00 | |
| NBG1-10 | 2026-09-05 13:21:01 | 48.03936 | 11.52867 | 112° | 110km/h | 7432m | -3.6m/s | -21.0°C | 34.3% | 405.9hPa | 2.6V | 00:00:00 | 02:52:00 | 00:00:00 | |
| OE5DRO-10 | 2026-09-05 13:20:59 | 48.03956 | 11.52786 | 110° | 110km/h | 7439m | -3.7m/s | -21.0°C | 34.5% | 405.6hPa | 2.6V | 00:00:00 | 00:00:00 | 00:00:00 | |
| DO3MHA-11 | 2026-09-05 13:20:58 | 48.03964 | 11.52746 | 108° | 104km/h | 7443m | -3.6m/s | -20.9°C | 35.2% | 405.3hPa | 2.6V | 07:33:00 | 02:51:57 | 00:00:00 | |
| DG1MFX-10 | 2026-09-05 13:20:56 | 48.03973 | 11.52708 | 110° | 104km/h | 7447m | -3.6m/s | -21.0°C | 34.4% | 405.2hPa | 2.6V | 07:34:00 | 00:00:00 | 00:00:00 | |
| DO3MHA-12 | 2026-09-05 13:20:49 | 48.04064 | 11.52428 | 120° | 113km/h | 7473m | -3.5m/s | -21.0°C | 50.2% | 403.7hPa | 2.6V | 00:00:00 | 02:51:48 | 00:00:00 | |
| DO3MHA-11 | 2026-09-05 13:20:48 | 48.04079 | 11.52390 | 119° | 111km/h | 7477m | -4.1m/s | -20.9°C | 51.3% | 403.5hPa | 2.5V | 00:00:00 | 02:51:47 | 00:00:00 | |
| DB0UT-7 | 2026-09-05 13:20:47 | 48.04093 | 11.52350 | 117° | 106km/h | 7481m | -4.1m/s | -21.0°C | 51.4% | 403.3hPa | 2.5V | 00:00:00 | 00:00:00 | 00:00:00 | |
| OE5DXL-15 | 2026-09-05 13:20:44 | 48.04129 | 11.52227 | 112° | 106km/h | 7491m | -3.5m/s | -21.0°C | 51.9% | 402.7hPa | 2.5V | 00:00:00 | 00:00:00 | 00:00:00 | |
| DL6DJ-15 | 2026-09-05 13:20:42 | 48.04149 | 11.52148 | 110° | 106km/h | 7498m | -3.4m/s | -21.1°C | 49.9% | 402.5hPa | 2.5V | 00:00:00 | 00:00:00 | 00:00:00 | |
| DB0NH | 2026-09-05 13:20:41 | 48.04158 | 11.52111 | 111° | 108km/h | 7501m | -3.5m/s | -21.0°C | 52.3% | 402.2hPa | 2.5V | 07:34:00 | 02:51:40 | 00:00:00 | |
| OE5DRO-10 | 2026-09-05 13:20:40 | 48.04168 | 11.52075 | 115° | 104km/h | 7504m | -2.7m/s | -21.1°C | 52.5% | 402.0hPa | 2.5V | 00:00:00 | 00:00:00 | 00:00:00 | |
| DO3MHA-12 | 2026-09-05 13:20:39 | 48.04179 | 11.52041 | 116° | 110km/h | 7508m | -3.2m/s | -21.1°C | 52.7% | 401.8hPa | 2.6V | 00:00:00 | 02:51:38 | 00:00:00 | |
| DO3MHA-11 | 2026-09-05 13:20:38 | 48.04190 | 11.52006 | 118° | 110km/h | 7511m | -3.5m/s | -21.1°C | 53.0% | 401.7hPa | 2.6V | 00:00:00 | 02:51:37 | 00:00:00 | |
| DG1MFX-10 | 2026-09-05 13:20:36 | 48.04203 | 11.51971 | 119° | 110km/h | 7514m | -3.1m/s | -21.1°C | 50.7% | 401.5hPa | 2.6V | 07:35:00 | 00:00:00 | 00:00:00 | |
| DB0ND-19 | 2026-09-05 13:20:30 | 48.04284 | 11.51700 | 110° | 104km/h | 7536m | -3.2m/s | -21.2°C | 45.5% | 400.4hPa | 2.6V | 00:00:00 | 00:00:00 | 00:00:00 | |
| DO3MHA-12 | 2026-09-05 13:20:29 | 48.04294 | 11.51664 | 115° | 99km/h | 7539m | -2.8m/s | -21.1°C | 47.0% | 400.0hPa | 2.6V | 07:34:00 | 02:51:28 | 00:00:00 | |
| DO3MHA-11 | 2026-09-05 13:20:28 | 48.04304 | 11.51629 | 116° | 99km/h | 7542m | -3.0m/s | -21.1°C | 46.7% | 399.9hPa | 2.6V | 00:00:00 | 02:51:27 | 00:00:00 | |
| OE5DRO-10 | 2026-09-05 13:20:21 | 48.04379 | 11.51397 | 113° | 111km/h | 7567m | -3.7m/s | -21.2°C | 48.2% | 398.5hPa | 2.5V | 07:34:00 | 00:00:00 | 00:00:00 | |
| DO3MHA-12 | 2026-09-05 13:20:19 | 48.04399 | 11.51324 | 112° | 115km/h | 7572m | -2.8m/s | -21.2°C | 48.8% | 398.2hPa | 2.5V | 00:00:00 | 02:51:18 | 00:00:00 | |
| DO3MHA-11 | 2026-09-05 13:20:18 | 48.04408 | 11.51285 | 112° | 115km/h | 7575m | -3.2m/s | -21.3°C | 49.0% | 398.1hPa | 2.5V | 00:00:00 | 02:51:17 | 00:00:00 | |
| DB0UT-7 | 2026-09-05 13:20:17 | 48.04419 | 11.51246 | 113° | 113km/h | 7579m | -3.1m/s | -21.3°C | 49.1% | 397.9hPa | 2.5V | 07:34:00 | 02:51:16 | 00:00:00 | |
| DG1MFX-10 | 2026-09-05 13:20:16 | 48.04419 | 11.51246 | 113° | 113km/h | 7579m | -3.2m/s | -21.4°C | 47.0% | 397.9hPa | 2.5V | 07:35:00 | 00:00:00 | 00:00:00 | |
| OE5DXL-15 | 2026-09-05 13:20:14 | 48.04454 | 11.51127 | 115° | 110km/h | 7589m | -3.2m/s | -21.4°C | 49.7% | 397.5hPa | 2.5V | 00:00:00 | 00:00:00 | 00:00:00 | |
| DL6DJ-15 | 2026-09-05 13:20:11 | 48.04490 | 11.51005 | 113° | 117km/h | 7598m | -3.7m/s | -21.5°C | 48.0% | 396.9hPa | 2.5V | 00:00:00 | 00:00:00 | 00:00:00 | |
| DO3MHA-12 | 2026-09-05 13:20:09 | 48.04513 | 11.50923 | 113° | 110km/h | 7605m | -3.1m/s | -21.5°C | 51.0% | 396.5hPa | 2.5V | 00:00:00 | 02:51:08 | 00:00:00 | |
| DO3MHA-11 | 2026-09-05 13:20:08 | 48.04524 | 11.50882 | 113° | 108km/h | 7608m | -3.0m/s | -21.5°C | 51.2% | 396.3hPa | 2.5V | 00:00:00 | 02:51:07 | 00:00:00 | |
| DL9SK-14 | 2026-09-05 13:20:07 | 48.04535 | 11.50843 | 111° | 111km/h | 7611m | -3.3m/s | -21.6°C | 49.2% | 396.2hPa | 2.5V | 00:00:00 | 00:00:00 | 00:00:00 | |
| OE5DRO-10 | 2026-09-05 13:20:02 | 48.04586 | 11.50661 | 118° | 110km/h | 7628m | -2.6m/s | -21.7°C | 52.9% | 395.3hPa | 2.5V | 00:00:00 | 00:00:00 | 00:00:00 | |
| DO3MHA-12 | 2026-09-05 13:19:59 | 48.04625 | 11.50551 | 117° | 117km/h | 7637m | -3.4m/s | -21.7°C | 53.9% | 394.9hPa | 2.5V | 00:00:00 | 02:50:58 | 00:00:00 | |
| DO3MHA-11 | 2026-09-05 13:19:58 | 48.04638 | 11.50512 | 117° | 115km/h | 7640m | -4.1m/s | -21.7°C | 53.7% | 394.7hPa | 2.5V | 00:00:00 | 02:50:57 | 00:00:00 | |
| OE5WHR-10 | 2026-09-05 13:19:57 | 48.04651 | 11.50472 | 116° | 110km/h | 7644m | -3.1m/s | -21.7°C | 53.6% | 394.5hPa | 2.6V | 00:00:00 | 02:50:56 | 00:00:00 | |
| DG1MFX-10 | 2026-09-05 13:19:56 | 48.04651 | 11.50472 | 116° | 120km/h | 7644m | -3.2m/s | -21.8°C | 51.3% | 394.5hPa | 2.6V | 07:35:00 | 00:00:00 | 00:00:00 | |
| NBG1-10 | 2026-09-05 13:19:55 | 48.04675 | 11.50390 | 113° | 108km/h | 7652m | -3.2m/s | -21.8°C | 53.6% | 394.1hPa | 2.6V | 00:00:00 | 02:50:54 | 00:00:00 | |
| DO3MHA-12 | 2026-09-05 13:19:49 | 48.04734 | 11.50147 | 108° | 104km/h | 7672m | -3.8m/s | -21.9°C | 51.1% | 393.1hPa | 2.6V | 00:00:00 | 02:50:48 | 00:00:00 | |
| DO3MHA-11 | 2026-09-05 13:19:48 | 48.04742 | 11.50111 | 110° | 106km/h | 7676m | -3.4m/s | -21.8°C | 50.3% | 392.8hPa | 2.5V | 00:00:00 | 02:50:47 | 00:00:00 | |
| DB0UT-7 | 2026-09-05 13:19:47 | 48.04751 | 11.50076 | 112° | 108km/h | 7679m | -3.4m/s | -21.8°C | 50.1% | 392.7hPa | 2.5V | 00:00:00 | 00:00:00 | 00:00:00 | |
| OE5DRO-10 | 2026-09-05 13:19:43 | 48.04795 | 11.49941 | 119° | 108km/h | 7693m | -3.1m/s | -21.8°C | 49.3% | 392.1hPa | 2.6V | 00:00:00 | 00:00:00 | 00:00:00 | |
| DB0NH | 2026-09-05 13:19:41 | 48.04822 | 11.49869 | 119° | 108km/h | 7699m | -3.5m/s | -21.8°C | 49.3% | 391.7hPa | 2.6V | 00:00:00 | 02:50:40 | 00:00:00 | |
| DL6DJ-15 | 2026-09-05 13:19:40 | 48.04848 | 11.49791 | 113° | 119km/h | 7706m | -3.0m/s | -21.9°C | 46.8% | 391.4hPa | 2.6V | 00:00:00 | 00:00:00 | 00:00:00 | |
| DO3MHA-12 | 2026-09-05 13:19:39 | 48.04848 | 11.49790 | 114° | 106km/h | 7706m | -2.9m/s | -21.8°C | 49.0% | 391.3hPa | 2.6V | 00:00:00 | 02:50:38 | 00:00:00 | |
| DO3MHA-11 | 2026-09-05 13:19:38 | 48.04860 | 11.49749 | 112° | 104km/h | 7709m | -2.9m/s | -21.8°C | 48.9% | 391.2hPa | 2.6V | 07:35:00 | 02:50:37 | 00:00:00 | |
| OE5WHR-10 | 2026-09-05 13:19:36 | 48.04880 | 11.49667 | 109° | 104km/h | 7715m | -3.2m/s | -21.8°C | 48.2% | 390.9hPa | 2.6V | 00:00:00 | 00:00:00 | 00:00:00 | |
| DG1MFX-10 | 2026-09-05 13:19:35 | 48.04880 | 11.49667 | 109° | 111km/h | 7715m | -3.3m/s | -21.8°C | 46.0% | 390.9hPa | 2.6V | 07:35:00 | 00:00:00 | 00:00:00 | |
| OE5DXL-15 | 2026-09-05 13:19:32 | 48.04912 | 11.49519 | 111° | 108km/h | 7728m | -2.8m/s | -21.8°C | 45.7% | 390.2hPa | 2.6V | 00:00:00 | 00:00:00 | 00:00:00 | |
| DO3MHA-12 | 2026-09-05 13:19:29 | 48.04941 | 11.49417 | 115° | 111km/h | 7736m | -3.0m/s | -21.8°C | 44.7% | 389.7hPa | 2.5V | 00:00:00 | 02:50:28 | 00:00:00 | |
| DO3MHA-11 | 2026-09-05 13:19:28 | 48.04952 | 11.49383 | 117° | 113km/h | 7739m | -2.7m/s | -21.8°C | 44.3% | 389.5hPa | 2.5V | 00:00:00 | 02:50:27 | 00:00:00 | |
| OE5DRO-10 | 2026-09-05 13:19:24 | 48.05002 | 11.49234 | 114° | 110km/h | 7750m | -2.7m/s | -21.9°C | 44.3% | 388.9hPa | 2.5V | 00:00:00 | 00:00:00 | 00:00:00 | |
| NBG1-10 | 2026-09-05 13:19:22 | 48.05024 | 11.49151 | 110° | 108km/h | 7755m | -2.8m/s | -21.9°C | 43.4% | 388.5hPa | 2.5V | 07:35:00 | 02:50:21 | 00:00:00 | |
| DO3MHA-12 | 2026-09-05 13:19:19 | 48.05051 | 11.49027 | 108° | 102km/h | 7765m | -3.3m/s | -21.9°C | 42.7% | 388.1hPa | 2.5V | 00:00:00 | 02:50:18 | 00:00:00 | |
| DO3MHA-11 | 2026-09-05 13:19:18 | 48.05059 | 11.48987 | 107° | 102km/h | 7769m | -3.0m/s | -22.0°C | 42.7% | 387.9hPa | 2.5V | 00:00:00 | 02:50:17 | 00:00:00 | |
| DB0UT-7 | 2026-09-05 13:19:17 | 48.05067 | 11.48947 | 107° | 106km/h | 7772m | -3.6m/s | -22.0°C | 42.6% | 387.7hPa | 2.5V | 00:00:00 | 02:50:16 | 00:00:00 | |
| DG1MFX-10 | 2026-09-05 13:19:14 | 48.05082 | 11.48873 | 108° | 100km/h | 7779m | -3.9m/s | -22.0°C | 40.2% | 387.4hPa | 2.5V | 07:35:00 | 00:00:00 | 00:00:00 | |
| DG1MJG | 2026-09-05 13:19:12 | 48.05098 | 11.48805 | 113° | 93km/h | 7787m | -3.7m/s | -22.1°C | 40.3% | 387.2hPa | 2.5V | 07:35:00 | 00:00:00 | 00:00:00 | |
| DB0NH | 2026-09-05 13:19:11 | 48.05118 | 11.48738 | 116° | 108km/h | 7794m | -3.1m/s | -22.0°C | 41.9% | 386.8hPa | 2.5V | 00:00:00 | 02:50:10 | 00:00:00 | |
| DO3MHA-12 | 2026-09-05 13:19:09 | 48.05142 | 11.48668 | 119° | 113km/h | 7800m | -2.3m/s | -22.0°C | 41.2% | 386.4hPa | 2.5V | 07:35:00 | 02:50:08 | 00:00:00 | |
| DO3MHA-11 | 2026-09-05 13:19:08 | 48.05156 | 11.48631 | 119° | 113km/h | 7803m | -2.5m/s | -22.0°C | 40.9% | 386.2hPa | 2.5V | 00:00:00 | 02:50:07 | 00:00:00 | |
| OE5DRO-10 | 2026-09-05 13:19:05 | 48.05193 | 11.48511 | 112° | 108km/h | 7811m | -2.9m/s | -22.0°C | 40.4% | 385.8hPa | 2.5V | 00:00:00 | 00:00:00 | 00:00:00 | |
| OE5DXL-15 | 2026-09-05 13:19:02 | 48.05222 | 11.48387 | 108° | 106km/h | 7821m | -2.8m/s | -22.0°C | 39.9% | 385.3hPa | 2.5V | 00:00:00 | 00:00:00 | 00:00:00 | |
| DB0ND-19 | 2026-09-05 13:18:57 | 48.05281 | 11.48133 | 116° | 97km/h | 7843m | -2.4m/s | -22.2°C | 38.3% | 384.3hPa | 2.5V | 00:00:00 | 00:00:00 | 00:00:00 | |
| DG1MFX-10 | 2026-09-05 13:18:54 | 48.05281 | 11.48132 | 117° | 97km/h | 7843m | -2.4m/s | -22.2°C | 38.3% | 384.3hPa | 2.5V | 07:36:00 | 00:00:00 | 00:00:00 | |
| DO3MHA-12 | 2026-09-05 13:18:49 | 48.05354 | 11.47919 | 115° | 110km/h | 7860m | -2.6m/s | -22.2°C | 41.3% | 383.3hPa | 2.5V | 00:00:00 | 02:49:48 | 00:00:00 | |
| DO3MHA-11 | 2026-09-05 13:18:48 | 48.05365 | 11.47878 | 112° | 106km/h | 7863m | -2.8m/s | -22.2°C | 41.5% | 383.1hPa | 2.6V | 00:00:00 | 02:49:47 | 00:00:00 | |
| DB0UT-7 | 2026-09-05 13:18:47 | 48.05375 | 11.47837 | 109° | 104km/h | 7866m | -2.7m/s | -22.2°C | 41.4% | 383.0hPa | 2.6V | 00:00:00 | 00:00:00 | 00:00:00 | |
| OE5DRO-10 | 2026-09-05 13:18:46 | 48.05384 | 11.47796 | 107° | 106km/h | 7869m | -3.1m/s | -22.2°C | 41.2% | 382.8hPa | 2.6V | 00:00:00 | 00:00:00 | 00:00:00 | |
| DG1MJG | 2026-09-05 13:18:42 | 48.05408 | 11.47681 | 109° | 99km/h | 7878m | -2.6m/s | -22.3°C | 37.6% | 382.4hPa | 2.6V | 07:36:00 | 00:00:00 | 00:00:00 | |
| DB0NH | 2026-09-05 13:18:41 | 48.05425 | 11.47611 | 113° | 104km/h | 7883m | -2.5m/s | -22.2°C | 39.1% | 382.0hPa | 2.6V | 00:00:00 | 02:49:40 | 00:00:00 | |
| DO3MHA-12 | 2026-09-05 13:18:39 | 48.05444 | 11.47543 | 117° | 110km/h | 7889m | -3.3m/s | -22.2°C | 36.7% | 381.7hPa | 2.5V | 00:00:00 | 02:49:38 | 00:00:00 | |
| DO3MHA-11 | 2026-09-05 13:18:38 | 48.05456 | 11.47510 | 118° | 110km/h | 7892m | -2.6m/s | -22.2°C | 35.3% | 381.5hPa | 2.5V | 00:00:00 | 02:49:37 | 00:00:00 | |
| DL9SK-14 | 2026-09-05 13:18:34 | 48.05507 | 11.47367 | 117° | 111km/h | 7904m | -3.2m/s | -22.2°C | 31.0% | 381.0hPa | 2.5V | 00:00:00 | 00:00:00 | 00:00:00 | |
| DG1MFX-10 | 2026-09-05 13:18:33 | 48.05507 | 11.47367 | 118° | 113km/h | 7904m | -3.2m/s | -22.2°C | 31.0% | 381.0hPa | 2.5V | 07:36:00 | 00:00:00 | 00:00:00 | |
| OE5DXL-15 | 2026-09-05 13:18:32 | 48.05532 | 11.47287 | 114° | 106km/h | 7910m | -3.0m/s | -22.2°C | 32.0% | 380.6hPa | 2.5V | 00:00:00 | 00:00:00 | 00:00:00 | |
| DO3MHA-12 | 2026-09-05 13:18:29 | 48.05563 | 11.47166 | 111° | 100km/h | 7919m | -2.7m/s | -22.2°C | 31.5% | 380.2hPa | 2.5V | 00:00:00 | 02:49:28 | 00:00:00 | |
| DO3MHA-11 | 2026-09-05 13:18:28 | 48.05572 | 11.47128 | 110° | 100km/h | 7922m | -3.0m/s | -22.3°C | 31.4% | 380.0hPa | 2.5V | 00:00:00 | 02:49:27 | 00:00:00 | |
| OE5DRO-10 | 2026-09-05 13:18:27 | 48.05581 | 11.47092 | 112° | 102km/h | 7926m | -3.2m/s | -22.3°C | 31.6% | 379.9hPa | 2.6V | 00:00:00 | 00:00:00 | 00:00:00 | |
| DB0ND-19 | 2026-09-05 13:18:26 | 48.05591 | 11.47057 | 114° | 97km/h | 7929m | -3.2m/s | -22.3°C | 29.9% | 379.9hPa | 2.6V | 00:00:00 | 00:00:00 | 00:00:00 | |
| DO3MHA-12 | 2026-09-05 13:18:19 | 48.05673 | 11.46824 | 118° | 104km/h | 7949m | -2.7m/s | -22.5°C | 32.2% | 378.7hPa | 2.6V | 00:00:00 | 02:49:18 | 00:00:00 | |
| DO3MHA-11 | 2026-09-05 13:18:18 | 48.05684 | 11.46791 | 114° | 106km/h | 7952m | -2.9m/s | -22.5°C | 32.4% | 378.5hPa | 2.5V | 07:36:00 | 02:49:17 | 00:00:00 | |
| DB0UT-7 | 2026-09-05 13:18:17 | 48.05693 | 11.46758 | 112° | 108km/h | 7955m | -2.5m/s | -22.5°C | 32.4% | 378.4hPa | 2.5V | 00:00:00 | 02:49:16 | 00:00:00 | |
| NBG1-10 | 2026-09-05 13:18:16 | 48.05702 | 11.46724 | 111° | 108km/h | 7958m | -2.1m/s | -22.5°C | 32.5% | 378.2hPa | 2.5V | 00:00:00 | 02:49:15 | 00:00:00 | |
| DG1MFX-10 | 2026-09-05 13:18:12 | 48.05728 | 11.46614 | 109° | 106km/h | 7965m | -2.4m/s | -22.7°C | 31.3% | 377.9hPa | 2.5V | 07:36:00 | 00:00:00 | 00:00:00 | |
| DB0NH | 2026-09-05 13:18:11 | 48.05745 | 11.46536 | 110° | 108km/h | 7970m | -3.0m/s | -22.7°C | 33.4% | 377.6hPa | 2.5V | 00:00:00 | 02:49:10 | 00:00:00 | |
| DO3MHA-12 | 2026-09-05 13:18:09 | 48.05767 | 11.46456 | 114° | 111km/h | 7975m | -2.3m/s | -22.7°C | 33.7% | 377.2hPa | 2.5V | 00:00:00 | 02:49:08 | 00:00:00 | |
| DO3MHA-11 | 2026-09-05 13:18:08 | 48.05779 | 11.46415 | 115° | 110km/h | 7978m | -2.5m/s | -22.7°C | 33.8% | 377.1hPa | 2.5V | 00:00:00 | 02:49:07 | 00:00:00 | |
| DL6DJ-15 | 2026-09-05 13:18:07 | 48.05805 | 11.46335 | 116° | 113km/h | 7984m | -3.3m/s | -22.8°C | 32.1% | 376.8hPa | 2.5V | 00:00:00 | 00:00:00 | 00:00:00 | |
| DL9SK-14 | 2026-09-05 13:18:03 | 48.05858 | 11.46189 | 120° | 102km/h | 7996m | -2.8m/s | -22.9°C | 32.6% | 376.2hPa | 2.5V | 00:00:00 | 00:00:00 | 00:00:00 | |
| OE5DXL-15 | 2026-09-05 13:18:02 | 48.05858 | 11.46189 | 121° | 108km/h | 7996m | -2.7m/s | -22.9°C | 34.5% | 376.2hPa | 2.5V | 00:00:00 | 00:00:00 | 00:00:00 | |
| DB0ND-19 | 2026-09-05 13:17:55 | 48.05949 | 11.45956 | 121° | 108km/h | 8017m | -2.4m/s | -23.1°C | 33.4% | 375.2hPa | 2.6V | 00:00:00 | 00:00:00 | 00:00:00 | |
| DG1MFX-10 | 2026-09-05 13:17:51 | 48.05992 | 11.45847 | 121° | 113km/h | 8025m | -3.2m/s | -23.2°C | 33.6% | 374.7hPa | 2.6V | 07:37:00 | 00:00:00 | 00:00:00 | |
| DO3MHA-12 | 2026-09-05 13:17:49 | 48.06031 | 11.45730 | 113° | 104km/h | 8034m | -2.4m/s | -23.2°C | 35.7% | 374.3hPa | 2.6V | 07:37:00 | 02:48:48 | 00:00:00 | |
| DO3MHA-11 | 2026-09-05 13:17:48 | 48.06042 | 11.45691 | 113° | 102km/h | 8037m | -2.6m/s | -23.2°C | 35.7% | 374.1hPa | 2.5V | 00:00:00 | 02:48:47 | 00:00:00 | |
| DB0UT-7 | 2026-09-05 13:17:47 | 48.06051 | 11.45653 | 111° | 110km/h | 8039m | -2.8m/s | -23.2°C | 35.6% | 374.0hPa | 2.5V | 00:00:00 | 00:00:00 | 00:00:00 | |
| NBG1-10 | 2026-09-05 13:17:43 | 48.06091 | 11.45514 | 119° | 111km/h | 8051m | -2.8m/s | -23.3°C | 34.6% | 373.5hPa | 2.5V | 00:00:00 | 02:48:42 | 00:00:00 | |
| DB0NH | 2026-09-05 13:17:41 | 48.06116 | 11.45449 | 122° | 111km/h | 8056m | -3.2m/s | -23.3°C | 34.5% | 373.2hPa | 2.5V | 00:00:00 | 02:48:40 | 00:00:00 | |
| DO3MHA-12 | 2026-09-05 13:17:39 | 48.06144 | 11.45381 | 123° | 115km/h | 8062m | -2.4m/s | -23.4°C | 34.1% | 372.8hPa | 2.5V | 00:00:00 | 02:48:38 | 00:00:00 | |
| DO3MHA-11 | 2026-09-05 13:17:38 | 48.06159 | 11.45346 | 123° | 113km/h | 8064m | -3.1m/s | -23.4°C | 33.5% | 372.7hPa | 2.5V | 00:00:00 | 02:48:37 | 00:00:00 | |
| DL6DJ-15 | 2026-09-05 13:17:36 | 48.06203 | 11.45234 | 118° | 115km/h | 8072m | -3.4m/s | -23.5°C | 0% | 372.3hPa | 2.5V | 00:00:00 | 00:00:00 | 00:00:00 | |
| OE5DXL-15 | 2026-09-05 13:17:32 | 48.06243 | 11.45114 | 114° | 111km/h | 8081m | -2.9m/s | -23.5°C | 35.6% | 371.8hPa | 2.5V | 07:37:00 | 00:00:00 | 00:00:00 | |
| DG1MFX-10 | 2026-09-05 13:17:31 | 48.06243 | 11.45114 | 115° | 115km/h | 8081m | -3.0m/s | -23.5°C | 33.7% | 371.8hPa | 2.5V | 07:37:00 | 00:00:00 | 00:00:00 | |
| OE5DRO-10 | 2026-09-05 13:17:30 | 48.06264 | 11.45036 | 111° | 111km/h | 8088m | -2.9m/s | -23.5°C | 34.9% | 371.5hPa | 2.5V | 00:00:00 | 00:00:00 | 00:00:00 | |
| DO3MHA-12 | 2026-09-05 13:17:29 | 48.06274 | 11.44999 | 114° | 108km/h | 8090m | -2.6m/s | -23.5°C | 34.4% | 371.4hPa | 2.5V | 00:00:00 | 02:48:28 | 00:00:00 | |
| DO3MHA-11 | 2026-09-05 13:17:28 | 48.06285 | 11.44964 | 117° | 110km/h | 8093m | -2.5m/s | -23.6°C | 34.3% | 371.2hPa | 2.5V | 00:00:00 | 02:48:27 | 00:00:00 | |
| OE5WHR-10 | 2026-09-05 13:17:26 | 48.06310 | 11.44898 | 121° | 110km/h | 8097m | -2.2m/s | -23.6°C | 34.5% | 371.0hPa | 2.6V | 00:00:00 | 00:00:00 | 00:00:00 | |
| DB0ND-19 | 2026-09-05 13:17:24 | 48.06338 | 11.44829 | 122° | 108km/h | 8102m | -2.6m/s | -23.7°C | 32.9% | 370.7hPa | 2.6V | 00:00:00 | 00:00:00 | 00:00:00 | |
| DO3MHA-12 | 2026-09-05 13:17:19 | 48.06414 | 11.44644 | 119° | 113km/h | 8117m | -2.6m/s | -23.7°C | 32.4% | 369.9hPa | 2.6V | 00:00:00 | 02:48:18 | 00:00:00 | |
| DO3MHA-11 | 2026-09-05 13:17:18 | 48.06429 | 11.44603 | 119° | 111km/h | 8120m | -3.1m/s | -23.7°C | 32.5% | 369.8hPa | 2.5V | 00:00:00 | 02:48:17 | 00:00:00 | |
| DB0UT-7 | 2026-09-05 13:17:17 | 48.06443 | 11.44562 | 116° | 111km/h | 8124m | -3.5m/s | -23.7°C | 32.8% | 369.6hPa | 2.5V | 00:00:00 | 02:48:16 | 00:00:00 | |
| DB0NH | 2026-09-05 13:17:11 | 48.06510 | 11.44325 | 114° | 113km/h | 8142m | -3.5m/s | -23.9°C | 34.0% | 368.7hPa | 2.5V | 00:00:00 | 02:48:10 | 00:00:00 | |
| NBG1-10 | 2026-09-05 13:17:10 | 48.06520 | 11.44291 | 117° | 113km/h | 8146m | -3.0m/s | -23.9°C | 34.0% | 368.5hPa | 2.6V | 00:00:00 | 02:48:09 | 00:00:00 | |
| DO3MHA-12 | 2026-09-05 13:17:09 | 48.06532 | 11.44258 | 120° | 113km/h | 8149m | -2.5m/s | -23.9°C | 34.1% | 368.4hPa | 2.6V | 00:00:00 | 02:48:08 | 00:00:00 | |
| DO3MHA-11 | 2026-09-05 13:17:08 | 48.06545 | 11.44225 | 120° | 115km/h | 8151m | -2.8m/s | -24.0°C | 34.1% | 368.2hPa | 2.6V | 00:00:00 | 02:48:07 | 00:00:00 | |
| DL6DJ-15 | 2026-09-05 13:17:05 | 48.06604 | 11.44086 | 121° | 119km/h | 8163m | -2.9m/s | -24.1°C | 31.8% | 367.6hPa | 2.6V | 00:00:00 | 00:00:00 | 00:00:00 | |
| OE5WHR-10 | 2026-09-05 13:17:03 | 48.06619 | 11.44047 | 122° | 110km/h | 8165m | -2.9m/s | -24.0°C | 33.4% | 367.5hPa | 2.6V | 07:37:00 | 02:48:02 | 00:00:00 | |
| OE5DXL-15 | 2026-09-05 13:17:02 | 48.06635 | 11.44008 | 119° | 113km/h | 8168m | -3.1m/s | -24.0°C | 33.5% | 367.3hPa | 2.6V | 00:00:00 | 00:00:00 | 00:00:00 | |
| DL9SK-14 | 2026-09-05 13:17:01 | 48.06664 | 11.43926 | 117° | 124km/h | 8174m | -3.0m/s | -24.2°C | 31.8% | 367.1hPa | 2.6V | 00:00:00 | 00:00:00 | 00:00:00 | |
| DB0ND-19 | 2026-09-05 13:16:53 | 48.06771 | 11.43587 | 120° | 104km/h | 8200m | -3.5m/s | -24.4°C | 32.7% | 365.8hPa | 2.6V | 00:00:00 | 00:00:00 | 00:00:00 | |
| OE5DRO-10 | 2026-09-05 13:16:52 | 48.06758 | 11.43620 | 121° | 111km/h | 8197m | -3.4m/s | -24.3°C | 34.7% | 365.8hPa | 2.6V | 00:00:00 | 00:00:00 | 00:00:00 | |
| DO3MHA-12 | 2026-09-05 13:16:49 | 48.06800 | 11.43520 | 124° | 119km/h | 8206m | -3.9m/s | -24.4°C | 35.0% | 365.3hPa | 2.6V | 00:00:00 | 02:47:48 | 00:00:00 | |
| DO3MHA-11 | 2026-09-05 13:16:48 | 48.06815 | 11.43485 | 123° | 119km/h | 8210m | -3.3m/s | -24.4°C | 34.9% | 365.1hPa | 2.5V | 00:00:00 | 02:47:47 | 00:00:00 | |
| DB0UT-7 | 2026-09-05 13:16:47 | 48.06831 | 11.43449 | 125° | 115km/h | 8213m | -2.9m/s | -24.5°C | 35.0% | 365.0hPa | 2.5V | 00:00:00 | 00:00:00 | 00:00:00 | |
| DB0NH | 2026-09-05 13:16:41 | 48.06921 | 11.43208 | 114° | 113km/h | 8231m | -3.2m/s | -24.6°C | 35.5% | 364.1hPa | 2.5V | 07:38:00 | 02:47:40 | 00:00:00 | |
| DO3MHA-12 | 2026-09-05 13:16:39 | 48.06944 | 11.43127 | 112° | 108km/h | 8238m | -3.5m/s | -24.7°C | 35.6% | 363.7hPa | 2.5V | 00:00:00 | 02:47:38 | 00:00:00 | |
| DO3MHA-11 | 2026-09-05 13:16:38 | 48.06954 | 11.43089 | 114° | 110km/h | 8241m | -3.5m/s | -24.7°C | 35.6% | 363.6hPa | 2.5V | 00:00:00 | 02:47:37 | 00:00:00 | |
| NBG1-10 | 2026-09-05 13:16:37 | 48.06965 | 11.43053 | 115° | 115km/h | 8245m | -3.1m/s | -24.7°C | 35.7% | 363.4hPa | 2.5V | 00:00:00 | 02:47:36 | 00:00:00 | |
| OE5DRO-10 | 2026-09-05 13:16:33 | 48.07017 | 11.42917 | 123° | 115km/h | 8256m | -3.6m/s | -24.9°C | 35.7% | 362.8hPa | 2.5V | 00:00:00 | 00:00:00 | 00:00:00 | |
| OE5DXL-15 | 2026-09-05 13:16:32 | 48.07032 | 11.42882 | 125° | 117km/h | 8260m | -2.9m/s | -24.9°C | 35.6% | 362.7hPa | 2.5V | 00:00:00 | 00:00:00 | 00:00:00 | |
| DG1MFX-10 | 2026-09-05 13:16:30 | 48.07064 | 11.42810 | 124° | 117km/h | 8265m | -3.6m/s | -25.0°C | 33.5% | 362.4hPa | 2.6V | 07:38:00 | 00:00:00 | 00:00:00 | |
| DO3MHA-12 | 2026-09-05 13:16:29 | 48.07081 | 11.42772 | 123° | 120km/h | 8269m | -3.0m/s | -24.9°C | 35.5% | 362.2hPa | 2.6V | 07:38:00 | 02:47:28 | 00:00:00 | |
| DO3MHA-11 | 2026-09-05 13:16:28 | 48.07097 | 11.42732 | 122° | 117km/h | 8272m | -4.1m/s | -25.0°C | 35.5% | 362.0hPa | 2.6V | 00:00:00 | 02:47:27 | 00:00:00 | |
| DH7VM-15 | 2026-09-05 13:16:27 | 48.07113 | 11.42692 | 121° | 126km/h | 8276m | -3.2m/s | -25.0°C | 33.3% | 361.9hPa | 2.5V | 00:00:00 | 00:00:00 | 00:00:00 | |
| DB0ND-19 | 2026-09-05 13:16:22 | 48.07192 | 11.42444 | 112° | 110km/h | 8296m | -3.5m/s | -25.2°C | 33.5% | 360.9hPa | 2.5V | 00:00:00 | 00:00:00 | 00:00:00 | |
| DO3MHA-12 | 2026-09-05 13:16:19 | 48.07214 | 11.42371 | 117° | 113km/h | 8303m | -2.8m/s | -25.2°C | 35.6% | 360.6hPa | 2.5V | 00:00:00 | 02:47:18 | 00:00:00 | |
| DO3MHA-11 | 2026-09-05 13:16:18 | 48.07226 | 11.42336 | 119° | 113km/h | 8306m | -2.9m/s | -25.3°C | 35.6% | 360.4hPa | 2.6V | 00:00:00 | 02:47:17 | 00:00:00 | |
| DB0UT-7 | 2026-09-05 13:16:17 | 48.07239 | 11.42302 | 120° | 115km/h | 8309m | -3.8m/s | -25.3°C | 35.7% | 360.2hPa | 2.6V | 07:38:00 | 02:47:16 | 00:00:00 | |
| OE5DRO-10 | 2026-09-05 13:16:14 | 48.07283 | 11.42199 | 124° | 115km/h | 8320m | -3.3m/s | -25.4°C | 36.5% | 359.8hPa | 2.6V | 00:00:00 | 00:00:00 | 00:00:00 | |
| DB0NH | 2026-09-05 13:16:11 | 48.07333 | 11.42086 | 122° | 115km/h | 8330m | -3.5m/s | -25.5°C | 37.3% | 359.3hPa | 2.6V | 00:00:00 | 02:47:10 | 00:00:00 | |
| DO3MHA-12 | 2026-09-05 13:16:09 | 48.07365 | 11.42006 | 120° | 113km/h | 8336m | -3.0m/s | -25.5°C | 37.4% | 358.9hPa | 2.6V | 00:00:00 | 02:47:08 | 00:00:00 | |
| DO3MHA-11 | 2026-09-05 13:16:08 | 48.07380 | 11.41964 | 117° | 111km/h | 8339m | -3.0m/s | -25.6°C | 37.5% | 358.7hPa | 2.6V | 00:00:00 | 02:47:07 | 00:00:00 | |
| NBG1-10 | 2026-09-05 13:16:04 | 48.07429 | 11.41799 | 114° | 115km/h | 8352m | -3.5m/s | -25.7°C | 38.3% | 358.1hPa | 2.6V | 00:00:00 | 02:47:03 | 00:00:00 | |
| DL6DJ-15 | 2026-09-05 13:16:03 | 48.07452 | 11.41726 | 114° | 106km/h | 8359m | -4.3m/s | -25.8°C | 36.2% | 357.8hPa | 2.6V | 00:00:00 | 00:00:00 | 00:00:00 | |
| OE5DXL-15 | 2026-09-05 13:16:02 | 48.07452 | 11.41726 | 115° | 115km/h | 8359m | -4.2m/s | -25.8°C | 38.4% | 357.7hPa | 2.6V | 00:00:00 | 02:47:01 | 00:00:00 | |
| DL9SK-14 | 2026-09-05 13:15:59 | 48.07503 | 11.41589 | 123° | 104km/h | 8373m | -3.1m/s | -25.9°C | 36.3% | 357.1hPa | 2.6V | 00:00:00 | 00:00:00 | 00:00:00 | |
| DB0ND-19 | 2026-09-05 13:15:51 | 48.07630 | 11.41283 | 115° | 124km/h | 8401m | -3.2m/s | -26.2°C | 36.6% | 355.8hPa | 2.6V | 00:00:00 | 00:00:00 | 00:00:00 | |
| DO3MHA-12 | 2026-09-05 13:15:49 | 48.07643 | 11.41240 | 115° | 111km/h | 8404m | -3.6m/s | -26.2°C | 38.8% | 355.5hPa | 2.6V | 00:00:00 | 02:46:48 | 00:00:00 | |
| DO3MHA-11 | 2026-09-05 13:15:48 | 48.07656 | 11.41199 | 114° | 110km/h | 8408m | -3.2m/s | -26.2°C | 39.0% | 355.4hPa | 2.6V | 00:00:00 | 02:46:47 | 00:00:00 | |
| DB0UT-7 | 2026-09-05 13:15:47 | 48.07667 | 11.41159 | 114° | 115km/h | 8412m | -3.5m/s | -26.2°C | 39.1% | 355.2hPa | 2.6V | 00:00:00 | 00:00:00 | 00:00:00 | |
| DB0NH | 2026-09-05 13:15:41 | 48.07743 | 11.40944 | 124° | 119km/h | 8434m | -4.0m/s | -26.4°C | 39.6% | 354.2hPa | 2.6V | 00:00:00 | 02:46:40 | 00:00:00 | |
| DO3MHA-12 | 2026-09-05 13:15:39 | 48.07775 | 11.40873 | 125° | 122km/h | 8441m | -3.0m/s | -26.5°C | 39.6% | 353.8hPa | 2.5V | 00:00:00 | 02:46:38 | 00:00:00 | |
| DO3MHA-11 | 2026-09-05 13:15:38 | 48.07792 | 11.40836 | 123° | 120km/h | 8444m | -3.9m/s | -26.5°C | 39.7% | 353.7hPa | 2.5V | 07:39:00 | 02:46:37 | 00:00:00 | |
| OE5DRO-10 | 2026-09-05 13:15:36 | 48.07825 | 11.40756 | 121° | 117km/h | 8451m | -3.7m/s | -26.6°C | 39.6% | 353.3hPa | 2.5V | 00:00:00 | 00:00:00 | 00:00:00 | |
| DL6DJ-15 | 2026-09-05 13:15:32 | 48.07897 | 11.40547 | 114° | 117km/h | 8469m | -3.3m/s | -26.8°C | 37.3% | 352.5hPa | 2.5V | 00:00:00 | 00:00:00 | 00:00:00 | |
| NBG1-10 | 2026-09-05 13:15:31 | 48.07897 | 11.40547 | 115° | 119km/h | 8469m | -3.2m/s | -26.7°C | 39.6% | 352.4hPa | 2.5V | 00:00:00 | 02:46:30 | 00:00:00 | |
| DO3MHA-12 | 2026-09-05 13:15:29 | 48.07921 | 11.40468 | 115° | 111km/h | 8476m | -3.4m/s | -26.8°C | 39.8% | 352.0hPa | 2.5V | 00:00:00 | 02:46:28 | 00:00:00 | |
| DG1MFX-10 | 2026-09-05 13:15:28 | 48.07932 | 11.40430 | 117° | 108km/h | 8480m | -3.8m/s | -26.9°C | 37.6% | 352.0hPa | 2.5V | 07:40:00 | 00:00:00 | 00:00:00 | |
| PG1ADW-2 | 2026-09-05 13:15:24 | 48.07986 | 11.40291 | 124° | 124km/h | 8494m | -3.6m/s | -27.0°C | 40.3% | 351.2hPa | 2.5V | 00:00:00 | 00:00:00 | 00:00:00 | |
| DB0ND-19 | 2026-09-05 13:15:20 | 48.08068 | 11.40106 | 122° | 122km/h | 8511m | -4.1m/s | -27.2°C | 37.9% | 350.4hPa | 2.5V | 00:00:00 | 00:00:00 | 00:00:00 | |
| DO3MHA-12 | 2026-09-05 13:15:19 | 48.08068 | 11.40106 | 123° | 120km/h | 8511m | -4.0m/s | -27.1°C | 40.3% | 350.3hPa | 2.5V | 00:00:00 | 02:46:18 | 00:00:00 | |
| DO3MHA-11 | 2026-09-05 13:15:18 | 48.08085 | 11.40065 | 120° | 119km/h | 8515m | -3.5m/s | -27.2°C | 40.3% | 350.1hPa | 2.6V | 00:00:00 | 02:46:17 | 00:00:00 | |
| DB0UT-7 | 2026-09-05 13:15:17 | 48.08101 | 11.40023 | 120° | 119km/h | 8519m | -3.4m/s | -27.2°C | 40.1% | 349.9hPa | 2.6V | 00:00:00 | 02:46:16 | 00:00:00 | |
| DH7VM-15 | 2026-09-05 13:15:15 | 48.08116 | 11.39980 | 117° | 128km/h | 8522m | -3.7m/s | -27.3°C | 37.6% | 349.7hPa | 2.5V | 00:00:00 | 00:00:00 | 00:00:00 | |
| DB0NH | 2026-09-05 13:15:11 | 48.08179 | 11.39773 | 116° | 120km/h | 8541m | -3.4m/s | -27.4°C | 41.0% | 348.8hPa | 2.5V | 00:00:00 | 02:46:10 | 00:00:00 | |
| DO3MHA-12 | 2026-09-05 13:15:09 | 48.08205 | 11.39701 | 121° | 120km/h | 8548m | -3.0m/s | -27.5°C | 41.5% | 348.5hPa | 2.5V | 07:39:00 | 02:46:08 | 00:00:00 | |
| DO3MHA-11 | 2026-09-05 13:15:08 | 48.08219 | 11.39666 | 123° | 124km/h | 8551m | -2.9m/s | -27.5°C | 42.0% | 348.4hPa | 2.5V | 00:00:00 | 02:46:07 | 00:00:00 | |
| DG1MFX-10 | 2026-09-05 13:15:06 | 48.08234 | 11.39630 | 123° | 115km/h | 8554m | -3.9m/s | -27.6°C | 40.0% | 348.3hPa | 2.5V | 07:40:00 | 00:00:00 | 00:00:00 | |
| OE5DXL-15 | 2026-09-05 13:15:02 | 48.08317 | 11.39436 | 120° | 122km/h | 8573m | -3.3m/s | -27.7°C | 44.0% | 347.3hPa | 2.5V | 00:00:00 | 00:00:00 | 00:00:00 | |
| DL6DJ-15 | 2026-09-05 13:15:00 | 48.08348 | 11.39350 | 116° | 130km/h | 8580m | -3.8m/s | -27.8°C | 41.5% | 347.0hPa | 2.6V | 00:00:00 | 00:00:00 | 00:00:00 | |
| DL9SK-14 | 2026-09-05 13:14:57 | 48.08402 | 11.39177 | 113° | 119km/h | 8595m | -3.9m/s | -27.9°C | 40.1% | 346.3hPa | 2.6V | 00:00:00 | 00:00:00 | 00:00:00 | |
| DO3MHA-12 | 2026-09-05 13:14:49 | 48.08492 | 11.38910 | 124° | 128km/h | 8621m | -2.8m/s | -28.1°C | 44.1% | 344.9hPa | 2.6V | 00:00:00 | 02:45:48 | 00:00:00 | |
| DB0UT-7 | 2026-09-05 13:14:47 | 48.08525 | 11.38832 | 123° | 126km/h | 8628m | -4.4m/s | -28.2°C | 44.6% | 344.6hPa | 2.6V | 00:00:00 | 00:00:00 | 00:00:00 | |
| DG1MFX-10 | 2026-09-05 13:14:45 | 48.08542 | 11.38792 | 123° | 130km/h | 8632m | -3.4m/s | -28.2°C | 42.1% | 344.5hPa | 2.6V | 07:40:00 | 00:00:00 | 00:00:00 | |
| DB0NH | 2026-09-05 13:14:41 | 48.08624 | 11.38577 | 117° | 124km/h | 8651m | -3.8m/s | -28.4°C | 45.5% | 343.5hPa | 2.6V | 00:00:00 | 02:45:40 | 00:00:00 | |
| DO3MHA-12 | 2026-09-05 13:14:39 | 48.08653 | 11.38487 | 115° | 119km/h | 8659m | -4.0m/s | -28.4°C | 45.5% | 343.1hPa | 2.6V | 00:00:00 | 02:45:38 | 00:00:00 | |
| DO3MHA-11 | 2026-09-05 13:14:38 | 48.08666 | 11.38443 | 114° | 119km/h | 8663m | -3.6m/s | -28.5°C | 45.5% | 342.9hPa | 2.6V | 00:00:00 | 02:45:37 | 00:00:00 | |
| OE5DXL-15 | 2026-09-05 13:14:32 | 48.08744 | 11.38205 | 123° | 126km/h | 8685m | -3.2m/s | -28.7°C | 45.6% | 341.9hPa | 2.6V | 00:00:00 | 00:00:00 | 00:00:00 | |
| DO3MHA-12 | 2026-09-05 13:14:29 | 48.08793 | 11.38090 | 123° | 131km/h | 8696m | -4.0m/s | -28.7°C | 45.1% | 341.4hPa | 2.6V | 00:00:00 | 02:45:28 | 00:00:00 | |
| DO3MHA-11 | 2026-09-05 13:14:28 | 48.08810 | 11.38051 | 124° | 131km/h | 8700m | -3.8m/s | -28.8°C | 44.8% | 341.1hPa | 2.6V | 00:00:00 | 02:45:27 | 00:00:00 | |
| DL9SK-14 | 2026-09-05 13:14:26 | 48.08862 | 11.37925 | 119° | 131km/h | 8712m | -4.5m/s | -28.9°C | 42.4% | 340.7hPa | 2.6V | 00:00:00 | 00:00:00 | 00:00:00 | |
| NBG1-10 | 2026-09-05 13:14:25 | 48.08862 | 11.37925 | 120° | 126km/h | 8712m | -4.4m/s | -28.9°C | 45.2% | 340.6hPa | 2.6V | 00:00:00 | 02:45:24 | 00:00:00 | |
| DG1MFX-10 | 2026-09-05 13:14:24 | 48.08862 | 11.37925 | 121° | 131km/h | 8712m | -4.5m/s | -28.9°C | 42.4% | 340.7hPa | 2.6V | 07:40:00 | 00:00:00 | 00:00:00 | |
| PG1ADW-2 | 2026-09-05 13:14:21 | 48.08925 | 11.37745 | 114° | 126km/h | 8728m | -3.6m/s | -29.0°C | 46.0% | 339.9hPa | 2.6V | 00:00:00 | 02:45:20 | 00:00:00 | |
| OE5DRO-10 | 2026-09-05 13:14:20 | 48.08938 | 11.37700 | 114° | 126km/h | 8732m | -3.9m/s | -29.0°C | 45.8% | 339.6hPa | 2.6V | 00:00:00 | 00:00:00 | 00:00:00 | |
| DO3MHA-12 | 2026-09-05 13:14:19 | 48.08951 | 11.37657 | 114° | 120km/h | 8736m | -3.6m/s | -29.1°C | 45.8% | 339.5hPa | 2.6V | 00:00:00 | 02:45:18 | 00:00:00 | |
| DB0ND-19 | 2026-09-05 13:14:18 | 48.08975 | 11.37573 | 114° | 117km/h | 8743m | -3.7m/s | -29.2°C | 43.4% | 339.1hPa | 2.5V | 00:00:00 | 00:00:00 | 00:00:00 | |
| DB0UT-7 | 2026-09-05 13:14:17 | 48.08975 | 11.37573 | 115° | 126km/h | 8743m | -3.6m/s | -29.1°C | 46.3% | 339.0hPa | 2.5V | 00:00:00 | 02:45:16 | 00:00:00 | |
| DB0NH | 2026-09-05 13:14:11 | 48.09067 | 11.37342 | 125° | 130km/h | 8765m | -3.8m/s | -29.4°C | 47.0% | 338.0hPa | 2.5V | 00:00:00 | 02:45:10 | 00:00:00 | |
| OE5WHR-10 | 2026-09-05 13:14:10 | 48.09084 | 11.37302 | 123° | 128km/h | 8768m | -4.7m/s | -29.4°C | 47.1% | 337.8hPa | 2.6V | 00:00:00 | 00:00:00 | 00:00:00 | |
| DO3MHA-12 | 2026-09-05 13:14:09 | 48.09102 | 11.37261 | 123° | 131km/h | 8773m | -4.2m/s | -29.4°C | 47.2% | 337.6hPa | 2.6V | 00:00:00 | 02:45:08 | 00:00:00 | |
| DO3MHA-11 | 2026-09-05 13:14:08 | 48.09120 | 11.37218 | 123° | 130km/h | 8777m | -3.7m/s | -29.5°C | 47.3% | 337.5hPa | 2.6V | 00:00:00 | 02:45:07 | 00:00:00 | |
| DG1MJG | 2026-09-05 13:14:07 | 48.09121 | 11.37218 | 124° | 133km/h | 8777m | -3.8m/s | -29.5°C | 44.4% | 337.5hPa | 2.6V | 07:40:00 | 00:00:00 | 00:00:00 | |
| DG1MFX-10 | 2026-09-05 13:14:03 | 48.09188 | 11.37040 | 117° | 133km/h | 8792m | -4.2m/s | -29.7°C | 45.1% | 336.7hPa | 2.6V | 07:40:00 | 00:00:00 | 00:00:00 | |
| OE5DXL-15 | 2026-09-05 13:14:02 | 48.09216 | 11.36951 | 115° | 128km/h | 8800m | -3.4m/s | -29.7°C | 48.3% | 336.3hPa | 2.6V | 00:00:00 | 00:00:00 | 00:00:00 | |
| DL6DJ-15 | 2026-09-05 13:13:58 | 48.09283 | 11.36751 | 120° | 115km/h | 8820m | -3.9m/s | -29.9°C | 45.6% | 335.5hPa | 2.6V | 00:00:00 | 00:00:00 | 00:00:00 | |
| DL9SK-14 | 2026-09-05 13:13:55 | 48.09331 | 11.36635 | 122° | 124km/h | 8831m | -3.8m/s | -30.0°C | 45.5% | 334.9hPa | 2.6V | 00:00:00 | 00:00:00 | 00:00:00 | |
| DB0ND-19 | 2026-09-05 13:13:47 | 48.09475 | 11.36289 | 117° | 141km/h | 8863m | -3.8m/s | -30.3°C | 46.0% | 333.5hPa | 2.6V | 00:00:00 | 00:00:00 | 00:00:00 | |
| OE5DRO-10 | 2026-09-05 13:13:42 | 48.09533 | 11.36106 | 115° | 130km/h | 8879m | -4.0m/s | -30.4°C | 49.1% | 332.7hPa | 2.6V | 00:00:00 | 00:00:00 | 00:00:00 | |
| DB0NH | 2026-09-05 13:13:41 | 48.09547 | 11.36064 | 116° | 130km/h | 8882m | -4.0m/s | -30.4°C | 49.1% | 332.6hPa | 2.6V | 00:00:00 | 02:44:40 | 00:00:00 | |
| DO3MHA-12 | 2026-09-05 13:13:39 | 48.09575 | 11.35984 | 121° | 131km/h | 8890m | -3.5m/s | -30.5°C | 49.3% | 332.1hPa | 2.6V | 00:00:00 | 02:44:38 | 00:00:00 | |
| DO3MHA-11 | 2026-09-05 13:13:38 | 48.09590 | 11.35945 | 121° | 133km/h | 8893m | -4.3m/s | -30.5°C | 49.3% | 332.1hPa | 2.6V | 00:00:00 | 02:44:37 | 00:00:00 | |
| DG1MJG | 2026-09-05 13:13:36 | 48.09607 | 11.35907 | 125° | 120km/h | 8897m | -4.0m/s | -30.6°C | 46.4% | 331.9hPa | 2.6V | 07:41:00 | 00:00:00 | 00:00:00 | |
| OE5DXL-15 | 2026-09-05 13:13:32 | 48.09700 | 11.35701 | 122° | 131km/h | 8916m | -4.1m/s | -30.7°C | 49.7% | 330.8hPa | 2.6V | 07:41:00 | 00:00:00 | 00:00:00 | |
| DK5PH-5 | 2026-09-05 13:13:30 | 48.09737 | 11.35610 | 121° | 139km/h | 8924m | -3.6m/s | -30.8°C | 50.2% | 330.5hPa | 2.5V | 00:00:00 | 02:44:29 | 00:00:00 | |
| DO3MHA-12 | 2026-09-05 13:13:29 | 48.09755 | 11.35563 | 119° | 128km/h | 8928m | -3.5m/s | -30.8°C | 50.3% | 330.3hPa | 2.5V | 00:00:00 | 02:44:28 | 00:00:00 | |
| DO3MHA-11 | 2026-09-05 13:13:28 | 48.09771 | 11.35516 | 117° | 126km/h | 8932m | -3.4m/s | -30.8°C | 50.5% | 330.2hPa | 2.5V | 00:00:00 | 02:44:27 | 00:00:00 | |
| OE5WHR-10 | 2026-09-05 13:13:27 | 48.09786 | 11.35469 | 116° | 130km/h | 8935m | -3.4m/s | -30.9°C | 50.6% | 330.0hPa | 2.5V | 00:00:00 | 00:00:00 | 00:00:00 | |
| DL9SK-14 | 2026-09-05 13:13:24 | 48.09845 | 11.35299 | 118° | 122km/h | 8950m | -4.4m/s | -31.1°C | 47.4% | 329.4hPa | 2.5V | 00:00:00 | 00:00:00 | 00:00:00 | |
| OE5DRO-10 | 2026-09-05 13:13:23 | 48.09845 | 11.35299 | 119° | 130km/h | 8950m | -4.3m/s | -31.0°C | 50.6% | 329.3hPa | 2.5V | 00:00:00 | 00:00:00 | 00:00:00 | |
| DG1MFX-10 | 2026-09-05 13:13:22 | 48.09845 | 11.35299 | 120° | 122km/h | 8950m | -4.4m/s | -31.1°C | 47.5% | 329.4hPa | 2.5V | 07:41:00 | 00:00:00 | 00:00:00 | |
| PG1ADW-2 | 2026-09-05 13:13:21 | 48.09877 | 11.35221 | 123° | 130km/h | 8959m | -4.6m/s | -31.1°C | 50.5% | 328.9hPa | 2.5V | 00:00:00 | 00:00:00 | 00:00:00 | |
| DO3MHA-12 | 2026-09-05 13:13:19 | 48.09912 | 11.35144 | 125° | 135km/h | 8968m | -4.7m/s | -31.2°C | 50.7% | 328.5hPa | 2.5V | 00:00:00 | 02:44:18 | 00:00:00 | |
| DO3MHA-11 | 2026-09-05 13:13:18 | 48.09930 | 11.35105 | 125° | 135km/h | 8972m | -4.3m/s | -31.2°C | 50.6% | 328.4hPa | 2.5V | 00:00:00 | 02:44:17 | 00:00:00 | |
| DB0UT-7 | 2026-09-05 13:13:17 | 48.09949 | 11.35065 | 127° | 133km/h | 8976m | -3.5m/s | -31.2°C | 50.8% | 328.1hPa | 2.5V | 00:00:00 | 02:44:16 | 00:00:00 | |
| DB0ND-19 | 2026-09-05 13:13:16 | 48.09989 | 11.34985 | 126° | 133km/h | 8983m | -4.5m/s | -31.4°C | 48.1% | 327.8hPa | 2.5V | 00:00:00 | 00:00:00 | 00:00:00 | |
| DB0NH | 2026-09-05 13:13:11 | 48.10066 | 11.34809 | 120° | 133km/h | 8999m | -4.0m/s | -31.5°C | 52.1% | 327.1hPa | 2.5V | 00:00:00 | 02:44:10 | 00:00:00 | |
| DO3MHA-12 | 2026-09-05 13:13:09 | 48.10099 | 11.34720 | 118° | 126km/h | 9007m | -3.8m/s | -31.6°C | 52.0% | 326.7hPa | 2.5V | 00:00:00 | 02:44:08 | 00:00:00 | |
| DO3MHA-11 | 2026-09-05 13:13:08 | 48.10114 | 11.34676 | 118° | 126km/h | 9010m | -3.7m/s | -31.6°C | 52.1% | 326.6hPa | 2.5V | 00:00:00 | 02:44:07 | 00:00:00 | |
| OE5WHR-10 | 2026-09-05 13:13:06 | 48.10144 | 11.34592 | 120° | 133km/h | 9019m | -4.5m/s | -31.7°C | 52.2% | 326.1hPa | 2.5V | 00:00:00 | 00:00:00 | 00:00:00 | |
| OE5DRO-10 | 2026-09-05 13:13:04 | 48.10176 | 11.34512 | 122° | 133km/h | 9027m | -4.3m/s | -31.7°C | 52.7% | 325.8hPa | 2.5V | 00:00:00 | 00:00:00 | 00:00:00 | |
| OE5DXL-15 | 2026-09-05 13:13:02 | 48.10211 | 11.34435 | 125° | 137km/h | 9035m | -4.3m/s | -31.8°C | 52.9% | 325.4hPa | 2.6V | 00:00:00 | 00:00:00 | 00:00:00 | |
| DL6DJ-15 | 2026-09-05 13:12:56 | 48.10331 | 11.34195 | 125° | 141km/h | 9059m | -4.2m/s | -32.1°C | 50.0% | 324.3hPa | 2.6V | 00:00:00 | 00:00:00 | 00:00:00 | |
| DL9SK-14 | 2026-09-05 13:12:52 | 48.10412 | 11.34014 | 120° | 144km/h | 9074m | -3.8m/s | -32.2°C | 50.6% | 323.6hPa | 2.6V | 00:00:00 | 00:00:00 | 00:00:00 | |
| DB0ND-19 | 2026-09-05 13:12:45 | 48.10548 | 11.33668 | 126° | 128km/h | 9105m | -4.6m/s | -32.5°C | 51.4% | 322.2hPa | 2.6V | 00:00:00 | 00:00:00 | 00:00:00 | |
| DB0NH | 2026-09-05 13:12:41 | 48.10610 | 11.33546 | 127° | 142km/h | 9117m | -4.4m/s | -32.6°C | 54.9% | 321.6hPa | 2.6V | 07:42:00 | 02:43:40 | 00:00:00 | |
| DO3MHA-12 | 2026-09-05 13:12:39 | 48.10653 | 11.33460 | 128° | 146km/h | 9125m | -4.0m/s | -32.6°C | 54.6% | 321.2hPa | 2.5V | 00:00:00 | 02:43:38 | 00:00:00 | |
| DO3MHA-11 | 2026-09-05 13:12:38 | 48.10675 | 11.33416 | 128° | 144km/h | 9129m | -4.4m/s | -32.7°C | 54.3% | 321.0hPa | 2.5V | 00:00:00 | 02:43:37 | 00:00:00 | |
| DG1MJG | 2026-09-05 13:12:35 | 48.10719 | 11.33328 | 126° | 146km/h | 9138m | -4.8m/s | -32.7°C | 49.8% | 320.7hPa | 2.5V | 07:42:00 | 00:00:00 | 00:00:00 | |
| OE5DXL-15 | 2026-09-05 13:12:32 | 48.10800 | 11.33139 | 120° | 141km/h | 9155m | -4.1m/s | -32.8°C | 52.8% | 319.8hPa | 2.5V | 00:00:00 | 00:00:00 | 00:00:00 | |
| DO3MHA-12 | 2026-09-05 13:12:29 | 48.10853 | 11.33002 | 121° | 135km/h | 9166m | -3.6m/s | -32.9°C | 53.0% | 319.4hPa | 2.5V | 07:42:00 | 02:43:28 | 00:00:00 | |
| DO3MHA-11 | 2026-09-05 13:12:28 | 48.10871 | 11.32960 | 122° | 137km/h | 9170m | -4.3m/s | -32.9°C | 52.9% | 319.3hPa | 2.5V | 00:00:00 | 02:43:27 | 00:00:00 | |
| OE5DRO-10 | 2026-09-05 13:12:26 | 48.10907 | 11.32878 | 126° | 142km/h | 9178m | -3.5m/s | -33.0°C | 52.6% | 318.9hPa | 2.6V | 00:00:00 | 00:00:00 | 00:00:00 | |
| DL6DJ-15 | 2026-09-05 13:12:25 | 48.10927 | 11.32839 | 127° | 130km/h | 9182m | -4.5m/s | -33.0°C | 48.8% | 318.8hPa | 2.6V | 00:00:00 | 00:00:00 | 00:00:00 | |
| OE5WHR-10 | 2026-09-05 13:12:23 | 48.10969 | 11.32757 | 129° | 148km/h | 9190m | -3.2m/s | -33.0°C | 51.5% | 318.3hPa | 2.6V | 00:00:00 | 00:00:00 | 00:00:00 | |
| DG1MFX-10 | 2026-09-05 13:12:21 | 48.10991 | 11.32715 | 130° | 141km/h | 9193m | -3.6m/s | -33.1°C | 47.6% | 318.2hPa | 2.6V | 07:42:00 | 00:00:00 | 00:00:00 | |
| DO3MHA-12 | 2026-09-05 13:12:19 | 48.11059 | 11.32587 | 127° | 146km/h | 9205m | -4.6m/s | -33.1°C | 48.8% | 317.6hPa | 2.6V | 00:00:00 | 02:43:18 | 00:00:00 | |
| DO3MHA-11 | 2026-09-05 13:12:18 | 48.11081 | 11.32542 | 126° | 144km/h | 9210m | -4.3m/s | -33.1°C | 48.2% | 317.4hPa | 2.5V | 00:00:00 | 02:43:17 | 00:00:00 | |
| DB0UT-7 | 2026-09-05 13:12:17 | 48.11103 | 11.32494 | 125° | 146km/h | 9213m | -3.5m/s | -33.1°C | 48.0% | 317.2hPa | 2.5V | 07:42:00 | 02:43:16 | 00:00:00 | |
| NBG1-10 | 2026-09-05 13:12:13 | 48.11184 | 11.32300 | 121° | 146km/h | 9229m | -3.6m/s | -33.2°C | 47.1% | 316.5hPa | 2.6V | 00:00:00 | 02:43:12 | 00:00:00 | |
| DB0NH | 2026-09-05 13:12:11 | 48.11221 | 11.32209 | 123° | 146km/h | 9236m | -4.1m/s | -33.3°C | 46.8% | 316.2hPa | 2.6V | 00:00:00 | 02:43:10 | 00:00:00 | |
| DO3MHA-12 | 2026-09-05 13:12:09 | 48.11260 | 11.32126 | 127° | 146km/h | 9244m | -3.8m/s | -33.3°C | 46.7% | 315.8hPa | 2.6V | 00:00:00 | 02:43:08 | 00:00:00 | |
| DO3MHA-11 | 2026-09-05 13:12:08 | 48.11280 | 11.32085 | 128° | 148km/h | 9248m | -4.4m/s | -33.4°C | 46.7% | 315.8hPa | 2.6V | 00:00:00 | 02:43:07 | 00:00:00 | |
| OE5DRO-10 | 2026-09-05 13:12:07 | 48.11302 | 11.32043 | 129° | 148km/h | 9252m | -3.5m/s | -33.4°C | 46.8% | 315.5hPa | 2.6V | 00:00:00 | 00:00:00 | 00:00:00 | |
| DG1MJG | 2026-09-05 13:12:05 | 48.11324 | 11.32002 | 130° | 141km/h | 9256m | -4.6m/s | 0°C | 0% | 315.4hPa | 2.6V | 00:00:00 | 00:00:00 | 00:00:00 | |
| OE5DXL-15 | 2026-09-05 13:12:02 | 48.11416 | 11.31826 | 127° | 150km/h | 9272m | -3.8m/s | -33.6°C | 46.8% | 314.6hPa | 2.6V | 00:00:00 | 00:00:00 | 00:00:00 | |
| DG1MFX-10 | 2026-09-05 13:12:01 | 48.11416 | 11.31826 | 128° | 153km/h | 9272m | -3.8m/s | -33.6°C | 43.5% | 314.6hPa | 2.5V | 07:43:00 | 00:00:00 | 00:00:00 | |
| DL6DJ-15 | 2026-09-05 13:11:54 | 48.11588 | 11.31437 | 119° | 150km/h | 9304m | -3.9m/s | -33.8°C | 41.2% | 313.2hPa | 2.5V | 00:00:00 | 00:00:00 | 00:00:00 | |
| DL9SK-14 | 2026-09-05 13:11:50 | 48.11661 | 11.31251 | 121° | 137km/h | 9320m | -4.1m/s | -34.0°C | 41.0% | 312.5hPa | 2.5V | 00:00:00 | 00:00:00 | 00:00:00 | |
| DO3MHA-12 | 2026-09-05 13:11:49 | 48.11680 | 11.31208 | 125° | 148km/h | 9324m | -3.7m/s | -33.9°C | 44.1% | 312.3hPa | 2.5V | 00:00:00 | 02:42:48 | 00:00:00 | |
| DO3MHA-11 | 2026-09-05 13:11:48 | 48.11699 | 11.31167 | 127° | 150km/h | 9328m | -3.5m/s | -34.0°C | 44.2% | 312.2hPa | 2.5V | 00:00:00 | 02:42:47 | 00:00:00 | |
| DB0UT-7 | 2026-09-05 13:11:47 | 48.11720 | 11.31124 | 127° | 150km/h | 9331m | -4.1m/s | -34.0°C | 44.4% | 312.0hPa | 2.5V | 00:00:00 | 00:00:00 | 00:00:00 | |
| DB0ND-19 | 2026-09-05 13:11:42 | 48.11834 | 11.30901 | 124° | 157km/h | 9351m | -3.8m/s | -34.2°C | 41.7% | 311.1hPa | 2.5V | 00:00:00 | 00:00:00 | 00:00:00 | |
| DB0NH | 2026-09-05 13:11:41 | 48.11857 | 11.30852 | 125° | 148km/h | 9355m | -3.8m/s | -34.2°C | 44.9% | 310.9hPa | 2.5V | 00:00:00 | 02:42:40 | 00:00:00 | |
| NBG1-10 | 2026-09-05 13:11:40 | 48.11879 | 11.30803 | 123° | 146km/h | 9359m | -3.8m/s | -34.2°C | 44.9% | 310.7hPa | 2.5V | 00:00:00 | 02:42:39 | 00:00:00 | |
| DO3MHA-12 | 2026-09-05 13:11:39 | 48.11900 | 11.30753 | 123° | 150km/h | 9362m | -3.6m/s | -34.2°C | 44.9% | 310.6hPa | 2.5V | 00:00:00 | 02:42:38 | 00:00:00 | |
| DO3MHA-11 | 2026-09-05 13:11:38 | 48.11921 | 11.30703 | 122° | 148km/h | 9366m | -4.2m/s | -34.3°C | 44.7% | 310.4hPa | 2.5V | 07:43:00 | 02:42:37 | 00:00:00 | |
| DG1MJG | 2026-09-05 13:11:34 | 48.11979 | 11.30552 | 120° | 151km/h | 9379m | -4.1m/s | 0°C | 0% | 0hPa | 2.5V | 00:00:00 | 00:00:00 | 00:00:00 | |
| OE5DXL-15 | 2026-09-05 13:11:32 | 48.12033 | 11.30404 | 119° | 144km/h | 9391m | -3.8m/s | -34.5°C | 43.8% | 309.3hPa | 2.5V | 00:00:00 | 00:00:00 | 00:00:00 | |
| DO3MHA-12 | 2026-09-05 13:11:29 | 48.12085 | 11.30267 | 120° | 146km/h | 9404m | -4.1m/s | -34.6°C | 43.7% | 308.7hPa | 2.5V | 00:00:00 | 02:42:28 | 00:00:00 | |
| DO3MHA-11 | 2026-09-05 13:11:28 | 48.12103 | 11.30223 | 124° | 148km/h | 9408m | -3.7m/s | -34.6°C | 43.8% | 308.6hPa | 2.5V | 00:00:00 | 02:42:27 | 00:00:00 | |
| DL6DJ-15 | 2026-09-05 13:11:23 | 48.12208 | 11.30004 | 125° | 153km/h | 9428m | -3.4m/s | -34.8°C | 40.3% | 307.8hPa | 2.5V | 00:00:00 | 00:00:00 | 00:00:00 | |
| DG1MFX-10 | 2026-09-05 13:11:20 | 48.12252 | 11.29907 | 125° | 155km/h | 9435m | -3.5m/s | -34.8°C | 39.7% | 307.5hPa | 2.5V | 07:44:00 | 00:00:00 | 00:00:00 | |
| DO3MHA-12 | 2026-09-05 13:11:19 | 48.12294 | 11.29807 | 122° | 146km/h | 9442m | -3.7m/s | -34.8°C | 42.2% | 307.1hPa | 2.5V | 00:00:00 | 02:42:18 | 00:00:00 | |
| DO3MHA-11 | 2026-09-05 13:11:18 | 48.12314 | 11.29756 | 120° | 144km/h | 9446m | -4.0m/s | -34.8°C | 41.7% | 306.9hPa | 2.5V | 00:00:00 | 02:42:17 | 00:00:00 | |
| DB0UT-7 | 2026-09-05 13:11:17 | 48.12332 | 11.29705 | 119° | 141km/h | 9450m | -3.8m/s | -34.9°C | 41.4% | 306.8hPa | 2.5V | 00:00:00 | 02:42:16 | 00:00:00 | |
| PG1ADW-2 | 2026-09-05 13:11:12 | 48.12419 | 11.29460 | 120° | 139km/h | 9470m | -3.3m/s | -35.0°C | 39.9% | 305.9hPa | 2.5V | 00:00:00 | 02:42:11 | 00:00:00 | |
| DB0NH | 2026-09-05 13:11:11 | 48.12437 | 11.29415 | 121° | 141km/h | 9473m | -3.8m/s | -35.0°C | 39.9% | 305.7hPa | 2.5V | 00:00:00 | 02:42:10 | 00:00:00 | |
| DO3MHA-12 | 2026-09-05 13:11:09 | 48.12474 | 11.29328 | 124° | 137km/h | 9481m | -3.6m/s | -35.0°C | 39.7% | 305.4hPa | 2.6V | 07:43:00 | 02:42:08 | 00:00:00 | |
| DO3MHA-11 | 2026-09-05 13:11:08 | 48.12493 | 11.29285 | 126° | 137km/h | 9485m | -3.8m/s | -35.1°C | 39.5% | 305.3hPa | 2.6V | 00:00:00 | 02:42:07 | 00:00:00 | |
| NBG1-10 | 2026-09-05 13:11:07 | 48.12513 | 11.29242 | 125° | 142km/h | 9489m | -3.7m/s | -35.1°C | 39.3% | 305.2hPa | 2.6V | 00:00:00 | 02:42:06 | 00:00:00 | |
| OE5WHR-10 | 2026-09-05 13:11:04 | 48.12573 | 11.29114 | 125° | 142km/h | 9501m | -3.4m/s | -35.2°C | 39.3% | 304.5hPa | 2.6V | 00:00:00 | 02:42:03 | 00:00:00 | |
| OE5DXL-15 | 2026-09-05 13:11:02 | 48.12610 | 11.29029 | 122° | 142km/h | 9509m | -3.5m/s | -35.2°C | 39.3% | 304.2hPa | 2.6V | 00:00:00 | 00:00:00 | 00:00:00 | |
| DL6DJ-15 | 2026-09-05 13:10:52 | 48.12792 | 11.28504 | 116° | 142km/h | 9550m | -3.6m/s | -35.6°C | 34.8% | 302.5hPa | 2.6V | 00:00:00 | 00:00:00 | 00:00:00 | |
| OE5DRO-10 | 2026-09-05 13:10:51 | 48.12792 | 11.28504 | 117° | 144km/h | 9550m | -3.6m/s | -35.6°C | 38.0% | 302.5hPa | 2.6V | 00:00:00 | 00:00:00 | 00:00:00 | |
| DO3MHA-12 | 2026-09-05 13:10:49 | 48.12825 | 11.28410 | 120° | 146km/h | 9557m | -3.2m/s | -35.6°C | 38.1% | 302.2hPa | 2.6V | 00:00:00 | 02:41:48 | 00:00:00 | |
| DO3MHA-11 | 2026-09-05 13:10:48 | 48.12842 | 11.28366 | 122° | 148km/h | 9561m | -3.5m/s | -35.7°C | 38.3% | 302.0hPa | 2.5V | 00:00:00 | 02:41:47 | 00:00:00 | |
| DB0UT-7 | 2026-09-05 13:10:47 | 48.12860 | 11.28322 | 123° | 142km/h | 9564m | -3.7m/s | -35.7°C | 38.6% | 301.8hPa | 2.5V | 00:00:00 | 00:00:00 | 00:00:00 | |
| OE5WHR-10 | 2026-09-05 13:10:43 | 48.12941 | 11.28136 | 122° | 142km/h | 9580m | -3.9m/s | -35.8°C | 38.8% | 301.2hPa | 2.6V | 00:00:00 | 00:00:00 | 00:00:00 | |
| OE5MMP-10 | 2026-09-05 13:10:42 | 48.12961 | 11.28087 | 121° | 146km/h | 9584m | -4.0m/s | -35.8°C | 38.7% | 301.0hPa | 2.6V | 07:44:00 | 02:41:41 | 00:00:00 | |
| DB0NH | 2026-09-05 13:10:41 | 48.12980 | 11.28037 | 120° | 139km/h | 9587m | -4.0m/s | -35.9°C | 38.8% | 300.8hPa | 2.6V | 00:00:00 | 02:41:40 | 00:00:00 | |
| DB0ND-19 | 2026-09-05 13:10:40 | 48.12999 | 11.27987 | 118° | 150km/h | 9591m | -3.9m/s | -36.0°C | 35.6% | 300.8hPa | 2.6V | 00:00:00 | 00:00:00 | 00:00:00 | |
| DO3MHA-12 | 2026-09-05 13:10:39 | 48.13017 | 11.27936 | 118° | 137km/h | 9595m | -3.8m/s | -36.0°C | 39.1% | 300.5hPa | 2.6V | 00:00:00 | 02:41:38 | 00:00:00 | |
| DO3MHA-11 | 2026-09-05 13:10:38 | 48.13034 | 11.27886 | 117° | 135km/h | 9599m | -3.8m/s | -36.0°C | 39.1% | 300.3hPa | 2.6V | 00:00:00 | 02:41:37 | 00:00:00 | |
| DK5PH-5 | 2026-09-05 13:10:35 | 48.13081 | 11.27741 | 116° | 135km/h | 9611m | -3.8m/s | -36.1°C | 38.4% | 299.8hPa | 2.6V | 00:00:00 | 02:41:34 | 00:00:00 | |
| NBG1-10 | 2026-09-05 13:10:34 | 48.13096 | 11.27694 | 116° | 135km/h | 9615m | -3.8m/s | -36.1°C | 38.0% | 299.6hPa | 2.5V | 07:44:00 | 02:41:33 | 00:00:00 | |
| DG1MJG | 2026-09-05 13:10:33 | 48.13096 | 11.27694 | 117° | 137km/h | 9615m | -3.9m/s | -36.1°C | 34.8% | 299.7hPa | 2.6V | 07:44:00 | 00:00:00 | 00:00:00 | |
| PG1ADW-2 | 2026-09-05 13:10:32 | 48.13126 | 11.27604 | 118° | 139km/h | 9623m | -3.8m/s | -36.1°C | 36.9% | 299.4hPa | 2.6V | 00:00:00 | 00:00:00 | 00:00:00 | |
| DO3MHA-12 | 2026-09-05 13:10:29 | 48.13173 | 11.27475 | 121° | 139km/h | 9634m | -3.8m/s | -36.1°C | 35.7% | 298.8hPa | 2.6V | 00:00:00 | 02:41:28 | 00:00:00 | |
| DO3MHA-11 | 2026-09-05 13:10:28 | 48.13190 | 11.27434 | 122° | 141km/h | 9638m | -3.9m/s | -36.2°C | 35.5% | 298.6hPa | 2.6V | 00:00:00 | 02:41:27 | 00:00:00 | |
| OE5WHR-10 | 2026-09-05 13:10:22 | 48.13306 | 11.27178 | 124° | 137km/h | 9661m | -3.8m/s | -36.3°C | 33.7% | 297.6hPa | 2.5V | 00:00:00 | 00:00:00 | 00:00:00 | |
| DL6DJ-15 | 2026-09-05 13:10:21 | 48.13346 | 11.27083 | 121° | 150km/h | 9668m | -3.7m/s | -36.4°C | 30.2% | 297.4hPa | 2.5V | 00:00:00 | 00:00:00 | 00:00:00 | |
| DO3MHA-12 | 2026-09-05 13:10:19 | 48.13365 | 11.27034 | 120° | 137km/h | 9672m | -3.7m/s | -36.5°C | 32.8% | 297.1hPa | 2.5V | 00:00:00 | 02:41:18 | 00:00:00 | |
| DO3MHA-11 | 2026-09-05 13:10:18 | 48.13383 | 11.26985 | 118° | 135km/h | 9676m | -3.8m/s | -36.6°C | 32.5% | 297.0hPa | 2.5V | 07:44:00 | 02:41:17 | 00:00:00 | |
| DB0UT-7 | 2026-09-05 13:10:17 | 48.13400 | 11.26936 | 117° | 135km/h | 9680m | -3.7m/s | -36.6°C | 32.2% | 296.9hPa | 2.5V | 00:00:00 | 02:41:16 | 00:00:00 | |
| OE5DRO-10 | 2026-09-05 13:10:13 | 48.13462 | 11.26749 | 117° | 137km/h | 9695m | -3.9m/s | -36.6°C | 30.9% | 296.2hPa | 2.5V | 07:44:00 | 00:00:00 | 00:00:00 | |
| PG1ADW-2 | 2026-09-05 13:10:12 | 48.13477 | 11.26705 | 118° | 137km/h | 9699m | -3.9m/s | -36.7°C | 30.8% | 296.0hPa | 2.5V | 00:00:00 | 00:00:00 | 00:00:00 | |
| DB0NH | 2026-09-05 13:10:11 | 48.13492 | 11.26662 | 119° | 135km/h | 9703m | -3.9m/s | -36.7°C | 30.7% | 295.9hPa | 2.6V | 00:00:00 | 02:41:10 | 00:00:00 | |
| DO3MHA-12 | 2026-09-05 13:10:09 | 48.13524 | 11.26580 | 122° | 137km/h | 9711m | -4.0m/s | -36.7°C | 30.9% | 295.5hPa | 2.6V | 00:00:00 | 02:41:08 | 00:00:00 | |
| DO3MHA-11 | 2026-09-05 13:10:08 | 48.13541 | 11.26539 | 124° | 139km/h | 9715m | -3.9m/s | -36.7°C | 31.1% | 295.3hPa | 2.6V | 00:00:00 | 02:41:07 | 00:00:00 | |
| DK5PH-5 | 2026-09-05 13:10:05 | 48.13597 | 11.26418 | 126° | 139km/h | 9727m | -4.0m/s | -36.8°C | 31.6% | 294.9hPa | 2.6V | 00:00:00 | 02:41:04 | 00:00:00 | |
| OE5DXL-15 | 2026-09-05 13:10:02 | 48.13659 | 11.26289 | 125° | 139km/h | 9740m | -4.0m/s | -36.9°C | 32.3% | 294.4hPa | 2.6V | 00:00:00 | 00:00:00 | 00:00:00 | |
| DG1MJG | 2026-09-05 13:10:01 | 48.13658 | 11.26289 | 126° | 144km/h | 9740m | -4.1m/s | -37.0°C | 0% | 0hPa | 2.6V | 07:45:00 | 00:00:00 | 00:00:00 | |
| DF7PN | 2026-09-05 13:09:53 | 48.13835 | 11.25821 | 117° | 128km/h | 9778m | -3.6m/s | -37.5°C | 28.3% | 292.7hPa | 2.6V | 00:00:00 | 00:00:00 | 00:00:00 | |
| DL6DJ-15 | 2026-09-05 13:09:50 | 48.13883 | 11.25696 | 122° | 124km/h | 9790m | -4.0m/s | -37.5°C | 28.1% | 292.3hPa | 2.6V | 00:00:00 | 00:00:00 | 00:00:00 | |
| DL9SK-14 | 2026-09-05 13:09:46 | 48.13938 | 11.25577 | 125° | 128km/h | 9801m | -3.9m/s | -37.6°C | 28.4% | 291.7hPa | 2.6V | 00:00:00 | 00:00:00 | 00:00:00 | |
| DB0NH | 2026-09-05 13:09:41 | 48.14040 | 11.25373 | 128° | 141km/h | 9823m | -3.7m/s | -37.7°C | 31.9% | 290.7hPa | 2.6V | 00:00:00 | 02:40:40 | 00:00:00 | |
| DB0ND-19 | 2026-09-05 13:09:39 | 48.14105 | 11.25242 | 125° | 146km/h | 9835m | -4.1m/s | -37.8°C | 28.8% | 290.3hPa | 2.5V | 00:00:00 | 00:00:00 | 00:00:00 | |
| DO3MHA-11 | 2026-09-05 13:09:38 | 48.14105 | 11.25242 | 126° | 141km/h | 9835m | -4.0m/s | -37.8°C | 31.9% | 290.3hPa | 2.5V | 00:00:00 | 02:40:37 | 00:00:00 | |
| DG1MFX-10 | 2026-09-05 13:09:37 | 48.14105 | 11.25242 | 127° | 148km/h | 9835m | -4.1m/s | -37.8°C | 28.8% | 290.3hPa | 2.5V | 07:46:00 | 00:00:00 | 00:00:00 | |
| DK5PH-5 | 2026-09-05 13:09:35 | 48.14168 | 11.25102 | 122° | 137km/h | 9847m | -3.7m/s | -38.0°C | 31.5% | 289.9hPa | 2.5V | 07:45:00 | 02:40:34 | 00:00:00 | |
| OE5DXL-15 | 2026-09-05 13:09:32 | 48.14223 | 11.24960 | 119° | 135km/h | 9858m | -3.5m/s | -38.3°C | 30.2% | 289.4hPa | 2.5V | 07:45:00 | 00:00:00 | 00:00:00 | |
| DG1MJG | 2026-09-05 13:09:31 | 48.14223 | 11.24960 | 120° | 137km/h | 9858m | -3.5m/s | 0°C | 0% | 0hPa | 2.5V | 00:00:00 | 00:00:00 | 00:00:00 | |
| DO3MHA-12 | 2026-09-05 13:09:29 | 48.14273 | 11.24832 | 123° | 131km/h | 9869m | -3.9m/s | -38.1°C | 29.0% | 288.9hPa | 2.5V | 00:00:00 | 02:40:28 | 00:00:00 | |
| DO3MHA-11 | 2026-09-05 13:09:28 | 48.14290 | 11.24791 | 124° | 133km/h | 9873m | -3.8m/s | -38.1°C | 28.5% | 288.7hPa | 2.5V | 00:00:00 | 02:40:27 | 00:00:00 | |
| OE5MMP-10 | 2026-09-05 13:09:27 | 48.14309 | 11.24752 | 126° | 137km/h | 9877m | -4.0m/s | -38.1°C | 27.9% | 288.6hPa | 2.5V | 00:00:00 | 02:40:26 | 00:00:00 | |
| DF7PN | 2026-09-05 13:09:21 | 48.14432 | 11.24516 | 129° | 139km/h | 9901m | -4.1m/s | -38.3°C | 24.3% | 287.6hPa | 2.5V | 00:00:00 | 00:00:00 | 00:00:00 | |
| DO3MHA-12 | 2026-09-05 13:09:19 | 48.14478 | 11.24433 | 130° | 144km/h | 9910m | -4.0m/s | -38.4°C | 27.4% | 287.2hPa | 2.5V | 00:00:00 | 02:40:18 | 00:00:00 | |
| DG1MFX-10 | 2026-09-05 13:09:18 | 48.14501 | 11.24391 | 130° | 146km/h | 9914m | -3.9m/s | -38.4°C | 24.5% | 287.0hPa | 2.5V | 07:46:00 | 00:00:00 | 00:00:00 | |
| OE5MMP-10 | 2026-09-05 13:09:17 | 48.14525 | 11.24347 | 128° | 142km/h | 9918m | -3.8m/s | -38.4°C | 27.4% | 286.8hPa | 2.5V | 00:00:00 | 02:40:16 | 00:00:00 | |
| OE5DRO-10 | 2026-09-05 13:09:16 | 48.14547 | 11.24302 | 127° | 137km/h | 9922m | -3.8m/s | -38.4°C | 27.5% | 286.7hPa | 2.5V | 00:00:00 | 00:00:00 | 00:00:00 | |
| DL9SK-14 | 2026-09-05 13:09:15 | 48.14570 | 11.24256 | 125° | 150km/h | 9926m | -3.6m/s | -38.5°C | 24.7% | 286.6hPa | 2.6V | 00:00:00 | 00:00:00 | 00:00:00 | |
| PG1ADW-2 | 2026-09-05 13:09:12 | 48.14630 | 11.24116 | 122° | 139km/h | 9936m | -3.5m/s | -38.8°C | 26.9% | 286.1hPa | 2.6V | 07:45:00 | 00:00:00 | 00:00:00 | |
| DB0NH | 2026-09-05 13:09:11 | 48.14648 | 11.24070 | 121° | 137km/h | 9940m | -3.7m/s | -38.8°C | 26.6% | 286.0hPa | 2.6V | 00:00:00 | 02:40:10 | 00:00:00 | |
| DO3MHA-12 | 2026-09-05 13:09:09 | 48.14684 | 11.23984 | 123° | 131km/h | 9948m | -3.9m/s | -38.8°C | 26.4% | 285.7hPa | 2.6V | 00:00:00 | 02:40:08 | 00:00:00 | |
| DO3MHA-11 | 2026-09-05 13:09:08 | 48.14702 | 11.23942 | 124° | 133km/h | 9952m | -3.9m/s | -38.8°C | 26.4% | 285.5hPa | 2.6V | 00:00:00 | 02:40:07 | 00:00:00 | |
| DB0ND-19 | 2026-09-05 13:09:07 | 48.14720 | 11.23902 | 124° | 128km/h | 9956m | -3.8m/s | -38.9°C | 23.5% | 285.4hPa | 2.6V | 00:00:00 | 00:00:00 | 00:00:00 | |
| OE5MMP-10 | 2026-09-05 13:09:06 | 48.14739 | 11.23862 | 127° | 91km/h | 9960m | -3.9m/s | -38.8°C | 26.4% | 285.1hPa | 2.6V | 00:00:00 | 02:40:05 | 00:00:00 | |
| DK5PH-5 | 2026-09-05 13:09:05 | 48.14758 | 11.23823 | 128° | 139km/h | 9964m | -3.9m/s | -38.8°C | 26.5% | 285.0hPa | 2.6V | 00:00:00 | 02:40:04 | 00:00:00 | |
| OE5DXL-15 | 2026-09-05 13:09:02 | 48.14821 | 11.23709 | 131° | 142km/h | 9976m | -3.9m/s | -38.9°C | 26.9% | 284.4hPa | 2.5V | 00:00:00 | 00:00:00 | 00:00:00 | |
| DG1MJG | 2026-09-05 13:09:00 | 48.14844 | 11.23671 | 132° | 137km/h | 9980m | -3.9m/s | -38.9°C | 24.2% | 284.4hPa | 2.5V | 07:46:00 | 00:00:00 | 00:00:00 | |
| DO3MHA-12 | 2026-09-05 13:08:59 | 48.14890 | 11.23591 | 132° | 148km/h | 9988m | -3.7m/s | -38.9°C | 27.6% | 284.0hPa | 2.5V | 00:00:00 | 02:39:58 | 00:00:00 | |
| DO3MHA-11 | 2026-09-05 13:08:58 | 48.14914 | 11.23550 | 131° | 148km/h | 9992m | -3.9m/s | -39.0°C | 27.7% | 283.8hPa | 2.5V | 07:45:00 | 02:39:57 | 00:00:00 | |
| OE5DRO-10 | 2026-09-05 13:08:57 | 48.14938 | 11.23507 | 130° | 139km/h | 9996m | -3.7m/s | -39.0°C | 27.8% | 283.7hPa | 2.6V | 00:00:00 | 00:00:00 | 00:00:00 | |
| DG1MFX-10 | 2026-09-05 13:08:56 | 48.14938 | 11.23507 | 131° | 148km/h | 9996m | -3.8m/s | -39.1°C | 24.8% | 283.8hPa | 2.6V | 07:46:00 | 00:00:00 | 00:00:00 | |
| NBG1-10 | 2026-09-05 13:08:55 | 48.14986 | 11.23419 | 128° | 139km/h | 10004m | -3.6m/s | -39.1°C | 27.8% | 283.3hPa | 2.6V | 00:00:00 | 02:39:54 | 00:00:00 | |
| PG1ADW-2 | 2026-09-05 13:08:52 | 48.15052 | 11.23280 | 124° | 139km/h | 10015m | -3.8m/s | -39.3°C | 27.8% | 282.9hPa | 2.6V | 00:00:00 | 00:00:00 | 00:00:00 | |
| DO3MHA-12 | 2026-09-05 13:08:49 | 48.15111 | 11.23143 | 122° | 131km/h | 10027m | -3.5m/s | -39.5°C | 28.2% | 282.4hPa | 2.6V | 00:00:00 | 02:39:48 | 00:00:00 | |
| DO3MHA-11 | 2026-09-05 13:08:48 | 48.15129 | 11.23099 | 123° | 131km/h | 10030m | -3.8m/s | -39.5°C | 28.3% | 282.3hPa | 2.6V | 00:00:00 | 02:39:47 | 00:00:00 | |
| DB0UT-7 | 2026-09-05 13:08:47 | 48.15147 | 11.23057 | 123° | 137km/h | 10034m | -3.7m/s | -39.5°C | 28.3% | 282.1hPa | 2.6V | 00:00:00 | 00:00:00 | 00:00:00 | |
| DL9SK-14 | 2026-09-05 13:08:44 | 48.15223 | 11.22900 | 128° | 128km/h | 10050m | -3.8m/s | -39.6°C | 25.4% | 281.5hPa | 2.6V | 00:00:00 | 00:00:00 | 00:00:00 | |
| DB0NH | 2026-09-05 13:08:41 | 48.15266 | 11.22824 | 132° | 141km/h | 10057m | -3.6m/s | -39.8°C | 28.7% | 281.2hPa | 2.6V | 07:46:00 | 02:39:40 | 00:00:00 | |
| DO3MHA-12 | 2026-09-05 13:08:39 | 48.15312 | 11.22748 | 133° | 148km/h | 10065m | -3.5m/s | -39.9°C | 28.9% | 280.8hPa | 2.6V | 00:00:00 | 02:39:38 | 00:00:00 | |
| DO3MHA-11 | 2026-09-05 13:08:38 | 48.15336 | 11.22708 | 133° | 148km/h | 10068m | -3.8m/s | -40.0°C | 29.1% | 280.6hPa | 2.6V | 00:00:00 | 02:39:37 | 00:00:00 | |
| DB0ND-19 | 2026-09-05 13:08:36 | 48.15386 | 11.22626 | 131° | 148km/h | 10076m | -3.9m/s | -40.1°C | 26.2% | 280.5hPa | 2.6V | 00:00:00 | 00:00:00 | 00:00:00 | |
| DK5PH-5 | 2026-09-05 13:08:35 | 48.15410 | 11.22583 | 131° | 142km/h | 10080m | -3.7m/s | -40.0°C | 29.5% | 280.2hPa | 2.6V | 00:00:00 | 02:39:34 | 00:00:00 | |
| OE5DXL-15 | 2026-09-05 13:08:32 | 48.15482 | 11.22447 | 126° | 142km/h | 10092m | -3.5m/s | -40.1°C | 30.1% | 279.7hPa | 2.6V | 00:00:00 | 00:00:00 | 00:00:00 | |
| DG1MJG | 2026-09-05 13:08:30 | 48.15503 | 11.22401 | 125° | 148km/h | 10095m | -3.4m/s | -40.2°C | 26.9% | 279.6hPa | 2.6V | 07:46:00 | 00:00:00 | 00:00:00 | |
| DO3MHA-12 | 2026-09-05 13:08:29 | 48.15543 | 11.22311 | 123° | 133km/h | 10102m | -3.4m/s | -40.3°C | 30.2% | 279.3hPa | 2.6V | 07:46:00 | 02:39:28 | 00:00:00 | |
| DO3MHA-11 | 2026-09-05 13:08:28 | 48.15562 | 11.22268 | 124° | 133km/h | 10105m | -3.0m/s | -40.3°C | 30.3% | 279.2hPa | 2.6V | 00:00:00 | 02:39:27 | 00:00:00 | |
| NBG1-10 | 2026-09-05 13:08:22 | 48.15685 | 11.22034 | 132° | 142km/h | 10127m | -4.0m/s | -40.5°C | 30.4% | 278.3hPa | 2.6V | 00:00:00 | 02:39:21 | 00:00:00 | |
| DO3MHA-12 | 2026-09-05 13:08:19 | 48.15755 | 11.21922 | 134° | 146km/h | 10138m | -4.0m/s | -40.6°C | 30.2% | 277.8hPa | 2.6V | 00:00:00 | 02:39:18 | 00:00:00 | |
| DO3MHA-11 | 2026-09-05 13:08:18 | 48.15779 | 11.21884 | 135° | 148km/h | 10143m | -3.8m/s | -40.6°C | 30.1% | 277.6hPa | 2.5V | 00:00:00 | 02:39:17 | 00:00:00 | |
| DB0UT-7 | 2026-09-05 13:08:17 | 48.15803 | 11.21847 | 134° | 144km/h | 10146m | -4.0m/s | -40.6°C | 30.1% | 277.4hPa | 2.5V | 07:46:00 | 02:39:16 | 00:00:00 | |
| DL6DJ-15 | 2026-09-05 13:08:16 | 48.15828 | 11.21809 | 133° | 141km/h | 10150m | -4.0m/s | -40.7°C | 26.8% | 277.4hPa | 2.5V | 00:00:00 | 00:00:00 | 00:00:00 | |
| DG1MFX-10 | 2026-09-05 13:08:15 | 48.15853 | 11.21770 | 135° | 144km/h | 10155m | -3.5m/s | -40.8°C | 26.8% | 277.2hPa | 2.5V | 07:46:00 | 00:00:00 | 00:00:00 | |
| DL9SK-14 | 2026-09-05 13:08:13 | 48.15930 | 11.21649 | 132° | 150km/h | 10165m | -3.7m/s | -40.8°C | 26.8% | 276.7hPa | 2.5V | 00:00:00 | 00:00:00 | 00:00:00 | |
| PG1ADW-2 | 2026-09-05 13:08:12 | 48.15930 | 11.21649 | 133° | 142km/h | 10166m | -3.6m/s | -40.8°C | 30.2% | 276.7hPa | 2.5V | 00:00:00 | 00:00:00 | 00:00:00 | |
| DB0NH | 2026-09-05 13:08:11 | 48.15956 | 11.21606 | 132° | 146km/h | 10169m | -3.4m/s | -40.8°C | 30.1% | 276.6hPa | 2.5V | 00:00:00 | 02:39:10 | 00:00:00 | |
| OE5WHR-10 | 2026-09-05 13:08:10 | 48.15981 | 11.21562 | 131° | 146km/h | 10173m | -3.6m/s | -40.9°C | 30.0% | 276.4hPa | 2.5V | 00:00:00 | 00:00:00 | 00:00:00 | |
| DO3MHA-12 | 2026-09-05 13:08:09 | 48.16006 | 11.21517 | 129° | 144km/h | 10176m | -3.5m/s | -40.9°C | 30.0% | 276.2hPa | 2.5V | 00:00:00 | 02:39:08 | 00:00:00 | |
| DO3MHA-11 | 2026-09-05 13:08:08 | 48.16030 | 11.21472 | 128° | 142km/h | 10180m | -3.7m/s | -40.9°C | 29.6% | 276.1hPa | 2.5V | 00:00:00 | 02:39:07 | 00:00:00 | |
| DK5PH-5 | 2026-09-05 13:08:05 | 48.16097 | 11.21335 | 125° | 142km/h | 10191m | -4.0m/s | -41.0°C | 29.0% | 275.6hPa | 2.5V | 00:00:00 | 02:39:04 | 00:00:00 | |
| OE5DXL-15 | 2026-09-05 13:08:02 | 48.16158 | 11.21204 | 126° | 142km/h | 10203m | -3.8m/s | -41.1°C | 28.4% | 275.2hPa | 2.5V | 00:00:00 | 00:00:00 | 00:00:00 | |
| DL6DJ-15 | 2026-09-05 13:07:45 | 48.16574 | 11.20517 | 127° | 151km/h | 10266m | -3.5m/s | -41.6°C | 25.3% | 272.6hPa | 2.5V | 00:00:00 | 00:00:00 | 00:00:00 | |
| DL9SK-14 | 2026-09-05 13:07:42 | 48.16661 | 11.20344 | 128° | 133km/h | 10281m | -3.4m/s | -41.7°C | 25.4% | 272.1hPa | 2.5V | 00:00:00 | 00:00:00 | 00:00:00 | |
| DB0NH | 2026-09-05 13:07:41 | 48.16660 | 11.20344 | 129° | 142km/h | 10281m | -3.3m/s | -41.7°C | 28.7% | 272.0hPa | 2.5V | 00:00:00 | 02:38:40 | 00:00:00 | |
| DO3MHA-12 | 2026-09-05 13:07:39 | 48.16703 | 11.20266 | 131° | 142km/h | 10289m | -3.8m/s | -41.8°C | 28.9% | 271.8hPa | 2.5V | 00:00:00 | 02:38:38 | 00:00:00 | |
| DO3MHA-11 | 2026-09-05 13:07:38 | 48.16725 | 11.20229 | 133° | 144km/h | 10292m | -3.4m/s | -41.8°C | 29.0% | 271.6hPa | 2.5V | 07:47:00 | 02:38:37 | 00:00:00 | |
| DG1MFX-10 | 2026-09-05 13:07:35 | 48.16796 | 11.20120 | 136° | 141km/h | 10303m | -3.9m/s | -41.9°C | 25.8% | 271.2hPa | 2.5V | 07:47:00 | 00:00:00 | 00:00:00 | |
| DB0ND-19 | 2026-09-05 13:07:34 | 48.16822 | 11.20083 | 136° | 142km/h | 10306m | -2.9m/s | -41.9°C | 25.8% | 271.0hPa | 2.5V | 00:00:00 | 00:00:00 | 00:00:00 | |
| PG1ADW-2 | 2026-09-05 13:07:32 | 48.16877 | 11.20006 | 137° | 146km/h | 10313m | -3.2m/s | -41.9°C | 29.4% | 270.7hPa | 2.5V | 00:00:00 | 00:00:00 | 00:00:00 | |
| DG1MJG | 2026-09-05 13:07:30 | 48.16904 | 11.19966 | 136° | 151km/h | 10317m | -4.1m/s | -42.0°C | 26.1% | 270.6hPa | 2.5V | 07:47:00 | 00:00:00 | 00:00:00 | |
| DO3MHA-12 | 2026-09-05 13:07:29 | 48.16959 | 11.19881 | 134° | 150km/h | 10324m | -3.7m/s | -42.0°C | 29.7% | 270.3hPa | 2.5V | 00:00:00 | 02:38:28 | 00:00:00 | |
| OE5WHR-10 | 2026-09-05 13:07:28 | 48.16986 | 11.19837 | 133° | 151km/h | 10328m | -3.6m/s | -42.1°C | 29.9% | 270.1hPa | 2.5V | 00:00:00 | 02:38:27 | 00:00:00 | |
| OE5DRO-10 | 2026-09-05 13:07:22 | 48.17131 | 11.19568 | 128° | 146km/h | 10350m | -3.7m/s | -42.3°C | 30.0% | 269.2hPa | 2.5V | 00:00:00 | 00:00:00 | 00:00:00 | |
| DO3MHA-12 | 2026-09-05 13:07:19 | 48.17196 | 11.19447 | 130° | 141km/h | 10360m | -4.0m/s | -42.4°C | 30.3% | 268.8hPa | 2.6V | 00:00:00 | 02:38:18 | 00:00:00 | |
| DO3MHA-11 | 2026-09-05 13:07:18 | 48.17218 | 11.19409 | 133° | 144km/h | 10364m | -3.8m/s | -42.4°C | 30.3% | 268.6hPa | 2.5V | 00:00:00 | 02:38:17 | 00:00:00 | |
| DB0UT-7 | 2026-09-05 13:07:17 | 48.17242 | 11.19372 | 134° | 146km/h | 10368m | -3.5m/s | -42.5°C | 30.4% | 268.5hPa | 2.5V | 00:00:00 | 02:38:16 | 00:00:00 | |
| NBG1-10 | 2026-09-05 13:07:16 | 48.17265 | 11.19336 | 135° | 148km/h | 10372m | -3.8m/s | -42.5°C | 30.6% | 268.3hPa | 2.5V | 00:00:00 | 02:38:15 | 00:00:00 | |
| DH7VM-15 | 2026-09-05 13:07:15 | 48.17265 | 11.19336 | 135° | 137km/h | 10372m | -3.9m/s | -42.6°C | 27.0% | 268.4hPa | 2.5V | 00:00:00 | 00:00:00 | 00:00:00 | |
| DL6DJ-15 | 2026-09-05 13:07:14 | 48.17316 | 11.19262 | 136° | 141km/h | 10380m | -4.3m/s | -42.6°C | 27.0% | 268.1hPa | 2.5V | 00:00:00 | 00:00:00 | 00:00:00 | |
| PG1ADW-2 | 2026-09-05 13:07:12 | 48.17368 | 11.19187 | 138° | 148km/h | 10389m | -4.0m/s | -42.6°C | 30.7% | 267.7hPa | 2.5V | 00:00:00 | 02:38:11 | 00:00:00 | |
| DB0NH | 2026-09-05 13:07:11 | 48.17395 | 11.19149 | 138° | 151km/h | 10393m | -3.3m/s | -42.7°C | 30.9% | 267.6hPa | 2.6V | 00:00:00 | 02:38:10 | 00:00:00 | |
| DO3MHA-12 | 2026-09-05 13:07:09 | 48.17452 | 11.19069 | 135° | 153km/h | 10399m | -3.7m/s | -42.8°C | 31.1% | 267.3hPa | 2.6V | 07:47:00 | 02:38:08 | 00:00:00 | |
| DO3MHA-11 | 2026-09-05 13:07:08 | 48.17480 | 11.19026 | 135° | 151km/h | 10403m | -3.7m/s | -42.8°C | 31.1% | 267.2hPa | 2.6V | 00:00:00 | 02:38:07 | 00:00:00 | |
| DK5PH-5 | 2026-09-05 13:07:05 | 48.17561 | 11.18892 | 131° | 150km/h | 10414m | -3.5m/s | -42.9°C | 31.2% | 266.7hPa | 2.6V | 00:00:00 | 02:38:04 | 00:00:00 | |
| OE5DRO-10 | 2026-09-05 13:07:03 | 48.17610 | 11.18801 | 129° | 146km/h | 10421m | -3.0m/s | -42.9°C | 31.3% | 266.4hPa | 2.6V | 00:00:00 | 00:00:00 | 00:00:00 | |
| OE5DXL-15 | 2026-09-05 13:07:02 | 48.17634 | 11.18756 | 128° | 148km/h | 10424m | -3.1m/s | -43.0°C | 31.5% | 266.3hPa | 2.6V | 00:00:00 | 00:00:00 | 00:00:00 | |
| DF7PN | 2026-09-05 13:06:46 | 48.18102 | 11.18045 | 132° | 162km/h | 10486m | -3.6m/s | -43.6°C | 26.8% | 263.8hPa | 2.6V | 00:00:00 | 00:00:00 | 00:00:00 | |
| DO9HM | 2026-09-05 13:06:45 | 48.18046 | 11.18133 | 136° | 161km/h | 10479m | -3.5m/s | -43.5°C | 27.3% | 264.1hPa | 2.6V | 07:48:00 | 00:00:00 | 00:00:00 | |
| OE5DRO-10 | 2026-09-05 13:06:44 | 48.18102 | 11.18045 | 133° | 151km/h | 10486m | -3.5m/s | -43.5°C | 30.5% | 263.8hPa | 2.6V | 00:00:00 | 00:00:00 | 00:00:00 | |
| NBG1-10 | 2026-09-05 13:06:43 | 48.18129 | 11.17999 | 132° | 151km/h | 10490m | -3.6m/s | -43.5°C | 30.2% | 263.6hPa | 2.6V | 00:00:00 | 02:37:42 | 00:00:00 | |
| DB0NH | 2026-09-05 13:06:41 | 48.18181 | 11.17907 | 130° | 151km/h | 10497m | -3.5m/s | -43.6°C | 29.3% | 263.3hPa | 2.6V | 00:00:00 | 02:37:40 | 00:00:00 | |
| DL9SK-14 | 2026-09-05 13:06:40 | 48.18230 | 11.17816 | 128° | 150km/h | 10503m | -3.6m/s | -43.7°C | 24.7% | 263.1hPa | 2.5V | 00:00:00 | 00:00:00 | 00:00:00 | |
| DO3MHA-12 | 2026-09-05 13:06:39 | 48.18230 | 11.17816 | 129° | 142km/h | 10503m | -3.5m/s | -43.6°C | 28.2% | 263.1hPa | 2.5V | 00:00:00 | 02:37:38 | 00:00:00 | |
| DK7TD | 2026-09-05 13:06:21 | 48.18700 | 11.17061 | 128° | 161km/h | 10566m | -3.8m/s | -43.9°C | 27.6% | 260.7hPa | 2.5V | 07:48:38 | 02:37:20 | 00:00:00 | |
| DK7TD | 2026-09-05 13:06:08 | 48.19016 | 11.16513 | 137° | 151km/h | 10611m | -3.5m/s | -44.3°C | 27.2% | 259hPa | 2.5V | 07:49:29 | 02:37:07 | 00:00:00 | |
| DK7TD | 2026-09-05 13:05:58 | 48.19294 | 11.16067 | 127° | 157km/h | 10645m | -3.2m/s | -44.5°C | 26.5% | 257.5hPa | 2.6V | 07:49:29 | 02:36:57 | 00:00:00 | |
| DK7TD | 2026-09-05 13:05:48 | 48.19534 | 11.15653 | 136° | 151km/h | 10680m | -4m/s | -44.8°C | 26% | 256.3hPa | 2.6V | 07:49:29 | 02:36:47 | 00:00:00 | |
| DF7PN | 2026-09-05 13:05:44 | 48.19650 | 11.15480 | 133° | 164km/h | 10694m | -3.9m/s | -44.9°C | 20.7% | 255.7hPa | 2.6V | 00:00:00 | 00:00:00 | 00:00:00 | |
| DK7TD | 2026-09-05 13:05:37 | 48.19832 | 11.15145 | 127° | 151km/h | 10719m | -3m/s | -45.1°C | 25.8% | 254.8hPa | 2.6V | 07:49:29 | 02:36:36 | 00:00:00 | |
| DK7TD | 2026-09-05 13:05:26 | 48.20107 | 11.14690 | 135° | 161km/h | 10755m | -3.6m/s | -45.4°C | 26.5% | 253.4hPa | 2.6V | 07:49:29 | 02:36:25 | 00:00:00 | |
| DK7TD | 2026-09-05 13:05:16 | 48.20369 | 11.14213 | 126° | 150km/h | 10791m | -3.1m/s | -45.7°C | 27.3% | 252hPa | 2.6V | 07:50:20 | 02:36:15 | 00:00:00 | |
| DK7TD | 2026-09-05 13:05:05 | 48.20647 | 11.13754 | 135° | 161km/h | 10832m | -3.7m/s | -46.1°C | 27.9% | 250.6hPa | 2.6V | 07:50:20 | 02:36:04 | 00:00:00 | |
| DK7TD | 2026-09-05 13:04:55 | 48.20905 | 11.13275 | 126° | 148km/h | 10868m | -3.9m/s | -46.4°C | 28.2% | 249.2hPa | 2.5V | 07:50:20 | 02:35:54 | 00:00:00 | |
| DK7TD | 2026-09-05 13:04:44 | 48.21187 | 11.12815 | 134° | 168km/h | 10908m | -3.4m/s | -46.7°C | 28.9% | 247.7hPa | 2.5V | 07:50:20 | 02:35:43 | 00:00:00 | |
| DK7TD | 2026-09-05 13:04:33 | 48.21465 | 11.12285 | 127° | 146km/h | 10949m | -4m/s | -47.1°C | 29.1% | 246.2hPa | 2.5V | 07:51:11 | 02:35:32 | 00:00:00 | |
| DK7TD | 2026-09-05 13:04:23 | 48.21732 | 11.11871 | 135° | 166km/h | 10987m | -3.8m/s | -47.4°C | 29.1% | 244.8hPa | 2.5V | 07:51:11 | 02:35:22 | 00:00:00 | |
| DK7TD | 2026-09-05 13:04:13 | 48.21989 | 11.11393 | 128° | 146km/h | 11024m | -3.9m/s | -47.8°C | 29% | 243.4hPa | 2.5V | 07:51:11 | 02:35:12 | 00:00:00 | |
| DK7TD | 2026-09-05 13:04:02 | 48.22290 | 11.10937 | 135° | 172km/h | 11068m | -3.8m/s | -48.1°C | 29.3% | 241.8hPa | 2.5V | 07:51:11 | 02:35:01 | 00:00:00 | |
| DK7TD | 2026-09-05 13:03:51 | 48.22578 | 11.10412 | 131° | 146km/h | 11112m | -4.3m/s | -48.6°C | 29.7% | 240.1hPa | 2.5V | 07:51:11 | 02:34:50 | 00:00:00 | |
| DF3TZ-5 | 2026-09-05 13:03:48 | 48.22655 | 11.10292 | 134° | 148km/h | 11126m | -4.8m/s | -48.7°C | 23.7% | 239.7hPa | 2.5V | 00:00:00 | 00:00:00 | 00:00:00 | |
| DK7TD | 2026-09-05 13:03:40 | 48.22895 | 11.09951 | 133° | 175km/h | 11159m | -3.8m/s | -48.9°C | 30.6% | 238.5hPa | 2.5V | 07:52:02 | 02:34:39 | 00:00:00 | |
| DK7TD | 2026-09-05 13:03:30 | 48.23151 | 11.09481 | 132° | 146km/h | 11200m | -4.6m/s | -49.3°C | 31.3% | 236.9hPa | 2.6V | 07:52:02 | 02:34:29 | 00:00:00 | |
| DK7TD | 2026-09-05 13:03:19 | 48.23474 | 11.09003 | 131° | 173km/h | 11246m | -4.3m/s | -49.7°C | 32.6% | 235.2hPa | 2.6V | 07:52:02 | 02:34:18 | 00:00:00 | |
| DK7TD | 2026-09-05 13:03:09 | 48.23729 | 11.08543 | 135° | 148km/h | 11289m | -5m/s | -50.1°C | 33.6% | 233.8hPa | 2.5V | 07:52:02 | 02:34:08 | 00:00:00 | |
| DK7TD | 2026-09-05 13:02:58 | 48.24056 | 11.08053 | 129° | 173km/h | 11338m | -4.3m/s | -50.5°C | 35% | 232hPa | 2.5V | 07:52:02 | 02:33:57 | 00:00:00 | |
| DK7TD | 2026-09-05 13:02:47 | 48.24334 | 11.07558 | 136° | 153km/h | 11388m | -4.6m/s | -50.9°C | 36.2% | 230.2hPa | 2.5V | 07:52:53 | 02:33:46 | 00:00:00 | |
| DF3TZ-5 | 2026-09-05 13:02:46 | 48.24363 | 11.07518 | 136° | 155km/h | 11392m | -3.8m/s | -51.0°C | 29.9% | 230.1hPa | 2.5V | 00:00:00 | 00:00:00 | 00:00:00 | |
| DK7TD | 2026-09-05 13:02:36 | 48.24654 | 11.07041 | 132° | 179km/h | 11433m | -4.9m/s | -51.4°C | 38.2% | 228.6hPa | 2.5V | 07:52:53 | 02:33:35 | 00:00:00 | |
| DK7TD | 2026-09-05 13:02:26 | 48.24936 | 11.06600 | 128° | 155km/h | 11475m | -3.7m/s | -51.7°C | 40.2% | 227.1hPa | 2.5V | 07:52:53 | 02:33:25 | 00:00:00 | |
| DK7TD | 2026-09-05 13:02:15 | 48.25243 | 11.06080 | 134° | 151km/h | 11521m | -4.6m/s | -52.1°C | 43.6% | 225.4hPa | 2.5V | 07:52:53 | 02:33:14 | 00:00:00 | |
| DK7TD | 2026-09-05 13:02:05 | 48.25498 | 11.05606 | 128° | 172km/h | 11563m | -4.4m/s | -52.5°C | 46.9% | 223.9hPa | 2.6V | 07:52:53 | 02:33:04 | 00:00:00 | |
| DK7TD | 2026-09-05 13:01:55 | 48.25751 | 11.05097 | 126° | 151km/h | 11612m | -4.5m/s | -52.9°C | 49.3% | 222.3hPa | 2.5V | 07:53:44 | 02:32:54 | 00:00:00 | |
| DK7TD | 2026-09-05 13:01:44 | 48.26054 | 11.04616 | 132° | 177km/h | 11662m | -4.4m/s | -53.4°C | 51.5% | 220.7hPa | 2.5V | 07:53:44 | 02:32:43 | 00:00:00 | |
| DK7TD | 2026-09-05 13:01:34 | 48.26305 | 11.04119 | 128° | 148km/h | 11705m | -4.1m/s | -53.8°C | 51.7% | 219.1hPa | 2.5V | 07:53:44 | 02:32:33 | 00:00:00 | |
| DK7TD | 2026-09-05 13:01:24 | 48.26588 | 11.03684 | 134° | 177km/h | 11749m | -4m/s | -54.1°C | 52.3% | 217.6hPa | 2.6V | 07:53:44 | 02:32:23 | 00:00:00 | |
| DK7TD | 2026-09-05 13:01:13 | 48.26873 | 11.03144 | 132° | 148km/h | 11798m | -4m/s | -54.5°C | 51.7% | 216hPa | 2.6V | 07:53:44 | 02:32:12 | 00:00:00 | |
| DK7TD | 2026-09-05 13:01:03 | 48.27157 | 11.02698 | 129° | 173km/h | 11840m | -4.4m/s | -54.8°C | 53.2% | 214.5hPa | 2.5V | 07:54:35 | 02:32:02 | 00:00:00 | |
| DK7TD | 2026-09-05 13:00:52 | 48.27479 | 11.02169 | 135° | 153km/h | 11888m | -4.1m/s | -55.2°C | 56.2% | 212.9hPa | 2.5V | 07:54:35 | 02:31:51 | 00:00:00 | |
| DB0ND-19 | 2026-09-05 13:00:51 | 48.27625 | 11.01892 | 124° | 168km/h | 11916m | -4.2m/s | -55.5°C | 48.7% | 212.0hPa | 2.5V | 00:00:00 | 00:00:00 | 00:00:00 | |
| DK7TD | 2026-09-05 13:00:41 | 48.27764 | 11.01630 | 133° | 181km/h | 11938m | -4.7m/s | -55.7°C | 57.8% | 211.3hPa | 2.5V | 07:54:35 | 02:31:40 | 00:00:00 | |
| DK7TD | 2026-09-05 13:00:30 | 48.28060 | 11.01121 | 125° | 172km/h | 11986m | -4.3m/s | -56.1°C | 57.4% | 209.7hPa | 2.5V | 07:54:35 | 02:31:29 | 00:00:00 | |
| DK7TD | 2026-09-05 13:00:20 | 48.28347 | 11.00634 | 132° | 153km/h | 12030m | -4.4m/s | -56.4°C | 56.8% | 208.2hPa | 2.6V | 07:54:35 | 02:31:19 | 00:00:00 | |
| DK7TD | 2026-09-05 13:00:10 | 48.28606 | 11.00127 | 133° | 181km/h | 12070m | -3.8m/s | -56.7°C | 55.4% | 206.8hPa | 2.5V | 07:55:26 | 02:31:09 | 00:00:00 | |
| DK7TD | 2026-09-05 12:59:59 | 48.28899 | 10.99606 | 124° | 175km/h | 12116m | -5.2m/s | -57.1°C | 54.1% | 205.2hPa | 2.5V | 07:55:26 | 02:30:58 | 00:00:00 | |
| DK7TD | 2026-09-05 12:59:49 | 48.29186 | 10.99099 | 131° | 155km/h | 12164m | -4.2m/s | -57.3°C | 54.3% | 203.8hPa | 2.6V | 07:55:26 | 02:30:48 | 00:00:00 | |
| DB0ND-19 | 2026-09-05 12:59:49 | 48.29210 | 10.99053 | 128° | 155km/h | 12168m | -4.0m/s | -57.3°C | 47.1% | 203.6hPa | 2.6V | 00:00:00 | 00:00:00 | 00:00:00 | |
| DK7TD | 2026-09-05 12:59:38 | 48.29478 | 10.98523 | 133° | 181km/h | 12212m | -4.9m/s | -57.5°C | 53.9% | 202.2hPa | 2.6V | 07:55:26 | 02:30:37 | 00:00:00 | |
| DK7TD | 2026-09-05 12:59:28 | 48.29745 | 10.98034 | 125° | 170km/h | 12253m | -4.8m/s | -57.9°C | 55.6% | 200.8hPa | 2.5V | 07:55:26 | 02:30:27 | 00:00:00 | |
| DK7TD | 2026-09-05 12:59:17 | 48.30009 | 10.97477 | 131° | 162km/h | 12308m | -4.9m/s | -58.3°C | 56.2% | 199.1hPa | 2.5V | 07:56:17 | 02:30:16 | 00:00:00 | |
| DK7TD | 2026-09-05 12:59:07 | 48.30303 | 10.96947 | 123° | 183km/h | 12351m | -4.8m/s | -58.6°C | 57.4% | 197.7hPa | 2.6V | 07:56:17 | 02:30:06 | 00:00:00 | |
| DK7TD | 2026-09-05 12:58:57 | 48.30548 | 10.96433 | 132° | 166km/h | 12400m | -3.9m/s | -59°C | 57.3% | 196.1hPa | 2.5V | 07:56:17 | 02:29:56 | 00:00:00 | |
| DK7TD | 2026-09-05 12:58:47 | 48.30847 | 10.95897 | 123° | 188km/h | 12445m | -4.6m/s | -59.3°C | 57.9% | 194.6hPa | 2.5V | 07:56:17 | 02:29:46 | 00:00:00 | |
| DK7TD | 2026-09-05 12:58:36 | 48.31120 | 10.95327 | 133° | 168km/h | 12500m | -5.3m/s | -59.8°C | 58.3% | 193hPa | 2.5V | 07:57:08 | 02:29:35 | 00:00:00 | |
| DK7TD | 2026-09-05 12:58:26 | 48.31415 | 10.94775 | 123° | 184km/h | 12550m | -4.4m/s | -60.2°C | 58.9% | 191.5hPa | 2.6V | 07:57:08 | 02:29:25 | 00:00:00 | |
| DK7TD | 2026-09-05 12:58:15 | 48.31690 | 10.94212 | 132° | 173km/h | 12605m | -5.6m/s | -60.7°C | 58.7% | 189.8hPa | 2.5V | 07:57:08 | 02:29:14 | 00:00:00 | |
| DK7TD | 2026-09-05 12:58:05 | 48.31983 | 10.93652 | 121° | 183km/h | 12654m | -4.7m/s | -61.2°C | 58.7% | 188.3hPa | 2.5V | 07:57:08 | 02:29:04 | 00:00:00 | |
| DK7TD | 2026-09-05 12:57:55 | 48.32226 | 10.93147 | 132° | 168km/h | 12703m | -4.2m/s | -61.6°C | 57.8% | 186.8hPa | 2.6V | 07:57:08 | 02:28:54 | 00:00:00 | |
| DK7TD | 2026-09-05 12:57:44 | 48.32532 | 10.92540 | 121° | 175km/h | 12756m | -5.6m/s | -61.9°C | 57.5% | 185.2hPa | 2.6V | 07:57:59 | 02:28:43 | 00:00:00 | |
| DK7TD | 2026-09-05 12:57:33 | 48.32788 | 10.91982 | 125° | 179km/h | 12810m | -4m/s | -62.1°C | 57.4% | 183.6hPa | 2.5V | 07:57:59 | 02:28:32 | 00:00:00 | |
| DK7TD | 2026-09-05 12:57:23 | 48.33055 | 10.91425 | 128° | 162km/h | 12857m | -4.5m/s | -62.3°C | 57% | 182.2hPa | 2.5V | 07:57:59 | 02:28:22 | 00:00:00 | |
| DK7TD | 2026-09-05 12:57:12 | 48.33283 | 10.90841 | 117° | 172km/h | 12909m | -5m/s | -62.4°C | 56.9% | 180.6hPa | 2.5V | 07:57:59 | 02:28:11 | 00:00:00 | |
| DK7TD | 2026-09-05 12:57:01 | 48.33502 | 10.90257 | 125° | 170km/h | 12964m | -4.6m/s | -62.7°C | 57% | 179.1hPa | 2.5V | 07:57:59 | 02:28:00 | 00:00:00 | |
| DK7TD | 2026-09-05 12:56:51 | 48.33727 | 10.89665 | 114° | 170km/h | 13014m | -4.8m/s | -63.2°C | 56.2% | 177.7hPa | 2.6V | 07:58:50 | 02:27:50 | 00:00:00 | |
| DL9SK-14 | 2026-09-05 12:56:50 | 48.33762 | 10.89553 | 116° | 157km/h | 13023m | -4.9m/s | -63.2°C | 49.4% | 177.4hPa | 2.5V | 00:00:00 | 00:00:00 | 00:00:00 | |
| DK7TD | 2026-09-05 12:56:41 | 48.33937 | 10.89145 | 127° | 175km/h | 13061m | -4.8m/s | -63.4°C | 54.5% | 176.3hPa | 2.5V | 07:58:50 | 02:27:40 | 00:00:00 | |
| DK7TD | 2026-09-05 12:56:31 | 48.34164 | 10.88542 | 115° | 173km/h | 13108m | -5.7m/s | -63.5°C | 52.3% | 174.9hPa | 2.5V | 07:58:50 | 02:27:30 | 00:00:00 | |
| DK7TD | 2026-09-05 12:56:20 | 48.34421 | 10.87953 | 125° | 188km/h | 13162m | -5.3m/s | -63.8°C | 50% | 173.5hPa | 2.5V | 07:58:50 | 02:27:19 | 00:00:00 | |
| DO3MHA-12 | 2026-09-05 12:56:19 | 48.34448 | 10.87894 | 125° | 181km/h | 13166m | -4.9m/s | -63.8°C | 52.7% | 173.3hPa | 2.5V | 00:00:00 | 02:27:18 | 00:00:00 | |
| DF1GD-15 | 2026-09-05 12:56:18 | 48.34448 | 10.87894 | 125° | 190km/h | 13166m | -4.9m/s | -63.8°C | 43.4% | 173.3hPa | 2.6V | 07:58:00 | 00:00:00 | 00:00:00 | |
| DB0UT-7 | 2026-09-05 12:56:17 | 48.34500 | 10.87771 | 121° | 175km/h | 13176m | -4.9m/s | -63.8°C | 52.2% | 173.0hPa | 2.6V | 07:58:00 | 02:27:16 | 00:00:00 | |
| DO3MHA-11 | 2026-09-05 12:56:16 | 48.34525 | 10.87708 | 120° | 172km/h | 13181m | -5.2m/s | -63.8°C | 52.1% | 172.8hPa | 2.6V | 00:00:00 | 02:27:15 | 00:00:00 | |
| DM0DOS-11 | 2026-09-05 12:56:15 | 48.34627 | 10.87406 | 116° | 166km/h | 13203m | -5m/s | -63.9°C | 50.9% | 172.2hPa | 2.6V | 07:58:43 | 02:27:10 | 00:00:00 | |
| DK7TD | 2026-09-05 12:56:10 | 48.34646 | 10.87351 | 118° | 162km/h | 13208m | -4.9m/s | -63.9°C | 47.5% | 172.1hPa | 2.6V | 07:58:50 | 02:27:09 | 00:00:00 | |
| DK7TD | 2026-09-05 12:56:00 | 48.34893 | 10.86809 | 127° | 190km/h | 13254m | -5.8m/s | -63.9°C | 43% | 170.8hPa | 2.6V | 07:59:41 | 02:26:59 | 00:00:00 | |
| DO3MHA-12 | 2026-09-05 12:55:59 | 48.34921 | 10.86751 | 127° | 172km/h | 13260m | -5.9m/s | -63.9°C | 43.6% | 170.6hPa | 2.6V | 00:00:00 | 02:26:58 | 00:00:00 | |
| DM0DOS-11 | 2026-09-05 12:55:58 | 48.35060 | 10.86486 | 127° | 162km/h | 13284m | -5m/s | -63.8°C | 44.3% | 170hPa | 2.6V | 07:59:00 | 02:26:53 | 00:00:00 | |
| DK7TD | 2026-09-05 12:55:48 | 48.35188 | 10.86162 | 117° | 179km/h | 13312m | -5.8m/s | -64°C | 40.6% | 169.2hPa | 2.6V | 07:59:41 | 02:26:47 | 00:00:00 | |
| DL9SK-14 | 2026-09-05 12:55:48 | 48.35208 | 10.86101 | 116° | 184km/h | 13318m | -5.8m/s | -64.0°C | 32.7% | 169.1hPa | 2.5V | 00:00:00 | 00:00:00 | 00:00:00 | |
| DB0UT-7 | 2026-09-05 12:55:47 | 48.35208 | 10.86101 | 117° | 184km/h | 13318m | -5.7m/s | -64.0°C | 41.0% | 169.0hPa | 2.5V | 00:00:00 | 00:00:00 | 00:00:00 | |
| DO3MHA-11 | 2026-09-05 12:55:46 | 48.35230 | 10.86037 | 119° | 190km/h | 13323m | -5.8m/s | -64.0°C | 40.4% | 168.9hPa | 2.6V | 00:00:00 | 02:26:45 | 00:00:00 | |
| OE5DRO-10 | 2026-09-05 12:55:45 | 48.35254 | 10.85973 | 120° | 183km/h | 13328m | -6.0m/s | -64.0°C | 39.9% | 168.7hPa | 2.6V | 00:00:00 | 00:00:00 | 00:00:00 | |
| NBG1-10 | 2026-09-05 12:55:43 | 48.35306 | 10.85845 | 124° | 183km/h | 13339m | -5.9m/s | -64.1°C | 39.4% | 168.4hPa | 2.6V | 00:00:00 | 02:26:42 | 00:00:00 | |
| DB0ND-19 | 2026-09-05 12:55:40 | 48.35394 | 10.85666 | 129° | 188km/h | 13357m | -5.6m/s | -64.2°C | 31.5% | 168.1hPa | 2.5V | 00:00:00 | 00:00:00 | 00:00:00 | |
| DB0NH | 2026-09-05 12:55:39 | 48.35423 | 10.85611 | 130° | 188km/h | 13362m | -5.1m/s | -64.2°C | 40.0% | 167.9hPa | 2.5V | 00:00:00 | 02:26:38 | 00:00:00 | |
| DM0DOS-11 | 2026-09-05 12:55:38 | 48.35573 | 10.85302 | 119° | 164km/h | 13391m | -5.2m/s | -64.4°C | 40.7% | 167.1hPa | 2.5V | 07:59:21 | 02:26:32 | 00:00:00 | |
| DK7TD | 2026-09-05 12:55:37 | 48.35479 | 10.85508 | 128° | 170km/h | 13372m | -4.6m/s | -64.3°C | 38.7% | 167.7hPa | 2.6V | 07:59:41 | 02:26:36 | 00:00:00 | |
| PG1ADW-2 | 2026-09-05 12:55:37 | 48.35479 | 10.85508 | 129° | 181km/h | 13372m | -4.6m/s | -64.3°C | 40.9% | 167.6hPa | 2.5V | 00:00:00 | 00:00:00 | 00:00:00 | |
| DO3MHA-11 | 2026-09-05 12:55:36 | 48.35505 | 10.85458 | 128° | 177km/h | 13377m | -5.3m/s | -64.3°C | 41.1% | 167.4hPa | 2.5V | 07:59:00 | 02:26:35 | 00:00:00 | |
| DK5PH-5 | 2026-09-05 12:55:35 | 48.35529 | 10.85407 | 125° | 186km/h | 13382m | -4.9m/s | -64.3°C | 41.3% | 167.3hPa | 2.5V | 00:00:00 | 02:26:34 | 00:00:00 | |
| OE5DXL-15 | 2026-09-05 12:55:32 | 48.35594 | 10.85246 | 118° | 188km/h | 13397m | -4.9m/s | -64.4°C | 40.2% | 166.9hPa | 2.6V | 00:00:00 | 00:00:00 | 00:00:00 | |
| DG1MFX-10 | 2026-09-05 12:55:30 | 48.35615 | 10.85187 | 119° | 177km/h | 13402m | -5.5m/s | -64.5°C | 31.1% | 166.8hPa | 2.5V | 07:59:00 | 00:00:00 | 00:00:00 | |
| DO3MHA-12 | 2026-09-05 12:55:29 | 48.35659 | 10.85063 | 120° | 190km/h | 13412m | -4.5m/s | -64.5°C | 38.1% | 166.5hPa | 2.5V | 00:00:00 | 02:26:28 | 00:00:00 | |
| DM0DOS-11 | 2026-09-05 12:55:28 | 48.35830 | 10.84697 | 129° | 190km/h | 13438m | -4.7m/s | -64.8°C | 37.6% | 165.7hPa | 2.5V | 07:59:31 | 02:26:22 | 00:00:00 | |
| DK7TD | 2026-09-05 12:55:27 | 48.35710 | 10.84936 | 123° | 199km/h | 13421m | -4.4m/s | -64.7°C | 36.6% | 166.3hPa | 2.5V | 07:59:41 | 02:26:26 | 00:00:00 | |
| DK7TD | 2026-09-05 12:55:16 | 48.36012 | 10.84327 | 120° | 173km/h | 13472m | -4.8m/s | -65°C | 35.2% | 164.8hPa | 2.5V | 07:59:41 | 02:26:15 | 00:00:00 | |
| DO3MHA-11 | 2026-09-05 12:55:16 | 48.36012 | 10.84327 | 121° | 195km/h | 13472m | -4.8m/s | -64.9°C | 38.9% | 164.8hPa | 2.6V | 00:00:00 | 02:26:15 | 00:00:00 | |
| DJ8HS-15 | 2026-09-05 12:55:15 | 48.36034 | 10.84270 | 120° | 188km/h | 13477m | -6.0m/s | -64.9°C | 38.4% | 164.6hPa | 2.6V | 00:00:00 | 02:26:14 | 00:00:00 | |
| DM0DOS-11 | 2026-09-05 12:55:13 | 48.36080 | 10.84148 | 120° | 192km/h | 13489m | -5.2m/s | -65°C | 37.4% | 164.4hPa | 2.5V | 07:59:41 | 02:26:12 | 00:00:00 | |
| NBG1-10 | 2026-09-05 12:55:10 | 48.36160 | 10.83956 | 125° | 184km/h | 13504m | -5.9m/s | -64.8°C | 34.9% | 163.9hPa | 2.6V | 00:00:00 | 02:26:09 | 00:00:00 | |
| DO3MHA-12 | 2026-09-05 12:55:09 | 48.36190 | 10.83892 | 127° | 184km/h | 13510m | -6.3m/s | -64.8°C | 34.4% | 163.8hPa | 2.6V | 07:59:00 | 02:26:08 | 00:00:00 | |
| DM0DOS-11 | 2026-09-05 12:55:08 | 48.36377 | 10.83555 | 130° | 177km/h | 13540m | -4.8m/s | -64.8°C | 33% | 163hPa | 2.6V | 07:59:51 | 02:26:02 | 00:00:00 | |
| DK7TD | 2026-09-05 12:55:05 | 48.36316 | 10.83659 | 131° | 188km/h | 13530m | -4.8m/s | -64.9°C | 31.6% | 163.2hPa | 2.5V | 08:00:32 | 02:26:04 | 00:00:00 | |
| DK5PH-5 | 2026-09-05 12:55:05 | 48.36316 | 10.83659 | 132° | 181km/h | 13530m | -4.8m/s | -64.8°C | 33.1% | 163.2hPa | 2.5V | 00:00:00 | 02:26:04 | 00:00:00 | |
| DB0NH | 2026-09-05 12:55:02 | 48.36405 | 10.83505 | 130° | 181km/h | 13545m | -5.1m/s | -64.8°C | 33.3% | 162.9hPa | 2.5V | 00:00:00 | 02:26:01 | 00:00:00 | |
| DO3MHA-12 | 2026-09-05 12:54:59 | 48.36483 | 10.83352 | 124° | 193km/h | 13559m | -4.7m/s | -64.8°C | 34.3% | 162.4hPa | 2.5V | 00:00:00 | 02:25:58 | 00:00:00 | |
| DM0DOS-11 | 2026-09-05 12:54:58 | 48.36646 | 10.82994 | 129° | 203km/h | 13585m | -4m/s | -64.9°C | 31% | 161.9hPa | 2.5V | 08:00:01 | 02:25:52 | 00:00:00 | |
| DK7TD | 2026-09-05 12:54:54 | 48.36615 | 10.83054 | 128° | 201km/h | 13582m | -4.1m/s | -64.9°C | 28.6% | 161.9hPa | 2.5V | 08:00:32 | 02:25:53 | 00:00:00 | |
| DL1ZP-14 | 2026-09-05 12:54:54 | 48.36646 | 10.82994 | 129° | 201km/h | 13585m | -4.0m/s | -64.9°C | 23.2% | 161.9hPa | 2.5V | 00:00:00 | 00:00:00 | 00:00:00 | |
| DJ8HS-15 | 2026-09-05 12:54:53 | 48.36646 | 10.82994 | 130° | 179km/h | 13586m | -3.9m/s | -64.9°C | 31.0% | 161.8hPa | 2.5V | 00:00:00 | 02:25:52 | 00:00:00 | |
| DO3MHA-12 | 2026-09-05 12:54:49 | 48.36780 | 10.82770 | 135° | 175km/h | 13605m | -5.6m/s | -64.9°C | 28.7% | 161.2hPa | 2.5V | 00:00:00 | 02:25:48 | 00:00:00 | |
| DM0DOS-11 | 2026-09-05 12:54:48 | 48.36974 | 10.82481 | 133° | 168km/h | 13639m | -4.8m/s | -64.8°C | 27.3% | 160.4hPa | 2.5V | 08:00:11 | 02:25:42 | 00:00:00 | |
| DL9SK-14 | 2026-09-05 12:54:45 | 48.36913 | 10.82574 | 135° | 175km/h | 13628m | -5.9m/s | -64.9°C | 20.1% | 160.7hPa | 2.5V | 00:00:00 | 00:00:00 | 00:00:00 | |
| DK7TD | 2026-09-05 12:54:43 | 48.36974 | 10.82481 | 134° | 168km/h | 13639m | -4.8m/s | -64.8°C | 24.2% | 160.4hPa | 2.5V | 08:00:32 | 02:25:42 | 00:00:00 | |
| HARRO8 | 2026-09-05 12:54:43 | 48.37003 | 10.82435 | 131° | 164km/h | 13643m | -4.2m/s | -64.8°C | 19.8% | 160.3hPa | 2.5V | 00:00:00 | 00:00:00 | 00:00:00 | |
| DO3MHA-12 | 2026-09-05 12:54:39 | 48.37083 | 10.82286 | 127° | 175km/h | 13655m | -4.4m/s | -64.7°C | 26.2% | 160.0hPa | 2.5V | 00:00:00 | 02:25:38 | 00:00:00 | |
| DB0ND-19 | 2026-09-05 12:54:38 | 48.37108 | 10.82235 | 126° | 170km/h | 13659m | -4.7m/s | -64.7°C | 18.8% | 159.9hPa | 2.5V | 00:00:00 | 00:00:00 | 00:00:00 | |
| DM0DOS-11 | 2026-09-05 12:54:37 | 48.37244 | 10.81981 | 132° | 179km/h | 13682m | -4m/s | -64.4°C | 24.6% | 159.3hPa | 2.5V | 08:00:21 | 02:25:32 | 00:00:00 | |
| DK7TD | 2026-09-05 12:54:32 | 48.37276 | 10.81932 | 135° | 181km/h | 13686m | -3.2m/s | -64.4°C | 19.8% | 159.2hPa | 2.5V | 08:00:32 | 02:25:31 | 00:00:00 | |
| OE5DXL-15 | 2026-09-05 12:54:32 | 48.37276 | 10.81932 | 136° | 157km/h | 13686m | -3.1m/s | -64.3°C | 23.6% | 159.2hPa | 2.5V | 00:00:00 | 00:00:00 | 00:00:00 | |
| DO3MHA-12 | 2026-09-05 12:54:29 | 48.37378 | 10.81793 | 141° | 159km/h | 13699m | -5.8m/s | -64.1°C | 21.0% | 158.8hPa | 2.5V | 00:00:00 | 02:25:28 | 00:00:00 | |
| DG1MFX-10 | 2026-09-05 12:54:28 | 48.37378 | 10.81793 | 141° | 179km/h | 13699m | -5.8m/s | -64.2°C | 14.6% | 158.8hPa | 2.5V | 00:00:00 | 00:00:00 | 00:00:00 | |
| DM0DOS-11 | 2026-09-05 12:54:27 | 48.37566 | 10.81555 | 136° | 146km/h | 13731m | -4.5m/s | -63.7°C | 17.8% | 158hPa | 2.5V | 08:00:31 | 02:25:22 | 00:00:00 | |
| DK7TD | 2026-09-05 12:54:21 | 48.37618 | 10.81476 | 131° | 148km/h | 13740m | -5m/s | -63.3°C | 14.3% | 157.8hPa | 2.5V | 08:01:23 | 02:25:20 | 00:00:00 | |
| DO3MHA-12 | 2026-09-05 12:54:19 | 48.37668 | 10.81387 | 131° | 162km/h | 13750m | -4.8m/s | -62.6°C | 15.5% | 157.5hPa | 2.6V | 00:00:00 | 02:25:18 | 00:00:00 | |
| DL6DJ-15 | 2026-09-05 12:54:18 | 48.37722 | 10.81294 | 131° | 166km/h | 13759m | -3.9m/s | -62.9°C | 10.5% | 157.3hPa | 2.5V | 00:00:00 | 00:00:00 | 00:00:00 | |
| DB0UT-7 | 2026-09-05 12:54:17 | 48.37722 | 10.81293 | 132° | 142km/h | 13759m | -3.9m/s | -62.8°C | 16.1% | 157.3hPa | 2.5V | 08:00:00 | 02:25:16 | 00:00:00 | |
| SO1NDE-10 | 2026-09-05 12:54:16 | 48.37751 | 10.81246 | 135° | 124km/h | 13762m | -4.2m/s | -62.9°C | 16.1% | 157.1hPa | 2.6V | 00:00:00 | 02:25:15 | 00:00:00 | |
| DL1NUX | 2026-09-05 12:54:13 | 48.37845 | 10.81118 | 140° | 164km/h | 13775m | -4.3m/s | -63°C | 15% | 156.8hPa | 2.6V | 08:00:41 | 02:25:12 | 00:00:00 | |
| DK7TD | 2026-09-05 12:54:10 | 48.37938 | 10.81010 | 144° | 148km/h | 13789m | -5.5m/s | -63.1°C | 11% | 156.5hPa | 2.5V | 08:01:23 | 02:25:09 | 00:00:00 | |
| OE5DRO-10 | 2026-09-05 12:54:10 | 48.37938 | 10.81010 | 144° | 141km/h | 13789m | -5.4m/s | -63.0°C | 13.8% | 156.4hPa | 2.6V | 00:00:00 | 00:00:00 | 00:00:00 | |
| DO3MHA-12 | 2026-09-05 12:54:09 | 48.37968 | 10.80977 | 143° | 139km/h | 13795m | -5.3m/s | -62.9°C | 13.1% | 156.2hPa | 2.6V | 00:00:00 | 02:25:08 | 00:00:00 | |
| DM0DOS-11 | 2026-09-05 12:54:07 | 48.38115 | 10.80768 | 129° | 135km/h | 13823m | -5.1m/s | -63.1°C | 12.3% | 155.6hPa | 2.6V | 08:00:51 | 02:25:02 | 00:00:00 | |
| DK7TD | 2026-09-05 12:53:59 | 48.38215 | 10.80602 | 137° | 157km/h | 13841m | -4.2m/s | -62.4°C | 7.9% | 155.1hPa | 2.5V | 08:01:23 | 02:24:58 | 00:00:00 | |
| DO3MHA-12 | 2026-09-05 12:53:59 | 48.38215 | 10.80602 | 137° | 135km/h | 13842m | -4.1m/s | -62.3°C | 11.3% | 155.1hPa | 2.5V | 00:00:00 | 02:24:58 | 00:00:00 | |
| DM0DOS-11 | 2026-09-05 12:53:58 | 48.38388 | 10.80400 | 143° | 126km/h | 13870m | -5m/s | -62°C | 9.8% | 154.4hPa | 2.5V | 08:01:01 | 02:24:52 | 00:00:00 | |
| DK7TD | 2026-09-05 12:53:48 | 48.38500 | 10.80259 | 135° | 111km/h | 13896m | -4.8m/s | -61.8°C | 6.1% | 153.8hPa | 2.5V | 08:01:23 | 02:24:47 | 00:00:00 | |
| DL6DJ-15 | 2026-09-05 12:53:47 | 48.38540 | 10.80193 | 131° | 120km/h | 13905m | -4.7m/s | -61.7°C | 4.8% | 153.5hPa | 2.5V | 00:00:00 | 00:00:00 | 00:00:00 | |
| DK7TD | 2026-09-05 12:53:38 | 48.38734 | 10.79907 | 144° | 126km/h | 13941m | -3.8m/s | -61.6°C | 5.6% | 152.7hPa | 2.5V | 08:01:23 | 02:24:37 | 00:00:00 | |
| PG1ADW-2 | 2026-09-05 12:53:37 | 48.38759 | 10.79880 | 145° | 113km/h | 13946m | -4.2m/s | -61.6°C | 8.6% | 152.5hPa | 2.5V | 00:00:00 | 00:00:00 | 00:00:00 | |
| DO3MHA-11 | 2026-09-05 12:53:36 | 48.38782 | 10.79854 | 144° | 117km/h | 13950m | -4.8m/s | -61.6°C | 8.5% | 152.4hPa | 2.5V | 00:00:00 | 02:24:35 | 00:00:00 | |
| DK5PH-5 | 2026-09-05 12:53:35 | 48.38804 | 10.79829 | 142° | 111km/h | 13955m | -4.9m/s | -61.6°C | 8.5% | 152.3hPa | 2.5V | 00:00:00 | 02:24:34 | 00:00:00 | |
| DM0DOS-11 | 2026-09-05 12:53:34 | 48.38843 | 10.79775 | 134° | 106km/h | 13965m | -4.7m/s | -61.8°C | 8.6% | 152hPa | 2.5V | 08:01:21 | 02:24:32 | 00:00:00 | |
| DK7TD | 2026-09-05 12:53:27 | 48.38969 | 10.79570 | 139° | 135km/h | 13993m | -5.7m/s | -61.8°C | 5.4% | 151.4hPa | 2.5V | 08:02:14 | 02:24:26 | 00:00:00 | |
| DK7TD | 2026-09-05 12:53:16 | 48.39185 | 10.79264 | 123° | 111km/h | 14048m | -5.1m/s | -62°C | 4.8% | 150hPa | 2.5V | 08:02:14 | 02:24:15 | 00:00:00 | |
| DL6DJ-15 | 2026-09-05 12:53:16 | 48.39202 | 10.79228 | 125° | 119km/h | 14052m | -4.4m/s | -62.0°C | 4.2% | 149.9hPa | 2.5V | 00:00:00 | 00:00:00 | 00:00:00 | |
| DM0DOS-11 | 2026-09-05 12:53:15 | 48.39307 | 10.79060 | 142° | 113km/h | 14076m | -4.5m/s | -62°C | 8.7% | 149.3hPa | 2.5V | 08:01:44 | 02:24:09 | 00:00:00 | |
| BIOWL1-15 | 2026-09-05 12:53:10 | 48.39307 | 10.79060 | 142° | 113km/h | 14076m | -4.5m/s | 0°C | 0% | 0hPa | 2.5V | 08:02:14 | 02:24:09 | 00:00:00 | |
| DO3MHA-12 | 2026-09-05 12:53:09 | 48.39329 | 10.79034 | 143° | 93km/h | 14080m | -4.4m/s | -61.9°C | 8.6% | 149.2hPa | 2.5V | 00:00:00 | 02:24:08 | 00:00:00 | |
| DL1NUX | 2026-09-05 12:53:06 | 48.39425 | 10.78891 | 122° | 88km/h | 14110m | -6.3m/s | -61.8°C | 7.7% | 148.4hPa | 2.5V | 08:01:51 | 02:24:02 | 00:00:00 | |
| DK7TD | 2026-09-05 12:53:06 | 48.39384 | 10.78965 | 135° | 88km/h | 14095m | -5.6m/s | -61.8°C | 4.6% | 148.8hPa | 2.5V | 08:02:14 | 02:24:05 | 00:00:00 | |
| DB0ND-19 | 2026-09-05 12:53:06 | 48.39398 | 10.78942 | 131° | 80km/h | 14100m | -5.7m/s | -61.7°C | 3.9% | 148.8hPa | 2.5V | 00:00:00 | 00:00:00 | 00:00:00 | |
| DO3MHA-11 | 2026-09-05 12:53:05 | 48.39398 | 10.78942 | 132° | 100km/h | 14100m | -5.6m/s | -61.6°C | 7.8% | 148.7hPa | 2.5V | 00:00:00 | 02:24:04 | 00:00:00 | |
| DB0NH | 2026-09-05 12:53:02 | 48.39436 | 10.78862 | 122° | 99km/h | 14116m | -5.8m/s | -61.8°C | 7.7% | 148.2hPa | 2.5V | 00:00:00 | 02:24:01 | 00:00:00 | |
| DG1MFX-10 | 2026-09-05 12:53:01 | 48.39436 | 10.78862 | 123° | 89km/h | 14116m | -5.8m/s | -61.9°C | 3.8% | 148.3hPa | 2.5V | 08:02:00 | 00:00:00 | 00:00:00 | |
| DO3MHA-12 | 2026-09-05 12:52:59 | 48.39472 | 10.78763 | 121° | 106km/h | 14134m | -6.6m/s | -61.5°C | 7.4% | 147.9hPa | 2.5V | 00:00:00 | 02:23:58 | 00:00:00 | |
| DL1NUX | 2026-09-05 12:52:58 | 48.39577 | 10.78558 | 137° | 106km/h | 14167m | -5.2m/s | -61.6°C | 8% | 147.3hPa | 2.5V | 08:02:01 | 02:23:52 | 00:00:00 | |
| NBG1-10 | 2026-09-05 12:52:58 | 48.39487 | 10.78727 | 124° | 99km/h | 14140m | -6.1m/s | -61.6°C | 7.5% | 147.7hPa | 2.5V | 00:00:00 | 02:23:57 | 00:00:00 | |
| SO1NDE-10 | 2026-09-05 12:52:57 | 48.39503 | 10.78690 | 123° | 115km/h | 14146m | -5.8m/s | -61.7°C | 7.7% | 147.6hPa | 2.5V | 00:00:00 | 02:23:56 | 00:00:00 | |
| DM0DOS-11 | 2026-09-05 12:52:56 | 48.39539 | 10.78619 | 129° | 117km/h | 14156m | -5.9m/s | -61.7°C | 8% | 147.4hPa | 2.5V | 08:01:59 | 02:23:54 | 00:00:00 | |
| DK7TD | 2026-09-05 12:52:55 | 48.39538 | 10.78619 | 130° | 117km/h | 14156m | -5.9m/s | -61.7°C | 4.4% | 147.5hPa | 2.5V | 08:02:14 | 02:23:54 | 00:00:00 | |
| BIOWL1-15 | 2026-09-05 12:52:53 | 48.39596 | 10.78532 | 137° | 97km/h | 14172m | -4.9m/s | 0°C | 0% | 0hPa | 2.5V | 08:02:14 | 02:23:51 | 00:00:00 | |
| DL1ZP-14 | 2026-09-05 12:52:50 | 48.39641 | 10.78461 | 127° | 77km/h | 14188m | -5.2m/s | -61.7°C | 3.7% | 146.8hPa | 2.5V | 00:00:00 | 00:00:00 | 00:00:00 | |
| DO3MHA-12 | 2026-09-05 12:52:49 | 48.39641 | 10.78461 | 128° | 97km/h | 14188m | -5.1m/s | -61.6°C | 7.7% | 146.7hPa | 2.5V | 00:00:00 | 02:23:48 | 00:00:00 | |
| DB0UT-7 | 2026-09-05 12:52:47 | 48.39663 | 10.78412 | 120° | 97km/h | 14198m | -5.6m/s | -61.6°C | 7.5% | 146.4hPa | 2.5V | 00:00:00 | 00:00:00 | 00:00:00 | |
| DM0DOS-11 | 2026-09-05 12:52:46 | 48.39681 | 10.78352 | 111° | 91km/h | 14209m | -6.1m/s | -61.7°C | 7.4% | 146.2hPa | 2.6V | 08:02:09 | 02:23:44 | 00:00:00 | |
| DK7TD | 2026-09-05 12:52:44 | 48.39690 | 10.78318 | 115° | 99km/h | 14214m | -5.1m/s | -61.7°C | 4% | 146hPa | 2.5V | 08:02:14 | 02:23:43 | 00:00:00 | |
| BIOWL1-15 | 2026-09-05 12:52:42 | 48.39714 | 10.78245 | 117° | 113km/h | 14224m | -5m/s | 0°C | 0% | 0hPa | 2.5V | 08:02:14 | 02:23:41 | 00:00:00 | |
| DK7TD | 2026-09-05 12:52:34 | 48.39830 | 10.77998 | 123° | 75km/h | 14261m | -5.3m/s | -61.8°C | 4.2% | 145hPa | 2.6V | 08:03:05 | 02:23:33 | 00:00:00 | |
| BIOWL1-15 | 2026-09-05 12:52:31 | 48.39853 | 10.77919 | 109° | 80km/h | 14277m | -6.2m/s | 0°C | 0% | 0hPa | 2.5V | 18:12:15 | 02:23:30 | 00:00:00 | |
| DO3MHA-12 | 2026-09-05 12:52:29 | 48.39867 | 10.77853 | 104° | 106km/h | 14288m | -6.3m/s | -61.8°C | 7.3% | 144.2hPa | 2.5V | 00:00:00 | 02:23:28 | 00:00:00 | |
| DM0DOS-11 | 2026-09-05 12:52:26 | 48.39901 | 10.77698 | 112° | 117km/h | 14309m | -5.6m/s | -61.7°C | 7.4% | 143.8hPa | 2.5V | 08:02:29 | 02:23:24 | 00:00:00 | |
| DK7TD | 2026-09-05 12:52:23 | 48.39925 | 10.77618 | 118° | 113km/h | 14320m | -5m/s | -61.6°C | 3.9% | 143.6hPa | 2.6V | 08:03:05 | 02:23:22 | 00:00:00 | |
| BIOWL1-15 | 2026-09-05 12:52:20 | 48.39975 | 10.77491 | 119° | 82km/h | 14337m | -5.1m/s | 0°C | 0% | 0hPa | 2.6V | 18:12:15 | 02:23:18 | 00:00:00 | |
| DO3MHA-12 | 2026-09-05 12:52:19 | 48.39975 | 10.77491 | 119° | 93km/h | 14337m | -5.0m/s | -61.3°C | 7.5% | 143.1hPa | 2.6V | 08:02:00 | 02:23:18 | 00:00:00 | |
| DL1ZP-14 | 2026-09-05 12:52:18 | 48.39984 | 10.77464 | 114° | 77km/h | 14342m | -5.6m/s | -61.4°C | 3.4% | 143.1hPa | 2.6V | 00:00:00 | 00:00:00 | 00:00:00 | |
| DB0UT-7 | 2026-09-05 12:52:17 | 48.39992 | 10.77436 | 108° | 100km/h | 14348m | -5.9m/s | -61.3°C | 7.2% | 142.9hPa | 2.6V | 00:00:00 | 02:23:16 | 00:00:00 | |
| DM0DOS-11 | 2026-09-05 12:52:16 | 48.40007 | 10.77309 | 98° | 102km/h | 14369m | -5.6m/s | -61.3°C | 6.8% | 142.3hPa | 2.6V | 08:02:41 | 02:23:12 | 00:00:00 | |
| DK7TD | 2026-09-05 12:52:12 | 48.40011 | 10.77269 | 98° | 110km/h | 14375m | -6.7m/s | -61.3°C | 3.4% | 142.3hPa | 2.6V | 08:03:05 | 02:23:11 | 00:00:00 | |
| BIOWL1-15 | 2026-09-05 12:52:07 | 48.40050 | 10.77064 | 113° | 108km/h | 14403m | -5.1m/s | 0°C | 0% | 0hPa | 2.6V | 18:12:15 | 02:23:06 | 00:00:00 | |
| DM0DOS-11 | 2026-09-05 12:52:06 | 48.40083 | 10.76936 | 102° | 80km/h | 14421m | -5.3m/s | -61.4°C | 7.1% | 141.3hPa | 2.6V | 08:02:51 | 02:23:02 | 00:00:00 | |
| DK5PH-5 | 2026-09-05 12:52:05 | 48.40070 | 10.76996 | 113° | 110km/h | 14412m | -4.6m/s | -61.4°C | 7.4% | 141.5hPa | 2.5V | 00:00:00 | 02:23:04 | 00:00:00 | |
| DB0ND-19 | 2026-09-05 12:52:04 | 48.40083 | 10.76936 | 102° | 80km/h | 14421m | -5.3m/s | -61.4°C | 3.2% | 141.3hPa | 2.5V | 00:00:00 | 00:00:00 | 00:00:00 | |
| DL1NUX | 2026-09-05 12:52:01 | 48.40088 | 10.76872 | 92° | 89km/h | 14432m | -5.9m/s | -61.5°C | 6.9% | 141.1hPa | 2.5V | 08:02:53 | 02:23:00 | 00:00:00 | |
| DK7TD | 2026-09-05 12:52:01 | 48.40088 | 10.76872 | 93° | 89km/h | 14432m | -5.9m/s | -61.5°C | 3.3% | 141.1hPa | 2.5V | 08:03:05 | 02:23:00 | 00:00:00 | |
| DO3MHA-12 | 2026-09-05 12:51:59 | 48.40089 | 10.76799 | 93° | 111km/h | 14444m | -5.6m/s | -61.6°C | 6.7% | 140.7hPa | 2.5V | 00:00:00 | 02:22:58 | 00:00:00 | |
| OE5DRO-10 | 2026-09-05 12:51:57 | 48.40093 | 10.76716 | 95° | 115km/h | 14454m | -5.8m/s | -61.7°C | 6.8% | 140.5hPa | 2.5V | 00:00:00 | 00:00:00 | 00:00:00 | |
| DM0DOS-11 | 2026-09-05 12:51:56 | 48.40117 | 10.76537 | 108° | 115km/h | 14475m | -4.3m/s | -61.6°C | 7.3% | 140.1hPa | 2.5V | 08:03:01 | 02:22:52 | 00:00:00 | |
| BIOWL1-15 | 2026-09-05 12:51:54 | 48.40108 | 10.76580 | 105° | 122km/h | 14470m | -5.5m/s | 0°C | 0% | 0hPa | 2.5V | 18:12:15 | 02:22:53 | 00:00:00 | |
| DK7TD | 2026-09-05 12:51:51 | 48.40135 | 10.76459 | 109° | 102km/h | 14485m | -5.1m/s | -61.6°C | 3.4% | 139.9hPa | 2.6V | 08:03:05 | 02:22:50 | 00:00:00 | |
| DL1NUX | 2026-09-05 12:51:51 | 48.40147 | 10.76389 | 100° | 93km/h | 14494m | -4.9m/s | -61.5°C | 7.4% | 139.7hPa | 2.5V | 08:03:05 | 02:22:48 | 00:00:00 | |
| DO9HM | 2026-09-05 12:51:51 | 48.40135 | 10.76459 | 110° | 102km/h | 14485m | -5.1m/s | -61.6°C | 3.4% | 139.9hPa | 2.5V | 00:00:00 | 00:00:00 | 00:00:00 | |
| PG1ADW-2 | 2026-09-05 12:51:50 | 48.40142 | 10.76423 | 105° | 111km/h | 14490m | -4.3m/s | -61.5°C | 7.4% | 139.8hPa | 2.5V | 00:00:00 | 00:00:00 | 00:00:00 | |
| DO3MHA-12 | 2026-09-05 12:51:49 | 48.40147 | 10.76389 | 101° | 117km/h | 14494m | -4.8m/s | -61.5°C | 7.4% | 139.7hPa | 2.5V | 00:00:00 | 02:22:48 | 00:00:00 | |
| DM0DOS-11 | 2026-09-05 12:51:48 | 48.40160 | 10.76139 | 97° | 131km/h | 14523m | -5.8m/s | -61.1°C | 6.7% | 139hPa | 2.5V | 08:03:11 | 02:22:42 | 00:00:00 | |
| DB0UT-7 | 2026-09-05 12:51:47 | 48.40151 | 10.76317 | 92° | 117km/h | 14504m | -4.7m/s | -61.4°C | 7.3% | 139.4hPa | 2.5V | 00:00:00 | 00:00:00 | 00:00:00 | |
| DO3MHA-11 | 2026-09-05 12:51:45 | 48.40154 | 10.76234 | 94° | 124km/h | 14513m | -4.8m/s | -61.4°C | 7.0% | 139.2hPa | 2.5V | 00:00:00 | 02:22:44 | 00:00:00 | |
| DL6DJ-15 | 2026-09-05 12:51:42 | 48.40165 | 10.76090 | 101° | 130km/h | 14529m | -4.8m/s | -61.1°C | 2.9% | 138.9hPa | 2.5V | 00:00:00 | 00:00:00 | 00:00:00 | |
| DL1NUX | 2026-09-05 12:51:41 | 48.40191 | 10.75947 | 109° | 126km/h | 14545m | -5.2m/s | -61.1°C | 6.5% | 138.5hPa | 2.5V | 08:03:15 | 02:22:38 | 00:00:00 | |
| DK7TD | 2026-09-05 12:51:40 | 48.40181 | 10.75994 | 106° | 131km/h | 14539m | -5.9m/s | -61.1°C | 2.8% | 138.6hPa | 2.6V | 08:03:56 | 02:22:39 | 00:00:00 | |
| DO3MHA-12 | 2026-09-05 12:51:39 | 48.40190 | 10.75947 | 110° | 106km/h | 14545m | -5.2m/s | -61.0°C | 6.5% | 138.4hPa | 2.5V | 00:00:00 | 02:22:38 | 00:00:00 | |
| OE5DRO-10 | 2026-09-05 12:51:38 | 48.40201 | 10.75903 | 111° | 115km/h | 14551m | -6.2m/s | -61.0°C | 6.5% | 138.4hPa | 2.5V | 00:00:00 | 00:00:00 | 00:00:00 | |
| DM0DOS-11 | 2026-09-05 12:51:36 | 48.40251 | 10.75713 | 107° | 95km/h | 14577m | -5.2m/s | -60.9°C | 6.7% | 137.8hPa | 2.5V | 08:03:21 | 02:22:32 | 00:00:00 | |
| DK5PH-5 | 2026-09-05 12:51:35 | 48.40234 | 10.75783 | 113° | 113km/h | 14566m | -5.5m/s | -60.9°C | 6.6% | 138.0hPa | 2.5V | 00:00:00 | 02:22:34 | 00:00:00 | |
| DJ8HS-15 | 2026-09-05 12:51:33 | 48.40251 | 10.75713 | 108° | 110km/h | 14577m | -5.1m/s | -60.8°C | 6.7% | 137.7hPa | 2.5V | 00:00:00 | 02:22:32 | 00:00:00 | |
| DL1NUX | 2026-09-05 12:51:32 | 48.40268 | 10.75567 | 95° | 106km/h | 14597m | -5.2m/s | -60.6°C | 6.7% | 137.4hPa | 2.5V | 08:03:25 | 02:22:28 | 00:00:00 | |
| DK7TD | 2026-09-05 12:51:29 | 48.40268 | 10.75567 | 95° | 106km/h | 14597m | -5.2m/s | -60.7°C | 2.8% | 137.4hPa | 2.5V | 08:03:56 | 02:22:28 | 00:00:00 | |
| DO3MHA-12 | 2026-09-05 12:51:29 | 48.40268 | 10.75567 | 96° | 124km/h | 14597m | -5.2m/s | -60.6°C | 6.7% | 137.4hPa | 2.5V | 00:00:00 | 02:22:28 | 00:00:00 | |
| DM0DOS-11 | 2026-09-05 12:51:28 | 48.40306 | 10.75287 | 110° | 131km/h | 14626m | -5.9m/s | -60.7°C | 6.3% | 136.7hPa | 2.5V | 08:03:31 | 02:22:22 | 00:00:00 | |
| DO3MHA-11 | 2026-09-05 12:51:25 | 48.40287 | 10.75383 | 105° | 115km/h | 14616m | -4.9m/s | -60.6°C | 6.4% | 136.9hPa | 2.6V | 08:03:00 | 02:22:24 | 00:00:00 | |
| DO9HM | 2026-09-05 12:51:24 | 48.40296 | 10.75335 | 108° | 135km/h | 14621m | -6.0m/s | -60.7°C | 2.8% | 136.8hPa | 2.6V | 00:00:00 | 00:00:00 | 00:00:00 | |
| SO1NDE-10 | 2026-09-05 12:51:23 | 48.40306 | 10.75287 | 111° | 113km/h | 14627m | -5.9m/s | -60.7°C | 6.3% | 136.6hPa | 2.6V | 00:00:00 | 02:22:22 | 00:00:00 | |
| DL1NUX | 2026-09-05 12:51:20 | 48.40358 | 10.75123 | 116° | 104km/h | 14649m | -4.6m/s | -60.7°C | 6.4% | 136.1hPa | 2.6V | 08:03:35 | 02:22:18 | 00:00:00 | |
| DK7TD | 2026-09-05 12:51:19 | 48.40358 | 10.75123 | 117° | 104km/h | 14649m | -4.6m/s | -60.7°C | 2.7% | 136.1hPa | 2.6V | 08:03:56 | 02:22:18 | 00:00:00 | |
| DO3MHA-12 | 2026-09-05 12:51:19 | 48.40358 | 10.75123 | 117° | 108km/h | 14649m | -4.6m/s | -60.6°C | 6.4% | 136.1hPa | 2.6V | 00:00:00 | 02:22:18 | 00:00:00 | |
| DG1MFX-10 | 2026-09-05 12:51:18 | 48.40358 | 10.75123 | 118° | 104km/h | 14649m | -4.6m/s | -60.7°C | 2.8% | 136.1hPa | 2.5V | 08:03:00 | 00:00:00 | 00:00:00 | |
| DB0UT-7 | 2026-09-05 12:51:17 | 48.40379 | 10.75055 | 113° | 110km/h | 14660m | -5.7m/s | -60.5°C | 6.4% | 135.9hPa | 2.5V | 00:00:00 | 02:22:16 | 00:00:00 | |
| DM0DOS-11 | 2026-09-05 12:51:16 | 48.40403 | 10.74911 | 98° | 113km/h | 14678m | -5.2m/s | -60.4°C | 6.3% | 135.6hPa | 2.5V | 08:03:41 | 02:22:12 | 00:00:00 | |
| DK7TD | 2026-09-05 12:51:09 | 48.40436 | 10.74729 | 113° | 128km/h | 14697m | -5m/s | -60.4°C | 2.5% | 135.1hPa | 2.6V | 08:03:56 | 02:22:08 | 00:00:00 | |
| DO3MHA-12 | 2026-09-05 12:51:09 | 48.40436 | 10.74729 | 113° | 104km/h | 14697m | -5.0m/s | -60.3°C | 6.3% | 135.1hPa | 2.6V | 00:00:00 | 02:22:08 | 00:00:00 | |
| DM0DOS-11 | 2026-09-05 12:51:08 | 48.40506 | 10.74507 | 110° | 88km/h | 14728m | -5.5m/s | -60.2°C | 6.3% | 134.5hPa | 2.6V | 08:03:51 | 02:22:02 | 00:00:00 | |
| DK7TD | 2026-09-05 12:50:58 | 48.40531 | 10.74320 | 103° | 120km/h | 14754m | -5.1m/s | -60°C | 2.4% | 133.9hPa | 2.6V | 08:03:56 | 02:21:57 | 00:00:00 | |
| DM0DOS-11 | 2026-09-05 12:50:56 | 48.40585 | 10.74096 | 119° | 117km/h | 14778m | -5.3m/s | -59.9°C | 6.1% | 133.4hPa | 2.6V | 08:04:01 | 02:21:52 | 00:00:00 | |
| DF3TZ-5 | 2026-09-05 12:50:52 | 48.40649 | 10.73899 | 102° | 86km/h | 14811m | -5.7m/s | -59.7°C | 2.4% | 132.7hPa | 2.5V | 00:00:00 | 00:00:00 | 00:00:00 | |
| DL1NUX | 2026-09-05 12:50:50 | 48.40657 | 10.73830 | 99° | 100km/h | 14822m | -4.8m/s | -59.7°C | 6% | 132.4hPa | 2.5V | 08:04:09 | 02:21:44 | 00:00:00 | |
| DK7TD | 2026-09-05 12:50:48 | 48.40643 | 10.73930 | 109° | 88km/h | 14806m | -5.3m/s | -59.7°C | 2.2% | 132.8hPa | 2.6V | 08:04:47 | 02:21:47 | 00:00:00 | |
| DB0UT-7 | 2026-09-05 12:50:47 | 48.40649 | 10.73899 | 103° | 104km/h | 14812m | -5.7m/s | -59.7°C | 6.0% | 132.6hPa | 2.5V | 00:00:00 | 00:00:00 | 00:00:00 | |
| NBG1-10 | 2026-09-05 12:50:46 | 48.40653 | 10.73866 | 100° | 102km/h | 14818m | -5.1m/s | -59.7°C | 6.0% | 132.5hPa | 2.5V | 00:00:00 | 02:21:45 | 00:00:00 | |
| DO3MHA-11 | 2026-09-05 12:50:45 | 48.40657 | 10.73830 | 100° | 117km/h | 14822m | -4.7m/s | -59.6°C | 6.0% | 132.4hPa | 2.5V | 00:00:00 | 02:21:44 | 00:00:00 | |
| DF7PN | 2026-09-05 12:50:43 | 48.40666 | 10.73748 | 99° | 119km/h | 14831m | -5.2m/s | -59.5°C | 2.4% | 132.2hPa | 2.5V | 00:00:00 | 00:00:00 | 00:00:00 | |
| OE5DRO-10 | 2026-09-05 12:50:41 | 48.40679 | 10.73657 | 107° | 106km/h | 14842m | -5.8m/s | -59.4°C | 5.9% | 132.0hPa | 2.5V | 08:04:00 | 00:00:00 | 00:00:00 | |
| DL6DJ-15 | 2026-09-05 12:50:40 | 48.40690 | 10.73611 | 111° | 124km/h | 14848m | -5.4m/s | -59.5°C | 2.3% | 131.9hPa | 2.5V | 00:00:00 | 00:00:00 | 00:00:00 | |
| DL1NUX | 2026-09-05 12:50:39 | 48.40769 | 10.73391 | 119° | 88km/h | 14880m | -5.9m/s | -59.1°C | 5.6% | 131.3hPa | 2.5V | 08:04:20 | 02:21:33 | 00:00:00 | |
| DK7TD | 2026-09-05 12:50:38 | 48.40716 | 10.73528 | 119° | 119km/h | 14858m | -5.6m/s | -59.4°C | 2.1% | 131.7hPa | 2.5V | 08:04:47 | 02:21:37 | 00:00:00 | |
| DK7TD | 2026-09-05 12:50:27 | 48.40809 | 10.73151 | 104° | 115km/h | 14916m | -5.6m/s | -59.1°C | 2.1% | 130.5hPa | 2.6V | 08:04:47 | 02:21:26 | 00:00:00 | |
| DM0DOS-11 | 2026-09-05 12:50:27 | 48.40826 | 10.73066 | 111° | 119km/h | 14927m | -5.2m/s | -59°C | 5.7% | 130.3hPa | 2.5V | 08:04:29 | 02:21:24 | 00:00:00 | |
| DO3MHA-11 | 2026-09-05 12:50:25 | 48.40826 | 10.73066 | 112° | 97km/h | 14927m | -5.2m/s | -59.0°C | 5.7% | 130.2hPa | 2.5V | 00:00:00 | 02:21:24 | 00:00:00 | |
| OE5DRO-10 | 2026-09-05 12:50:22 | 48.40864 | 10.72950 | 121° | 102km/h | 14942m | -4.2m/s | -58.9°C | 5.8% | 130.0hPa | 2.5V | 00:00:00 | 00:00:00 | 00:00:00 | |
| DL1NUX | 2026-09-05 12:50:20 | 48.40887 | 10.72888 | 118° | 86km/h | 14951m | -5.6m/s | -58.9°C | 5.8% | 129.8hPa | 2.5V | 08:04:34 | 02:21:19 | 00:00:00 | |
| DK7TD | 2026-09-05 12:50:16 | 48.40912 | 10.72768 | 98° | 88km/h | 14972m | -5.4m/s | -58.9°C | 2.1% | 129.3hPa | 2.6V | 08:04:47 | 02:21:15 | 00:00:00 | |
| DO3MHA-11 | 2026-09-05 12:50:15 | 48.40915 | 10.72732 | 97° | 113km/h | 14977m | -5.9m/s | -58.8°C | 5.5% | 129.1hPa | 2.5V | 00:00:00 | 02:21:14 | 00:00:00 | |
| DJ8HS-15 | 2026-09-05 12:50:13 | 48.40921 | 10.72653 | 99° | 104km/h | 14989m | -5.4m/s | -58.7°C | 5.3% | 128.9hPa | 2.5V | 00:00:00 | 02:21:12 | 00:00:00 | |
| DF7PN | 2026-09-05 12:50:12 | 48.40925 | 10.72610 | 100° | 117km/h | 14993m | -5.2m/s | -58.7°C | 2.1% | 128.9hPa | 2.5V | 00:00:00 | 00:00:00 | 00:00:00 | |
| DL1NUX | 2026-09-05 12:50:10 | 48.40948 | 10.72478 | 110° | 120km/h | 15010m | -4.6m/s | -58.8°C | 5.4% | 128.5hPa | 2.5V | 08:04:45 | 02:21:08 | 00:00:00 | |
| DK7TD | 2026-09-05 12:50:05 | 48.40997 | 10.72327 | 119° | 99km/h | 15031m | -6.5m/s | -58.8°C | 2% | 128.1hPa | 2.6V | 08:07:20 | 02:21:04 | 00:00:00 | |
| DM0DOS-11 | 2026-09-05 12:50:05 | 48.41035 | 10.72175 | 97° | 82km/h | 15059m | -5.7m/s | -59°C | 5.7% | 127.6hPa | 2.6V | 08:04:54 | 02:20:59 | 00:00:00 | |
| DO3MHA-11 | 2026-09-05 12:50:05 | 48.40997 | 10.72327 | 119° | 93km/h | 15032m | -6.4m/s | -58.8°C | 5.6% | 128.1hPa | 2.5V | 00:00:00 | 02:21:04 | 00:00:00 | |
| OE5DRO-10 | 2026-09-05 12:50:03 | 48.41018 | 10.72264 | 114° | 100km/h | 15043m | -5.5m/s | -58.9°C | 5.7% | 127.9hPa | 2.5V | 00:00:00 | 00:00:00 | 00:00:00 | |
| DB0NH | 2026-09-05 12:50:02 | 48.41026 | 10.72235 | 109° | 104km/h | 15049m | -5.1m/s | -58.9°C | 5.7% | 127.8hPa | 2.5V | 00:00:00 | 02:21:01 | 00:00:00 | |
| DL1NUX | 2026-09-05 12:50:00 | 48.41037 | 10.72143 | 95° | 88km/h | 15065m | -5.3m/s | -59°C | 5.6% | 127.5hPa | 2.5V | 08:04:55 | 02:20:58 | 00:00:00 | |
| DK7TD | 2026-09-05 12:49:55 | 48.41050 | 10.71984 | 100° | 120km/h | 15084m | -5.6m/s | -59.1°C | 1.9% | 127hPa | 2.6V | 08:07:20 | 02:20:54 | 00:00:00 | |
| DM0DOS-11 | 2026-09-05 12:49:55 | 48.41100 | 10.71771 | 116° | 111km/h | 15113m | -5.7m/s | -59.1°C | 5.7% | 126.5hPa | 2.6V | 08:05:04 | 02:20:49 | 00:00:00 | |
| DO3MHA-11 | 2026-09-05 12:49:55 | 48.41050 | 10.71984 | 100° | 108km/h | 15084m | -5.6m/s | -59.1°C | 5.5% | 127.0hPa | 2.6V | 08:04:00 | 02:20:54 | 00:00:00 | |
| DJ8HS-15 | 2026-09-05 12:49:53 | 48.41066 | 10.71895 | 109° | 108km/h | 15096m | -5.1m/s | -59.0°C | 5.5% | 126.8hPa | 2.6V | 00:00:00 | 02:20:52 | 00:00:00 | |
| DL1NUX | 2026-09-05 12:49:50 | 48.41112 | 10.71734 | 117° | 100km/h | 15118m | -4.7m/s | -59.2°C | 5.8% | 126.4hPa | 2.6V | 08:05:05 | 02:20:48 | 00:00:00 | |
| PG1ADW-2 | 2026-09-05 12:49:50 | 48.41100 | 10.71771 | 117° | 100km/h | 15113m | -5.7m/s | -59.1°C | 5.7% | 126.4hPa | 2.6V | 00:00:00 | 02:20:49 | 00:00:00 | |
| DO3MHA-12 | 2026-09-05 12:49:49 | 48.41112 | 10.71734 | 118° | 100km/h | 15118m | -4.6m/s | -59.1°C | 5.8% | 126.3hPa | 2.6V | 00:00:00 | 02:20:48 | 00:00:00 | |
| DF1GD-15 | 2026-09-05 12:49:48 | 48.41112 | 10.71734 | 119° | 100km/h | 15118m | -4.7m/s | -59.2°C | 2.3% | 126.4hPa | 2.5V | 08:05:00 | 00:00:00 | 00:00:00 | |
| DB0UT-7 | 2026-09-05 12:49:47 | 48.41132 | 10.71671 | 112° | 108km/h | 15127m | -4.7m/s | -59.1°C | 5.8% | 126.1hPa | 2.5V | 08:05:00 | 00:00:00 | 00:00:00 | |
| DO3MHA-11 | 2026-09-05 12:49:45 | 48.41143 | 10.71609 | 101° | 111km/h | 15137m | -5.1m/s | -59.1°C | 5.7% | 125.9hPa | 2.6V | 00:00:00 | 02:20:44 | 00:00:00 | |
| OE5DRO-10 | 2026-09-05 12:49:44 | 48.41147 | 10.71575 | 99° | 108km/h | 15142m | -5.0m/s | -59.0°C | 5.6% | 125.8hPa | 2.6V | 00:00:00 | 00:00:00 | 00:00:00 | |
| DF7PN | 2026-09-05 12:49:41 | 48.41157 | 10.71454 | 100° | 117km/h | 15158m | -6.5m/s | -59.1°C | 2.1% | 125.5hPa | 2.6V | 00:00:00 | 00:00:00 | 00:00:00 | |
| DL1NUX | 2026-09-05 12:49:40 | 48.41171 | 10.71365 | 106° | 126km/h | 15169m | -5.3m/s | -59.1°C | 5.5% | 125.3hPa | 2.6V | 08:05:15 | 02:20:38 | 00:00:00 | |
| DK7TD | 2026-09-05 12:49:37 | 48.41191 | 10.71277 | 113° | 120km/h | 15181m | -5.4m/s | -59°C | 1.9% | 125.1hPa | 2.5V | 08:07:20 | 02:20:36 | 00:00:00 | |
| DM0DOS-11 | 2026-09-05 12:49:35 | 48.41255 | 10.71038 | 96° | 97km/h | 15216m | -5.6m/s | -59°C | 5.7% | 124.4hPa | 2.5V | 08:05:24 | 02:20:29 | 00:00:00 | |
| DK5PH-5 | 2026-09-05 12:49:35 | 48.41216 | 10.71200 | 119° | 106km/h | 15190m | -4.5m/s | -58.9°C | 5.6% | 124.8hPa | 2.5V | 00:00:00 | 02:20:34 | 00:00:00 | |
| DH7VM-15 | 2026-09-05 12:49:33 | 48.41237 | 10.71136 | 115° | 88km/h | 15200m | -6.3m/s | -59.0°C | 2.3% | 124.7hPa | 2.5V | 00:00:00 | 00:00:00 | 00:00:00 | |
| DB0NH | 2026-09-05 12:49:32 | 48.41245 | 10.71105 | 109° | 108km/h | 15206m | -5.7m/s | -58.9°C | 5.7% | 124.5hPa | 2.5V | 00:00:00 | 02:20:31 | 00:00:00 | |
| DL1NUX | 2026-09-05 12:49:30 | 48.41257 | 10.71000 | 94° | 104km/h | 15221m | -6.3m/s | -59°C | 5.7% | 124.3hPa | 2.6V | 08:05:25 | 02:20:28 | 00:00:00 | |
| DK7TD | 2026-09-05 12:49:24 | 48.41287 | 10.70777 | 110° | 126km/h | 15249m | -5.4m/s | -58.9°C | 1.9% | 123.7hPa | 2.5V | 08:07:20 | 02:20:23 | 00:00:00 | |
| DM0DOS-11 | 2026-09-05 12:49:21 | 48.41339 | 10.70613 | 121° | 110km/h | 15271m | -6.9m/s | -58.8°C | 5.4% | 123.3hPa | 2.5V | 08:05:34 | 02:20:19 | 00:00:00 | |
| DL1NUX | 2026-09-05 12:49:20 | 48.41353 | 10.70578 | 121° | 100km/h | 15277m | -6m/s | -58.9°C | 5.5% | 123.1hPa | 2.5V | 08:05:35 | 02:20:18 | 00:00:00 | |
| DO3MHA-12 | 2026-09-05 12:49:19 | 48.41353 | 10.70578 | 122° | 95km/h | 15278m | -5.9m/s | -58.8°C | 5.5% | 123.0hPa | 2.5V | 08:05:00 | 02:20:18 | 00:00:00 | |
| DB0UT-7 | 2026-09-05 12:49:17 | 48.41377 | 10.70518 | 119° | 100km/h | 15289m | -5.9m/s | -58.9°C | 5.5% | 122.8hPa | 2.6V | 00:00:00 | 02:20:16 | 00:00:00 | |
| DM0DOS-11 | 2026-09-05 12:49:15 | 48.41410 | 10.70274 | 102° | 115km/h | 15327m | -6.7m/s | -59.1°C | 5.5% | 122.1hPa | 2.6V | 08:05:44 | 02:20:09 | 00:00:00 | |
| DO3MHA-11 | 2026-09-05 12:49:15 | 48.41392 | 10.70459 | 106° | 108km/h | 15299m | -5.7m/s | -58.9°C | 5.5% | 122.6hPa | 2.5V | 00:00:00 | 02:20:14 | 00:00:00 | |
| DJ8HS-15 | 2026-09-05 12:49:13 | 48.41401 | 10.70395 | 97° | 102km/h | 15309m | -5.7m/s | -59.0°C | 5.5% | 122.5hPa | 2.5V | 08:05:00 | 02:20:12 | 00:00:00 | |
| DL1ZP-14 | 2026-09-05 12:49:12 | 48.41403 | 10.70357 | 94° | 104km/h | 15314m | -6.7m/s | -59.1°C | 2.1% | 122.4hPa | 2.5V | 00:00:00 | 00:00:00 | 00:00:00 | |
| DL1NUX | 2026-09-05 12:49:10 | 48.41417 | 10.70231 | 104° | 120km/h | 15333m | -6.2m/s | -59.1°C | 5.6% | 122hPa | 2.5V | 08:05:45 | 02:20:08 | 00:00:00 | |
| PG1ADW-2 | 2026-09-05 12:49:10 | 48.41410 | 10.70274 | 103° | 104km/h | 15327m | -6.7m/s | -59.1°C | 5.5% | 122.1hPa | 2.5V | 00:00:00 | 00:00:00 | 00:00:00 | |
| SO1NDE-10 | 2026-09-05 12:49:09 | 48.41417 | 10.70231 | 105° | 99km/h | 15333m | -6.2m/s | -59.0°C | 5.6% | 122.0hPa | 2.5V | 08:05:00 | 02:20:08 | 00:00:00 | |
| NBG1-10 | 2026-09-05 12:49:07 | 48.41436 | 10.70143 | 111° | 97km/h | 15345m | -6.4m/s | -58.9°C | 5.6% | 121.7hPa | 2.5V | 00:00:00 | 02:20:06 | 00:00:00 | |
| OE5DRO-10 | 2026-09-05 12:49:06 | 48.41447 | 10.70101 | 115° | 99km/h | 15352m | -6.6m/s | -58.8°C | 5.6% | 121.7hPa | 2.6V | 00:00:00 | 00:00:00 | 00:00:00 | |
| DM0DOS-11 | 2026-09-05 12:49:05 | 48.41511 | 10.69910 | 105° | 77km/h | 15388m | -6m/s | -58.6°C | 5.4% | 121hPa | 2.6V | 08:05:54 | 02:19:59 | 00:00:00 | |
| DO3MHA-11 | 2026-09-05 12:49:05 | 48.41460 | 10.70062 | 119° | 89km/h | 15358m | -6.3m/s | -58.7°C | 5.5% | 121.6hPa | 2.5V | 00:00:00 | 02:20:04 | 00:00:00 | |
| DL9SK-14 | 2026-09-05 12:49:04 | 48.41485 | 10.69995 | 120° | 89km/h | 15370m | -5.9m/s | -58.6°C | 2.1% | 121.4hPa | 2.5V | 00:00:00 | 00:00:00 | 00:00:00 | |
| DB0NH | 2026-09-05 12:49:02 | 48.41496 | 10.69966 | 119° | 95km/h | 15376m | -6.2m/s | -58.5°C | 5.5% | 121.3hPa | 2.5V | 00:00:00 | 02:20:01 | 00:00:00 | |
| DL1NUX | 2026-09-05 12:49:00 | 48.41515 | 10.69882 | 100° | 77km/h | 15394m | -6.3m/s | -58.5°C | 5.3% | 121hPa | 2.5V | 08:05:55 | 02:19:58 | 00:00:00 | |
| DB0ND-19 | 2026-09-05 12:48:57 | 48.41523 | 10.69781 | 93° | 100km/h | 15411m | -6.3m/s | -58.6°C | 2.1% | 120.6hPa | 2.6V | 00:00:00 | 00:00:00 | 00:00:00 | |
| DM0DOS-11 | 2026-09-05 12:48:55 | 48.41570 | 10.69542 | 117° | 106km/h | 15445m | -6.7m/s | -58.4°C | 5.3% | 120hPa | 2.6V | 08:06:04 | 02:19:49 | 00:00:00 | |
| DO3MHA-11 | 2026-09-05 12:48:55 | 48.41526 | 10.69742 | 98° | 100km/h | 15417m | -6.1m/s | -58.5°C | 5.4% | 120.5hPa | 2.6V | 00:00:00 | 02:19:54 | 00:00:00 | |
| DJ8HS-15 | 2026-09-05 12:48:53 | 48.41538 | 10.69659 | 108° | 97km/h | 15428m | -4.7m/s | -58.5°C | 5.3% | 120.3hPa | 2.6V | 00:00:00 | 02:19:52 | 00:00:00 | |
| DL1NUX | 2026-09-05 12:48:50 | 48.41582 | 10.69508 | 119° | 97km/h | 15452m | -5.7m/s | -58.2°C | 5.2% | 119.9hPa | 2.6V | 08:06:05 | 02:19:48 | 00:00:00 | |
| DO3MHA-12 | 2026-09-05 12:48:49 | 48.41582 | 10.69508 | 120° | 86km/h | 15452m | -5.7m/s | -58.2°C | 5.2% | 119.9hPa | 2.6V | 00:00:00 | 02:19:48 | 00:00:00 | |
| OE5DRO-10 | 2026-09-05 12:48:48 | 48.41603 | 10.69449 | 120° | 88km/h | 15463m | -6.3m/s | -58.1°C | 5.2% | 119.6hPa | 2.5V | 00:00:00 | 00:00:00 | 00:00:00 | |
| DB0UT-7 | 2026-09-05 12:48:47 | 48.41603 | 10.69449 | 120° | 91km/h | 15463m | -6.3m/s | -58.1°C | 5.2% | 119.6hPa | 2.6V | 00:00:00 | 00:00:00 | 00:00:00 | |
| DO3MHA-11 | 2026-09-05 12:48:45 | 48.41618 | 10.69396 | 107° | 95km/h | 15474m | -5.1m/s | -58.1°C | 5.2% | 119.4hPa | 2.6V | 00:00:00 | 02:19:44 | 00:00:00 | |
| DM0DOS-11 | 2026-09-05 12:48:44 | 48.41640 | 10.69197 | 105° | 111km/h | 15504m | -5.8m/s | -58.3°C | 5.1% | 118.8hPa | 2.6V | 08:06:15 | 02:19:38 | 00:00:00 | |
| DL1ZP-14 | 2026-09-05 12:48:41 | 48.41630 | 10.69275 | 97° | 97km/h | 15495m | -5.1m/s | -58.2°C | 1.9% | 119.0hPa | 2.5V | 00:00:00 | 00:00:00 | 00:00:00 | |
| DL1NUX | 2026-09-05 12:48:40 | 48.41648 | 10.69156 | 106° | 113km/h | 15510m | -6.5m/s | -58.4°C | 5.1% | 118.7hPa | 2.5V | 08:06:16 | 02:19:37 | 00:00:00 | |
| DK7TD | 2026-09-05 12:48:37 | 48.41657 | 10.69116 | 112° | 111km/h | 15516m | -6.5m/s | -58.4°C | 1.6% | 118.6hPa | 2.5V | 08:07:20 | 02:19:36 | 00:00:00 | |
| DL6DJ-15 | 2026-09-05 12:48:36 | 48.41669 | 10.69080 | 118° | 102km/h | 15523m | -5.4m/s | -58.4°C | 1.9% | 118.5hPa | 2.5V | 00:00:00 | 00:00:00 | 00:00:00 | |
| DK5PH-5 | 2026-09-05 12:48:35 | 48.41681 | 10.69046 | 122° | 88km/h | 15528m | -6.0m/s | -58.4°C | 5.2% | 118.3hPa | 2.5V | 00:00:00 | 02:19:34 | 00:00:00 | |
| NBG1-10 | 2026-09-05 12:48:34 | 48.41694 | 10.69016 | 124° | 84km/h | 15534m | -6.8m/s | -58.5°C | 5.2% | 118.2hPa | 2.5V | 00:00:00 | 02:19:33 | 00:00:00 | |
| DL9SK-14 | 2026-09-05 12:48:33 | 48.41717 | 10.68962 | 120° | 75km/h | 15546m | -5.6m/s | -58.6°C | 2.0% | 118.0hPa | 2.5V | 00:00:00 | 00:00:00 | 00:00:00 | |
| OE5DXL-15 | 2026-09-05 12:48:32 | 48.41717 | 10.68962 | 121° | 86km/h | 15546m | -5.6m/s | -58.5°C | 5.3% | 118.0hPa | 2.5V | 00:00:00 | 00:00:00 | 00:00:00 | |
| DL1NUX | 2026-09-05 12:48:30 | 48.41741 | 10.68859 | 99° | 82km/h | 15568m | -5.3m/s | -58.7°C | 5.2% | 117.7hPa | 2.5V | 08:06:26 | 02:19:27 | 00:00:00 | |
| PG1ADW-2 | 2026-09-05 12:48:30 | 48.41732 | 10.68913 | 111° | 80km/h | 15558m | -5.9m/s | -58.6°C | 5.3% | 117.8hPa | 2.6V | 00:00:00 | 02:19:29 | 00:00:00 | |
| DO3MHA-12 | 2026-09-05 12:48:29 | 48.41737 | 10.68888 | 104° | 97km/h | 15564m | -5.4m/s | -58.6°C | 5.2% | 117.7hPa | 2.6V | 00:00:00 | 02:19:28 | 00:00:00 | |
| DM0DOS-11 | 2026-09-05 12:48:28 | 48.41749 | 10.68791 | 101° | 99km/h | 15579m | -5.2m/s | -58.8°C | 5.2% | 117.5hPa | 2.6V | 08:06:28 | 02:19:25 | 00:00:00 | |
| OE5DRO-10 | 2026-09-05 12:48:28 | 48.41741 | 10.68859 | 100° | 88km/h | 15569m | -5.3m/s | -58.7°C | 5.2% | 117.6hPa | 2.5V | 00:00:00 | 00:00:00 | 00:00:00 | |
| DB0ND-19 | 2026-09-05 12:48:26 | 48.41755 | 10.68754 | 106° | 104km/h | 15584m | -5.9m/s | -58.9°C | 1.9% | 117.4hPa | 2.5V | 00:00:00 | 00:00:00 | 00:00:00 | |
| DO3MHA-11 | 2026-09-05 12:48:25 | 48.41755 | 10.68754 | 107° | 89km/h | 15584m | -5.8m/s | -58.8°C | 5.2% | 117.3hPa | 2.5V | 08:06:00 | 02:19:24 | 00:00:00 | |
| DL1NUX | 2026-09-05 12:48:20 | 48.41835 | 10.68527 | 124° | 73km/h | 15626m | -5.6m/s | -59.1°C | 5.4% | 116.5hPa | 2.5V | 08:06:36 | 02:19:17 | 00:00:00 | |
| DO3MHA-12 | 2026-09-05 12:48:19 | 48.41823 | 10.68551 | 127° | 78km/h | 15621m | -6.1m/s | -59.0°C | 5.3% | 116.6hPa | 2.5V | 00:00:00 | 02:19:18 | 00:00:00 | |
| DM0DOS-11 | 2026-09-05 12:48:18 | 48.41861 | 10.68435 | 99° | 68km/h | 15650m | -5.9m/s | -59°C | 5.3% | 116.2hPa | 2.5V | 08:06:40 | 02:19:13 | 00:00:00 | |
| DK7TD | 2026-09-05 12:48:11 | 48.41872 | 10.68344 | 106° | 95km/h | 15666m | -5.4m/s | -59.1°C | 1.6% | 115.8hPa | 2.6V | 08:07:20 | 02:19:10 | 00:00:00 | |
| PG1ADW-2 | 2026-09-05 12:48:10 | 48.41879 | 10.68309 | 109° | 82km/h | 15672m | -5.3m/s | -59.1°C | 5.3% | 115.7hPa | 2.5V | 00:00:00 | 00:00:00 | 00:00:00 | |
| DO3MHA-12 | 2026-09-05 12:48:09 | 48.41888 | 10.68273 | 114° | 78km/h | 15677m | -5.2m/s | -59.1°C | 5.3% | 115.6hPa | 2.5V | 00:00:00 | 02:19:08 | 00:00:00 | |
| DF7PN | 2026-09-05 12:48:08 | 48.41899 | 10.68239 | 116° | 100km/h | 15683m | -5.6m/s | -59.2°C | 2.0% | 115.6hPa | 2.5V | 00:00:00 | 00:00:00 | 00:00:00 | |
| DM0DOS-11 | 2026-09-05 12:48:07 | 48.41967 | 10.68084 | 118° | 60km/h | 15719m | -5.6m/s | -59.4°C | 5.3% | 114.9hPa | 2.5V | 08:06:52 | 02:19:01 | 00:00:00 | |
| DK7TD | 2026-09-05 12:48:00 | 48.41978 | 10.68043 | 106° | 60km/h | 15731m | -6m/s | -59.5°C | 1.6% | 114.7hPa | 2.6V | 08:07:20 | 02:18:59 | 00:00:00 | |
| DL1NUX | 2026-09-05 12:48:00 | 48.41994 | 10.67901 | 105° | 91km/h | 15760m | -5m/s | -59.5°C | 5.4% | 114.2hPa | 2.5V | 08:06:59 | 02:18:54 | 00:00:00 | |
| DO3MHA-12 | 2026-09-05 12:47:59 | 48.41981 | 10.68019 | 98° | 82km/h | 15737m | -6.3m/s | -59.4°C | 5.3% | 114.5hPa | 2.5V | 00:00:00 | 02:18:58 | 00:00:00 | |
| DM0DOS-11 | 2026-09-05 12:47:56 | 48.42021 | 10.67806 | 121° | 86km/h | 15776m | -4.7m/s | -59.6°C | 5.5% | 113.9hPa | 2.5V | 08:07:02 | 02:18:51 | 00:00:00 | |
| DK7TD | 2026-09-05 12:47:49 | 48.42051 | 10.67735 | 122° | 60km/h | 15790m | -5.3m/s | -59.6°C | 1.6% | 113.6hPa | 2.6V | 08:07:20 | 02:18:48 | 00:00:00 | |
| DO3MHA-12 | 2026-09-05 12:47:49 | 48.42051 | 10.67735 | 123° | 66km/h | 15790m | -5.3m/s | -59.5°C | 5.6% | 113.5hPa | 2.6V | 08:07:00 | 02:18:48 | 00:00:00 | |
| DB0UT-7 | 2026-09-05 12:47:47 | 48.42063 | 10.67697 | 109° | 82km/h | 15802m | -6.1m/s | -59.5°C | 5.5% | 113.3hPa | 2.5V | 00:00:00 | 00:00:00 | 00:00:00 | |
| DM0DOS-11 | 2026-09-05 12:47:46 | 48.42067 | 10.67580 | 90° | 77km/h | 15832m | -7m/s | -59.6°C | 5.2% | 112.8hPa | 2.5V | 08:07:12 | 02:18:41 | 00:00:00 | |
| DL1NUX | 2026-09-05 12:47:46 | 48.42068 | 10.67656 | 93° | 55km/h | 15813m | -6.3m/s | -59.6°C | 5.4% | 113.2hPa | 2.5V | 08:07:09 | 02:18:44 | 00:00:00 | |
| DK7TD | 2026-09-05 12:47:39 | 48.42076 | 10.67448 | 105° | 97km/h | 15857m | -6.1m/s | -59.5°C | 1.4% | 112.4hPa | 2.6V | 08:07:20 | 02:18:37 | 00:00:00 | |
| SO1NDE-10 | 2026-09-05 12:47:39 | 48.42076 | 10.67447 | 105° | 86km/h | 15857m | -6.0m/s | -59.5°C | 5.2% | 112.3hPa | 2.6V | 00:00:00 | 02:18:37 | 00:00:00 | |
| DF7PN | 2026-09-05 12:47:37 | 48.42082 | 10.67412 | 107° | 95km/h | 15863m | -6.5m/s | -59.5°C | 1.8% | 112.3hPa | 2.5V | 00:00:00 | 00:00:00 | 00:00:00 | |
| DM0DOS-11 | 2026-09-05 12:47:36 | 48.42129 | 10.67272 | 118° | 66km/h | 15893m | -6.5m/s | -59.4°C | 5.6% | 111.8hPa | 2.5V | 08:07:22 | 02:18:31 | 00:00:00 | |
| DL1NUX | 2026-09-05 12:47:36 | 48.42100 | 10.67348 | 117° | 86km/h | 15874m | -5.7m/s | -59.5°C | 5.4% | 112hPa | 2.5V | 08:07:19 | 02:18:34 | 00:00:00 | |
| DK5PH-5 | 2026-09-05 12:47:35 | 48.42100 | 10.67348 | 118° | 86km/h | 15874m | -5.6m/s | -59.4°C | 5.4% | 112.0hPa | 2.5V | 00:00:00 | 02:18:34 | 00:00:00 | |
| DL6DJ-15 | 2026-09-05 12:47:34 | 48.42110 | 10.67320 | 120° | 80km/h | 15880m | -6.7m/s | -59.4°C | 1.9% | 112.0hPa | 2.5V | 00:00:00 | 00:00:00 | 00:00:00 | |
| DJ8HS-15 | 2026-09-05 12:47:33 | 48.42120 | 10.67295 | 121° | 82km/h | 15887m | -6.7m/s | -59.4°C | 5.5% | 111.8hPa | 2.5V | 00:00:00 | 02:18:32 | 00:00:00 | |
| DB0NH | 2026-09-05 12:47:32 | 48.42129 | 10.67272 | 119° | 88km/h | 15893m | -6.4m/s | -59.4°C | 5.6% | 111.7hPa | 2.5V | 00:00:00 | 02:18:31 | 00:00:00 | |
| DL9SK-14 | 2026-09-05 12:47:31 | 48.42140 | 10.67228 | 101° | 58km/h | 15906m | -5.8m/s | -59.5°C | 1.9% | 111.6hPa | 2.5V | 00:00:00 | 00:00:00 | 00:00:00 | |
| DL1NUX | 2026-09-05 12:47:30 | 48.42143 | 10.67079 | 94° | 97km/h | 15936m | -7.1m/s | -59.6°C | 5.2% | 111hPa | 2.5V | 08:07:29 | 02:18:24 | 00:00:00 | |
| DK7TD | 2026-09-05 12:47:27 | 48.42143 | 10.67148 | 90° | 86km/h | 15922m | -6.3m/s | -59.5°C | 1.5% | 111.3hPa | 2.5V | 08:08:11 | 02:18:26 | 00:00:00 | |
| DM0DOS-11 | 2026-09-05 12:47:26 | 48.42157 | 10.66964 | 106° | 104km/h | 15956m | -6m/s | -59.8°C | 5.2% | 110.7hPa | 2.5V | 08:07:32 | 02:18:21 | 00:00:00 | |
| DO3MHA-11 | 2026-09-05 12:47:25 | 48.42143 | 10.67079 | 95° | 95km/h | 15936m | -7.1m/s | -59.6°C | 5.2% | 111.0hPa | 2.5V | 00:00:00 | 02:18:24 | 00:00:00 | |
| DO9HM | 2026-09-05 12:47:24 | 48.42146 | 10.67042 | 100° | 102km/h | 15943m | -6.5m/s | -59.7°C | 1.8% | 110.9hPa | 2.5V | 00:00:00 | 00:00:00 | 00:00:00 | |
| SONCRA | 2026-09-05 12:47:23 | 48.42151 | 10.67003 | 101° | 104km/h | 15949m | -7.5m/s | -59.7°C | 1.7% | 110.8hPa | 2.5V | 00:00:00 | 00:00:00 | 00:00:00 | |
| DL1NUX | 2026-09-05 12:47:20 | 48.42223 | 10.66747 | 109° | 68km/h | 15998m | -6.2m/s | -59.2°C | 5.4% | 110hPa | 2.5V | 08:07:39 | 02:18:14 | 00:00:00 | |
| DK7TD | 2026-09-05 12:47:17 | 48.42206 | 10.66797 | 120° | 78km/h | 15985m | -6.1m/s | -59.4°C | 1.4% | 110.2hPa | 2.5V | 08:08:11 | 02:18:16 | 00:00:00 | |
| DB0UT-7 | 2026-09-05 12:47:17 | 48.42206 | 10.66797 | 120° | 86km/h | 15985m | -6.0m/s | -59.4°C | 5.4% | 110.1hPa | 2.6V | 00:00:00 | 02:18:16 | 00:00:00 | |
| DO3MHA-11 | 2026-09-05 12:47:15 | 48.42223 | 10.66747 | 110° | 89km/h | 15998m | -6.1m/s | -59.2°C | 5.4% | 110.0hPa | 2.6V | 00:00:00 | 02:18:14 | 00:00:00 | |
| DJ8HS-15 | 2026-09-05 12:47:13 | 48.42230 | 10.66695 | 96° | 84km/h | 16011m | -6.2m/s | -59.1°C | 5.4% | 109.7hPa | 2.6V | 00:00:00 | 02:18:12 | 00:00:00 | |
| OE5DRO-10 | 2026-09-05 12:47:12 | 48.42232 | 10.66666 | 94° | 86km/h | 16018m | -6.6m/s | -59.0°C | 5.3% | 109.6hPa | 2.5V | 00:00:00 | 00:00:00 | 00:00:00 | |
| DL1NUX | 2026-09-05 12:47:10 | 48.42279 | 10.66412 | 119° | 99km/h | 16062m | -7.1m/s | -59.1°C | 5.3% | 109hPa | 2.5V | 08:07:49 | 02:18:04 | 00:00:00 | |
| PG1ADW-2 | 2026-09-05 12:47:10 | 48.42236 | 10.66596 | 97° | 88km/h | 16031m | -5.9m/s | -59.0°C | 5.3% | 109.5hPa | 2.5V | 00:00:00 | 02:18:09 | 00:00:00 | |
| DO3MHA-12 | 2026-09-05 12:47:09 | 48.42240 | 10.66558 | 102° | 91km/h | 16037m | -5.8m/s | -59.1°C | 5.3% | 109.4hPa | 2.5V | 00:00:00 | 02:18:08 | 00:00:00 | |
| DL1ZP-14 | 2026-09-05 12:47:08 | 48.42256 | 10.66481 | 113° | 104km/h | 16049m | -5.5m/s | -59.2°C | 1.8% | 109.2hPa | 2.5V | 00:00:00 | 00:00:00 | 00:00:00 | |
| DM0DOS-11 | 2026-09-05 12:47:07 | 48.42315 | 10.66328 | 124° | 78km/h | 16083m | -6.9m/s | -59.2°C | 5.4% | 108.6hPa | 2.5V | 08:07:52 | 02:18:01 | 00:00:00 | |
| DK7TD | 2026-09-05 12:47:07 | 48.42256 | 10.66481 | 113° | 104km/h | 16049m | -5.5m/s | -59.2°C | 1.3% | 109.2hPa | 2.5V | 08:08:11 | 02:18:06 | 00:00:00 | |
| DF7PN | 2026-09-05 12:47:06 | 48.42279 | 10.66412 | 119° | 99km/h | 16062m | -7.1m/s | -59.2°C | 1.8% | 109.0hPa | 2.6V | 00:00:00 | 00:00:00 | 00:00:00 | |
| DO3MHA-11 | 2026-09-05 12:47:05 | 48.42279 | 10.66412 | 120° | 75km/h | 16062m | -7.0m/s | -59.1°C | 5.3% | 108.9hPa | 2.6V | 00:00:00 | 02:18:04 | 00:00:00 | |
| DF1GD-15 | 2026-09-05 12:47:04 | 48.42279 | 10.66412 | 120° | 99km/h | 16062m | -7.1m/s | -59.2°C | 1.8% | 109.0hPa | 2.6V | 08:08:00 | 00:00:00 | 00:00:00 | |
| DL6DJ-15 | 2026-09-05 12:47:03 | 48.42304 | 10.66353 | 124° | 82km/h | 16076m | -6.8m/s | -59.2°C | 1.8% | 108.8hPa | 2.6V | 00:00:00 | 00:00:00 | 00:00:00 | |
| DB0NH | 2026-09-05 12:47:02 | 48.42315 | 10.66328 | 125° | 84km/h | 16083m | -6.9m/s | -59.1°C | 5.4% | 108.6hPa | 2.6V | 00:00:00 | 02:18:01 | 00:00:00 | |
| DO9HM | 2026-09-05 12:47:01 | 48.42315 | 10.66328 | 125° | 78km/h | 16083m | -6.9m/s | -59.2°C | 1.9% | 108.6hPa | 2.6V | 00:00:00 | 00:00:00 | 00:00:00 | |
| DL9SK-14 | 2026-09-05 12:47:00 | 48.42342 | 10.66261 | 112° | 60km/h | 16104m | -5.8m/s | -58.9°C | 1.8% | 108.3hPa | 2.6V | 00:00:00 | 00:00:00 | 00:00:00 | |
| DL1NUX | 2026-09-05 12:46:59 | 48.42357 | 10.66128 | 97° | 91km/h | 16135m | -6m/s | -58.4°C | 5.1% | 107.8hPa | 2.6V | 08:08:00 | 02:17:53 | 00:00:00 | |
| DK7TD | 2026-09-05 12:46:56 | 48.42352 | 10.66190 | 97° | 75km/h | 16123m | -5.7m/s | -58.7°C | 1.3% | 108hPa | 2.5V | 08:08:11 | 02:17:55 | 00:00:00 | |
| DM0DOS-11 | 2026-09-05 12:46:56 | 48.42367 | 10.66056 | 105° | 99km/h | 16148m | -6.2m/s | -58.2°C | 5% | 107.6hPa | 2.5V | 08:08:02 | 02:17:51 | 00:00:00 | |
| DO3MHA-11 | 2026-09-05 12:46:55 | 48.42355 | 10.66161 | 96° | 93km/h | 16129m | -5.9m/s | -58.5°C | 5.2% | 107.9hPa | 2.5V | 08:07:00 | 02:17:54 | 00:00:00 | |
| DJ8HS-15 | 2026-09-05 12:46:53 | 48.42361 | 10.66092 | 102° | 88km/h | 16142m | -5.8m/s | -58.3°C | 5.0% | 107.7hPa | 2.5V | 00:00:00 | 02:17:52 | 00:00:00 | |
| PG1ADW-2 | 2026-09-05 12:46:50 | 48.42385 | 10.65983 | 114° | 84km/h | 16161m | -6.7m/s | -58.0°C | 4.8% | 107.3hPa | 2.5V | 00:00:00 | 00:00:00 | 00:00:00 | |
| DO3MHA-12 | 2026-09-05 12:46:49 | 48.42396 | 10.65949 | 119° | 77km/h | 16168m | -6.1m/s | -57.8°C | 4.8% | 107.2hPa | 2.6V | 00:00:00 | 02:17:48 | 00:00:00 | |
| DL1NUX | 2026-09-05 12:46:48 | 48.42458 | 10.65819 | 124° | 66km/h | 16199m | -6.2m/s | -57.5°C | 4.9% | 106.8hPa | 2.6V | 08:08:10 | 02:17:43 | 00:00:00 | |
| DB0UT-7 | 2026-09-05 12:46:47 | 48.42422 | 10.65889 | 126° | 78km/h | 16180m | -5.7m/s | -57.7°C | 4.8% | 107.1hPa | 2.5V | 00:00:00 | 00:00:00 | 00:00:00 | |
| DM0DOS-11 | 2026-09-05 12:46:46 | 48.42472 | 10.65777 | 109° | 62km/h | 16211m | -5.7m/s | -57.5°C | 4.9% | 106.6hPa | 2.5V | 08:08:12 | 02:17:41 | 00:00:00 | |
| DK7TD | 2026-09-05 12:46:45 | 48.42447 | 10.65840 | 128° | 73km/h | 16193m | -6.3m/s | -57.5°C | 1.1% | 106.9hPa | 2.5V | 08:08:11 | 02:17:44 | 00:00:00 | |
| DO3MHA-11 | 2026-09-05 12:46:45 | 48.42447 | 10.65840 | 129° | 78km/h | 16193m | -6.3m/s | -57.5°C | 4.8% | 106.8hPa | 2.6V | 00:00:00 | 02:17:44 | 00:00:00 | |
| DF1GD-15 | 2026-09-05 12:46:44 | 48.42447 | 10.65840 | 129° | 73km/h | 16193m | -6.3m/s | -57.5°C | 1.6% | 106.9hPa | 2.6V | 08:08:00 | 00:00:00 | 00:00:00 | |
| DF3TZ-5 | 2026-09-05 12:46:43 | 48.42466 | 10.65798 | 117° | 60km/h | 16205m | -6.0m/s | -57.6°C | 1.6% | 106.7hPa | 2.6V | 00:00:00 | 00:00:00 | 00:00:00 | |
| DO9HM | 2026-09-05 12:46:41 | 48.42472 | 10.65777 | 110° | 62km/h | 16211m | -5.7m/s | -57.5°C | 1.7% | 106.6hPa | 2.6V | 00:00:00 | 00:00:00 | 00:00:00 | |
| DO3MHA-12 | 2026-09-05 12:46:39 | 48.42483 | 10.65695 | 101° | 88km/h | 16229m | -5.8m/s | -57.5°C | 4.7% | 106.3hPa | 2.6V | 00:00:00 | 02:17:38 | 00:00:00 | |
| DL1NUX | 2026-09-05 12:46:38 | 48.42527 | 10.65526 | 123° | 95km/h | 16260m | -6m/s | -57.6°C | 4.7% | 105.7hPa | 2.6V | 08:08:20 | 02:17:33 | 00:00:00 | |
| SO1NDE-10 | 2026-09-05 12:46:38 | 48.42488 | 10.65662 | 103° | 78km/h | 16235m | -5.7m/s | -57.5°C | 4.8% | 106.2hPa | 2.5V | 00:00:00 | 02:17:37 | 00:00:00 | |
| DL1ZP-14 | 2026-09-05 12:46:37 | 48.42503 | 10.65592 | 113° | 100km/h | 16247m | -6.4m/s | -57.6°C | 1.6% | 106.0hPa | 2.5V | 00:00:00 | 00:00:00 | 00:00:00 | |
| DM0DOS-11 | 2026-09-05 12:46:36 | 48.42554 | 10.65474 | 131° | 80km/h | 16272m | -5.8m/s | -57.6°C | 4.7% | 105.6hPa | 2.5V | 08:08:22 | 02:17:31 | 00:00:00 | |
| DK7TD | 2026-09-05 12:46:34 | 48.42527 | 10.65526 | 124° | 95km/h | 16260m | -6m/s | -57.6°C | 1.1% | 105.7hPa | 2.6V | 08:09:02 | 02:17:33 | 00:00:00 | |
| OE5DRO-10 | 2026-09-05 12:46:34 | 48.42527 | 10.65526 | 124° | 73km/h | 16260m | -5.9m/s | -57.5°C | 4.7% | 105.7hPa | 2.5V | 00:00:00 | 00:00:00 | 00:00:00 | |
| DJ8HS-15 | 2026-09-05 12:46:33 | 48.42540 | 10.65499 | 129° | 69km/h | 16266m | -5.5m/s | -57.6°C | 4.7% | 105.6hPa | 2.5V | 00:00:00 | 02:17:32 | 00:00:00 | |
| OE5DXL-15 | 2026-09-05 12:46:32 | 48.42554 | 10.65474 | 132° | 69km/h | 16272m | -5.8m/s | -57.6°C | 4.7% | 105.5hPa | 2.5V | 08:08:00 | 00:00:00 | 00:00:00 | |
| PG1ADW-2 | 2026-09-05 12:46:30 | 48.42578 | 10.65433 | 130° | 66km/h | 16285m | -6.5m/s | -57.5°C | 4.7% | 105.3hPa | 2.6V | 00:00:00 | 00:00:00 | 00:00:00 | |
| DO3MHA-12 | 2026-09-05 12:46:29 | 48.42587 | 10.65415 | 123° | 75km/h | 16292m | -6.6m/s | -57.5°C | 4.8% | 105.2hPa | 2.6V | 00:00:00 | 02:17:28 | 00:00:00 | |
| DL1NUX | 2026-09-05 12:46:28 | 48.42610 | 10.65298 | 100° | 82km/h | 16323m | -6m/s | -57.4°C | 4.7% | 104.7hPa | 2.6V | 08:08:30 | 02:17:23 | 00:00:00 | |
| DM0DOS-11 | 2026-09-05 12:46:25 | 48.42623 | 10.65234 | 113° | 91km/h | 16335m | -5m/s | -57.4°C | 4.8% | 104.5hPa | 2.5V | 08:08:32 | 02:17:21 | 00:00:00 | |
| DK7TD | 2026-09-05 12:46:24 | 48.42610 | 10.65298 | 101° | 82km/h | 16323m | -6m/s | -57.4°C | 1% | 104.7hPa | 2.6V | 08:09:02 | 02:17:23 | 00:00:00 | |
| DF1GD-15 | 2026-09-05 12:46:23 | 48.42610 | 10.65298 | 102° | 82km/h | 16323m | -6.0m/s | -57.4°C | 1.6% | 104.7hPa | 2.6V | 08:09:00 | 00:00:00 | 00:00:00 | |
| DB0ND-19 | 2026-09-05 12:46:22 | 48.42633 | 10.65203 | 117° | 91km/h | 16340m | -5.8m/s | -57.5°C | 1.6% | 104.5hPa | 2.6V | 00:00:00 | 00:00:00 | 00:00:00 | |
| SONCRA | 2026-09-05 12:46:21 | 48.42633 | 10.65203 | 117° | 91km/h | 16340m | -5.8m/s | -57.5°C | 1.6% | 104.5hPa | 2.6V | 00:00:00 | 00:00:00 | 00:00:00 | |
| DO3MHA-12 | 2026-09-05 12:46:19 | 48.42657 | 10.65149 | 130° | 58km/h | 16351m | -5.1m/s | -57.4°C | 4.9% | 104.2hPa | 2.6V | 08:08:00 | 02:17:18 | 00:00:00 | |
| DL1NUX | 2026-09-05 12:46:18 | 48.42699 | 10.65062 | 107° | 46km/h | 16381m | -7m/s | -57.4°C | 4.8% | 103.7hPa | 2.6V | 08:08:40 | 02:17:13 | 00:00:00 | |
| DB0UT-7 | 2026-09-05 12:46:17 | 48.42680 | 10.65110 | 131° | 68km/h | 16362m | -6.0m/s | -57.4°C | 4.9% | 104.0hPa | 2.5V | 00:00:00 | 02:17:16 | 00:00:00 | |
| DO9HM | 2026-09-05 12:46:16 | 48.42688 | 10.65094 | 127° | 51km/h | 16368m | -6.3m/s | -57.4°C | 1.6% | 103.9hPa | 2.5V | 00:00:00 | 00:00:00 | 00:00:00 | |
| DM0DOS-11 | 2026-09-05 12:46:15 | 48.42703 | 10.65026 | 92° | 53km/h | 16395m | -6.5m/s | -57.5°C | 4.7% | 103.5hPa | 2.5V | 08:08:42 | 02:17:11 | 00:00:00 | |
| DK7TD | 2026-09-05 12:46:14 | 48.42699 | 10.65062 | 107° | 46km/h | 16381m | -7m/s | -57.4°C | 1.1% | 103.7hPa | 2.6V | 08:09:02 | 02:17:13 | 00:00:00 | |
| DJ8HS-15 | 2026-09-05 12:46:13 | 48.42702 | 10.65045 | 99° | 68km/h | 16388m | -6.9m/s | -57.4°C | 4.8% | 103.6hPa | 2.6V | 08:08:00 | 02:17:12 | 00:00:00 | |
| DF3TZ-5 | 2026-09-05 12:46:12 | 48.42703 | 10.65026 | 92° | 51km/h | 16395m | -6.5m/s | -57.5°C | 1.5% | 103.5hPa | 2.6V | 00:00:00 | 00:00:00 | 00:00:00 | |
| PG1ADW-2 | 2026-09-05 12:46:10 | 48.42704 | 10.64980 | 93° | 71km/h | 16407m | -5.3m/s | -57.3°C | 4.7% | 103.3hPa | 2.6V | 00:00:00 | 00:00:00 | 00:00:00 | |
| DO3MHA-12 | 2026-09-05 12:46:09 | 48.42705 | 10.64952 | 94° | 71km/h | 16413m | -5.8m/s | -57.3°C | 4.6% | 103.2hPa | 2.6V | 00:00:00 | 02:17:08 | 00:00:00 | |
| SO1NDE-10 | 2026-09-05 12:46:08 | 48.42707 | 10.64921 | 98° | 71km/h | 16419m | -6.0m/s | -57.2°C | 4.6% | 103.1hPa | 2.6V | 00:00:00 | 02:17:07 | 00:00:00 | |
| DL1NUX | 2026-09-05 12:46:07 | 48.42756 | 10.64758 | 126° | 57km/h | 16454m | -5.6m/s | -56.8°C | 4.6% | 102.5hPa | 2.5V | 08:08:52 | 02:17:01 | 00:00:00 | |
| DK7TD | 2026-09-05 12:46:03 | 48.42747 | 10.64777 | 126° | 68km/h | 16449m | -5.2m/s | -56.8°C | 1% | 102.6hPa | 2.6V | 08:09:02 | 02:17:02 | 00:00:00 | |
| OE5DXL-15 | 2026-09-05 12:46:02 | 48.42756 | 10.64758 | 127° | 68km/h | 16454m | -5.6m/s | -56.8°C | 4.6% | 102.5hPa | 2.5V | 00:00:00 | 00:00:00 | 00:00:00 | |
| DL6DJ-15 | 2026-09-05 12:46:01 | 48.42769 | 10.64727 | 110° | 42km/h | 16466m | -6.2m/s | -56.8°C | 1.5% | 102.4hPa | 2.5V | 00:00:00 | 00:00:00 | 00:00:00 | |
| DO3MHA-12 | 2026-09-05 12:45:59 | 48.42771 | 10.64711 | 97° | 75km/h | 16472m | -6.3m/s | -56.7°C | 4.6% | 102.2hPa | 2.5V | 00:00:00 | 02:16:58 | 00:00:00 | |
| DL1NUX | 2026-09-05 12:45:57 | 48.42786 | 10.64522 | 110° | 89km/h | 16517m | -6.8m/s | -56.9°C | 4.5% | 101.5hPa | 2.5V | 08:09:02 | 02:16:51 | 00:00:00 | |
| DM0DOS-11 | 2026-09-05 12:45:56 | 48.42795 | 10.64491 | 115° | 88km/h | 16524m | -6.8m/s | -57°C | 4.6% | 101.4hPa | 2.5V | 08:09:03 | 02:16:50 | 00:00:00 | |
| DK7TD | 2026-09-05 12:45:52 | 48.42786 | 10.64522 | 110° | 89km/h | 16517m | -6.8m/s | -56.9°C | 0.9% | 101.6hPa | 2.5V | 08:09:02 | 02:16:51 | 00:00:00 | |
| DB0ND-19 | 2026-09-05 12:45:51 | 48.42805 | 10.64462 | 121° | 82km/h | 16531m | -6.4m/s | -57.0°C | 1.5% | 101.3hPa | 2.5V | 00:00:00 | 00:00:00 | 00:00:00 | |
| PG1ADW-2 | 2026-09-05 12:45:50 | 48.42805 | 10.64462 | 122° | 68km/h | 16531m | -6.4m/s | -57.0°C | 4.6% | 101.3hPa | 2.5V | 00:00:00 | 02:16:49 | 00:00:00 | |
| DO3MHA-12 | 2026-09-05 12:45:49 | 48.42817 | 10.64437 | 126° | 60km/h | 16537m | -7.0m/s | -57.0°C | 4.6% | 101.2hPa | 2.6V | 00:00:00 | 02:16:48 | 00:00:00 | |
| DL1NUX | 2026-09-05 12:45:47 | 48.42862 | 10.64310 | 92° | 57km/h | 16581m | -6m/s | -57.1°C | 4.7% | 100.5hPa | 2.5V | 08:09:12 | 02:16:41 | 00:00:00 | |
| DB0UT-7 | 2026-09-05 12:45:47 | 48.42838 | 10.64396 | 130° | 66km/h | 16550m | -6.5m/s | -57.1°C | 4.7% | 101.0hPa | 2.5V | 00:00:00 | 00:00:00 | 00:00:00 | |
| DM0DOS-11 | 2026-09-05 12:45:46 | 48.42862 | 10.64286 | 89° | 66km/h | 16588m | -6.9m/s | -57.1°C | 4.6% | 100.4hPa | 2.5V | 08:09:13 | 02:16:40 | 00:00:00 | |
| DK7TD | 2026-09-05 12:45:42 | 48.42862 | 10.64310 | 93° | 57km/h | 16581m | -6m/s | -57.1°C | 1% | 100.5hPa | 2.5V | 08:09:53 | 02:16:41 | 00:00:00 | |
| DF3TZ-5 | 2026-09-05 12:45:42 | 48.42862 | 10.64286 | 89° | 66km/h | 16588m | -6.9m/s | -57.1°C | 1.5% | 100.4hPa | 2.5V | 00:00:00 | 00:00:00 | 00:00:00 | |
| DH7VM-15 | 2026-09-05 12:45:40 | 48.42863 | 10.64259 | 95° | 78km/h | 16595m | -6.6m/s | -57.1°C | 1.5% | 100.3hPa | 2.5V | 00:00:00 | 00:00:00 | 00:00:00 | |
| DO3MHA-12 | 2026-09-05 12:45:39 | 48.42865 | 10.64228 | 100° | 69km/h | 16601m | -5.8m/s | -57.0°C | 4.6% | 100.2hPa | 2.5V | 00:00:00 | 02:16:38 | 00:00:00 | |
| SO1NDE-10 | 2026-09-05 12:45:38 | 48.42870 | 10.64197 | 108° | 66km/h | 16607m | -5.5m/s | -57.0°C | 4.7% | 100.1hPa | 2.5V | 00:00:00 | 02:16:37 | 00:00:00 | |
| OE5DRO-10 | 2026-09-05 12:45:37 | 48.42878 | 10.64166 | 114° | 68km/h | 16613m | -6.6m/s | -57.1°C | 4.7% | 100.0hPa | 2.5V | 00:00:00 | 00:00:00 | 00:00:00 | |
| DL1NUX | 2026-09-05 12:45:36 | 48.42938 | 10.64039 | 122° | 44km/h | 16651m | -6.9m/s | -57°C | 4.7% | 99.4hPa | 2.5V | 08:09:23 | 02:16:30 | 00:00:00 | |
| DK7TD | 2026-09-05 12:45:32 | 48.42931 | 10.64054 | 127° | 51km/h | 16644m | -6.4m/s | -57°C | 1% | 99.5hPa | 2.5V | 08:09:53 | 02:16:31 | 00:00:00 | |
| DB0NH | 2026-09-05 12:45:32 | 48.42931 | 10.64053 | 127° | 64km/h | 16645m | -6.3m/s | -57.0°C | 4.7% | 99.4hPa | 2.5V | 00:00:00 | 02:16:31 | 00:00:00 | |
| PG1ADW-2 | 2026-09-05 12:45:30 | 48.42942 | 10.64025 | 107° | 60km/h | 16658m | -6.5m/s | -56.8°C | 4.6% | 99.2hPa | 2.5V | 00:00:00 | 00:00:00 | 00:00:00 | |
| DO3MHA-12 | 2026-09-05 12:45:29 | 48.42944 | 10.64009 | 100° | 71km/h | 16664m | -6.3m/s | -56.7°C | 4.5% | 99.2hPa | 2.5V | 00:00:00 | 02:16:28 | 00:00:00 | |
| DL1NUX | 2026-09-05 12:45:26 | 48.42970 | 10.63796 | 121° | 78km/h | 16716m | -6.3m/s | -56.5°C | 4.5% | 98.4hPa | 2.5V | 08:09:33 | 02:16:20 | 00:00:00 | |
| DK7TD | 2026-09-05 12:45:22 | 48.42960 | 10.63824 | 113° | 86km/h | 16709m | -6.8m/s | -56.5°C | 0.8% | 98.5hPa | 2.5V | 08:09:53 | 02:16:21 | 00:00:00 | |
| DF1GD-15 | 2026-09-05 12:45:21 | 48.42960 | 10.63824 | 114° | 86km/h | 16709m | -6.8m/s | -56.5°C | 1.4% | 98.5hPa | 2.6V | 08:09:00 | 00:00:00 | 00:00:00 | |
| DB0ND-19 | 2026-09-05 12:45:20 | 48.42991 | 10.63753 | 128° | 60km/h | 16728m | -7.0m/s | -56.6°C | 1.4% | 98.2hPa | 2.6V | 00:00:00 | 00:00:00 | 00:00:00 | |
| DO3MHA-12 | 2026-09-05 12:45:19 | 48.42990 | 10.63753 | 129° | 55km/h | 16728m | -7.0m/s | -56.5°C | 4.5% | 98.1hPa | 2.6V | 00:00:00 | 02:16:18 | 00:00:00 | |
| DB0UT-7 | 2026-09-05 12:45:18 | 48.43006 | 10.63723 | 125° | 62km/h | 16741m | -6.9m/s | -56.5°C | 4.5% | 98.0hPa | 2.5V | 08:09:00 | 02:16:16 | 00:00:00 | |
| NBG1-10 | 2026-09-05 12:45:16 | 48.43011 | 10.63709 | 108° | 60km/h | 16747m | -6.8m/s | -56.6°C | 4.5% | 97.9hPa | 2.5V | 00:00:00 | 02:16:15 | 00:00:00 | |
| DL1NUX | 2026-09-05 12:45:15 | 48.43010 | 10.63613 | 91° | 71km/h | 16780m | -6.2m/s | -56.9°C | 4.4% | 97.3hPa | 2.5V | 08:09:43 | 02:16:10 | 00:00:00 | |
| DK7TD | 2026-09-05 12:45:11 | 48.43010 | 10.63613 | 91° | 71km/h | 16780m | -6.2m/s | -56.9°C | 0.8% | 97.3hPa | 2.5V | 08:09:53 | 02:16:10 | 00:00:00 | |
| PG1ADW-2 | 2026-09-05 12:45:10 | 48.43011 | 10.63584 | 93° | 68km/h | 16786m | -6.6m/s | -56.8°C | 4.4% | 97.2hPa | 2.5V | 00:00:00 | 00:00:00 | 00:00:00 | |
| DO3MHA-12 | 2026-09-05 12:45:09 | 48.43013 | 10.63553 | 101° | 64km/h | 16793m | -6.0m/s | -56.9°C | 4.5% | 97.1hPa | 2.5V | 00:00:00 | 02:16:08 | 00:00:00 | |
| SO1NDE-10 | 2026-09-05 12:45:08 | 48.43018 | 10.63522 | 107° | 60km/h | 16799m | -7.1m/s | -56.9°C | 4.6% | 97.0hPa | 2.5V | 00:00:00 | 02:16:07 | 00:00:00 | |
| DL1NUX | 2026-09-05 12:45:06 | 48.43080 | 10.63374 | 123° | 40km/h | 16846m | -6.5m/s | -56.8°C | 4.6% | 96.4hPa | 2.5V | 08:09:53 | 02:16:00 | 00:00:00 | |
| DK7TD | 2026-09-05 12:45:01 | 48.43080 | 10.63374 | 124° | 40km/h | 16846m | -6.6m/s | -56.8°C | 0.9% | 96.4hPa | 2.5V | 08:09:53 | 02:16:00 | 00:00:00 | |
| DO3MHA-12 | 2026-09-05 12:44:59 | 48.43086 | 10.63348 | 90° | 68km/h | 16859m | -6.7m/s | -56.7°C | 4.5% | 96.1hPa | 2.5V | 00:00:00 | 02:15:58 | 00:00:00 | |
| DM0DOS-11 | 2026-09-05 12:44:55 | 48.43097 | 10.63173 | 112° | 84km/h | 16907m | -7.2m/s | -57.1°C | 4.7% | 95.5hPa | 2.5V | 08:10:02 | 02:15:51 | 00:00:00 | |
| DO3MHA-11 | 2026-09-05 12:44:55 | 48.43084 | 10.63262 | 94° | 66km/h | 16886m | -6.8m/s | -56.9°C | 4.6% | 95.7hPa | 2.5V | 00:00:00 | 02:15:54 | 00:00:00 | |
| DL1NUX | 2026-09-05 12:44:54 | 48.43106 | 10.63146 | 118° | 78km/h | 16914m | -7.3m/s | -57.1°C | 4.7% | 95.3hPa | 2.5V | 08:10:03 | 02:15:50 | 00:00:00 | |
| DK7TD | 2026-09-05 12:44:51 | 48.43106 | 10.63146 | 119° | 80km/h | 16914m | -7.3m/s | -57.1°C | 0.9% | 95.3hPa | 2.5V | 08:10:44 | 02:15:50 | 00:00:00 | |
| DB0ND-19 | 2026-09-05 12:44:49 | 48.43136 | 10.63086 | 133° | 49km/h | 16936m | -6.3m/s | -56.9°C | 1.5% | 95.1hPa | 2.5V | 00:00:00 | 00:00:00 | 00:00:00 | |
| SONCRA | 2026-09-05 12:44:48 | 48.43136 | 10.63086 | 133° | 49km/h | 16936m | -6.3m/s | -56.9°C | 1.5% | 95.1hPa | 2.5V | 00:00:00 | 00:00:00 | 00:00:00 | |
| DB0UT-7 | 2026-09-05 12:44:47 | 48.43144 | 10.63073 | 127° | 51km/h | 16942m | -6.1m/s | -56.7°C | 4.6% | 94.9hPa | 2.5V | 00:00:00 | 00:00:00 | 00:00:00 | |
| DL1NUX | 2026-09-05 12:44:46 | 48.43143 | 10.62981 | 80° | 64km/h | 16982m | -7.2m/s | -56.4°C | 4.4% | 94.3hPa | 2.5V | 08:10:13 | 02:15:40 | 00:00:00 | |
| DO3MHA-11 | 2026-09-05 12:44:45 | 48.43151 | 10.63049 | 101° | 57km/h | 16954m | -6.2m/s | -56.7°C | 4.6% | 94.7hPa | 2.5V | 00:00:00 | 02:15:44 | 00:00:00 | |
| NBG1-10 | 2026-09-05 12:44:43 | 48.43149 | 10.63021 | 74° | 55km/h | 16967m | -7.3m/s | -56.5°C | 4.5% | 94.5hPa | 2.5V | 00:00:00 | 02:15:42 | 00:00:00 | |
| DM0DOS-11 | 2026-09-05 12:44:41 | 48.43155 | 10.62855 | 118° | 58km/h | 17014m | -6.2m/s | -56°C | 4.5% | 93.9hPa | 2.5V | 08:10:18 | 02:15:35 | 00:00:00 | |
| DK7TD | 2026-09-05 12:44:41 | 48.43143 | 10.62981 | 80° | 64km/h | 16982m | -7.2m/s | -56.4°C | 0.7% | 94.3hPa | 2.5V | 08:10:44 | 02:15:40 | 00:00:00 | |
| OE5MMP-10 | 2026-09-05 12:44:40 | 48.43141 | 10.62956 | 86° | 44km/h | 16990m | -6.8m/s | -56.3°C | 4.5% | 94.2hPa | 2.5V | 00:00:00 | 02:15:39 | 00:00:00 | |
| DO3MHA-12 | 2026-09-05 12:44:39 | 48.43141 | 10.62929 | 94° | 47km/h | 16996m | -6.5m/s | -56.2°C | 4.6% | 94.1hPa | 2.6V | 00:00:00 | 02:15:38 | 00:00:00 | |
| SO1NDE-10 | 2026-09-05 12:44:38 | 48.43143 | 10.62902 | 102° | 55km/h | 17002m | -5.9m/s | -56.1°C | 4.5% | 94.0hPa | 2.6V | 08:10:00 | 02:15:37 | 00:00:00 | |
| DO3MHA-11 | 2026-09-05 12:44:35 | 48.43162 | 10.62838 | 125° | 47km/h | 17021m | -5.6m/s | -56.0°C | 4.5% | 93.8hPa | 2.5V | 00:00:00 | 02:15:34 | 00:00:00 | |
| DL1NUX | 2026-09-05 12:44:34 | 48.43172 | 10.62794 | 74° | 31km/h | 17048m | -7.2m/s | -55.8°C | 4.4% | 93.4hPa | 2.5V | 08:10:23 | 02:15:30 | 00:00:00 | |
| DK7TD | 2026-09-05 12:44:30 | 48.43164 | 10.62768 | 64° | 46km/h | 17062m | -6.1m/s | -55.5°C | 0.7% | 93.2hPa | 2.6V | 08:10:44 | 02:15:28 | 00:00:00 | |
| PG1ADW-2 | 2026-09-05 12:44:30 | 48.43164 | 10.62768 | 64° | 58km/h | 17062m | -6.1m/s | -55.5°C | 4.1% | 93.1hPa | 2.5V | 00:00:00 | 02:15:28 | 00:00:00 | |
| DL6DJ-15 | 2026-09-05 12:44:28 | 48.43152 | 10.62728 | 71° | 64km/h | 17076m | -6.8m/s | -55.7°C | 1.3% | 93.0hPa | 2.5V | 00:00:00 | 00:00:00 | 00:00:00 | |
| DL1NUX | 2026-09-05 12:44:26 | 48.43153 | 10.62571 | 112° | 55km/h | 17114m | -5.8m/s | -55.5°C | 4.2% | 92.4hPa | 2.5V | 08:10:33 | 02:15:20 | 00:00:00 | |
| DO3MHA-11 | 2026-09-05 12:44:25 | 48.43144 | 10.62675 | 85° | 49km/h | 17089m | -6.1m/s | -55.6°C | 4.1% | 92.7hPa | 2.5V | 00:00:00 | 02:15:24 | 00:00:00 | |
| DL9SK-14 | 2026-09-05 12:44:24 | 48.43143 | 10.62646 | 89° | 77km/h | 17095m | -6.9m/s | -55.6°C | 1.3% | 92.7hPa | 2.5V | 00:00:00 | 00:00:00 | 00:00:00 | |
| DM0DOS-11 | 2026-09-05 12:44:23 | 48.43148 | 10.62592 | 103° | 68km/h | 17108m | -6.7m/s | -55.5°C | 4.1% | 92.5hPa | 2.5V | 08:10:32 | 02:15:21 | 00:00:00 | |
| DK7TD | 2026-09-05 12:44:19 | 48.43161 | 10.62539 | 108° | 33km/h | 17126m | -6.2m/s | -55.5°C | 0.7% | 92.2hPa | 2.6V | 08:10:44 | 02:15:18 | 00:00:00 | |
| DO3MHA-12 | 2026-09-05 12:44:19 | 48.43160 | 10.62539 | 108° | 55km/h | 17126m | -6.1m/s | -55.5°C | 4.3% | 92.2hPa | 2.6V | 00:00:00 | 02:15:18 | 00:00:00 | |
| DB0ND-19 | 2026-09-05 12:44:18 | 48.43160 | 10.62518 | 65° | 29km/h | 17139m | -6.5m/s | -55.6°C | 1.3% | 92.1hPa | 2.5V | 00:00:00 | 00:00:00 | 00:00:00 | |
| DB0UT-7 | 2026-09-05 12:44:17 | 48.43160 | 10.62518 | 66° | 62km/h | 17139m | -6.5m/s | -55.6°C | 4.3% | 92.0hPa | 2.5V | 00:00:00 | 02:15:16 | 00:00:00 | |
| DO9HM | 2026-09-05 12:44:16 | 48.43156 | 10.62507 | 61° | 37km/h | 17145m | -6.4m/s | -55.6°C | 1.3% | 92.0hPa | 2.5V | 00:00:00 | 00:00:00 | 00:00:00 | |
| DO3MHA-11 | 2026-09-05 12:44:15 | 48.43150 | 10.62493 | 55° | 71km/h | 17151m | -7.3m/s | -55.6°C | 4.2% | 91.8hPa | 2.5V | 00:00:00 | 02:15:14 | 00:00:00 | |
| DL1NUX | 2026-09-05 12:44:14 | 48.43122 | 10.62401 | 78° | 78km/h | 17179m | -6.4m/s | -55.8°C | 4.1% | 91.4hPa | 2.5V | 08:10:43 | 02:15:10 | 00:00:00 | |
| DM0DOS-11 | 2026-09-05 12:44:13 | 48.43118 | 10.62339 | 90° | 82km/h | 17192m | -7.3m/s | -55.9°C | 4.2% | 91.3hPa | 2.7V | 08:10:45 | 02:15:08 | 00:00:00 | |
| DK7TD | 2026-09-05 12:44:08 | 48.43120 | 10.62309 | 99° | 75km/h | 17199m | -6.2m/s | -55.9°C | 0.7% | 91.2hPa | 2.6V | 08:11:35 | 02:15:07 | 00:00:00 | |
| SO1NDE-10 | 2026-09-05 12:44:08 | 48.43120 | 10.62309 | 99° | 62km/h | 17199m | -6.1m/s | -55.9°C | 4.2% | 91.2hPa | 2.5V | 00:00:00 | 02:15:07 | 00:00:00 | |
| OE5WHR-10 | 2026-09-05 12:44:07 | 48.43123 | 10.62281 | 104° | 51km/h | 17206m | -7.4m/s | -55.9°C | 4.3% | 91.0hPa | 2.5V | 00:00:00 | 02:15:06 | 00:00:00 | |
| DL1NUX | 2026-09-05 12:44:06 | 48.43131 | 10.62181 | 61° | 42km/h | 17243m | -6.4m/s | -56°C | 4.4% | 90.5hPa | 2.5V | 08:10:53 | 02:15:00 | 00:00:00 | |
| DO3MHA-11 | 2026-09-05 12:44:05 | 48.43132 | 10.62237 | 109° | 55km/h | 17219m | -7.1m/s | -55.9°C | 4.4% | 90.8hPa | 2.5V | 00:00:00 | 02:15:04 | 00:00:00 | |
| DB0NH | 2026-09-05 12:44:02 | 48.43136 | 10.62194 | 68° | 62km/h | 17237m | -5.8m/s | -55.9°C | 4.4% | 90.6hPa | 2.5V | 00:00:00 | 02:15:01 | 00:00:00 | |
| DL1ZP-14 | 2026-09-05 12:44:01 | 48.43131 | 10.62181 | 61° | 42km/h | 17243m | -6.4m/s | -56.0°C | 1.4% | 90.5hPa | 2.5V | 00:00:00 | 00:00:00 | 00:00:00 | |
| IW2NTF | 2026-09-05 12:43:59 | 48.43098 | 10.62062 | 81° | 84km/h | 17277m | -6.8m/s | -56°C | 4.2% | 90.1hPa | 2.5V | 08:30:00 | 02:14:55 | 00:00:00 | |
| DK7TD | 2026-09-05 12:43:58 | 48.43109 | 10.62121 | 69° | 73km/h | 17263m | -6.7m/s | -55.9°C | 0.7% | 90.2hPa | 2.6V | 08:11:35 | 02:14:57 | 00:00:00 | |
| DH7VM-15 | 2026-09-05 12:43:57 | 48.43103 | 10.62092 | 72° | 82km/h | 17270m | -7.0m/s | -55.9°C | 1.3% | 90.1hPa | 2.5V | 00:00:00 | 00:00:00 | 00:00:00 | |
| DO3MHA-11 | 2026-09-05 12:43:55 | 48.43095 | 10.62030 | 87° | 64km/h | 17284m | -6.4m/s | -56.0°C | 4.2% | 89.9hPa | 2.5V | 08:10:00 | 02:14:54 | 00:00:00 | |
| DJ8HS-15 | 2026-09-05 12:43:53 | 48.43099 | 10.61967 | 103° | 60km/h | 17297m | -5.9m/s | -56.0°C | 4.3% | 89.8hPa | 2.5V | 00:00:00 | 02:14:52 | 00:00:00 | |
| DL1NUX | 2026-09-05 12:43:52 | 48.43110 | 10.61917 | 111° | 60km/h | 17311m | -7.1m/s | -56.1°C | 4.3% | 89.6hPa | 2.5V | 08:11:03 | 02:14:50 | 00:00:00 | |
| IW2NTF | 2026-09-05 12:43:52 | 48.43116 | 10.61840 | 65° | 42km/h | 17345m | -6.9m/s | -56.2°C | 4.5% | 89.1hPa | 2.5V | 08:30:00 | 02:14:45 | 00:00:00 | |
| DK7TD | 2026-09-05 12:43:48 | 48.43120 | 10.61868 | 94° | 35km/h | 17332m | -7m/s | -56.1°C | 0.9% | 89.3hPa | 2.6V | 08:11:35 | 02:14:47 | 00:00:00 | |
| DB0ND-19 | 2026-09-05 12:43:47 | 48.43117 | 10.61840 | 65° | 42km/h | 17345m | -6.9m/s | -56.2°C | 1.4% | 89.1hPa | 2.5V | 00:00:00 | 00:00:00 | 00:00:00 | |
| DL1NUX | 2026-09-05 12:43:46 | 48.43093 | 10.61716 | 87° | 84km/h | 17378m | -5.9m/s | -56.2°C | 4.4% | 88.7hPa | 2.5V | 08:11:13 | 02:14:40 | 00:00:00 | |
| DK7TD | 2026-09-05 12:43:38 | 48.43110 | 10.61601 | 115° | 68km/h | 17407m | -8.3m/s | -56°C | 0.8% | 88.3hPa | 2.6V | 08:11:35 | 02:14:36 | 00:00:00 | |
| NBG1-10 | 2026-09-05 12:43:37 | 48.43110 | 10.61601 | 116° | 60km/h | 17407m | -8.3m/s | -55.9°C | 4.4% | 88.2hPa | 2.5V | 00:00:00 | 02:14:36 | 00:00:00 | |
| DK5PH-5 | 2026-09-05 12:43:35 | 48.43124 | 10.61562 | 121° | 60km/h | 17421m | -6.7m/s | -55.8°C | 4.3% | 88.0hPa | 2.5V | 00:00:00 | 02:14:34 | 00:00:00 | |
| DJ8HS-15 | 2026-09-05 12:43:33 | 48.43131 | 10.61536 | 93° | 57km/h | 17435m | -6.2m/s | -55.7°C | 4.2% | 87.8hPa | 2.6V | 00:00:00 | 02:14:32 | 00:00:00 | |
| DL1NUX | 2026-09-05 12:43:32 | 48.43127 | 10.61510 | 70° | 46km/h | 17447m | -6.2m/s | -55.7°C | 4.2% | 87.7hPa | 2.6V | 08:11:23 | 02:14:30 | 00:00:00 | |
| DK7TD | 2026-09-05 12:43:27 | 48.43109 | 10.61382 | 92° | 84km/h | 17481m | -6m/s | -55.9°C | 0.7% | 87.2hPa | 2.6V | 08:11:35 | 02:14:25 | 00:00:00 | |
| DK7TD | 2026-09-05 12:43:16 | 48.43132 | 10.61185 | 64° | 51km/h | 17549m | -7.5m/s | -56.1°C | 0.7% | 86.3hPa | 2.7V | 08:12:26 | 02:14:15 | 00:00:00 | |
| DB0ND-19 | 2026-09-05 12:43:16 | 48.43126 | 10.61166 | 60° | 60km/h | 17556m | -8.0m/s | -56.2°C | 1.3% | 86.2hPa | 2.5V | 00:00:00 | 00:00:00 | 00:00:00 | |
| SONCRA | 2026-09-05 12:43:15 | 48.43119 | 10.61144 | 65° | 66km/h | 17564m | -7.3m/s | -56.3°C | -1.0% | 86.1hPa | 2.5V | 00:00:00 | 00:00:00 | 00:00:00 | |
| DO3MHA-11 | 2026-09-05 12:43:14 | 48.43119 | 10.61144 | 66° | 69km/h | 17564m | -7.2m/s | -56.2°C | 4.1% | 86.1hPa | 2.5V | 00:00:00 | 02:14:13 | 00:00:00 | |
| DJ8HS-15 | 2026-09-05 12:43:13 | 48.43112 | 10.61119 | 72° | 68km/h | 17572m | -7.2m/s | -56.3°C | 4.1% | 86.0hPa | 2.5V | 08:11:00 | 02:14:12 | 00:00:00 | |
| DL1NUX | 2026-09-05 12:43:12 | 48.43103 | 10.61059 | 83° | 86km/h | 17586m | -6.7m/s | -56.4°C | 4.2% | 85.8hPa | 2.6V | 08:11:43 | 02:14:10 | 00:00:00 | |
| DO3MHA-12 | 2026-09-05 12:43:09 | 48.43102 | 10.60995 | 98° | 53km/h | 17600m | -5.5m/s | -56.4°C | 4.3% | 85.6hPa | 2.5V | 00:00:00 | 02:14:08 | 00:00:00 | |
| SO1NDE-10 | 2026-09-05 12:43:08 | 48.43106 | 10.60967 | 104° | 64km/h | 17606m | -6.5m/s | -56.4°C | 4.3% | 85.6hPa | 2.5V | 00:00:00 | 02:14:07 | 00:00:00 | |
| DL1NUX | 2026-09-05 12:43:06 | 48.43108 | 10.60854 | 54° | 55km/h | 17654m | -7.4m/s | -56.8°C | 4.3% | 84.9hPa | 2.5V | 08:11:53 | 02:14:00 | 00:00:00 | |
| DK7TD | 2026-09-05 12:43:05 | 48.43119 | 10.60907 | 102° | 40km/h | 17626m | -6.8m/s | -56.6°C | 0.8% | 85.3hPa | 2.7V | 08:12:26 | 02:14:04 | 00:00:00 | |
| DK7TD | 2026-09-05 12:42:54 | 48.43063 | 10.60661 | 95° | 80km/h | 17704m | -7.2m/s | -57.3°C | 0.8% | 84.2hPa | 2.5V | 08:12:26 | 02:13:53 | 00:00:00 | |
| DO3MHA-11 | 2026-09-05 12:42:54 | 48.43063 | 10.60661 | 95° | 57km/h | 17704m | -7.1m/s | -57.2°C | 4.5% | 84.2hPa | 2.5V | 00:00:00 | 02:13:53 | 00:00:00 | |
| DJ8HS-15 | 2026-09-05 12:42:53 | 48.43066 | 10.60633 | 103° | 62km/h | 17711m | -5.7m/s | -57.3°C | 4.5% | 84.1hPa | 2.5V | 00:00:00 | 02:13:52 | 00:00:00 | |
| DL1NUX | 2026-09-05 12:42:52 | 48.43073 | 10.60591 | 102° | 47km/h | 17724m | -6.8m/s | -57.4°C | 4.7% | 84hPa | 2.5V | 08:12:03 | 02:13:50 | 00:00:00 | |
| DL9SK-14 | 2026-09-05 12:42:51 | 48.43073 | 10.60591 | 102° | 46km/h | 17724m | -6.8m/s | -57.4°C | 1.4% | 84.0hPa | 2.5V | 00:00:00 | 00:00:00 | 00:00:00 | |
| DO3MHA-12 | 2026-09-05 12:42:49 | 48.43073 | 10.60563 | 75° | 71km/h | 17738m | -7.2m/s | -57.5°C | 4.8% | 83.7hPa | 2.5V | 00:00:00 | 02:13:48 | 00:00:00 | |
| DB0UT-7 | 2026-09-05 12:42:47 | 48.43062 | 10.60534 | 52° | 68km/h | 17751m | -7.0m/s | -57.5°C | 4.8% | 83.6hPa | 2.7V | 00:00:00 | 00:00:00 | 00:00:00 | |
| DL1NUX | 2026-09-05 12:42:46 | 48.43023 | 10.60366 | 89° | 89km/h | 17793m | -7.3m/s | -57.5°C | 4.4% | 83.1hPa | 2.7V | 08:12:13 | 02:13:40 | 00:00:00 | |
| DK7TD | 2026-09-05 12:42:44 | 48.43035 | 10.60464 | 66° | 86km/h | 17771m | -7.8m/s | -57.7°C | 0.9% | 83.3hPa | 2.5V | 08:12:26 | 02:13:43 | 00:00:00 | |
| DK7TD | 2026-09-05 12:42:34 | 48.43045 | 10.60204 | 85° | 35km/h | 17847m | -8m/s | -57.5°C | 1% | 82.3hPa | 2.6V | 08:12:26 | 02:13:33 | 00:00:00 | |
| DO3MHA-11 | 2026-09-05 12:42:34 | 48.43045 | 10.60204 | 86° | 71km/h | 17847m | -8.0m/s | -57.4°C | 4.7% | 82.3hPa | 2.6V | 00:00:00 | 02:13:33 | 00:00:00 | |
| DJ8HS-15 | 2026-09-05 12:42:33 | 48.43043 | 10.60190 | 71° | 66km/h | 17855m | -6.5m/s | -57.5°C | 4.7% | 82.2hPa | 2.6V | 00:00:00 | 02:13:32 | 00:00:00 | |
| OE5DXL-15 | 2026-09-05 12:42:32 | 48.43038 | 10.60174 | 60° | 66km/h | 17862m | -7.2m/s | -57.5°C | 4.7% | 82.1hPa | 2.6V | 00:00:00 | 00:00:00 | 00:00:00 | |
| DL1NUX | 2026-09-05 12:42:32 | 48.43031 | 10.60155 | 64° | 62km/h | 17868m | -5.9m/s | -57.6°C | 4.7% | 82.1hPa | 2.5V | 08:12:23 | 02:13:30 | 00:00:00 | |
| DO3MHA-12 | 2026-09-05 12:42:29 | 48.43017 | 10.60099 | 74° | 75km/h | 17882m | -7.3m/s | -57.6°C | 4.6% | 81.9hPa | 2.6V | 00:00:00 | 02:13:28 | 00:00:00 | |
| DL1ZP-14 | 2026-09-05 12:42:28 | 48.43013 | 10.60066 | 81° | 89km/h | 17889m | -7.9m/s | -57.7°C | 1.3% | 81.9hPa | 2.6V | 00:00:00 | 00:00:00 | 00:00:00 | |
| OE5DRO-10 | 2026-09-05 12:42:27 | 48.43011 | 10.60032 | 91° | 69km/h | 17898m | -7.3m/s | -57.7°C | 4.5% | 81.7hPa | 2.6V | 00:00:00 | 00:00:00 | 00:00:00 | |
| DL1NUX | 2026-09-05 12:42:26 | 48.43045 | 10.59867 | 119° | 47km/h | 17942m | -7.7m/s | -57.8°C | 4.9% | 81.1hPa | 2.6V | 08:12:33 | 02:13:20 | 00:00:00 | |
| DK7TD | 2026-09-05 12:42:24 | 48.43031 | 10.59906 | 115° | 73km/h | 17929m | -7.1m/s | -57.8°C | 0.9% | 81.3hPa | 2.7V | 08:13:17 | 02:13:22 | 00:00:00 | |
| DL9SK-14 | 2026-09-05 12:42:20 | 48.43050 | 10.59852 | 110° | 38km/h | 17950m | -7.6m/s | -57.8°C | 1.5% | 81.0hPa | 2.5V | 00:00:00 | 00:00:00 | 00:00:00 | |
| DO3MHA-12 | 2026-09-05 12:42:19 | 48.43051 | 10.59839 | 90° | 69km/h | 17958m | -6.9m/s | -57.7°C | 4.9% | 80.9hPa | 2.5V | 00:00:00 | 02:13:18 | 00:00:00 | |
| DM0DOS-11 | 2026-09-05 12:42:18 | 48.43028 | 10.59704 | 86° | 88km/h | 18002m | -6.4m/s | -57.7°C | 4.8% | 80.4hPa | 2.5V | 08:12:41 | 02:13:12 | 00:00:00 | |
| DK7TD | 2026-09-05 12:42:12 | 48.43029 | 10.59670 | 96° | 91km/h | 18009m | -7.2m/s | -57.7°C | 1% | 80.3hPa | 2.7V | 08:13:17 | 02:13:11 | 00:00:00 | |
| DL1NUX | 2026-09-05 12:42:10 | 48.43058 | 10.59557 | 125° | 66km/h | 18039m | -8.9m/s | -57.4°C | 4.8% | 79.9hPa | 2.5V | 08:12:46 | 02:13:07 | 00:00:00 | |
| DO3MHA-12 | 2026-09-05 12:42:09 | 48.43049 | 10.59579 | 121° | 46km/h | 18031m | -7.4m/s | -57.5°C | 4.8% | 80.0hPa | 2.5V | 00:00:00 | 02:13:08 | 00:00:00 | |
| SO1NDE-10 | 2026-09-05 12:42:08 | 48.43058 | 10.59557 | 126° | 60km/h | 18039m | -8.8m/s | -57.3°C | 4.8% | 79.9hPa | 2.5V | 00:00:00 | 02:13:07 | 00:00:00 | |
| DM7RM-13 | 2026-09-05 12:42:06 | 48.43068 | 10.59538 | 130° | 57km/h | 18048m | -9.3m/s | -57.2°C | 1.4% | 79.8hPa | 2.5V | 08:13:00 | 00:00:00 | 00:00:00 | |
| DM0DOS-11 | 2026-09-05 12:42:05 | 48.43087 | 10.59495 | 88° | 24km/h | 18080m | -7.6m/s | -57°C | 4.6% | 79.4hPa | 2.5V | 08:12:51 | 02:13:02 | 00:00:00 | |
| DK7TD | 2026-09-05 12:42:02 | 48.43085 | 10.59484 | 66° | 35km/h | 18088m | -7.6m/s | -56.9°C | 0.8% | 79.3hPa | 2.7V | 08:13:17 | 02:13:01 | 00:00:00 | |
| DB0NH | 2026-09-05 12:42:02 | 48.43084 | 10.59484 | 67° | 51km/h | 18088m | -7.5m/s | -56.9°C | 4.5% | 79.3hPa | 2.7V | 00:00:00 | 02:13:01 | 00:00:00 | |
| DL1ZP-14 | 2026-09-05 12:41:57 | 48.43068 | 10.59375 | 95° | 75km/h | 18125m | -6.4m/s | -56.5°C | 1.3% | 78.8hPa | 2.6V | 00:00:00 | 00:00:00 | 00:00:00 | |
| DF1GD-15 | 2026-09-05 12:41:55 | 48.43071 | 10.59347 | 104° | 77km/h | 18132m | -7.1m/s | -56.5°C | 1.3% | 78.8hPa | 2.7V | 08:13:00 | 00:00:00 | 00:00:00 | |
| DM0DOS-11 | 2026-09-05 12:41:54 | 48.43103 | 10.59264 | 136° | 42km/h | 18161m | -7.2m/s | -56.5°C | 4.6% | 78.4hPa | 2.7V | 08:13:02 | 02:12:51 | 00:00:00 | |
| DK7TD | 2026-09-05 12:41:52 | 48.43110 | 10.59255 | 137° | 29km/h | 18168m | -8m/s | -56.5°C | 0.9% | 78.3hPa | 2.5V | 08:13:17 | 02:12:50 | 00:00:00 | |
| DL1NUX | 2026-09-05 12:41:50 | 48.43106 | 10.59222 | 50° | 42km/h | 18199m | -8.3m/s | -56°C | 4.2% | 77.9hPa | 2.6V | 08:13:07 | 02:12:46 | 00:00:00 | |
| DO3MHA-12 | 2026-09-05 12:41:49 | 48.43114 | 10.59241 | 79° | 58km/h | 18183m | -7.0m/s | -56.0°C | 4.3% | 78.1hPa | 2.5V | 08:13:00 | 02:12:48 | 00:00:00 | |
| DB0UT-7 | 2026-09-05 12:41:47 | 48.43106 | 10.59222 | 51° | 58km/h | 18199m | -8.3m/s | -55.9°C | 4.2% | 77.9hPa | 2.5V | 00:00:00 | 00:00:00 | 00:00:00 | |
| DM0DOS-11 | 2026-09-05 12:41:46 | 48.43082 | 10.59078 | 97° | 77km/h | 18245m | -6.6m/s | -56.1°C | 4.1% | 77.3hPa | 2.5V | 08:13:13 | 02:12:40 | 00:00:00 | |
| DK7TD | 2026-09-05 12:41:41 | 48.43081 | 10.59078 | 98° | 77km/h | 18245m | -6.6m/s | -56.1°C | 0.6% | 77.3hPa | 2.5V | 08:13:17 | 02:12:40 | 00:00:00 | |
| DL1NUX | 2026-09-05 12:41:40 | 48.43105 | 10.58991 | 123° | 40km/h | 18274m | -6.5m/s | -56.2°C | 4.4% | 77hPa | 2.5V | 08:13:17 | 02:12:36 | 00:00:00 | |
| DK7TD | 2026-09-05 12:41:30 | 48.43080 | 10.58897 | 61° | 75km/h | 18328m | -8.8m/s | -56.5°C | 0.7% | 76.3hPa | 2.5V | 08:14:08 | 02:12:29 | 00:00:00 | |
| DL1NUX | 2026-09-05 12:41:30 | 48.43064 | 10.58807 | 85° | 89km/h | 18353m | -7.5m/s | -56.7°C | 4.3% | 76hPa | 2.6V | 08:13:27 | 02:12:26 | 00:00:00 | |
| OE5DRO-10 | 2026-09-05 12:41:30 | 48.43080 | 10.58897 | 61° | 66km/h | 18328m | -8.8m/s | -56.5°C | 4.3% | 76.3hPa | 2.6V | 00:00:00 | 00:00:00 | 00:00:00 | |
| DO3MHA-12 | 2026-09-05 12:41:29 | 48.43072 | 10.58870 | 70° | 66km/h | 18337m | -8.7m/s | -56.5°C | 4.3% | 76.2hPa | 2.6V | 00:00:00 | 02:12:28 | 00:00:00 | |
| DM7RM-13 | 2026-09-05 12:41:26 | 48.43064 | 10.58774 | 94° | 88km/h | 18361m | -8.0m/s | -56.8°C | 1.3% | 75.9hPa | 2.6V | 00:00:00 | 00:00:00 | 00:00:00 | |
| NBG1-10 | 2026-09-05 12:41:25 | 48.43067 | 10.58742 | 103° | 60km/h | 18369m | -7.2m/s | -56.8°C | 4.5% | 75.8hPa | 2.6V | 00:00:00 | 02:12:24 | 00:00:00 | |
| DO3MHA-11 | 2026-09-05 12:41:24 | 48.43072 | 10.58716 | 112° | 49km/h | 18376m | -6.3m/s | -56.8°C | 4.5% | 75.7hPa | 2.6V | 00:00:00 | 02:12:23 | 00:00:00 | |
| DL1NUX | 2026-09-05 12:41:21 | 48.43074 | 10.58619 | 53° | 51km/h | 18429m | -7.5m/s | -56.2°C | 4.4% | 75.1hPa | 2.6V | 08:13:37 | 02:12:16 | 00:00:00 | |
| DK7TD | 2026-09-05 12:41:21 | 48.43089 | 10.58653 | 85° | 27km/h | 18406m | -7.3m/s | -57°C | 0.9% | 75.5hPa | 2.6V | 08:14:08 | 02:12:19 | 00:00:00 | |
| DO9HM | 2026-09-05 12:41:20 | 48.43089 | 10.58653 | 86° | 27km/h | 18406m | -7.3m/s | -57.0°C | 1.4% | 75.5hPa | 2.7V | 00:00:00 | 00:00:00 | 00:00:00 | |
| DO3MHA-12 | 2026-09-05 12:41:19 | 48.43087 | 10.58643 | 57° | 68km/h | 18414m | -7.8m/s | -56.9°C | 4.7% | 75.3hPa | 2.7V | 00:00:00 | 02:12:18 | 00:00:00 | |
| DL9SK-14 | 2026-09-05 12:41:18 | 48.43074 | 10.58619 | 53° | 51km/h | 18429m | -7.5m/s | -56.2°C | 1.3% | 75.1hPa | 2.7V | 00:00:00 | 00:00:00 | 00:00:00 | |
| DB0UT-7 | 2026-09-05 12:41:17 | 48.43073 | 10.58619 | 54° | 58km/h | 18430m | -7.4m/s | -56.2°C | 4.4% | 75.1hPa | 2.7V | 00:00:00 | 02:12:16 | 00:00:00 | |
| DF1GD-15 | 2026-09-05 12:41:15 | 48.43065 | 10.58600 | 61° | 68km/h | 18437m | -8.0m/s | -55.9°C | 1.2% | 75.1hPa | 2.7V | 08:14:00 | 00:00:00 | 00:00:00 | |
| DO3MHA-11 | 2026-09-05 12:41:14 | 48.43049 | 10.58547 | 72° | 64km/h | 18454m | -8.1m/s | -55.8°C | 4.1% | 74.8hPa | 2.7V | 00:00:00 | 02:12:13 | 00:00:00 | |
| AZAK | 2026-09-05 12:41:13 | 48.43044 | 10.58517 | 84° | 86km/h | 18461m | -7.1m/s | -55.9°C | 1.2% | 74.8hPa | 2.7V | 08:14:00 | 00:00:00 | 00:00:00 | |
| OE5DRO-10 | 2026-09-05 12:41:11 | 48.43045 | 10.58453 | 100° | 60km/h | 18475m | -7.2m/s | -55.9°C | 4.1% | 74.6hPa | 2.7V | 00:00:00 | 00:00:00 | 00:00:00 | |
| DL1NUX | 2026-09-05 12:41:10 | 48.43069 | 10.58361 | 122° | 40km/h | 18506m | -7.6m/s | -56.2°C | 4.3% | 74.2hPa | 2.6V | 08:13:47 | 02:12:06 | 00:00:00 | |
| DK7TD | 2026-09-05 12:41:09 | 48.43056 | 10.58398 | 111° | 69km/h | 18492m | -7.6m/s | -56.1°C | 0.6% | 74.4hPa | 2.5V | 08:14:08 | 02:12:08 | 00:00:00 | |
| DO3MHA-12 | 2026-09-05 12:41:09 | 48.43056 | 10.58398 | 112° | 49km/h | 18492m | -7.6m/s | -56.1°C | 4.2% | 74.4hPa | 2.6V | 00:00:00 | 02:12:08 | 00:00:00 | |
| SO1NDE-10 | 2026-09-05 12:41:08 | 48.43063 | 10.58376 | 120° | 60km/h | 18499m | -6.8m/s | -56.1°C | 4.3% | 74.3hPa | 2.6V | 00:00:00 | 02:12:07 | 00:00:00 | |
| DK5PH-5 | 2026-09-05 12:41:05 | 48.43075 | 10.58340 | 88° | 57km/h | 18522m | -6.3m/s | -56.3°C | 4.4% | 74.0hPa | 2.6V | 00:00:00 | 02:12:04 | 00:00:00 | |
| DO3MHA-11 | 2026-09-05 12:41:04 | 48.43073 | 10.58330 | 59° | 66km/h | 18528m | -6.9m/s | -56.3°C | 4.4% | 73.9hPa | 2.6V | 00:00:00 | 02:12:03 | 00:00:00 | |
| DB0NH | 2026-09-05 12:41:02 | 48.43061 | 10.58302 | 60° | 55km/h | 18543m | -6.7m/s | -56.5°C | 4.4% | 73.8hPa | 2.6V | 00:00:00 | 02:12:01 | 00:00:00 | |
| DL1NUX | 2026-09-05 12:41:00 | 48.43048 | 10.58136 | 109° | 75km/h | 18586m | -7.2m/s | -56.6°C | 4.6% | 73.3hPa | 2.6V | 08:13:58 | 02:11:55 | 00:00:00 | |
| DK7TD | 2026-09-05 12:40:58 | 48.43041 | 10.58195 | 90° | 82km/h | 18574m | -6.3m/s | -56.6°C | 0.7% | 73.5hPa | 2.7V | 08:14:08 | 02:11:57 | 00:00:00 | |
| DL1ZP-14 | 2026-09-05 12:40:55 | 48.43056 | 10.58112 | 118° | 66km/h | 18594m | -8.5m/s | -56.6°C | 1.3% | 73.2hPa | 2.5V | 00:00:00 | 00:00:00 | 00:00:00 | |
| DO3MHA-11 | 2026-09-05 12:40:54 | 48.43064 | 10.58092 | 125° | 44km/h | 18603m | -8.7m/s | -56.5°C | 4.7% | 73.1hPa | 2.5V | 08:14:00 | 02:11:53 | 00:00:00 | |
| DJ8HS-15 | 2026-09-05 12:40:53 | 48.43072 | 10.58077 | 129° | 47km/h | 18611m | -7.9m/s | -56.4°C | 4.6% | 73.0hPa | 2.5V | 00:00:00 | 02:11:52 | 00:00:00 | |
| NBG1-10 | 2026-09-05 12:40:52 | 48.43077 | 10.58066 | 123° | 53km/h | 18619m | -7.3m/s | -56.3°C | 4.6% | 72.9hPa | 2.5V | 00:00:00 | 02:11:51 | 00:00:00 | |
| DL1NUX | 2026-09-05 12:40:50 | 48.43053 | 10.58000 | 60° | 68km/h | 18664m | -8.3m/s | -55.9°C | 4.3% | 72.4hPa | 2.5V | 08:14:08 | 02:11:45 | 00:00:00 | |
| DK7TD | 2026-09-05 12:40:47 | 48.43061 | 10.58020 | 55° | 55km/h | 18657m | -7.3m/s | -56°C | 0.7% | 72.5hPa | 2.5V | 08:14:08 | 02:11:46 | 00:00:00 | |
| DL9SK-14 | 2026-09-05 12:40:47 | 48.43053 | 10.58000 | 60° | 68km/h | 18665m | -8.3m/s | -55.9°C | 1.2% | 72.4hPa | 2.6V | 00:00:00 | 00:00:00 | 00:00:00 | |
| AZAK | 2026-09-05 12:40:44 | 48.43038 | 10.57948 | 78° | 78km/h | 18682m | -7.8m/s | -55.6°C | 1.2% | 72.3hPa | 2.6V | 00:00:00 | 00:00:00 | 00:00:00 | |
| DM7RM-13 | 2026-09-05 12:40:43 | 48.43038 | 10.57948 | 78° | 78km/h | 18682m | -7.8m/s | -55.6°C | 1.2% | 72.3hPa | 2.6V | 00:00:00 | 00:00:00 | 00:00:00 | |
| DB0ND-19 | 2026-09-05 12:40:40 | 48.43046 | 10.57834 | 113° | 68km/h | 18710m | -8.4m/s | -55.4°C | 1.2% | 72.0hPa | 2.6V | 00:00:00 | 00:00:00 | 00:00:00 | |
| DO3MHA-12 | 2026-09-05 12:40:39 | 48.43053 | 10.57812 | 122° | 40km/h | 18719m | -8.1m/s | -55.4°C | 4.2% | 71.8hPa | 2.6V | 00:00:00 | 02:11:38 | 00:00:00 | |
| DL1NUX | 2026-09-05 12:40:38 | 48.43077 | 10.57772 | 109° | 15km/h | 18750m | -8m/s | -55.6°C | 4.4% | 71.4hPa | 2.6V | 08:14:19 | 02:11:34 | 00:00:00 | |
| DK7TD | 2026-09-05 12:40:36 | 48.43074 | 10.57778 | 137° | 24km/h | 18742m | -8.5m/s | -55.6°C | 0.7% | 71.5hPa | 2.7V | 08:15:50 | 02:11:35 | 00:00:00 | |
| DK5PH-5 | 2026-09-05 12:40:35 | 48.43077 | 10.57772 | 110° | 53km/h | 18751m | -7.9m/s | -55.6°C | 4.4% | 71.4hPa | 2.6V | 00:00:00 | 02:11:34 | 00:00:00 | |
| DO3MHA-11 | 2026-09-05 12:40:34 | 48.43076 | 10.57767 | 62° | 60km/h | 18758m | -6.8m/s | -55.6°C | 4.4% | 71.3hPa | 2.6V | 00:00:00 | 02:11:33 | 00:00:00 | |
| DJ8HS-15 | 2026-09-05 12:40:33 | 48.43072 | 10.57759 | 47° | 55km/h | 18766m | -7.7m/s | -55.5°C | 4.4% | 71.2hPa | 2.6V | 00:00:00 | 02:11:32 | 00:00:00 | |
| OE5DXL-15 | 2026-09-05 12:40:32 | 48.43066 | 10.57747 | 55° | 53km/h | 18773m | -7.0m/s | -55.2°C | 4.2% | 71.1hPa | 2.6V | 00:00:00 | 00:00:00 | 00:00:00 | |
| DF3TZ-5 | 2026-09-05 12:40:31 | 48.43060 | 10.57731 | 64° | 53km/h | 18780m | -5.4m/s | -55.2°C | 1.2% | 71.1hPa | 2.6V | 00:00:00 | 00:00:00 | 00:00:00 | |
| DO3MHA-12 | 2026-09-05 12:40:29 | 48.43051 | 10.57683 | 83° | 60km/h | 18793m | -6.6m/s | -55.0°C | 4.1% | 71.0hPa | 2.6V | 00:00:00 | 02:11:28 | 00:00:00 | |
| DL1NUX | 2026-09-05 12:40:28 | 48.43069 | 10.57570 | 125° | 73km/h | 18824m | -7.1m/s | -54.8°C | 4% | 70.6hPa | 2.6V | 08:14:29 | 02:11:24 | 00:00:00 | |
| DK7TD | 2026-09-05 12:40:26 | 48.43060 | 10.57595 | 114° | 78km/h | 18816m | -8.6m/s | -54.9°C | 0.5% | 70.7hPa | 2.5V | 08:15:50 | 02:11:25 | 00:00:00 | |
| BIOWL1-15 | 2026-09-05 12:40:25 | 48.43070 | 10.57570 | 126° | 73km/h | 18824m | -7.1m/s | 0°C | 0% | 0hPa | 2.6V | 18:12:15 | 02:11:24 | 00:00:00 | |
| DO9HM | 2026-09-05 12:40:25 | 48.43069 | 10.57570 | 126° | 73km/h | 18824m | -7.1m/s | -54.8°C | 1.1% | 70.6hPa | 2.6V | 08:14:00 | 00:00:00 | 00:00:00 | |
| DO3MHA-11 | 2026-09-05 12:40:24 | 48.43081 | 10.57550 | 137° | 49km/h | 18832m | -6.9m/s | -54.7°C | 4.0% | 70.5hPa | 2.6V | 00:00:00 | 02:11:23 | 00:00:00 | |
| DF7PN | 2026-09-05 12:40:22 | 48.43104 | 10.57525 | 149° | 44km/h | 18847m | -8.6m/s | -54.7°C | 1.1% | 70.3hPa | 2.5V | 00:00:00 | 00:00:00 | 00:00:00 | |
| OE5MMP-10 | 2026-09-05 12:40:20 | 48.43118 | 10.57513 | 135° | 49km/h | 18862m | -6.4m/s | -54.7°C | 4.1% | 70.2hPa | 2.5V | 00:00:00 | 02:11:19 | 00:00:00 | |
| DO3MHA-12 | 2026-09-05 12:40:19 | 48.43119 | 10.57508 | 79° | 58km/h | 18868m | -7.2m/s | -54.8°C | 4.1% | 70.1hPa | 2.5V | 08:14:00 | 02:11:18 | 00:00:00 | |
| DL1NUX | 2026-09-05 12:40:17 | 48.43116 | 10.57365 | 113° | 82km/h | 18920m | -7.3m/s | -55°C | 4% | 69.5hPa | 2.6V | 08:14:42 | 02:11:11 | 00:00:00 | |
| DB0UT-7 | 2026-09-05 12:40:17 | 48.43113 | 10.57488 | 65° | 53km/h | 18884m | -7.9m/s | -54.8°C | 4.1% | 69.9hPa | 2.6V | 00:00:00 | 02:11:16 | 00:00:00 | |
| DM0DOS-11 | 2026-09-05 12:40:16 | 48.43126 | 10.57339 | 123° | 80km/h | 18927m | -8.2m/s | -54.9°C | 4% | 69.4hPa | 2.6V | 08:14:43 | 02:11:10 | 00:00:00 | |
| BIOWL1-15 | 2026-09-05 12:40:15 | 48.43106 | 10.57449 | 85° | 62km/h | 18900m | -6.9m/s | 0°C | 0% | 0hPa | 2.7V | 18:12:15 | 02:11:14 | 00:00:00 | |
| OE5DRO-10 | 2026-09-05 12:40:14 | 48.43106 | 10.57423 | 95° | 58km/h | 18907m | -6.7m/s | -54.9°C | 4.0% | 69.7hPa | 2.7V | 00:00:00 | 00:00:00 | 00:00:00 | |
| DJ8HS-15 | 2026-09-05 12:40:13 | 48.43109 | 10.57394 | 103° | 58km/h | 18913m | -6.6m/s | -54.9°C | 4.0% | 69.6hPa | 2.5V | 08:14:00 | 02:11:12 | 00:00:00 | |
| AZAK | 2026-09-05 12:40:12 | 48.43116 | 10.57365 | 114° | 82km/h | 18920m | -7.3m/s | -55.0°C | 1.1% | 69.6hPa | 2.7V | 00:00:00 | 00:00:00 | 00:00:00 | |
| BAUMI2-15 | 2026-09-05 12:40:10 | 48.43138 | 10.57316 | 135° | 62km/h | 18936m | -8.8m/s | -54.9°C | 4.1% | 69.3hPa | 2.7V | 00:00:00 | 02:11:09 | 00:00:00 | |
| DO3MHA-12 | 2026-09-05 12:40:09 | 48.43151 | 10.57299 | 144° | 40km/h | 18945m | -8.7m/s | -54.8°C | 4.1% | 69.3hPa | 2.7V | 00:00:00 | 02:11:08 | 00:00:00 | |
| DL1NUX | 2026-09-05 12:40:05 | 48.43180 | 10.57248 | 76° | 44km/h | 18998m | -7m/s | -54.6°C | 3.9% | 68.7hPa | 2.7V | 08:14:52 | 02:11:01 | 00:00:00 | |
| DK7TD | 2026-09-05 12:40:05 | 48.43185 | 10.57270 | 74° | 16km/h | 18983m | -7.9m/s | -54.6°C | 0.5% | 68.9hPa | 2.6V | 08:15:50 | 02:11:03 | 00:00:00 | |
| DB0NH | 2026-09-05 12:40:02 | 48.43180 | 10.57248 | 77° | 57km/h | 18998m | -7.0m/s | -54.6°C | 3.9% | 68.7hPa | 2.5V | 00:00:00 | 02:11:01 | 00:00:00 | |
| DF3TZ-5 | 2026-09-05 12:40:00 | 48.43177 | 10.57177 | 96° | 75km/h | 19020m | -8.0m/s | -54.7°C | 1.1% | 68.5hPa | 2.5V | 00:00:00 | 00:00:00 | 00:00:00 | |
| DO3MHA-12 | 2026-09-05 12:39:59 | 48.43177 | 10.57177 | 97° | 58km/h | 19020m | -8.0m/s | -54.6°C | 3.9% | 68.5hPa | 2.5V | 00:00:00 | 02:10:58 | 00:00:00 | |
| DL1NUX | 2026-09-05 12:39:57 | 48.43247 | 10.57032 | 149° | 40km/h | 19073m | -6.2m/s | -54.9°C | 4.2% | 68hPa | 2.5V | 08:15:02 | 02:10:51 | 00:00:00 | |
| OE5MMP-10 | 2026-09-05 12:39:55 | 48.43211 | 10.57072 | 135° | 51km/h | 19050m | -8.8m/s | -54.7°C | 4.0% | 68.1hPa | 2.7V | 00:00:00 | 02:10:54 | 00:00:00 | |
| DM0DOS-11 | 2026-09-05 12:39:53 | 48.43237 | 10.57041 | 147° | 55km/h | 19066m | -7m/s | -54.8°C | 4.2% | 68hPa | 2.7V | 08:15:01 | 02:10:52 | 00:00:00 | |
| DK7TD | 2026-09-05 12:39:53 | 48.43237 | 10.57041 | 148° | 55km/h | 19066m | -7m/s | -54.8°C | 0.6% | 68hPa | 2.7V | 08:15:50 | 02:10:52 | 00:00:00 | |
| DL1ZP-14 | 2026-09-05 12:39:53 | 48.43247 | 10.57032 | 149° | 38km/h | 19073m | -6.2m/s | -54.9°C | 1.1% | 68.0hPa | 2.5V | 00:00:00 | 00:00:00 | 00:00:00 | |
| DF7PN | 2026-09-05 12:39:51 | 48.43254 | 10.57025 | 142° | 26km/h | 19080m | -7.0m/s | -54.9°C | 1.2% | 67.9hPa | 2.6V | 00:00:00 | 00:00:00 | 00:00:00 | |
| DL6DJ-15 | 2026-09-05 12:39:48 | 48.43258 | 10.56998 | 84° | 38km/h | 19102m | -7.4m/s | -55.1°C | 1.2% | 67.6hPa | 2.6V | 00:00:00 | 00:00:00 | 00:00:00 | |
| DM0DOS-11 | 2026-09-05 12:39:47 | 48.43262 | 10.56876 | 109° | 80km/h | 19141m | -6.7m/s | -55.1°C | 4.4% | 67.2hPa | 2.6V | 08:15:11 | 02:10:42 | 00:00:00 | |
| DL9SK-14 | 2026-09-05 12:39:45 | 48.43257 | 10.56905 | 100° | 77km/h | 19134m | -7.3m/s | -55.2°C | 1.2% | 67.3hPa | 2.6V | 00:00:00 | 00:00:00 | 00:00:00 | |
| DM7RM-13 | 2026-09-05 12:39:44 | 48.43255 | 10.56932 | 92° | 71km/h | 19126m | -8.4m/s | -55.3°C | 1.2% | 67.4hPa | 2.6V | 00:00:00 | 00:00:00 | 00:00:00 | |
| DL1NUX | 2026-09-05 12:39:43 | 48.43271 | 10.56847 | 119° | 82km/h | 19148m | -7.6m/s | -55.1°C | 4.4% | 67.2hPa | 2.6V | 08:15:12 | 02:10:41 | 00:00:00 | |
| DK7TD | 2026-09-05 12:39:42 | 48.43271 | 10.56847 | 120° | 82km/h | 19148m | -7.6m/s | -55.1°C | 0.7% | 67.2hPa | 2.6V | 08:15:50 | 02:10:41 | 00:00:00 | |
| DO3MHA-11 | 2026-09-05 12:39:42 | 48.43271 | 10.56847 | 120° | 49km/h | 19148m | -7.5m/s | -55.1°C | 4.4% | 67.1hPa | 2.6V | 00:00:00 | 02:10:41 | 00:00:00 | |
| DO3MHA-12 | 2026-09-05 12:39:39 | 48.43308 | 10.56780 | 141° | 31km/h | 19173m | -8.4m/s | -54.7°C | 4.4% | 66.9hPa | 2.6V | 00:00:00 | 02:10:38 | 00:00:00 | |
| SO1NDE-10 | 2026-09-05 12:39:38 | 48.43321 | 10.56767 | 149° | 40km/h | 19182m | -7.0m/s | -54.2°C | 4.1% | 66.8hPa | 2.6V | 00:00:00 | 02:10:37 | 00:00:00 | |
| DL1NUX | 2026-09-05 12:39:37 | 48.43361 | 10.56742 | 149° | 9km/h | 19229m | -8.9m/s | -53.4°C | 3.7% | 66.3hPa | 2.6V | 08:15:22 | 02:10:31 | 00:00:00 | |
| DM0DOS-11 | 2026-09-05 12:39:36 | 48.43359 | 10.56744 | 164° | 13km/h | 19219m | -9.1m/s | -53.3°C | 3.7% | 66.4hPa | 2.6V | 08:15:21 | 02:10:32 | 00:00:00 | |
| DK7TD | 2026-09-05 12:39:31 | 48.43363 | 10.56739 | 104° | 13km/h | 19237m | -8.6m/s | -53.4°C | 0.4% | 66.2hPa | 2.6V | 08:15:50 | 02:10:30 | 00:00:00 | |
| DO3MHA-12 | 2026-09-05 12:39:29 | 48.43361 | 10.56719 | 79° | 58km/h | 19254m | -8.3m/s | -53.2°C | 3.7% | 66.0hPa | 2.5V | 00:00:00 | 02:10:28 | 00:00:00 | |
| DM0DOS-11 | 2026-09-05 12:39:26 | 48.43430 | 10.56586 | 172° | 60km/h | 19319m | -8.7m/s | -53.3°C | 3.8% | 65.3hPa | 2.5V | 08:15:33 | 02:10:20 | 00:00:00 | |
| DL1NUX | 2026-09-05 12:39:23 | 48.43415 | 10.56591 | 162° | 66km/h | 19311m | -8.4m/s | -53.2°C | 3.7% | 65.5hPa | 2.5V | 08:15:32 | 02:10:21 | 00:00:00 | |
| DK7TD | 2026-09-05 12:39:21 | 48.43430 | 10.56586 | 172° | 60km/h | 19320m | -8.7m/s | -53.3°C | 0.4% | 65.3hPa | 2.5V | 08:15:50 | 02:10:20 | 00:00:00 | |
| DF7PN | 2026-09-05 12:39:20 | 48.43456 | 10.56589 | 196° | 40km/h | 19338m | -9.2m/s | -53.4°C | 1.0% | 65.2hPa | 2.6V | 00:00:00 | 00:00:00 | 00:00:00 | |
| DO3MHA-12 | 2026-09-05 12:39:19 | 48.43456 | 10.56588 | 197° | 33km/h | 19338m | -9.1m/s | -53.3°C | 3.8% | 65.2hPa | 2.6V | 00:00:00 | 02:10:18 | 00:00:00 | |
| OE5DRO-10 | 2026-09-05 12:39:18 | 48.43469 | 10.56599 | 226° | 37km/h | 19355m | -8.4m/s | -53.2°C | 3.7% | 65.0hPa | 2.7V | 08:15:00 | 00:00:00 | 00:00:00 | |
| DL1NUX | 2026-09-05 12:39:17 | 48.43458 | 10.56567 | 81° | 47km/h | 19396m | -9.1m/s | -53.5°C | 3.6% | 64.6hPa | 2.6V | 08:15:42 | 02:10:11 | 00:00:00 | |
| DB0UT-7 | 2026-09-05 12:39:17 | 48.43469 | 10.56599 | 226° | 38km/h | 19355m | -8.4m/s | -53.2°C | 3.7% | 65.0hPa | 2.7V | 00:00:00 | 02:10:16 | 00:00:00 | |
| DM0DOS-11 | 2026-09-05 12:39:16 | 48.43458 | 10.56548 | 93° | 55km/h | 19405m | -9.2m/s | -53.6°C | 3.6% | 64.5hPa | 2.7V | 08:15:43 | 02:10:10 | 00:00:00 | |
| DK7TD | 2026-09-05 12:39:11 | 48.43461 | 10.56527 | 108° | 58km/h | 19415m | -9m/s | -53.6°C | 0.3% | 64.4hPa | 2.7V | 08:15:50 | 02:10:09 | 00:00:00 | |
| AZAK | 2026-09-05 12:39:10 | 48.43460 | 10.56527 | 109° | 58km/h | 19415m | -9.0m/s | -53.6°C | 1.0% | 64.4hPa | 2.7V | 00:00:00 | 00:00:00 | 00:00:00 | |
| DO3MHA-12 | 2026-09-05 12:39:09 | 48.43467 | 10.56507 | 125° | 40km/h | 19424m | -8.5m/s | -53.6°C | 3.7% | 64.3hPa | 2.7V | 00:00:00 | 02:10:08 | 00:00:00 | |
| SO1NDE-10 | 2026-09-05 12:39:08 | 48.43477 | 10.56490 | 136° | 46km/h | 19433m | -8.4m/s | -53.7°C | 3.7% | 64.2hPa | 2.7V | 00:00:00 | 02:10:07 | 00:00:00 | |
| DB0ND-19 | 2026-09-05 12:39:07 | 48.43488 | 10.56477 | 150° | 55km/h | 19441m | -8.8m/s | -53.8°C | 1.0% | 64.2hPa | 2.7V | 00:00:00 | 00:00:00 | 00:00:00 | |
| DK5PH-5 | 2026-09-05 12:39:05 | 48.43513 | 10.56468 | 184° | 40km/h | 19457m | -8.0m/s | -53.9°C | 3.8% | 64.0hPa | 2.7V | 00:00:00 | 02:10:04 | 00:00:00 | |
| DM0DOS-11 | 2026-09-05 12:39:04 | 48.43528 | 10.56500 | 10° | 24km/h | 19511m | -8.4m/s | -54.4°C | 3.8% | 63.5hPa | 2.7V | 08:15:55 | 02:09:58 | 00:00:00 | |
| DL1NUX | 2026-09-05 12:39:03 | 48.43534 | 10.56486 | 246° | 24km/h | 19484m | -9.4m/s | -54.1°C | 3.9% | 63.8hPa | 2.6V | 08:15:52 | 02:10:01 | 00:00:00 | |
| DK7TD | 2026-09-05 12:39:00 | 48.43533 | 10.56499 | 331° | 16km/h | 19502m | -8.4m/s | -54.3°C | 0.4% | 63.6hPa | 2.7V | 08:16:41 | 02:09:59 | 00:00:00 | |
| DF3TZ-5 | 2026-09-05 12:38:58 | 48.43514 | 10.56485 | 51° | 44km/h | 19528m | -9.1m/s | -54.3°C | 1.0% | 63.3hPa | 2.7V | 00:00:00 | 00:00:00 | 00:00:00 | |
| DL1NUX | 2026-09-05 12:38:57 | 48.43528 | 10.56388 | 154° | 46km/h | 19582m | -7m/s | -54.6°C | 4% | 62.9hPa | 2.7V | 08:16:03 | 02:09:50 | 00:00:00 | |
| DM0DOS-11 | 2026-09-05 12:38:53 | 48.43548 | 10.56384 | 197° | 31km/h | 19597m | -8m/s | -54.8°C | 4.1% | 62.6hPa | 2.6V | 08:16:05 | 02:09:48 | 00:00:00 | |
| DK7TD | 2026-09-05 12:38:49 | 48.43548 | 10.56384 | 198° | 31km/h | 19597m | -8m/s | -54.8°C | 0.6% | 62.6hPa | 2.6V | 08:16:41 | 02:09:48 | 00:00:00 | |
| DF7PN | 2026-09-05 12:38:49 | 48.43556 | 10.56398 | 267° | 20km/h | 19613m | -8.8m/s | -54.9°C | 1.2% | 62.5hPa | 2.7V | 00:00:00 | 00:00:00 | 00:00:00 | |
| DL6DJ-15 | 2026-09-05 12:38:46 | 48.43555 | 10.56405 | 310° | 22km/h | 19622m | -9.3m/s | -54.9°C | 1.1% | 62.4hPa | 2.7V | 00:00:00 | 00:00:00 | 00:00:00 | |
| AZAK | 2026-09-05 12:38:44 | 48.43542 | 10.56410 | 10° | 31km/h | 19641m | -8.0m/s | -55.1°C | 1.1% | 62.2hPa | 2.7V | 00:00:00 | 00:00:00 | 00:00:00 | |
| DL9SK-14 | 2026-09-05 12:38:43 | 48.43527 | 10.56395 | 49° | 46km/h | 19658m | -8.4m/s | -55.3°C | 1.1% | 62.0hPa | 2.7V | 00:00:00 | 00:00:00 | 00:00:00 | |
| DO3MHA-11 | 2026-09-05 12:38:42 | 48.43527 | 10.56395 | 50° | 47km/h | 19658m | -8.3m/s | -55.2°C | 4.1% | 62.0hPa | 2.7V | 00:00:00 | 02:09:41 | 00:00:00 | |
| DM0DOS-11 | 2026-09-05 12:38:41 | 48.43518 | 10.56339 | 96° | 58km/h | 19683m | -8m/s | -55.2°C | 4% | 61.8hPa | 2.7V | 08:16:15 | 02:09:38 | 00:00:00 | |
| DL1NUX | 2026-09-05 12:38:40 | 48.43549 | 10.56278 | 156° | 42km/h | 19721m | -9.9m/s | -55.2°C | 4.2% | 61.5hPa | 2.6V | 08:16:19 | 02:09:34 | 00:00:00 | |
| DK7TD | 2026-09-05 12:38:38 | 48.43522 | 10.56318 | 113° | 58km/h | 19691m | -8.9m/s | -55.2°C | 0.6% | 61.7hPa | 2.7V | 08:16:41 | 02:09:37 | 00:00:00 | |
| SO1NDE-10 | 2026-09-05 12:38:38 | 48.43522 | 10.56318 | 113° | 58km/h | 19691m | -8.9m/s | -55.2°C | 4.1% | 61.6hPa | 2.7V | 00:00:00 | 02:09:37 | 00:00:00 | |
| OE5MMP-10 | 2026-09-05 12:38:36 | 48.43538 | 10.56286 | 142° | 42km/h | 19711m | -10.2m/s | -55.2°C | 4.2% | 61.5hPa | 2.6V | 08:16:00 | 02:09:35 | 00:00:00 | |
| DK5PH-5 | 2026-09-05 12:38:35 | 48.43548 | 10.56278 | 157° | 44km/h | 19721m | -9.9m/s | -55.2°C | 4.2% | 61.4hPa | 2.5V | 00:00:00 | 02:09:34 | 00:00:00 | |
| DM0DOS-11 | 2026-09-05 12:38:34 | 48.43556 | 10.56277 | 32° | 35km/h | 19769m | -7.9m/s | -55.1°C | 4.2% | 61hPa | 2.5V | 08:16:25 | 02:09:28 | 00:00:00 | |
| DK7TD | 2026-09-05 12:38:22 | 48.43543 | 10.56131 | 119° | 68km/h | 19829m | -9.5m/s | -55.1°C | 0.7% | 60.4hPa | 2.6V | 08:16:41 | 02:09:21 | 00:00:00 | |
| DO3MHA-11 | 2026-09-05 12:38:22 | 48.43543 | 10.56131 | 119° | 35km/h | 19829m | -9.5m/s | -55.1°C | 4.1% | 60.3hPa | 2.6V | 00:00:00 | 02:09:21 | 00:00:00 | |
| DL1NUX | 2026-09-05 12:38:20 | 48.43574 | 10.56089 | 158° | 40km/h | 19857m | -8.8m/s | -54.9°C | 4.1% | 60.1hPa | 2.7V | 08:16:35 | 02:09:18 | 00:00:00 | |
| DK7TD | 2026-09-05 12:38:12 | 48.43568 | 10.56066 | 55° | 49km/h | 19916m | -9.7m/s | -55.2°C | 0.6% | 59.5hPa | 2.7V | 08:18:23 | 02:09:11 | 00:00:00 | |
| DL9SK-14 | 2026-09-05 12:38:12 | 48.43562 | 10.56048 | 71° | 57km/h | 19925m | -9.6m/s | -55.2°C | 1.2% | 59.5hPa | 2.6V | 00:00:00 | 00:00:00 | 00:00:00 | |
| DL1NUX | 2026-09-05 12:38:10 | 48.43561 | 10.56002 | 101° | 68km/h | 19943m | -9.8m/s | -55.2°C | 4.1% | 59.3hPa | 2.6V | 08:16:45 | 02:09:08 | 00:00:00 | |
| DK7TD | 2026-09-05 12:38:02 | 48.43631 | 10.55935 | 214° | 29km/h | 20010m | -9.2m/s | -55.4°C | 0.7% | 58.7hPa | 2.7V | 08:18:23 | 02:09:01 | 00:00:00 | |
| DO3MHA-11 | 2026-09-05 12:38:02 | 48.43631 | 10.55935 | 215° | 37km/h | 20010m | -9.1m/s | -55.4°C | 4.3% | 58.6hPa | 2.7V | 00:00:00 | 02:09:01 | 00:00:00 | |
| DM0DOS-11 | 2026-09-05 12:38:01 | 48.43615 | 10.55930 | 62° | 44km/h | 20061m | -8.7m/s | -55.5°C | 4.1% | 58.2hPa | 2.7V | 08:16:58 | 02:08:55 | 00:00:00 | |
| OE5DRO-10 | 2026-09-05 12:38:01 | 48.43636 | 10.55942 | 244° | 38km/h | 20019m | -8.6m/s | -55.3°C | 4.2% | 58.6hPa | 2.5V | 00:00:00 | 00:00:00 | 00:00:00 | |
| DL1NUX | 2026-09-05 12:38:00 | 48.43633 | 10.55951 | 350° | 22km/h | 20035m | -9m/s | -55.4°C | 4.2% | 58.5hPa | 2.5V | 08:16:55 | 02:08:58 | 00:00:00 | |
| DK7TD | 2026-09-05 12:37:52 | 48.43625 | 10.55854 | 132° | 58km/h | 20095m | -10.1m/s | -55.3°C | 0.6% | 57.9hPa | 2.6V | 08:18:23 | 02:08:51 | 00:00:00 | |
| DO3MHA-11 | 2026-09-05 12:37:52 | 48.43625 | 10.55854 | 132° | 38km/h | 20096m | -10.0m/s | -55.3°C | 4.1% | 57.9hPa | 2.6V | 08:17:00 | 02:08:51 | 00:00:00 | |
| DL1NUX | 2026-09-05 12:37:51 | 48.43661 | 10.55830 | 181° | 47km/h | 20124m | -10m/s | -55.4°C | 4.2% | 57.7hPa | 2.7V | 08:17:05 | 02:08:48 | 00:00:00 | |
| DL1ZP-14 | 2026-09-05 12:37:49 | 48.43672 | 10.55834 | 201° | 40km/h | 20134m | -10.0m/s | -55.4°C | 1.2% | 57.6hPa | 2.6V | 00:00:00 | 00:00:00 | 00:00:00 | |
| DM0DOS-11 | 2026-09-05 12:37:48 | 48.43685 | 10.55851 | 248° | 27km/h | 20153m | -9.7m/s | -55.4°C | 4.3% | 57.5hPa | 2.6V | 08:17:08 | 02:08:45 | 00:00:00 | |
| DF7PN | 2026-09-05 12:37:47 | 48.43685 | 10.55851 | 248° | 26km/h | 20153m | -9.7m/s | -55.4°C | 1.2% | 57.5hPa | 2.7V | 00:00:00 | 00:00:00 | 00:00:00 | |
| DL6DJ-15 | 2026-09-05 12:37:45 | 48.43683 | 10.55865 | 331° | 18km/h | 20171m | -9.2m/s | -55.4°C | 1.2% | 57.3hPa | 2.7V | 00:00:00 | 00:00:00 | 00:00:00 | |
| DK7TD | 2026-09-05 12:37:38 | 48.43663 | 10.55795 | 112° | 57km/h | 20228m | -10m/s | -55.6°C | 0.7% | 56.8hPa | 2.7V | 08:18:23 | 02:08:37 | 00:00:00 | |
| DK5PH-5 | 2026-09-05 12:37:35 | 48.43693 | 10.55753 | 162° | 42km/h | 20257m | -9.0m/s | -55.4°C | 4.2% | 56.5hPa | 2.6V | 08:17:00 | 02:08:34 | 00:00:00 | |
| NBG1-10 | 2026-09-05 12:37:34 | 48.43706 | 10.55750 | 185° | 42km/h | 20266m | -9.0m/s | -55.3°C | 4.2% | 56.4hPa | 2.7V | 08:17:00 | 02:08:33 | 00:00:00 | |
| DM0DOS-11 | 2026-09-05 12:37:32 | 48.43729 | 10.55784 | 293° | 26km/h | 20302m | -9.9m/s | -55.3°C | 4.2% | 56.1hPa | 2.6V | 08:17:24 | 02:08:29 | 00:00:00 | |
| DO3MHA-11 | 2026-09-05 12:37:32 | 48.43725 | 10.55763 | 228° | 40km/h | 20284m | -9.0m/s | -55.3°C | 4.3% | 56.3hPa | 2.6V | 00:00:00 | 02:08:31 | 00:00:00 | |
| DM7RM-13 | 2026-09-05 12:37:31 | 48.43725 | 10.55763 | 229° | 33km/h | 20284m | -9.0m/s | -55.3°C | 1.2% | 56.3hPa | 2.6V | 08:17:00 | 00:00:00 | 00:00:00 | |
| DL1NUX | 2026-09-05 12:37:29 | 48.43724 | 10.55791 | 329° | 27km/h | 20312m | -10m/s | -55.3°C | 4.1% | 56.1hPa | 2.6V | 08:17:25 | 02:08:28 | 00:00:00 | |
| DF1GD-15 | 2026-09-05 12:37:29 | 48.43724 | 10.55791 | 330° | 27km/h | 20312m | -10.0m/s | -55.3°C | 1.2% | 56.1hPa | 2.7V | 08:17:00 | 00:00:00 | 00:00:00 | |
| DM0DOS-11 | 2026-09-05 12:37:25 | 48.43715 | 10.55685 | 159° | 46km/h | 20402m | -9.2m/s | -55.7°C | 4.4% | 55.4hPa | 2.7V | 08:17:34 | 02:08:19 | 00:00:00 | |
| DK7TD | 2026-09-05 12:37:24 | 48.43692 | 10.55728 | 103° | 55km/h | 20372m | -9.6m/s | -55.6°C | 0.6% | 55.6hPa | 2.6V | 08:18:23 | 02:08:22 | 00:00:00 | |
| OE5DRO-10 | 2026-09-05 12:37:23 | 48.43692 | 10.55728 | 104° | 44km/h | 20372m | -9.6m/s | -55.5°C | 4.1% | 55.5hPa | 2.6V | 00:00:00 | 00:00:00 | 00:00:00 | |
| DO3MHA-11 | 2026-09-05 12:37:22 | 48.43697 | 10.55709 | 121° | 38km/h | 20382m | -9.7m/s | -55.6°C | 4.2% | 55.5hPa | 2.6V | 00:00:00 | 02:08:21 | 00:00:00 | |
| DL1NUX | 2026-09-05 12:37:19 | 48.43736 | 10.55686 | 204° | 37km/h | 20422m | -8.6m/s | -55.8°C | 4.5% | 55.2hPa | 2.6V | 08:17:36 | 02:08:17 | 00:00:00 | |
| DO3MHA-12 | 2026-09-05 12:37:19 | 48.43726 | 10.55682 | 182° | 37km/h | 20412m | -8.6m/s | -55.7°C | 4.4% | 55.3hPa | 2.6V | 08:17:00 | 02:08:18 | 00:00:00 | |
| OE5WHR-10 | 2026-09-05 12:37:18 | 48.43735 | 10.55686 | 205° | 44km/h | 20422m | -8.5m/s | -55.8°C | 4.5% | 55.2hPa | 2.6V | 08:17:00 | 00:00:00 | 00:00:00 | |
| DB0UT-7 | 2026-09-05 12:37:17 | 48.43742 | 10.55693 | 231° | 46km/h | 20431m | -8.2m/s | -55.8°C | 4.6% | 55.1hPa | 2.7V | 00:00:00 | 02:08:16 | 00:00:00 | |
| DF7PN | 2026-09-05 12:37:16 | 48.43743 | 10.55714 | 297° | 27km/h | 20449m | -8.4m/s | -55.9°C | 1.2% | 55.0hPa | 2.7V | 00:00:00 | 00:00:00 | 00:00:00 | |
| DO9HM | 2026-09-05 12:37:14 | 48.43743 | 10.55714 | 299° | 27km/h | 20449m | -8.4m/s | -55.9°C | 1.3% | 55.0hPa | 2.7V | 08:18:00 | 00:00:00 | 00:00:00 | |
| AZAK | 2026-09-05 12:37:13 | 48.43730 | 10.55725 | 356° | 35km/h | 20468m | -8.5m/s | -55.7°C | 1.2% | 54.8hPa | 2.7V | 00:00:00 | 00:00:00 | 00:00:00 | |
| DM0DOS-11 | 2026-09-05 12:37:12 | 48.43703 | 10.55702 | 52° | 53km/h | 20495m | -7.6m/s | -55.4°C | 4.1% | 54.6hPa | 2.7V | 08:17:44 | 02:08:09 | 00:00:00 | |
| DO3MHA-11 | 2026-09-05 12:37:12 | 48.43721 | 10.55723 | 18° | 47km/h | 20477m | -8.3m/s | -55.5°C | 4.3% | 54.7hPa | 2.7V | 00:00:00 | 02:08:11 | 00:00:00 | |
| DM7RM-13 | 2026-09-05 12:37:10 | 48.43703 | 10.55701 | 53° | 53km/h | 20495m | -7.6m/s | -55.4°C | 1.2% | 54.6hPa | 2.7V | 08:18:00 | 00:00:00 | 00:00:00 | |
| DL1NUX | 2026-09-05 12:37:09 | 48.43708 | 10.55609 | 140° | 49km/h | 20537m | -7.6m/s | -55.2°C | 4.2% | 54.2hPa | 2.7V | 08:17:49 | 02:08:04 | 00:00:00 | |
| DK7TD | 2026-09-05 12:37:07 | 48.43694 | 10.55641 | 103° | 55km/h | 20520m | -8.1m/s | -55.3°C | 0.6% | 54.4hPa | 2.6V | 08:18:23 | 02:08:06 | 00:00:00 | |
| DK5PH-5 | 2026-09-05 12:37:05 | 48.43708 | 10.55609 | 141° | 47km/h | 20537m | -7.6m/s | -55.1°C | 4.2% | 54.2hPa | 2.6V | 00:00:00 | 02:08:04 | 00:00:00 | |
| DM0DOS-11 | 2026-09-05 12:37:04 | 48.43731 | 10.55616 | 343° | 31km/h | 20587m | -9.7m/s | -55.2°C | 4.3% | 53.8hPa | 2.6V | 08:17:55 | 02:07:58 | 00:00:00 | |
| DK7TD | 2026-09-05 12:36:53 | 48.43675 | 10.55532 | 79° | 73km/h | 20647m | -8.6m/s | -55.6°C | 0.7% | 53.2hPa | 2.6V | 08:18:23 | 02:07:52 | 00:00:00 | |
| OE5MMP-10 | 2026-09-05 12:36:53 | 48.43675 | 10.55532 | 80° | 42km/h | 20647m | -8.5m/s | -55.5°C | 4.3% | 53.2hPa | 2.6V | 00:00:00 | 02:07:52 | 00:00:00 | |
| DM0DOS-11 | 2026-09-05 12:36:52 | 48.43691 | 10.55441 | 136° | 49km/h | 20678m | -8m/s | -55.5°C | 4.6% | 53hPa | 2.6V | 08:18:05 | 02:07:48 | 00:00:00 | |
| DO3MHA-12 | 2026-09-05 12:36:49 | 48.43691 | 10.55441 | 137° | 38km/h | 20679m | -8.0m/s | -55.5°C | 4.6% | 52.9hPa | 2.6V | 00:00:00 | 02:07:48 | 00:00:00 | |
| BAUMI2-15 | 2026-09-05 12:36:48 | 48.43700 | 10.55432 | 153° | 46km/h | 20687m | -9.9m/s | -55.3°C | 4.6% | 52.8hPa | 2.7V | 00:00:00 | 02:07:47 | 00:00:00 | |
| DB0UT-7 | 2026-09-05 12:36:47 | 48.43708 | 10.55428 | 176° | 47km/h | 20698m | -11.0m/s | -55.0°C | 4.5% | 52.8hPa | 2.7V | 00:00:00 | 00:00:00 | 00:00:00 | |
| OE5WHR-10 | 2026-09-05 12:36:46 | 48.43712 | 10.55430 | 216° | 40km/h | 20709m | -10.7m/s | -54.8°C | 4.4% | 52.7hPa | 2.7V | 00:00:00 | 00:00:00 | 00:00:00 | |
| OE5DRO-10 | 2026-09-05 12:36:45 | 48.43714 | 10.55434 | 288° | 53km/h | 20719m | -10.8m/s | -54.5°C | 4.2% | 52.7hPa | 2.7V | 00:00:00 | 00:00:00 | 00:00:00 | |
| DM0DOS-11 | 2026-09-05 12:36:44 | 48.43657 | 10.55401 | 58° | 66km/h | 20776m | -9.1m/s | -54.1°C | 3.9% | 52.2hPa | 2.7V | 08:18:15 | 02:07:38 | 00:00:00 | |
| DK7TD | 2026-09-05 12:36:42 | 48.43692 | 10.55441 | 11° | 53km/h | 20750m | -8.9m/s | -54.3°C | 0.6% | 52.4hPa | 2.7V | 08:18:23 | 02:07:41 | 00:00:00 | |
| DO3MHA-11 | 2026-09-05 12:36:42 | 48.43692 | 10.55441 | 12° | 57km/h | 20750m | -8.9m/s | -54.2°C | 4.0% | 52.4hPa | 2.6V | 00:00:00 | 02:07:41 | 00:00:00 | |
| DO3MHA-12 | 2026-09-05 12:36:39 | 48.43657 | 10.55401 | 59° | 44km/h | 20776m | -9.0m/s | -54.1°C | 3.9% | 52.2hPa | 2.6V | 00:00:00 | 02:07:38 | 00:00:00 | |
| DL9SK-14 | 2026-09-05 12:36:38 | 48.43650 | 10.55377 | 71° | 68km/h | 20786m | -10.3m/s | -54.0°C | 1.1% | 52.1hPa | 2.6V | 00:00:00 | 00:00:00 | 00:00:00 | |
| DK5PH-5 | 2026-09-05 12:36:35 | 48.43654 | 10.55308 | 122° | 47km/h | 20814m | -7.9m/s | -53.7°C | 3.8% | 51.8hPa | 2.6V | 00:00:00 | 02:07:34 | 00:00:00 | |
| DJ8HS-15 | 2026-09-05 12:36:33 | 48.43669 | 10.55286 | 156° | 44km/h | 20832m | -10.4m/s | -53.5°C | 3.9% | 51.7hPa | 2.6V | 00:00:00 | 02:07:32 | 00:00:00 | |
| DM0DOS-11 | 2026-09-05 12:36:32 | 48.43674 | 10.55298 | 336° | 31km/h | 20870m | -10.5m/s | -53.7°C | 3.9% | 51.4hPa | 2.6V | 08:18:25 | 02:07:28 | 00:00:00 | |
| DK7TD | 2026-09-05 12:36:32 | 48.43676 | 10.55284 | 190° | 22km/h | 20841m | -8.7m/s | -53.6°C | 0.5% | 51.7hPa | 2.7V | 08:18:23 | 02:07:31 | 00:00:00 | |
| SONCRA | 2026-09-05 12:36:32 | 48.43680 | 10.55287 | 241° | 13km/h | 20850m | -8.3m/s | -53.6°C | 1.0% | 51.6hPa | 2.6V | 00:00:00 | 00:00:00 | 00:00:00 | |
| DO9HM | 2026-09-05 12:36:31 | 48.43679 | 10.55287 | 243° | 13km/h | 20850m | -8.3m/s | -53.6°C | 1.1% | 51.6hPa | 2.6V | 08:18:00 | 00:00:00 | 00:00:00 | |
| BAUMI2-15 | 2026-09-05 12:36:30 | 48.43679 | 10.55292 | 304° | 47km/h | 20860m | -10.6m/s | -53.6°C | 3.9% | 51.5hPa | 2.6V | 00:00:00 | 02:07:29 | 00:00:00 | |
| DO3MHA-12 | 2026-09-05 12:36:29 | 48.43674 | 10.55297 | 337° | 60km/h | 20870m | -10.5m/s | -53.6°C | 3.9% | 51.4hPa | 2.6V | 00:00:00 | 02:07:28 | 00:00:00 | |
| NBG1-10 | 2026-09-05 12:36:28 | 48.43664 | 10.55300 | 360° | 47km/h | 20880m | -9.0m/s | -53.7°C | 3.9% | 51.3hPa | 2.6V | 00:00:00 | 02:07:27 | 00:00:00 | |
| DF1GD-15 | 2026-09-05 12:36:27 | 48.43664 | 10.55300 | 360° | 46km/h | 20880m | -9.1m/s | -53.7°C | 1.1% | 51.4hPa | 2.6V | 08:19:00 | 00:00:00 | 00:00:00 | |
| DM7RM-13 | 2026-09-05 12:36:26 | 48.43653 | 10.55297 | 19° | 49km/h | 20889m | -8.2m/s | -53.8°C | 1.1% | 51.3hPa | 2.6V | 08:19:00 | 00:00:00 | 00:00:00 | |
| DF3TZ-5 | 2026-09-05 12:36:23 | 48.43608 | 10.55196 | 88° | 71km/h | 20934m | -10.8m/s | -54.2°C | 1.1% | 50.9hPa | 2.6V | 00:00:00 | 00:00:00 | 00:00:00 | |
| DM0DOS-11 | 2026-09-05 12:36:22 | 48.43633 | 10.55120 | 145° | 38km/h | 20970m | -9.5m/s | -54.4°C | 4.2% | 50.6hPa | 2.6V | 08:18:36 | 02:07:17 | 00:00:00 | |
| DK7TD | 2026-09-05 12:36:21 | 48.43609 | 10.55170 | 102° | 68km/h | 20944m | -10.2m/s | -54.3°C | 0.6% | 50.8hPa | 2.7V | 08:19:14 | 02:07:20 | 00:00:00 | |
| DO3MHA-12 | 2026-09-05 12:36:19 | 48.43624 | 10.55131 | 137° | 37km/h | 20963m | -8.0m/s | -54.3°C | 4.2% | 50.6hPa | 2.6V | 00:00:00 | 02:07:18 | 00:00:00 | |
| OE5MMP-10 | 2026-09-05 12:36:18 | 48.43633 | 10.55120 | 146° | 46km/h | 20971m | -9.5m/s | -54.3°C | 4.2% | 50.5hPa | 2.6V | 08:18:00 | 02:07:17 | 00:00:00 | |
| DB0UT-7 | 2026-09-05 12:36:17 | 48.43640 | 10.55116 | 181° | 49km/h | 20979m | -11.1m/s | -54.3°C | 4.3% | 50.5hPa | 2.7V | 08:18:00 | 02:07:16 | 00:00:00 | |
| DL1ZP-14 | 2026-09-05 12:36:15 | 48.43646 | 10.55124 | 281° | 16km/h | 21000m | -9.3m/s | -54.5°C | 1.2% | 50.4hPa | 2.5V | 00:00:00 | 00:00:00 | 00:00:00 | |
| DJ8HS-15 | 2026-09-05 12:36:13 | 48.43636 | 10.55133 | 353° | 49km/h | 21018m | -9.2m/s | -54.3°C | 4.2% | 50.1hPa | 2.6V | 00:00:00 | 02:07:12 | 00:00:00 | |
| DM0DOS-11 | 2026-09-05 12:36:12 | 48.43588 | 10.55071 | 77° | 68km/h | 21064m | -9.9m/s | -53.6°C | 3.8% | 49.8hPa | 2.6V | 08:18:46 | 02:07:07 | 00:00:00 | |
| DK7TD | 2026-09-05 12:36:11 | 48.43616 | 10.55126 | 27° | 53km/h | 21035m | -10.3m/s | -54°C | 0.6% | 50.1hPa | 2.7V | 08:19:14 | 02:07:10 | 00:00:00 | |
| AZAK | 2026-09-05 12:36:10 | 48.43616 | 10.55126 | 28° | 53km/h | 21036m | -10.3m/s | -54.0°C | 1.1% | 50.1hPa | 2.6V | 08:19:00 | 00:00:00 | 00:00:00 | |
| DO3MHA-12 | 2026-09-05 12:36:09 | 48.43594 | 10.55095 | 60° | 49km/h | 21055m | -10.0m/s | -53.6°C | 3.8% | 49.8hPa | 2.6V | 00:00:00 | 02:07:08 | 00:00:00 | |
| DL1NUX | 2026-09-05 12:36:08 | 48.43616 | 10.54981 | 166° | 42km/h | 21113m | -9.6m/s | -53.6°C | 4% | 49.4hPa | 2.6V | 08:18:51 | 02:07:02 | 00:00:00 | |
| DK7TD | 2026-09-05 12:36:01 | 48.43632 | 10.54984 | 225° | 24km/h | 21132m | -9.5m/s | -53.6°C | 0.7% | 49.3hPa | 2.7V | 08:19:14 | 02:07:00 | 00:00:00 | |
| SONCRA | 2026-09-05 12:36:00 | 48.43634 | 10.54991 | 270° | 20km/h | 21142m | -10.2m/s | -53.5°C | 1.1% | 49.1hPa | 2.6V | 00:00:00 | 00:00:00 | 00:00:00 | |
| DO3MHA-12 | 2026-09-05 12:35:59 | 48.43632 | 10.54998 | 320° | 58km/h | 21152m | -10.4m/s | -53.4°C | 4.1% | 49.0hPa | 2.6V | 00:00:00 | 02:06:58 | 00:00:00 | |
| BAUMI2-15 | 2026-09-05 12:35:57 | 48.43615 | 10.55001 | 13° | 58km/h | 21172m | -10.2m/s | -53.2°C | 3.9% | 48.9hPa | 2.6V | 00:00:00 | 02:06:56 | 00:00:00 | |
| NBG1-10 | 2026-09-05 12:35:55 | 48.43592 | 10.54979 | 50° | 51km/h | 21192m | -10.0m/s | -53.3°C | 3.8% | 48.8hPa | 2.7V | 00:00:00 | 02:06:54 | 00:00:00 | |
| DJ8HS-15 | 2026-09-05 12:35:53 | 48.43579 | 10.54932 | 81° | 55km/h | 21212m | -10.3m/s | -53.2°C | 3.8% | 48.6hPa | 2.6V | 00:00:00 | 02:06:52 | 00:00:00 | |
| DM0DOS-11 | 2026-09-05 12:35:51 | 48.43634 | 10.54821 | 196° | 29km/h | 21282m | -9.8m/s | -53.1°C | 4% | 48.1hPa | 2.6V | 08:19:08 | 02:06:45 | 00:00:00 | |
| DK7TD | 2026-09-05 12:35:50 | 48.43590 | 10.54855 | 125° | 68km/h | 21242m | -9.9m/s | -53.2°C | 0.4% | 48.5hPa | 2.7V | 08:19:14 | 02:06:49 | 00:00:00 | |
| HSKMA3-T | 2026-09-05 12:35:49 | 48.43601 | 10.54837 | 141° | 62km/h | 21252m | -10m/s | -53.2°C | 0.6% | 48.4hPa | 2.7V | 08:24:20 | 02:06:48 | 00:00:00 | |
| DL1NUX | 2026-09-05 12:35:49 | 48.43601 | 10.54836 | 140° | 62km/h | 21252m | -10m/s | -53.2°C | 3.9% | 48.4hPa | 2.7V | 08:19:05 | 02:06:48 | 00:00:00 | |
| DL1ZP-14 | 2026-09-05 12:35:44 | 48.43639 | 10.54828 | 307° | 11km/h | 21302m | -10.4m/s | -53.1°C | 1.0% | 48.0hPa | 2.7V | 00:00:00 | 00:00:00 | 00:00:00 | |
| DK7TD | 2026-09-05 12:35:40 | 48.43612 | 10.54799 | 63° | 58km/h | 21343m | -11.1m/s | -53°C | 0.5% | 47.7hPa | 2.6V | 08:19:14 | 02:06:39 | 00:00:00 | |
| DL6DJ-15 | 2026-09-05 12:35:40 | 48.43607 | 10.54776 | 79° | 68km/h | 21354m | -10.3m/s | -52.9°C | 1.0% | 47.6hPa | 2.6V | 00:00:00 | 00:00:00 | 00:00:00 | |
| DO3MHA-12 | 2026-09-05 12:35:39 | 48.43607 | 10.54776 | 80° | 64km/h | 21354m | -10.2m/s | -52.9°C | 3.8% | 47.6hPa | 2.6V | 00:00:00 | 02:06:38 | 00:00:00 | |
| DM0DOS-11 | 2026-09-05 12:35:38 | 48.43616 | 10.54693 | 120° | 78km/h | 21384m | -11.2m/s | -52.7°C | 3.8% | 47.4hPa | 2.6V | 08:19:18 | 02:06:35 | 00:00:00 | |
| DL1NUX | 2026-09-05 12:35:38 | 48.43657 | 10.54645 | 168° | 62km/h | 21418m | -9.7m/s | -52.4°C | 3.8% | 47.2hPa | 2.7V | 08:19:21 | 02:06:32 | 00:00:00 | |
| DL9SK-14 | 2026-09-05 12:35:36 | 48.43616 | 10.54693 | 120° | 77km/h | 21384m | -11.2m/s | -52.7°C | 1.0% | 47.4hPa | 2.6V | 00:00:00 | 00:00:00 | 00:00:00 | |
| DK5PH-5 | 2026-09-05 12:35:35 | 48.43627 | 10.54670 | 135° | 47km/h | 21396m | -11.6m/s | -52.6°C | 3.8% | 47.3hPa | 2.6V | 00:00:00 | 02:06:34 | 00:00:00 | |
| DJ8HS-15 | 2026-09-05 12:35:33 | 48.43656 | 10.54645 | 169° | 46km/h | 21419m | -9.7m/s | -52.4°C | 3.8% | 47.1hPa | 2.6V | 00:00:00 | 02:06:32 | 00:00:00 | |
| DB0NH | 2026-09-05 12:35:32 | 48.43670 | 10.54643 | 185° | 47km/h | 21428m | -9.6m/s | -52.2°C | 3.8% | 47.0hPa | 2.6V | 00:00:00 | 02:06:31 | 00:00:00 | |
| DH7VM-15 | 2026-09-05 12:35:31 | 48.43671 | 10.54643 | 185° | 53km/h | 21428m | -9.6m/s | -52.3°C | 1.0% | 47.1hPa | 2.6V | 00:00:00 | 00:00:00 | 00:00:00 | |
| DB0ND-19 | 2026-09-05 12:35:30 | 48.43689 | 10.54654 | 228° | 31km/h | 21448m | -9.8m/s | -52.1°C | 1.0% | 46.9hPa | 2.6V | 00:00:00 | 00:00:00 | 00:00:00 | |
| DO3MHA-12 | 2026-09-05 12:35:29 | 48.43691 | 10.54663 | 268° | 46km/h | 21458m | -10.0m/s | -52.1°C | 3.7% | 46.8hPa | 2.6V | 00:00:00 | 02:06:28 | 00:00:00 | |
| DF1GD-15 | 2026-09-05 12:35:26 | 48.43676 | 10.54674 | 24° | 35km/h | 21487m | -10.5m/s | -52.3°C | 1.0% | 46.6hPa | 2.6V | 08:20:00 | 00:00:00 | 00:00:00 | |
| DL1NUX | 2026-09-05 12:35:25 | 48.43674 | 10.54567 | 134° | 64km/h | 21547m | -11.8m/s | -52°C | 3.6% | 46.2hPa | 2.6V | 08:19:34 | 02:06:19 | 00:00:00 | |
| DK7TD | 2026-09-05 12:35:22 | 48.43659 | 10.54609 | 102° | 62km/h | 21526m | -9.6m/s | -52.1°C | 0.3% | 46.3hPa | 2.7V | 08:20:56 | 02:06:21 | 00:00:00 | |
| DO3MHA-11 | 2026-09-05 12:35:22 | 48.43659 | 10.54609 | 102° | 49km/h | 21526m | -9.6m/s | -52.0°C | 3.6% | 46.3hPa | 2.7V | 00:00:00 | 02:06:21 | 00:00:00 | |
| BAUMI2-15 | 2026-09-05 12:35:21 | 48.43664 | 10.54586 | 120° | 57km/h | 21536m | -11.3m/s | -52.0°C | 3.6% | 46.2hPa | 2.6V | 08:19:00 | 02:06:20 | 00:00:00 | |
| DF3TZ-5 | 2026-09-05 12:35:20 | 48.43674 | 10.54567 | 134° | 64km/h | 21548m | -11.8m/s | -52.0°C | 1.0% | 46.2hPa | 2.6V | 00:00:00 | 00:00:00 | 00:00:00 | |
| DO3MHA-12 | 2026-09-05 12:35:19 | 48.43686 | 10.54553 | 153° | 40km/h | 21559m | -10.8m/s | -51.8°C | 3.5% | 46.1hPa | 2.6V | 00:00:00 | 02:06:18 | 00:00:00 | |
| DM0DOS-11 | 2026-09-05 12:35:17 | 48.43723 | 10.54553 | 212° | 40km/h | 21591m | -10m/s | -51.8°C | 3.6% | 45.9hPa | 2.6V | 08:19:38 | 02:06:15 | 00:00:00 | |
| DB0UT-7 | 2026-09-05 12:35:17 | 48.43712 | 10.54548 | 190° | 47km/h | 21581m | -11.2m/s | -51.8°C | 3.6% | 45.9hPa | 2.6V | 00:00:00 | 02:06:16 | 00:00:00 | |
| OE5MMP-10 | 2026-09-05 12:35:16 | 48.43723 | 10.54553 | 213° | 42km/h | 21591m | -10.0m/s | -51.8°C | 3.6% | 45.8hPa | 2.6V | 00:00:00 | 02:06:15 | 00:00:00 | |
| DL1NUX | 2026-09-05 12:35:15 | 48.43705 | 10.54571 | 51° | 49km/h | 21651m | -9.9m/s | -52.1°C | 3.5% | 45.4hPa | 2.6V | 08:19:44 | 02:06:09 | 00:00:00 | |
| DJ8HS-15 | 2026-09-05 12:35:13 | 48.43728 | 10.54582 | 323° | 47km/h | 21621m | -10.7m/s | -51.9°C | 3.6% | 45.7hPa | 2.7V | 00:00:00 | 02:06:12 | 00:00:00 | |
| DO3MHA-11 | 2026-09-05 12:35:12 | 48.43722 | 10.54585 | 1° | 53km/h | 21631m | -10.4m/s | -52.0°C | 3.5% | 45.6hPa | 2.7V | 00:00:00 | 02:06:11 | 00:00:00 | |
| DM0DOS-11 | 2026-09-05 12:35:11 | 48.43707 | 10.54487 | 126° | 66km/h | 21693m | -10.4m/s | -52.2°C | 3.6% | 45.2hPa | 2.7V | 08:19:48 | 02:06:05 | 00:00:00 | |
| AZAK | 2026-09-05 12:35:10 | 48.43705 | 10.54571 | 52° | 49km/h | 21651m | -9.9m/s | -52.2°C | 0.9% | 45.4hPa | 2.6V | 08:20:00 | 00:00:00 | 00:00:00 | |
| DK7TD | 2026-09-05 12:35:10 | 48.43705 | 10.54571 | 51° | 49km/h | 21651m | -9.9m/s | -52.2°C | 0.3% | 45.5hPa | 2.6V | 08:20:56 | 02:06:09 | 00:00:00 | |
| DL6DJ-15 | 2026-09-05 12:35:09 | 48.43697 | 10.54533 | 88° | 60km/h | 21672m | -11.4m/s | -52.3°C | 0.9% | 45.4hPa | 2.6V | 00:00:00 | 00:00:00 | 00:00:00 | |
| DL1NUX | 2026-09-05 12:35:05 | 48.43774 | 10.54480 | 245° | 40km/h | 21758m | -12m/s | -52.3°C | 3.7% | 44.8hPa | 2.6V | 08:19:54 | 02:05:59 | 00:00:00 | |
| DK5PH-5 | 2026-09-05 12:35:05 | 48.43718 | 10.54470 | 145° | 49km/h | 21704m | -10.3m/s | -52.1°C | 3.6% | 45.1hPa | 2.7V | 00:00:00 | 02:06:04 | 00:00:00 | |
| DM7RM-13 | 2026-09-05 12:35:04 | 48.43731 | 10.54460 | 163° | 58km/h | 21714m | -11.0m/s | -52.2°C | 1.0% | 45.0hPa | 2.7V | 00:00:00 | 00:00:00 | 00:00:00 | |
| DB0NH | 2026-09-05 12:35:02 | 48.43758 | 10.54459 | 200° | 49km/h | 21736m | -11.7m/s | -52.2°C | 3.7% | 44.8hPa | 2.7V | 00:00:00 | 02:06:01 | 00:00:00 | |
| DM0DOS-11 | 2026-09-05 12:35:00 | 48.43757 | 10.54513 | 10° | 38km/h | 21802m | -9.6m/s | -52.5°C | 3.6% | 44.5hPa | 2.7V | 08:19:58 | 02:05:55 | 00:00:00 | |
| DK7TD | 2026-09-05 12:34:56 | 48.43757 | 10.54513 | 11° | 38km/h | 21802m | -9.6m/s | -52.5°C | 0.4% | 44.5hPa | 2.7V | 08:20:56 | 02:05:55 | 00:00:00 | |
| DJTTGO | 2026-09-05 12:34:55 | 48.43757 | 10.54513 | 12° | 38km/h | 21802m | -9.6m/s | -52.5°C | 1.0% | 44.5hPa | 2.6V | 08:20:00 | 00:00:00 | 00:00:00 | |
| DJ8HS-15 | 2026-09-05 12:34:53 | 48.43736 | 10.54476 | 81° | 53km/h | 21832m | -11.6m/s | -52.5°C | 3.6% | 44.2hPa | 2.6V | 00:00:00 | 02:05:52 | 00:00:00 | |
| DM0DOS-11 | 2026-09-05 12:34:50 | 48.43797 | 10.54408 | 223° | 40km/h | 21908m | -11.4m/s | -52.4°C | 3.7% | 43.8hPa | 2.6V | 08:20:08 | 02:05:45 | 00:00:00 | |
| AZAK | 2026-09-05 12:34:50 | 48.43752 | 10.54416 | 140° | 60km/h | 21867m | -10.7m/s | -52.2°C | 0.9% | 44.0hPa | 2.6V | 08:20:00 | 00:00:00 | 00:00:00 | |
| DO3MHA-12 | 2026-09-05 12:34:49 | 48.43764 | 10.54404 | 158° | 44km/h | 21877m | -10.1m/s | -52.2°C | 3.6% | 43.9hPa | 2.6V | 00:00:00 | 02:05:48 | 00:00:00 | |
| DL1NUX | 2026-09-05 12:34:48 | 48.43789 | 10.54401 | 199° | 44km/h | 21897m | -11.7m/s | -52.3°C | 3.7% | 43.8hPa | 2.7V | 08:20:07 | 02:05:46 | 00:00:00 | |
| DK7TD | 2026-09-05 12:34:42 | 48.43791 | 10.54451 | 346° | 38km/h | 21952m | -11.4m/s | -52.7°C | 0.5% | 43.5hPa | 2.7V | 08:20:56 | 02:05:41 | 00:00:00 | |
| DO3MHA-11 | 2026-09-05 12:34:42 | 48.43790 | 10.54451 | 346° | 57km/h | 21952m | -11.3m/s | -52.7°C | 3.7% | 43.4hPa | 2.7V | 00:00:00 | 02:05:41 | 00:00:00 | |
| DM7RM-13 | 2026-09-05 12:34:41 | 48.43791 | 10.54451 | 347° | 38km/h | 21952m | -11.4m/s | -52.7°C | 1.0% | 43.5hPa | 2.7V | 00:00:00 | 00:00:00 | 00:00:00 | |
| OE5MMP-10 | 2026-09-05 12:34:40 | 48.43769 | 10.54444 | 33° | 57km/h | 21974m | -12.0m/s | -52.9°C | 3.7% | 43.2hPa | 2.7V | 00:00:00 | 02:05:39 | 00:00:00 | |
| DO3MHA-12 | 2026-09-05 12:34:39 | 48.43758 | 10.54429 | 52° | 55km/h | 21986m | -12.2m/s | -53.0°C | 3.7% | 43.2hPa | 2.7V | 00:00:00 | 02:05:38 | 00:00:00 | |
| DM0DOS-11 | 2026-09-05 12:34:38 | 48.43749 | 10.54360 | 105° | 68km/h | 22021m | -11.4m/s | -53.2°C | 3.8% | 43.1hPa | 2.7V | 08:20:18 | 02:05:35 | 00:00:00 | |
| DL6DJ-15 | 2026-09-05 12:34:38 | 48.43747 | 10.54385 | 87° | 66km/h | 22009m | -11.9m/s | -53.2°C | 1.0% | 43.1hPa | 2.6V | 00:00:00 | 00:00:00 | 00:00:00 | |
| DJTTGO | 2026-09-05 12:34:36 | 48.43749 | 10.54360 | 106° | 68km/h | 22021m | -11.4m/s | -53.2°C | 1.0% | 43.1hPa | 2.6V | 00:00:00 | 00:00:00 | 00:00:00 | |
| DK5PH-5 | 2026-09-05 12:34:35 | 48.43755 | 10.54337 | 123° | 47km/h | 22032m | -10.6m/s | -53.2°C | 3.8% | 42.9hPa | 2.6V | 00:00:00 | 02:05:34 | 00:00:00 | |
| DL1NUX | 2026-09-05 12:34:34 | 48.43807 | 10.54325 | 266° | 29km/h | 22096m | -11.3m/s | -52.8°C | 3.8% | 42.6hPa | 2.6V | 08:20:25 | 02:05:28 | 00:00:00 | |
| DJ8HS-15 | 2026-09-05 12:34:33 | 48.43776 | 10.54309 | 162° | 49km/h | 22053m | -10.2m/s | -53.2°C | 3.9% | 42.8hPa | 2.7V | 00:00:00 | 02:05:32 | 00:00:00 | |
| DO3MHA-11 | 2026-09-05 12:34:32 | 48.43788 | 10.54306 | 181° | 46km/h | 22063m | -11.0m/s | -53.1°C | 3.9% | 42.7hPa | 2.7V | 00:00:00 | 02:05:31 | 00:00:00 | |
| DM0DOS-11 | 2026-09-05 12:34:31 | 48.43790 | 10.54341 | 14° | 37km/h | 22127m | -10m/s | -52.9°C | 3.7% | 42.4hPa | 2.7V | 08:20:28 | 02:05:25 | 00:00:00 | |
| DK7TD | 2026-09-05 12:34:27 | 48.43799 | 10.54341 | 344° | 33km/h | 22118m | -9.9m/s | -52.8°C | 0.5% | 42.4hPa | 2.7V | 08:20:56 | 02:05:26 | 00:00:00 | |
| DF1GD-15 | 2026-09-05 12:34:23 | 48.43773 | 10.54318 | 61° | 55km/h | 22148m | -11.6m/s | -52.9°C | 1.0% | 42.2hPa | 2.7V | 08:20:00 | 00:00:00 | 00:00:00 | |
| DO3MHA-11 | 2026-09-05 12:34:22 | 48.43768 | 10.54274 | 96° | 57km/h | 22171m | -12.0m/s | -52.8°C | 3.6% | 42.0hPa | 2.7V | 00:00:00 | 02:05:21 | 00:00:00 | |
| DM0DOS-11 | 2026-09-05 12:34:20 | 48.43838 | 10.54198 | 198° | 57km/h | 22240m | -9.4m/s | -53°C | 3.8% | 41.6hPa | 2.6V | 08:20:38 | 02:05:15 | 00:00:00 | |
| OE5MMP-10 | 2026-09-05 12:34:20 | 48.43781 | 10.54227 | 130° | 51km/h | 22196m | -11.6m/s | -52.8°C | 3.6% | 41.9hPa | 2.6V | 00:00:00 | 02:05:19 | 00:00:00 | |
| DO3MHA-12 | 2026-09-05 12:34:19 | 48.43794 | 10.54209 | 146° | 47km/h | 22207m | -11.3m/s | -52.8°C | 3.7% | 41.8hPa | 2.6V | 08:20:00 | 02:05:18 | 00:00:00 | |
| DL1NUX | 2026-09-05 12:34:18 | 48.43857 | 10.54219 | 241° | 42km/h | 22259m | -10.1m/s | -53°C | 3.9% | 41.5hPa | 2.6V | 08:20:40 | 02:05:13 | 00:00:00 | |
| DK7TD | 2026-09-05 12:34:09 | 48.43837 | 10.54242 | 50° | 37km/h | 22311m | -10.4m/s | -53.1°C | 0.5% | 41.2hPa | 2.6V | 08:20:56 | 02:05:08 | 00:00:00 | |
| AZAK | 2026-09-05 12:34:09 | 48.43836 | 10.54242 | 51° | 37km/h | 22311m | -10.4m/s | -53.1°C | 1.0% | 41.2hPa | 2.6V | 08:20:00 | 00:00:00 | 00:00:00 | |
| DL6DJ-15 | 2026-09-05 12:34:07 | 48.43836 | 10.54190 | 116° | 57km/h | 22342m | -10.8m/s | -53.3°C | 1.0% | 41.0hPa | 2.6V | 00:00:00 | 00:00:00 | 00:00:00 | |
| DL1NUX | 2026-09-05 12:34:06 | 48.43907 | 10.54156 | 204° | 68km/h | 22397m | -12m/s | -53.3°C | 4% | 40.6hPa | 2.6V | 08:20:53 | 02:05:00 | 00:00:00 | |
| DL9SK-14 | 2026-09-05 12:34:03 | 48.43874 | 10.54149 | 171° | 68km/h | 22374m | -11.8m/s | -53.2°C | 1.0% | 40.8hPa | 2.6V | 00:00:00 | 00:00:00 | 00:00:00 | |
| DB0NH | 2026-09-05 12:34:02 | 48.43890 | 10.54149 | 190° | 51km/h | 22385m | -11.9m/s | -53.2°C | 3.9% | 40.6hPa | 2.6V | 00:00:00 | 02:05:01 | 00:00:00 | |
| DB0ND-19 | 2026-09-05 12:33:57 | 48.43935 | 10.54226 | 280° | 46km/h | 22443m | -10.5m/s | -52.9°C | 1.0% | 40.3hPa | 2.6V | 00:00:00 | 00:00:00 | 00:00:00 | |
| SONCRA | 2026-09-05 12:33:56 | 48.43925 | 10.54248 | 337° | 29km/h | 22463m | -10.0m/s | -52.9°C | 1.0% | 40.2hPa | 2.6V | 00:00:00 | 00:00:00 | 00:00:00 | |
| DM7RM-13 | 2026-09-05 12:33:55 | 48.43931 | 10.54240 | 306° | 37km/h | 22453m | -10.2m/s | -52.8°C | 1.0% | 40.3hPa | 2.6V | 08:21:00 | 00:00:00 | 00:00:00 | |
| DJ8HS-15 | 2026-09-05 12:33:53 | 48.43912 | 10.54243 | 57° | 49km/h | 22482m | -10.8m/s | -53.0°C | 3.7% | 40.0hPa | 2.6V | 00:00:00 | 02:04:52 | 00:00:00 | |
| DM0DOS-11 | 2026-09-05 12:33:51 | 48.43968 | 10.54194 | 213° | 58km/h | 22557m | -11.9m/s | -53°C | 3.9% | 39.6hPa | 2.6V | 08:21:08 | 02:04:45 | 00:00:00 | |
| DK7TD | 2026-09-05 12:33:50 | 48.43917 | 10.54201 | 132° | 49km/h | 22512m | -11.4m/s | -53.1°C | 0.5% | 39.9hPa | 2.6V | 08:21:47 | 02:04:49 | 00:00:00 | |
| DF3TZ-5 | 2026-09-05 12:33:47 | 48.43955 | 10.54185 | 193° | 57km/h | 22546m | -12.4m/s | -52.9°C | 1.0% | 39.7hPa | 2.6V | 00:00:00 | 00:00:00 | 00:00:00 | |
| DK7TD | 2026-09-05 12:33:40 | 48.43963 | 10.54281 | 356° | 47km/h | 22621m | -12.6m/s | -53.4°C | 0.5% | 39.2hPa | 2.6V | 08:21:47 | 02:04:39 | 00:00:00 | |
| OE5MMP-10 | 2026-09-05 12:33:40 | 48.43963 | 10.54281 | 357° | 53km/h | 22622m | -12.5m/s | -53.3°C | 3.8% | 39.2hPa | 2.6V | 00:00:00 | 02:04:39 | 00:00:00 | |
| DO3MHA-12 | 2026-09-05 12:33:39 | 48.43951 | 10.54278 | 22° | 53km/h | 22634m | -13.3m/s | -53.4°C | 3.8% | 39.1hPa | 2.6V | 00:00:00 | 02:04:38 | 00:00:00 | |
| DL1NUX | 2026-09-05 12:33:38 | 48.43946 | 10.54199 | 140° | 55km/h | 22696m | -10.9m/s | -53.6°C | 3.9% | 38.8hPa | 2.6V | 08:21:20 | 02:04:33 | 00:00:00 | |
| DM7RM-13 | 2026-09-05 12:33:36 | 48.43933 | 10.54232 | 96° | 51km/h | 22673m | -12.2m/s | -53.5°C | 1.0% | 38.9hPa | 2.7V | 08:21:00 | 00:00:00 | 00:00:00 | |
| DK5PH-5 | 2026-09-05 12:33:35 | 48.43937 | 10.54214 | 121° | 53km/h | 22685m | -11.9m/s | -53.5°C | 3.9% | 38.8hPa | 2.7V | 00:00:00 | 02:04:34 | 00:00:00 | |
| IW2NTF | 2026-09-05 12:33:33 | 48.44004 | 10.54247 | 301° | 40km/h | 22775m | -12.2m/s | -53.6°C | 4.2% | 38.4hPa | 2.7V | 08:30:00 | 02:04:26 | 00:00:00 | |
| DB0NH | 2026-09-05 12:33:32 | 48.43971 | 10.54186 | 185° | 53km/h | 22718m | -11.3m/s | -53.5°C | 4.0% | 38.6hPa | 2.6V | 00:00:00 | 02:04:31 | 00:00:00 | |
| DO3MHA-11 | 2026-09-05 12:33:31 | 48.43985 | 10.54191 | 203° | 49km/h | 22730m | -11.3m/s | -53.5°C | 4.1% | 38.5hPa | 2.6V | 00:00:00 | 02:04:30 | 00:00:00 | |
| DM0DOS-11 | 2026-09-05 12:33:30 | 48.43987 | 10.54259 | 6° | 40km/h | 22798m | -11.5m/s | -53.6°C | 4% | 38.2hPa | 2.6V | 08:21:29 | 02:04:24 | 00:00:00 | |
| DK7TD | 2026-09-05 12:33:29 | 48.44004 | 10.54216 | 245° | 49km/h | 22751m | -12m/s | -53.6°C | 0.7% | 38.5hPa | 2.6V | 08:21:47 | 02:04:28 | 00:00:00 | |
| AZAK | 2026-09-05 12:33:28 | 48.44007 | 10.54233 | 273° | 44km/h | 22763m | -12.2m/s | -53.7°C | 1.1% | 38.4hPa | 2.7V | 08:21:00 | 00:00:00 | 00:00:00 | |
| DO9HM | 2026-09-05 12:33:27 | 48.44007 | 10.54233 | 273° | 44km/h | 22763m | -12.2m/s | -53.7°C | 1.1% | 38.4hPa | 2.7V | 00:00:00 | 00:00:00 | 00:00:00 | |
| DB0ND-19 | 2026-09-05 12:33:26 | 48.43997 | 10.54257 | 334° | 37km/h | 22787m | -12.1m/s | -53.6°C | 1.1% | 38.3hPa | 2.7V | 00:00:00 | 00:00:00 | 00:00:00 | |
| SONCRA | 2026-09-05 12:33:25 | 48.43987 | 10.54259 | 6° | 38km/h | 22798m | -11.5m/s | -53.6°C | 1.1% | 38.2hPa | 2.7V | 00:00:00 | 00:00:00 | 00:00:00 | |
| DO3MHA-11 | 2026-09-05 12:33:21 | 48.43962 | 10.54196 | 94° | 49km/h | 22841m | -11.6m/s | -53.2°C | 3.9% | 37.9hPa | 2.7V | 08:21:00 | 02:04:20 | 00:00:00 | |
| DM0DOS-11 | 2026-09-05 12:33:20 | 48.44015 | 10.54127 | 218° | 35km/h | 22915m | -13.2m/s | -52.8°C | 3.9% | 37.5hPa | 2.7V | 08:21:39 | 02:04:14 | 00:00:00 | |
| DK7TD | 2026-09-05 12:33:19 | 48.43973 | 10.54149 | 126° | 66km/h | 22864m | -13m/s | -53.1°C | 0.6% | 37.8hPa | 2.6V | 08:21:47 | 02:04:18 | 00:00:00 | |
| DO3MHA-12 | 2026-09-05 12:33:19 | 48.43973 | 10.54149 | 127° | 46km/h | 22865m | -12.9m/s | -53.0°C | 3.9% | 37.7hPa | 2.6V | 00:00:00 | 02:04:18 | 00:00:00 | |
| DL1NUX | 2026-09-05 12:33:18 | 48.43995 | 10.54123 | 163° | 49km/h | 22889m | -13.2m/s | -53°C | 4% | 37.7hPa | 2.6V | 08:21:37 | 02:04:16 | 00:00:00 | |
| DB0UT-7 | 2026-09-05 12:33:17 | 48.43995 | 10.54123 | 164° | 51km/h | 22889m | -13.1m/s | -52.9°C | 4.0% | 37.6hPa | 2.6V | 00:00:00 | 02:04:16 | 00:00:00 | |
| DF3TZ-5 | 2026-09-05 12:33:16 | 48.44006 | 10.54122 | 188° | 42km/h | 22902m | -13.2m/s | -52.9°C | 1.0% | 37.6hPa | 2.6V | 00:00:00 | 00:00:00 | 00:00:00 | |
| DJ8HS-15 | 2026-09-05 12:33:13 | 48.44018 | 10.54148 | 293° | 51km/h | 22941m | -12.2m/s | -52.8°C | 4.0% | 37.4hPa | 2.6V | 00:00:00 | 02:04:12 | 00:00:00 | |
| IW2NTF | 2026-09-05 12:33:12 | 48.43990 | 10.54163 | 13° | 57km/h | 22974m | -11.7m/s | -52.8°C | 3.8% | 37.2hPa | 2.7V | 08:30:00 | 02:04:09 | 00:00:00 | |
| DO3MHA-11 | 2026-09-05 12:33:11 | 48.44002 | 10.54164 | 352° | 62km/h | 22963m | -10.9m/s | -52.8°C | 3.9% | 37.2hPa | 2.6V | 00:00:00 | 02:04:10 | 00:00:00 | |
| OE5MMP-10 | 2026-09-05 12:33:10 | 48.43989 | 10.54163 | 14° | 62km/h | 22974m | -11.6m/s | -52.7°C | 3.8% | 37.1hPa | 2.6V | 00:00:00 | 02:04:09 | 00:00:00 | |
| DL1ZP-14 | 2026-09-05 12:33:09 | 48.43963 | 10.54137 | 53° | 68km/h | 22997m | -13.1m/s | -52.7°C | 1.0% | 37.1hPa | 2.6V | 00:00:00 | 00:00:00 | 00:00:00 | |
| DM0DOS-11 | 2026-09-05 12:33:08 | 48.43953 | 10.54063 | 107° | 68km/h | 23036m | -13.4m/s | -52.5°C | 3.7% | 36.9hPa | 2.7V | 08:21:49 | 02:04:04 | 00:00:00 | |
| DL1NUX | 2026-09-05 12:33:08 | 48.43955 | 10.54114 | 69° | 69km/h | 23010m | -12.7m/s | -52.6°C | 3.7% | 37hPa | 2.6V | 08:21:47 | 02:04:06 | 00:00:00 | |
| DK7TD | 2026-09-05 12:33:06 | 48.43960 | 10.54041 | 124° | 62km/h | 23049m | -12.1m/s | -52.4°C | 0.5% | 36.8hPa | 2.6V | 08:23:29 | 02:04:03 | 00:00:00 | |
| SO1NDE-10 | 2026-09-05 12:33:05 | 48.43953 | 10.54063 | 108° | 51km/h | 23036m | -13.3m/s | -52.4°C | 3.7% | 36.8hPa | 2.7V | 00:00:00 | 02:04:04 | 00:00:00 | |
| DL6DJ-15 | 2026-09-05 12:33:04 | 48.43960 | 10.54041 | 123° | 62km/h | 23049m | -12.1m/s | -52.4°C | 1.0% | 36.8hPa | 2.6V | 00:00:00 | 00:00:00 | 00:00:00 | |
| DL1NUX | 2026-09-05 12:33:02 | 48.44014 | 10.54060 | 295° | 38km/h | 23137m | -10.7m/s | -52.4°C | 3.9% | 36.3hPa | 2.6V | 08:21:57 | 02:03:56 | 00:00:00 | |
| DB0NH | 2026-09-05 12:33:02 | 48.43982 | 10.54016 | 168° | 51km/h | 23073m | -12.1m/s | -52.4°C | 3.8% | 36.6hPa | 2.6V | 00:00:00 | 02:04:01 | 00:00:00 | |
| DO3MHA-11 | 2026-09-05 12:33:01 | 48.43995 | 10.54016 | 191° | 49km/h | 23085m | -13.4m/s | -52.3°C | 3.8% | 36.6hPa | 2.7V | 00:00:00 | 02:04:00 | 00:00:00 | |
| OE5MMP-10 | 2026-09-05 12:33:00 | 48.44006 | 10.54022 | 214° | 46km/h | 23099m | -13.6m/s | -52.3°C | 3.8% | 36.5hPa | 2.7V | 08:21:00 | 02:03:59 | 00:00:00 | |
| OE5WHR-10 | 2026-09-05 12:32:59 | 48.44013 | 10.54033 | 240° | 51km/h | 23112m | -12.9m/s | -52.3°C | 3.8% | 36.4hPa | 2.7V | 00:00:00 | 00:00:00 | 00:00:00 | |
| DM0DOS-11 | 2026-09-05 12:32:58 | 48.43999 | 10.54076 | 354° | 42km/h | 23157m | -10.4m/s | -52.5°C | 3.8% | 36.2hPa | 2.7V | 08:21:59 | 02:03:54 | 00:00:00 | |
| DK7TD | 2026-09-05 12:32:50 | 48.43973 | 10.54005 | 114° | 60km/h | 23219m | -14.2m/s | -52.6°C | 0.5% | 35.9hPa | 2.6V | 08:23:29 | 02:03:49 | 00:00:00 | |
| DM7RM-13 | 2026-09-05 12:32:49 | 48.43981 | 10.53986 | 132° | 58km/h | 23233m | -13.3m/s | -52.6°C | 1.1% | 35.8hPa | 2.7V | 00:00:00 | 00:00:00 | 00:00:00 | |
| DM0DOS-11 | 2026-09-05 12:32:48 | 48.44027 | 10.53978 | 225° | 49km/h | 23283m | -11.3m/s | -52°C | 3.8% | 35.6hPa | 2.7V | 08:22:09 | 02:03:44 | 00:00:00 | |
| DL1NUX | 2026-09-05 12:32:48 | 48.44034 | 10.54012 | 278° | 51km/h | 23307m | -12.1m/s | -51.9°C | 3.8% | 35.4hPa | 2.6V | 08:22:11 | 02:03:42 | 00:00:00 | |
| DO3MHA-11 | 2026-09-05 12:32:48 | 48.43992 | 10.53973 | 152° | 55km/h | 23247m | -12.9m/s | -52.4°C | 3.9% | 35.7hPa | 2.7V | 00:00:00 | 02:03:47 | 00:00:00 | |
| AZAK | 2026-09-05 12:32:47 | 48.44004 | 10.53967 | 175° | 53km/h | 23260m | -12.3m/s | -52.3°C | 1.0% | 35.7hPa | 2.6V | 08:22:00 | 00:00:00 | 00:00:00 | |
| DF3TZ-5 | 2026-09-05 12:32:45 | 48.44030 | 10.54030 | 302° | 53km/h | 23318m | -11.9m/s | -51.8°C | 1.0% | 35.4hPa | 2.6V | 00:00:00 | 00:00:00 | 00:00:00 | |
| OE5MMP-10 | 2026-09-05 12:32:40 | 48.44007 | 10.54053 | 345° | 51km/h | 23341m | -11.8m/s | -51.5°C | 3.6% | 35.2hPa | 2.6V | 00:00:00 | 02:03:39 | 00:00:00 | |
| DO3MHA-12 | 2026-09-05 12:32:39 | 48.43992 | 10.54055 | 7° | 53km/h | 23353m | -13.8m/s | -51.6°C | 3.5% | 35.1hPa | 2.6V | 00:00:00 | 02:03:38 | 00:00:00 | |
| DL1ZP-14 | 2026-09-05 12:32:38 | 48.43964 | 10.54034 | 45° | 64km/h | 23378m | -14.1m/s | -51.7°C | 0.9% | 35.0hPa | 2.6V | 00:00:00 | 00:00:00 | 00:00:00 | |
| NBG1-10 | 2026-09-05 12:32:37 | 48.43964 | 10.54034 | 46° | 53km/h | 23378m | -14.0m/s | -51.6°C | 3.5% | 35.0hPa | 2.6V | 08:22:00 | 02:03:36 | 00:00:00 | |
| DM0DOS-11 | 2026-09-05 12:32:36 | 48.43953 | 10.53994 | 88° | 57km/h | 23404m | -12.3m/s | -51.6°C | 3.5% | 34.9hPa | 2.6V | 08:22:19 | 02:03:34 | 00:00:00 | |
| DK7TD | 2026-09-05 12:32:35 | 48.43953 | 10.53995 | 89° | 58km/h | 23404m | -12.3m/s | -51.6°C | 0.3% | 34.9hPa | 2.6V | 08:23:29 | 02:03:34 | 00:00:00 | |
| DK5PH-5 | 2026-09-05 12:32:35 | 48.43953 | 10.53995 | 89° | 53km/h | 23405m | -12.3m/s | -51.6°C | 3.5% | 34.9hPa | 2.6V | 00:00:00 | 02:03:34 | 00:00:00 | |
| DL1NUX | 2026-09-05 12:32:34 | 48.43994 | 10.53966 | 251° | 42km/h | 23485m | -12.3m/s | -51.6°C | 3.7% | 34.5hPa | 2.6V | 08:22:25 | 02:03:28 | 00:00:00 | |
| DJ8HS-15 | 2026-09-05 12:32:33 | 48.43961 | 10.53958 | 132° | 53km/h | 23431m | -13.7m/s | -51.6°C | 3.6% | 34.7hPa | 2.6V | 00:00:00 | 02:03:32 | 00:00:00 | |
| DB0NH | 2026-09-05 12:32:32 | 48.43970 | 10.53949 | 160° | 49km/h | 23445m | -14.3m/s | -51.6°C | 3.6% | 34.7hPa | 2.6V | 00:00:00 | 02:03:31 | 00:00:00 | |
| BAUMI2-15 | 2026-09-05 12:32:30 | 48.43988 | 10.53954 | 220° | 44km/h | 23473m | -12.4m/s | -51.6°C | 3.7% | 34.5hPa | 2.6V | 00:00:00 | 02:03:29 | 00:00:00 | |
| OE5WHR-10 | 2026-09-05 12:32:29 | 48.43994 | 10.53966 | 252° | 57km/h | 23485m | -12.3m/s | -51.6°C | 3.7% | 34.5hPa | 2.6V | 00:00:00 | 00:00:00 | 00:00:00 | |
| DJTTGO | 2026-09-05 12:32:28 | 48.43995 | 10.53982 | 278° | 46km/h | 23497m | -11.7m/s | -51.6°C | 1.0% | 34.4hPa | 2.6V | 00:00:00 | 00:00:00 | 00:00:00 | |
| DO9HM | 2026-09-05 12:32:27 | 48.43995 | 10.53982 | 278° | 46km/h | 23497m | -11.7m/s | -51.6°C | 1.0% | 34.4hPa | 2.6V | 08:22:00 | 00:00:00 | 00:00:00 | |
| DM0DOS-11 | 2026-09-05 12:32:25 | 48.43970 | 10.54023 | 344° | 57km/h | 23535m | -12.1m/s | -51.4°C | 3.6% | 34.2hPa | 2.6V | 08:22:29 | 02:03:24 | 00:00:00 | |
| DK7TD | 2026-09-05 12:32:20 | 48.43923 | 10.53967 | 99° | 55km/h | 23601m | -13.9m/s | -51.4°C | 0.4% | 33.9hPa | 2.7V | 08:23:29 | 02:03:19 | 00:00:00 | |
| DM0DOS-11 | 2026-09-05 12:32:20 | 48.43976 | 10.53940 | 217° | 62km/h | 23668m | -13.5m/s | -51.2°C | 3.6% | 33.6hPa | 2.7V | 08:22:39 | 02:03:14 | 00:00:00 | |
| OE5MMP-10 | 2026-09-05 12:32:19 | 48.43927 | 10.53948 | 121° | 58km/h | 23615m | -13.3m/s | -51.3°C | 3.6% | 33.8hPa | 2.6V | 00:00:00 | 02:03:18 | 00:00:00 | |
| DO3MHA-11 | 2026-09-05 12:32:18 | 48.43936 | 10.53934 | 148° | 58km/h | 23628m | -12.7m/s | -51.3°C | 3.6% | 33.8hPa | 2.6V | 00:00:00 | 02:03:17 | 00:00:00 | |
| DB0UT-7 | 2026-09-05 12:32:17 | 48.43949 | 10.53927 | 174° | 57km/h | 23641m | -13.4m/s | -51.3°C | 3.6% | 33.7hPa | 2.6V | 00:00:00 | 02:03:16 | 00:00:00 | |
| DL1NUX | 2026-09-05 12:32:16 | 48.43989 | 10.54026 | 298° | 60km/h | 23720m | -12.5m/s | -51.3°C | 3.6% | 33.3hPa | 2.6V | 08:22:43 | 02:03:10 | 00:00:00 | |
| DF3TZ-5 | 2026-09-05 12:32:14 | 48.43993 | 10.53979 | 257° | 64km/h | 23695m | -12.5m/s | -51.2°C | 0.9% | 33.5hPa | 2.7V | 00:00:00 | 00:00:00 | 00:00:00 | |
| DJ8HS-15 | 2026-09-05 12:32:13 | 48.43992 | 10.53979 | 258° | 58km/h | 23695m | -12.5m/s | -51.2°C | 3.6% | 33.4hPa | 2.7V | 00:00:00 | 02:03:12 | 00:00:00 | |
| DM0DOS-11 | 2026-09-05 12:32:10 | 48.43942 | 10.54023 | 102° | 37km/h | 23797m | -12m/s | -51.2°C | 3.5% | 33hPa | 2.6V | 08:22:49 | 02:03:04 | 00:00:00 | |
| DK7TD | 2026-09-05 12:32:07 | 48.43948 | 10.54047 | 36° | 38km/h | 23772m | -12.9m/s | -51.3°C | 0.3% | 33.1hPa | 2.7V | 08:23:29 | 02:03:06 | 00:00:00 | |
| DL1ZP-14 | 2026-09-05 12:32:07 | 48.43942 | 10.54036 | 70° | 37km/h | 23784m | -12.8m/s | -51.3°C | 0.9% | 33.0hPa | 2.6V | 00:00:00 | 00:00:00 | 00:00:00 | |
| DL1NUX | 2026-09-05 12:32:06 | 48.43980 | 10.54014 | 216° | 58km/h | 23850m | -13.4m/s | -51°C | 3.5% | 32.7hPa | 2.6V | 08:22:53 | 02:03:00 | 00:00:00 | |
| AZAK | 2026-09-05 12:32:06 | 48.43942 | 10.54036 | 71° | 37km/h | 23785m | -12.8m/s | -51.3°C | 0.9% | 33.0hPa | 2.7V | 08:23:00 | 00:00:00 | 00:00:00 | |
| DK5PH-5 | 2026-09-05 12:32:05 | 48.43942 | 10.54023 | 103° | 58km/h | 23798m | -12.0m/s | -51.1°C | 3.5% | 32.9hPa | 2.7V | 00:00:00 | 02:03:04 | 00:00:00 | |
| DM7RM-13 | 2026-09-05 12:32:04 | 48.43946 | 10.54011 | 139° | 40km/h | 23810m | -13.1m/s | -51.1°C | 0.9% | 32.9hPa | 2.7V | 08:23:00 | 00:00:00 | 00:00:00 | |
| DO9HM | 2026-09-05 12:32:03 | 48.43946 | 10.54011 | 139° | 40km/h | 23810m | -13.1m/s | -51.1°C | 0.9% | 32.9hPa | 2.7V | 00:00:00 | 00:00:00 | 00:00:00 | |
| DB0NH | 2026-09-05 12:32:02 | 48.43968 | 10.54005 | 194° | 58km/h | 23837m | -13.8m/s | -51.0°C | 3.5% | 32.7hPa | 2.7V | 00:00:00 | 02:03:01 | 00:00:00 | |
| DL9SK-14 | 2026-09-05 12:31:59 | 48.43998 | 10.54082 | 273° | 75km/h | 23890m | -12.8m/s | -51.1°C | 0.9% | 32.5hPa | 2.7V | 00:00:00 | 00:00:00 | 00:00:00 | |
| HARRO8 | 2026-09-05 12:31:56 | 48.43970 | 10.54154 | 327° | 75km/h | 23930m | -13.5m/s | -51.1°C | 0.9% | -1.0hPa | 2.7V | 00:00:00 | 00:00:00 | 00:00:00 | |
| DM0DOS-11 | 2026-09-05 12:31:55 | 48.43970 | 10.54154 | 327° | 75km/h | 23930m | -13.5m/s | -51.1°C | 3.5% | 32.3hPa | 2.7V | 08:22:59 | 02:02:54 | 00:00:00 | |
| OE5DXL-15 | 2026-09-05 12:31:55 | 48.43970 | 10.54154 | 328° | 57km/h | 23930m | -13.5m/s | -51.0°C | 3.5% | 32.3hPa | 2.6V | 00:00:00 | 02:02:54 | 00:00:00 | |
| DJ8HS-15 | 2026-09-05 12:31:53 | 48.43936 | 10.54168 | 4° | 57km/h | 23957m | -13.1m/s | -51.1°C | 3.4% | 32.1hPa | 2.6V | 00:00:00 | 02:02:52 | 00:00:00 | |
| DL1NUX | 2026-09-05 12:31:52 | 48.43909 | 10.54152 | 44° | 51km/h | 23983m | -13m/s | -51.2°C | 3.4% | 32.1hPa | 2.6V | 08:23:03 | 02:02:50 | 00:00:00 | |
| DK7TD | 2026-09-05 12:31:51 | 48.43910 | 10.54152 | 45° | 51km/h | 23983m | -13m/s | -51.2°C | 0.2% | 32.1hPa | 2.6V | 08:23:29 | 02:02:50 | 00:00:00 | |
| DO3MHA-12 | 2026-09-05 12:31:49 | 48.43903 | 10.54124 | 104° | 51km/h | 24009m | -13.1m/s | -51.2°C | 3.5% | 31.9hPa | 2.7V | 00:00:00 | 02:02:48 | 00:00:00 | |
| DO3MHA-11 | 2026-09-05 12:31:48 | 48.43907 | 10.54114 | 143° | 55km/h | 24023m | -13.4m/s | -51.3°C | 3.6% | 31.8hPa | 2.7V | 08:23:00 | 02:02:47 | 00:00:00 | |
| DB0UT-7 | 2026-09-05 12:31:47 | 48.43914 | 10.54110 | 180° | 57km/h | 24037m | -13.2m/s | -51.3°C | 3.6% | 31.8hPa | 2.6V | 08:23:00 | 00:00:00 | 00:00:00 | |
| DL1NUX | 2026-09-05 12:31:46 | 48.43914 | 10.54201 | 327° | 69km/h | 24116m | -13.5m/s | -51.3°C | 3.6% | 31.4hPa | 2.6V | 08:23:13 | 02:02:40 | 00:00:00 | |
| AZAK | 2026-09-05 12:31:45 | 48.43923 | 10.54114 | 212° | 40km/h | 24050m | -13.3m/s | -51.3°C | 0.9% | 31.8hPa | 2.6V | 08:23:00 | 00:00:00 | 00:00:00 | |
| DO9HM | 2026-09-05 12:31:43 | 48.43934 | 10.54164 | 287° | 60km/h | 24090m | -13.3m/s | -51.4°C | 1.0% | 31.6hPa | 2.6V | 00:00:00 | 00:00:00 | 00:00:00 | |
| OE5DRO-10 | 2026-09-05 12:31:41 | 48.43914 | 10.54201 | 328° | 60km/h | 24117m | -13.4m/s | -51.2°C | 3.6% | 31.4hPa | 2.6V | 00:00:00 | 00:00:00 | 00:00:00 | |
| DM0DOS-11 | 2026-09-05 12:31:40 | 48.43834 | 10.54147 | 85° | 60km/h | 24200m | -13.9m/s | -51.2°C | 3.5% | 31.1hPa | 2.6V | 08:23:19 | 02:02:34 | 00:00:00 | |
| DK7TD | 2026-09-05 12:31:40 | 48.43898 | 10.54211 | 347° | 71km/h | 24130m | -13.7m/s | -51.2°C | 0.5% | 31.4hPa | 2.6V | 08:23:29 | 02:02:39 | 00:00:00 | |
| DK7TD | 2026-09-05 12:31:29 | 48.43878 | 10.54130 | 256° | 55km/h | 24283m | -13.7m/s | -51°C | 0.4% | 30.7hPa | 2.6V | 08:23:29 | 02:02:28 | 00:00:00 | |
| DL1NUX | 2026-09-05 12:31:28 | 48.43878 | 10.54152 | 278° | 60km/h | 24297m | -14.1m/s | -50.9°C | 3.6% | 30.6hPa | 2.7V | 08:23:26 | 02:02:27 | 00:00:00 | |
| DO3MHA-11 | 2026-09-05 12:31:28 | 48.43878 | 10.54151 | 279° | 58km/h | 24297m | -14.0m/s | -50.9°C | 3.6% | 30.6hPa | 2.6V | 00:00:00 | 02:02:27 | 00:00:00 | |
| DM0DOS-11 | 2026-09-05 12:31:27 | 48.43849 | 10.54205 | 339° | 66km/h | 24338m | -12.7m/s | -51°C | 3.5% | 30.5hPa | 2.6V | 08:23:29 | 02:02:24 | 00:00:00 | |
| DK7TD | 2026-09-05 12:31:18 | 48.43815 | 10.54131 | 158° | 49km/h | 24431m | -12.8m/s | -50.8°C | 0.3% | 30.1hPa | 2.6V | 08:25:11 | 02:02:17 | 00:00:00 | |
| DL1NUX | 2026-09-05 12:31:18 | 48.43827 | 10.54129 | 186° | 49km/h | 24444m | -13.2m/s | -50.8°C | 3.6% | 30hPa | 2.6V | 08:23:37 | 02:02:16 | 00:00:00 | |
| DO3MHA-11 | 2026-09-05 12:31:18 | 48.43815 | 10.54131 | 158° | 60km/h | 24432m | -12.8m/s | -50.7°C | 3.5% | 30.0hPa | 2.6V | 00:00:00 | 02:02:17 | 00:00:00 | |
| DB0UT-7 | 2026-09-05 12:31:17 | 48.43827 | 10.54129 | 187° | 60km/h | 24445m | -13.1m/s | -50.8°C | 3.6% | 30.0hPa | 2.7V | 00:00:00 | 02:02:16 | 00:00:00 | |
| DM0DOS-11 | 2026-09-05 12:31:16 | 48.43847 | 10.54150 | 241° | 53km/h | 24471m | -13.5m/s | -50.8°C | 3.6% | 29.9hPa | 2.7V | 08:23:39 | 02:02:14 | 00:00:00 | |
| DJ8HS-15 | 2026-09-05 12:31:13 | 48.43848 | 10.54190 | 292° | 60km/h | 24500m | -14.1m/s | -50.7°C | 3.6% | 29.7hPa | 2.7V | 08:23:00 | 02:02:12 | 00:00:00 | |
| DF3TZ-5 | 2026-09-05 12:31:12 | 48.43839 | 10.54210 | 313° | 64km/h | 24514m | -13.9m/s | -50.7°C | 0.9% | 29.6hPa | 2.6V | 00:00:00 | 00:00:00 | 00:00:00 | |
| DM0DOS-11 | 2026-09-05 12:31:10 | 48.43755 | 10.54156 | 98° | 58km/h | 24610m | -14.3m/s | -50.5°C | 3.4% | 29.3hPa | 2.6V | 08:23:49 | 02:02:04 | 00:00:00 | |
| DK7TD | 2026-09-05 12:31:06 | 48.43756 | 10.54179 | 76° | 64km/h | 24596m | -13.6m/s | -50.5°C | 0.2% | 29.3hPa | 2.6V | 08:25:11 | 02:02:05 | 00:00:00 | |
| DL1ZP-14 | 2026-09-05 12:31:05 | 48.43760 | 10.54137 | 123° | 53km/h | 24624m | -13.9m/s | -50.5°C | 0.9% | 29.2hPa | 2.6V | 00:00:00 | 00:00:00 | 00:00:00 | |
| OE5WHR-10 | 2026-09-05 12:31:04 | 48.43760 | 10.54137 | 124° | 57km/h | 24624m | -13.8m/s | -50.4°C | 3.4% | 29.1hPa | 2.6V | 00:00:00 | 02:02:03 | 00:00:00 | |
| OE5DRO-10 | 2026-09-05 12:31:03 | 48.43770 | 10.54123 | 150° | 58km/h | 24638m | -13.4m/s | -50.4°C | 3.4% | 29.1hPa | 2.6V | 00:00:00 | 00:00:00 | 00:00:00 | |
| DB0NH | 2026-09-05 12:31:02 | 48.43781 | 10.54118 | 177° | 60km/h | 24652m | -13.5m/s | -50.4°C | 3.4% | 29.0hPa | 2.6V | 00:00:00 | 02:02:01 | 00:00:00 | |
| DL6DJ-15 | 2026-09-05 12:31:00 | 48.43799 | 10.54133 | 242° | 44km/h | 24681m | -14.3m/s | -50.5°C | 0.9% | 29.0hPa | 2.6V | 00:00:00 | 00:00:00 | 00:00:00 | |
| OE5MMP-10 | 2026-09-05 12:30:59 | 48.43801 | 10.54150 | 273° | 68km/h | 24695m | -13.7m/s | -50.5°C | 3.5% | 28.9hPa | 2.6V | 00:00:00 | 02:01:58 | 00:00:00 | |
| DL1NUX | 2026-09-05 12:30:58 | 48.43787 | 10.54183 | 325° | 60km/h | 24724m | -14.2m/s | -50.7°C | 3.5% | 28.8hPa | 2.7V | 08:23:57 | 02:01:56 | 00:00:00 | |
| NBG1-10 | 2026-09-05 12:30:58 | 48.43797 | 10.54168 | 301° | 60km/h | 24709m | -14.3m/s | -50.6°C | 3.5% | 28.8hPa | 2.6V | 00:00:00 | 02:01:57 | 00:00:00 | |
| DM0DOS-11 | 2026-09-05 12:30:57 | 48.43755 | 10.54194 | 7° | 73km/h | 24752m | -13.6m/s | -50.8°C | 3.5% | 28.6hPa | 2.6V | 08:23:59 | 02:01:54 | 00:00:00 | |
| DK7TD | 2026-09-05 12:30:51 | 48.43706 | 10.54117 | 83° | 73km/h | 24807m | -13.5m/s | -50.9°C | 0.4% | 28.5hPa | 2.6V | 08:25:11 | 02:01:50 | 00:00:00 | |
| DB0ND-19 | 2026-09-05 12:30:51 | 48.43707 | 10.54091 | 101° | 68km/h | 24821m | -14.2m/s | -50.9°C | 0.9% | 28.4hPa | 2.7V | 00:00:00 | 00:00:00 | 00:00:00 | |
| DM7RM-13 | 2026-09-05 12:30:50 | 48.43706 | 10.54091 | 102° | 68km/h | 24821m | -14.2m/s | -50.9°C | 0.9% | 28.4hPa | 2.7V | 08:24:00 | 00:00:00 | 00:00:00 | |
| DO3MHA-12 | 2026-09-05 12:30:49 | 48.43712 | 10.54068 | 122° | 49km/h | 24835m | -13.4m/s | -50.9°C | 3.6% | 28.3hPa | 2.7V | 00:00:00 | 02:01:48 | 00:00:00 | |
| DL1NUX | 2026-09-05 12:30:48 | 48.43750 | 10.54055 | 240° | 37km/h | 24890m | -14.3m/s | -50.9°C | 3.6% | 28hPa | 2.7V | 08:24:09 | 02:01:44 | 00:00:00 | |
| HSKMA3-T | 2026-09-05 12:30:47 | 48.43733 | 10.54045 | 170° | 46km/h | 24862m | -13.1m/s | -51°C | 0.4% | 28.2hPa | 2.6V | 08:24:20 | 02:01:46 | 00:00:00 | |
| DK7TD | 2026-09-05 12:30:37 | 48.43682 | 10.54037 | 84° | 69km/h | 25003m | -14.7m/s | -50.6°C | 0.3% | 27.6hPa | 2.6V | 08:25:11 | 02:01:36 | 00:00:00 | |
| HSKMA3-T | 2026-09-05 12:30:34 | 48.43704 | 10.53971 | 152° | 69km/h | 25047m | -13.6m/s | -50.6°C | 0.3% | 27.5hPa | 2.7V | 08:24:20 | 02:01:33 | 00:00:00 | |
| DK7TD | 2026-09-05 12:30:22 | 48.43698 | 10.54006 | 91° | 60km/h | 25216m | -14.7m/s | -50.7°C | 0.4% | 26.7hPa | 2.7V | 08:25:11 | 02:01:21 | 00:00:00 | |
| HSKMA3-T | 2026-09-05 12:30:19 | 48.43723 | 10.53959 | 166° | 55km/h | 25260m | -15.1m/s | -50.4°C | 0.4% | 26.6hPa | 2.6V | 08:26:53 | 02:01:18 | 00:00:00 | |
| SONCRA | 2026-09-05 12:30:19 | 48.43736 | 10.53959 | 192° | 53km/h | 25275m | -13.8m/s | -50.3°C | 0.9% | 26.5hPa | 2.7V | 00:00:00 | 00:00:00 | 00:00:00 | |
| DL1NUX | 2026-09-05 12:30:18 | 48.43756 | 10.54005 | 278° | 58km/h | 25317m | -14.5m/s | -50.1°C | 3.6% | 26.4hPa | 2.7V | 08:24:39 | 02:01:14 | 00:00:00 | |
| DK7TD | 2026-09-05 12:30:09 | 48.43674 | 10.54026 | 49° | 69km/h | 25404m | -13.8m/s | -50°C | 0.4% | 26hPa | 2.6V | 08:25:11 | 02:01:08 | 00:00:00 | |
| DO3MHA-12 | 2026-09-05 12:30:09 | 48.43673 | 10.54026 | 50° | 53km/h | 25405m | -13.8m/s | -49.9°C | 3.4% | 25.9hPa | 2.6V | 00:00:00 | 02:01:08 | 00:00:00 | |
| DL1NUX | 2026-09-05 12:30:07 | 48.43700 | 10.53959 | 246° | 44km/h | 25505m | -15.8m/s | -49.6°C | 3.5% | 25.6hPa | 2.6V | 08:24:52 | 02:01:01 | 00:00:00 | |
| HSKMA3-T | 2026-09-05 12:30:05 | 48.43674 | 10.53949 | 147° | 44km/h | 25461m | -14.7m/s | -49.7°C | 0.2% | 25.8hPa | 2.6V | 08:26:53 | 02:01:04 | 00:00:00 | |
| DK5PH-5 | 2026-09-05 12:30:05 | 48.43674 | 10.53949 | 147° | 60km/h | 25461m | -14.7m/s | -49.6°C | 3.4% | 25.7hPa | 2.6V | 00:00:00 | 02:01:04 | 00:00:00 | |
| SO1NDE-10 | 2026-09-05 12:30:04 | 48.43683 | 10.53944 | 180° | 66km/h | 25476m | -15.3m/s | -49.7°C | 3.5% | 25.7hPa | 2.7V | 08:24:00 | 02:01:03 | 00:00:00 | |
| SONDE2-11 | 2026-09-05 12:30:03 | 48.43620 | 10.53993 | 49° | 80km/h | 25610m | -15.1m/s | -49.3°C | 0.8% | 25.3hPa | 2.6V | 00:00:00 | 00:00:00 | 00:00:00 | |
| DF7PN | 2026-09-05 12:30:01 | 48.43620 | 10.53993 | 49° | 80km/h | 25610m | -15.1m/s | -49.3°C | 0.8% | 25.3hPa | 2.6V | 00:00:00 | 00:00:00 | 00:00:00 | |
| DO3MHA-12 | 2026-09-05 12:29:59 | 48.43686 | 10.54011 | 326° | 69km/h | 25551m | -15.0m/s | -49.4°C | 3.4% | 25.4hPa | 2.6V | 00:00:00 | 02:00:58 | 00:00:00 | |
| OE5MMP-10 | 2026-09-05 12:29:58 | 48.43671 | 10.54021 | 349° | 68km/h | 25566m | -14.9m/s | -49.3°C | 3.3% | 25.4hPa | 2.6V | 08:24:00 | 02:00:57 | 00:00:00 | |
| DL1NUX | 2026-09-05 12:29:57 | 48.43609 | 10.53912 | 108° | 69km/h | 25654m | -14.5m/s | -49.1°C | 3.2% | 25.1hPa | 2.6V | 08:25:02 | 02:00:51 | 00:00:00 | |
| DK7TD | 2026-09-05 12:29:55 | 48.43620 | 10.53993 | 49° | 82km/h | 25610m | -15.1m/s | -49.3°C | 0.2% | 25.3hPa | 2.7V | 08:25:11 | 02:00:54 | 00:00:00 | |
| DL9SK-14 | 2026-09-05 12:29:55 | 48.43610 | 10.53967 | 70° | 77km/h | 25625m | -14.6m/s | -49.3°C | 0.8% | 25.2hPa | 2.6V | 00:00:00 | 00:00:00 | 00:00:00 | |
| DJ8HS-15 | 2026-09-05 12:29:53 | 48.43606 | 10.53939 | 88° | 64km/h | 25639m | -14.8m/s | -49.1°C | 3.2% | 25.1hPa | 2.6V | 00:00:00 | 02:00:52 | 00:00:00 | |
| NBG1-10 | 2026-09-05 12:29:52 | 48.43609 | 10.53912 | 109° | 62km/h | 25654m | -14.5m/s | -49.0°C | 3.2% | 25.0hPa | 2.6V | 00:00:00 | 02:00:51 | 00:00:00 | |
| DM0DOS-11 | 2026-09-05 12:29:50 | 48.43644 | 10.53926 | 318° | 57km/h | 25759m | -14.8m/s | -48.8°C | 3.2% | 24.7hPa | 2.6V | 08:25:09 | 02:00:44 | 00:00:00 | |
| HSKMA3-T | 2026-09-05 12:29:49 | 48.43640 | 10.53875 | 187° | 44km/h | 25699m | -15.7m/s | -48.7°C | 0.2% | 24.9hPa | 2.7V | 08:26:53 | 02:00:48 | 00:00:00 | |
| SONCRA | 2026-09-05 12:29:48 | 48.43653 | 10.53894 | 259° | 40km/h | 25730m | -15.0m/s | -48.7°C | 0.8% | 24.8hPa | 2.7V | 00:00:00 | 00:00:00 | 00:00:00 | |
| DL1NUX | 2026-09-05 12:29:47 | 48.43595 | 10.53933 | 22° | 78km/h | 25804m | -15.7m/s | -48.9°C | 3.1% | 24.5hPa | 2.7V | 08:25:12 | 02:00:41 | 00:00:00 | |
| DK7TD | 2026-09-05 12:29:39 | 48.43555 | 10.53866 | 73° | 82km/h | 25850m | -15m/s | -49°C | 0.1% | 24.3hPa | 2.6V | 08:26:02 | 02:00:38 | 00:00:00 | |
| DO3MHA-12 | 2026-09-05 12:29:39 | 48.43555 | 10.53866 | 74° | 55km/h | 25851m | -14.9m/s | -49.0°C | 3.1% | 24.3hPa | 2.7V | 00:00:00 | 02:00:38 | 00:00:00 | |
| DM0DOS-11 | 2026-09-05 12:29:38 | 48.43575 | 10.53771 | 151° | 57km/h | 25910m | -15.2m/s | -49.3°C | 3.2% | 24.1hPa | 2.7V | 08:25:19 | 02:00:34 | 00:00:00 | |
| OE5MMP-10 | 2026-09-05 12:29:38 | 48.43552 | 10.53836 | 90° | 53km/h | 25865m | -14.9m/s | -49.0°C | 3.1% | 24.2hPa | 2.6V | 00:00:00 | 02:00:37 | 00:00:00 | |
| DL1NUX | 2026-09-05 12:29:37 | 48.43603 | 10.53778 | 241° | 35km/h | 25956m | -15.1m/s | -49.3°C | 3.3% | 23.9hPa | 2.6V | 08:25:22 | 02:00:31 | 00:00:00 | |
| HSKMA3-T | 2026-09-05 12:29:33 | 48.43596 | 10.53769 | 207° | 38km/h | 25941m | -15.6m/s | -49.4°C | 0.3% | 24hPa | 2.6V | 08:26:53 | 02:00:32 | 00:00:00 | |
| DJ8HS-15 | 2026-09-05 12:29:33 | 48.43596 | 10.53769 | 207° | 55km/h | 25941m | -15.6m/s | -49.3°C | 3.4% | 24.0hPa | 2.7V | 00:00:00 | 02:00:32 | 00:00:00 | |
| DL1ZP-14 | 2026-09-05 12:29:32 | 48.43604 | 10.53791 | 281° | 37km/h | 25971m | -14.7m/s | -49.4°C | 0.8% | 23.9hPa | 2.7V | 00:00:00 | 00:00:00 | 00:00:00 | |
| DF7PN | 2026-09-05 12:29:30 | 48.43589 | 10.53812 | 342° | 51km/h | 25999m | -14.2m/s | -49.5°C | 0.9% | 23.8hPa | 2.6V | 00:00:00 | 00:00:00 | 00:00:00 | |
| DO3MHA-12 | 2026-09-05 12:29:29 | 48.43589 | 10.53812 | 343° | 69km/h | 26000m | -14.1m/s | -49.4°C | 3.4% | 23.8hPa | 2.6V | 00:00:00 | 02:00:28 | 00:00:00 | |
| OE5MMP-10 | 2026-09-05 12:29:28 | 48.43575 | 10.53814 | 6° | 68km/h | 26014m | -14.6m/s | -49.5°C | 3.4% | 23.7hPa | 2.6V | 00:00:00 | 02:00:27 | 00:00:00 | |
| DL6DJ-15 | 2026-09-05 12:29:27 | 48.43559 | 10.53807 | 25° | 69km/h | 26029m | -15.3m/s | -49.5°C | 0.8% | 23.8hPa | 2.7V | 00:00:00 | 00:00:00 | 00:00:00 | |
| DL1NUX | 2026-09-05 12:29:27 | 48.43524 | 10.53685 | 107° | 71km/h | 26106m | -14.1m/s | -49.6°C | 3.2% | 23.4hPa | 2.6V | 08:25:32 | 02:00:21 | 00:00:00 | |
| DM0DOS-11 | 2026-09-05 12:29:26 | 48.43531 | 10.53768 | 59° | 78km/h | 26060m | -16.2m/s | -49.6°C | 3.2% | 23.6hPa | 2.7V | 08:25:29 | 02:00:24 | 00:00:00 | |
| DK7TD | 2026-09-05 12:29:24 | 48.43524 | 10.53741 | 74° | 78km/h | 26076m | -15.4m/s | -49.6°C | 0.2% | 23.6hPa | 2.7V | 08:26:02 | 02:00:23 | 00:00:00 | |
| HSKMA3-T | 2026-09-05 12:29:18 | 48.43567 | 10.53639 | 190° | 44km/h | 26161m | -14.4m/s | -49.6°C | 0.3% | 23.3hPa | 2.7V | 08:26:53 | 02:00:17 | 00:00:00 | |
| OE5MMP-10 | 2026-09-05 12:29:18 | 48.43567 | 10.53639 | 190° | 44km/h | 26161m | -14.3m/s | -49.6°C | 3.3% | 23.2hPa | 2.7V | 00:00:00 | 02:00:17 | 00:00:00 | |
| DL1NUX | 2026-09-05 12:29:17 | 48.43574 | 10.53702 | 334° | 42km/h | 26248m | -15m/s | -49.7°C | 3.5% | 23hPa | 2.7V | 08:25:42 | 02:00:11 | 00:00:00 | |
| DB0UT-7 | 2026-09-05 12:29:17 | 48.43576 | 10.53644 | 214° | 49km/h | 26176m | -14.9m/s | -49.7°C | 3.4% | 23.2hPa | 2.6V | 00:00:00 | 02:00:16 | 00:00:00 | |
| DM0DOS-11 | 2026-09-05 12:29:16 | 48.43586 | 10.53667 | 258° | 37km/h | 26205m | -14.6m/s | -49.7°C | 3.4% | 23.1hPa | 2.6V | 08:25:39 | 02:00:14 | 00:00:00 | |
| DK7TD | 2026-09-05 12:29:14 | 48.43586 | 10.53680 | 283° | 37km/h | 26219m | -14.2m/s | -49.7°C | 0.4% | 23hPa | 2.6V | 08:26:02 | 02:00:13 | 00:00:00 | |
| OE5WHR-10 | 2026-09-05 12:29:14 | 48.43586 | 10.53680 | 283° | 51km/h | 26220m | -14.2m/s | -49.6°C | 3.5% | 23.0hPa | 2.7V | 00:00:00 | 00:00:00 | 00:00:00 | |
| DJ8HS-15 | 2026-09-05 12:29:13 | 48.43582 | 10.53693 | 310° | 51km/h | 26234m | -14.6m/s | -49.7°C | 3.5% | 23.0hPa | 2.7V | 00:00:00 | 02:00:12 | 00:00:00 | |
| DH7VM-15 | 2026-09-05 12:29:09 | 48.43538 | 10.53697 | 32° | 57km/h | 26293m | -15.6m/s | -49.8°C | 0.9% | 22.8hPa | 2.7V | 00:00:00 | 00:00:00 | 00:00:00 | |
| DM0DOS-11 | 2026-09-05 12:29:08 | 48.43509 | 10.53622 | 88° | 62km/h | 26353m | -14.4m/s | -49.5°C | 3.3% | 22.6hPa | 2.7V | 08:25:49 | 02:00:04 | 00:00:00 | |
| HSKMA3-T | 2026-09-05 12:29:07 | 48.43518 | 10.53666 | 58° | 60km/h | 26324m | -14.8m/s | -49.7°C | 0.3% | 22.7hPa | 2.7V | 08:26:53 | 02:00:06 | 00:00:00 | |
| DK7TD | 2026-09-05 12:29:03 | 48.43516 | 10.53577 | 118° | 62km/h | 26383m | -15.3m/s | -49.5°C | 0.2% | 22.5hPa | 2.6V | 08:26:02 | 02:00:02 | 00:00:00 | |
| DB0NH | 2026-09-05 12:29:02 | 48.43525 | 10.53559 | 132° | 51km/h | 26399m | -14.4m/s | -49.5°C | 3.3% | 22.4hPa | 2.6V | 00:00:00 | 02:00:01 | 00:00:00 | |
| SO1NDE-10 | 2026-09-05 12:29:01 | 48.43535 | 10.53545 | 148° | 51km/h | 26413m | -13.9m/s | -49.5°C | 3.3% | 22.4hPa | 2.6V | 00:00:00 | 02:00:00 | 00:00:00 | |
| AZAK | 2026-09-05 12:29:00 | 48.43548 | 10.53536 | 165° | 51km/h | 26427m | -14.9m/s | -49.5°C | 0.8% | 22.4hPa | 2.6V | 08:26:00 | 00:00:00 | 00:00:00 | |
| DO3MHA-12 | 2026-09-05 12:28:59 | 48.43560 | 10.53534 | 181° | 42km/h | 26442m | -14.3m/s | -49.5°C | 3.3% | 22.3hPa | 2.6V | 00:00:00 | 01:59:58 | 00:00:00 | |
| OE5MMP-10 | 2026-09-05 12:28:58 | 48.43572 | 10.53536 | 198° | 44km/h | 26456m | -14.4m/s | -49.4°C | 3.3% | 22.2hPa | 2.6V | 00:00:00 | 01:59:57 | 00:00:00 | |
| DL1NUX | 2026-09-05 12:28:57 | 48.43583 | 10.53607 | 324° | 40km/h | 26548m | -15.7m/s | -49.9°C | 3.6% | 22hPa | 2.6V | 08:26:02 | 01:59:51 | 00:00:00 | |
| HSKMA3-T | 2026-09-05 12:28:57 | 48.43582 | 10.53544 | 219° | 44km/h | 26471m | -14.5m/s | -49.5°C | 0.3% | 22.2hPa | 2.6V | 08:26:53 | 01:59:56 | 00:00:00 | |
| DJTTGO | 2026-09-05 12:28:57 | 48.43582 | 10.53544 | 220° | 44km/h | 26471m | -14.5m/s | -49.5°C | 0.9% | 22.2hPa | 2.7V | 08:26:00 | 00:00:00 | 00:00:00 | |
| DM0DOS-11 | 2026-09-05 12:28:56 | 48.43592 | 10.53569 | 256° | 38km/h | 26502m | -15.9m/s | -49.7°C | 3.5% | 22.2hPa | 2.7V | 08:25:59 | 01:59:54 | 00:00:00 | |
| DK7TD | 2026-09-05 12:28:52 | 48.43583 | 10.53606 | 325° | 40km/h | 26548m | -15.7m/s | -49.9°C | 0.5% | 22hPa | 2.6V | 08:26:02 | 01:59:51 | 00:00:00 | |
| PG1ADW-2 | 2026-09-05 12:28:52 | 48.43582 | 10.53606 | 325° | 49km/h | 26549m | -15.6m/s | -49.9°C | 3.6% | 21.9hPa | 2.6V | 00:00:00 | 00:00:00 | 00:00:00 | |
| OE5DRO-10 | 2026-09-05 12:28:50 | 48.43561 | 10.53613 | 6° | 55km/h | 26579m | -13.9m/s | -50.0°C | 3.6% | 21.9hPa | 2.6V | 00:00:00 | 00:00:00 | 00:00:00 | |
| DO3MHA-12 | 2026-09-05 12:28:49 | 48.43549 | 10.53608 | 26° | 64km/h | 26593m | -15.2m/s | -49.9°C | 3.6% | 21.8hPa | 2.7V | 00:00:00 | 01:59:48 | 00:00:00 | |
| DM0DOS-11 | 2026-09-05 12:28:48 | 48.43514 | 10.53539 | 78° | 66km/h | 26652m | -15.5m/s | -49.5°C | 3.5% | 21.7hPa | 2.6V | 08:26:09 | 01:59:44 | 00:00:00 | |
| HSKMA3-T | 2026-09-05 12:28:46 | 48.43519 | 10.53562 | 66° | 64km/h | 26636m | -15.1m/s | -49.6°C | 0.4% | 21.7hPa | 2.6V | 08:26:53 | 01:59:45 | 00:00:00 | |
| SONCRA | 2026-09-05 12:28:46 | 48.43514 | 10.53539 | 78° | 66km/h | 26652m | -15.5m/s | -49.5°C | 0.9% | 21.7hPa | 2.7V | 00:00:00 | 00:00:00 | 00:00:00 | |
| DL1NUX | 2026-09-05 12:28:44 | 48.43520 | 10.53464 | 117° | 68km/h | 26697m | -15.6m/s | -49.4°C | 3.4% | 21.6hPa | 2.7V | 08:26:12 | 01:59:41 | 00:00:00 | |
| DK7TD | 2026-09-05 12:28:42 | 48.43520 | 10.53464 | 117° | 68km/h | 26697m | -15.6m/s | -49.4°C | 0.3% | 21.6hPa | 2.7V | 08:26:53 | 01:59:41 | 00:00:00 | |
| PETON7-10 | 2026-09-05 12:28:42 | 48.43520 | 10.53464 | 118° | 49km/h | 26697m | -15.5m/s | -49.3°C | 3.4% | 21.5hPa | 2.7V | 00:00:00 | 00:00:00 | 00:00:00 | |
| DM7RM-13 | 2026-09-05 12:28:41 | 48.43520 | 10.53464 | 118° | 68km/h | 26697m | -15.6m/s | -49.4°C | 0.9% | 21.6hPa | 2.7V | 08:26:00 | 00:00:00 | 00:00:00 | |
| AZAK | 2026-09-05 12:28:39 | 48.43553 | 10.53413 | 155° | 58km/h | 26742m | -15.3m/s | -49.3°C | 0.9% | 21.4hPa | 2.7V | 08:26:00 | 00:00:00 | 00:00:00 | |
| OE5MMP-10 | 2026-09-05 12:28:38 | 48.43566 | 10.53406 | 169° | 42km/h | 26758m | -15.9m/s | -49.2°C | 3.4% | 21.3hPa | 2.7V | 00:00:00 | 01:59:37 | 00:00:00 | |
| DM0DOS-11 | 2026-09-05 12:28:36 | 48.43599 | 10.53416 | 225° | 40km/h | 26802m | -16.1m/s | -49°C | 3.5% | 21.2hPa | 2.7V | 08:26:19 | 01:59:34 | 00:00:00 | |
| HSKMA3-T | 2026-09-05 12:28:35 | 48.43599 | 10.53416 | 225° | 40km/h | 26802m | -16.1m/s | -49°C | 0.4% | 21.2hPa | 2.7V | 08:26:53 | 01:59:34 | 00:00:00 | |
| DF1GD-15 | 2026-09-05 12:28:35 | 48.43599 | 10.53416 | 226° | 40km/h | 26803m | -16.1m/s | -49.0°C | 0.9% | 21.2hPa | 2.6V | 08:26:00 | 00:00:00 | 00:00:00 | |
| DL1NUX | 2026-09-05 12:28:34 | 48.43607 | 10.53456 | 286° | 40km/h | 26848m | -15.2m/s | -48.5°C | 3.3% | 21.1hPa | 2.6V | 08:26:22 | 01:59:31 | 00:00:00 | |
| DK7TD | 2026-09-05 12:28:31 | 48.43602 | 10.53469 | 309° | 38km/h | 26864m | -16.4m/s | -48.4°C | 0.2% | 21hPa | 2.7V | 08:26:53 | 01:59:30 | 00:00:00 | |
| SO1NDE-10 | 2026-09-05 12:28:31 | 48.43602 | 10.53469 | 309° | 51km/h | 26864m | -16.3m/s | -48.3°C | 3.3% | 21.0hPa | 2.7V | 00:00:00 | 01:59:30 | 00:00:00 | |
| OE5WHR-10 | 2026-09-05 12:28:30 | 48.43595 | 10.53479 | 328° | 55km/h | 26880m | -15.8m/s | -48.2°C | 3.3% | 20.9hPa | 2.7V | 08:26:00 | 00:00:00 | 00:00:00 | |
| DO3MHA-12 | 2026-09-05 12:28:29 | 48.43585 | 10.53485 | 345° | 53km/h | 26896m | -15.6m/s | -48.2°C | 3.3% | 20.9hPa | 2.7V | 00:00:00 | 01:59:28 | 00:00:00 | |
| DM0DOS-11 | 2026-09-05 12:28:28 | 48.43549 | 10.53458 | 60° | 49km/h | 26958m | -14.9m/s | -48.1°C | 3.2% | 20.7hPa | 2.7V | 08:26:29 | 01:59:24 | 00:00:00 | |
| OE5MMP-10 | 2026-09-05 12:28:28 | 48.43575 | 10.53486 | 11° | 55km/h | 26912m | -16.4m/s | -48.1°C | 3.2% | 20.8hPa | 2.5V | 08:26:00 | 01:59:27 | 00:00:00 | |
| PETON7-10 | 2026-09-05 12:28:27 | 48.43565 | 10.53481 | 23° | 60km/h | 26928m | -16.2m/s | -48.1°C | 3.2% | 20.8hPa | 2.6V | 00:00:00 | 01:59:26 | 00:00:00 | |
| DO3MHA-11 | 2026-09-05 12:28:26 | 48.43556 | 10.53472 | 46° | 60km/h | 26944m | -15.3m/s | -48.1°C | 3.2% | 20.7hPa | 2.6V | 00:00:00 | 01:59:25 | 00:00:00 | |
| DL6DJ-15 | 2026-09-05 12:28:25 | 48.43545 | 10.53440 | 82° | 53km/h | 26974m | -15.2m/s | -48.1°C | 0.8% | 20.7hPa | 2.6V | 00:00:00 | 00:00:00 | 00:00:00 | |
| DL1NUX | 2026-09-05 12:28:24 | 48.43547 | 10.53397 | 108° | 64km/h | 27005m | -15m/s | -48.1°C | 3.1% | 20.6hPa | 2.6V | 08:26:32 | 01:59:21 | 00:00:00 | |
| HSKMA3-T | 2026-09-05 12:28:24 | 48.43544 | 10.53419 | 93° | 57km/h | 26989m | -15.8m/s | -48.1°C | 0.2% | 20.7hPa | 2.7V | 08:26:53 | 01:59:22 | 00:00:00 | |
| DK7TD | 2026-09-05 12:28:21 | 48.43554 | 10.53376 | 125° | 64km/h | 27021m | -16.3m/s | -48.1°C | 0.1% | 20.6hPa | 2.6V | 08:26:53 | 01:59:20 | 00:00:00 | |
| DO3MHA-12 | 2026-09-05 12:28:19 | 48.43577 | 10.53341 | 147° | 57km/h | 27054m | -17.0m/s | -47.9°C | 3.0% | 20.4hPa | 2.7V | 08:26:00 | 01:59:18 | 00:00:00 | |
| OE5MMP-10 | 2026-09-05 12:28:18 | 48.43592 | 10.53330 | 161° | 55km/h | 27070m | -14.9m/s | -47.8°C | 3.0% | 20.4hPa | 2.7V | 00:00:00 | 01:59:17 | 00:00:00 | |
| DB0UT-7 | 2026-09-05 12:28:17 | 48.43608 | 10.53324 | 174° | 51km/h | 27086m | -16.1m/s | -47.8°C | 3.0% | 20.3hPa | 2.7V | 00:00:00 | 01:59:16 | 00:00:00 | |
| DB0ND-19 | 2026-09-05 12:28:16 | 48.43638 | 10.53328 | 198° | 62km/h | 27117m | -13.9m/s | -47.9°C | 0.8% | 20.3hPa | 2.7V | 00:00:00 | 00:00:00 | 00:00:00 | |
| DF1GD-15 | 2026-09-05 12:28:15 | 48.43638 | 10.53328 | 199° | 62km/h | 27117m | -13.9m/s | -47.9°C | 0.8% | 20.3hPa | 2.7V | 08:26:00 | 00:00:00 | 00:00:00 | |
| DL1NUX | 2026-09-05 12:28:14 | 48.43670 | 10.53368 | 242° | 49km/h | 27161m | -15.7m/s | -48°C | 3.2% | 20.2hPa | 2.7V | 08:26:42 | 01:59:11 | 00:00:00 | |
| HSKMA3-T | 2026-09-05 12:28:13 | 48.43662 | 10.53352 | 228° | 53km/h | 27146m | -15.1m/s | -47.9°C | 0.1% | 20.2hPa | 2.7V | 08:26:53 | 01:59:12 | 00:00:00 | |
| DK7TD | 2026-09-05 12:28:10 | 48.43674 | 10.53401 | 275° | 44km/h | 27193m | -17.1m/s | -48.1°C | 0.3% | 20.1hPa | 2.6V | 08:26:53 | 01:59:09 | 00:00:00 | |
| PG1ADW-2 | 2026-09-05 12:28:10 | 48.43674 | 10.53401 | 275° | 46km/h | 27194m | -17.0m/s | -48.1°C | 3.3% | 20.0hPa | 2.6V | 00:00:00 | 01:59:09 | 00:00:00 | |
| DO3MHA-12 | 2026-09-05 12:28:09 | 48.43671 | 10.53416 | 294° | 40km/h | 27211m | -16.9m/s | -48.1°C | 3.3% | 20.0hPa | 2.6V | 00:00:00 | 01:59:08 | 00:00:00 | |
| OE5MMP-10 | 2026-09-05 12:28:08 | 48.43666 | 10.53427 | 316° | 42km/h | 27227m | -15.7m/s | -48.2°C | 3.3% | 19.9hPa | 2.6V | 00:00:00 | 01:59:07 | 00:00:00 | |
| DO3MHA-11 | 2026-09-05 12:28:06 | 48.43651 | 10.53434 | 9° | 44km/h | 27259m | -15.0m/s | -48.2°C | 3.3% | 19.9hPa | 2.6V | 00:00:00 | 01:59:05 | 00:00:00 | |
| DM0DOS-11 | 2026-09-05 12:28:04 | 48.43634 | 10.53406 | 75° | 42km/h | 27303m | -15.7m/s | -48.3°C | 3.2% | 19.8hPa | 2.6V | 08:26:51 | 01:59:02 | 00:00:00 | |
| DL1NUX | 2026-09-05 12:28:03 | 48.43638 | 10.53354 | 117° | 51km/h | 27350m | -16.5m/s | -48.3°C | 3.3% | 19.6hPa | 2.7V | 08:26:54 | 01:58:59 | 00:00:00 | |
| HSKMA3-T | 2026-09-05 12:28:03 | 48.43634 | 10.53406 | 75° | 42km/h | 27303m | -15.7m/s | -48.3°C | 0.2% | 19.8hPa | 2.6V | 08:26:53 | 01:59:02 | 00:00:00 | |
| DK7TD | 2026-09-05 12:27:59 | 48.43645 | 10.53338 | 130° | 53km/h | 27366m | -16.6m/s | -48.2°C | 0.2% | 19.6hPa | 2.7V | 08:27:44 | 01:58:58 | 00:00:00 | |
| DO3MHA-12 | 2026-09-05 12:27:59 | 48.43645 | 10.53338 | 131° | 55km/h | 27367m | -16.6m/s | -48.1°C | 3.2% | 19.5hPa | 2.7V | 00:00:00 | 01:58:58 | 00:00:00 | |
| DM0DOS-11 | 2026-09-05 12:27:58 | 48.43711 | 10.53338 | 232° | 53km/h | 27468m | -17.3m/s | -48°C | 3.3% | 19.3hPa | 2.7V | 08:27:01 | 01:58:52 | 00:00:00 | |
| OE5MMP-10 | 2026-09-05 12:27:58 | 48.43654 | 10.53324 | 144° | 55km/h | 27383m | -16.1m/s | -48.1°C | 3.2% | 19.4hPa | 2.6V | 00:00:00 | 01:58:57 | 00:00:00 | |
| DJ2DS-15 | 2026-09-05 12:27:57 | 48.43666 | 10.53316 | 164° | 49km/h | 27400m | -16.8m/s | -48.1°C | 3.2% | 19.4hPa | 2.6V | 00:00:00 | 01:58:56 | 00:00:00 | |
| DO3MHA-11 | 2026-09-05 12:27:56 | 48.43678 | 10.53313 | 180° | 58km/h | 27416m | -17.2m/s | -48.1°C | 3.2% | 19.4hPa | 2.6V | 00:00:00 | 01:58:55 | 00:00:00 | |
| DL1NUX | 2026-09-05 12:27:55 | 48.43720 | 10.53401 | 280° | 62km/h | 27517m | -17.3m/s | -47.4°C | 3.2% | 19.1hPa | 2.6V | 08:27:04 | 01:58:49 | 00:00:00 | |
| HSKMA3-T | 2026-09-05 12:27:52 | 48.43717 | 10.53356 | 249° | 58km/h | 27484m | -15.8m/s | -47.9°C | 0.3% | 19.3hPa | 2.6V | 18:12:15 | 01:58:51 | 00:00:00 | |
| DK7TD | 2026-09-05 12:27:49 | 48.43716 | 10.53424 | 293° | 68km/h | 27534m | -16.8m/s | -47.3°C | 0.2% | 19.1hPa | 2.7V | 08:27:44 | 01:58:48 | 00:00:00 | |
| DO9HM | 2026-09-05 12:27:49 | 48.43716 | 10.53424 | 294° | 68km/h | 27534m | -16.8m/s | -47.3°C | 0.8% | 19.1hPa | 2.7V | 00:00:00 | 00:00:00 | 00:00:00 | |
| OE5MMP-10 | 2026-09-05 12:27:48 | 48.43707 | 10.53446 | 305° | 68km/h | 27551m | -16.7m/s | -47.2°C | 3.2% | 19.0hPa | 2.7V | 00:00:00 | 01:58:47 | 00:00:00 | |
| DB0UT-7 | 2026-09-05 12:27:47 | 48.43696 | 10.53465 | 322° | 60km/h | 27567m | -16.3m/s | -47.1°C | 3.2% | 19.0hPa | 2.7V | 00:00:00 | 00:00:00 | 00:00:00 | |
| DH7VM-15 | 2026-09-05 12:27:46 | 48.43680 | 10.53480 | 333° | 73km/h | 27583m | -17.2m/s | -47.1°C | 0.8% | 19.0hPa | 2.7V | 00:00:00 | 00:00:00 | 00:00:00 | |
| DM0DOS-11 | 2026-09-05 12:27:45 | 48.43628 | 10.53490 | 15° | 71km/h | 27632m | -17.6m/s | -47°C | 3.1% | 18.8hPa | 2.7V | 08:27:11 | 01:58:42 | 00:00:00 | |
| DB0ND-19 | 2026-09-05 12:27:44 | 48.43645 | 10.53493 | 358° | 75km/h | 27615m | -16.8m/s | -47.0°C | 0.8% | 18.9hPa | 2.7V | 00:00:00 | 00:00:00 | 00:00:00 | |
| HSKMA3-T | 2026-09-05 12:27:41 | 48.43597 | 10.53468 | 40° | 62km/h | 27665m | -15.8m/s | -47°C | 0.1% | 18.7hPa | 2.7V | 18:12:15 | 01:58:40 | 00:00:00 | |
| DK7TD | 2026-09-05 12:27:38 | 48.43576 | 10.53412 | 86° | 53km/h | 27714m | -17.3m/s | -47.1°C | 0.2% | 18.6hPa | 2.6V | 08:27:44 | 01:58:37 | 00:00:00 | |
| DL1NUX | 2026-09-05 12:27:38 | 48.43576 | 10.53412 | 85° | 53km/h | 27714m | -17.3m/s | -47.1°C | 3.1% | 18.6hPa | 2.6V | 08:27:16 | 01:58:37 | 00:00:00 | |
| DL1XH-west | 2026-09-05 12:27:36 | 48.43581 | 10.53379 | 124° | 44km/h | 27747m | -18.3m/s | -47°C | 0.1% | 18.5hPa | 2.7V | 08:27:44 | 01:58:35 | 00:00:00 | |
| DO3MHA-11 | 2026-09-05 12:27:36 | 48.43581 | 10.53379 | 125° | 44km/h | 27747m | -18.2m/s | -46.9°C | 3.1% | 18.5hPa | 2.6V | 00:00:00 | 01:58:35 | 00:00:00 | |
| DM7RM-13 | 2026-09-05 12:27:35 | 48.43588 | 10.53369 | 149° | 38km/h | 27764m | -16.5m/s | -46.8°C | 0.8% | 18.5hPa | 2.6V | 08:27:00 | 00:00:00 | 00:00:00 | |
| OE5DRO-10 | 2026-09-05 12:27:34 | 48.43596 | 10.53363 | 165° | 47km/h | 27781m | -17.6m/s | -46.6°C | 3.0% | 18.4hPa | 2.6V | 00:00:00 | 00:00:00 | 00:00:00 | |
| DJ8HS-15 | 2026-09-05 12:27:33 | 48.43605 | 10.53364 | 199° | 60km/h | 27798m | -17.0m/s | -46.5°C | 2.9% | 18.4hPa | 2.6V | 00:00:00 | 01:58:32 | 00:00:00 | |
| DL1XH1-15 | 2026-09-05 12:27:32 | 48.43611 | 10.53443 | 314° | 58km/h | 27898m | -16.8m/s | -46.1°C | 2.9% | 18.2hPa | 2.6V | 08:27:27 | 01:58:26 | 00:00:00 | |
| HSKMA3-T | 2026-09-05 12:27:31 | 48.43620 | 10.53380 | 237° | 40km/h | 27832m | -15.6m/s | -46.3°C | 0.1% | 18.3hPa | 2.7V | 18:12:15 | 01:58:30 | 00:00:00 | |
| DK7TD | 2026-09-05 12:27:28 | 48.43619 | 10.53427 | 298° | 49km/h | 27882m | -17.2m/s | -46.1°C | 0.1% | 18.2hPa | 2.6V | 08:27:44 | 01:58:27 | 00:00:00 | |
| DL1NUX | 2026-09-05 12:27:28 | 48.43619 | 10.53427 | 298° | 49km/h | 27882m | -17.2m/s | -46.1°C | 3% | 18.2hPa | 2.6V | 08:27:26 | 01:58:27 | 00:00:00 | |
| DL1XH-west | 2026-09-05 12:27:25 | 48.43584 | 10.53465 | 343° | 66km/h | 27932m | -17.8m/s | -46°C | 0% | 18.1hPa | 2.7V | 08:27:44 | 01:58:24 | 00:00:00 | |
| HSKMA3-T | 2026-09-05 12:27:19 | 48.43487 | 10.53400 | 60° | 77km/h | 28036m | -18m/s | -46.2°C | 0% | 17.8hPa | 2.7V | 18:12:15 | 01:58:18 | 00:00:00 | |
| DO3MHA-12 | 2026-09-05 12:27:19 | 48.43486 | 10.53399 | 60° | 57km/h | 28036m | -18.0m/s | -46.1°C | 2.9% | 17.7hPa | 2.7V | 00:00:00 | 01:58:18 | 00:00:00 | |
| DL1NUX | 2026-09-05 12:27:18 | 48.43480 | 10.53323 | 104° | 62km/h | 28088m | -18.6m/s | -46.2°C | 2.9% | 17.7hPa | 2.6V | 08:27:38 | 01:58:15 | 00:00:00 | |
| DK7TD | 2026-09-05 12:27:17 | 48.43477 | 10.53347 | 91° | 68km/h | 28071m | -16.4m/s | -46.2°C | 0% | 17.7hPa | 2.7V | 08:27:44 | 01:58:16 | 00:00:00 | |
| DL1XH-west | 2026-09-05 12:27:14 | 48.43494 | 10.53285 | 137° | 55km/h | 28124m | -16.3m/s | -46.2°C | 0% | 17.5hPa | 2.6V | 08:27:44 | 01:58:13 | 00:00:00 | |
| DJTTGO | 2026-09-05 12:27:14 | 48.43494 | 10.53285 | 138° | 55km/h | 28124m | -16.3m/s | -46.2°C | 0.7% | 17.5hPa | 2.7V | 00:00:00 | 00:00:00 | 00:00:00 | |
| DJ8HS-15 | 2026-09-05 12:27:13 | 48.43504 | 10.53274 | 157° | 62km/h | 28141m | -18.8m/s | -46.2°C | 2.9% | 17.5hPa | 2.7V | 00:00:00 | 01:58:12 | 00:00:00 | |
| DF1GD-15 | 2026-09-05 12:27:12 | 48.43515 | 10.53270 | 176° | 42km/h | 28160m | -19.2m/s | -46.1°C | 0.8% | 17.5hPa | 2.6V | 08:27:00 | 00:00:00 | 00:00:00 | |
| DO3MHA-12 | 2026-09-05 12:27:09 | 48.43536 | 10.53291 | 254° | 62km/h | 28214m | -19.1m/s | -46.0°C | 3.0% | 17.3hPa | 2.6V | 00:00:00 | 01:58:08 | 00:00:00 | |
| DM0DOS-11 | 2026-09-05 12:27:08 | 48.43481 | 10.53355 | 5° | 77km/h | 28318m | -19.2m/s | -46°C | 3% | 17.1hPa | 2.6V | 08:27:51 | 01:58:02 | 00:00:00 | |
| DL1NUX | 2026-09-05 12:27:08 | 48.43526 | 10.53335 | 318° | 57km/h | 28266m | -18.8m/s | -45.9°C | 3% | 17.2hPa | 2.7V | 08:27:48 | 01:58:05 | 00:00:00 | |
| DK7TD | 2026-09-05 12:27:07 | 48.43534 | 10.53320 | 298° | 46km/h | 28249m | -17.4m/s | -46°C | 0.1% | 17.3hPa | 2.7V | 08:28:35 | 01:58:06 | 00:00:00 | |
| DL1XH-west | 2026-09-05 12:27:04 | 48.43498 | 10.53354 | 349° | 66km/h | 28301m | -17.2m/s | -45.9°C | 0.1% | 17.1hPa | 2.6V | 08:28:35 | 01:58:03 | 00:00:00 | |
| DF3TZ-5 | 2026-09-05 12:27:04 | 48.43481 | 10.53355 | 5° | 77km/h | 28318m | -19.2m/s | -46.0°C | 0.7% | 17.1hPa | 2.6V | 00:00:00 | 00:00:00 | 00:00:00 | |
| DB0NH | 2026-09-05 12:27:02 | 48.43462 | 10.53349 | 20° | 58km/h | 28337m | -18.0m/s | -46.0°C | 3.0% | 17.0hPa | 2.6V | 00:00:00 | 01:58:01 | 00:00:00 | |
| DK5PH-5 | 2026-09-05 12:27:01 | 48.43444 | 10.53336 | 31° | 57km/h | 28354m | -18.5m/s | -46.0°C | 3.0% | 17.0hPa | 2.7V | 00:00:00 | 01:58:00 | 00:00:00 | |
| DO3MHA-12 | 2026-09-05 12:26:59 | 48.43414 | 10.53293 | 60° | 62km/h | 28390m | -17.9m/s | -45.9°C | 2.9% | 16.9hPa | 2.7V | 00:00:00 | 01:57:58 | 00:00:00 | |
| DM0DOS-11 | 2026-09-05 12:26:58 | 48.43424 | 10.53150 | 145° | 53km/h | 28501m | -18m/s | -45.6°C | 2.8% | 16.7hPa | 2.7V | 08:28:01 | 01:57:52 | 00:00:00 | |
| DK7TD | 2026-09-05 12:26:57 | 48.43402 | 10.53239 | 85° | 77km/h | 28427m | -19.5m/s | -45.9°C | 0% | 16.9hPa | 2.6V | 08:28:35 | 01:57:56 | 00:00:00 | |
| DO3MHA-11 | 2026-09-05 12:26:56 | 48.43402 | 10.53211 | 101° | 51km/h | 28446m | -18.5m/s | -45.8°C | 2.9% | 16.8hPa | 2.6V | 00:00:00 | 01:57:55 | 00:00:00 | |
| DL1NUX | 2026-09-05 12:26:55 | 48.43457 | 10.53142 | 205° | 42km/h | 28554m | -16.4m/s | -45.7°C | 2.9% | 16.6hPa | 2.6V | 08:28:04 | 01:57:49 | 00:00:00 | |
| HSKMA3-T | 2026-09-05 12:26:54 | 48.43415 | 10.53165 | 125° | 64km/h | 28482m | -18.6m/s | -45.7°C | 0% | 16.7hPa | 2.7V | 18:12:15 | 01:57:53 | 00:00:00 | |
| DL9SK-14 | 2026-09-05 12:26:49 | 48.43470 | 10.53163 | 246° | 40km/h | 28589m | -18.4m/s | -45.7°C | 0.7% | 16.5hPa | 2.7V | 00:00:00 | 00:00:00 | 00:00:00 | |
| DM0DOS-11 | 2026-09-05 12:26:48 | 48.43443 | 10.53220 | 353° | 53km/h | 28674m | -19m/s | -45.7°C | 3% | 16.3hPa | 2.7V | 08:28:11 | 01:57:42 | 00:00:00 | |
| OE5MMP-10 | 2026-09-05 12:26:48 | 48.43470 | 10.53162 | 247° | 49km/h | 28589m | -18.4m/s | -45.6°C | 2.9% | 16.4hPa | 2.6V | 00:00:00 | 01:57:47 | 00:00:00 | |
| DB0UT-7 | 2026-09-05 12:26:47 | 48.43472 | 10.53177 | 271° | 53km/h | 28605m | -16.2m/s | -45.6°C | 3.0% | 16.4hPa | 2.6V | 00:00:00 | 00:00:00 | 00:00:00 | |
| DO3MHA-11 | 2026-09-05 12:26:46 | 48.43470 | 10.53191 | 295° | 53km/h | 28623m | -18.7m/s | -45.6°C | 3.0% | 16.3hPa | 2.6V | 00:00:00 | 01:57:45 | 00:00:00 | |
| DL1NUX | 2026-09-05 12:26:45 | 48.43404 | 10.53202 | 39° | 60km/h | 28727m | -17.4m/s | -45.6°C | 3% | 16.1hPa | 2.6V | 08:28:14 | 01:57:39 | 00:00:00 | |
| DL1XH-west | 2026-09-05 12:26:39 | 48.43394 | 10.53186 | 53° | 60km/h | 28744m | -19.1m/s | -45.5°C | 0% | 16.1hPa | 2.6V | 08:28:35 | 01:57:38 | 00:00:00 | |
| OE5MMP-10 | 2026-09-05 12:26:38 | 48.43386 | 10.53166 | 69° | 51km/h | 28763m | -19.0m/s | -45.4°C | 3.0% | 16.0hPa | 2.7V | 00:00:00 | 01:57:37 | 00:00:00 | |
| DD1CC3-15 | 2026-09-05 12:26:37 | 48.43386 | 10.53166 | 69° | 60km/h | 28763m | -19.0m/s | -45.5°C | 0.8% | 16.1hPa | 2.7V | 00:00:00 | 00:00:00 | 00:00:00 | |
| DO3MHA-11 | 2026-09-05 12:26:36 | 48.43383 | 10.53123 | 102° | 47km/h | 28799m | -20.4m/s | -45.3°C | 2.9% | 15.9hPa | 2.7V | 00:00:00 | 01:57:35 | 00:00:00 | |
| DL1NUX | 2026-09-05 12:26:35 | 48.43436 | 10.53070 | 206° | 46km/h | 28912m | -18.1m/s | -45°C | 2.9% | 15.7hPa | 2.7V | 08:28:24 | 01:57:29 | 00:00:00 | |
| PETON7-10 | 2026-09-05 12:26:35 | 48.43387 | 10.53103 | 116° | 47km/h | 28818m | -17.7m/s | -45.2°C | 2.9% | 15.9hPa | 2.7V | 00:00:00 | 00:00:00 | 00:00:00 | |
| DM0DOS-11 | 2026-09-05 12:26:33 | 48.43404 | 10.53073 | 149° | 49km/h | 28855m | -19.3m/s | -45.1°C | 2.8% | 15.9hPa | 2.6V | 08:28:21 | 01:57:32 | 00:00:00 | |
| DF3TZ-5 | 2026-09-05 12:26:33 | 48.43415 | 10.53067 | 170° | 46km/h | 28874m | -18.8m/s | -45.0°C | 0.7% | 15.8hPa | 2.6V | 00:00:00 | 00:00:00 | 00:00:00 | |
| DL1XH1-15 | 2026-09-05 12:26:32 | 48.43454 | 10.53110 | 267° | 47km/h | 28967m | -17.9m/s | -44.9°C | 2.9% | 15.6hPa | 2.6V | 08:28:27 | 01:57:26 | 00:00:00 | |
| HSKMA3-T | 2026-09-05 12:26:31 | 48.43426 | 10.53066 | 184° | 42km/h | 28893m | -20.2m/s | -45°C | 0% | 15.8hPa | 2.7V | 18:12:15 | 01:57:30 | 00:00:00 | |
| DL1XH-west | 2026-09-05 12:26:29 | 48.43445 | 10.53080 | 229° | 42km/h | 28930m | -18.9m/s | -45°C | 0% | 15.7hPa | 2.7V | 08:28:35 | 01:57:28 | 00:00:00 | |
| DK7TD | 2026-09-05 12:26:28 | 48.43451 | 10.53094 | 247° | 44km/h | 28949m | -19.6m/s | -44.9°C | 0.1% | 15.7hPa | 2.6V | 08:28:35 | 01:57:27 | 00:00:00 | |
| OE5MMP-10 | 2026-09-05 12:26:28 | 48.43451 | 10.53093 | 248° | 55km/h | 28949m | -19.6m/s | -44.9°C | 3.0% | 15.6hPa | 2.6V | 00:00:00 | 01:57:27 | 00:00:00 | |
| SONDE2-11 | 2026-09-05 12:26:26 | 48.43437 | 10.53155 | 325° | 53km/h | 29023m | -19.0m/s | -44.6°C | 0.7% | 15.5hPa | 2.6V | 00:00:00 | 00:00:00 | 00:00:00 | |
| DL1NUX | 2026-09-05 12:26:25 | 48.43382 | 10.53147 | 37° | 68km/h | 29099m | -20.1m/s | -44°C | 2.7% | 15.3hPa | 2.6V | 08:28:34 | 01:57:19 | 00:00:00 | |
| DO3MHA-11 | 2026-09-05 12:26:25 | 48.43446 | 10.53142 | 307° | 64km/h | 29004m | -19.0m/s | -44.6°C | 2.9% | 15.5hPa | 2.7V | 00:00:00 | 01:57:24 | 00:00:00 | |
| DM0DOS-11 | 2026-09-05 12:26:23 | 48.43424 | 10.53162 | 349° | 57km/h | 29041m | -20.3m/s | -44.5°C | 2.9% | 15.5hPa | 2.7V | 08:28:31 | 01:57:22 | 00:00:00 | |
| DL6DJ-15 | 2026-09-05 12:26:21 | 48.43382 | 10.53147 | 37° | 68km/h | 29099m | -20.1m/s | -44.0°C | 0.7% | 15.3hPa | 2.7V | 00:00:00 | 00:00:00 | 00:00:00 | |
| DO3MHA-12 | 2026-09-05 12:26:19 | 48.43370 | 10.53128 | 56° | 73km/h | 29118m | -19.7m/s | -43.8°C | 2.7% | 15.3hPa | 2.7V | 00:00:00 | 01:57:18 | 00:00:00 | |
| DL1XH1-15 | 2026-09-05 12:26:18 | 48.43357 | 10.53079 | 80° | 75km/h | 29155m | -19.1m/s | -43.7°C | 2.6% | 15.2hPa | 2.7V | 08:30:00 | 01:57:16 | 00:00:00 | |
| DK7TD | 2026-09-05 12:26:18 | 48.43362 | 10.53105 | 69° | 69km/h | 29137m | -18.7m/s | -43.8°C | 0% | 15.3hPa | 2.7V | 08:29:26 | 01:57:17 | 00:00:00 | |
| DD1CC3-15 | 2026-09-05 12:26:17 | 48.43357 | 10.53079 | 82° | 75km/h | 29156m | -19.1m/s | -43.7°C | 0.7% | 15.2hPa | 2.6V | 00:00:00 | 00:00:00 | 00:00:00 | |
| DO3MHA-11 | 2026-09-05 12:26:15 | 48.43362 | 10.53022 | 112° | 64km/h | 29195m | -19.1m/s | -43.7°C | 2.6% | 15.1hPa | 2.6V | 00:00:00 | 01:57:14 | 00:00:00 | |
| DM0DOS-11 | 2026-09-05 12:26:13 | 48.43397 | 10.52958 | 148° | 73km/h | 29249m | -19.9m/s | -43.7°C | 2.6% | 15hPa | 2.7V | 08:28:42 | 01:57:11 | 00:00:00 | |
| AZAK | 2026-09-05 12:26:13 | 48.43382 | 10.52974 | 138° | 73km/h | 29231m | -18.5m/s | -43.7°C | 0.7% | 15.1hPa | 2.6V | 08:29:00 | 00:00:00 | 00:00:00 | |
| OE5DRO-10 | 2026-09-05 12:26:12 | 48.43397 | 10.52958 | 149° | 69km/h | 29250m | -19.8m/s | -43.7°C | 2.6% | 15.0hPa | 2.6V | 00:00:00 | 00:00:00 | 00:00:00 | |
| DL1NUX | 2026-09-05 12:26:11 | 48.43429 | 10.52943 | 181° | 66km/h | 29290m | -21m/s | -43.7°C | 2.6% | 15hPa | 2.6V | 08:28:44 | 01:57:09 | 00:00:00 | |
| HSKMA3-T | 2026-09-05 12:26:10 | 48.43429 | 10.52943 | 182° | 66km/h | 29290m | -21m/s | -43.7°C | 0% | 15hPa | 2.6V | 18:12:15 | 01:57:09 | 00:00:00 | |
| DL1XH-west | 2026-09-05 12:26:08 | 48.43457 | 10.52955 | 213° | 53km/h | 29330m | -19.3m/s | -43.5°C | 0% | 14.9hPa | 2.6V | 08:29:26 | 01:57:07 | 00:00:00 | |
| OE5MMP-10 | 2026-09-05 12:26:08 | 48.43457 | 10.52955 | 214° | 51km/h | 29330m | -19.3m/s | -43.5°C | 2.7% | 14.8hPa | 2.6V | 00:00:00 | 01:57:07 | 00:00:00 | |
| DM0DOS-11 | 2026-09-05 12:26:07 | 48.43449 | 10.53030 | 352° | 51km/h | 29446m | -20.1m/s | -43.2°C | 2.6% | 14.7hPa | 2.6V | 08:28:52 | 01:57:01 | 00:00:00 | |
| DL1NUX | 2026-09-05 12:26:05 | 48.43423 | 10.53022 | 31° | 58km/h | 29484m | -20.4m/s | -43.3°C | 2.6% | 14.6hPa | 2.7V | 08:28:54 | 01:56:59 | 00:00:00 | |
| DK7TD | 2026-09-05 12:25:59 | 48.43411 | 10.53008 | 45° | 66km/h | 29504m | -21.1m/s | -43.3°C | 0% | 14.5hPa | 2.7V | 08:29:26 | 01:56:58 | 00:00:00 | |
| DO3MHA-12 | 2026-09-05 12:25:59 | 48.43411 | 10.53008 | 45° | 78km/h | 29505m | -21.1m/s | -43.2°C | 2.6% | 14.5hPa | 2.6V | 00:00:00 | 01:56:58 | 00:00:00 | |
| DL1XH1-15 | 2026-09-05 12:25:58 | 48.43394 | 10.52962 | 78° | 75km/h | 29545m | -20.5m/s | -43.1°C | 2.5% | 14.4hPa | 2.6V | 08:30:00 | 01:56:56 | 00:00:00 | |
| DL1XH-west | 2026-09-05 12:25:57 | 48.43394 | 10.52962 | 79° | 75km/h | 29545m | -20.5m/s | -43.1°C | 0% | 14.4hPa | 2.6V | 08:29:26 | 01:56:56 | 00:00:00 | |
| DL1NUX | 2026-09-05 12:25:56 | 48.43470 | 10.52808 | 174° | 75km/h | 29685m | -21.6m/s | -43.2°C | 2.5% | 14.2hPa | 2.6V | 08:29:04 | 01:56:49 | 00:00:00 | |
| SONDE2-11 | 2026-09-05 12:25:55 | 48.43405 | 10.52874 | 120° | 84km/h | 29603m | -18.4m/s | -43.1°C | 0.6% | 14.3hPa | 2.7V | 00:00:00 | 00:00:00 | 00:00:00 | |
| DL1ZP-14 | 2026-09-05 12:25:54 | 48.43418 | 10.52849 | 134° | 82km/h | 29623m | -20.3m/s | -43.2°C | 0.6% | 14.3hPa | 2.7V | 00:00:00 | 00:00:00 | 00:00:00 | |
| DJ8HS-15 | 2026-09-05 12:25:53 | 48.43418 | 10.52849 | 135° | 60km/h | 29623m | -20.2m/s | -43.1°C | 2.4% | 14.3hPa | 2.7V | 00:00:00 | 01:56:52 | 00:00:00 | |
| DL1XH1-15 | 2026-09-05 12:25:52 | 48.43515 | 10.52824 | 221° | 49km/h | 29744m | -20m/s | -43.3°C | 2.6% | 14.1hPa | 2.7V | 08:30:00 | 01:56:46 | 00:00:00 | |
| HSKMA3-T | 2026-09-05 12:25:51 | 48.43451 | 10.52815 | 157° | 78km/h | 29664m | -21.1m/s | -43.2°C | 0% | 14.2hPa | 2.6V | 18:12:15 | 01:56:50 | 00:00:00 | |
| DL1XH-west | 2026-09-05 12:25:47 | 48.43515 | 10.52824 | 222° | 49km/h | 29744m | -20m/s | -43.3°C | 0% | 14.1hPa | 2.7V | 08:29:26 | 01:56:46 | 00:00:00 | |
| DL9SK-14 | 2026-09-05 12:25:46 | 48.43522 | 10.52837 | 240° | 42km/h | 29764m | -20.5m/s | -43.4°C | 0.7% | 14.0hPa | 2.5V | 00:00:00 | 00:00:00 | 00:00:00 | |
| DL1NUX | 2026-09-05 12:25:45 | 48.43488 | 10.52862 | 43° | 51km/h | 29883m | -20.9m/s | -43.2°C | 2.6% | 13.8hPa | 2.5V | 08:29:14 | 01:56:39 | 00:00:00 | |
| DO3MHA-11 | 2026-09-05 12:25:45 | 48.43525 | 10.52851 | 266° | 51km/h | 29784m | -20.3m/s | -43.4°C | 2.7% | 13.9hPa | 2.6V | 08:29:00 | 01:56:44 | 00:00:00 | |
| DM0DOS-11 | 2026-09-05 12:25:42 | 48.43497 | 10.52872 | 23° | 44km/h | 29863m | -19.4m/s | -43.3°C | 2.6% | 13.8hPa | 2.7V | 08:29:13 | 01:56:40 | 00:00:00 | |
| DK7TD | 2026-09-05 12:25:39 | 48.43479 | 10.52846 | 57° | 58km/h | 29904m | -21.4m/s | -43.2°C | 0% | 13.8hPa | 2.6V | 08:29:26 | 01:56:38 | 00:00:00 | |
| DL1XH-west | 2026-09-05 12:25:36 | 48.43473 | 10.52773 | 106° | 73km/h | 29966m | -20m/s | -43.2°C | 0% | 13.6hPa | 2.7V | 08:29:26 | 01:56:35 | 00:00:00 | |
| DL1NUX | 2026-09-05 12:25:35 | 48.43555 | 10.52690 | 188° | 71km/h | 30094m | -20.6m/s | -43.5°C | 2.6% | 13.4hPa | 2.7V | 08:29:24 | 01:56:29 | 00:00:00 | |
| DO3MHA-11 | 2026-09-05 12:25:35 | 48.43480 | 10.52747 | 118° | 68km/h | 29987m | -18.8m/s | -43.2°C | 2.5% | 13.5hPa | 2.7V | 00:00:00 | 01:56:34 | 00:00:00 | |
| PETON7-10 | 2026-09-05 12:25:34 | 48.43490 | 10.52725 | 136° | 62km/h | 30006m | -21.1m/s | -43.3°C | 2.5% | 13.5hPa | 2.7V | 00:00:00 | 00:00:00 | 00:00:00 | |
| DL1XH1-15 | 2026-09-05 12:25:33 | 48.43538 | 10.52689 | 175° | 69km/h | 30071m | -22.2m/s | -43.5°C | 2.6% | 13.4hPa | 2.7V | 08:30:00 | 01:56:30 | 00:00:00 | |
| HSKMA3-T | 2026-09-05 12:25:30 | 48.43555 | 10.52690 | 189° | 71km/h | 30094m | -20.7m/s | -43.5°C | 0% | 13.4hPa | 2.7V | 18:12:15 | 01:56:29 | 00:00:00 | |
| DL1XH-west | 2026-09-05 12:25:26 | 48.43594 | 10.52746 | 267° | 53km/h | 30174m | -19.4m/s | -43.6°C | 0% | 13.3hPa | 2.6V | 18:12:15 | 01:56:25 | 00:00:00 | |
| DL1NUX | 2026-09-05 12:25:25 | 48.43532 | 10.52800 | 22° | 66km/h | 30296m | -23.3m/s | -43.1°C | 2.6% | 13.1hPa | 2.6V | 08:30:00 | 01:56:19 | 00:00:00 | |
| DO3MHA-11 | 2026-09-05 12:25:25 | 48.43592 | 10.52766 | 289° | 62km/h | 30193m | -19.1m/s | -43.5°C | 2.7% | 13.2hPa | 2.6V | 00:00:00 | 01:56:24 | 00:00:00 | |
| SONDE2-11 | 2026-09-05 12:25:24 | 48.43576 | 10.52796 | 327° | 55km/h | 30233m | -20.6m/s | -43.2°C | 0.6% | 13.2hPa | 2.6V | 00:00:00 | 00:00:00 | 00:00:00 | |
| DM0DOS-11 | 2026-09-05 12:25:23 | 48.43548 | 10.52807 | 6° | 62km/h | 30273m | -22.6m/s | -43.1°C | 2.6% | 13.1hPa | 2.6V | 08:30:00 | 01:56:20 | 00:00:00 | |
| DK7TD | 2026-09-05 12:25:20 | 48.43532 | 10.52800 | 22° | 66km/h | 30296m | -23.3m/s | -43.1°C | 0% | 13.1hPa | 2.6V | 18:12:15 | 01:56:19 | 00:00:00 | |
| OE5WHR-10 | 2026-09-05 12:25:19 | 48.43518 | 10.52787 | 40° | 64km/h | 30319m | -22.4m/s | -43.1°C | 2.6% | 12.9hPa | 2.7V | 00:00:00 | 00:00:00 | 08:30:00 | |
| OE5MMP-10 | 2026-09-05 12:25:18 | 48.43506 | 10.52768 | 60° | 60km/h | 30341m | -21.6m/s | -43.1°C | 2.6% | 13.0hPa | 2.6V | 00:00:00 | 01:56:17 | 00:00:00 | |
| DB0UT-7 | 2026-09-05 12:25:17 | 48.43500 | 10.52746 | 76° | 64km/h | 30362m | -20.5m/s | -43.1°C | 2.6% | 12.9hPa | 2.6V | 00:00:00 | 01:56:16 | 00:00:00 | |
| DO3MHA-11 | 2026-09-05 12:25:15 | 48.43501 | 10.52699 | 112° | 58km/h | 30404m | -22.7m/s | -43.1°C | 2.5% | 12.8hPa | 2.6V | 00:00:00 | 01:56:14 | 00:00:00 | |
| OE5DRO-10 | 2026-09-05 12:25:14 | 48.43508 | 10.52679 | 129° | 68km/h | 30427m | -23.3m/s | -43.2°C | 2.5% | 12.8hPa | 2.7V | 00:00:00 | 00:00:00 | 00:00:00 | |
| DJ8HS-15 | 2026-09-05 12:25:13 | 48.43519 | 10.52663 | 147° | 69km/h | 30450m | -22.4m/s | -43.2°C | 2.5% | 12.8hPa | 2.7V | 00:00:00 | 01:56:12 | 08:30:00 | |
| DM0DOS-11 | 2026-09-05 12:25:12 | 48.43546 | 10.52654 | 187° | 53km/h | 30494m | -23.1m/s | -43.2°C | 2.6% | 12.7hPa | 2.7V | 08:30:00 | 01:56:10 | 00:00:00 | |
| DL1XH-west | 2026-09-05 12:25:11 | 48.43546 | 10.52654 | 187° | 53km/h | 30494m | -23.1m/s | -43.2°C | 0% | 12.8hPa | 2.7V | 18:12:15 | 01:56:10 | 00:00:00 | |
| HSKMA3-T | 2026-09-05 12:25:10 | 48.43559 | 10.52660 | 208° | 57km/h | 30517m | -22.5m/s | -43.2°C | 0% | 12.7hPa | 2.6V | 18:12:15 | 01:56:09 | 00:00:00 | |
| DO3MHA-12 | 2026-09-05 12:25:09 | 48.43569 | 10.52673 | 231° | 68km/h | 30540m | -20.1m/s | -43.1°C | 2.6% | 12.6hPa | 2.7V | 00:00:00 | 01:56:08 | 00:00:00 | |
| OE5MMP-10 | 2026-09-05 12:25:08 | 48.43576 | 10.52691 | 252° | 71km/h | 30560m | -21.7m/s | -43.0°C | 2.6% | 12.6hPa | 2.7V | 00:00:00 | 01:56:07 | 00:00:00 | |
| DM7RM-13 | 2026-09-05 12:25:06 | 48.43574 | 10.52735 | 295° | 62km/h | 30603m | -20.9m/s | -42.9°C | 0.7% | 12.6hPa | 2.7V | 00:00:00 | 00:00:00 | 00:00:00 | |
| DL1NUX | 2026-09-05 12:25:05 | 48.43480 | 10.52769 | 34° | 82km/h | 30733m | -21.8m/s | -43°C | 2.5% | 12.4hPa | 2.7V | 08:30:00 | 01:55:59 | 00:00:00 | |
| DO3MHA-11 | 2026-09-05 12:25:05 | 48.43565 | 10.52756 | 312° | 77km/h | 30624m | -22.5m/s | -42.7°C | 2.6% | 12.5hPa | 2.7V | 00:00:00 | 01:56:04 | 00:00:00 | |
| DM0DOS-11 | 2026-09-05 12:25:04 | 48.43497 | 10.52782 | 17° | 78km/h | 30713m | -20.7m/s | -42.9°C | 2.5% | 12.4hPa | 2.7V | 08:30:00 | 01:56:00 | 00:00:00 | |
| DK7TD | 2026-09-05 12:25:01 | 48.43497 | 10.52782 | 17° | 78km/h | 30713m | -20.7m/s | -42.9°C | 0% | 12.4hPa | 2.7V | 18:12:15 | 01:56:00 | 00:00:00 | |
| DF3TZ-5 | 2026-09-05 12:25:00 | 48.43464 | 10.52749 | 49° | 80km/h | 30755m | -21.6m/s | -43.1°C | 0.6% | 12.3hPa | 2.5V | 00:00:00 | 00:00:00 | 00:00:00 | |
| DO3MHA-12 | 2026-09-05 12:24:59 | 48.43464 | 10.52749 | 50° | 68km/h | 30756m | -21.5m/s | -43.0°C | 2.5% | 12.3hPa | 2.5V | 00:00:00 | 01:55:58 | 00:00:00 | |
| OE5MMP-10 | 2026-09-05 12:24:58 | 48.43453 | 10.52723 | 64° | 62km/h | 30777m | -20.9m/s | -43.0°C | 2.5% | 12.2hPa | 2.5V | 00:00:00 | 01:55:57 | 00:00:00 | |
| DL1NUX | 2026-09-05 12:24:55 | 48.43504 | 10.52576 | 195° | 40km/h | 30951m | -20m/s | -43.4°C | 2.6% | 12hPa | 2.6V | 08:30:00 | 01:55:49 | 00:00:00 | |
| DF8AY | 2026-09-05 12:24:54 | 48.43459 | 10.52612 | 124° | 69km/h | 30865m | -21.9m/s | -43.2°C | 0% | 12.2hPa | 2.7V | 18:12:15 | 01:55:53 | 00:00:00 | |
| DL1XH-west | 2026-09-05 12:24:53 | 48.43470 | 10.52593 | 138° | 62km/h | 30888m | -22.1m/s | -43.2°C | 0% | 12.1hPa | 2.7V | 18:12:15 | 01:55:52 | 00:00:00 | |
| DM0DOS-11 | 2026-09-05 12:24:53 | 48.43493 | 10.52575 | 175° | 46km/h | 30931m | -20.5m/s | -43.4°C | 2.5% | 12hPa | 2.6V | 08:30:00 | 01:55:50 | 00:00:00 | |
| HSKMA3-T | 2026-09-05 12:24:52 | 48.43482 | 10.52580 | 152° | 55km/h | 30909m | -21.9m/s | -43.3°C | 0% | 12.1hPa | 2.6V | 18:12:15 | 01:55:51 | 00:00:00 | |
| DK7TD | 2026-09-05 12:24:49 | 48.43512 | 10.52583 | 226° | 37km/h | 30971m | -19.3m/s | -43.4°C | 0% | 12hPa | 2.7V | 18:12:15 | 01:55:48 | 00:00:00 | |
| DL6DJ-15 | 2026-09-05 12:24:48 | 48.43516 | 10.52610 | 277° | 44km/h | 31010m | -19.8m/s | -43.5°C | 0.7% | 11.9hPa | 2.7V | 00:00:00 | 00:00:00 | 00:00:00 | |
| DB0UT-7 | 2026-09-05 12:24:47 | 48.43516 | 10.52610 | 278° | 44km/h | 31010m | -19.8m/s | -43.4°C | 2.6% | 11.9hPa | 2.7V | 00:00:00 | 00:00:00 | 00:00:00 | |
| DL1XH1-15 | 2026-09-05 12:24:45 | 48.43465 | 10.52676 | 350° | 64km/h | 31115m | -21.6m/s | -43.6°C | 2.7% | 11.8hPa | 2.7V | 08:30:00 | 01:55:41 | 00:00:00 | |
| DL1NUX | 2026-09-05 12:24:45 | 48.43434 | 10.52673 | 16° | 64km/h | 31156m | -19.6m/s | -43.5°C | 2.7% | 11.7hPa | 2.5V | 08:30:00 | 01:55:39 | 00:00:00 | |
| DL9SK-14 | 2026-09-05 12:24:44 | 48.43494 | 10.52658 | 323° | 60km/h | 31072m | -21.2m/s | -43.5°C | 0.7% | 11.8hPa | 2.7V | 00:00:00 | 00:00:00 | 00:00:00 | |
| DL1XH-west | 2026-09-05 12:24:42 | 48.43465 | 10.52676 | 351° | 64km/h | 31115m | -21.6m/s | -43.6°C | 0% | 11.8hPa | 2.7V | 18:12:15 | 01:55:41 | 00:00:00 | |
| DK7TD | 2026-09-05 12:24:38 | 48.43406 | 10.52650 | 43° | 64km/h | 31193m | -18m/s | -43.4°C | 0% | 11.6hPa | 2.6V | 18:12:15 | 01:55:37 | 00:00:00 | |
| HSKMA3-T | 2026-09-05 12:24:36 | 48.43387 | 10.52610 | 65° | 69km/h | 31230m | -19m/s | -43.1°C | 0% | 11.6hPa | 2.7V | 18:12:15 | 01:55:35 | 00:00:00 | |
| OE5DRO-10 | 2026-09-05 12:24:36 | 48.43387 | 10.52610 | 65° | 35km/h | 31230m | -19.0m/s | -43.1°C | 2.5% | 11.6hPa | 2.7V | 00:00:00 | 00:00:00 | 00:00:00 | |
| DL1NUX | 2026-09-05 12:24:35 | 48.43369 | 10.52488 | 89° | 24km/h | 31423m | -45.7m/s | -43.3°C | 2.5% | 11.4hPa | 2.7V | 08:30:00 | 01:55:29 | 00:00:00 | |
| DO3MHA-11 | 2026-09-05 12:24:35 | 48.43380 | 10.52585 | 72° | 40km/h | 31251m | -20.2m/s | -43.0°C | 2.4% | 11.5hPa | 2.7V | 00:00:00 | 01:55:34 | 00:00:00 | |
| PETON7-10 | 2026-09-05 12:24:34 | 48.43375 | 10.52559 | 77° | 33km/h | 31273m | -24.5m/s | -42.9°C | 2.4% | 11.5hPa | 2.7V | 00:00:00 | 01:55:33 | 00:00:00 | |
| DJ8HS-15 | 2026-09-05 12:24:33 | 48.43372 | 10.52534 | 82° | 22km/h | 31301m | -29.0m/s | -42.9°C | 2.3% | 11.5hPa | 2.7V | 00:00:00 | 01:55:32 | 00:00:00 | |
| DM0DOS-11 | 2026-09-05 12:24:32 | 48.43369 | 10.52498 | 89° | 24km/h | 31374m | -51.7m/s | -42.9°C | 2.4% | 11.5hPa | 2.7V | 08:30:00 | 01:55:30 | 00:00:00 | |
| DL1XH-west | 2026-09-05 12:24:31 | 48.43369 | 10.52498 | 90° | 24km/h | 31374m | -51.7m/s | -42.9°C | 0% | 11.5hPa | 2.7V | 18:12:15 | 01:55:30 | 00:00:00 | |
| DF8AY | 2026-09-05 12:24:30 | 48.43369 | 10.52488 | 90° | 24km/h | 31423m | -45.7m/s | -43.3°C | 0% | 11.4hPa | 2.7V | 18:12:15 | 01:55:29 | 00:00:00 | |
| DK7TD | 2026-09-05 12:24:27 | 48.43369 | 10.52461 | 90° | 26km/h | 31529m | -23.8m/s | -43.5°C | 0% | 11.1hPa | 2.6V | 18:12:15 | 01:55:26 | 00:00:00 | |
| HSKMA3-T | 2026-09-05 12:24:25 | 48.43369 | 10.52442 | 91° | 26km/h | 31558m | -5.9m/s | -43.3°C | 0% | 11.1hPa | 2.7V | 18:12:15 | 01:55:24 | 00:00:00 | |
| DL1NUX | 2026-09-05 12:24:25 | 48.43372 | 10.52400 | 109° | 15km/h | 31537m | 5.3m/s | -43.3°C | 2.7% | 11.1hPa | 2.6V | 08:30:00 | 01:55:19 | 00:00:00 | |
| DO3MHA-11 | 2026-09-05 12:24:25 | 48.43369 | 10.52442 | 92° | 18km/h | 31558m | -5.9m/s | -43.3°C | 2.7% | 11.0hPa | 2.6V | 00:00:00 | 01:55:24 | 00:00:00 | |
| DM7RM-13 | 2026-09-05 12:24:24 | 48.43369 | 10.52442 | 92° | 26km/h | 31558m | -5.9m/s | -43.3°C | 0.7% | 11.1hPa | 2.6V | 00:00:00 | 00:00:00 | 00:00:00 | |
| DM0DOS-11 | 2026-09-05 12:24:22 | 48.43370 | 10.52406 | 98° | 16km/h | 31542m | 4.9m/s | -43.3°C | 2.7% | 11.1hPa | 2.6V | 08:30:00 | 01:55:20 | 00:00:00 | |
| DL1XH-west | 2026-09-05 12:24:20 | 48.43371 | 10.52400 | 110° | 15km/h | 31537m | 5.3m/s | -43.3°C | 0% | 11.1hPa | 2.6V | 18:12:15 | 01:55:19 | 00:00:00 | |
| DF8AY | 2026-09-05 12:24:19 | 48.43375 | 10.52391 | 133° | 13km/h | 31525m | 6.4m/s | -43.3°C | 0% | 11.1hPa | 2.7V | 18:12:15 | 01:55:17 | 00:00:00 | |
| DK7TD | 2026-09-05 12:24:16 | 48.43379 | 10.52385 | 116° | 7km/h | 31514m | 4.6m/s | -43.5°C | 0% | 11.2hPa | 2.6V | 18:12:15 | 01:55:15 | 00:00:00 | |
| DL1NUX | 2026-09-05 12:24:15 | 48.43360 | 10.52365 | 51° | 20km/h | 31479m | 6.3m/s | -43.5°C | 2.7% | 11.2hPa | 2.6V | 08:30:00 | 01:55:09 | 00:00:00 | |
| HSKMA3-T | 2026-09-05 12:24:13 | 48.43374 | 10.52377 | 22° | 18km/h | 31496m | 6.8m/s | -43.7°C | 0% | 11.2hPa | 2.7V | 18:12:15 | 01:55:12 | 00:00:00 | |
| DJ8HS-15 | 2026-09-05 12:24:13 | 48.43373 | 10.52377 | 22° | 15km/h | 31496m | 6.7m/s | -43.7°C | 2.8% | 11.1hPa | 2.7V | 00:00:00 | 01:55:12 | 00:00:00 | |
| DM0DOS-11 | 2026-09-05 12:24:12 | 48.43364 | 10.52370 | 35° | 22km/h | 31485m | 4.8m/s | -43.5°C | 2.7% | 11.2hPa | 2.7V | 08:30:00 | 01:55:10 | 00:00:00 | |
| DL1XH-west | 2026-09-05 12:24:10 | 48.43360 | 10.52365 | 52° | 20km/h | 31479m | 6.3m/s | -43.5°C | 0% | 11.2hPa | 2.6V | 18:12:15 | 01:55:09 | 00:00:00 | |
| DK7TD | 2026-09-05 12:24:06 | 48.43363 | 10.52339 | 129° | 18km/h | 31456m | 6.2m/s | -43.3°C | 0% | 11.2hPa | 2.7V | 18:12:15 | 01:55:05 | 00:00:00 | |
| DL1NUX | 2026-09-05 12:24:05 | 48.43369 | 10.52321 | 76° | 5km/h | 31420m | 6.7m/s | -43.2°C | 2.6% | 11.3hPa | 2.7V | 08:30:00 | 01:54:59 | 00:00:00 | |
| HSKMA3-T | 2026-09-05 12:24:02 | 48.43369 | 10.52325 | 75° | 5km/h | 31433m | 5m/s | -43.2°C | 0% | 11.3hPa | 2.6V | 18:12:15 | 01:55:01 | 00:00:00 | |
| DM0DOS-11 | 2026-09-05 12:24:02 | 48.43369 | 10.52323 | 68° | 5km/h | 31427m | 6.3m/s | -43.2°C | 2.6% | 11.3hPa | 2.7V | 08:30:00 | 01:55:00 | 00:00:00 | |
| DL1XH-west | 2026-09-05 12:24:00 | 48.43368 | 10.52321 | 76° | 5km/h | 31420m | 6.7m/s | -43.3°C | 0% | 11.3hPa | 2.7V | 18:12:15 | 01:54:59 | 00:00:00 | |
| DK7TD | 2026-09-05 12:23:56 | 48.43365 | 10.52308 | 52° | 15km/h | 31397m | 7m/s | -43.5°C | 0% | 11.3hPa | 2.6V | 18:12:15 | 01:54:55 | 00:00:00 | |
| DL1XH1-15 | 2026-09-05 12:23:55 | 48.43357 | 10.52292 | 89° | 7km/h | 31373m | 6.9m/s | -43.2°C | 2.6% | 11.3hPa | 2.6V | 08:30:00 | 01:54:51 | 00:00:00 | |
| DL1NUX | 2026-09-05 12:23:55 | 48.43360 | 10.52288 | 169° | 11km/h | 31361m | 4.7m/s | -43.2°C | 2.6% | 11.4hPa | 2.6V | 08:30:00 | 01:54:49 | 00:00:00 | |
| DF8AY | 2026-09-05 12:23:53 | 48.43357 | 10.52292 | 90° | 7km/h | 31373m | 6.9m/s | -43.3°C | 0% | 11.3hPa | 2.6V | 18:12:15 | 01:54:51 | 00:00:00 | |
| HSKMA3-T | 2026-09-05 12:23:51 | 48.43357 | 10.52289 | 145° | 9km/h | 31366m | 6.2m/s | -43.2°C | 0% | 11.4hPa | 2.6V | 18:12:15 | 01:54:50 | 00:00:00 | |
| DL1XH-west | 2026-09-05 12:23:50 | 48.43360 | 10.52288 | 169° | 11km/h | 31361m | 4.7m/s | -43.2°C | 0% | 11.4hPa | 2.6V | 18:12:15 | 01:54:49 | 00:00:00 | |
| DK7TD | 2026-09-05 12:23:46 | 48.43365 | 10.52286 | 51° | 7km/h | 31338m | 5.2m/s | -42.9°C | 0% | 11.4hPa | 2.6V | 18:12:15 | 01:54:45 | 00:00:00 | |
| DL1XH1-15 | 2026-09-05 12:23:45 | 48.43360 | 10.52265 | 84° | 20km/h | 31315m | 6.2m/s | -43.1°C | 2.6% | 11.4hPa | 2.7V | 08:30:00 | 01:54:41 | 00:00:00 | |
| DO3MHA-11 | 2026-09-05 12:23:45 | 48.43364 | 10.52282 | 54° | 15km/h | 31334m | 5.1m/s | -42.8°C | 2.6% | 11.4hPa | 2.6V | 00:00:00 | 01:54:44 | 00:00:00 | |
| DJ2DS-15 | 2026-09-05 12:23:43 | 48.43360 | 10.52272 | 74° | 16km/h | 31322m | 6.4m/s | -43.0°C | 2.5% | 11.4hPa | 2.7V | 00:00:00 | 01:54:42 | 08:30:00 | |
| DM0DOS-11 | 2026-09-05 12:23:42 | 48.43359 | 10.52258 | 92° | 20km/h | 31309m | 5.9m/s | -43.2°C | 2.6% | 11.5hPa | 2.6V | 08:30:00 | 01:54:40 | 00:00:00 | |
| HSKMA3-T | 2026-09-05 12:23:40 | 48.43360 | 10.52251 | 90° | 16km/h | 31304m | 5.1m/s | -43.2°C | 0% | 11.5hPa | 2.6V | 18:12:15 | 01:54:39 | 00:00:00 | |
| DL1XH-west | 2026-09-05 12:23:39 | 48.43359 | 10.52245 | 80° | 15km/h | 31298m | 5.9m/s | -43.1°C | 0% | 11.5hPa | 2.7V | 18:12:15 | 01:54:38 | 00:00:00 | |
| DD1CC3-15 | 2026-09-05 12:23:39 | 48.43359 | 10.52245 | 81° | 15km/h | 31298m | 5.9m/s | -43.1°C | 0.7% | 11.5hPa | 2.7V | 00:00:00 | 00:00:00 | 00:00:00 | |
| OE5MMP-10 | 2026-09-05 12:23:37 | 48.43356 | 10.52237 | 39° | 15km/h | 31285m | 5.8m/s | -42.9°C | 2.5% | 11.5hPa | 2.7V | 00:00:00 | 01:54:36 | 00:00:00 | |
| DM0DOS-11 | 2026-09-05 12:23:36 | 48.43353 | 10.52213 | 91° | 16km/h | 31249m | 6.8m/s | -43.1°C | 2.6% | 11.6hPa | 2.7V | 08:30:00 | 01:54:30 | 00:00:00 | |
| DK7TD | 2026-09-05 12:23:35 | 48.43353 | 10.52232 | 54° | 9km/h | 31273m | 6.5m/s | -43°C | 0% | 11.5hPa | 2.7V | 18:12:15 | 01:54:34 | 00:00:00 | |
| HSKMA3-T | 2026-09-05 12:23:30 | 48.43353 | 10.52206 | 80° | 18km/h | 31243m | 6.5m/s | -43.2°C | 0% | 11.6hPa | 2.7V | 18:12:15 | 01:54:29 | 00:00:00 | |
| DL1XH-west | 2026-09-05 12:23:29 | 48.43351 | 10.52199 | 73° | 20km/h | 31237m | 5.4m/s | -43.2°C | 0% | 11.6hPa | 2.6V | 18:12:15 | 01:54:28 | 00:00:00 | |
| DF8AY | 2026-09-05 12:23:28 | 48.43350 | 10.52191 | 72° | 22km/h | 31231m | 4.8m/s | -43.3°C | 0% | 11.6hPa | 2.6V | 18:12:15 | 01:54:27 | 00:00:00 | |
| AZAK | 2026-09-05 12:23:28 | 48.43350 | 10.52191 | 73° | 22km/h | 31232m | 4.8m/s | -43.3°C | 0.6% | 11.6hPa | 2.7V | 00:00:00 | 00:00:00 | 00:00:00 | |
| OE5MMP-10 | 2026-09-05 12:23:27 | 48.43348 | 10.52182 | 77° | 18km/h | 31226m | 6.1m/s | -43.3°C | 2.6% | 11.5hPa | 2.7V | 00:00:00 | 01:54:26 | 00:00:00 | |
| DC4HF-4 | 2026-09-05 12:23:26 | 48.43346 | 10.52165 | 83° | 22km/h | 31214m | 5.6m/s | -43.4°C | 0.7% | 11.6hPa | 2.7V | 00:00:00 | 00:00:00 | 00:00:00 | |
| DL1XH1-15 | 2026-09-05 12:23:25 | 48.43341 | 10.52144 | 47° | 18km/h | 31195m | 6.8m/s | -43.5°C | 2.7% | 11.6hPa | 2.7V | 08:30:00 | 01:54:21 | 00:00:00 | |
| DL1NUX | 2026-09-05 12:23:25 | 48.43335 | 10.52137 | 29° | 15km/h | 31183m | 5.4m/s | -43.7°C | 2.7% | 11.7hPa | 2.6V | 08:30:00 | 01:54:19 | 00:00:00 | |
| DK7TD | 2026-09-05 12:23:24 | 48.43346 | 10.52157 | 77° | 20km/h | 31208m | 5m/s | -43.4°C | 0% | 11.6hPa | 2.6V | 18:12:15 | 01:54:23 | 00:00:00 | |
| HSKMA3-T | 2026-09-05 12:23:19 | 48.43332 | 10.52135 | 34° | 11km/h | 31177m | 7m/s | -43.8°C | 0% | 11.7hPa | 2.6V | 18:12:15 | 01:54:18 | 00:00:00 | |
| DO3MHA-12 | 2026-09-05 12:23:19 | 48.43332 | 10.52135 | 34° | 18km/h | 31178m | 6.9m/s | -43.8°C | 2.7% | 11.6hPa | 2.6V | 00:00:00 | 01:54:18 | 00:00:00 | |
| DM0DOS-11 | 2026-09-05 12:23:18 | 48.43330 | 10.52126 | 71° | 11km/h | 31159m | 4.9m/s | -43.8°C | 2.7% | 11.7hPa | 2.7V | 08:30:00 | 01:54:15 | 00:00:00 | |
| BIOWL1-15 | 2026-09-05 12:23:18 | 48.43331 | 10.52132 | 59° | 7km/h | 31170m | 6.5m/s | 0°C | 0% | 0hPa | 2.7V | 18:12:15 | 01:54:17 | 00:00:00 | |
| DF8AY | 2026-09-05 12:23:16 | 48.43330 | 10.52126 | 72° | 11km/h | 31159m | 4.9m/s | -43.8°C | 0% | 11.7hPa | 2.7V | 18:12:15 | 01:54:15 | 00:00:00 | |
| DJ2DS-15 | 2026-09-05 12:23:16 | 48.43330 | 10.52126 | 72° | 22km/h | 31160m | 4.9m/s | -43.8°C | 2.7% | 11.6hPa | 2.7V | 00:00:00 | 01:54:15 | 00:00:00 | |
| DL1XH1-15 | 2026-09-05 12:23:15 | 48.43317 | 10.52102 | 46° | 29km/h | 31134m | 5.9m/s | -43.9°C | 2.7% | 11.7hPa | 2.7V | 08:30:00 | 01:54:11 | 00:00:00 | |
| DL1NUX | 2026-09-05 12:23:15 | 48.43307 | 10.52086 | 49° | 27km/h | 31122m | 6.9m/s | -43.8°C | 2.7% | 11.8hPa | 2.7V | 08:30:00 | 01:54:09 | 00:00:00 | |
| DK7TD | 2026-09-05 12:23:14 | 48.43326 | 10.52117 | 50° | 20km/h | 31147m | 6.8m/s | -43.9°C | 0% | 11.7hPa | 2.6V | 18:12:15 | 01:54:13 | 00:00:00 | |
| HSKMA3-T | 2026-09-05 12:23:09 | 48.43303 | 10.52079 | 50° | 24km/h | 31115m | 5.8m/s | -43.8°C | 0% | 11.8hPa | 2.6V | 18:12:15 | 01:54:08 | 00:00:00 | |
| DL1XH-west | 2026-09-05 12:23:08 | 48.43299 | 10.52072 | 44° | 20km/h | 31110m | 5.2m/s | -43.8°C | 0% | 11.8hPa | 2.6V | 18:12:15 | 01:54:07 | 00:00:00 | |
| AZAK | 2026-09-05 12:23:07 | 48.43295 | 10.52068 | 35° | 20km/h | 31104m | 6.8m/s | -43.8°C | 0.7% | 11.8hPa | 2.6V | 00:00:00 | 00:00:00 | 00:00:00 | |
| OM5KV | 2026-09-05 12:23:06 | 48.43295 | 10.52068 | 35° | 20km/h | 31104m | 6.8m/s | -43.8°C | 0.7% | 11.8hPa | 2.6V | 00:00:00 | 00:00:00 | 00:00:00 | |
| DL1XH1-15 | 2026-09-05 12:23:05 | 48.43276 | 10.52052 | 64° | 13km/h | 31073m | 7.2m/s | -43.5°C | 2.6% | 11.8hPa | 2.6V | 08:30:00 | 01:54:01 | 00:00:00 | |
| DO3MHA-11 | 2026-09-05 12:23:05 | 48.43286 | 10.52061 | 19° | 22km/h | 31091m | 5.6m/s | -43.6°C | 2.7% | 11.8hPa | 2.6V | 00:00:00 | 01:54:04 | 00:00:00 | |
| DM0DOS-11 | 2026-09-05 12:23:04 | 48.43275 | 10.52047 | 86° | 16km/h | 31066m | 6.1m/s | -43.5°C | 2.7% | 11.9hPa | 2.6V | 08:30:00 | 01:54:00 | 00:00:00 | |
| DK7TD | 2026-09-05 12:23:03 | 48.43278 | 10.52056 | 37° | 15km/h | 31080m | 6.1m/s | -43.5°C | 0% | 11.8hPa | 2.6V | 18:12:15 | 01:54:02 | 00:00:00 | |
| DL1XH-west | 2026-09-05 12:22:58 | 48.43272 | 10.52021 | 69° | 27km/h | 31048m | 6.9m/s | -43.4°C | 0% | 11.9hPa | 2.7V | 18:12:15 | 01:53:57 | 00:00:00 | |
| OE5MMP-10 | 2026-09-05 12:22:57 | 48.43269 | 10.52011 | 61° | 27km/h | 31042m | 5.9m/s | -43.4°C | 2.7% | 11.9hPa | 2.6V | 00:00:00 | 01:53:56 | 00:00:00 | |
| DL1XH1-15 | 2026-09-05 12:22:55 | 48.43251 | 10.51964 | 68° | 26km/h | 31012m | 5.8m/s | -43.7°C | 2.8% | 11.9hPa | 2.7V | 08:30:00 | 01:53:51 | 00:00:00 | |
| DL1NUX | 2026-09-05 12:22:55 | 48.43246 | 10.51946 | 63° | 26km/h | 31000m | 7.4m/s | -43.6°C | 2.8% | 11.9hPa | 2.6V | 08:30:00 | 01:53:49 | 00:00:00 | |
| DF8AY | 2026-09-05 12:22:53 | 48.43253 | 10.51973 | 65° | 26km/h | 31019m | 6.2m/s | -43.7°C | 0% | 11.9hPa | 2.7V | 18:12:15 | 01:53:52 | 00:00:00 | |
| DK7TD | 2026-09-05 12:22:52 | 48.43251 | 10.51964 | 68° | 26km/h | 31012m | 5.8m/s | -43.7°C | 0% | 11.9hPa | 2.7V | 18:12:15 | 01:53:51 | 00:00:00 | |
| HSKMA3-T | 2026-09-05 12:22:47 | 48.43235 | 10.51922 | 53° | 22km/h | 30982m | 5.3m/s | -43.3°C | 0% | 12hPa | 2.7V | 18:12:15 | 01:53:46 | 00:00:00 | |
| DL1XH1-15 | 2026-09-05 12:22:47 | 48.43225 | 10.51896 | 57° | 18km/h | 30950m | 7.3m/s | -43°C | 2.7% | 12hPa | 2.7V | 08:30:00 | 01:53:41 | 00:00:00 | |
| DB0UT-7 | 2026-09-05 12:22:47 | 48.43235 | 10.51922 | 54° | 18km/h | 30983m | 5.2m/s | -43.3°C | 2.7% | 12.0hPa | 2.7V | 00:00:00 | 00:00:00 | 08:30:00 | |
| DL1KLB | 2026-09-05 12:22:46 | 48.43232 | 10.51916 | 58° | 18km/h | 30976m | 7.3m/s | 0°C | 0% | 0hPa | 2.7V | 00:00:00 | 00:00:00 | 00:00:00 | |
| DL1NUX | 2026-09-05 12:22:45 | 48.43218 | 10.51881 | 53° | 29km/h | 30937m | 5.9m/s | -42.9°C | 2.6% | 12.1hPa | 2.7V | 08:30:00 | 01:53:39 | 00:00:00 | |
| BIOWL1-15 | 2026-09-05 12:22:44 | 48.43229 | 10.51906 | 69° | 13km/h | 30962m | 5.8m/s | 0°C | 0% | 0hPa | 2.6V | 18:12:15 | 01:53:43 | 00:00:00 | |
| DF8AY | 2026-09-05 12:22:42 | 48.43225 | 10.51896 | 58° | 18km/h | 30950m | 7.3m/s | -43°C | 0% | 12hPa | 2.7V | 18:12:15 | 01:53:41 | 00:00:00 | |
| DL1XH-west | 2026-09-05 12:22:37 | 48.43208 | 10.51852 | 72° | 26km/h | 30918m | 6.6m/s | -42.9°C | 0% | 0hPa | 2.6V | 18:12:15 | 01:53:36 | 00:00:00 | |
| HARRO8 | 2026-09-05 12:22:37 | 48.43206 | 10.51844 | 76° | 22km/h | 30912m | 5.5m/s | -42.8°C | 0.6% | 12.1hPa | 2.6V | 00:00:00 | 00:00:00 | 00:00:00 | |
| DO3MHA-11 | 2026-09-05 12:22:35 | 48.43205 | 10.51836 | 76° | 16km/h | 30907m | 5.4m/s | -42.8°C | 2.6% | 12.1hPa | 2.6V | 00:00:00 | 01:53:34 | 00:00:00 | |
| PETON7-10 | 2026-09-05 12:22:34 | 48.43203 | 10.51829 | 69° | 16km/h | 30901m | 6.8m/s | -42.8°C | 2.6% | 12.1hPa | 2.6V | 00:00:00 | 00:00:00 | 00:00:00 | |
| DJ8HS-15 | 2026-09-05 12:22:33 | 48.43201 | 10.51823 | 60° | 15km/h | 30894m | 6.4m/s | -42.8°C | 2.6% | 12.1hPa | 2.6V | 00:00:00 | 01:53:32 | 00:00:00 | |
| DB0NH | 2026-09-05 12:22:32 | 48.43199 | 10.51817 | 55° | 16km/h | 30888m | 5.7m/s | -42.8°C | 2.6% | 12.1hPa | 2.6V | 00:00:00 | 01:53:31 | 00:00:00 | |
| DK7TD | 2026-09-05 12:22:32 | 48.43199 | 10.51817 | 55° | 16km/h | 30888m | 5.7m/s | -42.8°C | 0% | 12.1hPa | 2.6V | 18:12:15 | 01:53:31 | 00:00:00 | |
| DM0DOS-11 | 2026-09-05 12:22:30 | 48.43195 | 10.51808 | 70° | 13km/h | 30875m | 7.3m/s | -42.8°C | 2.5% | 12.2hPa | 2.7V | 08:30:00 | 01:53:29 | 00:00:00 | |
| DL1XH-west | 2026-09-05 12:22:27 | 48.43193 | 10.51792 | 71° | 16km/h | 30857m | 5.7m/s | -42.9°C | 0% | 0hPa | 2.6V | 18:12:15 | 01:53:26 | 00:00:00 | |
| OM5KV | 2026-09-05 12:22:27 | 48.43193 | 10.51792 | 72° | 16km/h | 30857m | 5.7m/s | -42.9°C | 0.6% | 12.2hPa | 2.6V | 00:00:00 | 00:00:00 | 00:00:00 | |
| AZAK | 2026-09-05 12:22:26 | 48.43191 | 10.51786 | 57° | 18km/h | 30851m | 7.4m/s | -42.9°C | 0.6% | 12.2hPa | 2.6V | 00:00:00 | 00:00:00 | 00:00:00 | |
| DO3MHA-11 | 2026-09-05 12:22:25 | 48.43188 | 10.51781 | 46° | 16km/h | 30844m | 6.6m/s | -42.9°C | 2.6% | 12.2hPa | 2.6V | 00:00:00 | 01:53:24 | 00:00:00 | |
| DM0DOS-11 | 2026-09-05 12:22:24 | 48.43172 | 10.51755 | 66° | 9km/h | 30813m | 5.4m/s | -43.1°C | 2.6% | 12.3hPa | 2.6V | 08:30:00 | 01:53:19 | 00:00:00 | |
| DK7TD | 2026-09-05 12:22:21 | 48.43174 | 10.51759 | 56° | 13km/h | 30819m | 6.8m/s | -43.2°C | 0% | 12.3hPa | 2.7V | 18:12:15 | 01:53:20 | 00:00:00 | |
| HSKMA3-T | 2026-09-05 12:22:16 | 48.43167 | 10.51744 | 36° | 13km/h | 30788m | 6.4m/s | -42.8°C | 0% | 12.3hPa | 2.6V | 18:12:15 | 01:53:15 | 00:00:00 | |
| DJ2DS-15 | 2026-09-05 12:22:16 | 48.43164 | 10.51741 | 40° | 13km/h | 30782m | 5.7m/s | -42.8°C | 0.6% | 12.3hPa | 2.6V | 00:00:00 | 00:00:00 | 00:00:00 | |
| DF7PN | 2026-09-05 12:22:15 | 48.43161 | 10.51737 | 50° | 13km/h | 30776m | 6.6m/s | -42.9°C | 0.6% | 12.3hPa | 2.6V | 00:00:00 | 00:00:00 | 00:00:00 | |
| DM0DOS-11 | 2026-09-05 12:22:14 | 48.43153 | 10.51719 | 38° | 16km/h | 30752m | 6.6m/s | -43°C | 2.6% | 12.4hPa | 2.6V | 08:30:00 | 01:53:09 | 00:00:00 | |
| DF8AY | 2026-09-05 12:22:11 | 48.43156 | 10.51724 | 55° | 15km/h | 30757m | 5.1m/s | -43°C | 0% | 12.4hPa | 2.6V | 18:12:15 | 01:53:10 | 00:00:00 | |
| DK7TD | 2026-09-05 12:22:10 | 48.43154 | 10.51719 | 39° | 16km/h | 30752m | 6.6m/s | -43°C | 0% | 12.4hPa | 2.6V | 18:12:15 | 01:53:09 | 00:00:00 | |
| DL1XH-west | 2026-09-05 12:22:06 | 48.43132 | 10.51710 | 10° | 22km/h | 30725m | 6.3m/s | 0°C | 0% | 0hPa | 2.6V | 18:12:15 | 01:53:05 | 00:00:00 | |
| HARRO8 | 2026-09-05 12:22:06 | 48.43127 | 10.51708 | 15° | 16km/h | 30719m | 7.2m/s | -42.9°C | 0.7% | 12.4hPa | 2.6V | 00:00:00 | 00:00:00 | 00:00:00 | |
| DL1NUX | 2026-09-05 12:22:05 | 48.43112 | 10.51690 | 54° | 18km/h | 30687m | 5.2m/s | -42.7°C | 2.5% | 12.5hPa | 2.6V | 08:30:00 | 01:52:59 | 00:00:00 | |
| OM5KV | 2026-09-05 12:22:05 | 48.43127 | 10.51708 | 17° | 18km/h | 30719m | 7.2m/s | -42.9°C | 0.7% | 12.4hPa | 2.6V | 00:00:00 | 00:00:00 | 00:00:00 | |
| PETON7-10 | 2026-09-05 12:22:04 | 48.43123 | 10.51706 | 26° | 16km/h | 30712m | 6.5m/s | -42.8°C | 2.5% | 12.4hPa | 2.6V | 00:00:00 | 00:00:00 | 00:00:00 | |
| OE5DRO-10 | 2026-09-05 12:22:03 | 48.43120 | 10.51703 | 37° | 16km/h | 30706m | 5.8m/s | -42.7°C | 2.5% | 12.4hPa | 2.7V | 00:00:00 | 00:00:00 | 00:00:00 | |
| SONCRA | 2026-09-05 12:22:02 | 48.43115 | 10.51696 | 45° | 16km/h | 30693m | 6.1m/s | -42.7°C | 0.6% | 12.5hPa | 2.7V | 00:00:00 | 00:00:00 | 00:00:00 | |
| DM7RM-13 | 2026-09-05 12:22:00 | 48.43112 | 10.51690 | 55° | 18km/h | 30687m | 5.3m/s | -42.7°C | 0.7% | 12.5hPa | 2.7V | 00:00:00 | 00:00:00 | 00:00:00 | |
| DK7TD | 2026-09-05 12:22:00 | 48.43112 | 10.51690 | 54° | 18km/h | 30687m | 5.3m/s | -42.7°C | 0% | 12.5hPa | 2.6V | 18:12:15 | 01:52:59 | 00:00:00 | |
| DO3MHA-12 | 2026-09-05 12:21:59 | 48.43109 | 10.51684 | 64° | 18km/h | 30681m | 6.1m/s | -42.7°C | 2.5% | 12.4hPa | 2.7V | 00:00:00 | 01:52:58 | 00:00:00 | |
| DM0DOS-11 | 2026-09-05 12:21:58 | 48.43105 | 10.51664 | 67° | 16km/h | 30662m | 4.9m/s | -42.9°C | 2.5% | 12.5hPa | 2.7V | 08:30:00 | 01:52:55 | 00:00:00 | |
| DL1XH-west | 2026-09-05 12:21:56 | 48.43104 | 10.51664 | 67° | 16km/h | 30662m | 4.9m/s | 0°C | 0% | 0hPa | 2.7V | 18:12:15 | 01:52:55 | 00:00:00 | |
| HSKMA3-T | 2026-09-05 12:21:55 | 48.43102 | 10.51659 | 50° | 15km/h | 30656m | 5.5m/s | -42.9°C | 0% | 12.5hPa | 2.7V | 18:12:15 | 01:52:54 | 00:00:00 | |
| DK7TD | 2026-09-05 12:21:49 | 48.43079 | 10.51651 | 42° | 7km/h | 30620m | 7.3m/s | -42.8°C | 0% | 12.6hPa | 2.7V | 18:12:15 | 01:52:48 | 00:00:00 | |
| DO3MHA-12 | 2026-09-05 12:21:49 | 48.43079 | 10.51651 | 43° | 11km/h | 30621m | 7.3m/s | -42.7°C | 2.5% | 12.5hPa | 2.7V | 00:00:00 | 01:52:48 | 00:00:00 | |
| DM0DOS-11 | 2026-09-05 12:21:48 | 48.43082 | 10.51640 | 117° | 15km/h | 30600m | 6.4m/s | -42.9°C | 2.6% | 12.6hPa | 2.6V | 08:30:00 | 01:52:45 | 00:00:00 | |
| SONDE2-11 | 2026-09-05 12:21:47 | 48.43082 | 10.51640 | 117° | 15km/h | 30600m | 6.4m/s | -43.0°C | 0.6% | 12.6hPa | 2.7V | 00:00:00 | 00:00:00 | 00:00:00 | |
| DO9HM | 2026-09-05 12:21:46 | 48.43082 | 10.51640 | 119° | 15km/h | 30601m | 6.4m/s | -42.9°C | 0.7% | 12.6hPa | 2.7V | 00:00:00 | 00:00:00 | 00:00:00 | |
| DL1XH1-15 | 2026-09-05 12:21:45 | 48.43083 | 10.51626 | 70° | 11km/h | 30581m | 6m/s | -42.9°C | 2.6% | 12.7hPa | 2.7V | 08:30:00 | 01:52:42 | 00:00:00 | |
| DL1NUX | 2026-09-05 12:21:45 | 48.43079 | 10.51617 | 27° | 9km/h | 30561m | 5.8m/s | -42.8°C | 2.6% | 12.7hPa | 2.6V | 08:30:00 | 01:52:39 | 00:00:00 | |
| DF8AY | 2026-09-05 12:21:45 | 48.43083 | 10.51635 | 107° | 13km/h | 30594m | 6.9m/s | -43°C | 0% | 12.7hPa | 2.7V | 18:12:15 | 01:52:44 | 00:00:00 | |
| DK7TD | 2026-09-05 12:21:37 | 48.43069 | 10.51619 | 336° | 20km/h | 30542m | 7.3m/s | -42.9°C | 0% | 12.7hPa | 2.6V | 18:12:15 | 01:52:36 | 00:00:00 | |
| NBG1-10 | 2026-09-05 12:21:37 | 48.43069 | 10.51619 | 336° | 9km/h | 30542m | 7.3m/s | -42.8°C | 2.6% | 12.7hPa | 2.7V | 00:00:00 | 01:52:36 | 00:00:00 | |
| DL1NUX | 2026-09-05 12:21:35 | 48.43064 | 10.51615 | 121° | 16km/h | 30499m | 6.6m/s | -43.1°C | 2.6% | 12.8hPa | 2.7V | 08:30:00 | 01:52:29 | 00:00:00 | |
| DM0DOS-11 | 2026-09-05 12:21:34 | 48.43066 | 10.51610 | 108° | 13km/h | 30492m | 6.7m/s | -43.2°C | 2.6% | 12.8hPa | 2.6V | 08:30:00 | 01:52:28 | 00:00:00 | |
| HSKMA3-T | 2026-09-05 12:21:34 | 48.43058 | 10.51627 | 335° | 7km/h | 30525m | 7.1m/s | -43°C | 0% | 12.8hPa | 2.7V | 18:12:15 | 01:52:33 | 00:00:00 | |
| DF8AY | 2026-09-05 12:21:32 | 48.43059 | 10.51625 | 132° | 13km/h | 30511m | 6.2m/s | -43.1°C | 0% | 12.8hPa | 2.6V | 18:12:15 | 01:52:31 | 00:00:00 | |
| DF8AY | 2026-09-05 12:21:26 | 48.43051 | 10.51607 | 357° | 15km/h | 30443m | 7.4m/s | -43°C | 0% | 12.9hPa | 2.7V | 18:12:15 | 01:52:20 | 00:00:00 | |
| DK7TD | 2026-09-05 12:21:26 | 48.43063 | 10.51603 | 359° | 9km/h | 30475m | 6m/s | -43.3°C | 0% | 12.9hPa | 2.7V | 18:12:15 | 01:52:25 | 00:00:00 | |
| SO1NDE-10 | 2026-09-05 12:21:25 | 48.43061 | 10.51603 | 345° | 9km/h | 30468m | 6.5m/s | -43.3°C | 2.6% | 12.8hPa | 2.6V | 00:00:00 | 01:52:24 | 00:00:00 | |
| DL1XH1-15 | 2026-09-05 12:21:24 | 48.43045 | 10.51606 | 20° | 11km/h | 30431m | 5.2m/s | -43.1°C | 2.6% | 12.9hPa | 2.6V | 08:30:00 | 01:52:18 | 00:00:00 | |
| HSKMA3-T | 2026-09-05 12:21:23 | 48.43057 | 10.51606 | 341° | 9km/h | 30456m | 5.7m/s | -43.1°C | 0% | 12.9hPa | 2.6V | 18:12:15 | 01:52:22 | 00:00:00 | |
| DM0DOS-11 | 2026-09-05 12:21:22 | 48.43043 | 10.51602 | 117° | 7km/h | 30418m | 7.7m/s | -42.8°C | 2.6% | 12.9hPa | 2.6V | 08:30:00 | 01:52:16 | 00:00:00 | |
| DK7TD | 2026-09-05 12:21:16 | 48.43045 | 10.51600 | 144° | 13km/h | 30411m | 6.1m/s | -42.8°C | 0% | 12.9hPa | 2.7V | 18:12:15 | 01:52:15 | 00:00:00 | |
| DL1NUX | 2026-09-05 12:21:15 | 48.43048 | 10.51590 | 15° | 11km/h | 30376m | 5.5m/s | -42.8°C | 2.6% | 13hPa | 2.7V | 08:30:00 | 01:52:09 | 00:00:00 | |
| HSKMA3-T | 2026-09-05 12:21:12 | 48.43052 | 10.51592 | 45° | 4km/h | 30388m | 6.4m/s | -42.7°C | 0% | 13hPa | 2.6V | 18:12:15 | 01:52:11 | 00:00:00 | |
| DF8AY | 2026-09-05 12:21:10 | 48.43048 | 10.51590 | 15° | 11km/h | 30376m | 5.6m/s | -42.8°C | 0% | 13.1hPa | 2.7V | 18:12:15 | 01:52:09 | 00:00:00 | |
| DL1XH-west | 2026-09-05 12:21:08 | 48.43044 | 10.51588 | 15° | 5km/h | 30364m | 6.5m/s | -42.9°C | 0% | 13hPa | 2.7V | 18:12:15 | 01:52:07 | 00:00:00 | |
| DM0DOS-11 | 2026-09-05 12:21:06 | 48.43048 | 10.51589 | 142° | 9km/h | 30321m | 6.3m/s | -42.9°C | 2.5% | 13.1hPa | 2.6V | 08:30:00 | 01:52:00 | 00:00:00 | |
| DL1NUX | 2026-09-05 12:21:05 | 48.43050 | 10.51586 | 138° | 13km/h | 30314m | 7.5m/s | -42.9°C | 2.5% | 13.2hPa | 2.6V | 08:30:00 | 01:51:59 | 00:00:00 | |
| DL1XH1-15 | 2026-09-05 12:21:04 | 48.43053 | 10.51582 | 132° | 18km/h | 30307m | 6.3m/s | -43°C | 2.6% | 13.1hPa | 2.6V | 08:30:00 | 01:51:58 | 00:00:00 | |
| DK7TD | 2026-09-05 12:21:04 | 48.43045 | 10.51590 | 219° | 4km/h | 30339m | 7.1m/s | -42.7°C | 0% | 13.1hPa | 2.7V | 18:12:15 | 01:52:03 | 00:00:00 | |
| HSKMA3-T | 2026-09-05 12:21:02 | 48.43046 | 10.51590 | 156° | 4km/h | 30327m | 5m/s | -42.8°C | 0% | 13.2hPa | 2.7V | 18:12:15 | 01:52:01 | 00:00:00 | |
| DF8AY | 2026-09-05 12:21:00 | 48.43050 | 10.51586 | 139° | 13km/h | 30314m | 7.5m/s | -42.9°C | 0% | 13.2hPa | 2.6V | 18:12:15 | 01:51:59 | 00:00:00 | |
| DL1XH-west | 2026-09-05 12:20:57 | 48.43057 | 10.51571 | 110° | 16km/h | 30295m | 7m/s | -42.7°C | 0% | 13.2hPa | 2.7V | 18:12:15 | 01:51:56 | 00:00:00 | |
| OE5MMP-10 | 2026-09-05 12:20:57 | 48.43057 | 10.51571 | 110° | 13km/h | 30295m | 6.9m/s | -42.7°C | 2.5% | 13.1hPa | 2.7V | 00:00:00 | 01:51:56 | 08:30:00 | |
| DL1NUX | 2026-09-05 12:20:55 | 48.43058 | 10.51539 | 136° | 13km/h | 30252m | 5.7m/s | -42.9°C | 2.5% | 13.2hPa | 2.7V | 08:30:00 | 01:51:49 | 00:00:00 | |
| SO1NDE-10 | 2026-09-05 12:20:55 | 48.43057 | 10.51560 | 72° | 13km/h | 30282m | 5.4m/s | -42.6°C | 2.5% | 13.1hPa | 2.6V | 00:00:00 | 01:51:54 | 08:30:00 | |
| DL1XH1-15 | 2026-09-05 12:20:54 | 48.43061 | 10.51536 | 143° | 11km/h | 30246m | 6m/s | -42.8°C | 2.5% | 13.3hPa | 2.7V | 08:30:00 | 01:51:48 | 00:00:00 | |
| DK7TD | 2026-09-05 12:20:53 | 48.43055 | 10.51551 | 78° | 11km/h | 30271m | 6.4m/s | -42.8°C | 0% | 13.2hPa | 2.7V | 18:12:15 | 01:51:52 | 00:00:00 | |
| HSKMA3-T | 2026-09-05 12:20:51 | 48.43056 | 10.51542 | 124° | 13km/h | 30258m | 5.8m/s | -42.9°C | 0% | 13.2hPa | 2.6V | 18:12:15 | 01:51:50 | 00:00:00 | |
| DF8AY | 2026-09-05 12:20:49 | 48.43061 | 10.51536 | 143° | 11km/h | 30246m | 6m/s | -42.8°C | 0% | 13.3hPa | 2.7V | 18:12:15 | 01:51:48 | 00:00:00 | |
| DL1XH-west | 2026-09-05 12:20:46 | 48.43065 | 10.51532 | 170° | 4km/h | 30227m | 5.4m/s | -42.9°C | 0% | 13.3hPa | 2.7V | 18:12:15 | 01:51:45 | 00:00:00 | |
| OM5KV | 2026-09-05 12:20:46 | 48.43065 | 10.51532 | 171° | 4km/h | 30227m | 5.4m/s | -42.9°C | 0.7% | 13.3hPa | 2.7V | 00:00:00 | 00:00:00 | 00:00:00 | |
| DL1NUX | 2026-09-05 12:20:45 | 48.43077 | 10.51518 | 108° | 11km/h | 30188m | 6.4m/s | -43.1°C | 2.6% | 13.4hPa | 2.7V | 08:30:00 | 01:51:39 | 00:00:00 | |
| SONDE2-11 | 2026-09-05 12:20:44 | 48.43068 | 10.51530 | 156° | 9km/h | 30215m | 7.3m/s | -43.1°C | 0.7% | 13.3hPa | 2.6V | 00:00:00 | 00:00:00 | 00:00:00 | |
| DK7TD | 2026-09-05 12:20:42 | 48.43073 | 10.51526 | 140° | 13km/h | 30201m | 5.7m/s | -43.3°C | 0% | 13.3hPa | 2.6V | 18:12:15 | 01:51:41 | 00:00:00 | |
| BAUMI2-15 | 2026-09-05 12:20:42 | 48.43073 | 10.51526 | 140° | 13km/h | 30202m | 5.7m/s | -43.2°C | 2.6% | 13.3hPa | 2.7V | 00:00:00 | 01:51:41 | 00:00:00 | |
| DL1XH1-15 | 2026-09-05 12:20:41 | 48.43077 | 10.51514 | 99° | 13km/h | 30183m | 5.3m/s | -43.1°C | 2.6% | 13.4hPa | 2.7V | 08:30:00 | 01:51:38 | 00:00:00 | |
| HSKMA3-T | 2026-09-05 12:20:41 | 48.43075 | 10.51522 | 127° | 11km/h | 30195m | 7.2m/s | -43.2°C | 0% | 13.3hPa | 2.7V | 18:12:15 | 01:51:40 | 00:00:00 | |
| DO3MHA-12 | 2026-09-05 12:20:39 | 48.43077 | 10.51514 | 100° | 15km/h | 30183m | 5.3m/s | -43.1°C | 2.6% | 13.3hPa | 2.6V | 00:00:00 | 01:51:38 | 00:00:00 | |
| DM0DOS-11 | 2026-09-05 12:20:38 | 48.43080 | 10.51503 | 116° | 16km/h | 30171m | 7m/s | -43.3°C | 2.6% | 13.4hPa | 2.6V | 08:30:00 | 01:51:36 | 00:00:00 | |
| DF8AY | 2026-09-05 12:20:38 | 48.43078 | 10.51509 | 106° | 15km/h | 30177m | 5.5m/s | -43.2°C | 0% | 13.4hPa | 2.6V | 18:12:15 | 01:51:37 | 00:00:00 | |
| OE5MMP-10 | 2026-09-05 12:20:37 | 48.43080 | 10.51503 | 117° | 15km/h | 30171m | 7.0m/s | -43.2°C | 2.6% | 13.4hPa | 2.6V | 00:00:00 | 01:51:36 | 00:00:00 | |
| DL9SK-14 | 2026-09-05 12:20:36 | 48.43086 | 10.51492 | 138° | 18km/h | 30158m | 5.7m/s | -43.3°C | 0.7% | 13.4hPa | 2.6V | 00:00:00 | 00:00:00 | 00:00:00 | |
| DL1NUX | 2026-09-05 12:20:35 | 48.43100 | 10.51480 | 170° | 11km/h | 30127m | 5.2m/s | -43.3°C | 2.7% | 13.5hPa | 2.6V | 08:30:00 | 01:51:29 | 00:00:00 | |
| DL1XH-west | 2026-09-05 12:20:35 | 48.43086 | 10.51492 | 138° | 20km/h | 30158m | 5.7m/s | -43.3°C | 0% | 13.4hPa | 2.7V | 18:12:15 | 01:51:34 | 00:00:00 | |
| DK7TD | 2026-09-05 12:20:32 | 48.43096 | 10.51482 | 161° | 11km/h | 30139m | 6.8m/s | -43.4°C | 0% | 13.4hPa | 2.6V | 18:12:15 | 01:51:31 | 00:00:00 | |
| DB0NH | 2026-09-05 12:20:32 | 48.43096 | 10.51482 | 161° | 20km/h | 30139m | 6.7m/s | -43.3°C | 2.7% | 13.4hPa | 2.7V | 00:00:00 | 01:51:31 | 00:00:00 | |
| NBG1-10 | 2026-09-05 12:20:31 | 48.43098 | 10.51481 | 172° | 20km/h | 30133m | 5.5m/s | -43.3°C | 2.7% | 13.4hPa | 2.7V | 00:00:00 | 01:51:30 | 00:00:00 | |
| DL1XH1-15 | 2026-09-05 12:20:30 | 48.43103 | 10.51479 | 162° | 13km/h | 30121m | 7.2m/s | -43.2°C | 2.6% | 13.5hPa | 2.7V | 08:30:00 | 01:51:28 | 00:00:00 | |
| HSKMA3-T | 2026-09-05 12:20:30 | 48.43101 | 10.51480 | 170° | 11km/h | 30127m | 5.2m/s | -43.3°C | 0% | 13.5hPa | 2.6V | 18:12:15 | 01:51:29 | 00:00:00 | |
| DF8AY | 2026-09-05 12:20:27 | 48.43111 | 10.51473 | 139° | 20km/h | 30108m | 5.5m/s | -43°C | 0% | 13.5hPa | 2.7V | 18:12:15 | 01:51:26 | 00:00:00 | |
| DL1XH-west | 2026-09-05 12:20:25 | 48.43117 | 10.51461 | 112° | 22km/h | 30095m | 6.8m/s | -43.2°C | 0% | 13.5hPa | 2.6V | 18:12:15 | 01:51:24 | 00:00:00 | |
| OM5KV | 2026-09-05 12:20:25 | 48.43117 | 10.51460 | 113° | 22km/h | 30096m | 6.8m/s | 0°C | 0% | 13.5hPa | 2.7V | 00:00:00 | 00:00:00 | 00:00:00 | |
| DL1XH1-15 | 2026-09-05 12:20:24 | 48.43133 | 10.51405 | 132° | 20km/h | 30060m | 5.8m/s | -43.1°C | 2.6% | 13.6hPa | 2.7V | 08:30:00 | 01:51:18 | 00:00:00 | |
| DK7TD | 2026-09-05 12:20:22 | 48.43123 | 10.51431 | 111° | 31km/h | 30077m | 6.9m/s | -43.5°C | 0% | 13.6hPa | 2.7V | 18:12:15 | 01:51:21 | 00:00:00 | |
| HSKMA3-T | 2026-09-05 12:20:20 | 48.43130 | 10.51412 | 125° | 26km/h | 30065m | 4.9m/s | -43.3°C | 0% | 13.6hPa | 2.6V | 18:12:15 | 01:51:19 | 00:00:00 | |
| OM5KV | 2026-09-05 12:20:19 | 48.43130 | 10.51412 | 126° | 26km/h | 30066m | 4.9m/s | 0°C | 0% | 13.6hPa | 2.6V | 00:00:00 | 00:00:00 | 00:00:00 | |
| PETON7-10 | 2026-09-05 12:20:18 | 48.43136 | 10.51400 | 144° | 20km/h | 30054m | 7.5m/s | -43.1°C | 2.6% | 13.6hPa | 2.6V | 00:00:00 | 00:00:00 | 00:00:00 | |
| DB0UT-7 | 2026-09-05 12:20:17 | 48.43139 | 10.51399 | 175° | 24km/h | 30047m | 6.8m/s | -43.1°C | 2.6% | 13.6hPa | 2.6V | 00:00:00 | 01:51:16 | 00:00:00 | |
| DM0DOS-11 | 2026-09-05 12:20:16 | 48.43156 | 10.51395 | 136° | 18km/h | 30009m | 7.1m/s | -42.9°C | 2.6% | 13.7hPa | 2.6V | 08:30:00 | 01:51:10 | 00:00:00 | |
| DF8AY | 2026-09-05 12:20:16 | 48.43156 | 10.51395 | 136° | 18km/h | 30009m | 7.1m/s | -42.9°C | 0% | 13.7hPa | 2.6V | 18:12:15 | 01:51:10 | 00:00:00 | |
| DL1XH-west | 2026-09-05 12:20:15 | 48.43143 | 10.51401 | 204° | 11km/h | 30034m | 6m/s | -43.1°C | 0% | 13.6hPa | 2.7V | 18:12:15 | 01:51:14 | 00:00:00 | |
| DL1NUX | 2026-09-05 12:20:15 | 48.43159 | 10.51389 | 123° | 20km/h | 30002m | 6.4m/s | -43°C | 2.6% | 13.7hPa | 2.7V | 08:30:00 | 01:51:09 | 00:00:00 | |
| DK7TD | 2026-09-05 12:20:12 | 48.43153 | 10.51399 | 148° | 18km/h | 30015m | 5.7m/s | -42.9°C | 0% | 13.7hPa | 2.6V | 18:12:15 | 01:51:11 | 00:00:00 | |
| HSKMA3-T | 2026-09-05 12:20:09 | 48.43162 | 10.51382 | 118° | 22km/h | 29996m | 5.4m/s | -42.9°C | 0% | 13.7hPa | 2.7V | 18:12:15 | 01:51:08 | 00:00:00 | |
| DL1XH-west | 2026-09-05 12:20:04 | 48.43183 | 10.51341 | 147° | 26km/h | 29966m | 5.6m/s | -43°C | 0% | 13.8hPa | 2.7V | 18:12:15 | 01:51:03 | 00:00:00 | |
| DO3MHA-11 | 2026-09-05 12:20:04 | 48.43183 | 10.51340 | 148° | 26km/h | 29967m | 5.5m/s | -42.9°C | 2.5% | 13.7hPa | 2.7V | 00:00:00 | 01:51:03 | 00:00:00 | |
| OE5WHR-10 | 2026-09-05 12:20:03 | 48.43188 | 10.51337 | 160° | 26km/h | 29960m | 7.6m/s | -42.8°C | 2.5% | 13.7hPa | 2.7V | 00:00:00 | 00:00:00 | 00:00:00 | |
| DB0NH | 2026-09-05 12:20:02 | 48.43192 | 10.51335 | 181° | 29km/h | 29953m | 7.1m/s | -42.7°C | 2.5% | 13.7hPa | 2.6V | 00:00:00 | 01:51:01 | 00:00:00 | |
| DM0DOS-11 | 2026-09-05 12:20:01 | 48.43200 | 10.51338 | 189° | 15km/h | 29941m | 5m/s | -42.9°C | 2.5% | 13.8hPa | 2.6V | 08:30:00 | 01:50:59 | 00:00:00 | |
| DF8AY | 2026-09-05 12:20:01 | 48.43196 | 10.51336 | 196° | 15km/h | 29946m | 5.4m/s | -42.8°C | 0% | 13.8hPa | 2.6V | 18:12:15 | 01:51:00 | 00:00:00 | |
| DL1XH1-15 | 2026-09-05 12:20:00 | 48.43204 | 10.51337 | 171° | 16km/h | 29935m | 6.2m/s | -43°C | 2.6% | 13.8hPa | 2.6V | 08:30:00 | 01:50:58 | 00:00:00 | |
| HSKMA3-T | 2026-09-05 12:19:59 | 48.43204 | 10.51337 | 171° | 16km/h | 29935m | 6.2m/s | -43°C | 0% | 13.8hPa | 2.6V | 18:12:15 | 01:50:58 | 00:00:00 | |
| DO3MHA-12 | 2026-09-05 12:19:59 | 48.43203 | 10.51337 | 172° | 29km/h | 29936m | 6.2m/s | -43.0°C | 2.6% | 13.8hPa | 2.7V | 00:00:00 | 01:50:58 | 00:00:00 | |
| DF1GD-15 | 2026-09-05 12:19:58 | 48.43208 | 10.51335 | 152° | 22km/h | 29930m | 6.0m/s | -42.9°C | 0.7% | 13.9hPa | 2.7V | 00:00:00 | 00:00:00 | 00:00:00 | |
| OE5MMP-10 | 2026-09-05 12:19:57 | 48.43213 | 10.51330 | 138° | 33km/h | 29924m | 5.4m/s | -42.7°C | 2.6% | 13.8hPa | 2.7V | 00:00:00 | 01:50:56 | 00:00:00 | |
| DM7RM-13 | 2026-09-05 12:19:56 | 48.43213 | 10.51330 | 139° | 27km/h | 29924m | 5.5m/s | -42.8°C | 0.7% | 13.9hPa | 2.6V | 00:00:00 | 00:00:00 | 00:00:00 | |
| DL1NUX | 2026-09-05 12:19:55 | 48.43245 | 10.51259 | 130° | 35km/h | 29881m | 7.1m/s | -42.9°C | 2.6% | 13.9hPa | 2.6V | 08:30:00 | 01:50:49 | 00:00:00 | |
| DL1XH-west | 2026-09-05 12:19:53 | 48.43232 | 10.51290 | 119° | 33km/h | 29898m | 5.3m/s | -42.9°C | 0% | 13.9hPa | 2.6V | 18:12:15 | 01:50:52 | 00:00:00 | |
| DF8AY | 2026-09-05 12:19:50 | 48.43245 | 10.51259 | 130° | 35km/h | 29881m | 7.1m/s | -42.9°C | 0% | 13.9hPa | 2.6V | 18:12:15 | 01:50:49 | 00:00:00 | |
| DM0DOS-11 | 2026-09-05 12:19:50 | 48.43258 | 10.51242 | 144° | 33km/h | 29869m | 5.3m/s | -42.8°C | 2.6% | 14hPa | 2.7V | 08:30:00 | 01:50:47 | 00:00:00 | |
| DL1XH1-15 | 2026-09-05 12:19:50 | 48.43251 | 10.51250 | 137° | 37km/h | 29874m | 6.2m/s | -42.9°C | 2.6% | 13.9hPa | 2.6V | 08:30:00 | 01:50:48 | 00:00:00 | |
| HSKMA3-T | 2026-09-05 12:19:48 | 48.43258 | 10.51242 | 144° | 33km/h | 29869m | 5.3m/s | -42.8°C | 0% | 14hPa | 2.7V | 18:12:15 | 01:50:47 | 00:00:00 | |
| PETON7-10 | 2026-09-05 12:19:48 | 48.43258 | 10.51242 | 145° | 33km/h | 29869m | 5.2m/s | -42.8°C | 2.6% | 13.9hPa | 2.7V | 00:00:00 | 00:00:00 | 00:00:00 | |
| DB0UT-7 | 2026-09-05 12:19:47 | 48.43265 | 10.51235 | 151° | 29km/h | 29864m | 5.5m/s | -42.7°C | 2.6% | 13.9hPa | 2.7V | 00:00:00 | 00:00:00 | 00:00:00 | |
| DL1NUX | 2026-09-05 12:19:45 | 48.43299 | 10.51191 | 120° | 42km/h | 29820m | 6m/s | -43°C | 2.6% | 14.1hPa | 2.6V | 08:30:00 | 01:50:39 | 00:00:00 | |
| DL1XH-west | 2026-09-05 12:19:42 | 48.43288 | 10.51213 | 131° | 27km/h | 29834m | 7.1m/s | -42.9°C | 0% | 14hPa | 2.6V | 18:12:15 | 01:50:41 | 00:00:00 | |
| DF8AY | 2026-09-05 12:19:39 | 48.43304 | 10.51177 | 118° | 46km/h | 29815m | 6m/s | -43.1°C | 0% | 14.1hPa | 2.7V | 18:12:15 | 01:50:38 | 00:00:00 | |
| HSKMA3-T | 2026-09-05 12:19:37 | 48.43314 | 10.51148 | 117° | 38km/h | 29802m | 6m/s | -43°C | 0% | 14.1hPa | 2.7V | 18:12:15 | 01:50:36 | 00:00:00 | |
| OE5MMP-10 | 2026-09-05 12:19:37 | 48.43314 | 10.51148 | 118° | 29km/h | 29802m | 5.9m/s | -43.0°C | 2.6% | 14.0hPa | 2.6V | 00:00:00 | 01:50:36 | 00:00:00 | |
| DM7RM-13 | 2026-09-05 12:19:36 | 48.43314 | 10.51148 | 118° | 38km/h | 29802m | 6.0m/s | -43.0°C | 0.7% | 14.1hPa | 2.6V | 00:00:00 | 00:00:00 | 00:00:00 | |
| DL1NUX | 2026-09-05 12:19:35 | 48.43350 | 10.51090 | 123° | 22km/h | 29761m | 6.7m/s | -42.9°C | 2.6% | 14.2hPa | 2.6V | 08:30:00 | 01:50:29 | 00:00:00 | |
| DL1XH1-15 | 2026-09-05 12:19:34 | 48.43353 | 10.51082 | 102° | 24km/h | 29755m | 5.8m/s | -42.8°C | 2.6% | 14.2hPa | 2.6V | 08:30:00 | 01:50:28 | 00:00:00 | |
| DL1XH-west | 2026-09-05 12:19:32 | 48.43346 | 10.51097 | 137° | 26km/h | 29767m | 5.4m/s | -42.9°C | 0% | 14.2hPa | 2.7V | 18:12:15 | 01:50:30 | 00:00:00 | |
| HSKMA3-T | 2026-09-05 12:19:27 | 48.43353 | 10.51061 | 92° | 33km/h | 29744m | 5.5m/s | -43°C | 0% | 14.2hPa | 2.7V | 18:12:15 | 01:50:26 | 00:00:00 | |
| OE5MMP-10 | 2026-09-05 12:19:27 | 48.43353 | 10.51061 | 93° | 29km/h | 29745m | 5.5m/s | -42.9°C | 2.6% | 14.2hPa | 2.7V | 00:00:00 | 01:50:26 | 08:30:00 | |
| SONCRA | 2026-09-05 12:19:26 | 48.43354 | 10.51047 | 97° | 37km/h | 29738m | 6.5m/s | -43.1°C | 0.7% | 14.2hPa | 2.6V | 00:00:00 | 00:00:00 | 00:00:00 | |
| DL1NUX | 2026-09-05 12:19:25 | 48.43378 | 10.50984 | 152° | 18km/h | 29702m | 6m/s | -42.9°C | 2.6% | 14.3hPa | 2.6V | 08:30:00 | 01:50:19 | 00:00:00 | |
| BIOWL1-15 | 2026-09-05 12:19:23 | 48.43364 | 10.51006 | 122° | 37km/h | 29721m | 5.2m/s | -42.9°C | 0% | 0hPa | 2.7V | 18:12:15 | 01:50:22 | 00:00:00 | |
| DK7TD | 2026-09-05 12:19:22 | 48.43369 | 10.50996 | 129° | 31km/h | 29715m | 6.9m/s | -42.8°C | 0% | 14.3hPa | 2.7V | 18:12:15 | 01:50:21 | 00:00:00 | |
| DL1XH-west | 2026-09-05 12:19:21 | 48.43374 | 10.50988 | 140° | 24km/h | 29708m | 7m/s | -42.9°C | 0% | 14.3hPa | 2.6V | 18:12:15 | 01:50:20 | 00:00:00 | |
| AZAK | 2026-09-05 12:19:21 | 48.43374 | 10.50988 | 141° | 24km/h | 29708m | 7.0m/s | -42.9°C | 0.7% | 14.3hPa | 2.7V | 00:00:00 | 00:00:00 | 00:00:00 | |
| DL1XH1-15 | 2026-09-05 12:19:20 | 48.43383 | 10.50981 | 159° | 18km/h | 29695m | 6m/s | -42.9°C | 2.6% | 14.3hPa | 2.7V | 08:30:00 | 01:50:18 | 00:00:00 | |
| HSKMA3-T | 2026-09-05 12:19:17 | 48.43391 | 10.50974 | 146° | 22km/h | 29683m | 6m/s | -42.9°C | 0% | 14.3hPa | 2.6V | 18:12:15 | 01:50:16 | 00:00:00 | |
| DF8AY | 2026-09-05 12:19:16 | 48.43396 | 10.50968 | 135° | 26km/h | 29677m | 5.1m/s | -42.9°C | 0% | 14.3hPa | 2.6V | 18:12:15 | 01:50:15 | 00:00:00 | |
| DL1XH-west | 2026-09-05 12:19:11 | 48.43413 | 10.50923 | 115° | 27km/h | 29648m | 5.4m/s | -42.7°C | 0% | 14.4hPa | 2.6V | 18:12:15 | 01:50:10 | 00:00:00 | |
| BIOWL1-15 | 2026-09-05 12:19:10 | 48.43421 | 10.50905 | 130° | 29km/h | 29635m | 6.2m/s | -42.7°C | 0% | 0hPa | 2.6V | 18:12:15 | 01:50:08 | 00:00:00 | |
| DL1XH1-15 | 2026-09-05 12:19:09 | 48.43420 | 10.50905 | 130° | 29km/h | 29635m | 6.2m/s | -42.7°C | 2.6% | 0hPa | 2.6V | 08:30:00 | 01:50:08 | 00:00:00 | |
| HSKMA3-T | 2026-09-05 12:19:06 | 48.43435 | 10.50884 | 138° | 22km/h | 29618m | 7.3m/s | -42.7°C | 0% | 14.4hPa | 2.7V | 18:12:15 | 01:50:05 | 00:00:00 | |
| DL6DJ-15 | 2026-09-05 12:19:05 | 48.43438 | 10.50879 | 135° | 15km/h | 29612m | 6.1m/s | -42.8°C | 0.7% | 14.5hPa | 2.6V | 00:00:00 | 00:00:00 | 00:00:00 | |
| DL1XH1-15 | 2026-09-05 12:19:04 | 48.43457 | 10.50845 | 120° | 27km/h | 29577m | 5.1m/s | -42.6°C | 0% | 0hPa | 2.6V | 08:30:00 | 01:49:58 | 00:00:00 | |
| DL1XH-west | 2026-09-05 12:19:01 | 48.43449 | 10.50861 | 131° | 24km/h | 29588m | 6.2m/s | -42.7°C | 0% | 14.5hPa | 2.7V | 18:12:15 | 01:50:00 | 00:00:00 | |
| DK7TD | 2026-09-05 12:18:58 | 48.43460 | 10.50836 | 114° | 27km/h | 29571m | 7.1m/s | -42.5°C | 0% | 14.5hPa | 2.7V | 18:12:15 | 01:49:57 | 00:00:00 | |
| HSKMA3-T | 2026-09-05 12:18:55 | 48.43467 | 10.50804 | 106° | 31km/h | 29552m | 6m/s | -42.4°C | 0% | 14.6hPa | 2.6V | 18:12:15 | 01:49:54 | 00:00:00 | |
| DL1NUX | 2026-09-05 12:18:55 | 48.43481 | 10.50756 | 110° | 20km/h | 29523m | 6.7m/s | -42.9°C | 2.5% | 14.7hPa | 2.6V | 08:30:00 | 01:49:49 | 00:00:00 | |
| DF8AY | 2026-09-05 12:18:54 | 48.43469 | 10.50793 | 112° | 31km/h | 29546m | 6.7m/s | -42.5°C | 0% | 14.6hPa | 2.7V | 18:12:15 | 01:49:53 | 00:00:00 | |
| DM0DOS-11 | 2026-09-05 12:18:54 | 48.43476 | 10.50772 | 116° | 27km/h | 29535m | 4.9m/s | -42.7°C | 2.5% | 14.6hPa | 2.6V | 08:30:00 | 01:49:51 | 00:00:00 | |
| OE5DXL-15 | 2026-09-05 12:18:54 | 48.43469 | 10.50793 | 112° | 22km/h | 29546m | 6.7m/s | -42.5°C | 2.5% | 14.5hPa | 2.7V | 00:00:00 | 00:00:00 | 00:00:00 | |
| DF9NV-10 | 2026-09-05 12:18:53 | 48.43472 | 10.50782 | 117° | 31km/h | 29540m | 5.2m/s | 0°C | 0% | 0hPa | 2.7V | 00:00:00 | 00:00:00 | 00:00:00 | |
| DL1XH1-15 | 2026-09-05 12:18:52 | 48.43482 | 10.50749 | 104° | 16km/h | 29517m | 5.5m/s | -42.9°C | 0% | 0hPa | 2.7V | 08:30:00 | 01:49:48 | 00:00:00 | |
| DL1XH-west | 2026-09-05 12:18:50 | 48.43481 | 10.50756 | 111° | 20km/h | 29523m | 6.7m/s | -42.9°C | 0% | 14.7hPa | 2.6V | 18:12:15 | 01:49:49 | 00:00:00 | |
| DK7TD | 2026-09-05 12:18:48 | 48.43483 | 10.50743 | 105° | 16km/h | 29512m | 4.5m/s | -42.7°C | 0% | 14.7hPa | 2.7V | 18:12:15 | 01:49:47 | 00:00:00 | |
| PETON7-10 | 2026-09-05 12:18:48 | 48.43483 | 10.50743 | 105° | 20km/h | 29512m | 4.5m/s | -42.7°C | 2.5% | 14.6hPa | 2.6V | 00:00:00 | 00:00:00 | 00:00:00 | |
| OE5MMP-10 | 2026-09-05 12:18:47 | 48.43484 | 10.50737 | 113° | 18km/h | 29507m | 5.9m/s | -42.7°C | 2.5% | 14.6hPa | 2.6V | 00:00:00 | 01:49:46 | 00:00:00 | |
| DL1NUX | 2026-09-05 12:18:45 | 48.43503 | 10.50696 | 101° | 15km/h | 29466m | 5.3m/s | -42.7°C | 2.6% | 14.8hPa | 2.6V | 08:30:00 | 01:49:39 | 00:00:00 | |
| DM0DOS-11 | 2026-09-05 12:18:44 | 48.43501 | 10.50706 | 123° | 16km/h | 29477m | 6.8m/s | -42.8°C | 2.6% | 14.8hPa | 2.7V | 08:30:00 | 01:49:41 | 00:00:00 | |
| HSKMA3-T | 2026-09-05 12:18:44 | 48.43494 | 10.50718 | 131° | 24km/h | 29489m | 4.5m/s | -42.9°C | 0% | 14.7hPa | 2.6V | 18:12:15 | 01:49:43 | 00:00:00 | |
| DJ2DS-15 | 2026-09-05 12:18:42 | 48.43500 | 10.50706 | 124° | 22km/h | 29478m | 6.8m/s | -42.7°C | 2.6% | 14.7hPa | 2.6V | 00:00:00 | 01:49:41 | 00:00:00 | |
| DF8AY | 2026-09-05 12:18:42 | 48.43500 | 10.50706 | 124° | 16km/h | 29477m | 6.8m/s | -42.8°C | 0% | 14.8hPa | 2.7V | 18:12:15 | 01:49:41 | 00:00:00 | |
| DL1XH1-15 | 2026-09-05 12:18:41 | 48.43504 | 10.50690 | 96° | 16km/h | 29460m | 5.8m/s | -42.8°C | 0% | 0hPa | 2.6V | 00:00:00 | 01:49:38 | 00:00:00 | |
| BIOWL1-15 | 2026-09-05 12:18:39 | 48.43504 | 10.50690 | 96° | 16km/h | 29460m | 5.8m/s | 0°C | 0% | 0hPa | 2.6V | 18:12:15 | 01:49:38 | 00:00:00 | |
| DK7TD | 2026-09-05 12:18:37 | 48.43505 | 10.50675 | 99° | 24km/h | 29448m | 6m/s | -42.9°C | 0% | 14.8hPa | 2.7V | 18:12:15 | 01:49:36 | 00:00:00 | |
| OE5MMP-10 | 2026-09-05 12:18:37 | 48.43505 | 10.50675 | 100° | 27km/h | 29448m | 6.0m/s | -42.9°C | 2.6% | 14.7hPa | 2.6V | 00:00:00 | 01:49:36 | 00:00:00 | |
| OE5DRO-10 | 2026-09-05 12:18:36 | 48.43506 | 10.50666 | 96° | 20km/h | 29442m | 4.9m/s | -42.9°C | 2.6% | 14.7hPa | 2.6V | 00:00:00 | 00:00:00 | 00:00:00 | |
| DL1NUX | 2026-09-05 12:18:35 | 48.43502 | 10.50603 | 96° | 27km/h | 29407m | 6.4m/s | -42.8°C | 2.5% | 14.9hPa | 2.6V | 08:30:00 | 01:49:29 | 00:00:00 | |
| DM0DOS-11 | 2026-09-05 12:18:34 | 48.43502 | 10.50613 | 85° | 27km/h | 29414m | 6.3m/s | -42.8°C | 2.5% | 14.8hPa | 2.6V | 08:30:00 | 01:49:30 | 00:00:00 | |
| HSKMA3-T | 2026-09-05 12:18:30 | 48.43502 | 10.50603 | 97° | 27km/h | 29407m | 6.4m/s | -42.8°C | 0% | 14.9hPa | 2.6V | 18:12:15 | 01:49:29 | 00:00:00 | |
| DL1XH-west | 2026-09-05 12:18:29 | 48.43504 | 10.50593 | 106° | 26km/h | 29401m | 5.6m/s | -42.8°C | 0% | 14.9hPa | 2.6V | 18:12:15 | 01:49:28 | 00:00:00 | |
| DK7TD | 2026-09-05 12:18:27 | 48.43508 | 10.50576 | 110° | 22km/h | 29389m | 6.9m/s | -42.7°C | 0% | 14.9hPa | 2.7V | 18:12:15 | 01:49:26 | 00:00:00 | |
| OE5MMP-10 | 2026-09-05 12:18:27 | 48.43508 | 10.50576 | 111° | 18km/h | 29390m | 6.9m/s | -42.6°C | 2.5% | 14.9hPa | 2.7V | 00:00:00 | 01:49:26 | 00:00:00 | |
| DB0ND-19 | 2026-09-05 12:18:26 | 48.43509 | 10.50569 | 108° | 16km/h | 29383m | 6.1m/s | -42.6°C | 0.7% | 14.9hPa | 2.7V | 00:00:00 | 00:00:00 | 00:00:00 | |
| DL1NUX | 2026-09-05 12:18:25 | 48.43520 | 10.50533 | 105° | 20km/h | 29349m | 5.6m/s | -43°C | 2.5% | 15hPa | 2.7V | 08:30:00 | 01:49:19 | 00:00:00 | |
| DF8AY | 2026-09-05 12:18:20 | 48.43521 | 10.50519 | 80° | 18km/h | 29336m | 5.8m/s | -43.1°C | 0% | 15hPa | 2.6V | 18:12:15 | 01:49:17 | 00:00:00 | |
| DL1XH-west | 2026-09-05 12:18:19 | 48.43521 | 10.50526 | 93° | 20km/h | 29342m | 7.1m/s | -43°C | 0% | 15hPa | 2.6V | 18:12:15 | 01:49:18 | 00:00:00 | |
| DK7TD | 2026-09-05 12:18:16 | 48.43520 | 10.50507 | 90° | 13km/h | 29326m | 5.4m/s | -43.2°C | 0% | 15hPa | 2.7V | 18:12:15 | 01:49:15 | 00:00:00 | |
| OE5DRO-10 | 2026-09-05 12:18:16 | 48.43519 | 10.50507 | 91° | 16km/h | 29326m | 5.3m/s | -43.1°C | 2.6% | 15.0hPa | 2.6V | 00:00:00 | 00:00:00 | 00:00:00 | |
| DL1NUX | 2026-09-05 12:18:15 | 48.43534 | 10.50489 | 140° | 9km/h | 29289m | 5.6m/s | -43.2°C | 2.6% | 15.1hPa | 2.6V | 08:30:00 | 01:49:09 | 00:00:00 | |
| HSKMA3-T | 2026-09-05 12:18:08 | 48.43537 | 10.50481 | 115° | 15km/h | 29278m | 6.1m/s | -43.3°C | 0% | 15.2hPa | 2.6V | 18:12:15 | 01:49:07 | 00:00:00 | |
| DK7TD | 2026-09-05 12:18:05 | 48.43543 | 10.50458 | 107° | 26km/h | 29260m | 4.8m/s | -43.2°C | 0% | 15.2hPa | 2.7V | 18:12:15 | 01:49:04 | 00:00:00 | |
| DF8AY | 2026-09-05 12:17:58 | 48.43546 | 10.50408 | 122° | 18km/h | 29219m | 6.1m/s | -43.4°C | 0% | 15.2hPa | 2.6V | 18:12:15 | 01:48:57 | 00:00:00 | |
| HSKMA3-T | 2026-09-05 12:17:57 | 48.43549 | 10.50402 | 127° | 20km/h | 29214m | 5.3m/s | -43.3°C | 0% | 15.3hPa | 2.6V | 18:12:15 | 01:48:56 | 00:00:00 | |
| DK7TD | 2026-09-05 12:17:55 | 48.43555 | 10.50389 | 119° | 18km/h | 29202m | 6.8m/s | -43.3°C | 0% | 15.3hPa | 2.7V | 18:12:15 | 01:48:54 | 00:00:00 | |
| SO1NDE-10 | 2026-09-05 12:17:55 | 48.43555 | 10.50389 | 120° | 18km/h | 29202m | 6.8m/s | -43.2°C | 2.6% | 15.3hPa | 2.7V | 00:00:00 | 01:48:54 | 00:00:00 | |
| DM7RM-13 | 2026-09-05 12:17:54 | 48.43556 | 10.50383 | 107° | 18km/h | 29196m | 6.0m/s | -43.3°C | 0.7% | 15.3hPa | 2.7V | 00:00:00 | 00:00:00 | 00:00:00 | |
| DM0DOS-11 | 2026-09-05 12:17:53 | 48.43558 | 10.50345 | 86° | 31km/h | 29171m | 4.9m/s | -43.1°C | 2.5% | 15.4hPa | 2.7V | 08:30:00 | 01:48:49 | 00:00:00 | |
| DF8AY | 2026-09-05 12:17:52 | 48.43554 | 10.50315 | 68° | 18km/h | 29154m | 6.3m/s | -43.4°C | 0% | 15.4hPa | 2.6V | 18:12:15 | 01:48:46 | 00:00:00 | |
| DL1XH-west | 2026-09-05 12:17:48 | 48.43555 | 10.50323 | 75° | 26km/h | 29161m | 6.7m/s | -43.4°C | 0% | 15.4hPa | 2.6V | 18:12:15 | 01:48:47 | 00:00:00 | |
| HSKMA3-T | 2026-09-05 12:17:46 | 48.43552 | 10.50310 | 66° | 13km/h | 29148m | 5.7m/s | -43.4°C | 0% | 15.4hPa | 2.7V | 18:12:15 | 01:48:45 | 00:00:00 | |
| DK7TD | 2026-09-05 12:17:44 | 48.43552 | 10.50303 | 133° | 9km/h | 29136m | 6.9m/s | -43.4°C | 0% | 15.4hPa | 2.7V | 18:12:15 | 01:48:43 | 00:00:00 | |
| DM0DOS-11 | 2026-09-05 12:17:43 | 48.43564 | 10.50288 | 123° | 15km/h | 29114m | 6.6m/s | -43.4°C | 2.5% | 15.5hPa | 2.7V | 08:30:00 | 01:48:39 | 00:00:00 | |
| DF8AY | 2026-09-05 12:17:37 | 48.43552 | 10.50214 | 39° | 16km/h | 29054m | 5.9m/s | -44.1°C | 0% | 15.6hPa | 2.7V | 18:12:15 | 01:48:29 | 00:00:00 | |
| HSKMA3-T | 2026-09-05 12:17:36 | 48.43563 | 10.50261 | 77° | 24km/h | 29090m | 6.7m/s | -43.8°C | 0% | 15.5hPa | 2.6V | 18:12:15 | 01:48:35 | 00:00:00 | |
| DK7TD | 2026-09-05 12:17:32 | 48.43558 | 10.50225 | 67° | 20km/h | 29067m | 6.7m/s | -44°C | 0% | 15.6hPa | 2.6V | 18:12:15 | 01:48:31 | 00:00:00 | |
| HSKMA3-T | 2026-09-05 12:17:25 | 48.43544 | 10.50197 | 65° | 13km/h | 29024m | 6.7m/s | -44.2°C | 0% | 15.7hPa | 2.7V | 18:12:15 | 01:48:24 | 00:00:00 | |
| BIOWL1-15 | 2026-09-05 12:17:22 | 48.43538 | 10.50180 | 70° | 20km/h | 29007m | 5.3m/s | 0°C | 0% | 0hPa | 2.6V | 18:12:15 | 01:48:21 | 00:00:00 | |
| DK7TD | 2026-09-05 12:17:21 | 48.43537 | 10.50173 | 80° | 20km/h | 29001m | 6.8m/s | -44.6°C | 0% | 15.7hPa | 2.6V | 18:12:15 | 01:48:20 | 00:00:00 | |
| DF8AY | 2026-09-05 12:17:20 | 48.43537 | 10.50165 | 90° | 20km/h | 28995m | 5.9m/s | -44.5°C | 0% | 15.7hPa | 2.6V | 18:12:15 | 01:48:19 | 00:00:00 | |
| DO3MHA-12 | 2026-09-05 12:17:19 | 48.43536 | 10.50158 | 93° | 16km/h | 28990m | 4.4m/s | -44.3°C | 2.7% | 15.7hPa | 2.7V | 00:00:00 | 01:48:18 | 00:00:00 | |
| AZAK | 2026-09-05 12:17:18 | 48.43536 | 10.50151 | 83° | 15km/h | 28985m | 4.8m/s | -44.5°C | 0.7% | 15.8hPa | 2.6V | 00:00:00 | 00:00:00 | 00:00:00 | |
| DB0UT-7 | 2026-09-05 12:17:17 | 48.43535 | 10.50146 | 61° | 13km/h | 28979m | 6.6m/s | -44.6°C | 2.7% | 15.7hPa | 2.6V | 00:00:00 | 01:48:16 | 00:00:00 | |
| OE5WHR-10 | 2026-09-05 12:17:15 | 48.43529 | 10.50140 | 20° | 13km/h | 28967m | 5.8m/s | -44.7°C | 2.8% | 15.7hPa | 2.6V | 00:00:00 | 01:48:14 | 00:00:00 | |
| DM0DOS-11 | 2026-09-05 12:17:14 | 48.43510 | 10.50121 | 70° | 11km/h | 28938m | 6.1m/s | -44.9°C | 2.8% | 15.8hPa | 2.6V | 08:30:00 | 01:48:09 | 00:00:00 | |
| HSKMA3-T | 2026-09-05 12:17:14 | 48.43524 | 10.50137 | 20° | 22km/h | 28961m | 5m/s | -44.8°C | 0% | 15.8hPa | 2.6V | 18:12:15 | 01:48:13 | 00:00:00 | |
| BIOWL1-15 | 2026-09-05 12:17:11 | 48.43512 | 10.50125 | 56° | 15km/h | 28944m | 5.7m/s | 0°C | 0% | 0hPa | 2.6V | 18:12:15 | 01:48:10 | 00:00:00 | |
| DF8AY | 2026-09-05 12:17:08 | 48.43509 | 10.50116 | 65° | 2km/h | 28926m | 6.1m/s | -44.7°C | 0% | 15.9hPa | 2.7V | 18:12:15 | 01:48:07 | 00:00:00 | |
| SONDE2-11 | 2026-09-05 12:17:07 | 48.43508 | 10.50115 | 14° | 5km/h | 28915m | 5.4m/s | -44.8°C | 0.7% | 15.9hPa | 2.6V | 00:00:00 | 00:00:00 | 00:00:00 | |
| DL1ZP-14 | 2026-09-05 12:17:05 | 48.43505 | 10.50114 | 24° | 11km/h | 28909m | 7.1m/s | -44.8°C | 0.7% | 15.9hPa | 2.6V | 00:00:00 | 00:00:00 | 00:00:00 | |
| DM0DOS-11 | 2026-09-05 12:17:04 | 48.43483 | 10.50105 | 359° | 18km/h | 28877m | 5.1m/s | -44.8°C | 2.7% | 16hPa | 2.6V | 08:30:00 | 01:47:59 | 00:00:00 | |
| HSKMA3-T | 2026-09-05 12:17:04 | 48.43502 | 10.50111 | 27° | 16km/h | 28902m | 6.2m/s | -44.9°C | 0% | 15.9hPa | 2.7V | 18:12:15 | 01:48:03 | 00:00:00 | |
| DK7TD | 2026-09-05 12:17:00 | 48.43483 | 10.50105 | 359° | 20km/h | 28877m | 5.1m/s | -44.8°C | 0% | 16hPa | 2.6V | 18:12:15 | 01:47:59 | 00:00:00 | |
| DF8AY | 2026-09-05 12:16:55 | 48.43472 | 10.50101 | 182° | 2km/h | 28846m | 7.2m/s | -45°C | 0% | 16.1hPa | 2.6V | 18:12:15 | 01:47:54 | 00:00:00 | |
| SO1NDE-10 | 2026-09-05 12:16:55 | 48.43472 | 10.50101 | 183° | 9km/h | 28847m | 7.2m/s | -45.0°C | 2.8% | 16.0hPa | 2.6V | 00:00:00 | 01:47:54 | 00:00:00 | |
| DM0DOS-11 | 2026-09-05 12:16:54 | 48.43470 | 10.50101 | 45° | 11km/h | 28816m | 6.3m/s | -45.4°C | 2.9% | 16.1hPa | 2.6V | 08:30:00 | 01:47:49 | 00:00:00 | |
| HSKMA3-T | 2026-09-05 12:16:53 | 48.43472 | 10.50103 | 272° | 4km/h | 28834m | 4.9m/s | -45.1°C | 0% | 16.1hPa | 2.6V | 18:12:15 | 01:47:52 | 00:00:00 | |
| BIOWL1-15 | 2026-09-05 12:16:52 | 48.43471 | 10.50103 | 38° | 5km/h | 28823m | 7.2m/s | 0°C | 0% | 0hPa | 2.7V | 18:12:15 | 01:47:50 | 00:00:00 | |
| DK7TD | 2026-09-05 12:16:50 | 48.43470 | 10.50101 | 46° | 11km/h | 28816m | 6.3m/s | -45.4°C | 0% | 16.1hPa | 2.6V | 18:12:15 | 01:47:49 | 00:00:00 | |
| DO3MHA-12 | 2026-09-05 12:16:49 | 48.43467 | 10.50097 | 41° | 9km/h | 28811m | 5.3m/s | -45.3°C | 2.8% | 16.1hPa | 2.6V | 00:00:00 | 01:47:48 | 00:00:00 | |
| OE5MMP-10 | 2026-09-05 12:16:47 | 48.43461 | 10.50092 | 17° | 9km/h | 28799m | 6.7m/s | -45.3°C | 2.8% | 16.1hPa | 2.6V | 00:00:00 | 01:47:46 | 00:00:00 | |
| DD1CC3-15 | 2026-09-05 12:16:45 | 48.43456 | 10.50092 | 345° | 5km/h | 28788m | 4.4m/s | -45.4°C | 0.8% | 16.2hPa | 2.6V | 00:00:00 | 00:00:00 | 00:00:00 | |
| DM0DOS-11 | 2026-09-05 12:16:44 | 48.43457 | 10.50082 | 102° | 9km/h | 28758m | 6.6m/s | -45.3°C | 2.8% | 16.2hPa | 2.6V | 08:30:00 | 01:47:39 | 00:00:00 | |
| HSKMA3-T | 2026-09-05 12:16:44 | 48.43455 | 10.50091 | 114° | 4km/h | 28777m | 6.7m/s | -45.2°C | 0% | 16.2hPa | 2.7V | 18:12:15 | 01:47:42 | 00:00:00 | |
| DK7TD | 2026-09-05 12:16:39 | 48.43458 | 10.50079 | 84° | 9km/h | 28751m | 6.5m/s | -45.3°C | 0% | 16.3hPa | 2.6V | 18:12:15 | 01:47:38 | 00:00:00 | |
| BIOWL1-15 | 2026-09-05 12:16:39 | 48.43456 | 10.50072 | 62° | 13km/h | 28740m | 5.9m/s | 0°C | 0% | 0hPa | 2.7V | 18:12:15 | 01:47:36 | 00:00:00 | |
| DO3MHA-12 | 2026-09-05 12:16:39 | 48.43458 | 10.50079 | 84° | 11km/h | 28752m | 6.4m/s | -45.3°C | 2.8% | 16.2hPa | 2.6V | 00:00:00 | 01:47:38 | 00:00:00 | |
| AZAK | 2026-09-05 12:16:37 | 48.43456 | 10.50072 | 63° | 13km/h | 28740m | 5.9m/s | -45.5°C | 0.7% | 16.3hPa | 2.6V | 00:00:00 | 00:00:00 | 00:00:00 | |
| SONDE2-11 | 2026-09-05 12:16:36 | 48.43452 | 10.50062 | 65° | 15km/h | 28727m | 6.1m/s | -45.6°C | 0.8% | 16.3hPa | 2.6V | 00:00:00 | 00:00:00 | 00:00:00 | |
| DL1ZP-14 | 2026-09-05 12:16:35 | 48.43451 | 10.50056 | 63° | 15km/h | 28721m | 5.4m/s | -45.4°C | 0.7% | 16.3hPa | 2.6V | 00:00:00 | 00:00:00 | 00:00:00 | |
| DM0DOS-11 | 2026-09-05 12:16:34 | 48.43447 | 10.50045 | 116° | 7km/h | 28697m | 5.7m/s | -45.5°C | 2.9% | 16.4hPa | 2.6V | 08:30:00 | 01:47:29 | 00:00:00 | |
| HSKMA3-T | 2026-09-05 12:16:32 | 48.43448 | 10.50049 | 55° | 7km/h | 28708m | 6.2m/s | -45.4°C | 0.1% | 16.4hPa | 2.7V | 18:12:15 | 01:47:31 | 00:00:00 | |
| DL1XH-west | 2026-09-05 12:16:28 | 48.43452 | 10.50033 | 117° | 18km/h | 28679m | 4.9m/s | -45.5°C | 0% | 16.4hPa | 2.7V | 18:12:15 | 01:47:26 | 00:00:00 | |
| DK7TD | 2026-09-05 12:16:28 | 48.43450 | 10.50038 | 119° | 16km/h | 28684m | 5.9m/s | -45.5°C | 0% | 16.4hPa | 2.7V | 18:12:15 | 01:47:27 | 00:00:00 | |
| OE5MMP-10 | 2026-09-05 12:16:28 | 48.43452 | 10.50032 | 117° | 13km/h | 28679m | 4.8m/s | -45.5°C | 2.9% | 16.4hPa | 2.7V | 00:00:00 | 01:47:26 | 08:30:00 | |
| OE5DRO-10 | 2026-09-05 12:16:27 | 48.43454 | 10.50027 | 111° | 20km/h | 28674m | 4.7m/s | -45.5°C | 2.9% | 16.4hPa | 2.6V | 00:00:00 | 00:00:00 | 00:00:00 | |
| SO1NDE-10 | 2026-09-05 12:16:25 | 48.43455 | 10.50022 | 106° | 18km/h | 28669m | 6.4m/s | -45.5°C | 2.9% | 16.4hPa | 2.6V | 00:00:00 | 01:47:24 | 08:30:00 | |
| DM0DOS-11 | 2026-09-05 12:16:24 | 48.43452 | 10.50009 | 85° | 9km/h | 28638m | 6.5m/s | -45.7°C | 2.9% | 16.5hPa | 2.7V | 08:30:00 | 01:47:19 | 00:00:00 | |
| DF8AY | 2026-09-05 12:16:23 | 48.43455 | 10.50016 | 57° | 5km/h | 28655m | 6.2m/s | -45.6°C | 0% | 16.5hPa | 2.6V | 18:12:15 | 01:47:22 | 00:00:00 | |
| HSKMA3-T | 2026-09-05 12:16:22 | 48.43454 | 10.50014 | 43° | 5km/h | 28649m | 5.1m/s | -45.7°C | 0% | 16.5hPa | 2.7V | 18:12:15 | 01:47:21 | 00:00:00 | |
| DL1XH-west | 2026-09-05 12:16:17 | 48.43455 | 10.49991 | 103° | 18km/h | 28620m | 5m/s | -45.5°C | 0% | 16.6hPa | 2.6V | 18:12:15 | 01:47:16 | 00:00:00 | |
| HSKMA3-T | 2026-09-05 12:16:12 | 48.43449 | 10.49963 | 54° | 22km/h | 28589m | 7.2m/s | -45.7°C | 0% | 16.6hPa | 2.6V | 18:12:15 | 01:47:11 | 00:00:00 | |
| DK7TD | 2026-09-05 12:16:07 | 48.43433 | 10.49926 | 50° | 20km/h | 28557m | 5.9m/s | -45.6°C | 0% | 16.7hPa | 2.6V | 18:12:15 | 01:47:06 | 00:00:00 | |
| NBG1-10 | 2026-09-05 12:16:07 | 48.43432 | 10.49926 | 50° | 24km/h | 28558m | 5.9m/s | -45.6°C | 2.8% | 16.7hPa | 2.6V | 00:00:00 | 01:47:06 | 00:00:00 | |
| PG1ADW-2 | 2026-09-05 12:16:06 | 48.43430 | 10.49920 | 55° | 24km/h | 28552m | 5.2m/s | -45.5°C | 2.8% | 16.7hPa | 2.7V | 00:00:00 | 00:00:00 | 00:00:00 | |
| SONDE2-11 | 2026-09-05 12:16:05 | 48.43424 | 10.49906 | 65° | 22km/h | 28539m | 6.7m/s | -45.5°C | 0.7% | 16.8hPa | 2.7V | 00:00:00 | 00:00:00 | 00:00:00 | |
| DL1ZP-14 | 2026-09-05 12:16:03 | 48.43422 | 10.49898 | 65° | 24km/h | 28533m | 5.9m/s | -45.5°C | 0.7% | 16.8hPa | 2.7V | 00:00:00 | 00:00:00 | 00:00:00 | |
| DM0DOS-11 | 2026-09-05 12:16:02 | 48.43412 | 10.49876 | 45° | 22km/h | 28513m | 6.2m/s | -45.5°C | 2.9% | 16.8hPa | 2.6V | 08:30:00 | 01:46:59 | 00:00:00 | |
| HSKMA3-T | 2026-09-05 12:16:01 | 48.43416 | 10.49882 | 54° | 24km/h | 28520m | 7.3m/s | -45.5°C | 0% | 16.8hPa | 2.6V | 18:12:15 | 01:47:00 | 00:00:00 | |
| DF8AY | 2026-09-05 12:15:57 | 48.43384 | 10.49831 | 44° | 24km/h | 28477m | 7.2m/s | -45.6°C | 0% | 16.9hPa | 2.7V | 18:12:15 | 01:46:53 | 00:00:00 | |
| DK7TD | 2026-09-05 12:15:56 | 48.43394 | 10.49847 | 50° | 29km/h | 28488m | 5.6m/s | -45.5°C | 0% | 16.9hPa | 2.6V | 18:12:15 | 01:46:55 | 00:00:00 | |
| HSKMA3-T | 2026-09-05 12:15:51 | 48.43373 | 10.49817 | 48° | 16km/h | 28457m | 6.7m/s | -45.7°C | 0% | 16.9hPa | 2.6V | 18:12:15 | 01:46:50 | 00:00:00 | |
| DB0ND-19 | 2026-09-05 12:15:51 | 48.43371 | 10.49812 | 56° | 18km/h | 28451m | 6.8m/s | -45.7°C | 0.7% | 17.0hPa | 2.6V | 00:00:00 | 00:00:00 | 00:00:00 | |
| DM0DOS-11 | 2026-09-05 12:15:50 | 48.43371 | 10.49812 | 56° | 18km/h | 28451m | 6.8m/s | -45.7°C | 2.8% | 17hPa | 2.6V | 08:30:00 | 01:46:49 | 00:00:00 | |
| BIOWL1-15 | 2026-09-05 12:15:47 | 48.43361 | 10.49792 | 46° | 24km/h | 28433m | 6.7m/s | 0°C | 0% | 0hPa | 2.7V | 18:12:15 | 01:46:46 | 00:00:00 | |
| DK7TD | 2026-09-05 12:15:46 | 48.43357 | 10.49786 | 35° | 24km/h | 28426m | 6.9m/s | -45.9°C | 0% | 17hPa | 2.7V | 18:12:15 | 01:46:45 | 00:00:00 | |
| HSKMA3-T | 2026-09-05 12:15:41 | 48.43325 | 10.49756 | 35° | 31km/h | 28395m | 5.2m/s | -45.8°C | 0% | 17.1hPa | 2.7V | 18:12:15 | 01:46:40 | 00:00:00 | |
| DL1XH-west | 2026-09-05 12:15:38 | 48.43308 | 10.49742 | 22° | 20km/h | 28376m | 5.1m/s | -46.1°C | 0.1% | 17.1hPa | 2.7V | 18:12:15 | 01:46:37 | 00:00:00 | |
| DK7TD | 2026-09-05 12:15:36 | 48.43301 | 10.49735 | 39° | 18km/h | 28365m | 7m/s | -46.2°C | 0.1% | 17.1hPa | 2.6V | 18:12:15 | 01:46:35 | 00:00:00 | |
| HSKMA3-T | 2026-09-05 12:15:30 | 48.43270 | 10.49701 | 26° | 31km/h | 28328m | 5.3m/s | -46.2°C | 0.1% | 17.3hPa | 2.6V | 18:12:15 | 01:46:29 | 00:00:00 | |
| OE5WHR-10 | 2026-09-05 12:15:30 | 48.43270 | 10.49701 | 26° | 22km/h | 28329m | 5.2m/s | -46.2°C | 3.0% | 17.2hPa | 2.6V | 00:00:00 | 00:00:00 | 00:00:00 | |
| DL1XH1-15 | 2026-09-05 12:15:29 | 48.43257 | 10.49689 | 36° | 29km/h | 28316m | 6.5m/s | -46.2°C | 0% | 0hPa | 2.6V | 00:00:00 | 01:46:27 | 00:00:00 | |
| DO3MHA-12 | 2026-09-05 12:15:29 | 48.43263 | 10.49695 | 31° | 20km/h | 28323m | 6.2m/s | -46.2°C | 3.0% | 17.2hPa | 2.7V | 00:00:00 | 01:46:28 | 00:00:00 | |
| DM0DOS-11 | 2026-09-05 12:15:28 | 48.43251 | 10.49682 | 41° | 27km/h | 28310m | 5.5m/s | -46.2°C | 3% | 17.3hPa | 2.7V | 08:30:00 | 01:46:26 | 00:00:00 | |
| DL1XH-west | 2026-09-05 12:15:27 | 48.43251 | 10.49682 | 41° | 27km/h | 28310m | 5.5m/s | -46.2°C | 0.1% | 17.3hPa | 2.7V | 18:12:15 | 01:46:26 | 00:00:00 | |
| DK7TD | 2026-09-05 12:15:25 | 48.43242 | 10.49671 | 35° | 18km/h | 28298m | 7.4m/s | -46.2°C | 0.1% | 17.3hPa | 2.6V | 18:12:15 | 01:46:24 | 00:00:00 | |
| BIOWL1-15 | 2026-09-05 12:15:24 | 48.43239 | 10.49668 | 24° | 15km/h | 28291m | 6.2m/s | 0°C | 0% | 0hPa | 2.6V | 18:12:15 | 01:46:23 | 00:00:00 | |
| DL1XH1-15 | 2026-09-05 12:15:23 | 48.43218 | 10.49645 | 37° | 24km/h | 28255m | 7m/s | 0°C | 0% | 0hPa | 2.7V | 00:00:00 | 01:46:17 | 00:00:00 | |
| HSKMA3-T | 2026-09-05 12:15:19 | 48.43223 | 10.49651 | 43° | 22km/h | 28261m | 5.4m/s | -46°C | 0% | 17.4hPa | 2.6V | 18:12:15 | 01:46:18 | 00:00:00 | |
| DL1XH-west | 2026-09-05 12:15:17 | 48.43213 | 10.49640 | 32° | 26km/h | 28248m | 6.4m/s | -46.2°C | 0.1% | 17.5hPa | 2.7V | 18:12:15 | 01:46:16 | 00:00:00 | |
| DK7TD | 2026-09-05 12:15:16 | 48.43202 | 10.49629 | 37° | 26km/h | 28237m | 6m/s | -46°C | 0% | 17.4hPa | 2.6V | 18:12:15 | 01:46:14 | 00:00:00 | |
| DL1NUX | 2026-09-05 12:15:16 | 48.43185 | 10.49600 | 48° | 15km/h | 28206m | 6m/s | -46°C | 2.9% | 17.6hPa | 2.6V | 08:30:00 | 01:46:09 | 00:00:00 | |
| DM0DOS-11 | 2026-09-05 12:15:14 | 48.43190 | 10.49610 | 54° | 20km/h | 28219m | 5.6m/s | -45.9°C | 2.9% | 17.5hPa | 2.7V | 08:30:00 | 01:46:11 | 00:00:00 | |
| BIOWL1-15 | 2026-09-05 12:15:14 | 48.43197 | 10.49623 | 46° | 24km/h | 28231m | 6.8m/s | 0°C | 0% | 0hPa | 2.6V | 18:12:15 | 01:46:13 | 00:00:00 | |
| DJ8HS-15 | 2026-09-05 12:15:13 | 48.43193 | 10.49616 | 54° | 18km/h | 28225m | 5.9m/s | -45.9°C | 2.9% | 17.5hPa | 2.6V | 00:00:00 | 01:46:12 | 00:00:00 | |
| DO3MHA-11 | 2026-09-05 12:15:11 | 48.43187 | 10.49604 | 51° | 18km/h | 28213m | 7.2m/s | -45.9°C | 2.9% | 17.5hPa | 2.7V | 00:00:00 | 01:46:10 | 08:30:00 | |
| DF3TZ-5 | 2026-09-05 12:15:10 | 48.43183 | 10.49596 | 51° | 13km/h | 28200m | 5.5m/s | -45.9°C | 0.8% | 17.6hPa | 2.7V | 00:00:00 | 00:00:00 | 00:00:00 | |
| DL1XH1-15 | 2026-09-05 12:15:09 | 48.43179 | 10.49586 | 64° | 16km/h | 28187m | 5.9m/s | 0°C | 0% | 0hPa | 2.7V | 00:00:00 | 01:46:06 | 00:00:00 | |
| HSKMA3-T | 2026-09-05 12:15:09 | 48.43183 | 10.49596 | 51° | 13km/h | 28200m | 5.5m/s | -45.9°C | 0% | 17.6hPa | 2.6V | 18:12:15 | 01:46:08 | 00:00:00 | |
| DL1XH-west | 2026-09-05 12:15:06 | 48.43177 | 10.49581 | 58° | 18km/h | 28182m | 5.2m/s | -46°C | 0.1% | 17.6hPa | 2.6V | 18:12:15 | 01:46:05 | 00:00:00 | |
| PG1ADW-2 | 2026-09-05 12:15:06 | 48.43177 | 10.49581 | 58° | 22km/h | 28182m | 5.1m/s | -45.9°C | 2.9% | 17.6hPa | 2.6V | 00:00:00 | 00:00:00 | 00:00:00 | |
| DL1NUX | 2026-09-05 12:15:05 | 48.43150 | 10.49554 | 40° | 22km/h | 28146m | 6.1m/s | -46.1°C | 3% | 17.7hPa | 2.6V | 08:30:00 | 01:45:59 | 00:00:00 | |
| DK7TD | 2026-09-05 12:15:04 | 48.43170 | 10.49571 | 31° | 20km/h | 28169m | 6.7m/s | -46°C | 0% | 17.6hPa | 2.6V | 18:12:15 | 01:46:03 | 00:00:00 | |
| DF8AY | 2026-09-05 12:15:04 | 48.43143 | 10.49544 | 44° | 16km/h | 28134m | 5.9m/s | -46.1°C | 0.1% | 17.7hPa | 2.6V | 18:12:15 | 01:45:57 | 00:00:00 | |
| DM0DOS-11 | 2026-09-05 12:15:02 | 48.43160 | 10.49564 | 24° | 24km/h | 28158m | 5.3m/s | -46°C | 2.9% | 17.7hPa | 2.7V | 08:30:00 | 01:46:01 | 00:00:00 | |
| HSKMA3-T | 2026-09-05 12:14:59 | 48.43146 | 10.49549 | 46° | 20km/h | 28140m | 5.5m/s | -46.1°C | 0.1% | 17.7hPa | 2.6V | 18:12:15 | 01:45:58 | 00:00:00 | |
| DO3MHA-12 | 2026-09-05 12:14:59 | 48.43146 | 10.49549 | 46° | 18km/h | 28140m | 5.5m/s | -46.1°C | 3.0% | 17.7hPa | 2.7V | 00:00:00 | 01:45:58 | 00:00:00 | |
| DL1XH1-15 | 2026-09-05 12:14:58 | 48.43140 | 10.49540 | 35° | 15km/h | 28128m | 6.9m/s | 0°C | 0% | 0hPa | 2.7V | 00:00:00 | 01:45:56 | 00:00:00 | |
| DL1XH-west | 2026-09-05 12:14:55 | 48.43134 | 10.49535 | 33° | 13km/h | 28116m | 5.1m/s | -46.1°C | 0.1% | 17.8hPa | 2.6V | 18:12:15 | 01:45:54 | 00:00:00 | |
| DK7TD | 2026-09-05 12:14:53 | 48.43129 | 10.49528 | 49° | 18km/h | 28103m | 6.1m/s | -46.2°C | 0.1% | 17.8hPa | 2.7V | 18:12:15 | 01:45:52 | 00:00:00 | |
| DM0DOS-11 | 2026-09-05 12:14:52 | 48.43126 | 10.49522 | 45° | 22km/h | 28098m | 5m/s | -46.2°C | 3% | 17.8hPa | 2.7V | 08:30:00 | 01:45:51 | 00:00:00 | |
| DL1XH1-15 | 2026-09-05 12:14:52 | 48.43097 | 10.49499 | 27° | 27km/h | 28070m | 6.8m/s | 0°C | 0% | 0hPa | 2.7V | 00:00:00 | 01:45:46 | 00:00:00 | |
| HSKMA3-T | 2026-09-05 12:14:48 | 48.43104 | 10.49503 | 23° | 27km/h | 28075m | 4.6m/s | -46°C | 0.1% | 17.9hPa | 2.7V | 18:12:15 | 01:45:47 | 00:00:00 | |
| OE5WHR-10 | 2026-09-05 12:14:48 | 48.43103 | 10.49503 | 24° | 24km/h | 28076m | 4.5m/s | -46.0°C | 2.9% | 17.8hPa | 2.7V | 00:00:00 | 00:00:00 | 00:00:00 | |
| OE5MMP-10 | 2026-09-05 12:14:47 | 48.43097 | 10.49499 | 28° | 22km/h | 28070m | 6.8m/s | -46.0°C | 2.9% | 17.9hPa | 2.7V | 00:00:00 | 01:45:46 | 00:00:00 | |
| DM0DOS-11 | 2026-09-05 12:14:46 | 48.43069 | 10.49470 | 19° | 22km/h | 28033m | 5.2m/s | -45.9°C | 2.9% | 18hPa | 2.7V | 08:30:00 | 01:45:40 | 00:00:00 | |
| PETON7-10 | 2026-09-05 12:14:46 | 48.43092 | 10.49494 | 37° | 26km/h | 28063m | 6.4m/s | -45.9°C | 2.9% | 17.9hPa | 2.6V | 00:00:00 | 01:45:45 | 00:00:00 | |
| DL1NUX | 2026-09-05 12:14:45 | 48.43064 | 10.49467 | 21° | 22km/h | 28028m | 5.6m/s | -46°C | 2.9% | 18hPa | 2.6V | 08:30:00 | 01:45:39 | 00:00:00 | |
| DL1XH-west | 2026-09-05 12:14:45 | 48.43087 | 10.49488 | 43° | 24km/h | 28057m | 5.7m/s | -45.9°C | 0% | 17.9hPa | 2.6V | 18:12:15 | 01:45:44 | 00:00:00 | |
| DK7TD | 2026-09-05 12:14:43 | 48.43079 | 10.49477 | 36° | 22km/h | 28046m | 6.5m/s | -45.9°C | 0% | 17.9hPa | 2.6V | 18:12:15 | 01:45:42 | 00:00:00 | |
| DJ2DS-15 | 2026-09-05 12:14:42 | 48.43074 | 10.49473 | 26° | 20km/h | 28039m | 6.4m/s | -45.8°C | 2.9% | 17.9hPa | 2.6V | 00:00:00 | 01:45:41 | 00:00:00 | |
| DL1XH1-15 | 2026-09-05 12:14:41 | 48.43044 | 10.49451 | 24° | 27km/h | 28004m | 6.8m/s | 0°C | 0% | 0hPa | 2.6V | 00:00:00 | 01:45:35 | 00:00:00 | |
| HSKMA3-T | 2026-09-05 12:14:37 | 48.43049 | 10.49455 | 30° | 24km/h | 28010m | 5.2m/s | -45.8°C | 0% | 18hPa | 2.7V | 18:12:15 | 01:45:36 | 00:00:00 | |
| OE5MMP-10 | 2026-09-05 12:14:37 | 48.43049 | 10.49455 | 30° | 26km/h | 28010m | 5.2m/s | -45.7°C | 2.9% | 18.0hPa | 2.6V | 00:00:00 | 01:45:36 | 00:00:00 | |
| DL1NUX | 2026-09-05 12:14:35 | 48.43006 | 10.49425 | 34° | 20km/h | 27968m | 5.2m/s | -45.9°C | 2.9% | 18.1hPa | 2.6V | 08:30:00 | 01:45:29 | 00:00:00 | |
| DL1XH-west | 2026-09-05 12:14:34 | 48.43030 | 10.49443 | 19° | 31km/h | 27991m | 5.2m/s | -45.9°C | 0% | 18.1hPa | 2.6V | 18:12:15 | 01:45:33 | 00:00:00 | |
| DK7TD | 2026-09-05 12:14:32 | 48.43016 | 10.49435 | 28° | 27km/h | 27980m | 6.7m/s | -45.8°C | 0% | 18.1hPa | 2.7V | 18:12:15 | 01:45:31 | 00:00:00 | |
| HSKMA3-T | 2026-09-05 12:14:27 | 48.42994 | 10.49417 | 12° | 16km/h | 27950m | 5.3m/s | -45.9°C | 0% | 18.2hPa | 2.7V | 18:12:15 | 01:45:26 | 00:00:00 | |
| OE5MMP-10 | 2026-09-05 12:14:27 | 48.42994 | 10.49417 | 13° | 16km/h | 27950m | 5.3m/s | -45.9°C | 2.8% | 18.1hPa | 2.7V | 00:00:00 | 01:45:26 | 00:00:00 | |
| DM0DOS-11 | 2026-09-05 12:14:26 | 48.42976 | 10.49404 | 17° | 18km/h | 27915m | 6.8m/s | -46°C | 2.9% | 18.3hPa | 2.6V | 08:30:00 | 01:45:20 | 00:00:00 | |
| DF8AY | 2026-09-05 12:14:25 | 48.42950 | 10.49390 | 18° | 18km/h | 27880m | 6.6m/s | -46.3°C | 0% | 18.4hPa | 2.6V | 18:12:15 | 01:45:14 | 00:00:00 | |
| DL1XH1-15 | 2026-09-05 12:14:25 | 48.42985 | 10.49412 | 37° | 13km/h | 27932m | 5.5m/s | 0°C | 0% | 0hPa | 2.6V | 00:00:00 | 01:45:23 | 00:00:00 | |
| DL1NUX | 2026-09-05 12:14:25 | 48.42971 | 10.49402 | 13° | 18km/h | 27909m | 5.1m/s | -46°C | 2.9% | 18.3hPa | 2.6V | 08:30:00 | 01:45:19 | 00:00:00 | |
| DL1XH-west | 2026-09-05 12:14:23 | 48.42982 | 10.49409 | 37° | 13km/h | 27927m | 4.7m/s | 0°C | 0% | 18.2hPa | 2.7V | 18:12:15 | 01:45:22 | 00:00:00 | |
| DK7TD | 2026-09-05 12:14:22 | 48.42979 | 10.49406 | 28° | 15km/h | 27922m | 6.3m/s | -46.2°C | 0% | 18.3hPa | 2.7V | 18:12:15 | 01:45:21 | 00:00:00 | |
| DJ2DS-15 | 2026-09-05 12:14:22 | 48.42979 | 10.49406 | 28° | 15km/h | 27922m | 6.3m/s | -46.1°C | 2.9% | 18.2hPa | 2.6V | 00:00:00 | 01:45:21 | 00:00:00 | |
| DO3MHA-11 | 2026-09-05 12:14:21 | 48.42975 | 10.49404 | 18° | 18km/h | 27915m | 6.8m/s | -46.0°C | 2.9% | 18.3hPa | 2.6V | 00:00:00 | 01:45:20 | 00:00:00 | |
| OE5DRO-10 | 2026-09-05 12:14:20 | 48.42971 | 10.49402 | 14° | 16km/h | 27909m | 5.0m/s | -45.9°C | 2.9% | 18.3hPa | 2.6V | 00:00:00 | 00:00:00 | 00:00:00 | |
| DO3MHA-12 | 2026-09-05 12:14:19 | 48.42966 | 10.49400 | 17° | 16km/h | 27904m | 5.7m/s | -46.0°C | 2.9% | 18.3hPa | 2.6V | 00:00:00 | 01:45:18 | 00:00:00 | |
| DL1XH1-15 | 2026-09-05 12:14:18 | 48.42945 | 10.49388 | 12° | 20km/h | 27874m | 5.6m/s | 0°C | 0% | 0hPa | 2.6V | 00:00:00 | 01:45:13 | 00:00:00 | |
| HSKMA3-T | 2026-09-05 12:14:17 | 48.42954 | 10.49392 | 24° | 18km/h | 27886m | 5.4m/s | -46.1°C | 0% | 18.4hPa | 2.7V | 18:12:15 | 01:45:15 | 00:00:00 | |
| SONCRA | 2026-09-05 12:14:16 | 48.42954 | 10.49392 | 23° | 16km/h | 27886m | 5.4m/s | -46.1°C | 0.7% | 18.4hPa | 2.6V | 00:00:00 | 00:00:00 | 00:00:00 | |
| DL1NUX | 2026-09-05 12:14:15 | 48.42929 | 10.49382 | 26° | 7km/h | 27853m | 6m/s | -46.5°C | 2.9% | 18.4hPa | 2.6V | 08:30:00 | 01:45:09 | 00:00:00 | |
| DL1XH-west | 2026-09-05 12:14:12 | 48.42935 | 10.49385 | 13° | 16km/h | 27865m | 4.2m/s | 0°C | 0% | 0hPa | 2.7V | 18:12:15 | 01:45:11 | 00:00:00 | |
| DK7TD | 2026-09-05 12:14:11 | 48.42932 | 10.49383 | 18° | 13km/h | 27859m | 6.8m/s | -46.6°C | 0% | 18.4hPa | 2.7V | 18:12:15 | 01:45:10 | 00:00:00 | |
| HSKMA3-T | 2026-09-05 12:14:07 | 48.42923 | 10.49384 | 331° | 15km/h | 27830m | 6.3m/s | -46.5°C | 0.1% | 18.5hPa | 2.6V | 18:12:15 | 01:45:05 | 00:00:00 | |
| OE5WHR-10 | 2026-09-05 12:14:06 | 48.42923 | 10.49384 | 331° | 22km/h | 27830m | 6.3m/s | -46.5°C | 3.0% | 18.4hPa | 2.6V | 00:00:00 | 01:45:05 | 00:00:00 | |
| DL1NUX | 2026-09-05 12:14:05 | 48.42892 | 10.49396 | 353° | 24km/h | 27795m | 6.8m/s | -46.9°C | 3% | 18.6hPa | 2.6V | 08:30:00 | 01:44:59 | 00:00:00 | |
| DL1XH-west | 2026-09-05 12:14:01 | 48.42898 | 10.49396 | 354° | 24km/h | 27801m | 5.7m/s | 0°C | 0% | 0hPa | 2.7V | 18:12:15 | 01:45:00 | 00:00:00 | |
| DK7TD | 2026-09-05 12:14:00 | 48.42892 | 10.49396 | 354° | 26km/h | 27795m | 6.8m/s | -46.9°C | 0.1% | 18.6hPa | 2.6V | 18:12:15 | 01:44:59 | 00:00:00 | |
| HSKMA3-T | 2026-09-05 12:13:55 | 48.42868 | 10.49398 | 2° | 11km/h | 27766m | 5.1m/s | -47°C | 0.1% | 18.7hPa | 2.6V | 18:12:15 | 01:44:54 | 00:00:00 | |
| DL1NUX | 2026-09-05 12:13:55 | 48.42844 | 10.49404 | 353° | 27km/h | 27739m | 6m/s | -47°C | 3% | 18.8hPa | 2.6V | 08:30:00 | 01:44:49 | 00:00:00 | |
| DF8AY | 2026-09-05 12:13:51 | 48.42851 | 10.49402 | 350° | 27km/h | 27744m | 4.7m/s | -47.1°C | 0.1% | 18.7hPa | 2.6V | 18:12:15 | 01:44:50 | 00:00:00 | |
| DK7TD | 2026-09-05 12:13:50 | 48.42837 | 10.49405 | 356° | 27km/h | 27733m | 6.1m/s | -47.1°C | 0.1% | 18.8hPa | 2.6V | 18:12:15 | 01:44:48 | 00:00:00 | |
| DC4HF-4 | 2026-09-05 12:13:49 | 48.42830 | 10.49406 | 355° | 26km/h | 27728m | 5.0m/s | -47.2°C | 0.8% | 18.8hPa | 2.6V | 00:00:00 | 00:00:00 | 00:00:00 | |
| DB0ND-19 | 2026-09-05 12:13:47 | 48.42817 | 10.49409 | 345° | 26km/h | 27718m | 5.8m/s | -47.0°C | 0.8% | 18.8hPa | 2.6V | 00:00:00 | 00:00:00 | 00:00:00 | |
| DL1NUX | 2026-09-05 12:13:45 | 48.42784 | 10.49423 | 17° | 13km/h | 27685m | 6.1m/s | -47.2°C | 3% | 18.9hPa | 2.6V | 08:30:00 | 01:44:39 | 00:00:00 | |
| HSKMA3-T | 2026-09-05 12:13:45 | 48.42811 | 10.49412 | 339° | 27km/h | 27712m | 6m/s | -47°C | 0.1% | 18.9hPa | 2.6V | 18:12:15 | 01:44:44 | 00:00:00 | |
| DF8AY | 2026-09-05 12:13:39 | 48.42781 | 10.49421 | 31° | 11km/h | 27679m | 5m/s | -47.4°C | 0.1% | 18.9hPa | 2.6V | 18:12:15 | 01:44:38 | 00:00:00 | |
| DK7TD | 2026-09-05 12:13:38 | 48.42778 | 10.49420 | 23° | 11km/h | 27675m | 5.1m/s | -47.4°C | 0.1% | 18.9hPa | 2.7V | 18:12:15 | 01:44:37 | 00:00:00 | |
| HSKMA3-T | 2026-09-05 12:13:35 | 48.42769 | 10.49424 | 325° | 18km/h | 27658m | 4.9m/s | -47.4°C | 0.1% | 19hPa | 2.6V | 18:12:15 | 01:44:34 | 00:00:00 | |
| DL1NUX | 2026-09-05 12:13:35 | 48.42749 | 10.49448 | 321° | 22km/h | 27631m | 5.7m/s | -47.6°C | 3% | 19hPa | 2.6V | 08:30:00 | 01:44:29 | 00:00:00 | |
| DK7TD | 2026-09-05 12:13:28 | 48.42741 | 10.49460 | 306° | 22km/h | 27620m | 4.7m/s | -47.5°C | 0.1% | 19.1hPa | 2.6V | 18:12:15 | 01:44:27 | 00:00:00 | |
| HSKMA3-T | 2026-09-05 12:13:25 | 48.42738 | 10.49477 | 254° | 11km/h | 27605m | 5.6m/s | -47.8°C | 0.2% | 19.1hPa | 2.6V | 18:12:15 | 01:44:24 | 00:00:00 | |
| DK7TD | 2026-09-05 12:13:17 | 48.42715 | 10.49512 | 298° | 35km/h | 27562m | 5.5m/s | -48.4°C | 0.3% | 19.2hPa | 2.7V | 18:12:15 | 01:44:16 | 00:00:00 | |
| OE5MMP-10 | 2026-09-05 12:13:17 | 48.42715 | 10.49512 | 298° | 16km/h | 27563m | 5.4m/s | -48.3°C | 3.3% | 19.2hPa | 2.7V | 00:00:00 | 01:44:16 | 00:00:00 | |
| DM0DOS-11 | 2026-09-05 12:13:16 | 48.42707 | 10.49555 | 256° | 7km/h | 27529m | 6m/s | -48.3°C | 3.2% | 19.3hPa | 2.7V | 08:30:00 | 01:44:10 | 00:00:00 | |
| HSKMA3-T | 2026-09-05 12:13:15 | 48.42709 | 10.49534 | 284° | 26km/h | 27552m | 5.3m/s | -48.4°C | 0.3% | 19.2hPa | 2.6V | 18:12:15 | 01:44:14 | 00:00:00 | |
| DK7TD | 2026-09-05 12:13:08 | 48.42710 | 10.49568 | 260° | 11km/h | 27504m | 6.8m/s | -48.1°C | 0.2% | 19.4hPa | 2.7V | 18:12:15 | 01:44:06 | 00:00:00 | |
| DF8AY | 2026-09-05 12:13:05 | 48.42711 | 10.49578 | 265° | 15km/h | 27493m | 4.3m/s | -48.2°C | 0.2% | 19.4hPa | 2.6V | 18:12:15 | 01:44:04 | 00:00:00 | |
| HSKMA3-T | 2026-09-05 12:13:04 | 48.42711 | 10.49584 | 258° | 18km/h | 27487m | 6.2m/s | -48.2°C | 0.3% | 19.4hPa | 2.6V | 18:12:15 | 01:44:03 | 00:00:00 | |
| OE5DRO-10 | 2026-09-05 12:13:04 | 48.42711 | 10.49584 | 258° | 15km/h | 27488m | 6.2m/s | -48.2°C | 3.2% | 19.4hPa | 2.7V | 00:00:00 | 00:00:00 | 00:00:00 | |
| OE5WHR-10 | 2026-09-05 12:13:03 | 48.42713 | 10.49591 | 249° | 15km/h | 27481m | 6.5m/s | -48.2°C | 3.2% | 19.4hPa | 2.7V | 00:00:00 | 01:44:02 | 00:00:00 | |
| DM7RM-13 | 2026-09-05 12:13:01 | 48.42715 | 10.49598 | 243° | 22km/h | 27475m | 5.2m/s | -48.3°C | 0.9% | 19.5hPa | 2.7V | 00:00:00 | 00:00:00 | 00:00:00 | |
| SONDE2-11 | 2026-09-05 12:12:59 | 48.42723 | 10.49616 | 199° | 4km/h | 27452m | 5.1m/s | -48.2°C | 0.9% | 19.5hPa | 2.7V | 00:00:00 | 00:00:00 | 00:00:00 | |
| DL1NUX | 2026-09-05 12:12:58 | 48.42726 | 10.49616 | 180° | 7km/h | 27441m | 6.3m/s | -48.4°C | 3.3% | 19.6hPa | 2.7V | 08:30:00 | 01:43:55 | 00:00:00 | |
| DK7TD | 2026-09-05 12:12:56 | 48.42726 | 10.49616 | 180° | 9km/h | 27441m | 6.3m/s | -48.4°C | 0.3% | 19.6hPa | 2.7V | 18:12:15 | 01:43:55 | 00:00:00 | |
| DF8AY | 2026-09-05 12:12:55 | 48.42740 | 10.49629 | 231° | 16km/h | 27406m | 5.3m/s | -48.4°C | 0.3% | 19.6hPa | 2.7V | 18:12:15 | 01:43:49 | 00:00:00 | |
| HSKMA3-T | 2026-09-05 12:12:54 | 48.42731 | 10.49618 | 201° | 13km/h | 27429m | 5.2m/s | -48.3°C | 0.3% | 19.6hPa | 2.6V | 18:12:15 | 01:43:53 | 00:00:00 | |
| DL6DJ-15 | 2026-09-05 12:12:53 | 48.42736 | 10.49622 | 223° | 9km/h | 27417m | 6.7m/s | -48.4°C | 0.8% | 19.6hPa | 2.6V | 00:00:00 | 00:00:00 | 00:00:00 | |
| DL9SK-14 | 2026-09-05 12:12:50 | 48.42743 | 10.49634 | 225° | 18km/h | 27400m | 7.1m/s | -48.3°C | 0.9% | 19.7hPa | 2.6V | 00:00:00 | 00:00:00 | 00:00:00 | |
| DO3MHA-12 | 2026-09-05 12:12:49 | 48.42743 | 10.49634 | 226° | 20km/h | 27400m | 7.1m/s | -48.2°C | 3.3% | 19.6hPa | 2.6V | 00:00:00 | 01:43:48 | 00:00:00 | |
| DL1NUX | 2026-09-05 12:12:48 | 48.42757 | 10.49648 | 201° | 20km/h | 27381m | 7m/s | -48°C | 3.3% | 19.7hPa | 2.7V | 08:30:00 | 01:43:45 | 00:00:00 | |
| PG1ADW-2 | 2026-09-05 12:12:48 | 48.42747 | 10.49640 | 220° | 24km/h | 27394m | 6.0m/s | -48.0°C | 3.3% | 19.6hPa | 2.7V | 00:00:00 | 00:00:00 | 00:00:00 | |
| DM0DOS-11 | 2026-09-05 12:12:47 | 48.42761 | 10.49650 | 184° | 18km/h | 27375m | 6m/s | -48°C | 3.3% | 19.8hPa | 2.7V | 08:30:00 | 01:43:44 | 00:00:00 | |
| DK7TD | 2026-09-05 12:12:46 | 48.42756 | 10.49648 | 201° | 20km/h | 27381m | 7m/s | -48°C | 0.3% | 19.7hPa | 2.7V | 18:12:15 | 01:43:45 | 00:00:00 | |
| DL1XH-west | 2026-09-05 12:12:45 | 48.42761 | 10.49650 | 184° | 18km/h | 27375m | 6m/s | 0°C | 0% | 0hPa | 2.7V | 18:12:15 | 01:43:44 | 00:00:00 | |
| DF8AY | 2026-09-05 12:12:45 | 48.42793 | 10.49644 | 179° | 20km/h | 27338m | 6.6m/s | -47.9°C | 0.2% | 19.8hPa | 2.6V | 18:12:15 | 01:43:38 | 00:00:00 | |
| DB0ND-19 | 2026-09-05 12:12:44 | 48.42766 | 10.49649 | 171° | 18km/h | 27369m | 5.1m/s | -48.1°C | 0.8% | 19.8hPa | 2.6V | 00:00:00 | 00:00:00 | 00:00:00 | |
| HSKMA3-T | 2026-09-05 12:12:43 | 48.42770 | 10.49648 | 169° | 20km/h | 27363m | 6.7m/s | -48.1°C | 0.4% | 19.8hPa | 2.6V | 18:12:15 | 01:43:42 | 00:00:00 | |
| PETON7-10 | 2026-09-05 12:12:43 | 48.42770 | 10.49648 | 170° | 24km/h | 27364m | 6.6m/s | -48.1°C | 3.3% | 19.7hPa | 2.6V | 00:00:00 | 00:00:00 | 08:30:00 | |
| OE5WHR-10 | 2026-09-05 12:12:42 | 48.42776 | 10.49646 | 171° | 22km/h | 27357m | 6.6m/s | -47.8°C | 3.2% | 19.7hPa | 2.7V | 00:00:00 | 00:00:00 | 08:30:00 | |
| DO3MHA-11 | 2026-09-05 12:12:41 | 48.42782 | 10.49645 | 173° | 26km/h | 27351m | 5.0m/s | -47.8°C | 3.2% | 19.8hPa | 2.7V | 00:00:00 | 01:43:40 | 00:00:00 | |
| DJ2DS-15 | 2026-09-05 12:12:39 | 48.42798 | 10.49644 | 189° | 20km/h | 27333m | 5.2m/s | -48.0°C | 0.9% | 19.9hPa | 2.7V | 00:00:00 | 00:00:00 | 00:00:00 | |
| DK5PH-5 | 2026-09-05 12:12:38 | 48.42798 | 10.49644 | 190° | 22km/h | 27333m | 5.2m/s | -47.9°C | 3.2% | 19.8hPa | 2.7V | 00:00:00 | 01:43:37 | 00:00:00 | |
| DM0DOS-11 | 2026-09-05 12:12:37 | 48.42817 | 10.49654 | 202° | 33km/h | 27314m | 5m/s | -47.8°C | 3.2% | 19.9hPa | 2.7V | 08:30:00 | 01:43:34 | 00:00:00 | |
| DK7TD | 2026-09-05 12:12:35 | 48.42817 | 10.49654 | 202° | 33km/h | 27314m | 5m/s | -47.9°C | 0.3% | 19.9hPa | 2.7V | 18:12:15 | 01:43:34 | 00:00:00 | |
| DF8AY | 2026-09-05 12:12:33 | 48.42831 | 10.49662 | 197° | 27km/h | 27303m | 6.8m/s | -47.9°C | 0.3% | 19.9hPa | 2.6V | 18:12:15 | 01:43:32 | 00:00:00 | |
| HSKMA3-T | 2026-09-05 12:12:32 | 48.42838 | 10.49664 | 187° | 22km/h | 27297m | 5.5m/s | -47.8°C | 0.3% | 20hPa | 2.6V | 18:12:15 | 01:43:31 | 00:00:00 | |
| DO3MHA-11 | 2026-09-05 12:12:31 | 48.42843 | 10.49664 | 175° | 18km/h | 27292m | 4.6m/s | -47.6°C | 3.2% | 19.9hPa | 2.7V | 00:00:00 | 01:43:30 | 00:00:00 | |
| DO9HM | 2026-09-05 12:12:30 | 48.42848 | 10.49663 | 170° | 22km/h | 27287m | 6.7m/s | -47.8°C | 0.9% | 20.0hPa | 2.7V | 00:00:00 | 00:00:00 | 00:00:00 | |
| DO3MHA-12 | 2026-09-05 12:12:29 | 48.42853 | 10.49661 | 165° | 20km/h | 27280m | 6.5m/s | -47.7°C | 3.3% | 20.0hPa | 2.7V | 00:00:00 | 01:43:28 | 00:00:00 | |
| AZAK | 2026-09-05 12:12:28 | 48.42859 | 10.49659 | 166° | 24km/h | 27274m | 5.8m/s | -47.8°C | 0.8% | 20.0hPa | 2.7V | 00:00:00 | 00:00:00 | 00:00:00 | |
| DM0DOS-11 | 2026-09-05 12:12:27 | 48.42873 | 10.49654 | 173° | 15km/h | 27255m | 6.6m/s | -47.6°C | 3.2% | 20.1hPa | 2.7V | 08:30:00 | 01:43:24 | 00:00:00 | |
| DK7TD | 2026-09-05 12:12:24 | 48.42877 | 10.49654 | 187° | 13km/h | 27249m | 4.9m/s | -47.6°C | 0.2% | 20.1hPa | 2.7V | 18:12:15 | 01:43:23 | 00:00:00 | |
| HSKMA3-T | 2026-09-05 12:12:22 | 48.42885 | 10.49657 | 197° | 20km/h | 27237m | 7.2m/s | -47.7°C | 0.2% | 20.1hPa | 2.6V | 18:12:15 | 01:43:21 | 00:00:00 | |
| DF8AY | 2026-09-05 12:12:22 | 48.42914 | 10.49661 | 166° | 20km/h | 27206m | 5.5m/s | -47.6°C | 0.2% | 20.2hPa | 2.6V | 18:12:15 | 01:43:16 | 00:00:00 | |
| DM7RM-13 | 2026-09-05 12:12:22 | 48.42885 | 10.49656 | 197° | 20km/h | 27238m | 7.2m/s | -47.7°C | 0.9% | 20.1hPa | 2.7V | 00:00:00 | 00:00:00 | 00:00:00 | |
| OE5WHR-10 | 2026-09-05 12:12:21 | 48.42890 | 10.49659 | 194° | 22km/h | 27231m | 5.8m/s | -47.7°C | 3.2% | 20.1hPa | 2.7V | 00:00:00 | 00:00:00 | 00:00:00 | |
| DO3MHA-12 | 2026-09-05 12:12:19 | 48.42903 | 10.49662 | 185° | 24km/h | 27220m | 6.3m/s | -47.6°C | 3.2% | 20.1hPa | 2.7V | 00:00:00 | 01:43:18 | 00:00:00 | |
| DD1CC3-15 | 2026-09-05 12:12:18 | 48.42903 | 10.49662 | 186° | 26km/h | 27220m | 6.4m/s | -47.6°C | 0.9% | 20.2hPa | 2.7V | 00:00:00 | 00:00:00 | 00:00:00 | |
| DM0DOS-11 | 2026-09-05 12:12:17 | 48.42924 | 10.49655 | 155° | 24km/h | 27195m | 6.6m/s | -47.5°C | 3.1% | 20.2hPa | 2.7V | 08:30:00 | 01:43:14 | 00:00:00 | |
| DK7TD | 2026-09-05 12:12:14 | 48.42930 | 10.49651 | 156° | 27km/h | 27189m | 6.8m/s | -47.6°C | 0.2% | 20.3hPa | 2.7V | 18:12:15 | 01:43:13 | 00:00:00 | |
| HSKMA3-T | 2026-09-05 12:12:12 | 48.42943 | 10.49643 | 156° | 26km/h | 27177m | 5.8m/s | -47.6°C | 0.2% | 20.3hPa | 2.6V | 18:12:15 | 01:43:11 | 00:00:00 | |
| DF8AY | 2026-09-05 12:12:12 | 48.43030 | 10.49591 | 153° | 20km/h | 27066m | 7m/s | -47.3°C | 0.2% | 20.6hPa | 2.7V | 18:12:15 | 01:42:53 | 00:00:00 | |
| DO3MHA-11 | 2026-09-05 12:12:11 | 48.42948 | 10.49639 | 155° | 18km/h | 27170m | 7.0m/s | -47.4°C | 3.1% | 20.3hPa | 2.6V | 00:00:00 | 01:43:10 | 08:30:00 | |
| DO3MHA-12 | 2026-09-05 12:12:09 | 48.42956 | 10.49634 | 165° | 20km/h | 27158m | 5.7m/s | -47.4°C | 3.1% | 20.3hPa | 2.6V | 00:00:00 | 01:43:08 | 00:00:00 | |
| DL1NUX | 2026-09-05 12:12:08 | 48.42965 | 10.49632 | 174° | 20km/h | 27145m | 5.8m/s | -47.3°C | 3% | 20.4hPa | 2.6V | 08:30:00 | 01:43:06 | 00:00:00 | |
| AZAK | 2026-09-05 12:12:08 | 48.42960 | 10.49633 | 171° | 18km/h | 27152m | 7.0m/s | -47.4°C | 0.8% | 20.4hPa | 2.6V | 00:00:00 | 00:00:00 | 00:00:00 | |
| DM0DOS-11 | 2026-09-05 12:12:07 | 48.42987 | 10.49627 | 158° | 18km/h | 27116m | 5.9m/s | -47.4°C | 3.1% | 20.5hPa | 2.6V | 08:30:00 | 01:43:01 | 00:00:00 | |
| DK7TD | 2026-09-05 12:12:03 | 48.42983 | 10.49629 | 165° | 16km/h | 27121m | 5.4m/s | -47.3°C | 0.2% | 20.5hPa | 2.6V | 18:12:15 | 01:43:02 | 00:00:00 | |
| HSKMA3-T | 2026-09-05 12:12:01 | 48.42992 | 10.49624 | 154° | 24km/h | 27109m | 7.3m/s | -47.4°C | 0.1% | 20.5hPa | 2.6V | 18:12:15 | 01:43:00 | 00:00:00 | |
| OE5WHR-10 | 2026-09-05 12:12:00 | 48.42998 | 10.49619 | 151° | 20km/h | 27103m | 6.3m/s | -47.3°C | 3.1% | 20.5hPa | 2.7V | 00:00:00 | 01:42:59 | 00:00:00 | |
| DO3MHA-12 | 2026-09-05 12:11:59 | 48.43004 | 10.49614 | 150° | 20km/h | 27097m | 4.9m/s | -47.3°C | 3.1% | 20.5hPa | 2.7V | 00:00:00 | 01:42:58 | 00:00:00 | |
| PETON7-10 | 2026-09-05 12:11:58 | 48.43011 | 10.49608 | 149° | 18km/h | 27092m | 6.0m/s | -47.3°C | 3.1% | 20.5hPa | 2.7V | 00:00:00 | 00:00:00 | 00:00:00 | |
| DL1NUX | 2026-09-05 12:11:57 | 48.43038 | 10.49586 | 159° | 16km/h | 27054m | 5.7m/s | -47.4°C | 3.1% | 20.6hPa | 2.6V | 08:30:00 | 01:42:51 | 00:00:00 | |
| DK7TD | 2026-09-05 12:11:52 | 48.43038 | 10.49586 | 159° | 16km/h | 27054m | 5.7m/s | -47.4°C | 0.2% | 20.7hPa | 2.6V | 18:12:15 | 01:42:51 | 00:00:00 | |
| HSKMA3-T | 2026-09-05 12:11:51 | 48.43044 | 10.49583 | 160° | 9km/h | 27041m | 6.2m/s | -47.5°C | 0.2% | 20.7hPa | 2.6V | 18:12:15 | 01:42:49 | 00:00:00 | |
| DL9SK-14 | 2026-09-05 12:11:48 | 48.43053 | 10.49575 | 145° | 18km/h | 27022m | 6.5m/s | -47.5°C | 0.8% | 20.8hPa | 2.6V | 00:00:00 | 00:00:00 | 00:00:00 | |
| AZAK | 2026-09-05 12:11:47 | 48.43053 | 10.49575 | 146° | 20km/h | 27023m | 6.5m/s | -47.5°C | 0.8% | 20.8hPa | 2.6V | 00:00:00 | 00:00:00 | 00:00:00 | |
| DL1NUX | 2026-09-05 12:11:46 | 48.43074 | 10.49543 | 140° | 16km/h | 26985m | 7.2m/s | -47.5°C | 3.1% | 20.8hPa | 2.6V | 08:30:00 | 01:42:40 | 00:00:00 | |
| SO1NDE-10 | 2026-09-05 12:11:44 | 48.43065 | 10.49559 | 130° | 13km/h | 27004m | 6.9m/s | -47.5°C | 3.1% | 20.8hPa | 2.6V | 00:00:00 | 01:42:43 | 08:30:00 | |
| DM0DOS-11 | 2026-09-05 12:11:42 | 48.43071 | 10.49548 | 131° | 18km/h | 26992m | 5.4m/s | -47.7°C | 3.1% | 20.8hPa | 2.7V | 08:30:00 | 01:42:41 | 00:00:00 | |
| DK7TD | 2026-09-05 12:11:41 | 48.43074 | 10.49543 | 140° | 16km/h | 26985m | 7.2m/s | -47.6°C | 0.2% | 20.8hPa | 2.6V | 18:12:15 | 01:42:40 | 00:00:00 | |
| HSKMA3-T | 2026-09-05 12:11:40 | 48.43078 | 10.49540 | 152° | 16km/h | 26979m | 6m/s | -47.5°C | 0.2% | 20.9hPa | 2.6V | 18:12:15 | 01:42:39 | 00:00:00 | |
| DO3MHA-11 | 2026-09-05 12:11:40 | 48.43077 | 10.49540 | 153° | 13km/h | 26979m | 6.0m/s | -47.4°C | 3.1% | 20.8hPa | 2.6V | 00:00:00 | 01:42:39 | 00:00:00 | |
| DO3MHA-12 | 2026-09-05 12:11:39 | 48.43081 | 10.49537 | 163° | 13km/h | 26974m | 5.6m/s | -47.5°C | 3.1% | 20.9hPa | 2.7V | 00:00:00 | 01:42:38 | 00:00:00 | |
| DK5PH-5 | 2026-09-05 12:11:38 | 48.43084 | 10.49536 | 168° | 11km/h | 26967m | 7.2m/s | -47.6°C | 3.1% | 20.9hPa | 2.7V | 00:00:00 | 01:42:37 | 00:00:00 | |
| DM0DOS-11 | 2026-09-05 12:11:37 | 48.43103 | 10.49531 | 150° | 15km/h | 26931m | 6.4m/s | -47.6°C | 3.1% | 21hPa | 2.7V | 08:30:00 | 01:42:31 | 00:00:00 | |
| OE5MMP-10 | 2026-09-05 12:11:37 | 48.43087 | 10.49535 | 179° | 15km/h | 26960m | 6.1m/s | -47.6°C | 3.1% | 20.9hPa | 2.7V | 00:00:00 | 01:42:36 | 00:00:00 | |
| DL1NUX | 2026-09-05 12:11:36 | 48.43105 | 10.49528 | 131° | 13km/h | 26924m | 6.8m/s | -47.6°C | 3.1% | 21hPa | 2.7V | 08:30:00 | 01:42:30 | 00:00:00 | |
| DK7TD | 2026-09-05 12:11:30 | 48.43107 | 10.49524 | 117° | 15km/h | 26918m | 5.5m/s | -47.6°C | 0.1% | 21.1hPa | 2.6V | 18:12:15 | 01:42:29 | 00:00:00 | |
| DL1XH-west | 2026-09-05 12:11:29 | 48.43109 | 10.49518 | 117° | 16km/h | 26912m | 5.7m/s | 0°C | 0% | 0hPa | 2.6V | 18:12:15 | 01:42:28 | 00:00:00 | |
| DO3MHA-12 | 2026-09-05 12:11:29 | 48.43109 | 10.49518 | 117° | 11km/h | 26913m | 5.7m/s | -47.6°C | 3.0% | 21.0hPa | 2.7V | 00:00:00 | 01:42:28 | 00:00:00 | |
| PETON7-10 | 2026-09-05 12:11:28 | 48.43111 | 10.49513 | 124° | 11km/h | 26906m | 6.7m/s | -47.7°C | 3.0% | 21.0hPa | 2.7V | 00:00:00 | 01:42:27 | 00:00:00 | |
| DM0DOS-11 | 2026-09-05 12:11:27 | 48.43123 | 10.49495 | 130° | 4km/h | 26871m | 4.6m/s | -47.7°C | 3.1% | 21.2hPa | 2.7V | 08:30:00 | 01:42:21 | 00:00:00 | |
| OE5MMP-10 | 2026-09-05 12:11:27 | 48.43114 | 10.49507 | 133° | 11km/h | 26900m | 5.6m/s | -47.7°C | 3.1% | 21.1hPa | 2.7V | 00:00:00 | 01:42:26 | 00:00:00 | |
| DL1NUX | 2026-09-05 12:11:26 | 48.43124 | 10.49494 | 140° | 7km/h | 26866m | 6.8m/s | -47.8°C | 3.1% | 21.2hPa | 2.7V | 08:30:00 | 01:42:20 | 00:00:00 | |
| AZAK | 2026-09-05 12:11:26 | 48.43117 | 10.49503 | 141° | 15km/h | 26895m | 4.8m/s | -47.7°C | 0.8% | 21.1hPa | 2.7V | 00:00:00 | 00:00:00 | 00:00:00 | |
| SONDE2-11 | 2026-09-05 12:11:25 | 48.43120 | 10.49500 | 142° | 11km/h | 26889m | 6.3m/s | -47.7°C | 0.8% | 21.1hPa | 2.7V | 00:00:00 | 00:00:00 | 00:00:00 | |
| OE5DXL-15 | 2026-09-05 12:11:24 | 48.43121 | 10.49498 | 139° | 15km/h | 26883m | 6.7m/s | -47.6°C | 3.1% | 21.1hPa | 2.7V | 00:00:00 | 00:00:00 | 00:00:00 | |
| DF1GD-15 | 2026-09-05 12:11:23 | 48.43121 | 10.49498 | 139° | 7km/h | 26883m | 6.8m/s | -47.7°C | 0.9% | 21.2hPa | 2.7V | 00:00:00 | 00:00:00 | 00:00:00 | |
| IW2NTF | 2026-09-05 12:11:22 | 48.43132 | 10.49479 | 82° | 9km/h | 26836m | 6.5m/s | -48.1°C | 3.1% | 21.3hPa | 2.7V | 08:30:00 | 01:42:15 | 00:00:00 | |
| HSKMA3-T | 2026-09-05 12:11:19 | 48.43128 | 10.49489 | 138° | 11km/h | 26854m | 5.1m/s | -48°C | 0.1% | 21.3hPa | 2.6V | 18:12:15 | 01:42:18 | 00:00:00 | |
| DL1XH-west | 2026-09-05 12:11:18 | 48.43130 | 10.49486 | 126° | 11km/h | 26849m | 4.9m/s | 0°C | 0% | 0hPa | 2.6V | 18:12:15 | 01:42:17 | 00:00:00 | |
| OE5WHR-10 | 2026-09-05 12:11:18 | 48.43130 | 10.49486 | 126° | 15km/h | 26849m | 4.9m/s | -48.0°C | 3.1% | 21.2hPa | 2.7V | 00:00:00 | 00:00:00 | 00:00:00 | |
| DL9SK-14 | 2026-09-05 12:11:17 | 48.43132 | 10.49479 | 82° | 9km/h | 26836m | 6.5m/s | -48.1°C | 0.8% | 21.3hPa | 2.7V | 00:00:00 | 00:00:00 | 00:00:00 | |
| DL1NUX | 2026-09-05 12:11:16 | 48.43130 | 10.49457 | 85° | 11km/h | 26807m | 5.6m/s | -48.5°C | 3.1% | 21.4hPa | 2.7V | 08:30:00 | 01:42:10 | 00:00:00 | |
| DD1CC3-15 | 2026-09-05 12:11:16 | 48.43132 | 10.49479 | 83° | 9km/h | 26836m | 6.5m/s | -48.1°C | 0.9% | 21.3hPa | 2.7V | 00:00:00 | 00:00:00 | 00:00:00 | |
| DM0DOS-11 | 2026-09-05 12:11:14 | 48.43130 | 10.49461 | 90° | 13km/h | 26812m | 5m/s | -48.4°C | 3.1% | 21.4hPa | 2.7V | 08:30:00 | 01:42:11 | 00:00:00 | |
| HSKMA3-T | 2026-09-05 12:11:09 | 48.43128 | 10.49451 | 53° | 5km/h | 26795m | 5.5m/s | -48.6°C | 0.2% | 21.4hPa | 2.6V | 18:12:15 | 01:42:08 | 00:00:00 | |
| DL1XH-west | 2026-09-05 12:11:04 | 48.43133 | 10.49434 | 119° | 22km/h | 26766m | 5m/s | 0°C | 0% | 0hPa | 2.6V | 18:12:15 | 01:42:03 | 00:00:00 | |
| DK7TD | 2026-09-05 12:10:59 | 48.43138 | 10.49389 | 91° | 26km/h | 26736m | 6.8m/s | -48.9°C | 0.3% | 21.6hPa | 2.7V | 18:12:15 | 01:41:58 | 00:00:00 | |
| HSKMA3-T | 2026-09-05 12:10:58 | 48.43138 | 10.49379 | 92° | 26km/h | 26730m | 5.3m/s | -48.9°C | 0.3% | 21.6hPa | 2.6V | 18:12:15 | 01:41:57 | 00:00:00 | |
| HSKMA3-T | 2026-09-05 12:10:48 | 48.43139 | 10.49304 | 98° | 24km/h | 26671m | 6.4m/s | -48.8°C | 0.3% | 21.8hPa | 2.7V | 18:12:15 | 01:41:47 | 00:00:00 | |
| DF8AY | 2026-09-05 12:10:45 | 48.43138 | 10.49275 | 83° | 26km/h | 26655m | 6.2m/s | -49°C | 0.3% | 21.9hPa | 2.6V | 18:12:15 | 01:41:44 | 00:00:00 | |
| AZAK | 2026-09-05 12:10:45 | 48.43138 | 10.49275 | 84° | 26km/h | 26655m | 6.2m/s | -49.0°C | 0.9% | 21.9hPa | 2.6V | 00:00:00 | 00:00:00 | 00:00:00 | |
| SO1NDE-10 | 2026-09-05 12:10:44 | 48.43137 | 10.49266 | 81° | 18km/h | 26649m | 6.1m/s | -49.0°C | 3.2% | 21.8hPa | 2.6V | 00:00:00 | 01:41:43 | 00:00:00 | |
| PETON7-10 | 2026-09-05 12:10:43 | 48.43136 | 10.49256 | 72° | 18km/h | 26644m | 4.8m/s | -49.0°C | 3.3% | 21.8hPa | 2.6V | 00:00:00 | 01:41:42 | 00:00:00 | |
| DM0DOS-11 | 2026-09-05 12:10:42 | 48.43130 | 10.49241 | 50° | 22km/h | 26631m | 6.5m/s | -49.1°C | 3.3% | 21.9hPa | 2.6V | 08:30:00 | 01:41:40 | 00:00:00 | |
| DK7TD | 2026-09-05 12:10:38 | 48.43122 | 10.49226 | 76° | 11km/h | 26613m | 6.7m/s | -49.1°C | 0.3% | 22hPa | 2.7V | 18:12:15 | 01:41:37 | 00:00:00 | |
| HSKMA3-T | 2026-09-05 12:10:37 | 48.43122 | 10.49223 | 108° | 11km/h | 26607m | 5.8m/s | -49.2°C | 0.3% | 22hPa | 2.7V | 18:12:15 | 01:41:36 | 00:00:00 | |
| DF8AY | 2026-09-05 12:10:35 | 48.43125 | 10.49215 | 117° | 13km/h | 26595m | 6.6m/s | -49.3°C | 0.4% | 22hPa | 2.6V | 18:12:15 | 01:41:34 | 00:00:00 | |
| DK7TD | 2026-09-05 12:10:27 | 48.43124 | 10.49155 | 47° | 27km/h | 26547m | 4.8m/s | -49.7°C | 0.4% | 22.2hPa | 2.7V | 18:12:15 | 01:41:26 | 00:00:00 | |
| HSKMA3-T | 2026-09-05 12:10:26 | 48.43119 | 10.49149 | 43° | 26km/h | 26542m | 4.9m/s | -49.5°C | 0.4% | 22.2hPa | 2.7V | 18:12:15 | 01:41:25 | 00:00:00 | |
| DF8AY | 2026-09-05 12:10:24 | 48.43112 | 10.49138 | 51° | 15km/h | 26530m | 5.8m/s | -49.4°C | 0.4% | 22.3hPa | 2.6V | 18:12:15 | 01:41:23 | 00:00:00 | |
| PG1ADW-2 | 2026-09-05 12:10:24 | 48.43112 | 10.49138 | 52° | 16km/h | 26531m | 5.8m/s | -49.4°C | 3.4% | 22.2hPa | 2.6V | 00:00:00 | 00:00:00 | 00:00:00 | |
| DF1GD-15 | 2026-09-05 12:10:23 | 48.43110 | 10.49134 | 68° | 11km/h | 26525m | 5.3m/s | -49.4°C | 1.0% | 22.3hPa | 2.7V | 00:00:00 | 00:00:00 | 00:00:00 | |
| DM0DOS-11 | 2026-09-05 12:10:22 | 48.43109 | 10.49126 | 84° | 11km/h | 26514m | 6.3m/s | -49.3°C | 3.5% | 22.3hPa | 2.7V | 08:30:00 | 01:41:20 | 00:00:00 | |
| DK7TD | 2026-09-05 12:10:16 | 48.43111 | 10.49093 | 98° | 20km/h | 26485m | 5.2m/s | -49.3°C | 0.3% | 22.4hPa | 2.7V | 18:12:15 | 01:41:15 | 00:00:00 | |
| HSKMA3-T | 2026-09-05 12:10:15 | 48.43111 | 10.49086 | 84° | 18km/h | 26480m | 5.3m/s | -49.3°C | 0.4% | 22.4hPa | 2.7V | 18:12:15 | 01:41:14 | 00:00:00 | |
| DF8AY | 2026-09-05 12:10:13 | 48.43107 | 10.49074 | 41° | 16km/h | 26468m | 5.2m/s | 0°C | 0% | 22.5hPa | 2.6V | 18:12:15 | 01:41:12 | 00:00:00 | |
| DK7TD | 2026-09-05 12:10:06 | 48.43099 | 10.49052 | 91° | 18km/h | 26430m | 6.2m/s | -49.1°C | 0.3% | 22.6hPa | 2.7V | 18:12:15 | 01:41:05 | 00:00:00 | |
| OE5MMP-10 | 2026-09-05 12:10:06 | 48.43099 | 10.49052 | 92° | 18km/h | 26430m | 6.1m/s | -49.1°C | 3.3% | 22.5hPa | 2.6V | 00:00:00 | 01:41:05 | 00:00:00 | |
| DM0DOS-11 | 2026-09-05 12:10:05 | 48.43101 | 10.49016 | 91° | 16km/h | 26401m | 5.5m/s | -49.3°C | 3.4% | 22.7hPa | 2.6V | 08:30:00 | 01:41:00 | 00:00:00 | |
| HSKMA3-T | 2026-09-05 12:10:01 | 48.43101 | 10.49016 | 92° | 16km/h | 26401m | 5.5m/s | -49.3°C | 0.4% | 22.7hPa | 2.6V | 18:12:15 | 01:41:00 | 00:00:00 | |
| DF8AY | 2026-09-05 12:10:00 | 48.43101 | 10.49009 | 77° | 16km/h | 26394m | 6.9m/s | 0°C | 0% | 0hPa | 2.7V | 18:12:15 | 01:40:59 | 00:00:00 | |
| DK7TD | 2026-09-05 12:09:55 | 48.43091 | 10.48991 | 24° | 5km/h | 26365m | 5.4m/s | -49.1°C | 0.3% | 22.8hPa | 2.7V | 18:12:15 | 01:40:54 | 00:00:00 | |
| OE5WHR-10 | 2026-09-05 12:09:54 | 48.43089 | 10.48990 | 19° | 15km/h | 26360m | 5.2m/s | -49.1°C | 3.3% | 22.8hPa | 2.6V | 00:00:00 | 01:40:53 | 00:00:00 | |
| DM0DOS-11 | 2026-09-05 12:09:53 | 48.43084 | 10.48985 | 52° | 11km/h | 26342m | 5.3m/s | -49.3°C | 3.3% | 22.9hPa | 2.6V | 08:30:00 | 01:40:50 | 00:00:00 | |
| DF8AY | 2026-09-05 12:09:50 | 48.43083 | 10.48981 | 70° | 11km/h | 26337m | 6.6m/s | 0°C | 0% | 0hPa | 2.6V | 18:12:15 | 01:40:49 | 00:00:00 | |
| DK7TD | 2026-09-05 12:09:44 | 48.43075 | 10.48947 | 59° | 22km/h | 26304m | 3.8m/s | -49.3°C | 0.3% | 23hPa | 2.7V | 18:12:15 | 01:40:43 | 00:00:00 | |
| DL9SK-14 | 2026-09-05 12:09:44 | 48.43073 | 10.48940 | 62° | 18km/h | 26300m | 5.1m/s | -49.5°C | 0.9% | 23.0hPa | 2.6V | 00:00:00 | 00:00:00 | 00:00:00 | |
| AZAK | 2026-09-05 12:09:43 | 48.43073 | 10.48940 | 64° | 20km/h | 26300m | 5.1m/s | -49.5°C | 0.9% | 23.0hPa | 2.6V | 00:00:00 | 00:00:00 | 00:00:00 | |
| DM0DOS-11 | 2026-09-05 12:09:42 | 48.43071 | 10.48928 | 95° | 15km/h | 26288m | 5.9m/s | -49.5°C | 3.4% | 23.1hPa | 2.6V | 08:30:00 | 01:40:40 | 00:00:00 | |
| DF8AY | 2026-09-05 12:09:39 | 48.43073 | 10.48918 | 110° | 15km/h | 26277m | 5m/s | 0°C | 0% | 0hPa | 2.6V | 18:12:15 | 01:40:38 | 00:00:00 | |
| IW2NTF | 2026-09-05 12:09:39 | 48.43072 | 10.48893 | 76° | 20km/h | 26254m | 5.5m/s | -49.4°C | 3.4% | 23.2hPa | 2.6V | 08:30:00 | 01:40:34 | 00:00:00 | |
| DB0ND-19 | 2026-09-05 12:09:39 | 48.43074 | 10.48913 | 99° | 15km/h | 26272m | 6.7m/s | -49.6°C | 0.9% | 23.1hPa | 2.7V | 00:00:00 | 00:00:00 | 00:00:00 | |
| DK5PH-5 | 2026-09-05 12:09:38 | 48.43074 | 10.48912 | 100° | 18km/h | 26272m | 6.6m/s | -49.5°C | 3.4% | 23.1hPa | 2.7V | 00:00:00 | 01:40:37 | 00:00:00 | |
| SONCRA | 2026-09-05 12:09:37 | 48.43073 | 10.48900 | 76° | 18km/h | 26260m | 4.8m/s | -49.5°C | 0.9% | 23.2hPa | 2.7V | 00:00:00 | 00:00:00 | 00:00:00 | |
| DM0DOS-11 | 2026-09-05 12:09:36 | 48.43068 | 10.48863 | 73° | 24km/h | 26232m | 6.6m/s | -49.4°C | 3.4% | 23.3hPa | 2.7V | 08:30:00 | 01:40:30 | 00:00:00 | |
| DM7RM-13 | 2026-09-05 12:09:36 | 48.43073 | 10.48900 | 77° | 18km/h | 26260m | 4.8m/s | -49.5°C | 1.0% | 23.2hPa | 2.6V | 00:00:00 | 00:00:00 | 00:00:00 | |
| DL1NUX | 2026-09-05 12:09:35 | 48.43066 | 10.48855 | 65° | 24km/h | 26226m | 5.2m/s | -49.5°C | 3.4% | 23.2hPa | 2.6V | 08:30:00 | 01:40:29 | 00:00:00 | |
| DK7TD | 2026-09-05 12:09:33 | 48.43070 | 10.48879 | 82° | 20km/h | 26242m | 5.3m/s | -49.4°C | 0.4% | 23.2hPa | 2.7V | 18:12:15 | 01:40:32 | 00:00:00 | |
| OE5WHR-10 | 2026-09-05 12:09:33 | 48.43070 | 10.48879 | 82° | 18km/h | 26243m | 5.2m/s | -49.4°C | 3.4% | 23.2hPa | 2.7V | 00:00:00 | 00:00:00 | 08:30:00 | |
| NBG1-10 | 2026-09-05 12:09:31 | 48.43068 | 10.48863 | 74° | 20km/h | 26232m | 6.5m/s | -49.4°C | 3.4% | 23.2hPa | 2.7V | 00:00:00 | 01:40:30 | 00:00:00 | |
| IW2NTF | 2026-09-05 12:09:30 | 48.43058 | 10.48830 | 75° | 5km/h | 26200m | 4.7m/s | -49.5°C | 3.4% | 23.4hPa | 2.6V | 08:30:00 | 01:40:24 | 00:00:00 | |
| HSKMA3-T | 2026-09-05 12:09:29 | 48.43063 | 10.48847 | 62° | 22km/h | 26221m | 3.8m/s | -49.5°C | 0.3% | 23.3hPa | 2.6V | 18:12:15 | 01:40:28 | 00:00:00 | |
| DF8AY | 2026-09-05 12:09:28 | 48.43061 | 10.48841 | 62° | 16km/h | 26217m | 5.2m/s | 0°C | 0% | 0hPa | 2.6V | 18:12:15 | 01:40:27 | 00:00:00 | |
| PETON7-10 | 2026-09-05 12:09:28 | 48.43061 | 10.48841 | 62° | 16km/h | 26217m | 5.1m/s | 0°C | 0% | 0hPa | 2.7V | 00:00:00 | 00:00:00 | 00:00:00 | |
| OE5MMP-10 | 2026-09-05 12:09:26 | 48.43058 | 10.48832 | 70° | 16km/h | 26205m | 5.6m/s | -49.6°C | 3.5% | 23.3hPa | 2.7V | 00:00:00 | 01:40:25 | 00:00:00 | |
| DO9HM | 2026-09-05 12:09:25 | 48.43058 | 10.48832 | 71° | 7km/h | 26205m | 5.7m/s | -49.6°C | 1.0% | 23.3hPa | 2.7V | 00:00:00 | 00:00:00 | 00:00:00 | |
| DM0DOS-11 | 2026-09-05 12:09:24 | 48.43052 | 10.48816 | 49° | 15km/h | 26177m | 6.5m/s | -49.6°C | 3.4% | 23.4hPa | 2.7V | 08:30:00 | 01:40:20 | 00:00:00 | |
| DK7TD | 2026-09-05 12:09:22 | 48.43054 | 10.48820 | 52° | 15km/h | 26183m | 5.1m/s | -49.5°C | 0.4% | 23.4hPa | 2.7V | 18:12:15 | 01:40:21 | 00:00:00 | |
| AZAK | 2026-09-05 12:09:22 | 48.43054 | 10.48820 | 53° | 15km/h | 26183m | 5.1m/s | -49.5°C | 0.9% | 23.4hPa | 2.6V | 00:00:00 | 00:00:00 | 00:00:00 | |
| DF1GD-15 | 2026-09-05 12:09:21 | 48.43052 | 10.48816 | 51° | 15km/h | 26177m | 6.5m/s | -49.6°C | 0.9% | 23.4hPa | 2.6V | 00:00:00 | 00:00:00 | 00:00:00 | |
| IW2NTF | 2026-09-05 12:09:19 | 48.43029 | 10.48765 | 69° | 18km/h | 26137m | 5.8m/s | -49.3°C | 3.4% | 23.6hPa | 2.6V | 08:30:00 | 01:40:13 | 00:00:00 | |
| DF8AY | 2026-09-05 12:09:18 | 48.43042 | 10.48799 | 52° | 26km/h | 26160m | 6.8m/s | 0°C | 0% | 0hPa | 2.6V | 18:12:15 | 01:40:17 | 00:00:00 | |
| HSKMA3-T | 2026-09-05 12:09:18 | 48.43038 | 10.48791 | 54° | 29km/h | 26154m | 5.8m/s | -49.4°C | 0.4% | 23.5hPa | 2.6V | 18:12:15 | 01:40:16 | 00:00:00 | |
| DB0UT-7 | 2026-09-05 12:09:17 | 48.43038 | 10.48790 | 54° | 24km/h | 26154m | 5.8m/s | -49.4°C | 3.4% | 23.5hPa | 2.6V | 00:00:00 | 01:40:16 | 08:30:00 | |
| OE5MMP-10 | 2026-09-05 12:09:16 | 48.43034 | 10.48782 | 59° | 18km/h | 26149m | 4.4m/s | -49.4°C | 3.4% | 23.5hPa | 2.6V | 00:00:00 | 01:40:15 | 00:00:00 | |
| DL6DJ-15 | 2026-09-05 12:09:15 | 48.43031 | 10.48773 | 62° | 24km/h | 26143m | 6.1m/s | -49.4°C | 0.9% | 23.6hPa | 2.6V | 00:00:00 | 00:00:00 | 00:00:00 | |
| DM7RM-13 | 2026-09-05 12:09:14 | 48.43031 | 10.48773 | 63° | 24km/h | 26144m | 6.1m/s | -49.4°C | 0.9% | 23.6hPa | 2.6V | 00:00:00 | 00:00:00 | 00:00:00 | |
| DJ8HS-15 | 2026-09-05 12:09:13 | 48.43027 | 10.48759 | 77° | 24km/h | 26132m | 4.9m/s | -49.3°C | 3.4% | 23.5hPa | 2.6V | 00:00:00 | 01:40:12 | 00:00:00 | |
| DM0DOS-11 | 2026-09-05 12:09:12 | 48.43026 | 10.48749 | 71° | 15km/h | 26121m | 6.1m/s | -49.4°C | 3.4% | 23.6hPa | 2.7V | 08:30:00 | 01:40:10 | 00:00:00 | |
| DK7TD | 2026-09-05 12:09:12 | 48.43026 | 10.48754 | 79° | 15km/h | 26127m | 5.1m/s | -49.4°C | 0.4% | 23.6hPa | 2.6V | 18:12:15 | 01:40:11 | 00:00:00 | |
| DF8AY | 2026-09-05 12:09:07 | 48.43015 | 10.48728 | 49° | 18km/h | 26099m | 6m/s | 0°C | 0% | 0hPa | 2.6V | 18:12:15 | 01:40:06 | 00:00:00 | |
| HSKMA3-T | 2026-09-05 12:09:06 | 48.43013 | 10.48723 | 52° | 16km/h | 26093m | 5.8m/s | -49.5°C | 0.4% | 23.7hPa | 2.6V | 18:12:15 | 01:40:05 | 00:00:00 | |
| IW2NTF | 2026-09-05 12:09:06 | 48.43007 | 10.48710 | 58° | 24km/h | 26083m | 4.9m/s | -49.5°C | 3.4% | 23.7hPa | 2.7V | 08:30:00 | 01:40:03 | 00:00:00 | |
| DK7TD | 2026-09-05 12:09:01 | 48.42996 | 10.48678 | 69° | 38km/h | 26066m | 5.1m/s | -49.4°C | 0.4% | 23.8hPa | 2.6V | 18:12:15 | 01:40:00 | 00:00:00 | |
| DC4HF-4 | 2026-09-05 12:09:00 | 48.42993 | 10.48664 | 73° | 37km/h | 26060m | 6.4m/s | -49.5°C | -1.0% | -1.0hPa | 2.6V | 00:00:00 | 00:00:00 | 00:00:00 | |
| DO3MHA-12 | 2026-09-05 12:08:59 | 48.42991 | 10.48651 | 78° | 24km/h | 26055m | 5.2m/s | -49.5°C | 3.4% | 23.8hPa | 2.6V | 00:00:00 | 01:39:58 | 00:00:00 | |
| DL1NUX | 2026-09-05 12:08:58 | 48.42982 | 10.48611 | 58° | 24km/h | 26033m | 5.4m/s | -49.5°C | 3.4% | 23.9hPa | 2.6V | 08:30:00 | 01:39:54 | 00:00:00 | |
| NBG1-10 | 2026-09-05 12:08:58 | 48.42989 | 10.48639 | 79° | 26km/h | 26050m | 4.2m/s | -49.4°C | 3.4% | 23.8hPa | 2.6V | 00:00:00 | 01:39:57 | 00:00:00 | |
| OE5DRO-10 | 2026-09-05 12:08:57 | 48.42987 | 10.48628 | 75° | 26km/h | 26045m | 5.6m/s | -49.3°C | 3.4% | 23.8hPa | 2.6V | 00:00:00 | 00:00:00 | 08:30:00 | |
| DM0DOS-11 | 2026-09-05 12:08:56 | 48.42972 | 10.48586 | 61° | 18km/h | 26011m | 4.7m/s | -49.4°C | 3.5% | 24hPa | 2.6V | 08:30:00 | 01:39:50 | 00:00:00 | |
| HSKMA3-T | 2026-09-05 12:08:56 | 48.42985 | 10.48619 | 67° | 26km/h | 26039m | 6m/s | -49.4°C | 0.4% | 23.9hPa | 2.6V | 18:12:15 | 01:39:55 | 00:00:00 | |
| OE5MMP-10 | 2026-09-05 12:08:56 | 48.42985 | 10.48619 | 67° | 24km/h | 26039m | 6.0m/s | -49.4°C | 3.4% | 23.8hPa | 2.6V | 00:00:00 | 01:39:55 | 08:30:00 | |
| BAUMI2-15 | 2026-09-05 12:08:55 | 48.42982 | 10.48610 | 59° | 20km/h | 26034m | 5.4m/s | -49.4°C | 3.4% | 23.9hPa | 2.6V | 00:00:00 | 01:39:54 | 00:00:00 | |
| IW2NTF | 2026-09-05 12:08:54 | 48.42974 | 10.48592 | 61° | 16km/h | 26016m | 5.8m/s | -49.4°C | 3.5% | 24hPa | 2.6V | 08:30:00 | 01:39:51 | 00:00:00 | |
| DK7TD | 2026-09-05 12:08:51 | 48.42972 | 10.48586 | 62° | 18km/h | 26011m | 4.7m/s | -49.4°C | 0.4% | 24hPa | 2.6V | 18:12:15 | 01:39:50 | 00:00:00 | |
| SONDE2-11 | 2026-09-05 12:08:50 | 48.42966 | 10.48572 | 53° | 26km/h | 26001m | 6.5m/s | -49.3°C | 0.9% | 24.1hPa | 2.6V | 00:00:00 | 00:00:00 | 00:00:00 | |
| DD1CC3-15 | 2026-09-05 12:08:49 | 48.42966 | 10.48572 | 54° | 26km/h | 26001m | 6.5m/s | -49.3°C | 0.9% | 24.1hPa | 2.6V | 00:00:00 | 00:00:00 | 00:00:00 | |
| DO3MHA-11 | 2026-09-05 12:08:48 | 48.42962 | 10.48564 | 50° | 27km/h | 25995m | 5.3m/s | -49.3°C | 3.4% | 24.0hPa | 2.6V | 00:00:00 | 01:39:47 | 00:00:00 | |
| DB0UT-7 | 2026-09-05 12:08:47 | 48.42956 | 10.48555 | 49° | 27km/h | 25990m | 4.2m/s | -49.3°C | 3.4% | 24.0hPa | 2.6V | 00:00:00 | 00:00:00 | 00:00:00 | |
| DM0DOS-11 | 2026-09-05 12:08:46 | 48.42928 | 10.48506 | 39° | 26km/h | 25956m | 5.3m/s | -49°C | 3.3% | 24.2hPa | 2.6V | 08:30:00 | 01:39:40 | 00:00:00 | |
| HSKMA3-T | 2026-09-05 12:08:45 | 48.42946 | 10.48536 | 52° | 29km/h | 25978m | 5.6m/s | -49.1°C | 0.4% | 24.1hPa | 2.6V | 18:12:15 | 01:39:44 | 00:00:00 | |
| DL6DJ-15 | 2026-09-05 12:08:44 | 48.42942 | 10.48528 | 50° | 27km/h | 25974m | 4.8m/s | -49.2°C | 0.9% | 24.1hPa | 2.6V | 00:00:00 | 00:00:00 | 00:00:00 | |
| DK7TD | 2026-09-05 12:08:40 | 48.42923 | 10.48500 | 39° | 24km/h | 25951m | 5.5m/s | -49°C | 0.3% | 24.2hPa | 2.6V | 18:12:15 | 01:39:39 | 00:00:00 | |
| DO3MHA-12 | 2026-09-05 12:08:39 | 48.42919 | 10.48495 | 40° | 26km/h | 25945m | 6.7m/s | -49.0°C | 3.4% | 24.2hPa | 2.7V | 00:00:00 | 01:39:38 | 00:00:00 | |
| DO3MHA-11 | 2026-09-05 12:08:38 | 48.42915 | 10.48490 | 41° | 27km/h | 25939m | 5.4m/s | -49.0°C | 3.4% | 24.2hPa | 2.7V | 00:00:00 | 01:39:37 | 00:00:00 | |
| IW2NTF | 2026-09-05 12:08:36 | 48.42878 | 10.48432 | 49° | 31km/h | 25896m | 4.7m/s | -49°C | 3.3% | 24.4hPa | 2.6V | 08:30:00 | 01:39:29 | 00:00:00 | |
| HSKMA3-T | 2026-09-05 12:08:34 | 48.42897 | 10.48468 | 44° | 29km/h | 25918m | 4.6m/s | -48.9°C | 0.3% | 24.3hPa | 2.6V | 18:12:15 | 01:39:33 | 00:00:00 | |
| DM0DOS-11 | 2026-09-05 12:08:34 | 48.42883 | 10.48441 | 53° | 31km/h | 25901m | 4.5m/s | -49.1°C | 3.3% | 24.4hPa | 2.7V | 08:30:00 | 01:39:30 | 00:00:00 | |
| DK7TD | 2026-09-05 12:08:30 | 48.42878 | 10.48432 | 50° | 31km/h | 25897m | 4.7m/s | -49.1°C | 0.3% | 24.4hPa | 2.6V | 18:12:15 | 01:39:29 | 00:00:00 | |
| OE5WHR-10 | 2026-09-05 12:08:30 | 48.42878 | 10.48432 | 50° | 27km/h | 25897m | 4.7m/s | -49.0°C | 3.3% | 24.4hPa | 2.6V | 00:00:00 | 00:00:00 | 00:00:00 | |
| DO3MHA-12 | 2026-09-05 12:08:29 | 48.42872 | 10.48423 | 44° | 27km/h | 25892m | 6.0m/s | -49.0°C | 3.3% | 24.4hPa | 2.6V | 00:00:00 | 01:39:28 | 00:00:00 | |
| DO3MHA-11 | 2026-09-05 12:08:28 | 48.42866 | 10.48414 | 39° | 27km/h | 25886m | 5.1m/s | -48.9°C | 3.3% | 24.4hPa | 2.6V | 00:00:00 | 01:39:27 | 00:00:00 | |
| DL1NUX | 2026-09-05 12:08:27 | 48.42838 | 10.48375 | 52° | 22km/h | 25855m | 4.8m/s | -49°C | 3.4% | 24.6hPa | 2.6V | 08:30:00 | 01:39:21 | 00:00:00 | |
| PETON7-10 | 2026-09-05 12:08:27 | 48.42859 | 10.48407 | 37° | 29km/h | 25881m | 3.9m/s | 0°C | 0% | 0hPa | 2.7V | 00:00:00 | 01:39:26 | 00:00:00 | |
| DM0DOS-11 | 2026-09-05 12:08:26 | 48.42834 | 10.48368 | 43° | 24km/h | 25849m | 6.5m/s | -49°C | 3.4% | 24.6hPa | 2.7V | 08:30:00 | 01:39:20 | 00:00:00 | |
| OE5MMP-10 | 2026-09-05 12:08:26 | 48.42853 | 10.48400 | 38° | 27km/h | 25877m | 4.8m/s | -48.9°C | 3.3% | 24.4hPa | 2.7V | 00:00:00 | 01:39:25 | 00:00:00 | |
| BAUMI2-15 | 2026-09-05 12:08:25 | 48.42848 | 10.48393 | 43° | 22km/h | 25871m | 6.7m/s | -48.9°C | 3.3% | 24.4hPa | 2.7V | 00:00:00 | 01:39:24 | 00:00:00 | |
| IW2NTF | 2026-09-05 12:08:24 | 48.42829 | 10.48362 | 36° | 29km/h | 25843m | 5.5m/s | -49°C | 3.4% | 24.6hPa | 2.7V | 08:30:00 | 01:39:19 | 00:00:00 | |
| HSKMA3-T | 2026-09-05 12:08:24 | 48.42844 | 10.48387 | 52° | 22km/h | 25865m | 5.6m/s | -48.9°C | 0.4% | 24.5hPa | 2.6V | 18:12:15 | 01:39:23 | 00:00:00 | |
| DK7TD | 2026-09-05 12:08:19 | 48.42823 | 10.48355 | 34° | 33km/h | 25838m | 5m/s | -49.1°C | 0.3% | 24.6hPa | 2.6V | 18:12:15 | 01:39:18 | 00:00:00 | |
| DO3MHA-12 | 2026-09-05 12:08:19 | 48.42823 | 10.48355 | 35° | 31km/h | 25838m | 5.0m/s | -49.0°C | 3.4% | 24.6hPa | 2.6V | 00:00:00 | 01:39:18 | 00:00:00 | |
| DO3MHA-11 | 2026-09-05 12:08:18 | 48.42816 | 10.48347 | 37° | 27km/h | 25833m | 5.2m/s | -49.0°C | 3.4% | 24.6hPa | 2.6V | 00:00:00 | 01:39:17 | 00:00:00 | |
| DH7VM-15 | 2026-09-05 12:08:17 | 48.42808 | 10.48339 | 41° | 37km/h | 25827m | 6.7m/s | -49.0°C | 0.9% | 24.7hPa | 2.6V | 00:00:00 | 00:00:00 | 00:00:00 | |
| DM0DOS-11 | 2026-09-05 12:08:16 | 48.42773 | 10.48291 | 36° | 22km/h | 25795m | 5m/s | -49°C | 3.3% | 24.8hPa | 2.6V | 08:30:00 | 01:39:10 | 00:00:00 | |
| HSKMA3-T | 2026-09-05 12:08:13 | 48.42784 | 10.48303 | 40° | 31km/h | 25805m | 5.7m/s | -49.1°C | 0.3% | 24.7hPa | 2.6V | 18:12:15 | 01:39:12 | 00:00:00 | |
| IW2NTF | 2026-09-05 12:08:13 | 48.42769 | 10.48286 | 40° | 16km/h | 25789m | 7m/s | -48.9°C | 3.3% | 24.8hPa | 2.7V | 08:30:00 | 01:39:09 | 00:00:00 | |
| DK7TD | 2026-09-05 12:08:09 | 48.42767 | 10.48283 | 42° | 11km/h | 25783m | 5.8m/s | -48.8°C | 0.3% | 24.8hPa | 2.7V | 18:12:15 | 01:39:08 | 00:00:00 | |
| DO3MHA-12 | 2026-09-05 12:08:09 | 48.42767 | 10.48283 | 42° | 16km/h | 25783m | 5.8m/s | -48.8°C | 3.3% | 24.8hPa | 2.6V | 00:00:00 | 01:39:08 | 00:00:00 | |
| SO1NDE-10 | 2026-09-05 12:08:08 | 48.42765 | 10.48281 | 26° | 20km/h | 25778m | 4.6m/s | -48.7°C | 3.3% | 24.8hPa | 2.6V | 00:00:00 | 01:39:07 | 00:00:00 | |
| IW2NTF | 2026-09-05 12:08:07 | 48.42732 | 10.48263 | 41° | 24km/h | 25734m | 6m/s | -48.6°C | 3.1% | 25hPa | 2.6V | 08:30:00 | 01:38:59 | 00:00:00 | |
| HSKMA3-T | 2026-09-05 12:08:03 | 48.42746 | 10.48277 | 22° | 20km/h | 25751m | 6.4m/s | -48.7°C | 0.2% | 24.9hPa | 2.7V | 18:12:15 | 01:39:02 | 00:00:00 | |
| DM0DOS-11 | 2026-09-05 12:08:02 | 48.42737 | 10.48268 | 40° | 24km/h | 25739m | 5m/s | -48.6°C | 3.1% | 25hPa | 2.6V | 08:30:00 | 01:39:00 | 00:00:00 | |
| DK7TD | 2026-09-05 12:07:59 | 48.42728 | 10.48257 | 38° | 24km/h | 25728m | 5.8m/s | -48.6°C | 0.2% | 25hPa | 2.7V | 18:12:15 | 01:38:58 | 00:00:00 | |
| DO3MHA-12 | 2026-09-05 12:07:59 | 48.42728 | 10.48256 | 38° | 20km/h | 25728m | 5.7m/s | -48.6°C | 3.1% | 25.0hPa | 2.7V | 00:00:00 | 01:38:58 | 00:00:00 | |
| DL1NUX | 2026-09-05 12:07:58 | 48.42709 | 10.48234 | 44° | 15km/h | 25700m | 4.9m/s | -49°C | 3.2% | 25.1hPa | 2.7V | 08:30:00 | 01:38:53 | 00:00:00 | |
| DO3MHA-11 | 2026-09-05 12:07:58 | 48.42723 | 10.48251 | 35° | 20km/h | 25723m | 5.2m/s | -48.6°C | 3.1% | 25.0hPa | 2.6V | 00:00:00 | 01:38:57 | 00:00:00 | |
| DM0DOS-11 | 2026-09-05 12:07:56 | 48.42697 | 10.48223 | 24° | 22km/h | 25683m | 4.8m/s | -49.3°C | 3.3% | 25.1hPa | 2.6V | 08:30:00 | 01:38:50 | 00:00:00 | |
| OE5MMP-10 | 2026-09-05 12:07:56 | 48.42714 | 10.48242 | 40° | 22km/h | 25712m | 6.5m/s | -48.8°C | 3.1% | 25.0hPa | 2.6V | 00:00:00 | 01:38:55 | 00:00:00 | |
| DK5PH-5 | 2026-09-05 12:07:55 | 48.42711 | 10.48238 | 47° | 20km/h | 25706m | 5.8m/s | -48.8°C | 3.2% | 25.0hPa | 2.6V | 00:00:00 | 01:38:54 | 00:00:00 | |
| IW2NTF | 2026-09-05 12:07:54 | 48.42691 | 10.48219 | 28° | 24km/h | 25678m | 6.3m/s | -49.4°C | 3.3% | 25.2hPa | 2.6V | 08:30:00 | 01:38:49 | 00:00:00 | |
| HSKMA3-T | 2026-09-05 12:07:52 | 48.42702 | 10.48227 | 25° | 20km/h | 25688m | 5.7m/s | -49.2°C | 0.3% | 25.1hPa | 2.7V | 18:12:15 | 01:38:51 | 00:00:00 | |
| DK7TD | 2026-09-05 12:07:48 | 48.42681 | 10.48209 | 36° | 26km/h | 25666m | 5.4m/s | -49.3°C | 0.3% | 25.3hPa | 2.6V | 18:12:15 | 01:38:47 | 00:00:00 | |
| DL1NUX | 2026-09-05 12:07:48 | 48.42661 | 10.48190 | 35° | 16km/h | 25644m | 6.1m/s | -49.6°C | 3.2% | 25.3hPa | 2.6V | 08:30:00 | 01:38:43 | 00:00:00 | |
| SONDE2-11 | 2026-09-05 12:07:48 | 48.42675 | 10.48203 | 33° | 26km/h | 25660m | 6.1m/s | -49.4°C | 0.9% | 25.3hPa | 2.7V | 00:00:00 | 00:00:00 | 00:00:00 | |
| DB0UT-7 | 2026-09-05 12:07:47 | 48.42675 | 10.48203 | 34° | 20km/h | 25660m | 6.1m/s | -49.4°C | 3.2% | 25.2hPa | 2.7V | 00:00:00 | 00:00:00 | 00:00:00 | |
| DM0DOS-11 | 2026-09-05 12:07:46 | 48.42654 | 10.48179 | 56° | 9km/h | 25626m | 6.2m/s | -49.7°C | 3.3% | 25.4hPa | 2.7V | 08:30:00 | 01:38:40 | 00:00:00 | |
| OE5MMP-10 | 2026-09-05 12:07:46 | 48.42669 | 10.48198 | 29° | 15km/h | 25654m | 5.8m/s | -49.5°C | 3.3% | 25.2hPa | 2.7V | 00:00:00 | 01:38:45 | 00:00:00 | |
| IW2NTF | 2026-09-05 12:07:45 | 48.42653 | 10.48176 | 43° | 11km/h | 25619m | 6.1m/s | -49.7°C | 3.3% | 25.4hPa | 2.7V | 08:30:00 | 01:38:39 | 00:00:00 | |
| HSKMA3-T | 2026-09-05 12:07:41 | 48.42654 | 10.48179 | 57° | 9km/h | 25626m | 6.2m/s | -49.7°C | 0.3% | 25.4hPa | 2.7V | 18:12:15 | 01:38:40 | 00:00:00 | |
| DK7TD | 2026-09-05 12:07:37 | 48.42645 | 10.48164 | 50° | 20km/h | 25602m | 5.7m/s | -50°C | 0.4% | 25.5hPa | 2.6V | 18:12:15 | 01:38:36 | 00:00:00 | |
| DM0DOS-11 | 2026-09-05 12:07:37 | 48.42612 | 10.48136 | 16° | 24km/h | 25568m | 5.4m/s | -50.4°C | 3.5% | 25.6hPa | 2.6V | 08:30:00 | 01:38:30 | 00:00:00 | |
| OE5MMP-10 | 2026-09-05 12:07:37 | 48.42641 | 10.48158 | 47° | 22km/h | 25597m | 4.4m/s | -50.1°C | 3.5% | 25.4hPa | 2.7V | 00:00:00 | 01:38:35 | 00:00:00 | |
| DB0ND-19 | 2026-09-05 12:07:36 | 48.42631 | 10.48146 | 28° | 26km/h | 25586m | 6.8m/s | -50.2°C | 0.9% | 25.5hPa | 2.7V | 00:00:00 | 00:00:00 | 00:00:00 | |
| DJ8HS-15 | 2026-09-05 12:07:35 | 48.42625 | 10.48142 | 19° | 20km/h | 25579m | 5.7m/s | -50.2°C | 3.5% | 25.5hPa | 2.7V | 00:00:00 | 01:38:32 | 00:00:00 | |
| SONCRA | 2026-09-05 12:07:34 | 48.42618 | 10.48139 | 14° | 26km/h | 25574m | 5.1m/s | -50.3°C | 0.9% | 25.6hPa | 2.7V | 00:00:00 | 00:00:00 | 00:00:00 | |
| IW2NTF | 2026-09-05 12:07:33 | 48.42607 | 10.48134 | 21° | 20km/h | 25563m | 6.1m/s | -50.4°C | 3.5% | 25.6hPa | 2.7V | 08:30:00 | 01:38:29 | 00:00:00 | |
| HSKMA3-T | 2026-09-05 12:07:32 | 48.42607 | 10.48134 | 22° | 22km/h | 25563m | 6.1m/s | -50.4°C | 0.4% | 25.6hPa | 2.7V | 18:12:15 | 01:38:29 | 00:00:00 | |
| DK7TD | 2026-09-05 12:07:27 | 48.42594 | 10.48124 | 25° | 16km/h | 25547m | 5.6m/s | -50.2°C | 0.4% | 25.7hPa | 2.6V | 18:12:15 | 01:38:26 | 00:00:00 | |
| OE5WHR-10 | 2026-09-05 12:07:27 | 48.42594 | 10.48124 | 25° | 16km/h | 25547m | 5.5m/s | -50.1°C | 3.4% | 25.6hPa | 2.6V | 00:00:00 | 00:00:00 | 00:00:00 | |
| DM0DOS-11 | 2026-09-05 12:07:26 | 48.42572 | 10.48119 | 7° | 16km/h | 25513m | 5m/s | -50.4°C | 3.5% | 25.8hPa | 2.6V | 08:30:00 | 01:38:20 | 00:00:00 | |
| OE5MMP-10 | 2026-09-05 12:07:26 | 48.42590 | 10.48122 | 15° | 18km/h | 25541m | 6.1m/s | -50.2°C | 3.4% | 25.7hPa | 2.6V | 00:00:00 | 01:38:25 | 08:30:00 | |
| DK5PH-5 | 2026-09-05 12:07:25 | 48.42586 | 10.48121 | 4° | 16km/h | 25536m | 4.9m/s | -50.2°C | 3.4% | 25.7hPa | 2.7V | 00:00:00 | 01:38:24 | 00:00:00 | |
| PG1ADW-2 | 2026-09-05 12:07:24 | 48.42583 | 10.48121 | 1° | 16km/h | 25531m | 4.9m/s | -50.1°C | 3.4% | 25.7hPa | 2.7V | 00:00:00 | 00:00:00 | 00:00:00 | |
| IW2NTF | 2026-09-05 12:07:23 | 48.42554 | 10.48118 | 356° | 27km/h | 25495m | 4.9m/s | -50.3°C | 3.5% | 25.9hPa | 2.7V | 08:30:00 | 01:38:17 | 00:00:00 | |
| HSKMA3-T | 2026-09-05 12:07:20 | 48.42567 | 10.48118 | 3° | 22km/h | 25507m | 7.1m/s | -50.3°C | 0.4% | 25.9hPa | 2.6V | 18:12:15 | 01:38:19 | 00:00:00 | |
| DO3MHA-12 | 2026-09-05 12:07:19 | 48.42561 | 10.48118 | 359° | 18km/h | 25501m | 6.1m/s | -50.2°C | 3.5% | 25.8hPa | 2.7V | 00:00:00 | 01:38:18 | 08:30:00 | |
| AZAK | 2026-09-05 12:07:18 | 48.42554 | 10.48118 | 358° | 27km/h | 25496m | 4.9m/s | -50.3°C | 0.9% | 25.9hPa | 2.7V | 00:00:00 | 00:00:00 | 00:00:00 | |
| DL1NUX | 2026-09-05 12:07:17 | 48.42524 | 10.48126 | 333° | 16km/h | 25460m | 4.8m/s | -50.7°C | 3.5% | 26hPa | 2.7V | 08:30:00 | 01:38:11 | 00:00:00 | |
| DK7TD | 2026-09-05 12:07:16 | 48.42542 | 10.48119 | 357° | 22km/h | 25483m | 6m/s | -50.5°C | 0.5% | 25.9hPa | 2.6V | 18:12:15 | 01:38:15 | 00:00:00 | |
| OE5MMP-10 | 2026-09-05 12:07:16 | 48.42542 | 10.48119 | 358° | 13km/h | 25483m | 5.9m/s | -50.4°C | 3.5% | 25.9hPa | 2.6V | 00:00:00 | 01:38:15 | 00:00:00 | |
| DL1ZP-14 | 2026-09-05 12:07:15 | 48.42537 | 10.48120 | 352° | 18km/h | 25478m | 5.3m/s | -50.6°C | 0.9% | 25.9hPa | 2.6V | 00:00:00 | 00:00:00 | 00:00:00 | |
| DF7PN | 2026-09-05 12:07:14 | 48.42528 | 10.48124 | 337° | 18km/h | 25465m | 6.0m/s | -50.7°C | 1.0% | 26.0hPa | 2.7V | 00:00:00 | 00:00:00 | 00:00:00 | |
| DJ8HS-15 | 2026-09-05 12:07:13 | 48.42528 | 10.48123 | 338° | 13km/h | 25465m | 5.9m/s | -50.7°C | 3.6% | 25.9hPa | 2.7V | 00:00:00 | 01:38:12 | 08:30:00 | |
| IW2NTF | 2026-09-05 12:07:12 | 48.42516 | 10.48132 | 346° | 5km/h | 25437m | 5m/s | -50.7°C | 3.6% | 26.1hPa | 2.6V | 08:30:00 | 01:38:07 | 00:00:00 | |
| HSKMA3-T | 2026-09-05 12:07:10 | 48.42519 | 10.48131 | 331° | 7km/h | 25448m | 6.9m/s | -50.7°C | 0.5% | 26.1hPa | 2.6V | 18:12:15 | 01:38:09 | 00:00:00 | |
| DL9SK-14 | 2026-09-05 12:07:09 | 48.42516 | 10.48132 | 346° | 5km/h | 25437m | 5.0m/s | -50.7°C | 1.0% | 26.1hPa | 2.6V | 00:00:00 | 00:00:00 | 00:00:00 | |
| DO3MHA-11 | 2026-09-05 12:07:08 | 48.42516 | 10.48132 | 347° | 15km/h | 25437m | 5.0m/s | -50.6°C | 3.6% | 26.1hPa | 2.6V | 00:00:00 | 01:38:07 | 00:00:00 | |
| DL1NUX | 2026-09-05 12:07:07 | 48.42495 | 10.48136 | 7° | 15km/h | 25401m | 5.3m/s | -50.6°C | 3.7% | 26.2hPa | 2.6V | 08:30:00 | 01:38:01 | 00:00:00 | |
| DK7TD | 2026-09-05 12:07:06 | 48.42511 | 10.48134 | 345° | 15km/h | 25425m | 6m/s | -50.7°C | 0.6% | 26.2hPa | 2.7V | 18:12:15 | 01:38:05 | 00:00:00 | |
| Es werden nur die letzten 3500 von 5346 Frames angezeigt. GPX/KML und Diagramme bleiben verfügbar. | |||||||||||||||